<?xml version="1.0" encoding="UTF-8"?>
<gpx version="1.1" creator="https://www.youtrack.es" xsi:schemaLocation="http://www.topografix.com/GPX/1/1 http://www.topografix.com/GPX/1/1/gpx.xsd http://www.garmin.com/xmlschemas/GpxExtensions/v3 http://www.garmin.com/xmlschemas/GpxExtensionsv3.xsd http://www.garmin.com/xmlschemas/TrackPointExtension/v1 http://www.garmin.com/xmlschemas/TrackPointExtensionv1.xsd" xmlns:gpxtpx="http://www.garmin.com/xmlschemas/TrackPointExtension/v1" xmlns:gpxx="http://www.garmin.com/xmlschemas/GpxExtensions/v3" xmlns:xsi="http://www.w3.org/2001/XMLSchema-instance">
  <metadata>
    <link href="https://www.youtrack.es">
      <text>YouTrack.es</text>
    </link>
    <time>2026-05-09T01:29:03Z</time>
  </metadata>
  <trk>
    <src>https://www.youtrack.es</src>
    <link href="https://www.youtrack.es/ruta/26976-mello-alen-por-trespikillos">
      <text>YouTrack.es</text>
    </link>
    <trkseg>
      <trkpt lat="43.28921" lon="-2.99702">
        <ele>15.6</ele>
        <time>2021-10-28 08:08:35</time>
      </trkpt>
      <trkpt lat="43.28921" lon="-2.99702">
        <ele>15.4</ele>
        <time>2021-10-28 08:08:36</time>
      </trkpt>
      <trkpt lat="43.2892" lon="-2.99705">
        <ele>15.4</ele>
        <time>2021-10-28 08:08:37</time>
      </trkpt>
      <trkpt lat="43.28918" lon="-2.99713">
        <ele>15.2</ele>
        <time>2021-10-28 08:08:38</time>
      </trkpt>
      <trkpt lat="43.28917" lon="-2.99717">
        <ele>15.2</ele>
        <time>2021-10-28 08:08:39</time>
      </trkpt>
      <trkpt lat="43.28917" lon="-2.99717">
        <ele>15.4</ele>
        <time>2021-10-28 08:08:40</time>
      </trkpt>
      <trkpt lat="43.28912" lon="-2.99728">
        <ele>15.4</ele>
        <time>2021-10-28 08:08:41</time>
      </trkpt>
      <trkpt lat="43.28912" lon="-2.99728">
        <ele>15.6</ele>
        <time>2021-10-28 08:08:42</time>
      </trkpt>
      <trkpt lat="43.28911" lon="-2.99733">
        <ele>15.6</ele>
        <time>2021-10-28 08:08:43</time>
      </trkpt>
      <trkpt lat="43.28911" lon="-2.99739">
        <ele>15.6</ele>
        <time>2021-10-28 08:08:44</time>
      </trkpt>
      <trkpt lat="43.28911" lon="-2.99739">
        <ele>15.6</ele>
        <time>2021-10-28 08:08:45</time>
      </trkpt>
      <trkpt lat="43.28911" lon="-2.99739">
        <ele>15.6</ele>
        <time>2021-10-28 08:08:46</time>
      </trkpt>
      <trkpt lat="43.28909" lon="-2.99747">
        <ele>15.6</ele>
        <time>2021-10-28 08:08:47</time>
      </trkpt>
      <trkpt lat="43.28907" lon="-2.99755">
        <ele>15.6</ele>
        <time>2021-10-28 08:08:48</time>
      </trkpt>
      <trkpt lat="43.28906" lon="-2.9976">
        <ele>15.6</ele>
        <time>2021-10-28 08:08:49</time>
      </trkpt>
      <trkpt lat="43.28906" lon="-2.9976">
        <ele>15.6</ele>
        <time>2021-10-28 08:08:50</time>
      </trkpt>
      <trkpt lat="43.28903" lon="-2.99768">
        <ele>15.6</ele>
        <time>2021-10-28 08:08:51</time>
      </trkpt>
      <trkpt lat="43.28903" lon="-2.99768">
        <ele>15.6</ele>
        <time>2021-10-28 08:08:52</time>
      </trkpt>
      <trkpt lat="43.28901" lon="-2.99769">
        <ele>15.4</ele>
        <time>2021-10-28 08:08:53</time>
      </trkpt>
      <trkpt lat="43.28899" lon="-2.99772">
        <ele>15.2</ele>
        <time>2021-10-28 08:08:54</time>
      </trkpt>
      <trkpt lat="43.28897" lon="-2.99783">
        <ele>15.2</ele>
        <time>2021-10-28 08:08:55</time>
      </trkpt>
      <trkpt lat="43.28897" lon="-2.99783">
        <ele>15</ele>
        <time>2021-10-28 08:08:56</time>
      </trkpt>
      <trkpt lat="43.28894" lon="-2.99789">
        <ele>15</ele>
        <time>2021-10-28 08:08:57</time>
      </trkpt>
      <trkpt lat="43.28894" lon="-2.99789">
        <ele>15</ele>
        <time>2021-10-28 08:08:58</time>
      </trkpt>
      <trkpt lat="43.2889" lon="-2.99798">
        <ele>15</ele>
        <time>2021-10-28 08:08:59</time>
      </trkpt>
      <trkpt lat="43.28888" lon="-2.99802">
        <ele>14.8</ele>
        <time>2021-10-28 08:09:00</time>
      </trkpt>
      <trkpt lat="43.28881" lon="-2.99809">
        <ele>14.8</ele>
        <time>2021-10-28 08:09:01</time>
      </trkpt>
      <trkpt lat="43.28881" lon="-2.99809">
        <ele>14.8</ele>
        <time>2021-10-28 08:09:02</time>
      </trkpt>
      <trkpt lat="43.28881" lon="-2.99809">
        <ele>14.8</ele>
        <time>2021-10-28 08:09:03</time>
      </trkpt>
      <trkpt lat="43.28877" lon="-2.99816">
        <ele>14.8</ele>
        <time>2021-10-28 08:09:04</time>
      </trkpt>
      <trkpt lat="43.28873" lon="-2.99824">
        <ele>14.8</ele>
        <time>2021-10-28 08:09:05</time>
      </trkpt>
      <trkpt lat="43.28873" lon="-2.99824">
        <ele>14.8</ele>
        <time>2021-10-28 08:09:06</time>
      </trkpt>
      <trkpt lat="43.28868" lon="-2.99834">
        <ele>14.8</ele>
        <time>2021-10-28 08:09:07</time>
      </trkpt>
      <trkpt lat="43.28868" lon="-2.99834">
        <ele>14.6</ele>
        <time>2021-10-28 08:09:08</time>
      </trkpt>
      <trkpt lat="43.28867" lon="-2.99838">
        <ele>14.6</ele>
        <time>2021-10-28 08:09:09</time>
      </trkpt>
      <trkpt lat="43.28867" lon="-2.99849">
        <ele>14.6</ele>
        <time>2021-10-28 08:09:10</time>
      </trkpt>
      <trkpt lat="43.28867" lon="-2.99849">
        <ele>14.6</ele>
        <time>2021-10-28 08:09:11</time>
      </trkpt>
      <trkpt lat="43.28867" lon="-2.99849">
        <ele>14.6</ele>
        <time>2021-10-28 08:09:12</time>
      </trkpt>
      <trkpt lat="43.28871" lon="-2.99862">
        <ele>14.6</ele>
        <time>2021-10-28 08:09:13</time>
      </trkpt>
      <trkpt lat="43.28871" lon="-2.99862">
        <ele>14.8</ele>
        <time>2021-10-28 08:09:14</time>
      </trkpt>
      <trkpt lat="43.28872" lon="-2.99865">
        <ele>15</ele>
        <time>2021-10-28 08:09:15</time>
      </trkpt>
      <trkpt lat="43.28874" lon="-2.99869">
        <ele>15</ele>
        <time>2021-10-28 08:09:16</time>
      </trkpt>
      <trkpt lat="43.28879" lon="-2.99876">
        <ele>15.2</ele>
        <time>2021-10-28 08:09:17</time>
      </trkpt>
      <trkpt lat="43.28879" lon="-2.99876">
        <ele>15.2</ele>
        <time>2021-10-28 08:09:18</time>
      </trkpt>
      <trkpt lat="43.28883" lon="-2.99884">
        <ele>15.2</ele>
        <time>2021-10-28 08:09:19</time>
      </trkpt>
      <trkpt lat="43.28883" lon="-2.99884">
        <ele>15.2</ele>
        <time>2021-10-28 08:09:20</time>
      </trkpt>
      <trkpt lat="43.28885" lon="-2.99887">
        <ele>15.2</ele>
        <time>2021-10-28 08:09:21</time>
      </trkpt>
      <trkpt lat="43.28887" lon="-2.99891">
        <ele>15</ele>
        <time>2021-10-28 08:09:22</time>
      </trkpt>
      <trkpt lat="43.28892" lon="-2.99896">
        <ele>15</ele>
        <time>2021-10-28 08:09:23</time>
      </trkpt>
      <trkpt lat="43.28892" lon="-2.99896">
        <ele>15</ele>
        <time>2021-10-28 08:09:24</time>
      </trkpt>
      <trkpt lat="43.28893" lon="-2.99899">
        <ele>15</ele>
        <time>2021-10-28 08:09:25</time>
      </trkpt>
      <trkpt lat="43.28898" lon="-2.99904">
        <ele>15.2</ele>
        <time>2021-10-28 08:09:26</time>
      </trkpt>
      <trkpt lat="43.28898" lon="-2.99904">
        <ele>15.2</ele>
        <time>2021-10-28 08:09:27</time>
      </trkpt>
      <trkpt lat="43.28904" lon="-2.99913">
        <ele>15.4</ele>
        <time>2021-10-28 08:09:28</time>
      </trkpt>
      <trkpt lat="43.28904" lon="-2.99913">
        <ele>15.4</ele>
        <time>2021-10-28 08:09:29</time>
      </trkpt>
      <trkpt lat="43.28906" lon="-2.99916">
        <ele>15.4</ele>
        <time>2021-10-28 08:09:30</time>
      </trkpt>
      <trkpt lat="43.28909" lon="-2.99919">
        <ele>15.4</ele>
        <time>2021-10-28 08:09:31</time>
      </trkpt>
      <trkpt lat="43.2891" lon="-2.99925">
        <ele>15.4</ele>
        <time>2021-10-28 08:09:32</time>
      </trkpt>
      <trkpt lat="43.28914" lon="-2.99932">
        <ele>15.4</ele>
        <time>2021-10-28 08:09:33</time>
      </trkpt>
      <trkpt lat="43.28914" lon="-2.99932">
        <ele>15.4</ele>
        <time>2021-10-28 08:09:34</time>
      </trkpt>
      <trkpt lat="43.28919" lon="-2.99936">
        <ele>15.6</ele>
        <time>2021-10-28 08:09:35</time>
      </trkpt>
      <trkpt lat="43.28919" lon="-2.99936">
        <ele>15.6</ele>
        <time>2021-10-28 08:09:36</time>
      </trkpt>
      <trkpt lat="43.28922" lon="-2.9994">
        <ele>15.6</ele>
        <time>2021-10-28 08:09:37</time>
      </trkpt>
      <trkpt lat="43.28925" lon="-2.99944">
        <ele>15.8</ele>
        <time>2021-10-28 08:09:38</time>
      </trkpt>
      <trkpt lat="43.28928" lon="-2.99946">
        <ele>15.8</ele>
        <time>2021-10-28 08:09:39</time>
      </trkpt>
      <trkpt lat="43.28933" lon="-2.99953">
        <ele>15.8</ele>
        <time>2021-10-28 08:09:40</time>
      </trkpt>
      <trkpt lat="43.28933" lon="-2.99953">
        <ele>16</ele>
        <time>2021-10-28 08:09:41</time>
      </trkpt>
      <trkpt lat="43.28935" lon="-2.99956">
        <ele>16</ele>
        <time>2021-10-28 08:09:42</time>
      </trkpt>
      <trkpt lat="43.28935" lon="-2.99956">
        <ele>16</ele>
        <time>2021-10-28 08:09:43</time>
      </trkpt>
      <trkpt lat="43.28937" lon="-2.9996">
        <ele>16.2</ele>
        <time>2021-10-28 08:09:44</time>
      </trkpt>
      <trkpt lat="43.28937" lon="-2.99965">
        <ele>16.2</ele>
        <time>2021-10-28 08:09:45</time>
      </trkpt>
      <trkpt lat="43.28943" lon="-2.99971">
        <ele>16.2</ele>
        <time>2021-10-28 08:09:46</time>
      </trkpt>
      <trkpt lat="43.28943" lon="-2.99971">
        <ele>16.2</ele>
        <time>2021-10-28 08:09:47</time>
      </trkpt>
      <trkpt lat="43.28947" lon="-2.99978">
        <ele>16.2</ele>
        <time>2021-10-28 08:09:48</time>
      </trkpt>
      <trkpt lat="43.28947" lon="-2.99978">
        <ele>16.2</ele>
        <time>2021-10-28 08:09:49</time>
      </trkpt>
      <trkpt lat="43.28949" lon="-2.99985">
        <ele>16.2</ele>
        <time>2021-10-28 08:09:50</time>
      </trkpt>
      <trkpt lat="43.2895" lon="-2.99993">
        <ele>16.2</ele>
        <time>2021-10-28 08:09:51</time>
      </trkpt>
      <trkpt lat="43.28952" lon="-2.99999">
        <ele>16.2</ele>
        <time>2021-10-28 08:09:52</time>
      </trkpt>
      <trkpt lat="43.28955" lon="-3.00012">
        <ele>16.2</ele>
        <time>2021-10-28 08:09:53</time>
      </trkpt>
      <trkpt lat="43.28955" lon="-3.00012">
        <ele>16</ele>
        <time>2021-10-28 08:09:54</time>
      </trkpt>
      <trkpt lat="43.28955" lon="-3.00012">
        <ele>16</ele>
        <time>2021-10-28 08:09:55</time>
      </trkpt>
      <trkpt lat="43.28958" lon="-3.00023">
        <ele>16</ele>
        <time>2021-10-28 08:09:56</time>
      </trkpt>
      <trkpt lat="43.28959" lon="-3.00028">
        <ele>16</ele>
        <time>2021-10-28 08:09:57</time>
      </trkpt>
      <trkpt lat="43.2896" lon="-3.00033">
        <ele>16</ele>
        <time>2021-10-28 08:09:58</time>
      </trkpt>
      <trkpt lat="43.28965" lon="-3.00044">
        <ele>16</ele>
        <time>2021-10-28 08:09:59</time>
      </trkpt>
      <trkpt lat="43.28965" lon="-3.00044">
        <ele>15.8</ele>
        <time>2021-10-28 08:10:00</time>
      </trkpt>
      <trkpt lat="43.28968" lon="-3.00054">
        <ele>15.8</ele>
        <time>2021-10-28 08:10:01</time>
      </trkpt>
      <trkpt lat="43.2897" lon="-3.00059">
        <ele>15.6</ele>
        <time>2021-10-28 08:10:02</time>
      </trkpt>
      <trkpt lat="43.2897" lon="-3.00059">
        <ele>15.6</ele>
        <time>2021-10-28 08:10:03</time>
      </trkpt>
      <trkpt lat="43.28973" lon="-3.00069">
        <ele>15.6</ele>
        <time>2021-10-28 08:10:04</time>
      </trkpt>
      <trkpt lat="43.28973" lon="-3.00069">
        <ele>15.6</ele>
        <time>2021-10-28 08:10:05</time>
      </trkpt>
      <trkpt lat="43.28974" lon="-3.00075">
        <ele>15.6</ele>
        <time>2021-10-28 08:10:06</time>
      </trkpt>
      <trkpt lat="43.28975" lon="-3.0008">
        <ele>15.6</ele>
        <time>2021-10-28 08:10:07</time>
      </trkpt>
      <trkpt lat="43.2898" lon="-3.00088">
        <ele>15.6</ele>
        <time>2021-10-28 08:10:08</time>
      </trkpt>
      <trkpt lat="43.2898" lon="-3.00088">
        <ele>15.6</ele>
        <time>2021-10-28 08:10:09</time>
      </trkpt>
      <trkpt lat="43.28982" lon="-3.00093">
        <ele>15.6</ele>
        <time>2021-10-28 08:10:10</time>
      </trkpt>
      <trkpt lat="43.28983" lon="-3.00099">
        <ele>15.6</ele>
        <time>2021-10-28 08:10:11</time>
      </trkpt>
      <trkpt lat="43.28985" lon="-3.00109">
        <ele>15.6</ele>
        <time>2021-10-28 08:10:12</time>
      </trkpt>
      <trkpt lat="43.28985" lon="-3.00109">
        <ele>15.6</ele>
        <time>2021-10-28 08:10:13</time>
      </trkpt>
      <trkpt lat="43.28986" lon="-3.00114">
        <ele>15.6</ele>
        <time>2021-10-28 08:10:14</time>
      </trkpt>
      <trkpt lat="43.28987" lon="-3.00123">
        <ele>15.6</ele>
        <time>2021-10-28 08:10:15</time>
      </trkpt>
      <trkpt lat="43.28987" lon="-3.00123">
        <ele>15.6</ele>
        <time>2021-10-28 08:10:16</time>
      </trkpt>
      <trkpt lat="43.28988" lon="-3.00127">
        <ele>15.4</ele>
        <time>2021-10-28 08:10:17</time>
      </trkpt>
      <trkpt lat="43.2899" lon="-3.00131">
        <ele>15.2</ele>
        <time>2021-10-28 08:10:18</time>
      </trkpt>
      <trkpt lat="43.28993" lon="-3.00139">
        <ele>15</ele>
        <time>2021-10-28 08:10:19</time>
      </trkpt>
      <trkpt lat="43.28993" lon="-3.00139">
        <ele>15</ele>
        <time>2021-10-28 08:10:20</time>
      </trkpt>
      <trkpt lat="43.28993" lon="-3.00139">
        <ele>15</ele>
        <time>2021-10-28 08:10:21</time>
      </trkpt>
      <trkpt lat="43.28997" lon="-3.00147">
        <ele>15</ele>
        <time>2021-10-28 08:10:22</time>
      </trkpt>
      <trkpt lat="43.29001" lon="-3.00156">
        <ele>15</ele>
        <time>2021-10-28 08:10:23</time>
      </trkpt>
      <trkpt lat="43.29001" lon="-3.00156">
        <ele>15</ele>
        <time>2021-10-28 08:10:24</time>
      </trkpt>
      <trkpt lat="43.29003" lon="-3.00161">
        <ele>15</ele>
        <time>2021-10-28 08:10:25</time>
      </trkpt>
      <trkpt lat="43.29007" lon="-3.00171">
        <ele>15</ele>
        <time>2021-10-28 08:10:26</time>
      </trkpt>
      <trkpt lat="43.29007" lon="-3.00171">
        <ele>15</ele>
        <time>2021-10-28 08:10:27</time>
      </trkpt>
      <trkpt lat="43.29008" lon="-3.00177">
        <ele>15</ele>
        <time>2021-10-28 08:10:28</time>
      </trkpt>
      <trkpt lat="43.2901" lon="-3.00187">
        <ele>15</ele>
        <time>2021-10-28 08:10:29</time>
      </trkpt>
      <trkpt lat="43.2901" lon="-3.00187">
        <ele>15</ele>
        <time>2021-10-28 08:10:30</time>
      </trkpt>
      <trkpt lat="43.2901" lon="-3.00194">
        <ele>15</ele>
        <time>2021-10-28 08:10:31</time>
      </trkpt>
      <trkpt lat="43.29013" lon="-3.00206">
        <ele>15</ele>
        <time>2021-10-28 08:10:32</time>
      </trkpt>
      <trkpt lat="43.29013" lon="-3.00206">
        <ele>15.2</ele>
        <time>2021-10-28 08:10:33</time>
      </trkpt>
      <trkpt lat="43.29014" lon="-3.00212">
        <ele>15.2</ele>
        <time>2021-10-28 08:10:34</time>
      </trkpt>
      <trkpt lat="43.29017" lon="-3.00223">
        <ele>15.2</ele>
        <time>2021-10-28 08:10:35</time>
      </trkpt>
      <trkpt lat="43.29017" lon="-3.00223">
        <ele>15.2</ele>
        <time>2021-10-28 08:10:36</time>
      </trkpt>
      <trkpt lat="43.29019" lon="-3.00228">
        <ele>15.4</ele>
        <time>2021-10-28 08:10:37</time>
      </trkpt>
      <trkpt lat="43.29025" lon="-3.0023">
        <ele>15.4</ele>
        <time>2021-10-28 08:10:38</time>
      </trkpt>
      <trkpt lat="43.2903" lon="-3.00238">
        <ele>15.4</ele>
        <time>2021-10-28 08:10:39</time>
      </trkpt>
      <trkpt lat="43.2903" lon="-3.00238">
        <ele>15.4</ele>
        <time>2021-10-28 08:10:40</time>
      </trkpt>
      <trkpt lat="43.29034" lon="-3.00241">
        <ele>15.4</ele>
        <time>2021-10-28 08:10:41</time>
      </trkpt>
      <trkpt lat="43.29035" lon="-3.00244">
        <ele>15.4</ele>
        <time>2021-10-28 08:10:42</time>
      </trkpt>
      <trkpt lat="43.29039" lon="-3.00255">
        <ele>15.4</ele>
        <time>2021-10-28 08:10:43</time>
      </trkpt>
      <trkpt lat="43.29039" lon="-3.00255">
        <ele>15.4</ele>
        <time>2021-10-28 08:10:44</time>
      </trkpt>
      <trkpt lat="43.29039" lon="-3.00255">
        <ele>15.2</ele>
        <time>2021-10-28 08:10:45</time>
      </trkpt>
      <trkpt lat="43.29041" lon="-3.00265">
        <ele>15.2</ele>
        <time>2021-10-28 08:10:46</time>
      </trkpt>
      <trkpt lat="43.29042" lon="-3.00269">
        <ele>15.2</ele>
        <time>2021-10-28 08:10:47</time>
      </trkpt>
      <trkpt lat="43.29047" lon="-3.00273">
        <ele>15.2</ele>
        <time>2021-10-28 08:10:48</time>
      </trkpt>
      <trkpt lat="43.29048" lon="-3.00276">
        <ele>15.2</ele>
        <time>2021-10-28 08:10:49</time>
      </trkpt>
      <trkpt lat="43.29049" lon="-3.0028">
        <ele>15.2</ele>
        <time>2021-10-28 08:10:50</time>
      </trkpt>
      <trkpt lat="43.29051" lon="-3.00288">
        <ele>15.2</ele>
        <time>2021-10-28 08:10:51</time>
      </trkpt>
      <trkpt lat="43.29051" lon="-3.00288">
        <ele>15.4</ele>
        <time>2021-10-28 08:10:52</time>
      </trkpt>
      <trkpt lat="43.29053" lon="-3.00291">
        <ele>15.4</ele>
        <time>2021-10-28 08:10:53</time>
      </trkpt>
      <trkpt lat="43.29058" lon="-3.00301">
        <ele>15.4</ele>
        <time>2021-10-28 08:10:54</time>
      </trkpt>
      <trkpt lat="43.29061" lon="-3.00307">
        <ele>15.4</ele>
        <time>2021-10-28 08:10:55</time>
      </trkpt>
      <trkpt lat="43.29061" lon="-3.00307">
        <ele>15.4</ele>
        <time>2021-10-28 08:10:56</time>
      </trkpt>
      <trkpt lat="43.29064" lon="-3.00317">
        <ele>15.4</ele>
        <time>2021-10-28 08:10:57</time>
      </trkpt>
      <trkpt lat="43.29064" lon="-3.00317">
        <ele>15.4</ele>
        <time>2021-10-28 08:10:58</time>
      </trkpt>
      <trkpt lat="43.29068" lon="-3.00325">
        <ele>15.4</ele>
        <time>2021-10-28 08:10:59</time>
      </trkpt>
      <trkpt lat="43.29072" lon="-3.00327">
        <ele>15.6</ele>
        <time>2021-10-28 08:11:00</time>
      </trkpt>
      <trkpt lat="43.29077" lon="-3.0033">
        <ele>15.6</ele>
        <time>2021-10-28 08:11:01</time>
      </trkpt>
      <trkpt lat="43.29077" lon="-3.0033">
        <ele>15.6</ele>
        <time>2021-10-28 08:11:02</time>
      </trkpt>
      <trkpt lat="43.29081" lon="-3.00336">
        <ele>15.6</ele>
        <time>2021-10-28 08:11:03</time>
      </trkpt>
      <trkpt lat="43.29084" lon="-3.0034">
        <ele>15.8</ele>
        <time>2021-10-28 08:11:04</time>
      </trkpt>
      <trkpt lat="43.29086" lon="-3.00345">
        <ele>15.8</ele>
        <time>2021-10-28 08:11:05</time>
      </trkpt>
      <trkpt lat="43.29086" lon="-3.00345">
        <ele>15.8</ele>
        <time>2021-10-28 08:11:06</time>
      </trkpt>
      <trkpt lat="43.29087" lon="-3.00346">
        <ele>15.8</ele>
        <time>2021-10-28 08:11:07</time>
      </trkpt>
      <trkpt lat="43.29093" lon="-3.00353">
        <ele>15.8</ele>
        <time>2021-10-28 08:11:08</time>
      </trkpt>
      <trkpt lat="43.29093" lon="-3.00353">
        <ele>15.6</ele>
        <time>2021-10-28 08:11:09</time>
      </trkpt>
      <trkpt lat="43.29097" lon="-3.00358">
        <ele>15.6</ele>
        <time>2021-10-28 08:11:10</time>
      </trkpt>
      <trkpt lat="43.29101" lon="-3.00367">
        <ele>15.8</ele>
        <time>2021-10-28 08:11:11</time>
      </trkpt>
      <trkpt lat="43.29101" lon="-3.00367">
        <ele>15.8</ele>
        <time>2021-10-28 08:11:12</time>
      </trkpt>
      <trkpt lat="43.29107" lon="-3.00368">
        <ele>15.8</ele>
        <time>2021-10-28 08:11:13</time>
      </trkpt>
      <trkpt lat="43.29109" lon="-3.00373">
        <ele>15.8</ele>
        <time>2021-10-28 08:11:14</time>
      </trkpt>
      <trkpt lat="43.29113" lon="-3.00386">
        <ele>15.8</ele>
        <time>2021-10-28 08:11:15</time>
      </trkpt>
      <trkpt lat="43.29113" lon="-3.00386">
        <ele>16</ele>
        <time>2021-10-28 08:11:16</time>
      </trkpt>
      <trkpt lat="43.29116" lon="-3.00395">
        <ele>16</ele>
        <time>2021-10-28 08:11:17</time>
      </trkpt>
      <trkpt lat="43.29116" lon="-3.00395">
        <ele>16</ele>
        <time>2021-10-28 08:11:18</time>
      </trkpt>
      <trkpt lat="43.29124" lon="-3.00399">
        <ele>16.2</ele>
        <time>2021-10-28 08:11:19</time>
      </trkpt>
      <trkpt lat="43.29124" lon="-3.00399">
        <ele>16.2</ele>
        <time>2021-10-28 08:11:20</time>
      </trkpt>
      <trkpt lat="43.29134" lon="-3.00403">
        <ele>16.4</ele>
        <time>2021-10-28 08:11:21</time>
      </trkpt>
      <trkpt lat="43.29134" lon="-3.00403">
        <ele>16.6</ele>
        <time>2021-10-28 08:11:22</time>
      </trkpt>
      <trkpt lat="43.29134" lon="-3.00403">
        <ele>16.8</ele>
        <time>2021-10-28 08:11:23</time>
      </trkpt>
      <trkpt lat="43.29144" lon="-3.0041">
        <ele>16.8</ele>
        <time>2021-10-28 08:11:24</time>
      </trkpt>
      <trkpt lat="43.29144" lon="-3.0041">
        <ele>16.8</ele>
        <time>2021-10-28 08:11:25</time>
      </trkpt>
      <trkpt lat="43.29149" lon="-3.00416">
        <ele>16.8</ele>
        <time>2021-10-28 08:11:26</time>
      </trkpt>
      <trkpt lat="43.29149" lon="-3.00416">
        <ele>16.8</ele>
        <time>2021-10-28 08:11:27</time>
      </trkpt>
      <trkpt lat="43.29154" lon="-3.00424">
        <ele>16.6</ele>
        <time>2021-10-28 08:11:28</time>
      </trkpt>
      <trkpt lat="43.29154" lon="-3.00424">
        <ele>16.6</ele>
        <time>2021-10-28 08:11:29</time>
      </trkpt>
      <trkpt lat="43.29157" lon="-3.00427">
        <ele>16.4</ele>
        <time>2021-10-28 08:11:30</time>
      </trkpt>
      <trkpt lat="43.29163" lon="-3.00432">
        <ele>16.4</ele>
        <time>2021-10-28 08:11:31</time>
      </trkpt>
      <trkpt lat="43.29169" lon="-3.00432">
        <ele>16.4</ele>
        <time>2021-10-28 08:11:32</time>
      </trkpt>
      <trkpt lat="43.29172" lon="-3.00432">
        <ele>16.6</ele>
        <time>2021-10-28 08:11:33</time>
      </trkpt>
      <trkpt lat="43.29172" lon="-3.00432">
        <ele>16.6</ele>
        <time>2021-10-28 08:11:34</time>
      </trkpt>
      <trkpt lat="43.29177" lon="-3.00434">
        <ele>16.6</ele>
        <time>2021-10-28 08:11:35</time>
      </trkpt>
      <trkpt lat="43.29185" lon="-3.00439">
        <ele>16.4</ele>
        <time>2021-10-28 08:11:36</time>
      </trkpt>
      <trkpt lat="43.29185" lon="-3.00439">
        <ele>16.4</ele>
        <time>2021-10-28 08:11:37</time>
      </trkpt>
      <trkpt lat="43.29188" lon="-3.0044">
        <ele>16.4</ele>
        <time>2021-10-28 08:11:38</time>
      </trkpt>
      <trkpt lat="43.29195" lon="-3.00445">
        <ele>16.6</ele>
        <time>2021-10-28 08:11:39</time>
      </trkpt>
      <trkpt lat="43.29195" lon="-3.00445">
        <ele>16.6</ele>
        <time>2021-10-28 08:11:40</time>
      </trkpt>
      <trkpt lat="43.29198" lon="-3.00447">
        <ele>16.6</ele>
        <time>2021-10-28 08:11:41</time>
      </trkpt>
      <trkpt lat="43.29205" lon="-3.0045">
        <ele>16.6</ele>
        <time>2021-10-28 08:11:42</time>
      </trkpt>
      <trkpt lat="43.29205" lon="-3.0045">
        <ele>16.6</ele>
        <time>2021-10-28 08:11:43</time>
      </trkpt>
      <trkpt lat="43.29211" lon="-3.00452">
        <ele>16.6</ele>
        <time>2021-10-28 08:11:44</time>
      </trkpt>
      <trkpt lat="43.29211" lon="-3.00452">
        <ele>16.6</ele>
        <time>2021-10-28 08:11:45</time>
      </trkpt>
      <trkpt lat="43.29216" lon="-3.00455">
        <ele>16.6</ele>
        <time>2021-10-28 08:11:46</time>
      </trkpt>
      <trkpt lat="43.29216" lon="-3.00455">
        <ele>16.6</ele>
        <time>2021-10-28 08:11:47</time>
      </trkpt>
      <trkpt lat="43.29223" lon="-3.00454">
        <ele>16.8</ele>
        <time>2021-10-28 08:11:48</time>
      </trkpt>
      <trkpt lat="43.29229" lon="-3.00457">
        <ele>16.8</ele>
        <time>2021-10-28 08:11:49</time>
      </trkpt>
      <trkpt lat="43.29229" lon="-3.00457">
        <ele>16.8</ele>
        <time>2021-10-28 08:11:50</time>
      </trkpt>
      <trkpt lat="43.29235" lon="-3.00456">
        <ele>16.8</ele>
        <time>2021-10-28 08:11:51</time>
      </trkpt>
      <trkpt lat="43.29235" lon="-3.00456">
        <ele>16.8</ele>
        <time>2021-10-28 08:11:52</time>
      </trkpt>
      <trkpt lat="43.29241" lon="-3.0046">
        <ele>16.8</ele>
        <time>2021-10-28 08:11:53</time>
      </trkpt>
      <trkpt lat="43.29241" lon="-3.0046">
        <ele>16.8</ele>
        <time>2021-10-28 08:11:54</time>
      </trkpt>
      <trkpt lat="43.29246" lon="-3.00459">
        <ele>16.8</ele>
        <time>2021-10-28 08:11:55</time>
      </trkpt>
      <trkpt lat="43.29248" lon="-3.0046">
        <ele>16.8</ele>
        <time>2021-10-28 08:11:56</time>
      </trkpt>
      <trkpt lat="43.29248" lon="-3.0046">
        <ele>16.8</ele>
        <time>2021-10-28 08:11:57</time>
      </trkpt>
      <trkpt lat="43.29249" lon="-3.00464">
        <ele>17</ele>
        <time>2021-10-28 08:11:58</time>
      </trkpt>
      <trkpt lat="43.29252" lon="-3.00464">
        <ele>17</ele>
        <time>2021-10-28 08:11:59</time>
      </trkpt>
      <trkpt lat="43.29261" lon="-3.00461">
        <ele>17</ele>
        <time>2021-10-28 08:12:00</time>
      </trkpt>
      <trkpt lat="43.29261" lon="-3.00461">
        <ele>17</ele>
        <time>2021-10-28 08:12:01</time>
      </trkpt>
      <trkpt lat="43.29268" lon="-3.00459">
        <ele>17</ele>
        <time>2021-10-28 08:12:02</time>
      </trkpt>
      <trkpt lat="43.29274" lon="-3.00457">
        <ele>17</ele>
        <time>2021-10-28 08:12:03</time>
      </trkpt>
      <trkpt lat="43.29274" lon="-3.00457">
        <ele>17</ele>
        <time>2021-10-28 08:12:04</time>
      </trkpt>
      <trkpt lat="43.2928" lon="-3.00452">
        <ele>17</ele>
        <time>2021-10-28 08:12:05</time>
      </trkpt>
      <trkpt lat="43.29282" lon="-3.00454">
        <ele>17</ele>
        <time>2021-10-28 08:12:06</time>
      </trkpt>
      <trkpt lat="43.29282" lon="-3.00454">
        <ele>17.2</ele>
        <time>2021-10-28 08:12:07</time>
      </trkpt>
      <trkpt lat="43.29282" lon="-3.00453">
        <ele>17.2</ele>
        <time>2021-10-28 08:12:08</time>
      </trkpt>
      <trkpt lat="43.29282" lon="-3.00453">
        <ele>17.2</ele>
        <time>2021-10-28 08:12:09</time>
      </trkpt>
      <trkpt lat="43.29291" lon="-3.00447">
        <ele>17.2</ele>
        <time>2021-10-28 08:12:10</time>
      </trkpt>
      <trkpt lat="43.29295" lon="-3.00446">
        <ele>17.2</ele>
        <time>2021-10-28 08:12:11</time>
      </trkpt>
      <trkpt lat="43.293" lon="-3.00443">
        <ele>17.2</ele>
        <time>2021-10-28 08:12:12</time>
      </trkpt>
      <trkpt lat="43.29314" lon="-3.00433">
        <ele>17.2</ele>
        <time>2021-10-28 08:12:13</time>
      </trkpt>
      <trkpt lat="43.29314" lon="-3.00433">
        <ele>17.2</ele>
        <time>2021-10-28 08:12:14</time>
      </trkpt>
      <trkpt lat="43.29314" lon="-3.00433">
        <ele>17.2</ele>
        <time>2021-10-28 08:12:15</time>
      </trkpt>
      <trkpt lat="43.2932" lon="-3.00432">
        <ele>17.2</ele>
        <time>2021-10-28 08:12:16</time>
      </trkpt>
      <trkpt lat="43.29327" lon="-3.00431">
        <ele>17.2</ele>
        <time>2021-10-28 08:12:17</time>
      </trkpt>
      <trkpt lat="43.2933" lon="-3.00437">
        <ele>17.2</ele>
        <time>2021-10-28 08:12:18</time>
      </trkpt>
      <trkpt lat="43.2933" lon="-3.00437">
        <ele>17.2</ele>
        <time>2021-10-28 08:12:19</time>
      </trkpt>
      <trkpt lat="43.29333" lon="-3.00447">
        <ele>17.2</ele>
        <time>2021-10-28 08:12:20</time>
      </trkpt>
      <trkpt lat="43.29336" lon="-3.00451">
        <ele>17.2</ele>
        <time>2021-10-28 08:12:21</time>
      </trkpt>
      <trkpt lat="43.29336" lon="-3.00451">
        <ele>17.2</ele>
        <time>2021-10-28 08:12:22</time>
      </trkpt>
      <trkpt lat="43.29342" lon="-3.0046">
        <ele>17.2</ele>
        <time>2021-10-28 08:12:23</time>
      </trkpt>
      <trkpt lat="43.29342" lon="-3.0046">
        <ele>17.2</ele>
        <time>2021-10-28 08:12:24</time>
      </trkpt>
      <trkpt lat="43.29343" lon="-3.00463">
        <ele>17.2</ele>
        <time>2021-10-28 08:12:25</time>
      </trkpt>
      <trkpt lat="43.29358" lon="-3.00454">
        <ele>17</ele>
        <time>2021-10-28 08:12:26</time>
      </trkpt>
      <trkpt lat="43.29362" lon="-3.0045">
        <ele>17</ele>
        <time>2021-10-28 08:12:27</time>
      </trkpt>
      <trkpt lat="43.29365" lon="-3.00446">
        <ele>17</ele>
        <time>2021-10-28 08:12:28</time>
      </trkpt>
      <trkpt lat="43.29365" lon="-3.00446">
        <ele>17.2</ele>
        <time>2021-10-28 08:12:29</time>
      </trkpt>
      <trkpt lat="43.29368" lon="-3.00438">
        <ele>17.2</ele>
        <time>2021-10-28 08:12:30</time>
      </trkpt>
      <trkpt lat="43.29368" lon="-3.00438">
        <ele>17.4</ele>
        <time>2021-10-28 08:12:31</time>
      </trkpt>
      <trkpt lat="43.29368" lon="-3.00438">
        <ele>17.4</ele>
        <time>2021-10-28 08:12:32</time>
      </trkpt>
      <trkpt lat="43.29371" lon="-3.00431">
        <ele>17.4</ele>
        <time>2021-10-28 08:12:33</time>
      </trkpt>
      <trkpt lat="43.29373" lon="-3.00423">
        <ele>17.4</ele>
        <time>2021-10-28 08:12:34</time>
      </trkpt>
      <trkpt lat="43.29377" lon="-3.00421">
        <ele>17.6</ele>
        <time>2021-10-28 08:12:35</time>
      </trkpt>
      <trkpt lat="43.29377" lon="-3.00421">
        <ele>17.6</ele>
        <time>2021-10-28 08:12:36</time>
      </trkpt>
      <trkpt lat="43.2938" lon="-3.00419">
        <ele>17.6</ele>
        <time>2021-10-28 08:12:37</time>
      </trkpt>
      <trkpt lat="43.29384" lon="-3.00413">
        <ele>17.6</ele>
        <time>2021-10-28 08:12:38</time>
      </trkpt>
      <trkpt lat="43.29384" lon="-3.00413">
        <ele>17.6</ele>
        <time>2021-10-28 08:12:39</time>
      </trkpt>
      <trkpt lat="43.29386" lon="-3.00411">
        <ele>17.6</ele>
        <time>2021-10-28 08:12:40</time>
      </trkpt>
      <trkpt lat="43.29392" lon="-3.00407">
        <ele>17.8</ele>
        <time>2021-10-28 08:12:41</time>
      </trkpt>
      <trkpt lat="43.29396" lon="-3.00404">
        <ele>17.8</ele>
        <time>2021-10-28 08:12:42</time>
      </trkpt>
      <trkpt lat="43.29395" lon="-3.00403">
        <ele>17.8</ele>
        <time>2021-10-28 08:12:43</time>
      </trkpt>
      <trkpt lat="43.29397" lon="-3.004">
        <ele>17.8</ele>
        <time>2021-10-28 08:12:44</time>
      </trkpt>
      <trkpt lat="43.29397" lon="-3.004">
        <ele>17.8</ele>
        <time>2021-10-28 08:12:45</time>
      </trkpt>
      <trkpt lat="43.29401" lon="-3.004">
        <ele>17.8</ele>
        <time>2021-10-28 08:12:46</time>
      </trkpt>
      <trkpt lat="43.29406" lon="-3.00402">
        <ele>17.8</ele>
        <time>2021-10-28 08:12:47</time>
      </trkpt>
      <trkpt lat="43.29409" lon="-3.00401">
        <ele>17.8</ele>
        <time>2021-10-28 08:12:48</time>
      </trkpt>
      <trkpt lat="43.29409" lon="-3.00401">
        <ele>18</ele>
        <time>2021-10-28 08:12:49</time>
      </trkpt>
      <trkpt lat="43.29421" lon="-3.00392">
        <ele>18</ele>
        <time>2021-10-28 08:12:50</time>
      </trkpt>
      <trkpt lat="43.29424" lon="-3.0039">
        <ele>18</ele>
        <time>2021-10-28 08:12:51</time>
      </trkpt>
      <trkpt lat="43.29424" lon="-3.0039">
        <ele>18</ele>
        <time>2021-10-28 08:12:52</time>
      </trkpt>
      <trkpt lat="43.29426" lon="-3.00387">
        <ele>18</ele>
        <time>2021-10-28 08:12:53</time>
      </trkpt>
      <trkpt lat="43.29432" lon="-3.00375">
        <ele>18</ele>
        <time>2021-10-28 08:12:54</time>
      </trkpt>
      <trkpt lat="43.29432" lon="-3.00375">
        <ele>18.2</ele>
        <time>2021-10-28 08:12:55</time>
      </trkpt>
      <trkpt lat="43.29437" lon="-3.00366">
        <ele>18.2</ele>
        <time>2021-10-28 08:12:56</time>
      </trkpt>
      <trkpt lat="43.29444" lon="-3.00357">
        <ele>18.4</ele>
        <time>2021-10-28 08:12:57</time>
      </trkpt>
      <trkpt lat="43.29444" lon="-3.00357">
        <ele>18.4</ele>
        <time>2021-10-28 08:12:58</time>
      </trkpt>
      <trkpt lat="43.29448" lon="-3.00354">
        <ele>18.6</ele>
        <time>2021-10-28 08:12:59</time>
      </trkpt>
      <trkpt lat="43.29446" lon="-3.00352">
        <ele>18.8</ele>
        <time>2021-10-28 08:13:00</time>
      </trkpt>
      <trkpt lat="43.29449" lon="-3.00347">
        <ele>19</ele>
        <time>2021-10-28 08:13:01</time>
      </trkpt>
      <trkpt lat="43.29456" lon="-3.00338">
        <ele>19.2</ele>
        <time>2021-10-28 08:13:02</time>
      </trkpt>
      <trkpt lat="43.29458" lon="-3.00334">
        <ele>19.4</ele>
        <time>2021-10-28 08:13:03</time>
      </trkpt>
      <trkpt lat="43.29458" lon="-3.00334">
        <ele>19.6</ele>
        <time>2021-10-28 08:13:04</time>
      </trkpt>
      <trkpt lat="43.29456" lon="-3.00334">
        <ele>19.8</ele>
        <time>2021-10-28 08:13:05</time>
      </trkpt>
      <trkpt lat="43.29457" lon="-3.00335">
        <ele>20</ele>
        <time>2021-10-28 08:13:06</time>
      </trkpt>
      <trkpt lat="43.29461" lon="-3.0033">
        <ele>20.2</ele>
        <time>2021-10-28 08:13:07</time>
      </trkpt>
      <trkpt lat="43.29461" lon="-3.0033">
        <ele>20.4</ele>
        <time>2021-10-28 08:13:08</time>
      </trkpt>
      <trkpt lat="43.29463" lon="-3.00324">
        <ele>20.6</ele>
        <time>2021-10-28 08:13:09</time>
      </trkpt>
      <trkpt lat="43.29463" lon="-3.00324">
        <ele>20.8</ele>
        <time>2021-10-28 08:13:10</time>
      </trkpt>
      <trkpt lat="43.29468" lon="-3.00314">
        <ele>21</ele>
        <time>2021-10-28 08:13:11</time>
      </trkpt>
      <trkpt lat="43.29468" lon="-3.00314">
        <ele>21.2</ele>
        <time>2021-10-28 08:13:12</time>
      </trkpt>
      <trkpt lat="43.29471" lon="-3.00311">
        <ele>21.4</ele>
        <time>2021-10-28 08:13:13</time>
      </trkpt>
      <trkpt lat="43.29473" lon="-3.00307">
        <ele>21.6</ele>
        <time>2021-10-28 08:13:14</time>
      </trkpt>
      <trkpt lat="43.29473" lon="-3.003">
        <ele>21.8</ele>
        <time>2021-10-28 08:13:15</time>
      </trkpt>
      <trkpt lat="43.29473" lon="-3.003">
        <ele>22</ele>
        <time>2021-10-28 08:13:16</time>
      </trkpt>
      <trkpt lat="43.29474" lon="-3.00298">
        <ele>22.2</ele>
        <time>2021-10-28 08:13:17</time>
      </trkpt>
      <trkpt lat="43.29479" lon="-3.0029">
        <ele>22.4</ele>
        <time>2021-10-28 08:13:18</time>
      </trkpt>
      <trkpt lat="43.29479" lon="-3.0029">
        <ele>22.6</ele>
        <time>2021-10-28 08:13:19</time>
      </trkpt>
      <trkpt lat="43.2948" lon="-3.00288">
        <ele>22.8</ele>
        <time>2021-10-28 08:13:20</time>
      </trkpt>
      <trkpt lat="43.29484" lon="-3.0028">
        <ele>23</ele>
        <time>2021-10-28 08:13:21</time>
      </trkpt>
      <trkpt lat="43.29484" lon="-3.0028">
        <ele>23</ele>
        <time>2021-10-28 08:13:22</time>
      </trkpt>
      <trkpt lat="43.29488" lon="-3.00274">
        <ele>23.2</ele>
        <time>2021-10-28 08:13:23</time>
      </trkpt>
      <trkpt lat="43.29489" lon="-3.0027">
        <ele>23.4</ele>
        <time>2021-10-28 08:13:24</time>
      </trkpt>
      <trkpt lat="43.29489" lon="-3.0027">
        <ele>23.8</ele>
        <time>2021-10-28 08:13:25</time>
      </trkpt>
      <trkpt lat="43.29491" lon="-3.0026">
        <ele>24</ele>
        <time>2021-10-28 08:13:26</time>
      </trkpt>
      <trkpt lat="43.29491" lon="-3.0026">
        <ele>24.2</ele>
        <time>2021-10-28 08:13:27</time>
      </trkpt>
      <trkpt lat="43.29494" lon="-3.00252">
        <ele>24.2</ele>
        <time>2021-10-28 08:13:28</time>
      </trkpt>
      <trkpt lat="43.29495" lon="-3.00245">
        <ele>24.4</ele>
        <time>2021-10-28 08:13:29</time>
      </trkpt>
      <trkpt lat="43.29496" lon="-3.00241">
        <ele>24.6</ele>
        <time>2021-10-28 08:13:30</time>
      </trkpt>
      <trkpt lat="43.29496" lon="-3.00241">
        <ele>24.8</ele>
        <time>2021-10-28 08:13:31</time>
      </trkpt>
      <trkpt lat="43.29499" lon="-3.00234">
        <ele>25</ele>
        <time>2021-10-28 08:13:32</time>
      </trkpt>
      <trkpt lat="43.295" lon="-3.00231">
        <ele>25.2</ele>
        <time>2021-10-28 08:13:33</time>
      </trkpt>
      <trkpt lat="43.295" lon="-3.00231">
        <ele>25.4</ele>
        <time>2021-10-28 08:13:34</time>
      </trkpt>
      <trkpt lat="43.29502" lon="-3.00224">
        <ele>25.4</ele>
        <time>2021-10-28 08:13:35</time>
      </trkpt>
      <trkpt lat="43.29504" lon="-3.0022">
        <ele>25.6</ele>
        <time>2021-10-28 08:13:36</time>
      </trkpt>
      <trkpt lat="43.29508" lon="-3.00213">
        <ele>25.8</ele>
        <time>2021-10-28 08:13:37</time>
      </trkpt>
      <trkpt lat="43.29508" lon="-3.00213">
        <ele>26</ele>
        <time>2021-10-28 08:13:38</time>
      </trkpt>
      <trkpt lat="43.29512" lon="-3.00209">
        <ele>26.2</ele>
        <time>2021-10-28 08:13:39</time>
      </trkpt>
      <trkpt lat="43.29512" lon="-3.00209">
        <ele>26.2</ele>
        <time>2021-10-28 08:13:40</time>
      </trkpt>
      <trkpt lat="43.29512" lon="-3.00209">
        <ele>26.2</ele>
        <time>2021-10-28 08:13:41</time>
      </trkpt>
      <trkpt lat="43.29519" lon="-3.00203">
        <ele>26.2</ele>
        <time>2021-10-28 08:13:42</time>
      </trkpt>
      <trkpt lat="43.29519" lon="-3.00203">
        <ele>26.2</ele>
        <time>2021-10-28 08:13:43</time>
      </trkpt>
      <trkpt lat="43.29526" lon="-3.00197">
        <ele>26.2</ele>
        <time>2021-10-28 08:13:44</time>
      </trkpt>
      <trkpt lat="43.29526" lon="-3.00197">
        <ele>26.2</ele>
        <time>2021-10-28 08:13:45</time>
      </trkpt>
      <trkpt lat="43.29533" lon="-3.00193">
        <ele>26.2</ele>
        <time>2021-10-28 08:13:46</time>
      </trkpt>
      <trkpt lat="43.29533" lon="-3.00193">
        <ele>26</ele>
        <time>2021-10-28 08:13:47</time>
      </trkpt>
      <trkpt lat="43.29538" lon="-3.00189">
        <ele>26</ele>
        <time>2021-10-28 08:13:48</time>
      </trkpt>
      <trkpt lat="43.29538" lon="-3.00189">
        <ele>26</ele>
        <time>2021-10-28 08:13:49</time>
      </trkpt>
      <trkpt lat="43.29542" lon="-3.00187">
        <ele>25.8</ele>
        <time>2021-10-28 08:13:50</time>
      </trkpt>
      <trkpt lat="43.29543" lon="-3.00186">
        <ele>25.8</ele>
        <time>2021-10-28 08:13:51</time>
      </trkpt>
      <trkpt lat="43.29552" lon="-3.00182">
        <ele>25.8</ele>
        <time>2021-10-28 08:13:52</time>
      </trkpt>
      <trkpt lat="43.29552" lon="-3.00182">
        <ele>25.8</ele>
        <time>2021-10-28 08:13:53</time>
      </trkpt>
      <trkpt lat="43.29559" lon="-3.00178">
        <ele>25.8</ele>
        <time>2021-10-28 08:13:54</time>
      </trkpt>
      <trkpt lat="43.29559" lon="-3.00178">
        <ele>25.6</ele>
        <time>2021-10-28 08:13:55</time>
      </trkpt>
      <trkpt lat="43.29562" lon="-3.00177">
        <ele>25.6</ele>
        <time>2021-10-28 08:13:56</time>
      </trkpt>
      <trkpt lat="43.29566" lon="-3.00174">
        <ele>25.6</ele>
        <time>2021-10-28 08:13:57</time>
      </trkpt>
      <trkpt lat="43.29572" lon="-3.00172">
        <ele>25.4</ele>
        <time>2021-10-28 08:13:58</time>
      </trkpt>
      <trkpt lat="43.2958" lon="-3.00167">
        <ele>25.4</ele>
        <time>2021-10-28 08:13:59</time>
      </trkpt>
      <trkpt lat="43.2958" lon="-3.00167">
        <ele>25.2</ele>
        <time>2021-10-28 08:14:00</time>
      </trkpt>
      <trkpt lat="43.29588" lon="-3.00163">
        <ele>25.2</ele>
        <time>2021-10-28 08:14:01</time>
      </trkpt>
      <trkpt lat="43.29591" lon="-3.0016">
        <ele>25.2</ele>
        <time>2021-10-28 08:14:02</time>
      </trkpt>
      <trkpt lat="43.29597" lon="-3.00158">
        <ele>25.2</ele>
        <time>2021-10-28 08:14:03</time>
      </trkpt>
      <trkpt lat="43.29597" lon="-3.00158">
        <ele>25</ele>
        <time>2021-10-28 08:14:04</time>
      </trkpt>
      <trkpt lat="43.29597" lon="-3.00158">
        <ele>25</ele>
        <time>2021-10-28 08:14:05</time>
      </trkpt>
      <trkpt lat="43.29604" lon="-3.00155">
        <ele>25</ele>
        <time>2021-10-28 08:14:06</time>
      </trkpt>
      <trkpt lat="43.29612" lon="-3.00148">
        <ele>25</ele>
        <time>2021-10-28 08:14:07</time>
      </trkpt>
      <trkpt lat="43.29612" lon="-3.00148">
        <ele>25</ele>
        <time>2021-10-28 08:14:08</time>
      </trkpt>
      <trkpt lat="43.29616" lon="-3.00144">
        <ele>25</ele>
        <time>2021-10-28 08:14:09</time>
      </trkpt>
      <trkpt lat="43.2962" lon="-3.00141">
        <ele>24.8</ele>
        <time>2021-10-28 08:14:10</time>
      </trkpt>
      <trkpt lat="43.29627" lon="-3.00135">
        <ele>24.8</ele>
        <time>2021-10-28 08:14:11</time>
      </trkpt>
      <trkpt lat="43.29627" lon="-3.00135">
        <ele>24.8</ele>
        <time>2021-10-28 08:14:12</time>
      </trkpt>
      <trkpt lat="43.29634" lon="-3.00131">
        <ele>24.8</ele>
        <time>2021-10-28 08:14:13</time>
      </trkpt>
      <trkpt lat="43.29634" lon="-3.00131">
        <ele>24.8</ele>
        <time>2021-10-28 08:14:14</time>
      </trkpt>
      <trkpt lat="43.29634" lon="-3.00131">
        <ele>24.6</ele>
        <time>2021-10-28 08:14:15</time>
      </trkpt>
      <trkpt lat="43.29637" lon="-3.00127">
        <ele>24.6</ele>
        <time>2021-10-28 08:14:16</time>
      </trkpt>
      <trkpt lat="43.29641" lon="-3.00122">
        <ele>24.6</ele>
        <time>2021-10-28 08:14:17</time>
      </trkpt>
      <trkpt lat="43.29646" lon="-3.0012">
        <ele>24.6</ele>
        <time>2021-10-28 08:14:18</time>
      </trkpt>
      <trkpt lat="43.29652" lon="-3.00115">
        <ele>24.6</ele>
        <time>2021-10-28 08:14:19</time>
      </trkpt>
      <trkpt lat="43.29652" lon="-3.00115">
        <ele>24.6</ele>
        <time>2021-10-28 08:14:20</time>
      </trkpt>
      <trkpt lat="43.29652" lon="-3.00115">
        <ele>24.6</ele>
        <time>2021-10-28 08:14:21</time>
      </trkpt>
      <trkpt lat="43.2966" lon="-3.0011">
        <ele>24.8</ele>
        <time>2021-10-28 08:14:22</time>
      </trkpt>
      <trkpt lat="43.29663" lon="-3.00108">
        <ele>24.8</ele>
        <time>2021-10-28 08:14:23</time>
      </trkpt>
      <trkpt lat="43.29666" lon="-3.00105">
        <ele>24.8</ele>
        <time>2021-10-28 08:14:24</time>
      </trkpt>
      <trkpt lat="43.29673" lon="-3.00101">
        <ele>24.8</ele>
        <time>2021-10-28 08:14:25</time>
      </trkpt>
      <trkpt lat="43.29675" lon="-3.001">
        <ele>24.8</ele>
        <time>2021-10-28 08:14:26</time>
      </trkpt>
      <trkpt lat="43.29675" lon="-3.001">
        <ele>25</ele>
        <time>2021-10-28 08:14:27</time>
      </trkpt>
      <trkpt lat="43.29678" lon="-3.001">
        <ele>25</ele>
        <time>2021-10-28 08:14:28</time>
      </trkpt>
      <trkpt lat="43.29678" lon="-3.001">
        <ele>25</ele>
        <time>2021-10-28 08:14:29</time>
      </trkpt>
      <trkpt lat="43.29685" lon="-3.00095">
        <ele>25</ele>
        <time>2021-10-28 08:14:30</time>
      </trkpt>
      <trkpt lat="43.29687" lon="-3.00094">
        <ele>25</ele>
        <time>2021-10-28 08:14:31</time>
      </trkpt>
      <trkpt lat="43.29688" lon="-3.00091">
        <ele>25</ele>
        <time>2021-10-28 08:14:32</time>
      </trkpt>
      <trkpt lat="43.29688" lon="-3.00091">
        <ele>25.2</ele>
        <time>2021-10-28 08:14:33</time>
      </trkpt>
      <trkpt lat="43.297" lon="-3.00075">
        <ele>25.2</ele>
        <time>2021-10-28 08:14:34</time>
      </trkpt>
      <trkpt lat="43.29703" lon="-3.00069">
        <ele>25.2</ele>
        <time>2021-10-28 08:14:35</time>
      </trkpt>
      <trkpt lat="43.29703" lon="-3.00069">
        <ele>25.4</ele>
        <time>2021-10-28 08:14:36</time>
      </trkpt>
      <trkpt lat="43.29703" lon="-3.00069">
        <ele>25.4</ele>
        <time>2021-10-28 08:14:37</time>
      </trkpt>
      <trkpt lat="43.29716" lon="-3.00064">
        <ele>25.4</ele>
        <time>2021-10-28 08:14:38</time>
      </trkpt>
      <trkpt lat="43.29721" lon="-3.00062">
        <ele>25.6</ele>
        <time>2021-10-28 08:14:39</time>
      </trkpt>
      <trkpt lat="43.29721" lon="-3.00062">
        <ele>25.6</ele>
        <time>2021-10-28 08:14:40</time>
      </trkpt>
      <trkpt lat="43.29721" lon="-3.00062">
        <ele>25.6</ele>
        <time>2021-10-28 08:14:41</time>
      </trkpt>
      <trkpt lat="43.29728" lon="-3.0006">
        <ele>25.6</ele>
        <time>2021-10-28 08:14:42</time>
      </trkpt>
      <trkpt lat="43.29738" lon="-3.00057">
        <ele>25.8</ele>
        <time>2021-10-28 08:14:43</time>
      </trkpt>
      <trkpt lat="43.29738" lon="-3.00057">
        <ele>25.8</ele>
        <time>2021-10-28 08:14:44</time>
      </trkpt>
      <trkpt lat="43.29745" lon="-3.00052">
        <ele>25.8</ele>
        <time>2021-10-28 08:14:45</time>
      </trkpt>
      <trkpt lat="43.29745" lon="-3.00052">
        <ele>25.8</ele>
        <time>2021-10-28 08:14:46</time>
      </trkpt>
      <trkpt lat="43.29746" lon="-3.00051">
        <ele>26</ele>
        <time>2021-10-28 08:14:47</time>
      </trkpt>
      <trkpt lat="43.29754" lon="-3.00047">
        <ele>26</ele>
        <time>2021-10-28 08:14:48</time>
      </trkpt>
      <trkpt lat="43.29754" lon="-3.00047">
        <ele>26</ele>
        <time>2021-10-28 08:14:49</time>
      </trkpt>
      <trkpt lat="43.29755" lon="-3.00047">
        <ele>26.2</ele>
        <time>2021-10-28 08:14:50</time>
      </trkpt>
      <trkpt lat="43.29765" lon="-3.00041">
        <ele>26.4</ele>
        <time>2021-10-28 08:14:51</time>
      </trkpt>
      <trkpt lat="43.29765" lon="-3.00041">
        <ele>26.4</ele>
        <time>2021-10-28 08:14:52</time>
      </trkpt>
      <trkpt lat="43.29766" lon="-3.00038">
        <ele>26.6</ele>
        <time>2021-10-28 08:14:53</time>
      </trkpt>
      <trkpt lat="43.29772" lon="-3.00033">
        <ele>26.8</ele>
        <time>2021-10-28 08:14:54</time>
      </trkpt>
      <trkpt lat="43.29775" lon="-3.0003">
        <ele>26.8</ele>
        <time>2021-10-28 08:14:55</time>
      </trkpt>
      <trkpt lat="43.29775" lon="-3.0003">
        <ele>27</ele>
        <time>2021-10-28 08:14:56</time>
      </trkpt>
      <trkpt lat="43.2978" lon="-3.00028">
        <ele>27</ele>
        <time>2021-10-28 08:14:57</time>
      </trkpt>
      <trkpt lat="43.29785" lon="-3.00024">
        <ele>27</ele>
        <time>2021-10-28 08:14:58</time>
      </trkpt>
      <trkpt lat="43.29785" lon="-3.00024">
        <ele>27.2</ele>
        <time>2021-10-28 08:14:59</time>
      </trkpt>
      <trkpt lat="43.29794" lon="-3.00018">
        <ele>27.2</ele>
        <time>2021-10-28 08:15:00</time>
      </trkpt>
      <trkpt lat="43.29794" lon="-3.00018">
        <ele>27.2</ele>
        <time>2021-10-28 08:15:01</time>
      </trkpt>
      <trkpt lat="43.29799" lon="-3.00011">
        <ele>27.2</ele>
        <time>2021-10-28 08:15:02</time>
      </trkpt>
      <trkpt lat="43.29799" lon="-3.00011">
        <ele>27.2</ele>
        <time>2021-10-28 08:15:03</time>
      </trkpt>
      <trkpt lat="43.29806" lon="-3.00005">
        <ele>27.2</ele>
        <time>2021-10-28 08:15:04</time>
      </trkpt>
      <trkpt lat="43.29806" lon="-3.00005">
        <ele>27.2</ele>
        <time>2021-10-28 08:15:05</time>
      </trkpt>
      <trkpt lat="43.29812" lon="-2.99998">
        <ele>27.2</ele>
        <time>2021-10-28 08:15:06</time>
      </trkpt>
      <trkpt lat="43.29812" lon="-2.99998">
        <ele>27.2</ele>
        <time>2021-10-28 08:15:07</time>
      </trkpt>
      <trkpt lat="43.29816" lon="-2.99996">
        <ele>27.2</ele>
        <time>2021-10-28 08:15:08</time>
      </trkpt>
      <trkpt lat="43.29821" lon="-2.9999">
        <ele>27.2</ele>
        <time>2021-10-28 08:15:09</time>
      </trkpt>
      <trkpt lat="43.29821" lon="-2.9999">
        <ele>27.2</ele>
        <time>2021-10-28 08:15:10</time>
      </trkpt>
      <trkpt lat="43.29821" lon="-2.9999">
        <ele>27.2</ele>
        <time>2021-10-28 08:15:11</time>
      </trkpt>
      <trkpt lat="43.29832" lon="-2.99983">
        <ele>27.2</ele>
        <time>2021-10-28 08:15:12</time>
      </trkpt>
      <trkpt lat="43.29832" lon="-2.99983">
        <ele>27.4</ele>
        <time>2021-10-28 08:15:13</time>
      </trkpt>
      <trkpt lat="43.29834" lon="-2.99981">
        <ele>27.4</ele>
        <time>2021-10-28 08:15:14</time>
      </trkpt>
      <trkpt lat="43.2984" lon="-2.99978">
        <ele>27.4</ele>
        <time>2021-10-28 08:15:15</time>
      </trkpt>
      <trkpt lat="43.2984" lon="-2.99978">
        <ele>27.6</ele>
        <time>2021-10-28 08:15:16</time>
      </trkpt>
      <trkpt lat="43.29843" lon="-2.99976">
        <ele>27.6</ele>
        <time>2021-10-28 08:15:17</time>
      </trkpt>
      <trkpt lat="43.2985" lon="-2.99971">
        <ele>27.8</ele>
        <time>2021-10-28 08:15:18</time>
      </trkpt>
      <trkpt lat="43.2985" lon="-2.99971">
        <ele>27.8</ele>
        <time>2021-10-28 08:15:19</time>
      </trkpt>
      <trkpt lat="43.29859" lon="-2.99967">
        <ele>27.8</ele>
        <time>2021-10-28 08:15:20</time>
      </trkpt>
      <trkpt lat="43.29859" lon="-2.99967">
        <ele>27.8</ele>
        <time>2021-10-28 08:15:21</time>
      </trkpt>
      <trkpt lat="43.29859" lon="-2.99967">
        <ele>28</ele>
        <time>2021-10-28 08:15:22</time>
      </trkpt>
      <trkpt lat="43.29863" lon="-2.99961">
        <ele>28</ele>
        <time>2021-10-28 08:15:23</time>
      </trkpt>
      <trkpt lat="43.29863" lon="-2.99961">
        <ele>28</ele>
        <time>2021-10-28 08:15:24</time>
      </trkpt>
      <trkpt lat="43.29863" lon="-2.99961">
        <ele>28</ele>
        <time>2021-10-28 08:15:25</time>
      </trkpt>
      <trkpt lat="43.29875" lon="-2.99954">
        <ele>28</ele>
        <time>2021-10-28 08:15:26</time>
      </trkpt>
      <trkpt lat="43.29879" lon="-2.99953">
        <ele>27.8</ele>
        <time>2021-10-28 08:15:27</time>
      </trkpt>
      <trkpt lat="43.29879" lon="-2.99953">
        <ele>27.8</ele>
        <time>2021-10-28 08:15:28</time>
      </trkpt>
      <trkpt lat="43.29885" lon="-2.99949">
        <ele>27.8</ele>
        <time>2021-10-28 08:15:29</time>
      </trkpt>
      <trkpt lat="43.29888" lon="-2.99949">
        <ele>27.8</ele>
        <time>2021-10-28 08:15:30</time>
      </trkpt>
      <trkpt lat="43.29888" lon="-2.99949">
        <ele>27.8</ele>
        <time>2021-10-28 08:15:31</time>
      </trkpt>
      <trkpt lat="43.29898" lon="-2.99942">
        <ele>27.8</ele>
        <time>2021-10-28 08:15:32</time>
      </trkpt>
      <trkpt lat="43.29898" lon="-2.99942">
        <ele>27.8</ele>
        <time>2021-10-28 08:15:33</time>
      </trkpt>
      <trkpt lat="43.29903" lon="-2.9994">
        <ele>28</ele>
        <time>2021-10-28 08:15:34</time>
      </trkpt>
      <trkpt lat="43.2991" lon="-2.99936">
        <ele>28</ele>
        <time>2021-10-28 08:15:35</time>
      </trkpt>
      <trkpt lat="43.29912" lon="-2.99937">
        <ele>28</ele>
        <time>2021-10-28 08:15:36</time>
      </trkpt>
      <trkpt lat="43.29912" lon="-2.99937">
        <ele>28.2</ele>
        <time>2021-10-28 08:15:37</time>
      </trkpt>
      <trkpt lat="43.29914" lon="-2.99935">
        <ele>28.2</ele>
        <time>2021-10-28 08:15:38</time>
      </trkpt>
      <trkpt lat="43.29918" lon="-2.99933">
        <ele>28.2</ele>
        <time>2021-10-28 08:15:39</time>
      </trkpt>
      <trkpt lat="43.29923" lon="-2.99933">
        <ele>28.2</ele>
        <time>2021-10-28 08:15:40</time>
      </trkpt>
      <trkpt lat="43.29923" lon="-2.99933">
        <ele>28.2</ele>
        <time>2021-10-28 08:15:41</time>
      </trkpt>
      <trkpt lat="43.29929" lon="-2.99929">
        <ele>28.2</ele>
        <time>2021-10-28 08:15:42</time>
      </trkpt>
      <trkpt lat="43.29929" lon="-2.99929">
        <ele>28.2</ele>
        <time>2021-10-28 08:15:43</time>
      </trkpt>
      <trkpt lat="43.29939" lon="-2.99927">
        <ele>28.2</ele>
        <time>2021-10-28 08:15:44</time>
      </trkpt>
      <trkpt lat="43.29939" lon="-2.99927">
        <ele>28.4</ele>
        <time>2021-10-28 08:15:45</time>
      </trkpt>
      <trkpt lat="43.29944" lon="-2.99925">
        <ele>28.4</ele>
        <time>2021-10-28 08:15:46</time>
      </trkpt>
      <trkpt lat="43.29948" lon="-2.99924">
        <ele>28.4</ele>
        <time>2021-10-28 08:15:47</time>
      </trkpt>
      <trkpt lat="43.29953" lon="-2.99921">
        <ele>28.4</ele>
        <time>2021-10-28 08:15:48</time>
      </trkpt>
      <trkpt lat="43.29953" lon="-2.99921">
        <ele>28.4</ele>
        <time>2021-10-28 08:15:49</time>
      </trkpt>
      <trkpt lat="43.29959" lon="-2.99921">
        <ele>28.2</ele>
        <time>2021-10-28 08:15:50</time>
      </trkpt>
      <trkpt lat="43.29959" lon="-2.99921">
        <ele>28.2</ele>
        <time>2021-10-28 08:15:51</time>
      </trkpt>
      <trkpt lat="43.2997" lon="-2.99916">
        <ele>28.2</ele>
        <time>2021-10-28 08:15:52</time>
      </trkpt>
      <trkpt lat="43.2997" lon="-2.99916">
        <ele>28.2</ele>
        <time>2021-10-28 08:15:53</time>
      </trkpt>
      <trkpt lat="43.29977" lon="-2.99918">
        <ele>28.2</ele>
        <time>2021-10-28 08:15:54</time>
      </trkpt>
      <trkpt lat="43.29977" lon="-2.99918">
        <ele>28.2</ele>
        <time>2021-10-28 08:15:55</time>
      </trkpt>
      <trkpt lat="43.29977" lon="-2.99918">
        <ele>28.4</ele>
        <time>2021-10-28 08:15:56</time>
      </trkpt>
      <trkpt lat="43.29989" lon="-2.99913">
        <ele>28.4</ele>
        <time>2021-10-28 08:15:57</time>
      </trkpt>
      <trkpt lat="43.29989" lon="-2.99913">
        <ele>28.4</ele>
        <time>2021-10-28 08:15:58</time>
      </trkpt>
      <trkpt lat="43.29994" lon="-2.99914">
        <ele>28.2</ele>
        <time>2021-10-28 08:15:59</time>
      </trkpt>
      <trkpt lat="43.29994" lon="-2.99914">
        <ele>28</ele>
        <time>2021-10-28 08:16:00</time>
      </trkpt>
      <trkpt lat="43.29995" lon="-2.99913">
        <ele>28</ele>
        <time>2021-10-28 08:16:01</time>
      </trkpt>
      <trkpt lat="43.29997" lon="-2.9991">
        <ele>27.8</ele>
        <time>2021-10-28 08:16:02</time>
      </trkpt>
      <trkpt lat="43.3" lon="-2.99906">
        <ele>27.8</ele>
        <time>2021-10-28 08:16:03</time>
      </trkpt>
      <trkpt lat="43.30003" lon="-2.99898">
        <ele>27.6</ele>
        <time>2021-10-28 08:16:04</time>
      </trkpt>
      <trkpt lat="43.30003" lon="-2.99898">
        <ele>27.6</ele>
        <time>2021-10-28 08:16:05</time>
      </trkpt>
      <trkpt lat="43.30003" lon="-2.99898">
        <ele>27.4</ele>
        <time>2021-10-28 08:16:06</time>
      </trkpt>
      <trkpt lat="43.30006" lon="-2.99886">
        <ele>27.4</ele>
        <time>2021-10-28 08:16:07</time>
      </trkpt>
      <trkpt lat="43.30009" lon="-2.99882">
        <ele>27</ele>
        <time>2021-10-28 08:16:08</time>
      </trkpt>
      <trkpt lat="43.30009" lon="-2.99876">
        <ele>26.8</ele>
        <time>2021-10-28 08:16:09</time>
      </trkpt>
      <trkpt lat="43.30016" lon="-2.99866">
        <ele>26.6</ele>
        <time>2021-10-28 08:16:10</time>
      </trkpt>
      <trkpt lat="43.30016" lon="-2.99866">
        <ele>26.4</ele>
        <time>2021-10-28 08:16:11</time>
      </trkpt>
      <trkpt lat="43.30016" lon="-2.99866">
        <ele>26.2</ele>
        <time>2021-10-28 08:16:12</time>
      </trkpt>
      <trkpt lat="43.30019" lon="-2.99856">
        <ele>26</ele>
        <time>2021-10-28 08:16:13</time>
      </trkpt>
      <trkpt lat="43.30023" lon="-2.99846">
        <ele>25.8</ele>
        <time>2021-10-28 08:16:14</time>
      </trkpt>
      <trkpt lat="43.30023" lon="-2.99846">
        <ele>25.4</ele>
        <time>2021-10-28 08:16:15</time>
      </trkpt>
      <trkpt lat="43.30029" lon="-2.99837">
        <ele>25.2</ele>
        <time>2021-10-28 08:16:16</time>
      </trkpt>
      <trkpt lat="43.30034" lon="-2.99828">
        <ele>25</ele>
        <time>2021-10-28 08:16:17</time>
      </trkpt>
      <trkpt lat="43.30034" lon="-2.99828">
        <ele>24.8</ele>
        <time>2021-10-28 08:16:18</time>
      </trkpt>
      <trkpt lat="43.3004" lon="-2.99816">
        <ele>24.4</ele>
        <time>2021-10-28 08:16:19</time>
      </trkpt>
      <trkpt lat="43.3004" lon="-2.99816">
        <ele>24.2</ele>
        <time>2021-10-28 08:16:20</time>
      </trkpt>
      <trkpt lat="43.30046" lon="-2.99801">
        <ele>24</ele>
        <time>2021-10-28 08:16:21</time>
      </trkpt>
      <trkpt lat="43.30046" lon="-2.99801">
        <ele>23.8</ele>
        <time>2021-10-28 08:16:22</time>
      </trkpt>
      <trkpt lat="43.30048" lon="-2.99795">
        <ele>23.6</ele>
        <time>2021-10-28 08:16:23</time>
      </trkpt>
      <trkpt lat="43.30055" lon="-2.99779">
        <ele>23.2</ele>
        <time>2021-10-28 08:16:24</time>
      </trkpt>
      <trkpt lat="43.30055" lon="-2.99779">
        <ele>23</ele>
        <time>2021-10-28 08:16:25</time>
      </trkpt>
      <trkpt lat="43.30067" lon="-2.9976">
        <ele>22.6</ele>
        <time>2021-10-28 08:16:26</time>
      </trkpt>
      <trkpt lat="43.30067" lon="-2.9976">
        <ele>22.2</ele>
        <time>2021-10-28 08:16:27</time>
      </trkpt>
      <trkpt lat="43.30076" lon="-2.99743">
        <ele>21.8</ele>
        <time>2021-10-28 08:16:28</time>
      </trkpt>
      <trkpt lat="43.30076" lon="-2.99743">
        <ele>21.4</ele>
        <time>2021-10-28 08:16:29</time>
      </trkpt>
      <trkpt lat="43.30083" lon="-2.99725">
        <ele>20.8</ele>
        <time>2021-10-28 08:16:30</time>
      </trkpt>
      <trkpt lat="43.30083" lon="-2.99725">
        <ele>20.2</ele>
        <time>2021-10-28 08:16:31</time>
      </trkpt>
      <trkpt lat="43.30094" lon="-2.99708">
        <ele>19.6</ele>
        <time>2021-10-28 08:16:32</time>
      </trkpt>
      <trkpt lat="43.30094" lon="-2.99708">
        <ele>18.8</ele>
        <time>2021-10-28 08:16:33</time>
      </trkpt>
      <trkpt lat="43.30102" lon="-2.99692">
        <ele>18.2</ele>
        <time>2021-10-28 08:16:34</time>
      </trkpt>
      <trkpt lat="43.30106" lon="-2.99683">
        <ele>17.6</ele>
        <time>2021-10-28 08:16:35</time>
      </trkpt>
      <trkpt lat="43.30106" lon="-2.99683">
        <ele>17</ele>
        <time>2021-10-28 08:16:36</time>
      </trkpt>
      <trkpt lat="43.30106" lon="-2.99683">
        <ele>17</ele>
        <time>2021-10-28 08:16:37</time>
      </trkpt>
      <trkpt lat="43.30113" lon="-2.9967">
        <ele>16.8</ele>
        <time>2021-10-28 08:16:38</time>
      </trkpt>
      <trkpt lat="43.3012" lon="-2.99655">
        <ele>16.8</ele>
        <time>2021-10-28 08:16:39</time>
      </trkpt>
      <trkpt lat="43.3012" lon="-2.99655">
        <ele>17</ele>
        <time>2021-10-28 08:16:40</time>
      </trkpt>
      <trkpt lat="43.3012" lon="-2.99655">
        <ele>17</ele>
        <time>2021-10-28 08:16:41</time>
      </trkpt>
      <trkpt lat="43.30127" lon="-2.99634">
        <ele>17.2</ele>
        <time>2021-10-28 08:16:42</time>
      </trkpt>
      <trkpt lat="43.30127" lon="-2.99634">
        <ele>17.2</ele>
        <time>2021-10-28 08:16:43</time>
      </trkpt>
      <trkpt lat="43.30136" lon="-2.9962">
        <ele>17.2</ele>
        <time>2021-10-28 08:16:44</time>
      </trkpt>
      <trkpt lat="43.30136" lon="-2.9962">
        <ele>17.4</ele>
        <time>2021-10-28 08:16:45</time>
      </trkpt>
      <trkpt lat="43.30141" lon="-2.99609">
        <ele>17.6</ele>
        <time>2021-10-28 08:16:46</time>
      </trkpt>
      <trkpt lat="43.30141" lon="-2.99609">
        <ele>17.6</ele>
        <time>2021-10-28 08:16:47</time>
      </trkpt>
      <trkpt lat="43.30144" lon="-2.99603">
        <ele>17.6</ele>
        <time>2021-10-28 08:16:48</time>
      </trkpt>
      <trkpt lat="43.30149" lon="-2.9959">
        <ele>17.8</ele>
        <time>2021-10-28 08:16:49</time>
      </trkpt>
      <trkpt lat="43.30149" lon="-2.9959">
        <ele>17.8</ele>
        <time>2021-10-28 08:16:50</time>
      </trkpt>
      <trkpt lat="43.30151" lon="-2.99585">
        <ele>17.8</ele>
        <time>2021-10-28 08:16:51</time>
      </trkpt>
      <trkpt lat="43.30155" lon="-2.99574">
        <ele>17.8</ele>
        <time>2021-10-28 08:16:52</time>
      </trkpt>
      <trkpt lat="43.30155" lon="-2.99574">
        <ele>17.8</ele>
        <time>2021-10-28 08:16:53</time>
      </trkpt>
      <trkpt lat="43.30156" lon="-2.99567">
        <ele>17.8</ele>
        <time>2021-10-28 08:16:54</time>
      </trkpt>
      <trkpt lat="43.30162" lon="-2.99554">
        <ele>17.8</ele>
        <time>2021-10-28 08:16:55</time>
      </trkpt>
      <trkpt lat="43.30166" lon="-2.99551">
        <ele>17.8</ele>
        <time>2021-10-28 08:16:56</time>
      </trkpt>
      <trkpt lat="43.30171" lon="-2.99545">
        <ele>17.8</ele>
        <time>2021-10-28 08:16:57</time>
      </trkpt>
      <trkpt lat="43.30171" lon="-2.99545">
        <ele>18</ele>
        <time>2021-10-28 08:16:58</time>
      </trkpt>
      <trkpt lat="43.30174" lon="-2.9954">
        <ele>18</ele>
        <time>2021-10-28 08:16:59</time>
      </trkpt>
      <trkpt lat="43.30181" lon="-2.99528">
        <ele>18</ele>
        <time>2021-10-28 08:17:00</time>
      </trkpt>
      <trkpt lat="43.30181" lon="-2.99524">
        <ele>18</ele>
        <time>2021-10-28 08:17:01</time>
      </trkpt>
      <trkpt lat="43.30181" lon="-2.99524">
        <ele>18</ele>
        <time>2021-10-28 08:17:02</time>
      </trkpt>
      <trkpt lat="43.30184" lon="-2.99519">
        <ele>18</ele>
        <time>2021-10-28 08:17:03</time>
      </trkpt>
      <trkpt lat="43.30181" lon="-2.99516">
        <ele>18.2</ele>
        <time>2021-10-28 08:17:04</time>
      </trkpt>
      <trkpt lat="43.30182" lon="-2.99511">
        <ele>18.2</ele>
        <time>2021-10-28 08:17:05</time>
      </trkpt>
      <trkpt lat="43.30182" lon="-2.99507">
        <ele>18.2</ele>
        <time>2021-10-28 08:17:06</time>
      </trkpt>
      <trkpt lat="43.30184" lon="-2.995">
        <ele>18.2</ele>
        <time>2021-10-28 08:17:07</time>
      </trkpt>
      <trkpt lat="43.30189" lon="-2.99489">
        <ele>18.2</ele>
        <time>2021-10-28 08:17:08</time>
      </trkpt>
      <trkpt lat="43.30189" lon="-2.99489">
        <ele>18.2</ele>
        <time>2021-10-28 08:17:09</time>
      </trkpt>
      <trkpt lat="43.30189" lon="-2.99489">
        <ele>18.4</ele>
        <time>2021-10-28 08:17:10</time>
      </trkpt>
      <trkpt lat="43.30191" lon="-2.9948">
        <ele>18.4</ele>
        <time>2021-10-28 08:17:11</time>
      </trkpt>
      <trkpt lat="43.30193" lon="-2.99475">
        <ele>18.4</ele>
        <time>2021-10-28 08:17:12</time>
      </trkpt>
      <trkpt lat="43.30193" lon="-2.9947">
        <ele>18.4</ele>
        <time>2021-10-28 08:17:13</time>
      </trkpt>
      <trkpt lat="43.30192" lon="-2.99462">
        <ele>18.4</ele>
        <time>2021-10-28 08:17:14</time>
      </trkpt>
      <trkpt lat="43.30192" lon="-2.99462">
        <ele>18.4</ele>
        <time>2021-10-28 08:17:15</time>
      </trkpt>
      <trkpt lat="43.30192" lon="-2.99462">
        <ele>18.4</ele>
        <time>2021-10-28 08:17:16</time>
      </trkpt>
      <trkpt lat="43.30201" lon="-2.99448">
        <ele>18.6</ele>
        <time>2021-10-28 08:17:17</time>
      </trkpt>
      <trkpt lat="43.30201" lon="-2.99448">
        <ele>18.6</ele>
        <time>2021-10-28 08:17:18</time>
      </trkpt>
      <trkpt lat="43.30201" lon="-2.99448">
        <ele>18.6</ele>
        <time>2021-10-28 08:17:19</time>
      </trkpt>
      <trkpt lat="43.30211" lon="-2.99451">
        <ele>18.6</ele>
        <time>2021-10-28 08:17:20</time>
      </trkpt>
      <trkpt lat="43.30215" lon="-2.99454">
        <ele>18.4</ele>
        <time>2021-10-28 08:17:21</time>
      </trkpt>
      <trkpt lat="43.30215" lon="-2.99454">
        <ele>18.2</ele>
        <time>2021-10-28 08:17:22</time>
      </trkpt>
      <trkpt lat="43.30224" lon="-2.9946">
        <ele>17.8</ele>
        <time>2021-10-28 08:17:23</time>
      </trkpt>
      <trkpt lat="43.30224" lon="-2.9946">
        <ele>17.6</ele>
        <time>2021-10-28 08:17:24</time>
      </trkpt>
      <trkpt lat="43.30231" lon="-2.9946">
        <ele>17.2</ele>
        <time>2021-10-28 08:17:25</time>
      </trkpt>
      <trkpt lat="43.30241" lon="-2.99463">
        <ele>16.8</ele>
        <time>2021-10-28 08:17:26</time>
      </trkpt>
      <trkpt lat="43.30241" lon="-2.99463">
        <ele>16.6</ele>
        <time>2021-10-28 08:17:27</time>
      </trkpt>
      <trkpt lat="43.30243" lon="-2.99465">
        <ele>16.2</ele>
        <time>2021-10-28 08:17:28</time>
      </trkpt>
      <trkpt lat="43.30254" lon="-2.9947">
        <ele>16</ele>
        <time>2021-10-28 08:17:29</time>
      </trkpt>
      <trkpt lat="43.30254" lon="-2.9947">
        <ele>15.6</ele>
        <time>2021-10-28 08:17:30</time>
      </trkpt>
      <trkpt lat="43.30259" lon="-2.9947">
        <ele>15.4</ele>
        <time>2021-10-28 08:17:31</time>
      </trkpt>
      <trkpt lat="43.30267" lon="-2.99469">
        <ele>15.4</ele>
        <time>2021-10-28 08:17:32</time>
      </trkpt>
      <trkpt lat="43.30268" lon="-2.99468">
        <ele>15.4</ele>
        <time>2021-10-28 08:17:33</time>
      </trkpt>
      <trkpt lat="43.3027" lon="-2.99471">
        <ele>15.4</ele>
        <time>2021-10-28 08:17:34</time>
      </trkpt>
      <trkpt lat="43.3027" lon="-2.99471">
        <ele>15.4</ele>
        <time>2021-10-28 08:17:35</time>
      </trkpt>
      <trkpt lat="43.30271" lon="-2.99475">
        <ele>15.4</ele>
        <time>2021-10-28 08:17:36</time>
      </trkpt>
      <trkpt lat="43.30271" lon="-2.99475">
        <ele>15.2</ele>
        <time>2021-10-28 08:17:37</time>
      </trkpt>
      <trkpt lat="43.30271" lon="-2.99484">
        <ele>15.2</ele>
        <time>2021-10-28 08:17:38</time>
      </trkpt>
      <trkpt lat="43.30268" lon="-2.9949">
        <ele>15.2</ele>
        <time>2021-10-28 08:17:39</time>
      </trkpt>
      <trkpt lat="43.30269" lon="-2.99503">
        <ele>15.2</ele>
        <time>2021-10-28 08:17:40</time>
      </trkpt>
      <trkpt lat="43.30269" lon="-2.99503">
        <ele>15.2</ele>
        <time>2021-10-28 08:17:41</time>
      </trkpt>
      <trkpt lat="43.30269" lon="-2.99503">
        <ele>15</ele>
        <time>2021-10-28 08:17:42</time>
      </trkpt>
      <trkpt lat="43.3027" lon="-2.99522">
        <ele>15</ele>
        <time>2021-10-28 08:17:43</time>
      </trkpt>
      <trkpt lat="43.3027" lon="-2.99522">
        <ele>15</ele>
        <time>2021-10-28 08:17:44</time>
      </trkpt>
      <trkpt lat="43.3027" lon="-2.99528">
        <ele>15</ele>
        <time>2021-10-28 08:17:45</time>
      </trkpt>
      <trkpt lat="43.30271" lon="-2.99536">
        <ele>14.8</ele>
        <time>2021-10-28 08:17:46</time>
      </trkpt>
      <trkpt lat="43.30271" lon="-2.99549">
        <ele>14.6</ele>
        <time>2021-10-28 08:17:47</time>
      </trkpt>
      <trkpt lat="43.30271" lon="-2.99549">
        <ele>14.4</ele>
        <time>2021-10-28 08:17:48</time>
      </trkpt>
      <trkpt lat="43.30272" lon="-2.99556">
        <ele>14.2</ele>
        <time>2021-10-28 08:17:49</time>
      </trkpt>
      <trkpt lat="43.30278" lon="-2.9957">
        <ele>14</ele>
        <time>2021-10-28 08:17:50</time>
      </trkpt>
      <trkpt lat="43.30281" lon="-2.99578">
        <ele>13.6</ele>
        <time>2021-10-28 08:17:51</time>
      </trkpt>
      <trkpt lat="43.30281" lon="-2.99578">
        <ele>13.4</ele>
        <time>2021-10-28 08:17:52</time>
      </trkpt>
      <trkpt lat="43.30283" lon="-2.99592">
        <ele>13.2</ele>
        <time>2021-10-28 08:17:53</time>
      </trkpt>
      <trkpt lat="43.30281" lon="-2.99601">
        <ele>13.2</ele>
        <time>2021-10-28 08:17:54</time>
      </trkpt>
      <trkpt lat="43.30281" lon="-2.99601">
        <ele>13.2</ele>
        <time>2021-10-28 08:17:55</time>
      </trkpt>
      <trkpt lat="43.3028" lon="-2.99616">
        <ele>13.2</ele>
        <time>2021-10-28 08:17:56</time>
      </trkpt>
      <trkpt lat="43.3028" lon="-2.99624">
        <ele>13.2</ele>
        <time>2021-10-28 08:17:57</time>
      </trkpt>
      <trkpt lat="43.3028" lon="-2.99624">
        <ele>13.2</ele>
        <time>2021-10-28 08:17:58</time>
      </trkpt>
      <trkpt lat="43.3028" lon="-2.99637">
        <ele>13.2</ele>
        <time>2021-10-28 08:17:59</time>
      </trkpt>
      <trkpt lat="43.3028" lon="-2.99637">
        <ele>13.2</ele>
        <time>2021-10-28 08:18:00</time>
      </trkpt>
      <trkpt lat="43.3028" lon="-2.99637">
        <ele>13.2</ele>
        <time>2021-10-28 08:18:01</time>
      </trkpt>
      <trkpt lat="43.30278" lon="-2.9965">
        <ele>13.2</ele>
        <time>2021-10-28 08:18:02</time>
      </trkpt>
      <trkpt lat="43.30277" lon="-2.99661">
        <ele>13</ele>
        <time>2021-10-28 08:18:03</time>
      </trkpt>
      <trkpt lat="43.30277" lon="-2.99661">
        <ele>13</ele>
        <time>2021-10-28 08:18:04</time>
      </trkpt>
      <trkpt lat="43.30277" lon="-2.99669">
        <ele>13.2</ele>
        <time>2021-10-28 08:18:05</time>
      </trkpt>
      <trkpt lat="43.30277" lon="-2.99683">
        <ele>13.2</ele>
        <time>2021-10-28 08:18:06</time>
      </trkpt>
      <trkpt lat="43.30277" lon="-2.99683">
        <ele>13.2</ele>
        <time>2021-10-28 08:18:07</time>
      </trkpt>
      <trkpt lat="43.30276" lon="-2.9969">
        <ele>13.2</ele>
        <time>2021-10-28 08:18:08</time>
      </trkpt>
      <trkpt lat="43.30277" lon="-2.99695">
        <ele>13.2</ele>
        <time>2021-10-28 08:18:09</time>
      </trkpt>
      <trkpt lat="43.30276" lon="-2.9971">
        <ele>13.4</ele>
        <time>2021-10-28 08:18:10</time>
      </trkpt>
      <trkpt lat="43.30276" lon="-2.9971">
        <ele>13.4</ele>
        <time>2021-10-28 08:18:11</time>
      </trkpt>
      <trkpt lat="43.30275" lon="-2.99717">
        <ele>13.4</ele>
        <time>2021-10-28 08:18:12</time>
      </trkpt>
      <trkpt lat="43.30274" lon="-2.99731">
        <ele>13.4</ele>
        <time>2021-10-28 08:18:13</time>
      </trkpt>
      <trkpt lat="43.30274" lon="-2.99731">
        <ele>13.4</ele>
        <time>2021-10-28 08:18:14</time>
      </trkpt>
      <trkpt lat="43.30274" lon="-2.99743">
        <ele>13.4</ele>
        <time>2021-10-28 08:18:15</time>
      </trkpt>
      <trkpt lat="43.30274" lon="-2.99743">
        <ele>13.8</ele>
        <time>2021-10-28 08:18:16</time>
      </trkpt>
      <trkpt lat="43.30273" lon="-2.99748">
        <ele>14</ele>
        <time>2021-10-28 08:18:17</time>
      </trkpt>
      <trkpt lat="43.30274" lon="-2.99755">
        <ele>14.2</ele>
        <time>2021-10-28 08:18:18</time>
      </trkpt>
      <trkpt lat="43.30274" lon="-2.99762">
        <ele>14.6</ele>
        <time>2021-10-28 08:18:19</time>
      </trkpt>
      <trkpt lat="43.30274" lon="-2.99767">
        <ele>14.8</ele>
        <time>2021-10-28 08:18:20</time>
      </trkpt>
      <trkpt lat="43.30274" lon="-2.99773">
        <ele>14.8</ele>
        <time>2021-10-28 08:18:21</time>
      </trkpt>
      <trkpt lat="43.30275" lon="-2.99778">
        <ele>15</ele>
        <time>2021-10-28 08:18:22</time>
      </trkpt>
      <trkpt lat="43.30275" lon="-2.99786">
        <ele>15</ele>
        <time>2021-10-28 08:18:23</time>
      </trkpt>
      <trkpt lat="43.30275" lon="-2.99797">
        <ele>15.2</ele>
        <time>2021-10-28 08:18:24</time>
      </trkpt>
      <trkpt lat="43.30275" lon="-2.99801">
        <ele>15.2</ele>
        <time>2021-10-28 08:18:25</time>
      </trkpt>
      <trkpt lat="43.30275" lon="-2.99805">
        <ele>15.4</ele>
        <time>2021-10-28 08:18:26</time>
      </trkpt>
      <trkpt lat="43.30275" lon="-2.99805">
        <ele>15.4</ele>
        <time>2021-10-28 08:18:27</time>
      </trkpt>
      <trkpt lat="43.30275" lon="-2.99817">
        <ele>15.6</ele>
        <time>2021-10-28 08:18:28</time>
      </trkpt>
      <trkpt lat="43.30275" lon="-2.99817">
        <ele>15.6</ele>
        <time>2021-10-28 08:18:29</time>
      </trkpt>
      <trkpt lat="43.30274" lon="-2.99824">
        <ele>15.8</ele>
        <time>2021-10-28 08:18:30</time>
      </trkpt>
      <trkpt lat="43.30272" lon="-2.99834">
        <ele>15.8</ele>
        <time>2021-10-28 08:18:31</time>
      </trkpt>
      <trkpt lat="43.30272" lon="-2.99834">
        <ele>16</ele>
        <time>2021-10-28 08:18:32</time>
      </trkpt>
      <trkpt lat="43.30271" lon="-2.99838">
        <ele>16</ele>
        <time>2021-10-28 08:18:33</time>
      </trkpt>
      <trkpt lat="43.30273" lon="-2.99843">
        <ele>16.2</ele>
        <time>2021-10-28 08:18:34</time>
      </trkpt>
      <trkpt lat="43.30274" lon="-2.99857">
        <ele>16.2</ele>
        <time>2021-10-28 08:18:35</time>
      </trkpt>
      <trkpt lat="43.30274" lon="-2.99862">
        <ele>16.4</ele>
        <time>2021-10-28 08:18:36</time>
      </trkpt>
      <trkpt lat="43.30274" lon="-2.99862">
        <ele>16.4</ele>
        <time>2021-10-28 08:18:37</time>
      </trkpt>
      <trkpt lat="43.30274" lon="-2.99862">
        <ele>16.6</ele>
        <time>2021-10-28 08:18:38</time>
      </trkpt>
      <trkpt lat="43.3027" lon="-2.99876">
        <ele>16.6</ele>
        <time>2021-10-28 08:18:39</time>
      </trkpt>
      <trkpt lat="43.30268" lon="-2.99883">
        <ele>16.8</ele>
        <time>2021-10-28 08:18:40</time>
      </trkpt>
      <trkpt lat="43.30268" lon="-2.99883">
        <ele>16.8</ele>
        <time>2021-10-28 08:18:41</time>
      </trkpt>
      <trkpt lat="43.30266" lon="-2.99888">
        <ele>17</ele>
        <time>2021-10-28 08:18:42</time>
      </trkpt>
      <trkpt lat="43.30266" lon="-2.99888">
        <ele>17</ele>
        <time>2021-10-28 08:18:43</time>
      </trkpt>
      <trkpt lat="43.30262" lon="-2.99893">
        <ele>17.2</ele>
        <time>2021-10-28 08:18:44</time>
      </trkpt>
      <trkpt lat="43.30262" lon="-2.99893">
        <ele>17.4</ele>
        <time>2021-10-28 08:18:45</time>
      </trkpt>
      <trkpt lat="43.30262" lon="-2.99893">
        <ele>17.6</ele>
        <time>2021-10-28 08:18:46</time>
      </trkpt>
      <trkpt lat="43.30262" lon="-2.99904">
        <ele>17.8</ele>
        <time>2021-10-28 08:18:47</time>
      </trkpt>
      <trkpt lat="43.30267" lon="-2.99913">
        <ele>18</ele>
        <time>2021-10-28 08:18:48</time>
      </trkpt>
      <trkpt lat="43.30267" lon="-2.99913">
        <ele>18.4</ele>
        <time>2021-10-28 08:18:49</time>
      </trkpt>
      <trkpt lat="43.30268" lon="-2.99915">
        <ele>18.6</ele>
        <time>2021-10-28 08:18:50</time>
      </trkpt>
      <trkpt lat="43.30273" lon="-2.99922">
        <ele>19</ele>
        <time>2021-10-28 08:18:51</time>
      </trkpt>
      <trkpt lat="43.30276" lon="-2.99923">
        <ele>19.2</ele>
        <time>2021-10-28 08:18:52</time>
      </trkpt>
      <trkpt lat="43.30276" lon="-2.99923">
        <ele>19.4</ele>
        <time>2021-10-28 08:18:53</time>
      </trkpt>
      <trkpt lat="43.30282" lon="-2.9993">
        <ele>19.6</ele>
        <time>2021-10-28 08:18:54</time>
      </trkpt>
      <trkpt lat="43.30282" lon="-2.9993">
        <ele>19.8</ele>
        <time>2021-10-28 08:18:55</time>
      </trkpt>
      <trkpt lat="43.30289" lon="-2.99934">
        <ele>19.8</ele>
        <time>2021-10-28 08:18:56</time>
      </trkpt>
      <trkpt lat="43.30289" lon="-2.99934">
        <ele>20</ele>
        <time>2021-10-28 08:18:57</time>
      </trkpt>
      <trkpt lat="43.30294" lon="-2.9994">
        <ele>20</ele>
        <time>2021-10-28 08:18:58</time>
      </trkpt>
      <trkpt lat="43.30294" lon="-2.9994">
        <ele>20</ele>
        <time>2021-10-28 08:18:59</time>
      </trkpt>
      <trkpt lat="43.30298" lon="-2.99944">
        <ele>19.8</ele>
        <time>2021-10-28 08:19:00</time>
      </trkpt>
      <trkpt lat="43.30304" lon="-2.99952">
        <ele>19.6</ele>
        <time>2021-10-28 08:19:01</time>
      </trkpt>
      <trkpt lat="43.30304" lon="-2.99952">
        <ele>19.4</ele>
        <time>2021-10-28 08:19:02</time>
      </trkpt>
      <trkpt lat="43.30311" lon="-2.99963">
        <ele>19</ele>
        <time>2021-10-28 08:19:03</time>
      </trkpt>
      <trkpt lat="43.30311" lon="-2.99963">
        <ele>18.8</ele>
        <time>2021-10-28 08:19:04</time>
      </trkpt>
      <trkpt lat="43.30319" lon="-2.99967">
        <ele>18.4</ele>
        <time>2021-10-28 08:19:05</time>
      </trkpt>
      <trkpt lat="43.30324" lon="-2.99971">
        <ele>18.2</ele>
        <time>2021-10-28 08:19:06</time>
      </trkpt>
      <trkpt lat="43.30337" lon="-2.99976">
        <ele>18</ele>
        <time>2021-10-28 08:19:07</time>
      </trkpt>
      <trkpt lat="43.30337" lon="-2.99976">
        <ele>17.8</ele>
        <time>2021-10-28 08:19:08</time>
      </trkpt>
      <trkpt lat="43.30352" lon="-2.99975">
        <ele>17.6</ele>
        <time>2021-10-28 08:19:09</time>
      </trkpt>
      <trkpt lat="43.30357" lon="-2.99973">
        <ele>17.4</ele>
        <time>2021-10-28 08:19:10</time>
      </trkpt>
      <trkpt lat="43.30357" lon="-2.99973">
        <ele>17.2</ele>
        <time>2021-10-28 08:19:11</time>
      </trkpt>
      <trkpt lat="43.30369" lon="-2.9997">
        <ele>17</ele>
        <time>2021-10-28 08:19:12</time>
      </trkpt>
      <trkpt lat="43.30369" lon="-2.9997">
        <ele>17</ele>
        <time>2021-10-28 08:19:13</time>
      </trkpt>
      <trkpt lat="43.30374" lon="-2.9997">
        <ele>16.6</ele>
        <time>2021-10-28 08:19:14</time>
      </trkpt>
      <trkpt lat="43.30386" lon="-2.99967">
        <ele>16.6</ele>
        <time>2021-10-28 08:19:15</time>
      </trkpt>
      <trkpt lat="43.30386" lon="-2.99967">
        <ele>16.4</ele>
        <time>2021-10-28 08:19:16</time>
      </trkpt>
      <trkpt lat="43.30391" lon="-2.99967">
        <ele>16.4</ele>
        <time>2021-10-28 08:19:17</time>
      </trkpt>
      <trkpt lat="43.30401" lon="-2.99968">
        <ele>16.4</ele>
        <time>2021-10-28 08:19:18</time>
      </trkpt>
      <trkpt lat="43.30401" lon="-2.99968">
        <ele>16.4</ele>
        <time>2021-10-28 08:19:19</time>
      </trkpt>
      <trkpt lat="43.30405" lon="-2.99969">
        <ele>16.4</ele>
        <time>2021-10-28 08:19:20</time>
      </trkpt>
      <trkpt lat="43.30414" lon="-2.99969">
        <ele>16.6</ele>
        <time>2021-10-28 08:19:21</time>
      </trkpt>
      <trkpt lat="43.30414" lon="-2.99969">
        <ele>16.8</ele>
        <time>2021-10-28 08:19:22</time>
      </trkpt>
      <trkpt lat="43.30417" lon="-2.9997">
        <ele>16.8</ele>
        <time>2021-10-28 08:19:23</time>
      </trkpt>
      <trkpt lat="43.30427" lon="-2.99969">
        <ele>16.8</ele>
        <time>2021-10-28 08:19:24</time>
      </trkpt>
      <trkpt lat="43.30427" lon="-2.99969">
        <ele>16.8</ele>
        <time>2021-10-28 08:19:25</time>
      </trkpt>
      <trkpt lat="43.30432" lon="-2.99969">
        <ele>16.8</ele>
        <time>2021-10-28 08:19:26</time>
      </trkpt>
      <trkpt lat="43.30441" lon="-2.99969">
        <ele>16.8</ele>
        <time>2021-10-28 08:19:27</time>
      </trkpt>
      <trkpt lat="43.30441" lon="-2.99969">
        <ele>16.8</ele>
        <time>2021-10-28 08:19:28</time>
      </trkpt>
      <trkpt lat="43.3045" lon="-2.99971">
        <ele>17</ele>
        <time>2021-10-28 08:19:29</time>
      </trkpt>
      <trkpt lat="43.30455" lon="-2.99971">
        <ele>17</ele>
        <time>2021-10-28 08:19:30</time>
      </trkpt>
      <trkpt lat="43.30455" lon="-2.99971">
        <ele>17</ele>
        <time>2021-10-28 08:19:31</time>
      </trkpt>
      <trkpt lat="43.3046" lon="-2.99972">
        <ele>17</ele>
        <time>2021-10-28 08:19:32</time>
      </trkpt>
      <trkpt lat="43.30464" lon="-2.99973">
        <ele>17.2</ele>
        <time>2021-10-28 08:19:33</time>
      </trkpt>
      <trkpt lat="43.30468" lon="-2.99974">
        <ele>17.2</ele>
        <time>2021-10-28 08:19:34</time>
      </trkpt>
      <trkpt lat="43.30471" lon="-2.99974">
        <ele>17.4</ele>
        <time>2021-10-28 08:19:35</time>
      </trkpt>
      <trkpt lat="43.30473" lon="-2.99975">
        <ele>17.4</ele>
        <time>2021-10-28 08:19:36</time>
      </trkpt>
      <trkpt lat="43.30484" lon="-2.99978">
        <ele>17.4</ele>
        <time>2021-10-28 08:19:37</time>
      </trkpt>
      <trkpt lat="43.30484" lon="-2.99978">
        <ele>17.6</ele>
        <time>2021-10-28 08:19:38</time>
      </trkpt>
      <trkpt lat="43.30487" lon="-2.99979">
        <ele>17.8</ele>
        <time>2021-10-28 08:19:39</time>
      </trkpt>
      <trkpt lat="43.30492" lon="-2.9998">
        <ele>17.8</ele>
        <time>2021-10-28 08:19:40</time>
      </trkpt>
      <trkpt lat="43.30501" lon="-2.99982">
        <ele>18</ele>
        <time>2021-10-28 08:19:41</time>
      </trkpt>
      <trkpt lat="43.30501" lon="-2.99982">
        <ele>18.2</ele>
        <time>2021-10-28 08:19:42</time>
      </trkpt>
      <trkpt lat="43.30505" lon="-2.99983">
        <ele>18.4</ele>
        <time>2021-10-28 08:19:43</time>
      </trkpt>
      <trkpt lat="43.30512" lon="-2.99986">
        <ele>18.6</ele>
        <time>2021-10-28 08:19:44</time>
      </trkpt>
      <trkpt lat="43.30516" lon="-2.99987">
        <ele>18.6</ele>
        <time>2021-10-28 08:19:45</time>
      </trkpt>
      <trkpt lat="43.30516" lon="-2.99987">
        <ele>18.6</ele>
        <time>2021-10-28 08:19:46</time>
      </trkpt>
      <trkpt lat="43.30518" lon="-2.99991">
        <ele>18.8</ele>
        <time>2021-10-28 08:19:47</time>
      </trkpt>
      <trkpt lat="43.30524" lon="-2.99997">
        <ele>18.8</ele>
        <time>2021-10-28 08:19:48</time>
      </trkpt>
      <trkpt lat="43.30524" lon="-2.99997">
        <ele>19</ele>
        <time>2021-10-28 08:19:49</time>
      </trkpt>
      <trkpt lat="43.30532" lon="-3">
        <ele>19</ele>
        <time>2021-10-28 08:19:50</time>
      </trkpt>
      <trkpt lat="43.30532" lon="-3">
        <ele>19.2</ele>
        <time>2021-10-28 08:19:51</time>
      </trkpt>
      <trkpt lat="43.30536" lon="-3.00002">
        <ele>19.4</ele>
        <time>2021-10-28 08:19:52</time>
      </trkpt>
      <trkpt lat="43.30542" lon="-3.00006">
        <ele>19.6</ele>
        <time>2021-10-28 08:19:53</time>
      </trkpt>
      <trkpt lat="43.30545" lon="-3.00009">
        <ele>19.8</ele>
        <time>2021-10-28 08:19:54</time>
      </trkpt>
      <trkpt lat="43.30549" lon="-3.00011">
        <ele>20</ele>
        <time>2021-10-28 08:19:55</time>
      </trkpt>
      <trkpt lat="43.30549" lon="-3.00011">
        <ele>20.2</ele>
        <time>2021-10-28 08:19:56</time>
      </trkpt>
      <trkpt lat="43.30557" lon="-3.00013">
        <ele>20.4</ele>
        <time>2021-10-28 08:19:57</time>
      </trkpt>
      <trkpt lat="43.30557" lon="-3.00013">
        <ele>20.6</ele>
        <time>2021-10-28 08:19:58</time>
      </trkpt>
      <trkpt lat="43.3056" lon="-3.00018">
        <ele>20.8</ele>
        <time>2021-10-28 08:19:59</time>
      </trkpt>
      <trkpt lat="43.30566" lon="-3.00022">
        <ele>21</ele>
        <time>2021-10-28 08:20:00</time>
      </trkpt>
      <trkpt lat="43.30566" lon="-3.00022">
        <ele>21.2</ele>
        <time>2021-10-28 08:20:01</time>
      </trkpt>
      <trkpt lat="43.30569" lon="-3.00024">
        <ele>21.4</ele>
        <time>2021-10-28 08:20:02</time>
      </trkpt>
      <trkpt lat="43.30576" lon="-3.00027">
        <ele>21.4</ele>
        <time>2021-10-28 08:20:03</time>
      </trkpt>
      <trkpt lat="43.30576" lon="-3.00027">
        <ele>21.6</ele>
        <time>2021-10-28 08:20:04</time>
      </trkpt>
      <trkpt lat="43.3058" lon="-3.00029">
        <ele>21.6</ele>
        <time>2021-10-28 08:20:05</time>
      </trkpt>
      <trkpt lat="43.30587" lon="-3.00033">
        <ele>21.8</ele>
        <time>2021-10-28 08:20:06</time>
      </trkpt>
      <trkpt lat="43.30587" lon="-3.00033">
        <ele>21.8</ele>
        <time>2021-10-28 08:20:07</time>
      </trkpt>
      <trkpt lat="43.30594" lon="-3.00037">
        <ele>22</ele>
        <time>2021-10-28 08:20:08</time>
      </trkpt>
      <trkpt lat="43.30594" lon="-3.00037">
        <ele>22.2</ele>
        <time>2021-10-28 08:20:09</time>
      </trkpt>
      <trkpt lat="43.30601" lon="-3.00041">
        <ele>22.4</ele>
        <time>2021-10-28 08:20:10</time>
      </trkpt>
      <trkpt lat="43.30601" lon="-3.00041">
        <ele>22.6</ele>
        <time>2021-10-28 08:20:11</time>
      </trkpt>
      <trkpt lat="43.30605" lon="-3.00043">
        <ele>22.8</ele>
        <time>2021-10-28 08:20:12</time>
      </trkpt>
      <trkpt lat="43.30608" lon="-3.00045">
        <ele>23</ele>
        <time>2021-10-28 08:20:13</time>
      </trkpt>
      <trkpt lat="43.30615" lon="-3.00049">
        <ele>23</ele>
        <time>2021-10-28 08:20:14</time>
      </trkpt>
      <trkpt lat="43.30615" lon="-3.00049">
        <ele>23.2</ele>
        <time>2021-10-28 08:20:15</time>
      </trkpt>
      <trkpt lat="43.30622" lon="-3.00052">
        <ele>23.2</ele>
        <time>2021-10-28 08:20:16</time>
      </trkpt>
      <trkpt lat="43.30622" lon="-3.00052">
        <ele>23.2</ele>
        <time>2021-10-28 08:20:17</time>
      </trkpt>
      <trkpt lat="43.30631" lon="-3.00054">
        <ele>23.2</ele>
        <time>2021-10-28 08:20:18</time>
      </trkpt>
      <trkpt lat="43.30631" lon="-3.00054">
        <ele>23.2</ele>
        <time>2021-10-28 08:20:19</time>
      </trkpt>
      <trkpt lat="43.30635" lon="-3.00053">
        <ele>23</ele>
        <time>2021-10-28 08:20:20</time>
      </trkpt>
      <trkpt lat="43.3064" lon="-3.00052">
        <ele>23</ele>
        <time>2021-10-28 08:20:21</time>
      </trkpt>
      <trkpt lat="43.30644" lon="-3.0005">
        <ele>22.8</ele>
        <time>2021-10-28 08:20:22</time>
      </trkpt>
      <trkpt lat="43.30651" lon="-3.00043">
        <ele>22.6</ele>
        <time>2021-10-28 08:20:23</time>
      </trkpt>
      <trkpt lat="43.30651" lon="-3.00043">
        <ele>22.6</ele>
        <time>2021-10-28 08:20:24</time>
      </trkpt>
      <trkpt lat="43.30656" lon="-3.00035">
        <ele>22.6</ele>
        <time>2021-10-28 08:20:25</time>
      </trkpt>
      <trkpt lat="43.30656" lon="-3.00035">
        <ele>22.6</ele>
        <time>2021-10-28 08:20:26</time>
      </trkpt>
      <trkpt lat="43.30659" lon="-3.00025">
        <ele>22.6</ele>
        <time>2021-10-28 08:20:27</time>
      </trkpt>
      <trkpt lat="43.30659" lon="-3.00025">
        <ele>22.6</ele>
        <time>2021-10-28 08:20:28</time>
      </trkpt>
      <trkpt lat="43.3066" lon="-3.0002">
        <ele>22.6</ele>
        <time>2021-10-28 08:20:29</time>
      </trkpt>
      <trkpt lat="43.30659" lon="-3.00016">
        <ele>22.8</ele>
        <time>2021-10-28 08:20:30</time>
      </trkpt>
      <trkpt lat="43.30658" lon="-3.00011">
        <ele>22.8</ele>
        <time>2021-10-28 08:20:31</time>
      </trkpt>
      <trkpt lat="43.30656" lon="-3.00007">
        <ele>22.8</ele>
        <time>2021-10-28 08:20:32</time>
      </trkpt>
      <trkpt lat="43.30654" lon="-3.00004">
        <ele>22.8</ele>
        <time>2021-10-28 08:20:33</time>
      </trkpt>
      <trkpt lat="43.30646" lon="-3">
        <ele>22.6</ele>
        <time>2021-10-28 08:20:34</time>
      </trkpt>
      <trkpt lat="43.30646" lon="-3">
        <ele>22.6</ele>
        <time>2021-10-28 08:20:35</time>
      </trkpt>
      <trkpt lat="43.30636" lon="-3.00003">
        <ele>22.4</ele>
        <time>2021-10-28 08:20:36</time>
      </trkpt>
      <trkpt lat="43.30636" lon="-3.00003">
        <ele>22</ele>
        <time>2021-10-28 08:20:37</time>
      </trkpt>
      <trkpt lat="43.30629" lon="-3.00013">
        <ele>21.6</ele>
        <time>2021-10-28 08:20:38</time>
      </trkpt>
      <trkpt lat="43.30629" lon="-3.00013">
        <ele>21.2</ele>
        <time>2021-10-28 08:20:39</time>
      </trkpt>
      <trkpt lat="43.30623" lon="-3.00031">
        <ele>20.8</ele>
        <time>2021-10-28 08:20:40</time>
      </trkpt>
      <trkpt lat="43.30623" lon="-3.00031">
        <ele>20.2</ele>
        <time>2021-10-28 08:20:41</time>
      </trkpt>
      <trkpt lat="43.30615" lon="-3.00049">
        <ele>19.8</ele>
        <time>2021-10-28 08:20:42</time>
      </trkpt>
      <trkpt lat="43.30615" lon="-3.00049">
        <ele>19.2</ele>
        <time>2021-10-28 08:20:43</time>
      </trkpt>
      <trkpt lat="43.30612" lon="-3.0006">
        <ele>18.6</ele>
        <time>2021-10-28 08:20:44</time>
      </trkpt>
      <trkpt lat="43.30607" lon="-3.00079">
        <ele>18.2</ele>
        <time>2021-10-28 08:20:45</time>
      </trkpt>
      <trkpt lat="43.30607" lon="-3.00079">
        <ele>17.8</ele>
        <time>2021-10-28 08:20:46</time>
      </trkpt>
      <trkpt lat="43.30602" lon="-3.00088">
        <ele>17.6</ele>
        <time>2021-10-28 08:20:47</time>
      </trkpt>
      <trkpt lat="43.30594" lon="-3.00108">
        <ele>17.6</ele>
        <time>2021-10-28 08:20:48</time>
      </trkpt>
      <trkpt lat="43.30592" lon="-3.00116">
        <ele>17.6</ele>
        <time>2021-10-28 08:20:49</time>
      </trkpt>
      <trkpt lat="43.30592" lon="-3.00116">
        <ele>17.8</ele>
        <time>2021-10-28 08:20:50</time>
      </trkpt>
      <trkpt lat="43.30586" lon="-3.00132">
        <ele>17.8</ele>
        <time>2021-10-28 08:20:51</time>
      </trkpt>
      <trkpt lat="43.30586" lon="-3.00132">
        <ele>18</ele>
        <time>2021-10-28 08:20:52</time>
      </trkpt>
      <trkpt lat="43.30581" lon="-3.00147">
        <ele>18</ele>
        <time>2021-10-28 08:20:53</time>
      </trkpt>
      <trkpt lat="43.30581" lon="-3.00147">
        <ele>18.2</ele>
        <time>2021-10-28 08:20:54</time>
      </trkpt>
      <trkpt lat="43.30581" lon="-3.00147">
        <ele>18.4</ele>
        <time>2021-10-28 08:20:55</time>
      </trkpt>
      <trkpt lat="43.30575" lon="-3.00167">
        <ele>18.6</ele>
        <time>2021-10-28 08:20:56</time>
      </trkpt>
      <trkpt lat="43.30575" lon="-3.00167">
        <ele>18.8</ele>
        <time>2021-10-28 08:20:57</time>
      </trkpt>
      <trkpt lat="43.3057" lon="-3.00178">
        <ele>19</ele>
        <time>2021-10-28 08:20:58</time>
      </trkpt>
      <trkpt lat="43.3057" lon="-3.00178">
        <ele>19</ele>
        <time>2021-10-28 08:20:59</time>
      </trkpt>
      <trkpt lat="43.30568" lon="-3.00191">
        <ele>19</ele>
        <time>2021-10-28 08:21:00</time>
      </trkpt>
      <trkpt lat="43.30568" lon="-3.00191">
        <ele>19.2</ele>
        <time>2021-10-28 08:21:01</time>
      </trkpt>
      <trkpt lat="43.30563" lon="-3.00199">
        <ele>19.2</ele>
        <time>2021-10-28 08:21:02</time>
      </trkpt>
      <trkpt lat="43.30563" lon="-3.00199">
        <ele>19.2</ele>
        <time>2021-10-28 08:21:03</time>
      </trkpt>
      <trkpt lat="43.30561" lon="-3.00208">
        <ele>19.4</ele>
        <time>2021-10-28 08:21:04</time>
      </trkpt>
      <trkpt lat="43.30561" lon="-3.00208">
        <ele>19.6</ele>
        <time>2021-10-28 08:21:05</time>
      </trkpt>
      <trkpt lat="43.3056" lon="-3.00213">
        <ele>19.6</ele>
        <time>2021-10-28 08:21:06</time>
      </trkpt>
      <trkpt lat="43.30557" lon="-3.00223">
        <ele>19.8</ele>
        <time>2021-10-28 08:21:07</time>
      </trkpt>
      <trkpt lat="43.30557" lon="-3.00223">
        <ele>19.8</ele>
        <time>2021-10-28 08:21:08</time>
      </trkpt>
      <trkpt lat="43.30556" lon="-3.00234">
        <ele>19.8</ele>
        <time>2021-10-28 08:21:09</time>
      </trkpt>
      <trkpt lat="43.30553" lon="-3.00239">
        <ele>19.8</ele>
        <time>2021-10-28 08:21:10</time>
      </trkpt>
      <trkpt lat="43.30553" lon="-3.00239">
        <ele>20</ele>
        <time>2021-10-28 08:21:11</time>
      </trkpt>
      <trkpt lat="43.30547" lon="-3.00251">
        <ele>20.2</ele>
        <time>2021-10-28 08:21:12</time>
      </trkpt>
      <trkpt lat="43.30547" lon="-3.00251">
        <ele>20.4</ele>
        <time>2021-10-28 08:21:13</time>
      </trkpt>
      <trkpt lat="43.30545" lon="-3.00257">
        <ele>20.6</ele>
        <time>2021-10-28 08:21:14</time>
      </trkpt>
      <trkpt lat="43.30542" lon="-3.00266">
        <ele>20.8</ele>
        <time>2021-10-28 08:21:15</time>
      </trkpt>
      <trkpt lat="43.30539" lon="-3.00271">
        <ele>21.2</ele>
        <time>2021-10-28 08:21:16</time>
      </trkpt>
      <trkpt lat="43.30539" lon="-3.00271">
        <ele>21.4</ele>
        <time>2021-10-28 08:21:17</time>
      </trkpt>
      <trkpt lat="43.30539" lon="-3.00271">
        <ele>21.6</ele>
        <time>2021-10-28 08:21:18</time>
      </trkpt>
      <trkpt lat="43.30535" lon="-3.00283">
        <ele>22</ele>
        <time>2021-10-28 08:21:19</time>
      </trkpt>
      <trkpt lat="43.30534" lon="-3.00286">
        <ele>22.2</ele>
        <time>2021-10-28 08:21:20</time>
      </trkpt>
      <trkpt lat="43.30531" lon="-3.00294">
        <ele>22.4</ele>
        <time>2021-10-28 08:21:21</time>
      </trkpt>
      <trkpt lat="43.30531" lon="-3.00294">
        <ele>22.8</ele>
        <time>2021-10-28 08:21:22</time>
      </trkpt>
      <trkpt lat="43.30532" lon="-3.00296">
        <ele>23</ele>
        <time>2021-10-28 08:21:23</time>
      </trkpt>
      <trkpt lat="43.30528" lon="-3.00309">
        <ele>23.4</ele>
        <time>2021-10-28 08:21:24</time>
      </trkpt>
      <trkpt lat="43.30528" lon="-3.00309">
        <ele>23.8</ele>
        <time>2021-10-28 08:21:25</time>
      </trkpt>
      <trkpt lat="43.30525" lon="-3.00313">
        <ele>24.2</ele>
        <time>2021-10-28 08:21:26</time>
      </trkpt>
      <trkpt lat="43.30521" lon="-3.00324">
        <ele>24.4</ele>
        <time>2021-10-28 08:21:27</time>
      </trkpt>
      <trkpt lat="43.30521" lon="-3.00324">
        <ele>24.6</ele>
        <time>2021-10-28 08:21:28</time>
      </trkpt>
      <trkpt lat="43.3052" lon="-3.00329">
        <ele>24.8</ele>
        <time>2021-10-28 08:21:29</time>
      </trkpt>
      <trkpt lat="43.30516" lon="-3.0034">
        <ele>25.2</ele>
        <time>2021-10-28 08:21:30</time>
      </trkpt>
      <trkpt lat="43.30516" lon="-3.0034">
        <ele>25.4</ele>
        <time>2021-10-28 08:21:31</time>
      </trkpt>
      <trkpt lat="43.30513" lon="-3.00348">
        <ele>25.6</ele>
        <time>2021-10-28 08:21:32</time>
      </trkpt>
      <trkpt lat="43.30513" lon="-3.00348">
        <ele>25.8</ele>
        <time>2021-10-28 08:21:33</time>
      </trkpt>
      <trkpt lat="43.3051" lon="-3.00356">
        <ele>26</ele>
        <time>2021-10-28 08:21:34</time>
      </trkpt>
      <trkpt lat="43.30507" lon="-3.00362">
        <ele>26.2</ele>
        <time>2021-10-28 08:21:35</time>
      </trkpt>
      <trkpt lat="43.30507" lon="-3.00362">
        <ele>26.4</ele>
        <time>2021-10-28 08:21:36</time>
      </trkpt>
      <trkpt lat="43.30508" lon="-3.00365">
        <ele>26.8</ele>
        <time>2021-10-28 08:21:37</time>
      </trkpt>
      <trkpt lat="43.30511" lon="-3.00368">
        <ele>27</ele>
        <time>2021-10-28 08:21:38</time>
      </trkpt>
      <trkpt lat="43.30511" lon="-3.00368">
        <ele>27.2</ele>
        <time>2021-10-28 08:21:39</time>
      </trkpt>
      <trkpt lat="43.30511" lon="-3.00368">
        <ele>27.6</ele>
        <time>2021-10-28 08:21:40</time>
      </trkpt>
      <trkpt lat="43.30506" lon="-3.00381">
        <ele>27.8</ele>
        <time>2021-10-28 08:21:41</time>
      </trkpt>
      <trkpt lat="43.30506" lon="-3.00381">
        <ele>28</ele>
        <time>2021-10-28 08:21:42</time>
      </trkpt>
      <trkpt lat="43.30507" lon="-3.00385">
        <ele>28.2</ele>
        <time>2021-10-28 08:21:43</time>
      </trkpt>
      <trkpt lat="43.30498" lon="-3.00397">
        <ele>28.4</ele>
        <time>2021-10-28 08:21:44</time>
      </trkpt>
      <trkpt lat="43.30497" lon="-3.00405">
        <ele>28.8</ele>
        <time>2021-10-28 08:21:45</time>
      </trkpt>
      <trkpt lat="43.30497" lon="-3.00405">
        <ele>29</ele>
        <time>2021-10-28 08:21:46</time>
      </trkpt>
      <trkpt lat="43.30493" lon="-3.0041">
        <ele>29.2</ele>
        <time>2021-10-28 08:21:47</time>
      </trkpt>
      <trkpt lat="43.30497" lon="-3.00418">
        <ele>29.4</ele>
        <time>2021-10-28 08:21:48</time>
      </trkpt>
      <trkpt lat="43.305" lon="-3.00423">
        <ele>29.6</ele>
        <time>2021-10-28 08:21:49</time>
      </trkpt>
      <trkpt lat="43.305" lon="-3.00423">
        <ele>29.6</ele>
        <time>2021-10-28 08:21:50</time>
      </trkpt>
      <trkpt lat="43.30504" lon="-3.00437">
        <ele>29.6</ele>
        <time>2021-10-28 08:21:51</time>
      </trkpt>
      <trkpt lat="43.30504" lon="-3.00437">
        <ele>29.6</ele>
        <time>2021-10-28 08:21:52</time>
      </trkpt>
      <trkpt lat="43.30505" lon="-3.00442">
        <ele>29.6</ele>
        <time>2021-10-28 08:21:53</time>
      </trkpt>
      <trkpt lat="43.3051" lon="-3.00445">
        <ele>29.4</ele>
        <time>2021-10-28 08:21:54</time>
      </trkpt>
      <trkpt lat="43.30517" lon="-3.00455">
        <ele>29.2</ele>
        <time>2021-10-28 08:21:55</time>
      </trkpt>
      <trkpt lat="43.30517" lon="-3.00455">
        <ele>29</ele>
        <time>2021-10-28 08:21:56</time>
      </trkpt>
      <trkpt lat="43.30518" lon="-3.00464">
        <ele>28.8</ele>
        <time>2021-10-28 08:21:57</time>
      </trkpt>
      <trkpt lat="43.30519" lon="-3.00478">
        <ele>28.4</ele>
        <time>2021-10-28 08:21:58</time>
      </trkpt>
      <trkpt lat="43.30518" lon="-3.00484">
        <ele>28.2</ele>
        <time>2021-10-28 08:21:59</time>
      </trkpt>
      <trkpt lat="43.30518" lon="-3.00484">
        <ele>28</ele>
        <time>2021-10-28 08:22:00</time>
      </trkpt>
      <trkpt lat="43.30514" lon="-3.00502">
        <ele>27.8</ele>
        <time>2021-10-28 08:22:01</time>
      </trkpt>
      <trkpt lat="43.30514" lon="-3.00502">
        <ele>27.6</ele>
        <time>2021-10-28 08:22:02</time>
      </trkpt>
      <trkpt lat="43.30514" lon="-3.00502">
        <ele>27.4</ele>
        <time>2021-10-28 08:22:03</time>
      </trkpt>
      <trkpt lat="43.30509" lon="-3.00523">
        <ele>27</ele>
        <time>2021-10-28 08:22:04</time>
      </trkpt>
      <trkpt lat="43.30506" lon="-3.00533">
        <ele>26.8</ele>
        <time>2021-10-28 08:22:05</time>
      </trkpt>
      <trkpt lat="43.305" lon="-3.00553">
        <ele>26.4</ele>
        <time>2021-10-28 08:22:06</time>
      </trkpt>
      <trkpt lat="43.305" lon="-3.00553">
        <ele>26</ele>
        <time>2021-10-28 08:22:07</time>
      </trkpt>
      <trkpt lat="43.30496" lon="-3.00574">
        <ele>25.6</ele>
        <time>2021-10-28 08:22:08</time>
      </trkpt>
      <trkpt lat="43.30496" lon="-3.00574">
        <ele>25.2</ele>
        <time>2021-10-28 08:22:09</time>
      </trkpt>
      <trkpt lat="43.30489" lon="-3.00595">
        <ele>24.6</ele>
        <time>2021-10-28 08:22:10</time>
      </trkpt>
      <trkpt lat="43.30489" lon="-3.00595">
        <ele>24.2</ele>
        <time>2021-10-28 08:22:11</time>
      </trkpt>
      <trkpt lat="43.30488" lon="-3.00604">
        <ele>24</ele>
        <time>2021-10-28 08:22:12</time>
      </trkpt>
      <trkpt lat="43.30487" lon="-3.00613">
        <ele>23.6</ele>
        <time>2021-10-28 08:22:13</time>
      </trkpt>
      <trkpt lat="43.30484" lon="-3.00624">
        <ele>23.6</ele>
        <time>2021-10-28 08:22:14</time>
      </trkpt>
      <trkpt lat="43.30478" lon="-3.00646">
        <ele>23.4</ele>
        <time>2021-10-28 08:22:15</time>
      </trkpt>
      <trkpt lat="43.30477" lon="-3.00654">
        <ele>23.4</ele>
        <time>2021-10-28 08:22:16</time>
      </trkpt>
      <trkpt lat="43.30477" lon="-3.00654">
        <ele>23.4</ele>
        <time>2021-10-28 08:22:17</time>
      </trkpt>
      <trkpt lat="43.30477" lon="-3.00654">
        <ele>23.4</ele>
        <time>2021-10-28 08:22:18</time>
      </trkpt>
      <trkpt lat="43.30469" lon="-3.00682">
        <ele>23.8</ele>
        <time>2021-10-28 08:22:19</time>
      </trkpt>
      <trkpt lat="43.30469" lon="-3.00682">
        <ele>23.8</ele>
        <time>2021-10-28 08:22:20</time>
      </trkpt>
      <trkpt lat="43.30465" lon="-3.00691">
        <ele>23.8</ele>
        <time>2021-10-28 08:22:21</time>
      </trkpt>
      <trkpt lat="43.30465" lon="-3.00702">
        <ele>23.8</ele>
        <time>2021-10-28 08:22:22</time>
      </trkpt>
      <trkpt lat="43.30466" lon="-3.00713">
        <ele>24.4</ele>
        <time>2021-10-28 08:22:23</time>
      </trkpt>
      <trkpt lat="43.30466" lon="-3.00713">
        <ele>24.2</ele>
        <time>2021-10-28 08:22:24</time>
      </trkpt>
      <trkpt lat="43.30464" lon="-3.00728">
        <ele>24.6</ele>
        <time>2021-10-28 08:22:25</time>
      </trkpt>
      <trkpt lat="43.30464" lon="-3.00728">
        <ele>24.6</ele>
        <time>2021-10-28 08:22:26</time>
      </trkpt>
      <trkpt lat="43.30463" lon="-3.00741">
        <ele>24.4</ele>
        <time>2021-10-28 08:22:27</time>
      </trkpt>
      <trkpt lat="43.30463" lon="-3.00741">
        <ele>24.4</ele>
        <time>2021-10-28 08:22:28</time>
      </trkpt>
      <trkpt lat="43.30462" lon="-3.00749">
        <ele>24.4</ele>
        <time>2021-10-28 08:22:29</time>
      </trkpt>
      <trkpt lat="43.30465" lon="-3.00762">
        <ele>24.6</ele>
        <time>2021-10-28 08:22:30</time>
      </trkpt>
      <trkpt lat="43.30465" lon="-3.00762">
        <ele>24.6</ele>
        <time>2021-10-28 08:22:31</time>
      </trkpt>
      <trkpt lat="43.30465" lon="-3.00777">
        <ele>24.8</ele>
        <time>2021-10-28 08:22:32</time>
      </trkpt>
      <trkpt lat="43.30465" lon="-3.00777">
        <ele>24.8</ele>
        <time>2021-10-28 08:22:33</time>
      </trkpt>
      <trkpt lat="43.30466" lon="-3.00783">
        <ele>24.8</ele>
        <time>2021-10-28 08:22:34</time>
      </trkpt>
      <trkpt lat="43.30468" lon="-3.00796">
        <ele>25</ele>
        <time>2021-10-28 08:22:35</time>
      </trkpt>
      <trkpt lat="43.30469" lon="-3.00802">
        <ele>25</ele>
        <time>2021-10-28 08:22:36</time>
      </trkpt>
      <trkpt lat="43.30469" lon="-3.00802">
        <ele>25.2</ele>
        <time>2021-10-28 08:22:37</time>
      </trkpt>
      <trkpt lat="43.30472" lon="-3.00814">
        <ele>25.2</ele>
        <time>2021-10-28 08:22:38</time>
      </trkpt>
      <trkpt lat="43.30472" lon="-3.00814">
        <ele>25.2</ele>
        <time>2021-10-28 08:22:39</time>
      </trkpt>
      <trkpt lat="43.30474" lon="-3.00819">
        <ele>25.2</ele>
        <time>2021-10-28 08:22:40</time>
      </trkpt>
      <trkpt lat="43.3048" lon="-3.00828">
        <ele>25.2</ele>
        <time>2021-10-28 08:22:41</time>
      </trkpt>
      <trkpt lat="43.3048" lon="-3.00828">
        <ele>25.2</ele>
        <time>2021-10-28 08:22:42</time>
      </trkpt>
      <trkpt lat="43.30482" lon="-3.00834">
        <ele>25.2</ele>
        <time>2021-10-28 08:22:43</time>
      </trkpt>
      <trkpt lat="43.30488" lon="-3.0084">
        <ele>25</ele>
        <time>2021-10-28 08:22:44</time>
      </trkpt>
      <trkpt lat="43.30488" lon="-3.0084">
        <ele>25</ele>
        <time>2021-10-28 08:22:45</time>
      </trkpt>
      <trkpt lat="43.30491" lon="-3.00853">
        <ele>25</ele>
        <time>2021-10-28 08:22:46</time>
      </trkpt>
      <trkpt lat="43.30491" lon="-3.00853">
        <ele>25</ele>
        <time>2021-10-28 08:22:47</time>
      </trkpt>
      <trkpt lat="43.30495" lon="-3.00857">
        <ele>25</ele>
        <time>2021-10-28 08:22:48</time>
      </trkpt>
      <trkpt lat="43.30498" lon="-3.00862">
        <ele>25</ele>
        <time>2021-10-28 08:22:49</time>
      </trkpt>
      <trkpt lat="43.30509" lon="-3.00868">
        <ele>25</ele>
        <time>2021-10-28 08:22:50</time>
      </trkpt>
      <trkpt lat="43.30509" lon="-3.00868">
        <ele>25</ele>
        <time>2021-10-28 08:22:51</time>
      </trkpt>
      <trkpt lat="43.30513" lon="-3.00872">
        <ele>25.2</ele>
        <time>2021-10-28 08:22:52</time>
      </trkpt>
      <trkpt lat="43.30518" lon="-3.00877">
        <ele>25.4</ele>
        <time>2021-10-28 08:22:53</time>
      </trkpt>
      <trkpt lat="43.3053" lon="-3.00887">
        <ele>25.8</ele>
        <time>2021-10-28 08:22:54</time>
      </trkpt>
      <trkpt lat="43.3053" lon="-3.00887">
        <ele>26.2</ele>
        <time>2021-10-28 08:22:55</time>
      </trkpt>
      <trkpt lat="43.3054" lon="-3.00892">
        <ele>26.4</ele>
        <time>2021-10-28 08:22:56</time>
      </trkpt>
      <trkpt lat="43.3054" lon="-3.00892">
        <ele>26.8</ele>
        <time>2021-10-28 08:22:57</time>
      </trkpt>
      <trkpt lat="43.30547" lon="-3.00902">
        <ele>27</ele>
        <time>2021-10-28 08:22:58</time>
      </trkpt>
      <trkpt lat="43.30547" lon="-3.00902">
        <ele>27.2</ele>
        <time>2021-10-28 08:22:59</time>
      </trkpt>
      <trkpt lat="43.30547" lon="-3.00902">
        <ele>27.4</ele>
        <time>2021-10-28 08:23:00</time>
      </trkpt>
      <trkpt lat="43.30551" lon="-3.00912">
        <ele>27.4</ele>
        <time>2021-10-28 08:23:01</time>
      </trkpt>
      <trkpt lat="43.30549" lon="-3.00922">
        <ele>27.6</ele>
        <time>2021-10-28 08:23:02</time>
      </trkpt>
      <trkpt lat="43.3055" lon="-3.00927">
        <ele>27.6</ele>
        <time>2021-10-28 08:23:03</time>
      </trkpt>
      <trkpt lat="43.30548" lon="-3.00931">
        <ele>27.4</ele>
        <time>2021-10-28 08:23:04</time>
      </trkpt>
      <trkpt lat="43.30538" lon="-3.00936">
        <ele>27.2</ele>
        <time>2021-10-28 08:23:05</time>
      </trkpt>
      <trkpt lat="43.30538" lon="-3.00936">
        <ele>27</ele>
        <time>2021-10-28 08:23:06</time>
      </trkpt>
      <trkpt lat="43.30527" lon="-3.00946">
        <ele>26.4</ele>
        <time>2021-10-28 08:23:07</time>
      </trkpt>
      <trkpt lat="43.30527" lon="-3.00946">
        <ele>26</ele>
        <time>2021-10-28 08:23:08</time>
      </trkpt>
      <trkpt lat="43.30527" lon="-3.00946">
        <ele>25.2</ele>
        <time>2021-10-28 08:23:09</time>
      </trkpt>
      <trkpt lat="43.30515" lon="-3.00961">
        <ele>24.6</ele>
        <time>2021-10-28 08:23:10</time>
      </trkpt>
      <trkpt lat="43.30512" lon="-3.00965">
        <ele>24</ele>
        <time>2021-10-28 08:23:11</time>
      </trkpt>
      <trkpt lat="43.30512" lon="-3.00965">
        <ele>23.4</ele>
        <time>2021-10-28 08:23:12</time>
      </trkpt>
      <trkpt lat="43.30502" lon="-3.00976">
        <ele>22.8</ele>
        <time>2021-10-28 08:23:13</time>
      </trkpt>
      <trkpt lat="43.30501" lon="-3.00982">
        <ele>22.2</ele>
        <time>2021-10-28 08:23:14</time>
      </trkpt>
      <trkpt lat="43.30501" lon="-3.00982">
        <ele>21.6</ele>
        <time>2021-10-28 08:23:15</time>
      </trkpt>
      <trkpt lat="43.305" lon="-3.00994">
        <ele>21</ele>
        <time>2021-10-28 08:23:16</time>
      </trkpt>
      <trkpt lat="43.305" lon="-3.00994">
        <ele>20.6</ele>
        <time>2021-10-28 08:23:17</time>
      </trkpt>
      <trkpt lat="43.30502" lon="-3.01001">
        <ele>20</ele>
        <time>2021-10-28 08:23:18</time>
      </trkpt>
      <trkpt lat="43.30513" lon="-3.01012">
        <ele>19.6</ele>
        <time>2021-10-28 08:23:19</time>
      </trkpt>
      <trkpt lat="43.30519" lon="-3.01018">
        <ele>19</ele>
        <time>2021-10-28 08:23:20</time>
      </trkpt>
      <trkpt lat="43.30519" lon="-3.01018">
        <ele>18.6</ele>
        <time>2021-10-28 08:23:21</time>
      </trkpt>
      <trkpt lat="43.3053" lon="-3.01034">
        <ele>18.2</ele>
        <time>2021-10-28 08:23:22</time>
      </trkpt>
      <trkpt lat="43.30534" lon="-3.01041">
        <ele>17.8</ele>
        <time>2021-10-28 08:23:23</time>
      </trkpt>
      <trkpt lat="43.30538" lon="-3.01049">
        <ele>17.6</ele>
        <time>2021-10-28 08:23:24</time>
      </trkpt>
      <trkpt lat="43.30538" lon="-3.01049">
        <ele>17.6</ele>
        <time>2021-10-28 08:23:25</time>
      </trkpt>
      <trkpt lat="43.30551" lon="-3.01058">
        <ele>17.6</ele>
        <time>2021-10-28 08:23:26</time>
      </trkpt>
      <trkpt lat="43.30551" lon="-3.01058">
        <ele>17.6</ele>
        <time>2021-10-28 08:23:27</time>
      </trkpt>
      <trkpt lat="43.30551" lon="-3.01058">
        <ele>17.6</ele>
        <time>2021-10-28 08:23:28</time>
      </trkpt>
      <trkpt lat="43.30567" lon="-3.01074">
        <ele>17.8</ele>
        <time>2021-10-28 08:23:29</time>
      </trkpt>
      <trkpt lat="43.30567" lon="-3.01074">
        <ele>18</ele>
        <time>2021-10-28 08:23:30</time>
      </trkpt>
      <trkpt lat="43.30576" lon="-3.01085">
        <ele>18</ele>
        <time>2021-10-28 08:23:31</time>
      </trkpt>
      <trkpt lat="43.30581" lon="-3.01091">
        <ele>18.2</ele>
        <time>2021-10-28 08:23:32</time>
      </trkpt>
      <trkpt lat="43.30581" lon="-3.01091">
        <ele>18.2</ele>
        <time>2021-10-28 08:23:33</time>
      </trkpt>
      <trkpt lat="43.30586" lon="-3.01097">
        <ele>18.2</ele>
        <time>2021-10-28 08:23:34</time>
      </trkpt>
      <trkpt lat="43.3059" lon="-3.01111">
        <ele>18.2</ele>
        <time>2021-10-28 08:23:35</time>
      </trkpt>
      <trkpt lat="43.30593" lon="-3.01118">
        <ele>18.4</ele>
        <time>2021-10-28 08:23:36</time>
      </trkpt>
      <trkpt lat="43.30593" lon="-3.01118">
        <ele>18.4</ele>
        <time>2021-10-28 08:23:37</time>
      </trkpt>
      <trkpt lat="43.30597" lon="-3.01133">
        <ele>18.4</ele>
        <time>2021-10-28 08:23:38</time>
      </trkpt>
      <trkpt lat="43.30597" lon="-3.01133">
        <ele>18.4</ele>
        <time>2021-10-28 08:23:39</time>
      </trkpt>
      <trkpt lat="43.30603" lon="-3.01147">
        <ele>18.4</ele>
        <time>2021-10-28 08:23:40</time>
      </trkpt>
      <trkpt lat="43.30603" lon="-3.01147">
        <ele>18.4</ele>
        <time>2021-10-28 08:23:41</time>
      </trkpt>
      <trkpt lat="43.30605" lon="-3.01152">
        <ele>18.4</ele>
        <time>2021-10-28 08:23:42</time>
      </trkpt>
      <trkpt lat="43.30607" lon="-3.01161">
        <ele>18.4</ele>
        <time>2021-10-28 08:23:43</time>
      </trkpt>
      <trkpt lat="43.30608" lon="-3.01169">
        <ele>18.4</ele>
        <time>2021-10-28 08:23:44</time>
      </trkpt>
      <trkpt lat="43.30613" lon="-3.01184">
        <ele>18.4</ele>
        <time>2021-10-28 08:23:45</time>
      </trkpt>
      <trkpt lat="43.30613" lon="-3.01184">
        <ele>18.4</ele>
        <time>2021-10-28 08:23:46</time>
      </trkpt>
      <trkpt lat="43.30615" lon="-3.01203">
        <ele>18.4</ele>
        <time>2021-10-28 08:23:47</time>
      </trkpt>
      <trkpt lat="43.30615" lon="-3.01203">
        <ele>18.4</ele>
        <time>2021-10-28 08:23:48</time>
      </trkpt>
      <trkpt lat="43.30617" lon="-3.01215">
        <ele>18.4</ele>
        <time>2021-10-28 08:23:49</time>
      </trkpt>
      <trkpt lat="43.30617" lon="-3.01215">
        <ele>18.4</ele>
        <time>2021-10-28 08:23:50</time>
      </trkpt>
      <trkpt lat="43.30619" lon="-3.01223">
        <ele>18.4</ele>
        <time>2021-10-28 08:23:51</time>
      </trkpt>
      <trkpt lat="43.30623" lon="-3.01236">
        <ele>18.4</ele>
        <time>2021-10-28 08:23:52</time>
      </trkpt>
      <trkpt lat="43.30625" lon="-3.01241">
        <ele>18.4</ele>
        <time>2021-10-28 08:23:53</time>
      </trkpt>
      <trkpt lat="43.30625" lon="-3.01241">
        <ele>18.4</ele>
        <time>2021-10-28 08:23:54</time>
      </trkpt>
      <trkpt lat="43.30625" lon="-3.01241">
        <ele>18.4</ele>
        <time>2021-10-28 08:23:55</time>
      </trkpt>
      <trkpt lat="43.30631" lon="-3.01261">
        <ele>18.6</ele>
        <time>2021-10-28 08:23:56</time>
      </trkpt>
      <trkpt lat="43.30631" lon="-3.01261">
        <ele>18.6</ele>
        <time>2021-10-28 08:23:57</time>
      </trkpt>
      <trkpt lat="43.30633" lon="-3.01266">
        <ele>18.6</ele>
        <time>2021-10-28 08:23:58</time>
      </trkpt>
      <trkpt lat="43.30635" lon="-3.01279">
        <ele>18.8</ele>
        <time>2021-10-28 08:23:59</time>
      </trkpt>
      <trkpt lat="43.30635" lon="-3.01279">
        <ele>18.8</ele>
        <time>2021-10-28 08:24:00</time>
      </trkpt>
      <trkpt lat="43.30638" lon="-3.01284">
        <ele>18.8</ele>
        <time>2021-10-28 08:24:01</time>
      </trkpt>
      <trkpt lat="43.3064" lon="-3.01291">
        <ele>18.8</ele>
        <time>2021-10-28 08:24:02</time>
      </trkpt>
      <trkpt lat="43.30645" lon="-3.01301">
        <ele>19</ele>
        <time>2021-10-28 08:24:03</time>
      </trkpt>
      <trkpt lat="43.30645" lon="-3.01301">
        <ele>19</ele>
        <time>2021-10-28 08:24:04</time>
      </trkpt>
      <trkpt lat="43.30651" lon="-3.01312">
        <ele>19</ele>
        <time>2021-10-28 08:24:05</time>
      </trkpt>
      <trkpt lat="43.30651" lon="-3.01312">
        <ele>19</ele>
        <time>2021-10-28 08:24:06</time>
      </trkpt>
      <trkpt lat="43.30657" lon="-3.01322">
        <ele>19</ele>
        <time>2021-10-28 08:24:07</time>
      </trkpt>
      <trkpt lat="43.30657" lon="-3.01322">
        <ele>19</ele>
        <time>2021-10-28 08:24:08</time>
      </trkpt>
      <trkpt lat="43.30659" lon="-3.01336">
        <ele>19</ele>
        <time>2021-10-28 08:24:09</time>
      </trkpt>
      <trkpt lat="43.30659" lon="-3.01336">
        <ele>19</ele>
        <time>2021-10-28 08:24:10</time>
      </trkpt>
      <trkpt lat="43.30661" lon="-3.01343">
        <ele>19.2</ele>
        <time>2021-10-28 08:24:11</time>
      </trkpt>
      <trkpt lat="43.30664" lon="-3.01349">
        <ele>19.2</ele>
        <time>2021-10-28 08:24:12</time>
      </trkpt>
      <trkpt lat="43.30669" lon="-3.01359">
        <ele>19.2</ele>
        <time>2021-10-28 08:24:13</time>
      </trkpt>
      <trkpt lat="43.30672" lon="-3.01364">
        <ele>19.2</ele>
        <time>2021-10-28 08:24:14</time>
      </trkpt>
      <trkpt lat="43.30674" lon="-3.01372">
        <ele>19.2</ele>
        <time>2021-10-28 08:24:15</time>
      </trkpt>
      <trkpt lat="43.30674" lon="-3.01372">
        <ele>19.2</ele>
        <time>2021-10-28 08:24:16</time>
      </trkpt>
      <trkpt lat="43.30677" lon="-3.01386">
        <ele>19.2</ele>
        <time>2021-10-28 08:24:17</time>
      </trkpt>
      <trkpt lat="43.30677" lon="-3.01386">
        <ele>19.2</ele>
        <time>2021-10-28 08:24:18</time>
      </trkpt>
      <trkpt lat="43.30677" lon="-3.01395">
        <ele>19.4</ele>
        <time>2021-10-28 08:24:19</time>
      </trkpt>
      <trkpt lat="43.3068" lon="-3.01401">
        <ele>19.4</ele>
        <time>2021-10-28 08:24:20</time>
      </trkpt>
      <trkpt lat="43.30683" lon="-3.01411">
        <ele>19.6</ele>
        <time>2021-10-28 08:24:21</time>
      </trkpt>
      <trkpt lat="43.30683" lon="-3.01411">
        <ele>19.8</ele>
        <time>2021-10-28 08:24:22</time>
      </trkpt>
      <trkpt lat="43.30686" lon="-3.01424">
        <ele>20</ele>
        <time>2021-10-28 08:24:23</time>
      </trkpt>
      <trkpt lat="43.30686" lon="-3.01424">
        <ele>20</ele>
        <time>2021-10-28 08:24:24</time>
      </trkpt>
      <trkpt lat="43.30691" lon="-3.01435">
        <ele>20.2</ele>
        <time>2021-10-28 08:24:25</time>
      </trkpt>
      <trkpt lat="43.30691" lon="-3.01435">
        <ele>20.4</ele>
        <time>2021-10-28 08:24:26</time>
      </trkpt>
      <trkpt lat="43.30696" lon="-3.01439">
        <ele>20.6</ele>
        <time>2021-10-28 08:24:27</time>
      </trkpt>
      <trkpt lat="43.30702" lon="-3.01448">
        <ele>20.6</ele>
        <time>2021-10-28 08:24:28</time>
      </trkpt>
      <trkpt lat="43.30705" lon="-3.01454">
        <ele>20.8</ele>
        <time>2021-10-28 08:24:29</time>
      </trkpt>
      <trkpt lat="43.30705" lon="-3.01454">
        <ele>20.8</ele>
        <time>2021-10-28 08:24:30</time>
      </trkpt>
      <trkpt lat="43.3071" lon="-3.01458">
        <ele>20.8</ele>
        <time>2021-10-28 08:24:31</time>
      </trkpt>
      <trkpt lat="43.30714" lon="-3.01466">
        <ele>20.8</ele>
        <time>2021-10-28 08:24:32</time>
      </trkpt>
      <trkpt lat="43.30714" lon="-3.01466">
        <ele>21</ele>
        <time>2021-10-28 08:24:33</time>
      </trkpt>
      <trkpt lat="43.30722" lon="-3.01473">
        <ele>21</ele>
        <time>2021-10-28 08:24:34</time>
      </trkpt>
      <trkpt lat="43.30728" lon="-3.01476">
        <ele>21</ele>
        <time>2021-10-28 08:24:35</time>
      </trkpt>
      <trkpt lat="43.30728" lon="-3.01476">
        <ele>21.2</ele>
        <time>2021-10-28 08:24:36</time>
      </trkpt>
      <trkpt lat="43.30733" lon="-3.01478">
        <ele>21.2</ele>
        <time>2021-10-28 08:24:37</time>
      </trkpt>
      <trkpt lat="43.30741" lon="-3.01486">
        <ele>21.2</ele>
        <time>2021-10-28 08:24:38</time>
      </trkpt>
      <trkpt lat="43.30741" lon="-3.01486">
        <ele>21.2</ele>
        <time>2021-10-28 08:24:39</time>
      </trkpt>
      <trkpt lat="43.3074" lon="-3.01507">
        <ele>21.2</ele>
        <time>2021-10-28 08:24:40</time>
      </trkpt>
      <trkpt lat="43.3074" lon="-3.01507">
        <ele>21.4</ele>
        <time>2021-10-28 08:24:41</time>
      </trkpt>
      <trkpt lat="43.30738" lon="-3.01513">
        <ele>21.4</ele>
        <time>2021-10-28 08:24:42</time>
      </trkpt>
      <trkpt lat="43.30737" lon="-3.01526">
        <ele>21.4</ele>
        <time>2021-10-28 08:24:43</time>
      </trkpt>
      <trkpt lat="43.30737" lon="-3.01526">
        <ele>21.6</ele>
        <time>2021-10-28 08:24:44</time>
      </trkpt>
      <trkpt lat="43.30735" lon="-3.01532">
        <ele>21.8</ele>
        <time>2021-10-28 08:24:45</time>
      </trkpt>
      <trkpt lat="43.30731" lon="-3.0154">
        <ele>22</ele>
        <time>2021-10-28 08:24:46</time>
      </trkpt>
      <trkpt lat="43.30731" lon="-3.0154">
        <ele>22.2</ele>
        <time>2021-10-28 08:24:47</time>
      </trkpt>
      <trkpt lat="43.30728" lon="-3.01542">
        <ele>22.6</ele>
        <time>2021-10-28 08:24:48</time>
      </trkpt>
      <trkpt lat="43.30722" lon="-3.01548">
        <ele>22.8</ele>
        <time>2021-10-28 08:24:49</time>
      </trkpt>
      <trkpt lat="43.30722" lon="-3.01548">
        <ele>23.2</ele>
        <time>2021-10-28 08:24:50</time>
      </trkpt>
      <trkpt lat="43.30716" lon="-3.01551">
        <ele>23.4</ele>
        <time>2021-10-28 08:24:51</time>
      </trkpt>
      <trkpt lat="43.30707" lon="-3.01553">
        <ele>23.6</ele>
        <time>2021-10-28 08:24:52</time>
      </trkpt>
      <trkpt lat="43.30703" lon="-3.01556">
        <ele>23.8</ele>
        <time>2021-10-28 08:24:53</time>
      </trkpt>
      <trkpt lat="43.30703" lon="-3.01556">
        <ele>24.2</ele>
        <time>2021-10-28 08:24:54</time>
      </trkpt>
      <trkpt lat="43.30695" lon="-3.0156">
        <ele>24.4</ele>
        <time>2021-10-28 08:24:55</time>
      </trkpt>
      <trkpt lat="43.30692" lon="-3.01567">
        <ele>24.6</ele>
        <time>2021-10-28 08:24:56</time>
      </trkpt>
      <trkpt lat="43.30692" lon="-3.01567">
        <ele>25</ele>
        <time>2021-10-28 08:24:57</time>
      </trkpt>
      <trkpt lat="43.30691" lon="-3.01577">
        <ele>25.2</ele>
        <time>2021-10-28 08:24:58</time>
      </trkpt>
      <trkpt lat="43.30691" lon="-3.01577">
        <ele>25.6</ele>
        <time>2021-10-28 08:24:59</time>
      </trkpt>
      <trkpt lat="43.30691" lon="-3.01593">
        <ele>25.8</ele>
        <time>2021-10-28 08:25:00</time>
      </trkpt>
      <trkpt lat="43.30692" lon="-3.01599">
        <ele>26.2</ele>
        <time>2021-10-28 08:25:01</time>
      </trkpt>
      <trkpt lat="43.30694" lon="-3.01604">
        <ele>26.4</ele>
        <time>2021-10-28 08:25:02</time>
      </trkpt>
      <trkpt lat="43.30694" lon="-3.01604">
        <ele>26.6</ele>
        <time>2021-10-28 08:25:03</time>
      </trkpt>
      <trkpt lat="43.30697" lon="-3.01608">
        <ele>27</ele>
        <time>2021-10-28 08:25:04</time>
      </trkpt>
      <trkpt lat="43.30701" lon="-3.01611">
        <ele>27.2</ele>
        <time>2021-10-28 08:25:05</time>
      </trkpt>
      <trkpt lat="43.30705" lon="-3.01615">
        <ele>27.6</ele>
        <time>2021-10-28 08:25:06</time>
      </trkpt>
      <trkpt lat="43.30708" lon="-3.01618">
        <ele>27.6</ele>
        <time>2021-10-28 08:25:07</time>
      </trkpt>
      <trkpt lat="43.30716" lon="-3.01625">
        <ele>27.8</ele>
        <time>2021-10-28 08:25:08</time>
      </trkpt>
      <trkpt lat="43.30719" lon="-3.0163">
        <ele>27.8</ele>
        <time>2021-10-28 08:25:09</time>
      </trkpt>
      <trkpt lat="43.30719" lon="-3.0163">
        <ele>28</ele>
        <time>2021-10-28 08:25:10</time>
      </trkpt>
      <trkpt lat="43.30722" lon="-3.01634">
        <ele>28.2</ele>
        <time>2021-10-28 08:25:11</time>
      </trkpt>
      <trkpt lat="43.30725" lon="-3.0164">
        <ele>28.2</ele>
        <time>2021-10-28 08:25:12</time>
      </trkpt>
      <trkpt lat="43.30728" lon="-3.01644">
        <ele>28.4</ele>
        <time>2021-10-28 08:25:13</time>
      </trkpt>
      <trkpt lat="43.30731" lon="-3.01654">
        <ele>28.6</ele>
        <time>2021-10-28 08:25:14</time>
      </trkpt>
      <trkpt lat="43.30731" lon="-3.01654">
        <ele>28.8</ele>
        <time>2021-10-28 08:25:15</time>
      </trkpt>
      <trkpt lat="43.30734" lon="-3.01661">
        <ele>28.8</ele>
        <time>2021-10-28 08:25:16</time>
      </trkpt>
      <trkpt lat="43.30735" lon="-3.01671">
        <ele>29</ele>
        <time>2021-10-28 08:25:17</time>
      </trkpt>
      <trkpt lat="43.30735" lon="-3.01671">
        <ele>29.2</ele>
        <time>2021-10-28 08:25:18</time>
      </trkpt>
      <trkpt lat="43.3074" lon="-3.01683">
        <ele>29.4</ele>
        <time>2021-10-28 08:25:19</time>
      </trkpt>
      <trkpt lat="43.3074" lon="-3.01683">
        <ele>29.4</ele>
        <time>2021-10-28 08:25:20</time>
      </trkpt>
      <trkpt lat="43.30746" lon="-3.01694">
        <ele>29.6</ele>
        <time>2021-10-28 08:25:21</time>
      </trkpt>
      <trkpt lat="43.30746" lon="-3.01694">
        <ele>29.8</ele>
        <time>2021-10-28 08:25:22</time>
      </trkpt>
      <trkpt lat="43.30753" lon="-3.01703">
        <ele>29.8</ele>
        <time>2021-10-28 08:25:23</time>
      </trkpt>
      <trkpt lat="43.30753" lon="-3.01703">
        <ele>30</ele>
        <time>2021-10-28 08:25:24</time>
      </trkpt>
      <trkpt lat="43.30757" lon="-3.01712">
        <ele>30.2</ele>
        <time>2021-10-28 08:25:25</time>
      </trkpt>
      <trkpt lat="43.30757" lon="-3.01712">
        <ele>30.4</ele>
        <time>2021-10-28 08:25:26</time>
      </trkpt>
      <trkpt lat="43.30758" lon="-3.01726">
        <ele>30.6</ele>
        <time>2021-10-28 08:25:27</time>
      </trkpt>
      <trkpt lat="43.30758" lon="-3.01726">
        <ele>30.6</ele>
        <time>2021-10-28 08:25:28</time>
      </trkpt>
      <trkpt lat="43.30763" lon="-3.01737">
        <ele>30.8</ele>
        <time>2021-10-28 08:25:29</time>
      </trkpt>
      <trkpt lat="43.30763" lon="-3.01737">
        <ele>30.8</ele>
        <time>2021-10-28 08:25:30</time>
      </trkpt>
      <trkpt lat="43.30763" lon="-3.01737">
        <ele>30.8</ele>
        <time>2021-10-28 08:25:31</time>
      </trkpt>
      <trkpt lat="43.30768" lon="-3.01758">
        <ele>31.8</ele>
        <time>2021-10-28 08:25:34</time>
      </trkpt>
      <trkpt lat="43.30774" lon="-3.01777">
        <ele>33</ele>
        <time>2021-10-28 08:25:36</time>
      </trkpt>
      <trkpt lat="43.30774" lon="-3.01777">
        <ele>32.6</ele>
        <time>2021-10-28 08:25:37</time>
      </trkpt>
      <trkpt lat="43.30775" lon="-3.01784">
        <ele>32.6</ele>
        <time>2021-10-28 08:25:38</time>
      </trkpt>
      <trkpt lat="43.30777" lon="-3.01795">
        <ele>32.6</ele>
        <time>2021-10-28 08:25:40</time>
      </trkpt>
      <trkpt lat="43.30777" lon="-3.01795">
        <ele>33</ele>
        <time>2021-10-28 08:25:41</time>
      </trkpt>
      <trkpt lat="43.3078" lon="-3.01821">
        <ele>33.2</ele>
        <time>2021-10-28 08:25:44</time>
      </trkpt>
      <trkpt lat="43.30782" lon="-3.01827">
        <ele>34</ele>
        <time>2021-10-28 08:25:45</time>
      </trkpt>
      <trkpt lat="43.30784" lon="-3.01839">
        <ele>34</ele>
        <time>2021-10-28 08:25:47</time>
      </trkpt>
      <trkpt lat="43.30784" lon="-3.01839">
        <ele>34.6</ele>
        <time>2021-10-28 08:25:48</time>
      </trkpt>
      <trkpt lat="43.30784" lon="-3.01839">
        <ele>34.6</ele>
        <time>2021-10-28 08:25:51</time>
      </trkpt>
      <trkpt lat="43.30793" lon="-3.01869">
        <ele>35.2</ele>
        <time>2021-10-28 08:25:52</time>
      </trkpt>
      <trkpt lat="43.30794" lon="-3.01883">
        <ele>35.2</ele>
        <time>2021-10-28 08:25:54</time>
      </trkpt>
      <trkpt lat="43.30794" lon="-3.01883">
        <ele>35.6</ele>
        <time>2021-10-28 08:25:55</time>
      </trkpt>
      <trkpt lat="43.30793" lon="-3.01902">
        <ele>35.6</ele>
        <time>2021-10-28 08:25:58</time>
      </trkpt>
      <trkpt lat="43.30797" lon="-3.01913">
        <ele>35.8</ele>
        <time>2021-10-28 08:25:59</time>
      </trkpt>
      <trkpt lat="43.308" lon="-3.01925">
        <ele>36</ele>
        <time>2021-10-28 08:26:02</time>
      </trkpt>
      <trkpt lat="43.308" lon="-3.01925">
        <ele>36.2</ele>
        <time>2021-10-28 08:26:03</time>
      </trkpt>
      <trkpt lat="43.30805" lon="-3.01952">
        <ele>36.2</ele>
        <time>2021-10-28 08:26:05</time>
      </trkpt>
      <trkpt lat="43.30805" lon="-3.01952">
        <ele>36.4</ele>
        <time>2021-10-28 08:26:06</time>
      </trkpt>
      <trkpt lat="43.30809" lon="-3.0196">
        <ele>36.6</ele>
        <time>2021-10-28 08:26:07</time>
      </trkpt>
      <trkpt lat="43.30811" lon="-3.01965">
        <ele>36.6</ele>
        <time>2021-10-28 08:26:09</time>
      </trkpt>
      <trkpt lat="43.30811" lon="-3.01965">
        <ele>36.6</ele>
        <time>2021-10-28 08:26:10</time>
      </trkpt>
      <trkpt lat="43.30816" lon="-3.01988">
        <ele>36.6</ele>
        <time>2021-10-28 08:26:13</time>
      </trkpt>
      <trkpt lat="43.30817" lon="-3.01995">
        <ele>36.6</ele>
        <time>2021-10-28 08:26:14</time>
      </trkpt>
      <trkpt lat="43.30819" lon="-3.02017">
        <ele>36.6</ele>
        <time>2021-10-28 08:26:16</time>
      </trkpt>
      <trkpt lat="43.30819" lon="-3.02017">
        <ele>36.8</ele>
        <time>2021-10-28 08:26:17</time>
      </trkpt>
      <trkpt lat="43.30823" lon="-3.02036">
        <ele>36.8</ele>
        <time>2021-10-28 08:26:20</time>
      </trkpt>
      <trkpt lat="43.30825" lon="-3.02049">
        <ele>37</ele>
        <time>2021-10-28 08:26:21</time>
      </trkpt>
      <trkpt lat="43.3083" lon="-3.0206">
        <ele>37</ele>
        <time>2021-10-28 08:26:23</time>
      </trkpt>
      <trkpt lat="43.3083" lon="-3.0206">
        <ele>37.2</ele>
        <time>2021-10-28 08:26:24</time>
      </trkpt>
      <trkpt lat="43.30832" lon="-3.02072">
        <ele>37.4</ele>
        <time>2021-10-28 08:26:25</time>
      </trkpt>
      <trkpt lat="43.30833" lon="-3.02079">
        <ele>37.4</ele>
        <time>2021-10-28 08:26:27</time>
      </trkpt>
      <trkpt lat="43.30837" lon="-3.02089">
        <ele>37.6</ele>
        <time>2021-10-28 08:26:28</time>
      </trkpt>
      <trkpt lat="43.30837" lon="-3.02104">
        <ele>37.6</ele>
        <time>2021-10-28 08:26:31</time>
      </trkpt>
      <trkpt lat="43.3084" lon="-3.02115">
        <ele>37.8</ele>
        <time>2021-10-28 08:26:32</time>
      </trkpt>
      <trkpt lat="43.30845" lon="-3.02125">
        <ele>37.8</ele>
        <time>2021-10-28 08:26:34</time>
      </trkpt>
      <trkpt lat="43.30845" lon="-3.02125">
        <ele>37.8</ele>
        <time>2021-10-28 08:26:35</time>
      </trkpt>
      <trkpt lat="43.3085" lon="-3.02144">
        <ele>37.8</ele>
        <time>2021-10-28 08:26:38</time>
      </trkpt>
      <trkpt lat="43.3085" lon="-3.02144">
        <ele>38.2</ele>
        <time>2021-10-28 08:26:39</time>
      </trkpt>
      <trkpt lat="43.30853" lon="-3.02166">
        <ele>38.2</ele>
        <time>2021-10-28 08:26:41</time>
      </trkpt>
      <trkpt lat="43.30856" lon="-3.02173">
        <ele>38.4</ele>
        <time>2021-10-28 08:26:42</time>
      </trkpt>
      <trkpt lat="43.30862" lon="-3.0219">
        <ele>38.4</ele>
        <time>2021-10-28 08:26:44</time>
      </trkpt>
      <trkpt lat="43.30863" lon="-3.02196">
        <ele>38.4</ele>
        <time>2021-10-28 08:26:45</time>
      </trkpt>
      <trkpt lat="43.30863" lon="-3.02196">
        <ele>38.6</ele>
        <time>2021-10-28 08:26:46</time>
      </trkpt>
      <trkpt lat="43.30869" lon="-3.02207">
        <ele>38.6</ele>
        <time>2021-10-28 08:26:48</time>
      </trkpt>
      <trkpt lat="43.30869" lon="-3.02207">
        <ele>38.8</ele>
        <time>2021-10-28 08:26:49</time>
      </trkpt>
      <trkpt lat="43.30884" lon="-3.02227">
        <ele>38.8</ele>
        <time>2021-10-28 08:26:51</time>
      </trkpt>
      <trkpt lat="43.30884" lon="-3.02227">
        <ele>39</ele>
        <time>2021-10-28 08:26:52</time>
      </trkpt>
      <trkpt lat="43.30891" lon="-3.02244">
        <ele>39</ele>
        <time>2021-10-28 08:26:55</time>
      </trkpt>
      <trkpt lat="43.30892" lon="-3.02252">
        <ele>39.2</ele>
        <time>2021-10-28 08:26:56</time>
      </trkpt>
      <trkpt lat="43.30895" lon="-3.02265">
        <ele>39.2</ele>
        <time>2021-10-28 08:26:58</time>
      </trkpt>
      <trkpt lat="43.30898" lon="-3.02272">
        <ele>39.4</ele>
        <time>2021-10-28 08:26:59</time>
      </trkpt>
      <trkpt lat="43.30898" lon="-3.02272">
        <ele>39.4</ele>
        <time>2021-10-28 08:27:01</time>
      </trkpt>
      <trkpt lat="43.3091" lon="-3.02292">
        <ele>39.6</ele>
        <time>2021-10-28 08:27:02</time>
      </trkpt>
      <trkpt lat="43.3091" lon="-3.02292">
        <ele>39.6</ele>
        <time>2021-10-28 08:27:03</time>
      </trkpt>
      <trkpt lat="43.30913" lon="-3.02303">
        <ele>39.6</ele>
        <time>2021-10-28 08:27:05</time>
      </trkpt>
      <trkpt lat="43.30919" lon="-3.02314">
        <ele>39.6</ele>
        <time>2021-10-28 08:27:06</time>
      </trkpt>
      <trkpt lat="43.30925" lon="-3.02327">
        <ele>39.8</ele>
        <time>2021-10-28 08:27:08</time>
      </trkpt>
      <trkpt lat="43.30925" lon="-3.02327">
        <ele>39.8</ele>
        <time>2021-10-28 08:27:09</time>
      </trkpt>
      <trkpt lat="43.30935" lon="-3.02343">
        <ele>40</ele>
        <time>2021-10-28 08:27:12</time>
      </trkpt>
      <trkpt lat="43.30937" lon="-3.0235">
        <ele>40.4</ele>
        <time>2021-10-28 08:27:13</time>
      </trkpt>
      <trkpt lat="43.30943" lon="-3.02361">
        <ele>40.6</ele>
        <time>2021-10-28 08:27:15</time>
      </trkpt>
      <trkpt lat="43.30949" lon="-3.0237">
        <ele>40.6</ele>
        <time>2021-10-28 08:27:16</time>
      </trkpt>
      <trkpt lat="43.30954" lon="-3.02382">
        <ele>40.8</ele>
        <time>2021-10-28 08:27:18</time>
      </trkpt>
      <trkpt lat="43.30959" lon="-3.02386">
        <ele>40.8</ele>
        <time>2021-10-28 08:27:19</time>
      </trkpt>
      <trkpt lat="43.30959" lon="-3.02386">
        <ele>41</ele>
        <time>2021-10-28 08:27:20</time>
      </trkpt>
      <trkpt lat="43.30965" lon="-3.02396">
        <ele>41</ele>
        <time>2021-10-28 08:27:22</time>
      </trkpt>
      <trkpt lat="43.30965" lon="-3.02403">
        <ele>41.2</ele>
        <time>2021-10-28 08:27:23</time>
      </trkpt>
      <trkpt lat="43.30974" lon="-3.02415">
        <ele>41.2</ele>
        <time>2021-10-28 08:27:25</time>
      </trkpt>
      <trkpt lat="43.30974" lon="-3.02415">
        <ele>41.4</ele>
        <time>2021-10-28 08:27:26</time>
      </trkpt>
      <trkpt lat="43.30988" lon="-3.02428">
        <ele>41.4</ele>
        <time>2021-10-28 08:27:29</time>
      </trkpt>
      <trkpt lat="43.30995" lon="-3.02437">
        <ele>41.6</ele>
        <time>2021-10-28 08:27:30</time>
      </trkpt>
      <trkpt lat="43.30996" lon="-3.02443">
        <ele>41.8</ele>
        <time>2021-10-28 08:27:32</time>
      </trkpt>
      <trkpt lat="43.31" lon="-3.0245">
        <ele>42</ele>
        <time>2021-10-28 08:27:33</time>
      </trkpt>
      <trkpt lat="43.31" lon="-3.0245">
        <ele>42</ele>
        <time>2021-10-28 08:27:35</time>
      </trkpt>
      <trkpt lat="43.31" lon="-3.0245">
        <ele>42.2</ele>
        <time>2021-10-28 08:27:36</time>
      </trkpt>
      <trkpt lat="43.31015" lon="-3.02472">
        <ele>42.2</ele>
        <time>2021-10-28 08:27:37</time>
      </trkpt>
      <trkpt lat="43.31019" lon="-3.02484">
        <ele>42.4</ele>
        <time>2021-10-28 08:27:39</time>
      </trkpt>
      <trkpt lat="43.31026" lon="-3.02495">
        <ele>42.6</ele>
        <time>2021-10-28 08:27:40</time>
      </trkpt>
      <trkpt lat="43.31032" lon="-3.02504">
        <ele>42.6</ele>
        <time>2021-10-28 08:27:43</time>
      </trkpt>
      <trkpt lat="43.31036" lon="-3.0251">
        <ele>43</ele>
        <time>2021-10-28 08:27:44</time>
      </trkpt>
      <trkpt lat="43.31045" lon="-3.02517">
        <ele>43</ele>
        <time>2021-10-28 08:27:46</time>
      </trkpt>
      <trkpt lat="43.31051" lon="-3.02528">
        <ele>43</ele>
        <time>2021-10-28 08:27:47</time>
      </trkpt>
      <trkpt lat="43.31059" lon="-3.02537">
        <ele>43.2</ele>
        <time>2021-10-28 08:27:49</time>
      </trkpt>
      <trkpt lat="43.31059" lon="-3.02537">
        <ele>43.4</ele>
        <time>2021-10-28 08:27:50</time>
      </trkpt>
      <trkpt lat="43.31066" lon="-3.02545">
        <ele>43.6</ele>
        <time>2021-10-28 08:27:51</time>
      </trkpt>
      <trkpt lat="43.31071" lon="-3.02547">
        <ele>43.6</ele>
        <time>2021-10-28 08:27:53</time>
      </trkpt>
      <trkpt lat="43.31071" lon="-3.02547">
        <ele>44</ele>
        <time>2021-10-28 08:27:54</time>
      </trkpt>
      <trkpt lat="43.31085" lon="-3.02556">
        <ele>44.2</ele>
        <time>2021-10-28 08:27:56</time>
      </trkpt>
      <trkpt lat="43.31085" lon="-3.02556">
        <ele>44.6</ele>
        <time>2021-10-28 08:27:57</time>
      </trkpt>
      <trkpt lat="43.31085" lon="-3.02556">
        <ele>44.8</ele>
        <time>2021-10-28 08:27:58</time>
      </trkpt>
      <trkpt lat="43.31099" lon="-3.02564">
        <ele>44.8</ele>
        <time>2021-10-28 08:28:00</time>
      </trkpt>
      <trkpt lat="43.31105" lon="-3.02565">
        <ele>45.2</ele>
        <time>2021-10-28 08:28:01</time>
      </trkpt>
      <trkpt lat="43.31118" lon="-3.02568">
        <ele>45.2</ele>
        <time>2021-10-28 08:28:03</time>
      </trkpt>
      <trkpt lat="43.31118" lon="-3.02568">
        <ele>45.8</ele>
        <time>2021-10-28 08:28:04</time>
      </trkpt>
      <trkpt lat="43.3113" lon="-3.02574">
        <ele>46</ele>
        <time>2021-10-28 08:28:07</time>
      </trkpt>
      <trkpt lat="43.31135" lon="-3.02577">
        <ele>46.6</ele>
        <time>2021-10-28 08:28:08</time>
      </trkpt>
      <trkpt lat="43.31145" lon="-3.02582">
        <ele>46.6</ele>
        <time>2021-10-28 08:28:10</time>
      </trkpt>
      <trkpt lat="43.31152" lon="-3.0259">
        <ele>46.8</ele>
        <time>2021-10-28 08:28:11</time>
      </trkpt>
      <trkpt lat="43.3116" lon="-3.02597">
        <ele>46.8</ele>
        <time>2021-10-28 08:28:13</time>
      </trkpt>
      <trkpt lat="43.3116" lon="-3.02597">
        <ele>47.2</ele>
        <time>2021-10-28 08:28:14</time>
      </trkpt>
      <trkpt lat="43.31168" lon="-3.02603">
        <ele>47.6</ele>
        <time>2021-10-28 08:28:15</time>
      </trkpt>
      <trkpt lat="43.31172" lon="-3.02607">
        <ele>47.8</ele>
        <time>2021-10-28 08:28:17</time>
      </trkpt>
      <trkpt lat="43.3118" lon="-3.02613">
        <ele>48.2</ele>
        <time>2021-10-28 08:28:18</time>
      </trkpt>
      <trkpt lat="43.31186" lon="-3.02622">
        <ele>48.4</ele>
        <time>2021-10-28 08:28:20</time>
      </trkpt>
      <trkpt lat="43.31186" lon="-3.02622">
        <ele>48.8</ele>
        <time>2021-10-28 08:28:21</time>
      </trkpt>
      <trkpt lat="43.31195" lon="-3.02633">
        <ele>49</ele>
        <time>2021-10-28 08:28:24</time>
      </trkpt>
      <trkpt lat="43.31198" lon="-3.02637">
        <ele>49.6</ele>
        <time>2021-10-28 08:28:25</time>
      </trkpt>
      <trkpt lat="43.31204" lon="-3.02644">
        <ele>49.6</ele>
        <time>2021-10-28 08:28:27</time>
      </trkpt>
      <trkpt lat="43.31207" lon="-3.02648">
        <ele>50</ele>
        <time>2021-10-28 08:28:28</time>
      </trkpt>
      <trkpt lat="43.31216" lon="-3.02661">
        <ele>50</ele>
        <time>2021-10-28 08:28:30</time>
      </trkpt>
      <trkpt lat="43.31216" lon="-3.02661">
        <ele>50.2</ele>
        <time>2021-10-28 08:28:31</time>
      </trkpt>
      <trkpt lat="43.31223" lon="-3.02668">
        <ele>50.2</ele>
        <time>2021-10-28 08:28:32</time>
      </trkpt>
      <trkpt lat="43.31225" lon="-3.02673">
        <ele>50.2</ele>
        <time>2021-10-28 08:28:34</time>
      </trkpt>
      <trkpt lat="43.31231" lon="-3.02679">
        <ele>50.2</ele>
        <time>2021-10-28 08:28:35</time>
      </trkpt>
      <trkpt lat="43.31236" lon="-3.02689">
        <ele>50.2</ele>
        <time>2021-10-28 08:28:37</time>
      </trkpt>
      <trkpt lat="43.31236" lon="-3.02689">
        <ele>50</ele>
        <time>2021-10-28 08:28:38</time>
      </trkpt>
      <trkpt lat="43.31239" lon="-3.02693">
        <ele>49.8</ele>
        <time>2021-10-28 08:28:39</time>
      </trkpt>
      <trkpt lat="43.31246" lon="-3.02704">
        <ele>49.8</ele>
        <time>2021-10-28 08:28:41</time>
      </trkpt>
      <trkpt lat="43.31252" lon="-3.02707">
        <ele>49.6</ele>
        <time>2021-10-28 08:28:42</time>
      </trkpt>
      <trkpt lat="43.3126" lon="-3.02719">
        <ele>49.4</ele>
        <time>2021-10-28 08:28:44</time>
      </trkpt>
      <trkpt lat="43.31264" lon="-3.02724">
        <ele>49.2</ele>
        <time>2021-10-28 08:28:45</time>
      </trkpt>
      <trkpt lat="43.31264" lon="-3.02724">
        <ele>49</ele>
        <time>2021-10-28 08:28:47</time>
      </trkpt>
      <trkpt lat="43.31264" lon="-3.02724">
        <ele>48.2</ele>
        <time>2021-10-28 08:28:48</time>
      </trkpt>
      <trkpt lat="43.31264" lon="-3.02724">
        <ele>47.8</ele>
        <time>2021-10-28 08:28:49</time>
      </trkpt>
      <trkpt lat="43.31289" lon="-3.02761">
        <ele>47.8</ele>
        <time>2021-10-28 08:28:51</time>
      </trkpt>
      <trkpt lat="43.31296" lon="-3.02774">
        <ele>47.4</ele>
        <time>2021-10-28 08:28:52</time>
      </trkpt>
      <trkpt lat="43.313" lon="-3.02782">
        <ele>47.4</ele>
        <time>2021-10-28 08:28:54</time>
      </trkpt>
      <trkpt lat="43.31309" lon="-3.02792">
        <ele>47</ele>
        <time>2021-10-28 08:28:55</time>
      </trkpt>
      <trkpt lat="43.31315" lon="-3.028">
        <ele>47</ele>
        <time>2021-10-28 08:28:57</time>
      </trkpt>
      <trkpt lat="43.31315" lon="-3.028">
        <ele>46.6</ele>
        <time>2021-10-28 08:28:58</time>
      </trkpt>
      <trkpt lat="43.31323" lon="-3.02813">
        <ele>46.4</ele>
        <time>2021-10-28 08:28:59</time>
      </trkpt>
      <trkpt lat="43.31328" lon="-3.02817">
        <ele>46.2</ele>
        <time>2021-10-28 08:29:01</time>
      </trkpt>
      <trkpt lat="43.31331" lon="-3.02823">
        <ele>46</ele>
        <time>2021-10-28 08:29:02</time>
      </trkpt>
      <trkpt lat="43.31341" lon="-3.0283">
        <ele>46</ele>
        <time>2021-10-28 08:29:04</time>
      </trkpt>
      <trkpt lat="43.31345" lon="-3.02833">
        <ele>45.8</ele>
        <time>2021-10-28 08:29:05</time>
      </trkpt>
      <trkpt lat="43.31353" lon="-3.02848">
        <ele>45.6</ele>
        <time>2021-10-28 08:29:07</time>
      </trkpt>
      <trkpt lat="43.31353" lon="-3.02848">
        <ele>45.2</ele>
        <time>2021-10-28 08:29:08</time>
      </trkpt>
      <trkpt lat="43.31351" lon="-3.02858">
        <ele>45.2</ele>
        <time>2021-10-28 08:29:09</time>
      </trkpt>
      <trkpt lat="43.31344" lon="-3.02869">
        <ele>45.2</ele>
        <time>2021-10-28 08:29:11</time>
      </trkpt>
      <trkpt lat="43.31339" lon="-3.02876">
        <ele>45.4</ele>
        <time>2021-10-28 08:29:12</time>
      </trkpt>
      <trkpt lat="43.31327" lon="-3.02885">
        <ele>45.4</ele>
        <time>2021-10-28 08:29:14</time>
      </trkpt>
      <trkpt lat="43.31327" lon="-3.02885">
        <ele>45.8</ele>
        <time>2021-10-28 08:29:15</time>
      </trkpt>
      <trkpt lat="43.31312" lon="-3.02901">
        <ele>46</ele>
        <time>2021-10-28 08:29:17</time>
      </trkpt>
      <trkpt lat="43.31312" lon="-3.02901">
        <ele>46</ele>
        <time>2021-10-28 08:29:18</time>
      </trkpt>
      <trkpt lat="43.31308" lon="-3.02907">
        <ele>46.2</ele>
        <time>2021-10-28 08:29:19</time>
      </trkpt>
      <trkpt lat="43.31301" lon="-3.02914">
        <ele>46.2</ele>
        <time>2021-10-28 08:29:21</time>
      </trkpt>
      <trkpt lat="43.31298" lon="-3.02917">
        <ele>46.2</ele>
        <time>2021-10-28 08:29:22</time>
      </trkpt>
      <trkpt lat="43.31287" lon="-3.0293">
        <ele>46.4</ele>
        <time>2021-10-28 08:29:24</time>
      </trkpt>
      <trkpt lat="43.31287" lon="-3.0293">
        <ele>46.4</ele>
        <time>2021-10-28 08:29:25</time>
      </trkpt>
      <trkpt lat="43.31275" lon="-3.02942">
        <ele>46.4</ele>
        <time>2021-10-28 08:29:28</time>
      </trkpt>
      <trkpt lat="43.31271" lon="-3.02947">
        <ele>46.8</ele>
        <time>2021-10-28 08:29:29</time>
      </trkpt>
      <trkpt lat="43.31262" lon="-3.02958">
        <ele>46.8</ele>
        <time>2021-10-28 08:29:31</time>
      </trkpt>
      <trkpt lat="43.31262" lon="-3.02958">
        <ele>46.8</ele>
        <time>2021-10-28 08:29:32</time>
      </trkpt>
      <trkpt lat="43.31258" lon="-3.02963">
        <ele>46.8</ele>
        <time>2021-10-28 08:29:33</time>
      </trkpt>
      <trkpt lat="43.31252" lon="-3.02973">
        <ele>47</ele>
        <time>2021-10-28 08:29:35</time>
      </trkpt>
      <trkpt lat="43.31249" lon="-3.0298">
        <ele>47.2</ele>
        <time>2021-10-28 08:29:36</time>
      </trkpt>
      <trkpt lat="43.31241" lon="-3.02995">
        <ele>47.2</ele>
        <time>2021-10-28 08:29:38</time>
      </trkpt>
      <trkpt lat="43.31241" lon="-3.02995">
        <ele>47.2</ele>
        <time>2021-10-28 08:29:39</time>
      </trkpt>
      <trkpt lat="43.31233" lon="-3.03011">
        <ele>47.2</ele>
        <time>2021-10-28 08:29:42</time>
      </trkpt>
      <trkpt lat="43.3123" lon="-3.03017">
        <ele>47.6</ele>
        <time>2021-10-28 08:29:43</time>
      </trkpt>
      <trkpt lat="43.31226" lon="-3.03028">
        <ele>47.6</ele>
        <time>2021-10-28 08:29:45</time>
      </trkpt>
      <trkpt lat="43.31226" lon="-3.03032">
        <ele>47.8</ele>
        <time>2021-10-28 08:29:46</time>
      </trkpt>
      <trkpt lat="43.31217" lon="-3.03051">
        <ele>48</ele>
        <time>2021-10-28 08:29:48</time>
      </trkpt>
      <trkpt lat="43.31217" lon="-3.03051">
        <ele>48</ele>
        <time>2021-10-28 08:29:49</time>
      </trkpt>
      <trkpt lat="43.3121" lon="-3.03063">
        <ele>48</ele>
        <time>2021-10-28 08:29:50</time>
      </trkpt>
      <trkpt lat="43.31206" lon="-3.03068">
        <ele>48</ele>
        <time>2021-10-28 08:29:52</time>
      </trkpt>
      <trkpt lat="43.31202" lon="-3.03076">
        <ele>48.2</ele>
        <time>2021-10-28 08:29:53</time>
      </trkpt>
      <trkpt lat="43.312" lon="-3.03086">
        <ele>48.4</ele>
        <time>2021-10-28 08:29:55</time>
      </trkpt>
      <trkpt lat="43.31196" lon="-3.03097">
        <ele>48.4</ele>
        <time>2021-10-28 08:29:56</time>
      </trkpt>
      <trkpt lat="43.31191" lon="-3.03109">
        <ele>48.4</ele>
        <time>2021-10-28 08:29:58</time>
      </trkpt>
      <trkpt lat="43.31191" lon="-3.03109">
        <ele>48.2</ele>
        <time>2021-10-28 08:29:59</time>
      </trkpt>
      <trkpt lat="43.31187" lon="-3.03115">
        <ele>48</ele>
        <time>2021-10-28 08:30:00</time>
      </trkpt>
      <trkpt lat="43.31182" lon="-3.03127">
        <ele>48</ele>
        <time>2021-10-28 08:30:02</time>
      </trkpt>
      <trkpt lat="43.31179" lon="-3.03135">
        <ele>47.8</ele>
        <time>2021-10-28 08:30:03</time>
      </trkpt>
      <trkpt lat="43.31165" lon="-3.03157">
        <ele>47.8</ele>
        <time>2021-10-28 08:30:05</time>
      </trkpt>
      <trkpt lat="43.31165" lon="-3.03157">
        <ele>47.4</ele>
        <time>2021-10-28 08:30:06</time>
      </trkpt>
      <trkpt lat="43.31152" lon="-3.03173">
        <ele>47.4</ele>
        <time>2021-10-28 08:30:09</time>
      </trkpt>
      <trkpt lat="43.31148" lon="-3.03178">
        <ele>48.2</ele>
        <time>2021-10-28 08:30:10</time>
      </trkpt>
      <trkpt lat="43.31139" lon="-3.03188">
        <ele>48.2</ele>
        <time>2021-10-28 08:30:12</time>
      </trkpt>
      <trkpt lat="43.31134" lon="-3.03193">
        <ele>48.8</ele>
        <time>2021-10-28 08:30:13</time>
      </trkpt>
      <trkpt lat="43.3112" lon="-3.03208">
        <ele>49</ele>
        <time>2021-10-28 08:30:15</time>
      </trkpt>
      <trkpt lat="43.3112" lon="-3.03208">
        <ele>49.8</ele>
        <time>2021-10-28 08:30:16</time>
      </trkpt>
      <trkpt lat="43.31115" lon="-3.03213">
        <ele>50</ele>
        <time>2021-10-28 08:30:17</time>
      </trkpt>
      <trkpt lat="43.31107" lon="-3.0322">
        <ele>50</ele>
        <time>2021-10-28 08:30:19</time>
      </trkpt>
      <trkpt lat="43.31098" lon="-3.03227">
        <ele>50.4</ele>
        <time>2021-10-28 08:30:20</time>
      </trkpt>
      <trkpt lat="43.3109" lon="-3.03235">
        <ele>50.6</ele>
        <time>2021-10-28 08:30:22</time>
      </trkpt>
      <trkpt lat="43.3109" lon="-3.03235">
        <ele>51</ele>
        <time>2021-10-28 08:30:23</time>
      </trkpt>
      <trkpt lat="43.31087" lon="-3.03239">
        <ele>51.2</ele>
        <time>2021-10-28 08:30:24</time>
      </trkpt>
      <trkpt lat="43.31079" lon="-3.03247">
        <ele>51.4</ele>
        <time>2021-10-28 08:30:26</time>
      </trkpt>
      <trkpt lat="43.31076" lon="-3.03253">
        <ele>52.2</ele>
        <time>2021-10-28 08:30:27</time>
      </trkpt>
      <trkpt lat="43.31072" lon="-3.03266">
        <ele>52.6</ele>
        <time>2021-10-28 08:30:29</time>
      </trkpt>
      <trkpt lat="43.31071" lon="-3.03279">
        <ele>53</ele>
        <time>2021-10-28 08:30:30</time>
      </trkpt>
      <trkpt lat="43.31072" lon="-3.03293">
        <ele>53.2</ele>
        <time>2021-10-28 08:30:32</time>
      </trkpt>
      <trkpt lat="43.31072" lon="-3.03293">
        <ele>53.6</ele>
        <time>2021-10-28 08:30:33</time>
      </trkpt>
      <trkpt lat="43.31075" lon="-3.03306">
        <ele>53.8</ele>
        <time>2021-10-28 08:30:34</time>
      </trkpt>
      <trkpt lat="43.31078" lon="-3.03312">
        <ele>54</ele>
        <time>2021-10-28 08:30:36</time>
      </trkpt>
      <trkpt lat="43.31079" lon="-3.03318">
        <ele>54.4</ele>
        <time>2021-10-28 08:30:37</time>
      </trkpt>
      <trkpt lat="43.31085" lon="-3.03329">
        <ele>54.8</ele>
        <time>2021-10-28 08:30:39</time>
      </trkpt>
      <trkpt lat="43.31092" lon="-3.03336">
        <ele>55.4</ele>
        <time>2021-10-28 08:30:40</time>
      </trkpt>
      <trkpt lat="43.311" lon="-3.03341">
        <ele>55.6</ele>
        <time>2021-10-28 08:30:42</time>
      </trkpt>
      <trkpt lat="43.311" lon="-3.03341">
        <ele>56.2</ele>
        <time>2021-10-28 08:30:43</time>
      </trkpt>
      <trkpt lat="43.31109" lon="-3.03346">
        <ele>56.4</ele>
        <time>2021-10-28 08:30:44</time>
      </trkpt>
      <trkpt lat="43.31113" lon="-3.03348">
        <ele>56.6</ele>
        <time>2021-10-28 08:30:46</time>
      </trkpt>
      <trkpt lat="43.31121" lon="-3.03357">
        <ele>57</ele>
        <time>2021-10-28 08:30:47</time>
      </trkpt>
      <trkpt lat="43.31127" lon="-3.03365">
        <ele>57.4</ele>
        <time>2021-10-28 08:30:49</time>
      </trkpt>
      <trkpt lat="43.31127" lon="-3.03365">
        <ele>57.8</ele>
        <time>2021-10-28 08:30:50</time>
      </trkpt>
      <trkpt lat="43.31135" lon="-3.03377">
        <ele>58</ele>
        <time>2021-10-28 08:30:52</time>
      </trkpt>
      <trkpt lat="43.31135" lon="-3.03377">
        <ele>58.8</ele>
        <time>2021-10-28 08:30:53</time>
      </trkpt>
      <trkpt lat="43.31139" lon="-3.0338">
        <ele>59</ele>
        <time>2021-10-28 08:30:54</time>
      </trkpt>
      <trkpt lat="43.31144" lon="-3.03388">
        <ele>59</ele>
        <time>2021-10-28 08:30:56</time>
      </trkpt>
      <trkpt lat="43.3115" lon="-3.03398">
        <ele>59.4</ele>
        <time>2021-10-28 08:30:57</time>
      </trkpt>
      <trkpt lat="43.31153" lon="-3.03409">
        <ele>59.6</ele>
        <time>2021-10-28 08:30:59</time>
      </trkpt>
      <trkpt lat="43.31153" lon="-3.03409">
        <ele>60</ele>
        <time>2021-10-28 08:31:00</time>
      </trkpt>
      <trkpt lat="43.31153" lon="-3.03418">
        <ele>60.2</ele>
        <time>2021-10-28 08:31:02</time>
      </trkpt>
      <trkpt lat="43.31157" lon="-3.03427">
        <ele>60.2</ele>
        <time>2021-10-28 08:31:03</time>
      </trkpt>
      <trkpt lat="43.31157" lon="-3.03433">
        <ele>60.4</ele>
        <time>2021-10-28 08:31:04</time>
      </trkpt>
      <trkpt lat="43.31155" lon="-3.03445">
        <ele>60.4</ele>
        <time>2021-10-28 08:31:06</time>
      </trkpt>
      <trkpt lat="43.31153" lon="-3.03459">
        <ele>60.6</ele>
        <time>2021-10-28 08:31:07</time>
      </trkpt>
      <trkpt lat="43.31152" lon="-3.03472">
        <ele>60.6</ele>
        <time>2021-10-28 08:31:09</time>
      </trkpt>
      <trkpt lat="43.31152" lon="-3.03472">
        <ele>60.6</ele>
        <time>2021-10-28 08:31:10</time>
      </trkpt>
      <trkpt lat="43.31149" lon="-3.03486">
        <ele>60.6</ele>
        <time>2021-10-28 08:31:11</time>
      </trkpt>
      <trkpt lat="43.31148" lon="-3.03491">
        <ele>60.6</ele>
        <time>2021-10-28 08:31:13</time>
      </trkpt>
      <trkpt lat="43.31148" lon="-3.03491">
        <ele>60.4</ele>
        <time>2021-10-28 08:31:14</time>
      </trkpt>
      <trkpt lat="43.31149" lon="-3.03511">
        <ele>60.4</ele>
        <time>2021-10-28 08:31:16</time>
      </trkpt>
      <trkpt lat="43.31149" lon="-3.03511">
        <ele>60.6</ele>
        <time>2021-10-28 08:31:17</time>
      </trkpt>
      <trkpt lat="43.31149" lon="-3.03511">
        <ele>60.4</ele>
        <time>2021-10-28 08:31:20</time>
      </trkpt>
      <trkpt lat="43.31156" lon="-3.03544">
        <ele>59.8</ele>
        <time>2021-10-28 08:31:21</time>
      </trkpt>
      <trkpt lat="43.31158" lon="-3.03574">
        <ele>59.8</ele>
        <time>2021-10-28 08:31:23</time>
      </trkpt>
      <trkpt lat="43.31158" lon="-3.03574">
        <ele>59.4</ele>
        <time>2021-10-28 08:31:24</time>
      </trkpt>
      <trkpt lat="43.31158" lon="-3.03574">
        <ele>59.2</ele>
        <time>2021-10-28 08:31:25</time>
      </trkpt>
      <trkpt lat="43.31171" lon="-3.03597">
        <ele>59.2</ele>
        <time>2021-10-28 08:31:27</time>
      </trkpt>
      <trkpt lat="43.31178" lon="-3.03614">
        <ele>58.4</ele>
        <time>2021-10-28 08:31:28</time>
      </trkpt>
      <trkpt lat="43.31181" lon="-3.03623">
        <ele>58</ele>
        <time>2021-10-28 08:31:30</time>
      </trkpt>
      <trkpt lat="43.31184" lon="-3.03641">
        <ele>57.4</ele>
        <time>2021-10-28 08:31:31</time>
      </trkpt>
      <trkpt lat="43.31189" lon="-3.03653">
        <ele>57.2</ele>
        <time>2021-10-28 08:31:33</time>
      </trkpt>
      <trkpt lat="43.31189" lon="-3.03653">
        <ele>56.8</ele>
        <time>2021-10-28 08:31:34</time>
      </trkpt>
      <trkpt lat="43.31191" lon="-3.03661">
        <ele>56.8</ele>
        <time>2021-10-28 08:31:35</time>
      </trkpt>
      <trkpt lat="43.31193" lon="-3.03677">
        <ele>56.8</ele>
        <time>2021-10-28 08:31:37</time>
      </trkpt>
      <trkpt lat="43.31194" lon="-3.03687">
        <ele>56.6</ele>
        <time>2021-10-28 08:31:38</time>
      </trkpt>
      <trkpt lat="43.31201" lon="-3.03714">
        <ele>56.4</ele>
        <time>2021-10-28 08:31:40</time>
      </trkpt>
      <trkpt lat="43.31202" lon="-3.03726">
        <ele>55.4</ele>
        <time>2021-10-28 08:31:41</time>
      </trkpt>
      <trkpt lat="43.31207" lon="-3.03747">
        <ele>55</ele>
        <time>2021-10-28 08:31:43</time>
      </trkpt>
      <trkpt lat="43.31207" lon="-3.03747">
        <ele>53.8</ele>
        <time>2021-10-28 08:31:44</time>
      </trkpt>
      <trkpt lat="43.31207" lon="-3.03747">
        <ele>53.2</ele>
        <time>2021-10-28 08:31:45</time>
      </trkpt>
      <trkpt lat="43.3121" lon="-3.03783">
        <ele>53.2</ele>
        <time>2021-10-28 08:31:47</time>
      </trkpt>
      <trkpt lat="43.31212" lon="-3.03793">
        <ele>53.2</ele>
        <time>2021-10-28 08:31:48</time>
      </trkpt>
      <trkpt lat="43.31212" lon="-3.03793">
        <ele>53.2</ele>
        <time>2021-10-28 08:31:50</time>
      </trkpt>
      <trkpt lat="43.31212" lon="-3.03793">
        <ele>53.6</ele>
        <time>2021-10-28 08:31:51</time>
      </trkpt>
      <trkpt lat="43.31219" lon="-3.03824">
        <ele>53.8</ele>
        <time>2021-10-28 08:31:52</time>
      </trkpt>
      <trkpt lat="43.31222" lon="-3.03842">
        <ele>54</ele>
        <time>2021-10-28 08:31:54</time>
      </trkpt>
      <trkpt lat="43.31227" lon="-3.03858">
        <ele>54.6</ele>
        <time>2021-10-28 08:31:55</time>
      </trkpt>
      <trkpt lat="43.3123" lon="-3.03865">
        <ele>54.8</ele>
        <time>2021-10-28 08:31:57</time>
      </trkpt>
      <trkpt lat="43.31231" lon="-3.03873">
        <ele>55.4</ele>
        <time>2021-10-28 08:31:58</time>
      </trkpt>
      <trkpt lat="43.31231" lon="-3.03873">
        <ele>55.6</ele>
        <time>2021-10-28 08:32:00</time>
      </trkpt>
      <trkpt lat="43.31231" lon="-3.03873">
        <ele>56</ele>
        <time>2021-10-28 08:32:01</time>
      </trkpt>
      <trkpt lat="43.3124" lon="-3.039">
        <ele>56.2</ele>
        <time>2021-10-28 08:32:02</time>
      </trkpt>
      <trkpt lat="43.31244" lon="-3.03916">
        <ele>56.2</ele>
        <time>2021-10-28 08:32:04</time>
      </trkpt>
      <trkpt lat="43.31247" lon="-3.03932">
        <ele>56.6</ele>
        <time>2021-10-28 08:32:05</time>
      </trkpt>
      <trkpt lat="43.31249" lon="-3.03947">
        <ele>56.6</ele>
        <time>2021-10-28 08:32:07</time>
      </trkpt>
      <trkpt lat="43.31249" lon="-3.03947">
        <ele>56.8</ele>
        <time>2021-10-28 08:32:08</time>
      </trkpt>
      <trkpt lat="43.31254" lon="-3.03961">
        <ele>57</ele>
        <time>2021-10-28 08:32:11</time>
      </trkpt>
      <trkpt lat="43.31258" lon="-3.03984">
        <ele>57.2</ele>
        <time>2021-10-28 08:32:12</time>
      </trkpt>
      <trkpt lat="43.31261" lon="-3.03991">
        <ele>57.2</ele>
        <time>2021-10-28 08:32:14</time>
      </trkpt>
      <trkpt lat="43.31264" lon="-3.04007">
        <ele>57.4</ele>
        <time>2021-10-28 08:32:15</time>
      </trkpt>
      <trkpt lat="43.3127" lon="-3.04021">
        <ele>57.4</ele>
        <time>2021-10-28 08:32:17</time>
      </trkpt>
      <trkpt lat="43.3127" lon="-3.04021">
        <ele>57.6</ele>
        <time>2021-10-28 08:32:18</time>
      </trkpt>
      <trkpt lat="43.31275" lon="-3.04035">
        <ele>57.8</ele>
        <time>2021-10-28 08:32:19</time>
      </trkpt>
      <trkpt lat="43.31277" lon="-3.04043">
        <ele>58</ele>
        <time>2021-10-28 08:32:21</time>
      </trkpt>
      <trkpt lat="43.31277" lon="-3.04052">
        <ele>58.2</ele>
        <time>2021-10-28 08:32:22</time>
      </trkpt>
      <trkpt lat="43.31282" lon="-3.0407">
        <ele>58.4</ele>
        <time>2021-10-28 08:32:24</time>
      </trkpt>
      <trkpt lat="43.31288" lon="-3.04084">
        <ele>58.8</ele>
        <time>2021-10-28 08:32:25</time>
      </trkpt>
      <trkpt lat="43.31293" lon="-3.04098">
        <ele>59</ele>
        <time>2021-10-28 08:32:27</time>
      </trkpt>
      <trkpt lat="43.31293" lon="-3.04098">
        <ele>59.6</ele>
        <time>2021-10-28 08:32:28</time>
      </trkpt>
      <trkpt lat="43.31293" lon="-3.04105">
        <ele>59.8</ele>
        <time>2021-10-28 08:32:29</time>
      </trkpt>
      <trkpt lat="43.31298" lon="-3.04118">
        <ele>60</ele>
        <time>2021-10-28 08:32:31</time>
      </trkpt>
      <trkpt lat="43.31304" lon="-3.0413">
        <ele>60.6</ele>
        <time>2021-10-28 08:32:32</time>
      </trkpt>
      <trkpt lat="43.31305" lon="-3.04139">
        <ele>60.8</ele>
        <time>2021-10-28 08:32:34</time>
      </trkpt>
      <trkpt lat="43.31307" lon="-3.04145">
        <ele>61.6</ele>
        <time>2021-10-28 08:32:35</time>
      </trkpt>
      <trkpt lat="43.31307" lon="-3.04145">
        <ele>61.8</ele>
        <time>2021-10-28 08:32:37</time>
      </trkpt>
      <trkpt lat="43.31307" lon="-3.04145">
        <ele>62.6</ele>
        <time>2021-10-28 08:32:38</time>
      </trkpt>
      <trkpt lat="43.31307" lon="-3.04145">
        <ele>63</ele>
        <time>2021-10-28 08:32:39</time>
      </trkpt>
      <trkpt lat="43.3132" lon="-3.04186">
        <ele>63</ele>
        <time>2021-10-28 08:32:41</time>
      </trkpt>
      <trkpt lat="43.31324" lon="-3.04199">
        <ele>63.6</ele>
        <time>2021-10-28 08:32:42</time>
      </trkpt>
      <trkpt lat="43.31326" lon="-3.04205">
        <ele>64</ele>
        <time>2021-10-28 08:32:44</time>
      </trkpt>
      <trkpt lat="43.31327" lon="-3.0421">
        <ele>64.6</ele>
        <time>2021-10-28 08:32:45</time>
      </trkpt>
      <trkpt lat="43.31333" lon="-3.0423">
        <ele>64.8</ele>
        <time>2021-10-28 08:32:47</time>
      </trkpt>
      <trkpt lat="43.31333" lon="-3.04239">
        <ele>65.4</ele>
        <time>2021-10-28 08:32:48</time>
      </trkpt>
      <trkpt lat="43.31336" lon="-3.04246">
        <ele>65.8</ele>
        <time>2021-10-28 08:32:49</time>
      </trkpt>
      <trkpt lat="43.31336" lon="-3.04254">
        <ele>65.8</ele>
        <time>2021-10-28 08:32:51</time>
      </trkpt>
      <trkpt lat="43.3134" lon="-3.04261">
        <ele>66.4</ele>
        <time>2021-10-28 08:32:52</time>
      </trkpt>
      <trkpt lat="43.31348" lon="-3.04279">
        <ele>66.6</ele>
        <time>2021-10-28 08:32:54</time>
      </trkpt>
      <trkpt lat="43.31348" lon="-3.04279">
        <ele>66.8</ele>
        <time>2021-10-28 08:32:55</time>
      </trkpt>
      <trkpt lat="43.31351" lon="-3.04294">
        <ele>66.8</ele>
        <time>2021-10-28 08:32:56</time>
      </trkpt>
      <trkpt lat="43.31353" lon="-3.04301">
        <ele>66.8</ele>
        <time>2021-10-28 08:32:58</time>
      </trkpt>
      <trkpt lat="43.31359" lon="-3.04317">
        <ele>67</ele>
        <time>2021-10-28 08:32:59</time>
      </trkpt>
      <trkpt lat="43.31362" lon="-3.04333">
        <ele>67</ele>
        <time>2021-10-28 08:33:01</time>
      </trkpt>
      <trkpt lat="43.31362" lon="-3.04333">
        <ele>67</ele>
        <time>2021-10-28 08:33:02</time>
      </trkpt>
      <trkpt lat="43.31362" lon="-3.04357">
        <ele>67.2</ele>
        <time>2021-10-28 08:33:04</time>
      </trkpt>
      <trkpt lat="43.31362" lon="-3.04357">
        <ele>67.2</ele>
        <time>2021-10-28 08:33:05</time>
      </trkpt>
      <trkpt lat="43.31362" lon="-3.04357">
        <ele>67.2</ele>
        <time>2021-10-28 08:33:06</time>
      </trkpt>
      <trkpt lat="43.31365" lon="-3.04379">
        <ele>67.2</ele>
        <time>2021-10-28 08:33:07</time>
      </trkpt>
      <trkpt lat="43.31365" lon="-3.04379">
        <ele>67.4</ele>
        <time>2021-10-28 08:33:08</time>
      </trkpt>
      <trkpt lat="43.31367" lon="-3.04393">
        <ele>67.4</ele>
        <time>2021-10-28 08:33:09</time>
      </trkpt>
      <trkpt lat="43.31365" lon="-3.04402">
        <ele>67.4</ele>
        <time>2021-10-28 08:33:10</time>
      </trkpt>
      <trkpt lat="43.31365" lon="-3.04402">
        <ele>67.4</ele>
        <time>2021-10-28 08:33:11</time>
      </trkpt>
      <trkpt lat="43.31365" lon="-3.04417">
        <ele>67.4</ele>
        <time>2021-10-28 08:33:12</time>
      </trkpt>
      <trkpt lat="43.31364" lon="-3.04423">
        <ele>67.6</ele>
        <time>2021-10-28 08:33:13</time>
      </trkpt>
      <trkpt lat="43.31363" lon="-3.04432">
        <ele>67.6</ele>
        <time>2021-10-28 08:33:14</time>
      </trkpt>
      <trkpt lat="43.31363" lon="-3.04432">
        <ele>67.6</ele>
        <time>2021-10-28 08:33:15</time>
      </trkpt>
      <trkpt lat="43.31362" lon="-3.04446">
        <ele>67.8</ele>
        <time>2021-10-28 08:33:16</time>
      </trkpt>
      <trkpt lat="43.3136" lon="-3.04455">
        <ele>67.8</ele>
        <time>2021-10-28 08:33:17</time>
      </trkpt>
      <trkpt lat="43.3136" lon="-3.04455">
        <ele>67.8</ele>
        <time>2021-10-28 08:33:18</time>
      </trkpt>
      <trkpt lat="43.31359" lon="-3.04469">
        <ele>67.8</ele>
        <time>2021-10-28 08:33:19</time>
      </trkpt>
      <trkpt lat="43.31359" lon="-3.04469">
        <ele>67.8</ele>
        <time>2021-10-28 08:33:20</time>
      </trkpt>
      <trkpt lat="43.31356" lon="-3.04484">
        <ele>67.8</ele>
        <time>2021-10-28 08:33:21</time>
      </trkpt>
      <trkpt lat="43.31356" lon="-3.04493">
        <ele>67.8</ele>
        <time>2021-10-28 08:33:22</time>
      </trkpt>
      <trkpt lat="43.31356" lon="-3.04493">
        <ele>68</ele>
        <time>2021-10-28 08:33:23</time>
      </trkpt>
      <trkpt lat="43.31356" lon="-3.04501">
        <ele>68</ele>
        <time>2021-10-28 08:33:24</time>
      </trkpt>
      <trkpt lat="43.31355" lon="-3.04517">
        <ele>68</ele>
        <time>2021-10-28 08:33:25</time>
      </trkpt>
      <trkpt lat="43.31355" lon="-3.04517">
        <ele>68</ele>
        <time>2021-10-28 08:33:26</time>
      </trkpt>
      <trkpt lat="43.31356" lon="-3.04532">
        <ele>68</ele>
        <time>2021-10-28 08:33:27</time>
      </trkpt>
      <trkpt lat="43.31356" lon="-3.0454">
        <ele>68.2</ele>
        <time>2021-10-28 08:33:28</time>
      </trkpt>
      <trkpt lat="43.31356" lon="-3.0454">
        <ele>68.2</ele>
        <time>2021-10-28 08:33:29</time>
      </trkpt>
      <trkpt lat="43.31357" lon="-3.04546">
        <ele>68.2</ele>
        <time>2021-10-28 08:33:30</time>
      </trkpt>
      <trkpt lat="43.31361" lon="-3.0456">
        <ele>68.2</ele>
        <time>2021-10-28 08:33:31</time>
      </trkpt>
      <trkpt lat="43.31361" lon="-3.0456">
        <ele>68.4</ele>
        <time>2021-10-28 08:33:32</time>
      </trkpt>
      <trkpt lat="43.31361" lon="-3.0456">
        <ele>68.4</ele>
        <time>2021-10-28 08:33:33</time>
      </trkpt>
      <trkpt lat="43.31364" lon="-3.04584">
        <ele>68.6</ele>
        <time>2021-10-28 08:33:34</time>
      </trkpt>
      <trkpt lat="43.31364" lon="-3.04584">
        <ele>68.8</ele>
        <time>2021-10-28 08:33:35</time>
      </trkpt>
      <trkpt lat="43.31366" lon="-3.04592">
        <ele>68.8</ele>
        <time>2021-10-28 08:33:36</time>
      </trkpt>
      <trkpt lat="43.31369" lon="-3.04603">
        <ele>69</ele>
        <time>2021-10-28 08:33:37</time>
      </trkpt>
      <trkpt lat="43.31369" lon="-3.04603">
        <ele>69.2</ele>
        <time>2021-10-28 08:33:38</time>
      </trkpt>
      <trkpt lat="43.31371" lon="-3.04612">
        <ele>69.2</ele>
        <time>2021-10-28 08:33:39</time>
      </trkpt>
      <trkpt lat="43.31378" lon="-3.04627">
        <ele>69.4</ele>
        <time>2021-10-28 08:33:40</time>
      </trkpt>
      <trkpt lat="43.31378" lon="-3.04627">
        <ele>69.6</ele>
        <time>2021-10-28 08:33:41</time>
      </trkpt>
      <trkpt lat="43.31386" lon="-3.04635">
        <ele>69.6</ele>
        <time>2021-10-28 08:33:42</time>
      </trkpt>
      <trkpt lat="43.31389" lon="-3.04642">
        <ele>69.6</ele>
        <time>2021-10-28 08:33:43</time>
      </trkpt>
      <trkpt lat="43.31389" lon="-3.04642">
        <ele>69.6</ele>
        <time>2021-10-28 08:33:44</time>
      </trkpt>
      <trkpt lat="43.31398" lon="-3.04655">
        <ele>69.8</ele>
        <time>2021-10-28 08:33:45</time>
      </trkpt>
      <trkpt lat="43.31402" lon="-3.04661">
        <ele>69.8</ele>
        <time>2021-10-28 08:33:46</time>
      </trkpt>
      <trkpt lat="43.31402" lon="-3.04661">
        <ele>70</ele>
        <time>2021-10-28 08:33:47</time>
      </trkpt>
      <trkpt lat="43.31404" lon="-3.04668">
        <ele>70</ele>
        <time>2021-10-28 08:33:48</time>
      </trkpt>
      <trkpt lat="43.3141" lon="-3.04679">
        <ele>70.2</ele>
        <time>2021-10-28 08:33:49</time>
      </trkpt>
      <trkpt lat="43.3141" lon="-3.04679">
        <ele>70.2</ele>
        <time>2021-10-28 08:33:50</time>
      </trkpt>
      <trkpt lat="43.3141" lon="-3.04679">
        <ele>70.4</ele>
        <time>2021-10-28 08:33:51</time>
      </trkpt>
      <trkpt lat="43.31416" lon="-3.04699">
        <ele>70.6</ele>
        <time>2021-10-28 08:33:52</time>
      </trkpt>
      <trkpt lat="43.31416" lon="-3.04699">
        <ele>70.6</ele>
        <time>2021-10-28 08:33:53</time>
      </trkpt>
      <trkpt lat="43.31416" lon="-3.04699">
        <ele>70.8</ele>
        <time>2021-10-28 08:33:54</time>
      </trkpt>
      <trkpt lat="43.31421" lon="-3.04721">
        <ele>70.8</ele>
        <time>2021-10-28 08:33:55</time>
      </trkpt>
      <trkpt lat="43.31421" lon="-3.04721">
        <ele>71</ele>
        <time>2021-10-28 08:33:56</time>
      </trkpt>
      <trkpt lat="43.31424" lon="-3.04735">
        <ele>71</ele>
        <time>2021-10-28 08:33:57</time>
      </trkpt>
      <trkpt lat="43.31424" lon="-3.04743">
        <ele>71.2</ele>
        <time>2021-10-28 08:33:58</time>
      </trkpt>
      <trkpt lat="43.31424" lon="-3.04743">
        <ele>71.4</ele>
        <time>2021-10-28 08:33:59</time>
      </trkpt>
      <trkpt lat="43.31426" lon="-3.04758">
        <ele>71.4</ele>
        <time>2021-10-28 08:34:00</time>
      </trkpt>
      <trkpt lat="43.31428" lon="-3.04763">
        <ele>71.6</ele>
        <time>2021-10-28 08:34:01</time>
      </trkpt>
      <trkpt lat="43.31428" lon="-3.04763">
        <ele>71.6</ele>
        <time>2021-10-28 08:34:02</time>
      </trkpt>
      <trkpt lat="43.31428" lon="-3.04781">
        <ele>71.8</ele>
        <time>2021-10-28 08:34:03</time>
      </trkpt>
      <trkpt lat="43.31428" lon="-3.04789">
        <ele>72</ele>
        <time>2021-10-28 08:34:04</time>
      </trkpt>
      <trkpt lat="43.31428" lon="-3.04789">
        <ele>72.2</ele>
        <time>2021-10-28 08:34:05</time>
      </trkpt>
      <trkpt lat="43.31425" lon="-3.04808">
        <ele>72.2</ele>
        <time>2021-10-28 08:34:06</time>
      </trkpt>
      <trkpt lat="43.31425" lon="-3.04816">
        <ele>72.4</ele>
        <time>2021-10-28 08:34:07</time>
      </trkpt>
      <trkpt lat="43.31425" lon="-3.04816">
        <ele>72.6</ele>
        <time>2021-10-28 08:34:08</time>
      </trkpt>
      <trkpt lat="43.31422" lon="-3.04832">
        <ele>72.8</ele>
        <time>2021-10-28 08:34:09</time>
      </trkpt>
      <trkpt lat="43.3142" lon="-3.0484">
        <ele>72.8</ele>
        <time>2021-10-28 08:34:10</time>
      </trkpt>
      <trkpt lat="43.3142" lon="-3.0484">
        <ele>73</ele>
        <time>2021-10-28 08:34:11</time>
      </trkpt>
      <trkpt lat="43.31416" lon="-3.04854">
        <ele>73.2</ele>
        <time>2021-10-28 08:34:12</time>
      </trkpt>
      <trkpt lat="43.31416" lon="-3.04861">
        <ele>73.4</ele>
        <time>2021-10-28 08:34:13</time>
      </trkpt>
      <trkpt lat="43.31416" lon="-3.04861">
        <ele>73.4</ele>
        <time>2021-10-28 08:34:14</time>
      </trkpt>
      <trkpt lat="43.31413" lon="-3.04886">
        <ele>73.4</ele>
        <time>2021-10-28 08:34:16</time>
      </trkpt>
      <trkpt lat="43.31413" lon="-3.04886">
        <ele>73.6</ele>
        <time>2021-10-28 08:34:17</time>
      </trkpt>
      <trkpt lat="43.31411" lon="-3.04909">
        <ele>73.8</ele>
        <time>2021-10-28 08:34:19</time>
      </trkpt>
      <trkpt lat="43.31411" lon="-3.04909">
        <ele>74.2</ele>
        <time>2021-10-28 08:34:20</time>
      </trkpt>
      <trkpt lat="43.31413" lon="-3.04932">
        <ele>74.4</ele>
        <time>2021-10-28 08:34:23</time>
      </trkpt>
      <trkpt lat="43.31414" lon="-3.0494">
        <ele>75</ele>
        <time>2021-10-28 08:34:24</time>
      </trkpt>
      <trkpt lat="43.31414" lon="-3.04957">
        <ele>75</ele>
        <time>2021-10-28 08:34:26</time>
      </trkpt>
      <trkpt lat="43.31417" lon="-3.04971">
        <ele>75.4</ele>
        <time>2021-10-28 08:34:27</time>
      </trkpt>
      <trkpt lat="43.31419" lon="-3.04977">
        <ele>75.6</ele>
        <time>2021-10-28 08:34:29</time>
      </trkpt>
      <trkpt lat="43.31419" lon="-3.04977">
        <ele>75.8</ele>
        <time>2021-10-28 08:34:30</time>
      </trkpt>
      <trkpt lat="43.31428" lon="-3.04998">
        <ele>76</ele>
        <time>2021-10-28 08:34:32</time>
      </trkpt>
      <trkpt lat="43.31431" lon="-3.05005">
        <ele>76.2</ele>
        <time>2021-10-28 08:34:33</time>
      </trkpt>
      <trkpt lat="43.31438" lon="-3.05016">
        <ele>76.2</ele>
        <time>2021-10-28 08:34:35</time>
      </trkpt>
      <trkpt lat="43.31441" lon="-3.05024">
        <ele>76.2</ele>
        <time>2021-10-28 08:34:36</time>
      </trkpt>
      <trkpt lat="43.31448" lon="-3.05037">
        <ele>76.4</ele>
        <time>2021-10-28 08:34:38</time>
      </trkpt>
      <trkpt lat="43.31452" lon="-3.05042">
        <ele>76.6</ele>
        <time>2021-10-28 08:34:39</time>
      </trkpt>
      <trkpt lat="43.3146" lon="-3.05055">
        <ele>76.6</ele>
        <time>2021-10-28 08:34:41</time>
      </trkpt>
      <trkpt lat="43.31465" lon="-3.0506">
        <ele>77</ele>
        <time>2021-10-28 08:34:42</time>
      </trkpt>
      <trkpt lat="43.31474" lon="-3.05072">
        <ele>77</ele>
        <time>2021-10-28 08:34:44</time>
      </trkpt>
      <trkpt lat="43.31483" lon="-3.05084">
        <ele>77.4</ele>
        <time>2021-10-28 08:34:45</time>
      </trkpt>
      <trkpt lat="43.31488" lon="-3.05088">
        <ele>77.6</ele>
        <time>2021-10-28 08:34:47</time>
      </trkpt>
      <trkpt lat="43.31488" lon="-3.05088">
        <ele>78</ele>
        <time>2021-10-28 08:34:48</time>
      </trkpt>
      <trkpt lat="43.31493" lon="-3.05106">
        <ele>78.2</ele>
        <time>2021-10-28 08:34:50</time>
      </trkpt>
      <trkpt lat="43.31494" lon="-3.05112">
        <ele>78.4</ele>
        <time>2021-10-28 08:34:51</time>
      </trkpt>
      <trkpt lat="43.31499" lon="-3.05124">
        <ele>78.4</ele>
        <time>2021-10-28 08:34:53</time>
      </trkpt>
      <trkpt lat="43.31504" lon="-3.0513">
        <ele>78.6</ele>
        <time>2021-10-28 08:34:54</time>
      </trkpt>
      <trkpt lat="43.3151" lon="-3.05143">
        <ele>78.8</ele>
        <time>2021-10-28 08:34:56</time>
      </trkpt>
      <trkpt lat="43.31509" lon="-3.05153">
        <ele>79</ele>
        <time>2021-10-28 08:34:57</time>
      </trkpt>
      <trkpt lat="43.31513" lon="-3.0517">
        <ele>79.2</ele>
        <time>2021-10-28 08:34:59</time>
      </trkpt>
      <trkpt lat="43.31514" lon="-3.05177">
        <ele>79.4</ele>
        <time>2021-10-28 08:35:00</time>
      </trkpt>
      <trkpt lat="43.31512" lon="-3.05195">
        <ele>79.6</ele>
        <time>2021-10-28 08:35:02</time>
      </trkpt>
      <trkpt lat="43.31514" lon="-3.05208">
        <ele>80</ele>
        <time>2021-10-28 08:35:03</time>
      </trkpt>
      <trkpt lat="43.31514" lon="-3.05217">
        <ele>80</ele>
        <time>2021-10-28 08:35:05</time>
      </trkpt>
      <trkpt lat="43.31517" lon="-3.0523">
        <ele>80</ele>
        <time>2021-10-28 08:35:06</time>
      </trkpt>
      <trkpt lat="43.31515" lon="-3.05237">
        <ele>80</ele>
        <time>2021-10-28 08:35:08</time>
      </trkpt>
      <trkpt lat="43.31512" lon="-3.05246">
        <ele>80.4</ele>
        <time>2021-10-28 08:35:09</time>
      </trkpt>
      <trkpt lat="43.3151" lon="-3.05258">
        <ele>80.6</ele>
        <time>2021-10-28 08:35:11</time>
      </trkpt>
      <trkpt lat="43.31508" lon="-3.05267">
        <ele>81</ele>
        <time>2021-10-28 08:35:12</time>
      </trkpt>
      <trkpt lat="43.31504" lon="-3.0528">
        <ele>81.2</ele>
        <time>2021-10-28 08:35:14</time>
      </trkpt>
      <trkpt lat="43.31501" lon="-3.05285">
        <ele>81.4</ele>
        <time>2021-10-28 08:35:15</time>
      </trkpt>
      <trkpt lat="43.31494" lon="-3.05298">
        <ele>81.4</ele>
        <time>2021-10-28 08:35:17</time>
      </trkpt>
      <trkpt lat="43.31492" lon="-3.05304">
        <ele>81.6</ele>
        <time>2021-10-28 08:35:18</time>
      </trkpt>
      <trkpt lat="43.31488" lon="-3.05315">
        <ele>81.8</ele>
        <time>2021-10-28 08:35:20</time>
      </trkpt>
      <trkpt lat="43.31483" lon="-3.05328">
        <ele>82</ele>
        <time>2021-10-28 08:35:21</time>
      </trkpt>
      <trkpt lat="43.31481" lon="-3.05335">
        <ele>82</ele>
        <time>2021-10-28 08:35:23</time>
      </trkpt>
      <trkpt lat="43.31476" lon="-3.05349">
        <ele>82.2</ele>
        <time>2021-10-28 08:35:24</time>
      </trkpt>
      <trkpt lat="43.3147" lon="-3.05368">
        <ele>82.4</ele>
        <time>2021-10-28 08:35:26</time>
      </trkpt>
      <trkpt lat="43.31468" lon="-3.05376">
        <ele>82.4</ele>
        <time>2021-10-28 08:35:27</time>
      </trkpt>
      <trkpt lat="43.31471" lon="-3.05388">
        <ele>82.6</ele>
        <time>2021-10-28 08:35:29</time>
      </trkpt>
      <trkpt lat="43.31469" lon="-3.05403">
        <ele>83</ele>
        <time>2021-10-28 08:35:30</time>
      </trkpt>
      <trkpt lat="43.3147" lon="-3.05416">
        <ele>83</ele>
        <time>2021-10-28 08:35:32</time>
      </trkpt>
      <trkpt lat="43.31471" lon="-3.05422">
        <ele>83.2</ele>
        <time>2021-10-28 08:35:33</time>
      </trkpt>
      <trkpt lat="43.31473" lon="-3.05436">
        <ele>83.4</ele>
        <time>2021-10-28 08:35:35</time>
      </trkpt>
      <trkpt lat="43.31473" lon="-3.05442">
        <ele>83.6</ele>
        <time>2021-10-28 08:35:36</time>
      </trkpt>
      <trkpt lat="43.31477" lon="-3.05456">
        <ele>83.8</ele>
        <time>2021-10-28 08:35:38</time>
      </trkpt>
      <trkpt lat="43.31481" lon="-3.05461">
        <ele>84</ele>
        <time>2021-10-28 08:35:39</time>
      </trkpt>
      <trkpt lat="43.31487" lon="-3.05473">
        <ele>84.2</ele>
        <time>2021-10-28 08:35:41</time>
      </trkpt>
      <trkpt lat="43.31495" lon="-3.05482">
        <ele>84.2</ele>
        <time>2021-10-28 08:35:42</time>
      </trkpt>
      <trkpt lat="43.315" lon="-3.05487">
        <ele>84.4</ele>
        <time>2021-10-28 08:35:44</time>
      </trkpt>
      <trkpt lat="43.315" lon="-3.05497">
        <ele>84.6</ele>
        <time>2021-10-28 08:35:45</time>
      </trkpt>
      <trkpt lat="43.31508" lon="-3.05507">
        <ele>84.8</ele>
        <time>2021-10-28 08:35:47</time>
      </trkpt>
      <trkpt lat="43.31513" lon="-3.0551">
        <ele>85.2</ele>
        <time>2021-10-28 08:35:48</time>
      </trkpt>
      <trkpt lat="43.31523" lon="-3.05515">
        <ele>85.2</ele>
        <time>2021-10-28 08:35:50</time>
      </trkpt>
      <trkpt lat="43.31527" lon="-3.05518">
        <ele>85.4</ele>
        <time>2021-10-28 08:35:51</time>
      </trkpt>
      <trkpt lat="43.31543" lon="-3.05522">
        <ele>85.4</ele>
        <time>2021-10-28 08:35:53</time>
      </trkpt>
      <trkpt lat="43.31549" lon="-3.05521">
        <ele>85.8</ele>
        <time>2021-10-28 08:35:54</time>
      </trkpt>
      <trkpt lat="43.31549" lon="-3.05521">
        <ele>85.8</ele>
        <time>2021-10-28 08:35:55</time>
      </trkpt>
      <trkpt lat="43.31559" lon="-3.05525">
        <ele>86</ele>
        <time>2021-10-28 08:35:56</time>
      </trkpt>
      <trkpt lat="43.31559" lon="-3.05525">
        <ele>86</ele>
        <time>2021-10-28 08:35:57</time>
      </trkpt>
      <trkpt lat="43.31571" lon="-3.05529">
        <ele>86.2</ele>
        <time>2021-10-28 08:35:58</time>
      </trkpt>
      <trkpt lat="43.31577" lon="-3.0553">
        <ele>86.4</ele>
        <time>2021-10-28 08:35:59</time>
      </trkpt>
      <trkpt lat="43.31577" lon="-3.0553">
        <ele>86.4</ele>
        <time>2021-10-28 08:36:00</time>
      </trkpt>
      <trkpt lat="43.31581" lon="-3.05533">
        <ele>86.6</ele>
        <time>2021-10-28 08:36:01</time>
      </trkpt>
      <trkpt lat="43.3159" lon="-3.0554">
        <ele>86.6</ele>
        <time>2021-10-28 08:36:02</time>
      </trkpt>
      <trkpt lat="43.3159" lon="-3.0554">
        <ele>86.8</ele>
        <time>2021-10-28 08:36:03</time>
      </trkpt>
      <trkpt lat="43.31604" lon="-3.05546">
        <ele>86.8</ele>
        <time>2021-10-28 08:36:04</time>
      </trkpt>
      <trkpt lat="43.31609" lon="-3.05549">
        <ele>87</ele>
        <time>2021-10-28 08:36:05</time>
      </trkpt>
      <trkpt lat="43.31609" lon="-3.05549">
        <ele>87.2</ele>
        <time>2021-10-28 08:36:06</time>
      </trkpt>
      <trkpt lat="43.31613" lon="-3.05554">
        <ele>87.2</ele>
        <time>2021-10-28 08:36:07</time>
      </trkpt>
      <trkpt lat="43.31622" lon="-3.05563">
        <ele>87.2</ele>
        <time>2021-10-28 08:36:08</time>
      </trkpt>
      <trkpt lat="43.31622" lon="-3.05563">
        <ele>87.4</ele>
        <time>2021-10-28 08:36:09</time>
      </trkpt>
      <trkpt lat="43.31622" lon="-3.05563">
        <ele>87.4</ele>
        <time>2021-10-28 08:36:10</time>
      </trkpt>
      <trkpt lat="43.31632" lon="-3.0558">
        <ele>87.6</ele>
        <time>2021-10-28 08:36:11</time>
      </trkpt>
      <trkpt lat="43.31632" lon="-3.0558">
        <ele>87.6</ele>
        <time>2021-10-28 08:36:12</time>
      </trkpt>
      <trkpt lat="43.31632" lon="-3.0558">
        <ele>87.8</ele>
        <time>2021-10-28 08:36:13</time>
      </trkpt>
      <trkpt lat="43.31642" lon="-3.05597">
        <ele>88</ele>
        <time>2021-10-28 08:36:14</time>
      </trkpt>
      <trkpt lat="43.31642" lon="-3.05597">
        <ele>88</ele>
        <time>2021-10-28 08:36:15</time>
      </trkpt>
      <trkpt lat="43.31648" lon="-3.05611">
        <ele>88</ele>
        <time>2021-10-28 08:36:16</time>
      </trkpt>
      <trkpt lat="43.31651" lon="-3.05617">
        <ele>88.2</ele>
        <time>2021-10-28 08:36:17</time>
      </trkpt>
      <trkpt lat="43.31651" lon="-3.05617">
        <ele>88.2</ele>
        <time>2021-10-28 08:36:18</time>
      </trkpt>
      <trkpt lat="43.31657" lon="-3.05629">
        <ele>88.4</ele>
        <time>2021-10-28 08:36:19</time>
      </trkpt>
      <trkpt lat="43.31659" lon="-3.05636">
        <ele>88.4</ele>
        <time>2021-10-28 08:36:20</time>
      </trkpt>
      <trkpt lat="43.3166" lon="-3.05643">
        <ele>88.6</ele>
        <time>2021-10-28 08:36:21</time>
      </trkpt>
      <trkpt lat="43.3166" lon="-3.05643">
        <ele>88.6</ele>
        <time>2021-10-28 08:36:22</time>
      </trkpt>
      <trkpt lat="43.31665" lon="-3.05656">
        <ele>88.8</ele>
        <time>2021-10-28 08:36:23</time>
      </trkpt>
      <trkpt lat="43.31665" lon="-3.05656">
        <ele>88.8</ele>
        <time>2021-10-28 08:36:24</time>
      </trkpt>
      <trkpt lat="43.31665" lon="-3.05656">
        <ele>89</ele>
        <time>2021-10-28 08:36:25</time>
      </trkpt>
      <trkpt lat="43.31671" lon="-3.05681">
        <ele>89.2</ele>
        <time>2021-10-28 08:36:26</time>
      </trkpt>
      <trkpt lat="43.31671" lon="-3.05681">
        <ele>89.2</ele>
        <time>2021-10-28 08:36:27</time>
      </trkpt>
      <trkpt lat="43.31675" lon="-3.05692">
        <ele>89.4</ele>
        <time>2021-10-28 08:36:28</time>
      </trkpt>
      <trkpt lat="43.31676" lon="-3.05699">
        <ele>89.6</ele>
        <time>2021-10-28 08:36:29</time>
      </trkpt>
      <trkpt lat="43.31676" lon="-3.05699">
        <ele>89.8</ele>
        <time>2021-10-28 08:36:30</time>
      </trkpt>
      <trkpt lat="43.31681" lon="-3.05709">
        <ele>90</ele>
        <time>2021-10-28 08:36:31</time>
      </trkpt>
      <trkpt lat="43.31685" lon="-3.05715">
        <ele>90.4</ele>
        <time>2021-10-28 08:36:32</time>
      </trkpt>
      <trkpt lat="43.31685" lon="-3.05715">
        <ele>90.6</ele>
        <time>2021-10-28 08:36:33</time>
      </trkpt>
      <trkpt lat="43.31691" lon="-3.05727">
        <ele>91</ele>
        <time>2021-10-28 08:36:34</time>
      </trkpt>
      <trkpt lat="43.31692" lon="-3.05733">
        <ele>91.4</ele>
        <time>2021-10-28 08:36:36</time>
      </trkpt>
      <trkpt lat="43.31695" lon="-3.05738">
        <ele>92.2</ele>
        <time>2021-10-28 08:36:37</time>
      </trkpt>
      <trkpt lat="43.31698" lon="-3.0575">
        <ele>92.4</ele>
        <time>2021-10-28 08:36:39</time>
      </trkpt>
      <trkpt lat="43.31698" lon="-3.05754">
        <ele>93</ele>
        <time>2021-10-28 08:36:40</time>
      </trkpt>
      <trkpt lat="43.31702" lon="-3.05764">
        <ele>93.4</ele>
        <time>2021-10-28 08:36:42</time>
      </trkpt>
      <trkpt lat="43.31702" lon="-3.05771">
        <ele>94</ele>
        <time>2021-10-28 08:36:43</time>
      </trkpt>
      <trkpt lat="43.31707" lon="-3.05778">
        <ele>94.4</ele>
        <time>2021-10-28 08:36:45</time>
      </trkpt>
      <trkpt lat="43.31708" lon="-3.05782">
        <ele>95</ele>
        <time>2021-10-28 08:36:46</time>
      </trkpt>
      <trkpt lat="43.31713" lon="-3.05792">
        <ele>95.2</ele>
        <time>2021-10-28 08:36:48</time>
      </trkpt>
      <trkpt lat="43.31712" lon="-3.05799">
        <ele>95.8</ele>
        <time>2021-10-28 08:36:49</time>
      </trkpt>
      <trkpt lat="43.31712" lon="-3.0581">
        <ele>96</ele>
        <time>2021-10-28 08:36:51</time>
      </trkpt>
      <trkpt lat="43.3171" lon="-3.05823">
        <ele>96.6</ele>
        <time>2021-10-28 08:36:52</time>
      </trkpt>
      <trkpt lat="43.31708" lon="-3.0583">
        <ele>97</ele>
        <time>2021-10-28 08:36:54</time>
      </trkpt>
      <trkpt lat="43.31708" lon="-3.0584">
        <ele>97.6</ele>
        <time>2021-10-28 08:36:55</time>
      </trkpt>
      <trkpt lat="43.31708" lon="-3.05845">
        <ele>98</ele>
        <time>2021-10-28 08:36:57</time>
      </trkpt>
      <trkpt lat="43.31708" lon="-3.05857">
        <ele>98.4</ele>
        <time>2021-10-28 08:36:58</time>
      </trkpt>
      <trkpt lat="43.31708" lon="-3.05863">
        <ele>98.8</ele>
        <time>2021-10-28 08:37:00</time>
      </trkpt>
      <trkpt lat="43.31708" lon="-3.05867">
        <ele>99.4</ele>
        <time>2021-10-28 08:37:01</time>
      </trkpt>
      <trkpt lat="43.31707" lon="-3.05876">
        <ele>99.6</ele>
        <time>2021-10-28 08:37:03</time>
      </trkpt>
      <trkpt lat="43.31706" lon="-3.0588">
        <ele>100.4</ele>
        <time>2021-10-28 08:37:04</time>
      </trkpt>
      <trkpt lat="43.31706" lon="-3.05891">
        <ele>100.8</ele>
        <time>2021-10-28 08:37:06</time>
      </trkpt>
      <trkpt lat="43.31705" lon="-3.05898">
        <ele>101.2</ele>
        <time>2021-10-28 08:37:07</time>
      </trkpt>
      <trkpt lat="43.31703" lon="-3.05903">
        <ele>101.6</ele>
        <time>2021-10-28 08:37:09</time>
      </trkpt>
      <trkpt lat="43.31703" lon="-3.05911">
        <ele>102.2</ele>
        <time>2021-10-28 08:37:10</time>
      </trkpt>
      <trkpt lat="43.31702" lon="-3.05915">
        <ele>102.4</ele>
        <time>2021-10-28 08:37:12</time>
      </trkpt>
      <trkpt lat="43.31702" lon="-3.05922">
        <ele>102.4</ele>
        <time>2021-10-28 08:37:13</time>
      </trkpt>
      <trkpt lat="43.31709" lon="-3.05933">
        <ele>102.4</ele>
        <time>2021-10-28 08:37:15</time>
      </trkpt>
      <trkpt lat="43.31709" lon="-3.05933">
        <ele>102.4</ele>
        <time>2021-10-28 08:37:16</time>
      </trkpt>
      <trkpt lat="43.31718" lon="-3.05942">
        <ele>102.2</ele>
        <time>2021-10-28 08:37:18</time>
      </trkpt>
      <trkpt lat="43.31721" lon="-3.05945">
        <ele>102.2</ele>
        <time>2021-10-28 08:37:19</time>
      </trkpt>
      <trkpt lat="43.31721" lon="-3.05945">
        <ele>102.2</ele>
        <time>2021-10-28 08:37:21</time>
      </trkpt>
      <trkpt lat="43.31735" lon="-3.05953">
        <ele>102</ele>
        <time>2021-10-28 08:37:22</time>
      </trkpt>
      <trkpt lat="43.31739" lon="-3.05956">
        <ele>101.8</ele>
        <time>2021-10-28 08:37:24</time>
      </trkpt>
      <trkpt lat="43.31747" lon="-3.05962">
        <ele>101.8</ele>
        <time>2021-10-28 08:37:25</time>
      </trkpt>
      <trkpt lat="43.31751" lon="-3.05966">
        <ele>101.8</ele>
        <time>2021-10-28 08:37:27</time>
      </trkpt>
      <trkpt lat="43.31754" lon="-3.05969">
        <ele>101.8</ele>
        <time>2021-10-28 08:37:28</time>
      </trkpt>
      <trkpt lat="43.31762" lon="-3.05977">
        <ele>101.8</ele>
        <time>2021-10-28 08:37:29</time>
      </trkpt>
      <trkpt lat="43.31762" lon="-3.05977">
        <ele>101.6</ele>
        <time>2021-10-28 08:37:30</time>
      </trkpt>
      <trkpt lat="43.31764" lon="-3.05983">
        <ele>101.6</ele>
        <time>2021-10-28 08:37:31</time>
      </trkpt>
      <trkpt lat="43.31767" lon="-3.05996">
        <ele>101.8</ele>
        <time>2021-10-28 08:37:32</time>
      </trkpt>
      <trkpt lat="43.31767" lon="-3.05996">
        <ele>101.6</ele>
        <time>2021-10-28 08:37:33</time>
      </trkpt>
      <trkpt lat="43.31764" lon="-3.06009">
        <ele>101.6</ele>
        <time>2021-10-28 08:37:34</time>
      </trkpt>
      <trkpt lat="43.31761" lon="-3.06015">
        <ele>101.4</ele>
        <time>2021-10-28 08:37:35</time>
      </trkpt>
      <trkpt lat="43.31757" lon="-3.06023">
        <ele>101</ele>
        <time>2021-10-28 08:37:36</time>
      </trkpt>
      <trkpt lat="43.31752" lon="-3.06039">
        <ele>100.6</ele>
        <time>2021-10-28 08:37:38</time>
      </trkpt>
      <trkpt lat="43.31752" lon="-3.06039">
        <ele>99.2</ele>
        <time>2021-10-28 08:37:39</time>
      </trkpt>
      <trkpt lat="43.31748" lon="-3.06058">
        <ele>98.8</ele>
        <time>2021-10-28 08:37:40</time>
      </trkpt>
      <trkpt lat="43.31746" lon="-3.06067">
        <ele>98.4</ele>
        <time>2021-10-28 08:37:41</time>
      </trkpt>
      <trkpt lat="43.31746" lon="-3.06067">
        <ele>98.2</ele>
        <time>2021-10-28 08:37:42</time>
      </trkpt>
      <trkpt lat="43.31744" lon="-3.06083">
        <ele>97.8</ele>
        <time>2021-10-28 08:37:43</time>
      </trkpt>
      <trkpt lat="43.31742" lon="-3.06095">
        <ele>97.8</ele>
        <time>2021-10-28 08:37:44</time>
      </trkpt>
      <trkpt lat="43.31742" lon="-3.06095">
        <ele>97.6</ele>
        <time>2021-10-28 08:37:45</time>
      </trkpt>
      <trkpt lat="43.3174" lon="-3.06105">
        <ele>97.6</ele>
        <time>2021-10-28 08:37:46</time>
      </trkpt>
      <trkpt lat="43.31737" lon="-3.06117">
        <ele>97.6</ele>
        <time>2021-10-28 08:37:47</time>
      </trkpt>
      <trkpt lat="43.31736" lon="-3.06122">
        <ele>97.8</ele>
        <time>2021-10-28 08:37:48</time>
      </trkpt>
      <trkpt lat="43.31733" lon="-3.06136">
        <ele>97.8</ele>
        <time>2021-10-28 08:37:50</time>
      </trkpt>
      <trkpt lat="43.31732" lon="-3.06143">
        <ele>98.2</ele>
        <time>2021-10-28 08:37:51</time>
      </trkpt>
      <trkpt lat="43.31731" lon="-3.06155">
        <ele>98.4</ele>
        <time>2021-10-28 08:37:53</time>
      </trkpt>
      <trkpt lat="43.31731" lon="-3.06155">
        <ele>98.6</ele>
        <time>2021-10-28 08:37:54</time>
      </trkpt>
      <trkpt lat="43.31728" lon="-3.06176">
        <ele>98.8</ele>
        <time>2021-10-28 08:37:56</time>
      </trkpt>
      <trkpt lat="43.31725" lon="-3.06189">
        <ele>99.2</ele>
        <time>2021-10-28 08:37:57</time>
      </trkpt>
      <trkpt lat="43.31725" lon="-3.06197">
        <ele>99.4</ele>
        <time>2021-10-28 08:37:58</time>
      </trkpt>
      <trkpt lat="43.31725" lon="-3.06197">
        <ele>99.6</ele>
        <time>2021-10-28 08:37:59</time>
      </trkpt>
      <trkpt lat="43.31724" lon="-3.06204">
        <ele>99.8</ele>
        <time>2021-10-28 08:38:00</time>
      </trkpt>
      <trkpt lat="43.31725" lon="-3.06217">
        <ele>100</ele>
        <time>2021-10-28 08:38:01</time>
      </trkpt>
      <trkpt lat="43.31725" lon="-3.06217">
        <ele>100.2</ele>
        <time>2021-10-28 08:38:02</time>
      </trkpt>
      <trkpt lat="43.31725" lon="-3.06225">
        <ele>100.4</ele>
        <time>2021-10-28 08:38:03</time>
      </trkpt>
      <trkpt lat="43.31726" lon="-3.06231">
        <ele>100.6</ele>
        <time>2021-10-28 08:38:04</time>
      </trkpt>
      <trkpt lat="43.31726" lon="-3.06236">
        <ele>100.6</ele>
        <time>2021-10-28 08:38:05</time>
      </trkpt>
      <trkpt lat="43.31727" lon="-3.0625">
        <ele>100.8</ele>
        <time>2021-10-28 08:38:07</time>
      </trkpt>
      <trkpt lat="43.31727" lon="-3.0625">
        <ele>101</ele>
        <time>2021-10-28 08:38:08</time>
      </trkpt>
      <trkpt lat="43.31729" lon="-3.06269">
        <ele>101.2</ele>
        <time>2021-10-28 08:38:10</time>
      </trkpt>
      <trkpt lat="43.3173" lon="-3.06276">
        <ele>101.4</ele>
        <time>2021-10-28 08:38:11</time>
      </trkpt>
      <trkpt lat="43.31734" lon="-3.06288">
        <ele>101.6</ele>
        <time>2021-10-28 08:38:12</time>
      </trkpt>
      <trkpt lat="43.31734" lon="-3.06288">
        <ele>101.6</ele>
        <time>2021-10-28 08:38:13</time>
      </trkpt>
      <trkpt lat="43.31736" lon="-3.06301">
        <ele>101.6</ele>
        <time>2021-10-28 08:38:14</time>
      </trkpt>
      <trkpt lat="43.31739" lon="-3.06307">
        <ele>101.6</ele>
        <time>2021-10-28 08:38:15</time>
      </trkpt>
      <trkpt lat="43.31739" lon="-3.06307">
        <ele>101.6</ele>
        <time>2021-10-28 08:38:16</time>
      </trkpt>
      <trkpt lat="43.31743" lon="-3.06313">
        <ele>101.6</ele>
        <time>2021-10-28 08:38:17</time>
      </trkpt>
      <trkpt lat="43.3175" lon="-3.06324">
        <ele>101.4</ele>
        <time>2021-10-28 08:38:18</time>
      </trkpt>
      <trkpt lat="43.3175" lon="-3.06324">
        <ele>101.4</ele>
        <time>2021-10-28 08:38:19</time>
      </trkpt>
      <trkpt lat="43.3176" lon="-3.06334">
        <ele>101.4</ele>
        <time>2021-10-28 08:38:21</time>
      </trkpt>
      <trkpt lat="43.31766" lon="-3.06338">
        <ele>101.4</ele>
        <time>2021-10-28 08:38:22</time>
      </trkpt>
      <trkpt lat="43.31776" lon="-3.06347">
        <ele>101.4</ele>
        <time>2021-10-28 08:38:24</time>
      </trkpt>
      <trkpt lat="43.31778" lon="-3.06355">
        <ele>101.6</ele>
        <time>2021-10-28 08:38:25</time>
      </trkpt>
      <trkpt lat="43.31781" lon="-3.06363">
        <ele>101.6</ele>
        <time>2021-10-28 08:38:27</time>
      </trkpt>
      <trkpt lat="43.31788" lon="-3.0637">
        <ele>101.8</ele>
        <time>2021-10-28 08:38:28</time>
      </trkpt>
      <trkpt lat="43.3179" lon="-3.06373">
        <ele>102</ele>
        <time>2021-10-28 08:38:29</time>
      </trkpt>
      <trkpt lat="43.3179" lon="-3.06373">
        <ele>102.2</ele>
        <time>2021-10-28 08:38:30</time>
      </trkpt>
      <trkpt lat="43.31793" lon="-3.06378">
        <ele>102.2</ele>
        <time>2021-10-28 08:38:31</time>
      </trkpt>
      <trkpt lat="43.31799" lon="-3.06389">
        <ele>102.2</ele>
        <time>2021-10-28 08:38:32</time>
      </trkpt>
      <trkpt lat="43.31799" lon="-3.06389">
        <ele>102.4</ele>
        <time>2021-10-28 08:38:33</time>
      </trkpt>
      <trkpt lat="43.31805" lon="-3.06392">
        <ele>102.6</ele>
        <time>2021-10-28 08:38:34</time>
      </trkpt>
      <trkpt lat="43.31815" lon="-3.06397">
        <ele>102.6</ele>
        <time>2021-10-28 08:38:35</time>
      </trkpt>
      <trkpt lat="43.31815" lon="-3.06397">
        <ele>102.8</ele>
        <time>2021-10-28 08:38:36</time>
      </trkpt>
      <trkpt lat="43.31821" lon="-3.06407">
        <ele>103</ele>
        <time>2021-10-28 08:38:38</time>
      </trkpt>
      <trkpt lat="43.31826" lon="-3.0641">
        <ele>103</ele>
        <time>2021-10-28 08:38:39</time>
      </trkpt>
      <trkpt lat="43.31835" lon="-3.06417">
        <ele>103.2</ele>
        <time>2021-10-28 08:38:41</time>
      </trkpt>
      <trkpt lat="43.31835" lon="-3.06417">
        <ele>103.6</ele>
        <time>2021-10-28 08:38:42</time>
      </trkpt>
      <trkpt lat="43.31844" lon="-3.06433">
        <ele>103.6</ele>
        <time>2021-10-28 08:38:43</time>
      </trkpt>
      <trkpt lat="43.31844" lon="-3.06433">
        <ele>103.8</ele>
        <time>2021-10-28 08:38:44</time>
      </trkpt>
      <trkpt lat="43.31852" lon="-3.06439">
        <ele>103.8</ele>
        <time>2021-10-28 08:38:45</time>
      </trkpt>
      <trkpt lat="43.31852" lon="-3.06439">
        <ele>104</ele>
        <time>2021-10-28 08:38:46</time>
      </trkpt>
      <trkpt lat="43.31856" lon="-3.06443">
        <ele>104</ele>
        <time>2021-10-28 08:38:47</time>
      </trkpt>
      <trkpt lat="43.31863" lon="-3.06451">
        <ele>104.2</ele>
        <time>2021-10-28 08:38:49</time>
      </trkpt>
      <trkpt lat="43.31869" lon="-3.0646">
        <ele>104.4</ele>
        <time>2021-10-28 08:38:50</time>
      </trkpt>
      <trkpt lat="43.31874" lon="-3.06465">
        <ele>104.6</ele>
        <time>2021-10-28 08:38:52</time>
      </trkpt>
      <trkpt lat="43.31877" lon="-3.06469">
        <ele>104.8</ele>
        <time>2021-10-28 08:38:53</time>
      </trkpt>
      <trkpt lat="43.31881" lon="-3.06477">
        <ele>104.8</ele>
        <time>2021-10-28 08:38:54</time>
      </trkpt>
      <trkpt lat="43.31881" lon="-3.06477">
        <ele>105</ele>
        <time>2021-10-28 08:38:55</time>
      </trkpt>
      <trkpt lat="43.31885" lon="-3.06488">
        <ele>105</ele>
        <time>2021-10-28 08:38:56</time>
      </trkpt>
      <trkpt lat="43.31888" lon="-3.06492">
        <ele>105</ele>
        <time>2021-10-28 08:38:57</time>
      </trkpt>
      <trkpt lat="43.31888" lon="-3.06492">
        <ele>105.2</ele>
        <time>2021-10-28 08:38:58</time>
      </trkpt>
      <trkpt lat="43.31895" lon="-3.06504">
        <ele>105.2</ele>
        <time>2021-10-28 08:39:00</time>
      </trkpt>
      <trkpt lat="43.31898" lon="-3.06508">
        <ele>105.6</ele>
        <time>2021-10-28 08:39:01</time>
      </trkpt>
      <trkpt lat="43.31902" lon="-3.06522">
        <ele>105.6</ele>
        <time>2021-10-28 08:39:03</time>
      </trkpt>
      <trkpt lat="43.31902" lon="-3.06522">
        <ele>105.8</ele>
        <time>2021-10-28 08:39:04</time>
      </trkpt>
      <trkpt lat="43.31907" lon="-3.06541">
        <ele>105.8</ele>
        <time>2021-10-28 08:39:05</time>
      </trkpt>
      <trkpt lat="43.31907" lon="-3.06549">
        <ele>106</ele>
        <time>2021-10-28 08:39:06</time>
      </trkpt>
      <trkpt lat="43.31907" lon="-3.06549">
        <ele>106.2</ele>
        <time>2021-10-28 08:39:07</time>
      </trkpt>
      <trkpt lat="43.31907" lon="-3.06549">
        <ele>106.2</ele>
        <time>2021-10-28 08:39:08</time>
      </trkpt>
      <trkpt lat="43.31913" lon="-3.06568">
        <ele>106.4</ele>
        <time>2021-10-28 08:39:09</time>
      </trkpt>
      <trkpt lat="43.31914" lon="-3.06572">
        <ele>106.6</ele>
        <time>2021-10-28 08:39:11</time>
      </trkpt>
      <trkpt lat="43.31916" lon="-3.06578">
        <ele>106.8</ele>
        <time>2021-10-28 08:39:12</time>
      </trkpt>
      <trkpt lat="43.31918" lon="-3.06591">
        <ele>107</ele>
        <time>2021-10-28 08:39:13</time>
      </trkpt>
      <trkpt lat="43.31918" lon="-3.06591">
        <ele>107.2</ele>
        <time>2021-10-28 08:39:14</time>
      </trkpt>
      <trkpt lat="43.31918" lon="-3.06591">
        <ele>107.2</ele>
        <time>2021-10-28 08:39:15</time>
      </trkpt>
      <trkpt lat="43.31923" lon="-3.06602">
        <ele>107.4</ele>
        <time>2021-10-28 08:39:16</time>
      </trkpt>
      <trkpt lat="43.31927" lon="-3.06614">
        <ele>107.4</ele>
        <time>2021-10-28 08:39:17</time>
      </trkpt>
      <trkpt lat="43.31931" lon="-3.06618">
        <ele>107.6</ele>
        <time>2021-10-28 08:39:18</time>
      </trkpt>
      <trkpt lat="43.31931" lon="-3.06618">
        <ele>107.6</ele>
        <time>2021-10-28 08:39:19</time>
      </trkpt>
      <trkpt lat="43.31934" lon="-3.06624">
        <ele>107.6</ele>
        <time>2021-10-28 08:39:20</time>
      </trkpt>
      <trkpt lat="43.31937" lon="-3.06629">
        <ele>107.6</ele>
        <time>2021-10-28 08:39:21</time>
      </trkpt>
      <trkpt lat="43.31942" lon="-3.06638">
        <ele>107.8</ele>
        <time>2021-10-28 08:39:22</time>
      </trkpt>
      <trkpt lat="43.31946" lon="-3.06642">
        <ele>107.8</ele>
        <time>2021-10-28 08:39:24</time>
      </trkpt>
      <trkpt lat="43.31954" lon="-3.06649">
        <ele>108.2</ele>
        <time>2021-10-28 08:39:25</time>
      </trkpt>
      <trkpt lat="43.31957" lon="-3.06652">
        <ele>108.2</ele>
        <time>2021-10-28 08:39:26</time>
      </trkpt>
      <trkpt lat="43.31957" lon="-3.06652">
        <ele>108.4</ele>
        <time>2021-10-28 08:39:27</time>
      </trkpt>
      <trkpt lat="43.31966" lon="-3.06657">
        <ele>108.4</ele>
        <time>2021-10-28 08:39:28</time>
      </trkpt>
      <trkpt lat="43.31966" lon="-3.06657">
        <ele>108.4</ele>
        <time>2021-10-28 08:39:29</time>
      </trkpt>
      <trkpt lat="43.31972" lon="-3.06659">
        <ele>108.6</ele>
        <time>2021-10-28 08:39:30</time>
      </trkpt>
      <trkpt lat="43.3198" lon="-3.06662">
        <ele>108.6</ele>
        <time>2021-10-28 08:39:31</time>
      </trkpt>
      <trkpt lat="43.3198" lon="-3.06662">
        <ele>108.8</ele>
        <time>2021-10-28 08:39:32</time>
      </trkpt>
      <trkpt lat="43.31986" lon="-3.06668">
        <ele>108.8</ele>
        <time>2021-10-28 08:39:33</time>
      </trkpt>
      <trkpt lat="43.31986" lon="-3.06668">
        <ele>109</ele>
        <time>2021-10-28 08:39:34</time>
      </trkpt>
      <trkpt lat="43.31991" lon="-3.06675">
        <ele>109</ele>
        <time>2021-10-28 08:39:35</time>
      </trkpt>
      <trkpt lat="43.31994" lon="-3.06679">
        <ele>109.2</ele>
        <time>2021-10-28 08:39:37</time>
      </trkpt>
      <trkpt lat="43.31994" lon="-3.06679">
        <ele>109.4</ele>
        <time>2021-10-28 08:39:38</time>
      </trkpt>
      <trkpt lat="43.3201" lon="-3.06681">
        <ele>109.4</ele>
        <time>2021-10-28 08:39:39</time>
      </trkpt>
      <trkpt lat="43.3201" lon="-3.06681">
        <ele>109.6</ele>
        <time>2021-10-28 08:39:40</time>
      </trkpt>
      <trkpt lat="43.32018" lon="-3.06688">
        <ele>109.8</ele>
        <time>2021-10-28 08:39:41</time>
      </trkpt>
      <trkpt lat="43.32018" lon="-3.06688">
        <ele>109.8</ele>
        <time>2021-10-28 08:39:42</time>
      </trkpt>
      <trkpt lat="43.3203" lon="-3.06691">
        <ele>109.8</ele>
        <time>2021-10-28 08:39:43</time>
      </trkpt>
      <trkpt lat="43.32036" lon="-3.06692">
        <ele>109.8</ele>
        <time>2021-10-28 08:39:45</time>
      </trkpt>
      <trkpt lat="43.3204" lon="-3.06694">
        <ele>110.2</ele>
        <time>2021-10-28 08:39:46</time>
      </trkpt>
      <trkpt lat="43.32048" lon="-3.06701">
        <ele>110.4</ele>
        <time>2021-10-28 08:39:47</time>
      </trkpt>
      <trkpt lat="43.32048" lon="-3.06701">
        <ele>110.4</ele>
        <time>2021-10-28 08:39:48</time>
      </trkpt>
      <trkpt lat="43.32052" lon="-3.06706">
        <ele>110.6</ele>
        <time>2021-10-28 08:39:49</time>
      </trkpt>
      <trkpt lat="43.32055" lon="-3.0671">
        <ele>110.8</ele>
        <time>2021-10-28 08:39:50</time>
      </trkpt>
      <trkpt lat="43.3206" lon="-3.06717">
        <ele>110.8</ele>
        <time>2021-10-28 08:39:51</time>
      </trkpt>
      <trkpt lat="43.32063" lon="-3.06721">
        <ele>111</ele>
        <time>2021-10-28 08:39:52</time>
      </trkpt>
      <trkpt lat="43.32063" lon="-3.06721">
        <ele>111</ele>
        <time>2021-10-28 08:39:53</time>
      </trkpt>
      <trkpt lat="43.32066" lon="-3.06734">
        <ele>111.2</ele>
        <time>2021-10-28 08:39:54</time>
      </trkpt>
      <trkpt lat="43.32066" lon="-3.06734">
        <ele>111.2</ele>
        <time>2021-10-28 08:39:55</time>
      </trkpt>
      <trkpt lat="43.32072" lon="-3.06742">
        <ele>111.2</ele>
        <time>2021-10-28 08:39:56</time>
      </trkpt>
      <trkpt lat="43.32075" lon="-3.06748">
        <ele>111.4</ele>
        <time>2021-10-28 08:39:58</time>
      </trkpt>
      <trkpt lat="43.32075" lon="-3.06755">
        <ele>111.4</ele>
        <time>2021-10-28 08:39:59</time>
      </trkpt>
      <trkpt lat="43.32076" lon="-3.06768">
        <ele>111.6</ele>
        <time>2021-10-28 08:40:00</time>
      </trkpt>
      <trkpt lat="43.32076" lon="-3.06768">
        <ele>111.6</ele>
        <time>2021-10-28 08:40:01</time>
      </trkpt>
      <trkpt lat="43.32076" lon="-3.06768">
        <ele>111.8</ele>
        <time>2021-10-28 08:40:02</time>
      </trkpt>
      <trkpt lat="43.3208" lon="-3.06776">
        <ele>111.8</ele>
        <time>2021-10-28 08:40:03</time>
      </trkpt>
      <trkpt lat="43.32082" lon="-3.06781">
        <ele>111.8</ele>
        <time>2021-10-28 08:40:04</time>
      </trkpt>
      <trkpt lat="43.32086" lon="-3.06793">
        <ele>112</ele>
        <time>2021-10-28 08:40:06</time>
      </trkpt>
      <trkpt lat="43.32087" lon="-3.06799">
        <ele>112.2</ele>
        <time>2021-10-28 08:40:07</time>
      </trkpt>
      <trkpt lat="43.32092" lon="-3.0681">
        <ele>112.4</ele>
        <time>2021-10-28 08:40:08</time>
      </trkpt>
      <trkpt lat="43.32092" lon="-3.0681">
        <ele>112.4</ele>
        <time>2021-10-28 08:40:09</time>
      </trkpt>
      <trkpt lat="43.32094" lon="-3.06816">
        <ele>112.6</ele>
        <time>2021-10-28 08:40:10</time>
      </trkpt>
      <trkpt lat="43.32098" lon="-3.06829">
        <ele>112.6</ele>
        <time>2021-10-28 08:40:11</time>
      </trkpt>
      <trkpt lat="43.32098" lon="-3.06829">
        <ele>112.8</ele>
        <time>2021-10-28 08:40:12</time>
      </trkpt>
      <trkpt lat="43.32101" lon="-3.0684">
        <ele>113</ele>
        <time>2021-10-28 08:40:14</time>
      </trkpt>
      <trkpt lat="43.32102" lon="-3.06845">
        <ele>113.2</ele>
        <time>2021-10-28 08:40:15</time>
      </trkpt>
      <trkpt lat="43.32106" lon="-3.06856">
        <ele>113.2</ele>
        <time>2021-10-28 08:40:16</time>
      </trkpt>
      <trkpt lat="43.32106" lon="-3.06856">
        <ele>113.4</ele>
        <time>2021-10-28 08:40:17</time>
      </trkpt>
      <trkpt lat="43.32108" lon="-3.06867">
        <ele>113.4</ele>
        <time>2021-10-28 08:40:18</time>
      </trkpt>
      <trkpt lat="43.32108" lon="-3.06867">
        <ele>113.6</ele>
        <time>2021-10-28 08:40:19</time>
      </trkpt>
      <trkpt lat="43.3211" lon="-3.06873">
        <ele>113.6</ele>
        <time>2021-10-28 08:40:20</time>
      </trkpt>
      <trkpt lat="43.32112" lon="-3.06885">
        <ele>113.8</ele>
        <time>2021-10-28 08:40:21</time>
      </trkpt>
      <trkpt lat="43.32112" lon="-3.06885">
        <ele>113.8</ele>
        <time>2021-10-28 08:40:22</time>
      </trkpt>
      <trkpt lat="43.32115" lon="-3.06897">
        <ele>114</ele>
        <time>2021-10-28 08:40:23</time>
      </trkpt>
      <trkpt lat="43.32117" lon="-3.06903">
        <ele>114.2</ele>
        <time>2021-10-28 08:40:24</time>
      </trkpt>
      <trkpt lat="43.32117" lon="-3.06903">
        <ele>114.4</ele>
        <time>2021-10-28 08:40:25</time>
      </trkpt>
      <trkpt lat="43.32118" lon="-3.06909">
        <ele>114.8</ele>
        <time>2021-10-28 08:40:27</time>
      </trkpt>
      <trkpt lat="43.32122" lon="-3.06921">
        <ele>115</ele>
        <time>2021-10-28 08:40:28</time>
      </trkpt>
      <trkpt lat="43.32125" lon="-3.06933">
        <ele>115</ele>
        <time>2021-10-28 08:40:29</time>
      </trkpt>
      <trkpt lat="43.32125" lon="-3.06933">
        <ele>115.2</ele>
        <time>2021-10-28 08:40:30</time>
      </trkpt>
      <trkpt lat="43.32128" lon="-3.06945">
        <ele>115.2</ele>
        <time>2021-10-28 08:40:31</time>
      </trkpt>
      <trkpt lat="43.32128" lon="-3.06951">
        <ele>115.4</ele>
        <time>2021-10-28 08:40:32</time>
      </trkpt>
      <trkpt lat="43.32128" lon="-3.06951">
        <ele>115.8</ele>
        <time>2021-10-28 08:40:33</time>
      </trkpt>
      <trkpt lat="43.32129" lon="-3.06958">
        <ele>116</ele>
        <time>2021-10-28 08:40:34</time>
      </trkpt>
      <trkpt lat="43.32129" lon="-3.06966">
        <ele>116.4</ele>
        <time>2021-10-28 08:40:35</time>
      </trkpt>
      <trkpt lat="43.32129" lon="-3.06972">
        <ele>116.4</ele>
        <time>2021-10-28 08:40:36</time>
      </trkpt>
      <trkpt lat="43.32129" lon="-3.06985">
        <ele>116.6</ele>
        <time>2021-10-28 08:40:38</time>
      </trkpt>
      <trkpt lat="43.32128" lon="-3.06999">
        <ele>116.8</ele>
        <time>2021-10-28 08:40:39</time>
      </trkpt>
      <trkpt lat="43.32127" lon="-3.07006">
        <ele>116.8</ele>
        <time>2021-10-28 08:40:40</time>
      </trkpt>
      <trkpt lat="43.32127" lon="-3.07006">
        <ele>117</ele>
        <time>2021-10-28 08:40:41</time>
      </trkpt>
      <trkpt lat="43.32127" lon="-3.07006">
        <ele>117</ele>
        <time>2021-10-28 08:40:42</time>
      </trkpt>
      <trkpt lat="43.32123" lon="-3.07018">
        <ele>117</ele>
        <time>2021-10-28 08:40:43</time>
      </trkpt>
      <trkpt lat="43.32122" lon="-3.07031">
        <ele>117</ele>
        <time>2021-10-28 08:40:44</time>
      </trkpt>
      <trkpt lat="43.32121" lon="-3.07037">
        <ele>117</ele>
        <time>2021-10-28 08:40:46</time>
      </trkpt>
      <trkpt lat="43.32121" lon="-3.07042">
        <ele>116.8</ele>
        <time>2021-10-28 08:40:47</time>
      </trkpt>
      <trkpt lat="43.32117" lon="-3.07055">
        <ele>116.8</ele>
        <time>2021-10-28 08:40:48</time>
      </trkpt>
      <trkpt lat="43.32117" lon="-3.07055">
        <ele>116.8</ele>
        <time>2021-10-28 08:40:49</time>
      </trkpt>
      <trkpt lat="43.32116" lon="-3.07062">
        <ele>117</ele>
        <time>2021-10-28 08:40:50</time>
      </trkpt>
      <trkpt lat="43.32115" lon="-3.07067">
        <ele>117.2</ele>
        <time>2021-10-28 08:40:51</time>
      </trkpt>
      <trkpt lat="43.32112" lon="-3.07074">
        <ele>117.8</ele>
        <time>2021-10-28 08:40:52</time>
      </trkpt>
      <trkpt lat="43.3211" lon="-3.07078">
        <ele>118.6</ele>
        <time>2021-10-28 08:40:54</time>
      </trkpt>
      <trkpt lat="43.3211" lon="-3.07078">
        <ele>120</ele>
        <time>2021-10-28 08:40:55</time>
      </trkpt>
      <trkpt lat="43.32107" lon="-3.07086">
        <ele>120.2</ele>
        <time>2021-10-28 08:40:56</time>
      </trkpt>
      <trkpt lat="43.32107" lon="-3.07086">
        <ele>120.2</ele>
        <time>2021-10-28 08:40:57</time>
      </trkpt>
      <trkpt lat="43.32102" lon="-3.07094">
        <ele>120.2</ele>
        <time>2021-10-28 08:40:58</time>
      </trkpt>
      <trkpt lat="43.32098" lon="-3.07105">
        <ele>120.2</ele>
        <time>2021-10-28 08:40:59</time>
      </trkpt>
      <trkpt lat="43.32098" lon="-3.07105">
        <ele>120.2</ele>
        <time>2021-10-28 08:41:00</time>
      </trkpt>
      <trkpt lat="43.32096" lon="-3.07108">
        <ele>120.2</ele>
        <time>2021-10-28 08:41:02</time>
      </trkpt>
      <trkpt lat="43.32087" lon="-3.0712">
        <ele>120.2</ele>
        <time>2021-10-28 08:41:03</time>
      </trkpt>
      <trkpt lat="43.32085" lon="-3.07125">
        <ele>120.4</ele>
        <time>2021-10-28 08:41:05</time>
      </trkpt>
      <trkpt lat="43.32084" lon="-3.07128">
        <ele>120.6</ele>
        <time>2021-10-28 08:41:06</time>
      </trkpt>
      <trkpt lat="43.32079" lon="-3.07139">
        <ele>120.8</ele>
        <time>2021-10-28 08:41:07</time>
      </trkpt>
      <trkpt lat="43.32079" lon="-3.07139">
        <ele>121.2</ele>
        <time>2021-10-28 08:41:08</time>
      </trkpt>
      <trkpt lat="43.32076" lon="-3.0715">
        <ele>121.4</ele>
        <time>2021-10-28 08:41:09</time>
      </trkpt>
      <trkpt lat="43.32076" lon="-3.0715">
        <ele>121.8</ele>
        <time>2021-10-28 08:41:10</time>
      </trkpt>
      <trkpt lat="43.32077" lon="-3.07161">
        <ele>122</ele>
        <time>2021-10-28 08:41:11</time>
      </trkpt>
      <trkpt lat="43.3208" lon="-3.07165">
        <ele>122.2</ele>
        <time>2021-10-28 08:41:13</time>
      </trkpt>
      <trkpt lat="43.32089" lon="-3.07166">
        <ele>122.4</ele>
        <time>2021-10-28 08:41:14</time>
      </trkpt>
      <trkpt lat="43.32094" lon="-3.07166">
        <ele>122.6</ele>
        <time>2021-10-28 08:41:15</time>
      </trkpt>
      <trkpt lat="43.32094" lon="-3.07166">
        <ele>122.8</ele>
        <time>2021-10-28 08:41:16</time>
      </trkpt>
      <trkpt lat="43.32101" lon="-3.07165">
        <ele>123</ele>
        <time>2021-10-28 08:41:17</time>
      </trkpt>
      <trkpt lat="43.32104" lon="-3.07165">
        <ele>123.2</ele>
        <time>2021-10-28 08:41:18</time>
      </trkpt>
      <trkpt lat="43.32104" lon="-3.07165">
        <ele>123.4</ele>
        <time>2021-10-28 08:41:19</time>
      </trkpt>
      <trkpt lat="43.32104" lon="-3.07165">
        <ele>123.6</ele>
        <time>2021-10-28 08:41:21</time>
      </trkpt>
      <trkpt lat="43.32116" lon="-3.07163">
        <ele>123.8</ele>
        <time>2021-10-28 08:41:22</time>
      </trkpt>
      <trkpt lat="43.32123" lon="-3.07161">
        <ele>124</ele>
        <time>2021-10-28 08:41:23</time>
      </trkpt>
      <trkpt lat="43.32123" lon="-3.07161">
        <ele>124</ele>
        <time>2021-10-28 08:41:24</time>
      </trkpt>
      <trkpt lat="43.32123" lon="-3.07161">
        <ele>124.2</ele>
        <time>2021-10-28 08:41:25</time>
      </trkpt>
      <trkpt lat="43.32134" lon="-3.07155">
        <ele>124.2</ele>
        <time>2021-10-28 08:41:26</time>
      </trkpt>
      <trkpt lat="43.32134" lon="-3.07155">
        <ele>124.4</ele>
        <time>2021-10-28 08:41:27</time>
      </trkpt>
      <trkpt lat="43.32141" lon="-3.0715">
        <ele>124.4</ele>
        <time>2021-10-28 08:41:28</time>
      </trkpt>
      <trkpt lat="43.32141" lon="-3.0715">
        <ele>124.6</ele>
        <time>2021-10-28 08:41:29</time>
      </trkpt>
      <trkpt lat="43.32144" lon="-3.07149">
        <ele>124.6</ele>
        <time>2021-10-28 08:41:30</time>
      </trkpt>
      <trkpt lat="43.3215" lon="-3.07142">
        <ele>124.6</ele>
        <time>2021-10-28 08:41:32</time>
      </trkpt>
      <trkpt lat="43.32157" lon="-3.07135">
        <ele>124.4</ele>
        <time>2021-10-28 08:41:33</time>
      </trkpt>
      <trkpt lat="43.32158" lon="-3.07131">
        <ele>124.4</ele>
        <time>2021-10-28 08:41:34</time>
      </trkpt>
      <trkpt lat="43.32158" lon="-3.07131">
        <ele>124.4</ele>
        <time>2021-10-28 08:41:35</time>
      </trkpt>
      <trkpt lat="43.32158" lon="-3.07131">
        <ele>124.4</ele>
        <time>2021-10-28 08:41:36</time>
      </trkpt>
      <trkpt lat="43.32165" lon="-3.07119">
        <ele>124.2</ele>
        <time>2021-10-28 08:41:37</time>
      </trkpt>
      <trkpt lat="43.32168" lon="-3.07115">
        <ele>124.2</ele>
        <time>2021-10-28 08:41:38</time>
      </trkpt>
      <trkpt lat="43.32171" lon="-3.07105">
        <ele>124.2</ele>
        <time>2021-10-28 08:41:40</time>
      </trkpt>
      <trkpt lat="43.32175" lon="-3.07094">
        <ele>123.8</ele>
        <time>2021-10-28 08:41:41</time>
      </trkpt>
      <trkpt lat="43.32177" lon="-3.07086">
        <ele>123.8</ele>
        <time>2021-10-28 08:41:42</time>
      </trkpt>
      <trkpt lat="43.32177" lon="-3.07086">
        <ele>123.6</ele>
        <time>2021-10-28 08:41:43</time>
      </trkpt>
      <trkpt lat="43.32177" lon="-3.07081">
        <ele>123.6</ele>
        <time>2021-10-28 08:41:44</time>
      </trkpt>
      <trkpt lat="43.32178" lon="-3.07068">
        <ele>123.6</ele>
        <time>2021-10-28 08:41:45</time>
      </trkpt>
      <trkpt lat="43.32178" lon="-3.07068">
        <ele>123.4</ele>
        <time>2021-10-28 08:41:46</time>
      </trkpt>
      <trkpt lat="43.32179" lon="-3.07058">
        <ele>123.4</ele>
        <time>2021-10-28 08:41:48</time>
      </trkpt>
      <trkpt lat="43.32183" lon="-3.07046">
        <ele>123.2</ele>
        <time>2021-10-28 08:41:49</time>
      </trkpt>
      <trkpt lat="43.32185" lon="-3.07043">
        <ele>123.2</ele>
        <time>2021-10-28 08:41:50</time>
      </trkpt>
      <trkpt lat="43.32185" lon="-3.07043">
        <ele>123.4</ele>
        <time>2021-10-28 08:41:51</time>
      </trkpt>
      <trkpt lat="43.32185" lon="-3.07043">
        <ele>123.6</ele>
        <time>2021-10-28 08:41:52</time>
      </trkpt>
      <trkpt lat="43.32191" lon="-3.07039">
        <ele>123.8</ele>
        <time>2021-10-28 08:41:53</time>
      </trkpt>
      <trkpt lat="43.32197" lon="-3.07042">
        <ele>124</ele>
        <time>2021-10-28 08:41:54</time>
      </trkpt>
      <trkpt lat="43.32201" lon="-3.07044">
        <ele>124.4</ele>
        <time>2021-10-28 08:41:56</time>
      </trkpt>
      <trkpt lat="43.32205" lon="-3.07047">
        <ele>125.4</ele>
        <time>2021-10-28 08:41:57</time>
      </trkpt>
      <trkpt lat="43.32206" lon="-3.07051">
        <ele>125.6</ele>
        <time>2021-10-28 08:41:58</time>
      </trkpt>
      <trkpt lat="43.32206" lon="-3.07051">
        <ele>125.8</ele>
        <time>2021-10-28 08:41:59</time>
      </trkpt>
      <trkpt lat="43.32209" lon="-3.07055">
        <ele>126.2</ele>
        <time>2021-10-28 08:42:00</time>
      </trkpt>
      <trkpt lat="43.32214" lon="-3.0706">
        <ele>126.4</ele>
        <time>2021-10-28 08:42:01</time>
      </trkpt>
      <trkpt lat="43.32216" lon="-3.07063">
        <ele>126.8</ele>
        <time>2021-10-28 08:42:02</time>
      </trkpt>
      <trkpt lat="43.32217" lon="-3.07068">
        <ele>127</ele>
        <time>2021-10-28 08:42:04</time>
      </trkpt>
      <trkpt lat="43.32218" lon="-3.07074">
        <ele>127.8</ele>
        <time>2021-10-28 08:42:05</time>
      </trkpt>
      <trkpt lat="43.32218" lon="-3.07079">
        <ele>128.2</ele>
        <time>2021-10-28 08:42:06</time>
      </trkpt>
      <trkpt lat="43.32218" lon="-3.07079">
        <ele>128.4</ele>
        <time>2021-10-28 08:42:07</time>
      </trkpt>
      <trkpt lat="43.32219" lon="-3.07087">
        <ele>128.8</ele>
        <time>2021-10-28 08:42:08</time>
      </trkpt>
      <trkpt lat="43.32219" lon="-3.07087">
        <ele>129</ele>
        <time>2021-10-28 08:42:09</time>
      </trkpt>
      <trkpt lat="43.32219" lon="-3.0709">
        <ele>129.2</ele>
        <time>2021-10-28 08:42:10</time>
      </trkpt>
      <trkpt lat="43.32222" lon="-3.07097">
        <ele>129.4</ele>
        <time>2021-10-28 08:42:12</time>
      </trkpt>
      <trkpt lat="43.32223" lon="-3.07102">
        <ele>130</ele>
        <time>2021-10-28 08:42:13</time>
      </trkpt>
      <trkpt lat="43.32224" lon="-3.07113">
        <ele>130.2</ele>
        <time>2021-10-28 08:42:14</time>
      </trkpt>
      <trkpt lat="43.32224" lon="-3.07116">
        <ele>130.4</ele>
        <time>2021-10-28 08:42:15</time>
      </trkpt>
      <trkpt lat="43.32224" lon="-3.07116">
        <ele>130.6</ele>
        <time>2021-10-28 08:42:16</time>
      </trkpt>
      <trkpt lat="43.32223" lon="-3.07121">
        <ele>130.8</ele>
        <time>2021-10-28 08:42:17</time>
      </trkpt>
      <trkpt lat="43.32223" lon="-3.0713">
        <ele>130.8</ele>
        <time>2021-10-28 08:42:18</time>
      </trkpt>
      <trkpt lat="43.32225" lon="-3.07133">
        <ele>131</ele>
        <time>2021-10-28 08:42:20</time>
      </trkpt>
      <trkpt lat="43.32223" lon="-3.0714">
        <ele>131.4</ele>
        <time>2021-10-28 08:42:21</time>
      </trkpt>
      <trkpt lat="43.32224" lon="-3.07143">
        <ele>131.6</ele>
        <time>2021-10-28 08:42:22</time>
      </trkpt>
      <trkpt lat="43.32224" lon="-3.07143">
        <ele>131.8</ele>
        <time>2021-10-28 08:42:23</time>
      </trkpt>
      <trkpt lat="43.32221" lon="-3.07154">
        <ele>131.8</ele>
        <time>2021-10-28 08:42:24</time>
      </trkpt>
      <trkpt lat="43.32221" lon="-3.07154">
        <ele>132</ele>
        <time>2021-10-28 08:42:25</time>
      </trkpt>
      <trkpt lat="43.32221" lon="-3.07154">
        <ele>132.2</ele>
        <time>2021-10-28 08:42:26</time>
      </trkpt>
      <trkpt lat="43.3222" lon="-3.07167">
        <ele>132.6</ele>
        <time>2021-10-28 08:42:28</time>
      </trkpt>
      <trkpt lat="43.32222" lon="-3.0717">
        <ele>132.8</ele>
        <time>2021-10-28 08:42:29</time>
      </trkpt>
      <trkpt lat="43.32216" lon="-3.07177">
        <ele>133</ele>
        <time>2021-10-28 08:42:30</time>
      </trkpt>
      <trkpt lat="43.32216" lon="-3.07177">
        <ele>133</ele>
        <time>2021-10-28 08:42:31</time>
      </trkpt>
      <trkpt lat="43.32216" lon="-3.07179">
        <ele>133</ele>
        <time>2021-10-28 08:42:32</time>
      </trkpt>
      <trkpt lat="43.32213" lon="-3.07187">
        <ele>133</ele>
        <time>2021-10-28 08:42:33</time>
      </trkpt>
      <trkpt lat="43.32213" lon="-3.07187">
        <ele>133.2</ele>
        <time>2021-10-28 08:42:34</time>
      </trkpt>
      <trkpt lat="43.32212" lon="-3.0719">
        <ele>133.2</ele>
        <time>2021-10-28 08:42:36</time>
      </trkpt>
      <trkpt lat="43.32208" lon="-3.07196">
        <ele>133.4</ele>
        <time>2021-10-28 08:42:37</time>
      </trkpt>
      <trkpt lat="43.32201" lon="-3.07206">
        <ele>133.4</ele>
        <time>2021-10-28 08:42:39</time>
      </trkpt>
      <trkpt lat="43.32198" lon="-3.07208">
        <ele>133</ele>
        <time>2021-10-28 08:42:40</time>
      </trkpt>
      <trkpt lat="43.32191" lon="-3.07216">
        <ele>133</ele>
        <time>2021-10-28 08:42:41</time>
      </trkpt>
      <trkpt lat="43.32187" lon="-3.07223">
        <ele>132.8</ele>
        <time>2021-10-28 08:42:42</time>
      </trkpt>
      <trkpt lat="43.32187" lon="-3.07223">
        <ele>132.6</ele>
        <time>2021-10-28 08:42:43</time>
      </trkpt>
      <trkpt lat="43.32182" lon="-3.07236">
        <ele>132</ele>
        <time>2021-10-28 08:42:44</time>
      </trkpt>
      <trkpt lat="43.32182" lon="-3.07236">
        <ele>131.4</ele>
        <time>2021-10-28 08:42:45</time>
      </trkpt>
      <trkpt lat="43.32182" lon="-3.07253">
        <ele>130.6</ele>
        <time>2021-10-28 08:42:47</time>
      </trkpt>
      <trkpt lat="43.32182" lon="-3.07264">
        <ele>129.4</ele>
        <time>2021-10-28 08:42:48</time>
      </trkpt>
      <trkpt lat="43.32183" lon="-3.07289">
        <ele>129.2</ele>
        <time>2021-10-28 08:42:49</time>
      </trkpt>
      <trkpt lat="43.32183" lon="-3.07289">
        <ele>129.2</ele>
        <time>2021-10-28 08:42:50</time>
      </trkpt>
      <trkpt lat="43.32185" lon="-3.07319">
        <ele>129.2</ele>
        <time>2021-10-28 08:42:51</time>
      </trkpt>
      <trkpt lat="43.32185" lon="-3.07319">
        <ele>129.2</ele>
        <time>2021-10-28 08:42:52</time>
      </trkpt>
      <trkpt lat="43.32185" lon="-3.07335">
        <ele>129.2</ele>
        <time>2021-10-28 08:42:53</time>
      </trkpt>
      <trkpt lat="43.32194" lon="-3.07337">
        <ele>129.2</ele>
        <time>2021-10-28 08:42:55</time>
      </trkpt>
      <trkpt lat="43.32194" lon="-3.07337">
        <ele>129.6</ele>
        <time>2021-10-28 08:42:56</time>
      </trkpt>
      <trkpt lat="43.32206" lon="-3.07356">
        <ele>129.6</ele>
        <time>2021-10-28 08:42:57</time>
      </trkpt>
      <trkpt lat="43.32206" lon="-3.07356">
        <ele>129.8</ele>
        <time>2021-10-28 08:42:58</time>
      </trkpt>
      <trkpt lat="43.32215" lon="-3.07363">
        <ele>129.8</ele>
        <time>2021-10-28 08:42:59</time>
      </trkpt>
      <trkpt lat="43.32215" lon="-3.07363">
        <ele>130</ele>
        <time>2021-10-28 08:43:00</time>
      </trkpt>
      <trkpt lat="43.32226" lon="-3.07373">
        <ele>130.2</ele>
        <time>2021-10-28 08:43:01</time>
      </trkpt>
      <trkpt lat="43.32231" lon="-3.07377">
        <ele>130.4</ele>
        <time>2021-10-28 08:43:03</time>
      </trkpt>
      <trkpt lat="43.32241" lon="-3.07384">
        <ele>131</ele>
        <time>2021-10-28 08:43:04</time>
      </trkpt>
      <trkpt lat="43.32244" lon="-3.0739">
        <ele>131</ele>
        <time>2021-10-28 08:43:05</time>
      </trkpt>
      <trkpt lat="43.32244" lon="-3.0739">
        <ele>131.2</ele>
        <time>2021-10-28 08:43:06</time>
      </trkpt>
      <trkpt lat="43.32248" lon="-3.07394">
        <ele>131.2</ele>
        <time>2021-10-28 08:43:07</time>
      </trkpt>
      <trkpt lat="43.32256" lon="-3.07404">
        <ele>131.4</ele>
        <time>2021-10-28 08:43:08</time>
      </trkpt>
      <trkpt lat="43.32256" lon="-3.07404">
        <ele>131.4</ele>
        <time>2021-10-28 08:43:09</time>
      </trkpt>
      <trkpt lat="43.32263" lon="-3.07416">
        <ele>131.6</ele>
        <time>2021-10-28 08:43:11</time>
      </trkpt>
      <trkpt lat="43.32273" lon="-3.07423">
        <ele>131.8</ele>
        <time>2021-10-28 08:43:12</time>
      </trkpt>
      <trkpt lat="43.32278" lon="-3.07429">
        <ele>131.8</ele>
        <time>2021-10-28 08:43:13</time>
      </trkpt>
      <trkpt lat="43.32278" lon="-3.07429">
        <ele>132</ele>
        <time>2021-10-28 08:43:14</time>
      </trkpt>
      <trkpt lat="43.3229" lon="-3.07436">
        <ele>132</ele>
        <time>2021-10-28 08:43:16</time>
      </trkpt>
      <trkpt lat="43.32299" lon="-3.07444">
        <ele>132.4</ele>
        <time>2021-10-28 08:43:17</time>
      </trkpt>
      <trkpt lat="43.32304" lon="-3.07448">
        <ele>132.6</ele>
        <time>2021-10-28 08:43:18</time>
      </trkpt>
      <trkpt lat="43.32304" lon="-3.07448">
        <ele>132.6</ele>
        <time>2021-10-28 08:43:19</time>
      </trkpt>
      <trkpt lat="43.32308" lon="-3.07452">
        <ele>132.8</ele>
        <time>2021-10-28 08:43:20</time>
      </trkpt>
      <trkpt lat="43.32312" lon="-3.07456">
        <ele>132.8</ele>
        <time>2021-10-28 08:43:21</time>
      </trkpt>
      <trkpt lat="43.32319" lon="-3.07464">
        <ele>133</ele>
        <time>2021-10-28 08:43:22</time>
      </trkpt>
      <trkpt lat="43.32323" lon="-3.07469">
        <ele>133.2</ele>
        <time>2021-10-28 08:43:24</time>
      </trkpt>
      <trkpt lat="43.32328" lon="-3.07472">
        <ele>133.4</ele>
        <time>2021-10-28 08:43:25</time>
      </trkpt>
      <trkpt lat="43.32334" lon="-3.07482">
        <ele>133.6</ele>
        <time>2021-10-28 08:43:26</time>
      </trkpt>
      <trkpt lat="43.32334" lon="-3.07482">
        <ele>133.6</ele>
        <time>2021-10-28 08:43:27</time>
      </trkpt>
      <trkpt lat="43.32342" lon="-3.07494">
        <ele>133.8</ele>
        <time>2021-10-28 08:43:28</time>
      </trkpt>
      <trkpt lat="43.32342" lon="-3.07494">
        <ele>133.8</ele>
        <time>2021-10-28 08:43:29</time>
      </trkpt>
      <trkpt lat="43.32342" lon="-3.07494">
        <ele>134</ele>
        <time>2021-10-28 08:43:30</time>
      </trkpt>
      <trkpt lat="43.32355" lon="-3.0751">
        <ele>134</ele>
        <time>2021-10-28 08:43:31</time>
      </trkpt>
      <trkpt lat="43.32355" lon="-3.0751">
        <ele>134.2</ele>
        <time>2021-10-28 08:43:32</time>
      </trkpt>
      <trkpt lat="43.32362" lon="-3.0752">
        <ele>134.4</ele>
        <time>2021-10-28 08:43:33</time>
      </trkpt>
      <trkpt lat="43.32362" lon="-3.0752">
        <ele>134.4</ele>
        <time>2021-10-28 08:43:34</time>
      </trkpt>
      <trkpt lat="43.32366" lon="-3.07526">
        <ele>134.4</ele>
        <time>2021-10-28 08:43:35</time>
      </trkpt>
      <trkpt lat="43.32373" lon="-3.07537">
        <ele>134.4</ele>
        <time>2021-10-28 08:43:37</time>
      </trkpt>
      <trkpt lat="43.32383" lon="-3.07546">
        <ele>134.4</ele>
        <time>2021-10-28 08:43:38</time>
      </trkpt>
      <trkpt lat="43.32387" lon="-3.07553">
        <ele>134.4</ele>
        <time>2021-10-28 08:43:39</time>
      </trkpt>
      <trkpt lat="43.32387" lon="-3.07553">
        <ele>134.4</ele>
        <time>2021-10-28 08:43:40</time>
      </trkpt>
      <trkpt lat="43.32394" lon="-3.07567">
        <ele>134.2</ele>
        <time>2021-10-28 08:43:41</time>
      </trkpt>
      <trkpt lat="43.32394" lon="-3.07567">
        <ele>134.2</ele>
        <time>2021-10-28 08:43:42</time>
      </trkpt>
      <trkpt lat="43.32397" lon="-3.07575">
        <ele>134</ele>
        <time>2021-10-28 08:43:43</time>
      </trkpt>
      <trkpt lat="43.32403" lon="-3.07593">
        <ele>133.8</ele>
        <time>2021-10-28 08:43:44</time>
      </trkpt>
      <trkpt lat="43.32403" lon="-3.07593">
        <ele>133.4</ele>
        <time>2021-10-28 08:43:45</time>
      </trkpt>
      <trkpt lat="43.3241" lon="-3.07601">
        <ele>133</ele>
        <time>2021-10-28 08:43:46</time>
      </trkpt>
      <trkpt lat="43.32418" lon="-3.07618">
        <ele>132.8</ele>
        <time>2021-10-28 08:43:47</time>
      </trkpt>
      <trkpt lat="43.32422" lon="-3.07626">
        <ele>132.6</ele>
        <time>2021-10-28 08:43:48</time>
      </trkpt>
      <trkpt lat="43.32426" lon="-3.07634">
        <ele>132.2</ele>
        <time>2021-10-28 08:43:50</time>
      </trkpt>
      <trkpt lat="43.32436" lon="-3.07649">
        <ele>131.4</ele>
        <time>2021-10-28 08:43:51</time>
      </trkpt>
      <trkpt lat="43.3244" lon="-3.0766">
        <ele>131</ele>
        <time>2021-10-28 08:43:52</time>
      </trkpt>
      <trkpt lat="43.3244" lon="-3.0766">
        <ele>130.8</ele>
        <time>2021-10-28 08:43:53</time>
      </trkpt>
      <trkpt lat="43.32445" lon="-3.07678">
        <ele>130.6</ele>
        <time>2021-10-28 08:43:54</time>
      </trkpt>
      <trkpt lat="43.32445" lon="-3.07678">
        <ele>130.2</ele>
        <time>2021-10-28 08:43:55</time>
      </trkpt>
      <trkpt lat="43.32445" lon="-3.07678">
        <ele>129.8</ele>
        <time>2021-10-28 08:43:56</time>
      </trkpt>
      <trkpt lat="43.32462" lon="-3.07692">
        <ele>129.4</ele>
        <time>2021-10-28 08:43:58</time>
      </trkpt>
      <trkpt lat="43.32462" lon="-3.07692">
        <ele>128.8</ele>
        <time>2021-10-28 08:43:59</time>
      </trkpt>
      <trkpt lat="43.3248" lon="-3.07689">
        <ele>128.4</ele>
        <time>2021-10-28 08:44:00</time>
      </trkpt>
      <trkpt lat="43.3248" lon="-3.07689">
        <ele>128.2</ele>
        <time>2021-10-28 08:44:01</time>
      </trkpt>
      <trkpt lat="43.32488" lon="-3.07673">
        <ele>128</ele>
        <time>2021-10-28 08:44:03</time>
      </trkpt>
      <trkpt lat="43.3249" lon="-3.07662">
        <ele>127.8</ele>
        <time>2021-10-28 08:44:04</time>
      </trkpt>
      <trkpt lat="43.32489" lon="-3.07645">
        <ele>127.8</ele>
        <time>2021-10-28 08:44:05</time>
      </trkpt>
      <trkpt lat="43.3249" lon="-3.07635">
        <ele>127.8</ele>
        <time>2021-10-28 08:44:06</time>
      </trkpt>
      <trkpt lat="43.3249" lon="-3.07635">
        <ele>127.8</ele>
        <time>2021-10-28 08:44:07</time>
      </trkpt>
      <trkpt lat="43.32492" lon="-3.07625">
        <ele>127.8</ele>
        <time>2021-10-28 08:44:08</time>
      </trkpt>
      <trkpt lat="43.32495" lon="-3.07606">
        <ele>127.8</ele>
        <time>2021-10-28 08:44:09</time>
      </trkpt>
      <trkpt lat="43.32496" lon="-3.07597">
        <ele>128</ele>
        <time>2021-10-28 08:44:11</time>
      </trkpt>
      <trkpt lat="43.32497" lon="-3.07588">
        <ele>128.4</ele>
        <time>2021-10-28 08:44:12</time>
      </trkpt>
      <trkpt lat="43.32501" lon="-3.07572">
        <ele>128.6</ele>
        <time>2021-10-28 08:44:13</time>
      </trkpt>
      <trkpt lat="43.32501" lon="-3.07572">
        <ele>128.6</ele>
        <time>2021-10-28 08:44:14</time>
      </trkpt>
      <trkpt lat="43.32502" lon="-3.07565">
        <ele>128.8</ele>
        <time>2021-10-28 08:44:15</time>
      </trkpt>
      <trkpt lat="43.32507" lon="-3.07553">
        <ele>129</ele>
        <time>2021-10-28 08:44:16</time>
      </trkpt>
      <trkpt lat="43.3251" lon="-3.07549">
        <ele>129.2</ele>
        <time>2021-10-28 08:44:17</time>
      </trkpt>
      <trkpt lat="43.32511" lon="-3.07543">
        <ele>129.4</ele>
        <time>2021-10-28 08:44:18</time>
      </trkpt>
      <trkpt lat="43.32511" lon="-3.07543">
        <ele>129.6</ele>
        <time>2021-10-28 08:44:19</time>
      </trkpt>
      <trkpt lat="43.32519" lon="-3.07531">
        <ele>129.8</ele>
        <time>2021-10-28 08:44:20</time>
      </trkpt>
      <trkpt lat="43.32519" lon="-3.07531">
        <ele>130</ele>
        <time>2021-10-28 08:44:21</time>
      </trkpt>
      <trkpt lat="43.32521" lon="-3.07523">
        <ele>130</ele>
        <time>2021-10-28 08:44:22</time>
      </trkpt>
      <trkpt lat="43.32525" lon="-3.07517">
        <ele>130.2</ele>
        <time>2021-10-28 08:44:24</time>
      </trkpt>
      <trkpt lat="43.32525" lon="-3.07517">
        <ele>130.4</ele>
        <time>2021-10-28 08:44:25</time>
      </trkpt>
      <trkpt lat="43.32535" lon="-3.07502">
        <ele>130.6</ele>
        <time>2021-10-28 08:44:26</time>
      </trkpt>
      <trkpt lat="43.32535" lon="-3.07502">
        <ele>130.8</ele>
        <time>2021-10-28 08:44:27</time>
      </trkpt>
      <trkpt lat="43.32535" lon="-3.07502">
        <ele>130.8</ele>
        <time>2021-10-28 08:44:28</time>
      </trkpt>
      <trkpt lat="43.32545" lon="-3.07498">
        <ele>131</ele>
        <time>2021-10-28 08:44:29</time>
      </trkpt>
      <trkpt lat="43.32554" lon="-3.07497">
        <ele>131.2</ele>
        <time>2021-10-28 08:44:30</time>
      </trkpt>
      <trkpt lat="43.32559" lon="-3.07497">
        <ele>131.2</ele>
        <time>2021-10-28 08:44:32</time>
      </trkpt>
      <trkpt lat="43.32562" lon="-3.075">
        <ele>131.6</ele>
        <time>2021-10-28 08:44:33</time>
      </trkpt>
      <trkpt lat="43.32568" lon="-3.0751">
        <ele>131.8</ele>
        <time>2021-10-28 08:44:34</time>
      </trkpt>
      <trkpt lat="43.32568" lon="-3.0751">
        <ele>132</ele>
        <time>2021-10-28 08:44:35</time>
      </trkpt>
      <trkpt lat="43.32568" lon="-3.07515">
        <ele>132</ele>
        <time>2021-10-28 08:44:36</time>
      </trkpt>
      <trkpt lat="43.32572" lon="-3.07526">
        <ele>132.2</ele>
        <time>2021-10-28 08:44:37</time>
      </trkpt>
      <trkpt lat="43.32572" lon="-3.07526">
        <ele>132.4</ele>
        <time>2021-10-28 08:44:38</time>
      </trkpt>
      <trkpt lat="43.32573" lon="-3.07541">
        <ele>132.6</ele>
        <time>2021-10-28 08:44:39</time>
      </trkpt>
      <trkpt lat="43.32573" lon="-3.07541">
        <ele>132.8</ele>
        <time>2021-10-28 08:44:40</time>
      </trkpt>
      <trkpt lat="43.32574" lon="-3.07548">
        <ele>132.8</ele>
        <time>2021-10-28 08:44:41</time>
      </trkpt>
      <trkpt lat="43.32578" lon="-3.07559">
        <ele>133</ele>
        <time>2021-10-28 08:44:42</time>
      </trkpt>
      <trkpt lat="43.32578" lon="-3.07559">
        <ele>133.2</ele>
        <time>2021-10-28 08:44:43</time>
      </trkpt>
      <trkpt lat="43.32579" lon="-3.07573">
        <ele>133.4</ele>
        <time>2021-10-28 08:44:45</time>
      </trkpt>
      <trkpt lat="43.32583" lon="-3.07584">
        <ele>134</ele>
        <time>2021-10-28 08:44:46</time>
      </trkpt>
      <trkpt lat="43.32585" lon="-3.07589">
        <ele>134.2</ele>
        <time>2021-10-28 08:44:47</time>
      </trkpt>
      <trkpt lat="43.32585" lon="-3.07589">
        <ele>134.2</ele>
        <time>2021-10-28 08:44:48</time>
      </trkpt>
      <trkpt lat="43.32587" lon="-3.07594">
        <ele>134.4</ele>
        <time>2021-10-28 08:44:49</time>
      </trkpt>
      <trkpt lat="43.32589" lon="-3.07601">
        <ele>134.4</ele>
        <time>2021-10-28 08:44:50</time>
      </trkpt>
      <trkpt lat="43.32593" lon="-3.0761">
        <ele>134.6</ele>
        <time>2021-10-28 08:44:51</time>
      </trkpt>
      <trkpt lat="43.32594" lon="-3.07617">
        <ele>134.6</ele>
        <time>2021-10-28 08:44:52</time>
      </trkpt>
      <trkpt lat="43.32594" lon="-3.07617">
        <ele>134.8</ele>
        <time>2021-10-28 08:44:53</time>
      </trkpt>
      <trkpt lat="43.32595" lon="-3.07622">
        <ele>135</ele>
        <time>2021-10-28 08:44:54</time>
      </trkpt>
      <trkpt lat="43.32598" lon="-3.07632">
        <ele>135</ele>
        <time>2021-10-28 08:44:55</time>
      </trkpt>
      <trkpt lat="43.32598" lon="-3.07632">
        <ele>135.2</ele>
        <time>2021-10-28 08:44:56</time>
      </trkpt>
      <trkpt lat="43.326" lon="-3.07642">
        <ele>135.2</ele>
        <time>2021-10-28 08:44:58</time>
      </trkpt>
      <trkpt lat="43.32603" lon="-3.07652">
        <ele>135.6</ele>
        <time>2021-10-28 08:44:59</time>
      </trkpt>
      <trkpt lat="43.32602" lon="-3.07659">
        <ele>135.6</ele>
        <time>2021-10-28 08:45:00</time>
      </trkpt>
      <trkpt lat="43.32602" lon="-3.07659">
        <ele>135.6</ele>
        <time>2021-10-28 08:45:01</time>
      </trkpt>
      <trkpt lat="43.32602" lon="-3.07673">
        <ele>135.8</ele>
        <time>2021-10-28 08:45:02</time>
      </trkpt>
      <trkpt lat="43.32602" lon="-3.07673">
        <ele>135.8</ele>
        <time>2021-10-28 08:45:03</time>
      </trkpt>
      <trkpt lat="43.32606" lon="-3.07684">
        <ele>135.8</ele>
        <time>2021-10-28 08:45:04</time>
      </trkpt>
      <trkpt lat="43.32606" lon="-3.07691">
        <ele>136</ele>
        <time>2021-10-28 08:45:05</time>
      </trkpt>
      <trkpt lat="43.32608" lon="-3.07695">
        <ele>136</ele>
        <time>2021-10-28 08:45:06</time>
      </trkpt>
      <trkpt lat="43.32608" lon="-3.07695">
        <ele>136.2</ele>
        <time>2021-10-28 08:45:07</time>
      </trkpt>
      <trkpt lat="43.32613" lon="-3.07703">
        <ele>136.2</ele>
        <time>2021-10-28 08:45:08</time>
      </trkpt>
      <trkpt lat="43.32613" lon="-3.07703">
        <ele>136.4</ele>
        <time>2021-10-28 08:45:09</time>
      </trkpt>
      <trkpt lat="43.32612" lon="-3.0771">
        <ele>136.4</ele>
        <time>2021-10-28 08:45:11</time>
      </trkpt>
      <trkpt lat="43.32617" lon="-3.07719">
        <ele>136.6</ele>
        <time>2021-10-28 08:45:12</time>
      </trkpt>
      <trkpt lat="43.32623" lon="-3.07728">
        <ele>136.8</ele>
        <time>2021-10-28 08:45:13</time>
      </trkpt>
      <trkpt lat="43.32623" lon="-3.07728">
        <ele>136.8</ele>
        <time>2021-10-28 08:45:14</time>
      </trkpt>
      <trkpt lat="43.32625" lon="-3.07733">
        <ele>137</ele>
        <time>2021-10-28 08:45:15</time>
      </trkpt>
      <trkpt lat="43.32631" lon="-3.0774">
        <ele>137.2</ele>
        <time>2021-10-28 08:45:16</time>
      </trkpt>
      <trkpt lat="43.32631" lon="-3.0774">
        <ele>137.2</ele>
        <time>2021-10-28 08:45:17</time>
      </trkpt>
      <trkpt lat="43.32637" lon="-3.07746">
        <ele>137.4</ele>
        <time>2021-10-28 08:45:18</time>
      </trkpt>
      <trkpt lat="43.32637" lon="-3.07746">
        <ele>137.4</ele>
        <time>2021-10-28 08:45:19</time>
      </trkpt>
      <trkpt lat="43.32649" lon="-3.07752">
        <ele>137.4</ele>
        <time>2021-10-28 08:45:20</time>
      </trkpt>
      <trkpt lat="43.32649" lon="-3.07752">
        <ele>137.4</ele>
        <time>2021-10-28 08:45:21</time>
      </trkpt>
      <trkpt lat="43.32657" lon="-3.07759">
        <ele>137.4</ele>
        <time>2021-10-28 08:45:22</time>
      </trkpt>
      <trkpt lat="43.32661" lon="-3.07762">
        <ele>137.4</ele>
        <time>2021-10-28 08:45:24</time>
      </trkpt>
      <trkpt lat="43.32665" lon="-3.07765">
        <ele>135.8</ele>
        <time>2021-10-28 08:45:25</time>
      </trkpt>
      <trkpt lat="43.32674" lon="-3.07773">
        <ele>135.8</ele>
        <time>2021-10-28 08:45:26</time>
      </trkpt>
      <trkpt lat="43.32678" lon="-3.07775">
        <ele>135.6</ele>
        <time>2021-10-28 08:45:27</time>
      </trkpt>
      <trkpt lat="43.32678" lon="-3.07775">
        <ele>138</ele>
        <time>2021-10-28 08:45:28</time>
      </trkpt>
      <trkpt lat="43.32686" lon="-3.07781">
        <ele>138</ele>
        <time>2021-10-28 08:45:29</time>
      </trkpt>
      <trkpt lat="43.32686" lon="-3.07781">
        <ele>137.4</ele>
        <time>2021-10-28 08:45:30</time>
      </trkpt>
      <trkpt lat="43.32697" lon="-3.07789">
        <ele>135.8</ele>
        <time>2021-10-28 08:45:31</time>
      </trkpt>
      <trkpt lat="43.32697" lon="-3.07789">
        <ele>136.4</ele>
        <time>2021-10-28 08:45:32</time>
      </trkpt>
      <trkpt lat="43.32706" lon="-3.07797">
        <ele>135.6</ele>
        <time>2021-10-28 08:45:33</time>
      </trkpt>
      <trkpt lat="43.32706" lon="-3.07797">
        <ele>135.6</ele>
        <time>2021-10-28 08:45:34</time>
      </trkpt>
      <trkpt lat="43.32709" lon="-3.07802">
        <ele>135.2</ele>
        <time>2021-10-28 08:45:35</time>
      </trkpt>
      <trkpt lat="43.32718" lon="-3.07811">
        <ele>136.8</ele>
        <time>2021-10-28 08:45:36</time>
      </trkpt>
      <trkpt lat="43.32718" lon="-3.07811">
        <ele>136.4</ele>
        <time>2021-10-28 08:45:37</time>
      </trkpt>
      <trkpt lat="43.32726" lon="-3.07818">
        <ele>136.2</ele>
        <time>2021-10-28 08:45:39</time>
      </trkpt>
      <trkpt lat="43.32737" lon="-3.07827">
        <ele>135.6</ele>
        <time>2021-10-28 08:45:40</time>
      </trkpt>
      <trkpt lat="43.32744" lon="-3.0783">
        <ele>135.4</ele>
        <time>2021-10-28 08:45:41</time>
      </trkpt>
      <trkpt lat="43.32744" lon="-3.0783">
        <ele>135.4</ele>
        <time>2021-10-28 08:45:42</time>
      </trkpt>
      <trkpt lat="43.32755" lon="-3.07837">
        <ele>135.2</ele>
        <time>2021-10-28 08:45:43</time>
      </trkpt>
      <trkpt lat="43.3276" lon="-3.07842">
        <ele>135.2</ele>
        <time>2021-10-28 08:45:44</time>
      </trkpt>
      <trkpt lat="43.3276" lon="-3.07842">
        <ele>135</ele>
        <time>2021-10-28 08:45:45</time>
      </trkpt>
      <trkpt lat="43.32772" lon="-3.07849">
        <ele>134.8</ele>
        <time>2021-10-28 08:45:46</time>
      </trkpt>
      <trkpt lat="43.32779" lon="-3.07852">
        <ele>134.8</ele>
        <time>2021-10-28 08:45:47</time>
      </trkpt>
      <trkpt lat="43.32779" lon="-3.07852">
        <ele>134.6</ele>
        <time>2021-10-28 08:45:48</time>
      </trkpt>
      <trkpt lat="43.32784" lon="-3.07856">
        <ele>134.4</ele>
        <time>2021-10-28 08:45:49</time>
      </trkpt>
      <trkpt lat="43.32795" lon="-3.07864">
        <ele>134.2</ele>
        <time>2021-10-28 08:45:50</time>
      </trkpt>
      <trkpt lat="43.32801" lon="-3.07867">
        <ele>134.2</ele>
        <time>2021-10-28 08:45:52</time>
      </trkpt>
      <trkpt lat="43.32805" lon="-3.0787">
        <ele>133.8</ele>
        <time>2021-10-28 08:45:53</time>
      </trkpt>
      <trkpt lat="43.3282" lon="-3.07874">
        <ele>133.6</ele>
        <time>2021-10-28 08:45:54</time>
      </trkpt>
      <trkpt lat="43.32826" lon="-3.07876">
        <ele>133.6</ele>
        <time>2021-10-28 08:45:55</time>
      </trkpt>
      <trkpt lat="43.32826" lon="-3.07876">
        <ele>133.4</ele>
        <time>2021-10-28 08:45:56</time>
      </trkpt>
      <trkpt lat="43.3284" lon="-3.07879">
        <ele>133.4</ele>
        <time>2021-10-28 08:45:57</time>
      </trkpt>
      <trkpt lat="43.3284" lon="-3.07879">
        <ele>133.2</ele>
        <time>2021-10-28 08:45:58</time>
      </trkpt>
      <trkpt lat="43.32854" lon="-3.07885">
        <ele>133.2</ele>
        <time>2021-10-28 08:45:59</time>
      </trkpt>
      <trkpt lat="43.32854" lon="-3.07885">
        <ele>133</ele>
        <time>2021-10-28 08:46:00</time>
      </trkpt>
      <trkpt lat="43.3286" lon="-3.07887">
        <ele>133</ele>
        <time>2021-10-28 08:46:01</time>
      </trkpt>
      <trkpt lat="43.32875" lon="-3.07892">
        <ele>132.8</ele>
        <time>2021-10-28 08:46:02</time>
      </trkpt>
      <trkpt lat="43.32875" lon="-3.07892">
        <ele>132.6</ele>
        <time>2021-10-28 08:46:03</time>
      </trkpt>
      <trkpt lat="43.32888" lon="-3.07897">
        <ele>132.4</ele>
        <time>2021-10-28 08:46:05</time>
      </trkpt>
      <trkpt lat="43.32897" lon="-3.07906">
        <ele>132.2</ele>
        <time>2021-10-28 08:46:06</time>
      </trkpt>
      <trkpt lat="43.32903" lon="-3.0791">
        <ele>132.2</ele>
        <time>2021-10-28 08:46:07</time>
      </trkpt>
      <trkpt lat="43.32903" lon="-3.0791">
        <ele>132.2</ele>
        <time>2021-10-28 08:46:08</time>
      </trkpt>
      <trkpt lat="43.32912" lon="-3.07921">
        <ele>132.2</ele>
        <time>2021-10-28 08:46:09</time>
      </trkpt>
      <trkpt lat="43.32918" lon="-3.07924">
        <ele>132.2</ele>
        <time>2021-10-28 08:46:10</time>
      </trkpt>
      <trkpt lat="43.32918" lon="-3.07924">
        <ele>132.4</ele>
        <time>2021-10-28 08:46:11</time>
      </trkpt>
      <trkpt lat="43.32926" lon="-3.07931">
        <ele>132.4</ele>
        <time>2021-10-28 08:46:12</time>
      </trkpt>
      <trkpt lat="43.32926" lon="-3.07931">
        <ele>132.6</ele>
        <time>2021-10-28 08:46:13</time>
      </trkpt>
      <trkpt lat="43.3293" lon="-3.07934">
        <ele>132.6</ele>
        <time>2021-10-28 08:46:14</time>
      </trkpt>
      <trkpt lat="43.3294" lon="-3.07932">
        <ele>132.8</ele>
        <time>2021-10-28 08:46:15</time>
      </trkpt>
      <trkpt lat="43.3294" lon="-3.07932">
        <ele>133</ele>
        <time>2021-10-28 08:46:16</time>
      </trkpt>
      <trkpt lat="43.32947" lon="-3.07923">
        <ele>133.2</ele>
        <time>2021-10-28 08:46:18</time>
      </trkpt>
      <trkpt lat="43.32951" lon="-3.07918">
        <ele>133.4</ele>
        <time>2021-10-28 08:46:19</time>
      </trkpt>
      <trkpt lat="43.32959" lon="-3.07905">
        <ele>133.6</ele>
        <time>2021-10-28 08:46:20</time>
      </trkpt>
      <trkpt lat="43.32959" lon="-3.07905">
        <ele>133.6</ele>
        <time>2021-10-28 08:46:21</time>
      </trkpt>
      <trkpt lat="43.32966" lon="-3.07893">
        <ele>133.6</ele>
        <time>2021-10-28 08:46:22</time>
      </trkpt>
      <trkpt lat="43.32966" lon="-3.07893">
        <ele>133.8</ele>
        <time>2021-10-28 08:46:23</time>
      </trkpt>
      <trkpt lat="43.32972" lon="-3.07884">
        <ele>133.8</ele>
        <time>2021-10-28 08:46:24</time>
      </trkpt>
      <trkpt lat="43.32973" lon="-3.0788">
        <ele>133.8</ele>
        <time>2021-10-28 08:46:26</time>
      </trkpt>
      <trkpt lat="43.32975" lon="-3.07868">
        <ele>134.2</ele>
        <time>2021-10-28 08:46:27</time>
      </trkpt>
      <trkpt lat="43.32974" lon="-3.07862">
        <ele>134.2</ele>
        <time>2021-10-28 08:46:28</time>
      </trkpt>
      <trkpt lat="43.32974" lon="-3.07862">
        <ele>134.4</ele>
        <time>2021-10-28 08:46:29</time>
      </trkpt>
      <trkpt lat="43.32975" lon="-3.07856">
        <ele>134.4</ele>
        <time>2021-10-28 08:46:30</time>
      </trkpt>
      <trkpt lat="43.32978" lon="-3.07844">
        <ele>134.2</ele>
        <time>2021-10-28 08:46:31</time>
      </trkpt>
      <trkpt lat="43.32978" lon="-3.07844">
        <ele>134.2</ele>
        <time>2021-10-28 08:46:32</time>
      </trkpt>
      <trkpt lat="43.32979" lon="-3.07831">
        <ele>134.2</ele>
        <time>2021-10-28 08:46:33</time>
      </trkpt>
      <trkpt lat="43.32979" lon="-3.07831">
        <ele>134</ele>
        <time>2021-10-28 08:46:34</time>
      </trkpt>
      <trkpt lat="43.32982" lon="-3.07815">
        <ele>133.8</ele>
        <time>2021-10-28 08:46:35</time>
      </trkpt>
      <trkpt lat="43.32982" lon="-3.07815">
        <ele>133.6</ele>
        <time>2021-10-28 08:46:36</time>
      </trkpt>
      <trkpt lat="43.32985" lon="-3.07797">
        <ele>133.4</ele>
        <time>2021-10-28 08:46:37</time>
      </trkpt>
      <trkpt lat="43.32987" lon="-3.07788">
        <ele>133.2</ele>
        <time>2021-10-28 08:46:39</time>
      </trkpt>
      <trkpt lat="43.32988" lon="-3.07779">
        <ele>132.4</ele>
        <time>2021-10-28 08:46:40</time>
      </trkpt>
      <trkpt lat="43.32991" lon="-3.07763">
        <ele>132</ele>
        <time>2021-10-28 08:46:41</time>
      </trkpt>
      <trkpt lat="43.32991" lon="-3.07763">
        <ele>131.8</ele>
        <time>2021-10-28 08:46:42</time>
      </trkpt>
      <trkpt lat="43.32991" lon="-3.07763">
        <ele>131.4</ele>
        <time>2021-10-28 08:46:43</time>
      </trkpt>
      <trkpt lat="43.32982" lon="-3.07737">
        <ele>131</ele>
        <time>2021-10-28 08:46:44</time>
      </trkpt>
      <trkpt lat="43.32982" lon="-3.07737">
        <ele>130.6</ele>
        <time>2021-10-28 08:46:45</time>
      </trkpt>
      <trkpt lat="43.3298" lon="-3.07718">
        <ele>130.4</ele>
        <time>2021-10-28 08:46:46</time>
      </trkpt>
      <trkpt lat="43.3298" lon="-3.07718">
        <ele>130</ele>
        <time>2021-10-28 08:46:47</time>
      </trkpt>
      <trkpt lat="43.32976" lon="-3.07709">
        <ele>129.6</ele>
        <time>2021-10-28 08:46:48</time>
      </trkpt>
      <trkpt lat="43.32969" lon="-3.0769">
        <ele>129.2</ele>
        <time>2021-10-28 08:46:49</time>
      </trkpt>
      <trkpt lat="43.32964" lon="-3.0768">
        <ele>128.8</ele>
        <time>2021-10-28 08:46:50</time>
      </trkpt>
      <trkpt lat="43.32964" lon="-3.0768">
        <ele>128.4</ele>
        <time>2021-10-28 08:46:52</time>
      </trkpt>
      <trkpt lat="43.32956" lon="-3.0766">
        <ele>127.4</ele>
        <time>2021-10-28 08:46:53</time>
      </trkpt>
      <trkpt lat="43.32951" lon="-3.07643">
        <ele>127</ele>
        <time>2021-10-28 08:46:54</time>
      </trkpt>
      <trkpt lat="43.32951" lon="-3.07643">
        <ele>126.8</ele>
        <time>2021-10-28 08:46:55</time>
      </trkpt>
      <trkpt lat="43.32951" lon="-3.07643">
        <ele>126.6</ele>
        <time>2021-10-28 08:46:56</time>
      </trkpt>
      <trkpt lat="43.32956" lon="-3.07621">
        <ele>126.2</ele>
        <time>2021-10-28 08:46:57</time>
      </trkpt>
      <trkpt lat="43.32965" lon="-3.07611">
        <ele>126</ele>
        <time>2021-10-28 08:46:58</time>
      </trkpt>
      <trkpt lat="43.32972" lon="-3.07609">
        <ele>126</ele>
        <time>2021-10-28 08:47:00</time>
      </trkpt>
      <trkpt lat="43.32984" lon="-3.07609">
        <ele>125.6</ele>
        <time>2021-10-28 08:47:01</time>
      </trkpt>
      <trkpt lat="43.32991" lon="-3.07609">
        <ele>125.4</ele>
        <time>2021-10-28 08:47:02</time>
      </trkpt>
      <trkpt lat="43.32991" lon="-3.07609">
        <ele>125.2</ele>
        <time>2021-10-28 08:47:03</time>
      </trkpt>
      <trkpt lat="43.33005" lon="-3.07608">
        <ele>124.8</ele>
        <time>2021-10-28 08:47:04</time>
      </trkpt>
      <trkpt lat="43.33005" lon="-3.07608">
        <ele>124.6</ele>
        <time>2021-10-28 08:47:05</time>
      </trkpt>
      <trkpt lat="43.3301" lon="-3.07605">
        <ele>124.2</ele>
        <time>2021-10-28 08:47:06</time>
      </trkpt>
      <trkpt lat="43.3302" lon="-3.0759">
        <ele>124</ele>
        <time>2021-10-28 08:47:08</time>
      </trkpt>
      <trkpt lat="43.33021" lon="-3.07579">
        <ele>123.6</ele>
        <time>2021-10-28 08:47:09</time>
      </trkpt>
      <trkpt lat="43.3302" lon="-3.0756">
        <ele>123.4</ele>
        <time>2021-10-28 08:47:10</time>
      </trkpt>
      <trkpt lat="43.3302" lon="-3.0756">
        <ele>123</ele>
        <time>2021-10-28 08:47:11</time>
      </trkpt>
      <trkpt lat="43.33017" lon="-3.07542">
        <ele>122.6</ele>
        <time>2021-10-28 08:47:12</time>
      </trkpt>
      <trkpt lat="43.33017" lon="-3.07542">
        <ele>122.4</ele>
        <time>2021-10-28 08:47:13</time>
      </trkpt>
      <trkpt lat="43.33017" lon="-3.07542">
        <ele>122.2</ele>
        <time>2021-10-28 08:47:14</time>
      </trkpt>
      <trkpt lat="43.33013" lon="-3.07512">
        <ele>122</ele>
        <time>2021-10-28 08:47:15</time>
      </trkpt>
      <trkpt lat="43.33013" lon="-3.07512">
        <ele>121.6</ele>
        <time>2021-10-28 08:47:16</time>
      </trkpt>
      <trkpt lat="43.33012" lon="-3.07507">
        <ele>121.4</ele>
        <time>2021-10-28 08:47:17</time>
      </trkpt>
      <trkpt lat="43.33009" lon="-3.07488">
        <ele>121.2</ele>
        <time>2021-10-28 08:47:18</time>
      </trkpt>
      <trkpt lat="43.33009" lon="-3.07478">
        <ele>121</ele>
        <time>2021-10-28 08:47:19</time>
      </trkpt>
      <trkpt lat="43.33009" lon="-3.07478">
        <ele>120.8</ele>
        <time>2021-10-28 08:47:21</time>
      </trkpt>
      <trkpt lat="43.33005" lon="-3.07453">
        <ele>120.4</ele>
        <time>2021-10-28 08:47:22</time>
      </trkpt>
      <trkpt lat="43.33005" lon="-3.07442">
        <ele>120.2</ele>
        <time>2021-10-28 08:47:23</time>
      </trkpt>
      <trkpt lat="43.33005" lon="-3.07442">
        <ele>120</ele>
        <time>2021-10-28 08:47:24</time>
      </trkpt>
      <trkpt lat="43.33003" lon="-3.0743">
        <ele>119.8</ele>
        <time>2021-10-28 08:47:25</time>
      </trkpt>
      <trkpt lat="43.33001" lon="-3.07422">
        <ele>119.4</ele>
        <time>2021-10-28 08:47:26</time>
      </trkpt>
      <trkpt lat="43.33001" lon="-3.07422">
        <ele>119.2</ele>
        <time>2021-10-28 08:47:27</time>
      </trkpt>
      <trkpt lat="43.33004" lon="-3.07412">
        <ele>119</ele>
        <time>2021-10-28 08:47:29</time>
      </trkpt>
      <trkpt lat="43.33011" lon="-3.07407">
        <ele>118.4</ele>
        <time>2021-10-28 08:47:30</time>
      </trkpt>
      <trkpt lat="43.3301" lon="-3.07408">
        <ele>118.2</ele>
        <time>2021-10-28 08:47:31</time>
      </trkpt>
      <trkpt lat="43.3301" lon="-3.07408">
        <ele>118</ele>
        <time>2021-10-28 08:47:32</time>
      </trkpt>
      <trkpt lat="43.33007" lon="-3.07408">
        <ele>117.6</ele>
        <time>2021-10-28 08:47:33</time>
      </trkpt>
      <trkpt lat="43.33007" lon="-3.07408">
        <ele>117.4</ele>
        <time>2021-10-28 08:47:34</time>
      </trkpt>
      <trkpt lat="43.3301" lon="-3.0741">
        <ele>117</ele>
        <time>2021-10-28 08:47:35</time>
      </trkpt>
      <trkpt lat="43.33033" lon="-3.07428">
        <ele>116.6</ele>
        <time>2021-10-28 08:47:36</time>
      </trkpt>
      <trkpt lat="43.33033" lon="-3.07428">
        <ele>116.2</ele>
        <time>2021-10-28 08:47:37</time>
      </trkpt>
      <trkpt lat="43.33044" lon="-3.07437">
        <ele>116</ele>
        <time>2021-10-28 08:47:38</time>
      </trkpt>
      <trkpt lat="43.33052" lon="-3.07442">
        <ele>115.8</ele>
        <time>2021-10-28 08:47:39</time>
      </trkpt>
      <trkpt lat="43.33058" lon="-3.07448">
        <ele>115.6</ele>
        <time>2021-10-28 08:47:40</time>
      </trkpt>
      <trkpt lat="43.33064" lon="-3.07463">
        <ele>115.4</ele>
        <time>2021-10-28 08:47:42</time>
      </trkpt>
      <trkpt lat="43.33069" lon="-3.07469">
        <ele>114.8</ele>
        <time>2021-10-28 08:47:43</time>
      </trkpt>
      <trkpt lat="43.33078" lon="-3.07481">
        <ele>114.6</ele>
        <time>2021-10-28 08:47:44</time>
      </trkpt>
      <trkpt lat="43.33078" lon="-3.07481">
        <ele>114.4</ele>
        <time>2021-10-28 08:47:45</time>
      </trkpt>
      <trkpt lat="43.33081" lon="-3.07487">
        <ele>114.2</ele>
        <time>2021-10-28 08:47:46</time>
      </trkpt>
      <trkpt lat="43.3309" lon="-3.07502">
        <ele>114</ele>
        <time>2021-10-28 08:47:47</time>
      </trkpt>
      <trkpt lat="43.3309" lon="-3.07502">
        <ele>113.8</ele>
        <time>2021-10-28 08:47:48</time>
      </trkpt>
      <trkpt lat="43.33099" lon="-3.07519">
        <ele>113.6</ele>
        <time>2021-10-28 08:47:50</time>
      </trkpt>
      <trkpt lat="43.33103" lon="-3.07525">
        <ele>112.8</ele>
        <time>2021-10-28 08:47:51</time>
      </trkpt>
      <trkpt lat="43.33107" lon="-3.07546">
        <ele>112.4</ele>
        <time>2021-10-28 08:47:52</time>
      </trkpt>
      <trkpt lat="43.33107" lon="-3.07546">
        <ele>111.8</ele>
        <time>2021-10-28 08:47:53</time>
      </trkpt>
      <trkpt lat="43.33113" lon="-3.07555">
        <ele>111.4</ele>
        <time>2021-10-28 08:47:54</time>
      </trkpt>
      <trkpt lat="43.33117" lon="-3.07565">
        <ele>111</ele>
        <time>2021-10-28 08:47:55</time>
      </trkpt>
      <trkpt lat="43.33129" lon="-3.07581">
        <ele>110.6</ele>
        <time>2021-10-28 08:47:56</time>
      </trkpt>
      <trkpt lat="43.33132" lon="-3.07593">
        <ele>110.2</ele>
        <time>2021-10-28 08:47:57</time>
      </trkpt>
      <trkpt lat="43.33132" lon="-3.07593">
        <ele>109.8</ele>
        <time>2021-10-28 08:47:58</time>
      </trkpt>
      <trkpt lat="43.33136" lon="-3.07601">
        <ele>109.2</ele>
        <time>2021-10-28 08:47:59</time>
      </trkpt>
      <trkpt lat="43.3314" lon="-3.07625">
        <ele>108.6</ele>
        <time>2021-10-28 08:48:00</time>
      </trkpt>
      <trkpt lat="43.3314" lon="-3.07625">
        <ele>108</ele>
        <time>2021-10-28 08:48:01</time>
      </trkpt>
      <trkpt lat="43.33135" lon="-3.07656">
        <ele>107.4</ele>
        <time>2021-10-28 08:48:03</time>
      </trkpt>
      <trkpt lat="43.33131" lon="-3.07669">
        <ele>106</ele>
        <time>2021-10-28 08:48:04</time>
      </trkpt>
      <trkpt lat="43.33121" lon="-3.0769">
        <ele>105.4</ele>
        <time>2021-10-28 08:48:05</time>
      </trkpt>
      <trkpt lat="43.33121" lon="-3.0769">
        <ele>105</ele>
        <time>2021-10-28 08:48:06</time>
      </trkpt>
      <trkpt lat="43.33112" lon="-3.07711">
        <ele>104.8</ele>
        <time>2021-10-28 08:48:07</time>
      </trkpt>
      <trkpt lat="43.3311" lon="-3.0772">
        <ele>104.4</ele>
        <time>2021-10-28 08:48:08</time>
      </trkpt>
      <trkpt lat="43.3311" lon="-3.0772">
        <ele>104.2</ele>
        <time>2021-10-28 08:48:09</time>
      </trkpt>
      <trkpt lat="43.3311" lon="-3.07742">
        <ele>103.8</ele>
        <time>2021-10-28 08:48:10</time>
      </trkpt>
      <trkpt lat="43.3311" lon="-3.07742">
        <ele>103.6</ele>
        <time>2021-10-28 08:48:11</time>
      </trkpt>
      <trkpt lat="43.33116" lon="-3.07761">
        <ele>103.4</ele>
        <time>2021-10-28 08:48:12</time>
      </trkpt>
      <trkpt lat="43.33123" lon="-3.0777">
        <ele>103.4</ele>
        <time>2021-10-28 08:48:13</time>
      </trkpt>
      <trkpt lat="43.33123" lon="-3.0777">
        <ele>103.4</ele>
        <time>2021-10-28 08:48:14</time>
      </trkpt>
      <trkpt lat="43.33133" lon="-3.07787">
        <ele>103.2</ele>
        <time>2021-10-28 08:48:15</time>
      </trkpt>
      <trkpt lat="43.33133" lon="-3.07787">
        <ele>103.2</ele>
        <time>2021-10-28 08:48:16</time>
      </trkpt>
      <trkpt lat="43.33142" lon="-3.07787">
        <ele>103</ele>
        <time>2021-10-28 08:48:17</time>
      </trkpt>
      <trkpt lat="43.33156" lon="-3.0779">
        <ele>102.8</ele>
        <time>2021-10-28 08:48:19</time>
      </trkpt>
      <trkpt lat="43.33171" lon="-3.07795">
        <ele>102.6</ele>
        <time>2021-10-28 08:48:20</time>
      </trkpt>
      <trkpt lat="43.33179" lon="-3.078">
        <ele>102.4</ele>
        <time>2021-10-28 08:48:21</time>
      </trkpt>
      <trkpt lat="43.33179" lon="-3.078">
        <ele>102.2</ele>
        <time>2021-10-28 08:48:22</time>
      </trkpt>
      <trkpt lat="43.33188" lon="-3.07814">
        <ele>102.2</ele>
        <time>2021-10-28 08:48:23</time>
      </trkpt>
      <trkpt lat="43.33188" lon="-3.07814">
        <ele>102.2</ele>
        <time>2021-10-28 08:48:24</time>
      </trkpt>
      <trkpt lat="43.33188" lon="-3.07814">
        <ele>102</ele>
        <time>2021-10-28 08:48:25</time>
      </trkpt>
      <trkpt lat="43.33204" lon="-3.07887">
        <ele>101.4</ele>
        <time>2021-10-28 08:48:27</time>
      </trkpt>
      <trkpt lat="43.33204" lon="-3.07887">
        <ele>101.2</ele>
        <time>2021-10-28 08:48:28</time>
      </trkpt>
      <trkpt lat="43.3321" lon="-3.0795">
        <ele>101.2</ele>
        <time>2021-10-28 08:48:29</time>
      </trkpt>
      <trkpt lat="43.33205" lon="-3.07956">
        <ele>101</ele>
        <time>2021-10-28 08:48:30</time>
      </trkpt>
      <trkpt lat="43.33193" lon="-3.07967">
        <ele>100.8</ele>
        <time>2021-10-28 08:48:31</time>
      </trkpt>
      <trkpt lat="43.33193" lon="-3.07967">
        <ele>100.6</ele>
        <time>2021-10-28 08:48:32</time>
      </trkpt>
      <trkpt lat="43.33179" lon="-3.07977">
        <ele>100.2</ele>
        <time>2021-10-28 08:48:33</time>
      </trkpt>
      <trkpt lat="43.33173" lon="-3.07983">
        <ele>100</ele>
        <time>2021-10-28 08:48:34</time>
      </trkpt>
      <trkpt lat="43.33173" lon="-3.07983">
        <ele>99.6</ele>
        <time>2021-10-28 08:48:35</time>
      </trkpt>
      <trkpt lat="43.33162" lon="-3.07997">
        <ele>99</ele>
        <time>2021-10-28 08:48:36</time>
      </trkpt>
      <trkpt lat="43.33154" lon="-3.08018">
        <ele>98</ele>
        <time>2021-10-28 08:48:37</time>
      </trkpt>
      <trkpt lat="43.33153" lon="-3.08031">
        <ele>97.4</ele>
        <time>2021-10-28 08:48:38</time>
      </trkpt>
      <trkpt lat="43.33153" lon="-3.08031">
        <ele>96.8</ele>
        <time>2021-10-28 08:48:40</time>
      </trkpt>
      <trkpt lat="43.33152" lon="-3.08056">
        <ele>96.4</ele>
        <time>2021-10-28 08:48:41</time>
      </trkpt>
      <trkpt lat="43.33152" lon="-3.08056">
        <ele>96</ele>
        <time>2021-10-28 08:48:42</time>
      </trkpt>
      <trkpt lat="43.33153" lon="-3.08078">
        <ele>95.6</ele>
        <time>2021-10-28 08:48:43</time>
      </trkpt>
      <trkpt lat="43.33153" lon="-3.08088">
        <ele>95.4</ele>
        <time>2021-10-28 08:48:44</time>
      </trkpt>
      <trkpt lat="43.33153" lon="-3.08088">
        <ele>95</ele>
        <time>2021-10-28 08:48:45</time>
      </trkpt>
      <trkpt lat="43.33157" lon="-3.08104">
        <ele>94.6</ele>
        <time>2021-10-28 08:48:46</time>
      </trkpt>
      <trkpt lat="43.33157" lon="-3.08104">
        <ele>94</ele>
        <time>2021-10-28 08:48:48</time>
      </trkpt>
      <trkpt lat="43.33168" lon="-3.08111">
        <ele>93.6</ele>
        <time>2021-10-28 08:48:49</time>
      </trkpt>
      <trkpt lat="43.33173" lon="-3.08111">
        <ele>93.4</ele>
        <time>2021-10-28 08:48:50</time>
      </trkpt>
      <trkpt lat="43.3318" lon="-3.08108">
        <ele>93</ele>
        <time>2021-10-28 08:48:51</time>
      </trkpt>
      <trkpt lat="43.33194" lon="-3.081">
        <ele>92.8</ele>
        <time>2021-10-28 08:48:52</time>
      </trkpt>
      <trkpt lat="43.33201" lon="-3.08098">
        <ele>92.6</ele>
        <time>2021-10-28 08:48:53</time>
      </trkpt>
      <trkpt lat="43.33201" lon="-3.08098">
        <ele>92.6</ele>
        <time>2021-10-28 08:48:54</time>
      </trkpt>
      <trkpt lat="43.33214" lon="-3.08095">
        <ele>92.4</ele>
        <time>2021-10-28 08:48:55</time>
      </trkpt>
      <trkpt lat="43.33214" lon="-3.08095">
        <ele>92.2</ele>
        <time>2021-10-28 08:48:56</time>
      </trkpt>
      <trkpt lat="43.33228" lon="-3.081">
        <ele>91.8</ele>
        <time>2021-10-28 08:48:57</time>
      </trkpt>
      <trkpt lat="43.33228" lon="-3.081">
        <ele>91.6</ele>
        <time>2021-10-28 08:48:58</time>
      </trkpt>
      <trkpt lat="43.33236" lon="-3.08105">
        <ele>91.4</ele>
        <time>2021-10-28 08:48:59</time>
      </trkpt>
      <trkpt lat="43.33244" lon="-3.08109">
        <ele>91.4</ele>
        <time>2021-10-28 08:49:01</time>
      </trkpt>
      <trkpt lat="43.33251" lon="-3.08114">
        <ele>91.2</ele>
        <time>2021-10-28 08:49:02</time>
      </trkpt>
      <trkpt lat="43.3326" lon="-3.08128">
        <ele>91</ele>
        <time>2021-10-28 08:49:03</time>
      </trkpt>
      <trkpt lat="43.33268" lon="-3.08148">
        <ele>90.6</ele>
        <time>2021-10-28 08:49:04</time>
      </trkpt>
      <trkpt lat="43.3327" lon="-3.08158">
        <ele>90.4</ele>
        <time>2021-10-28 08:49:05</time>
      </trkpt>
      <trkpt lat="43.3327" lon="-3.08158">
        <ele>90.2</ele>
        <time>2021-10-28 08:49:06</time>
      </trkpt>
      <trkpt lat="43.33276" lon="-3.08177">
        <ele>90.2</ele>
        <time>2021-10-28 08:49:07</time>
      </trkpt>
      <trkpt lat="43.33276" lon="-3.08177">
        <ele>89.8</ele>
        <time>2021-10-28 08:49:08</time>
      </trkpt>
      <trkpt lat="43.3328" lon="-3.08184">
        <ele>89.6</ele>
        <time>2021-10-28 08:49:09</time>
      </trkpt>
      <trkpt lat="43.33294" lon="-3.08191">
        <ele>89.4</ele>
        <time>2021-10-28 08:49:10</time>
      </trkpt>
      <trkpt lat="43.33294" lon="-3.08191">
        <ele>89.2</ele>
        <time>2021-10-28 08:49:11</time>
      </trkpt>
      <trkpt lat="43.33307" lon="-3.08198">
        <ele>89</ele>
        <time>2021-10-28 08:49:12</time>
      </trkpt>
      <trkpt lat="43.33307" lon="-3.08198">
        <ele>89</ele>
        <time>2021-10-28 08:49:14</time>
      </trkpt>
      <trkpt lat="43.33315" lon="-3.08199">
        <ele>88.8</ele>
        <time>2021-10-28 08:49:15</time>
      </trkpt>
      <trkpt lat="43.33328" lon="-3.08197">
        <ele>88.6</ele>
        <time>2021-10-28 08:49:16</time>
      </trkpt>
      <trkpt lat="43.33334" lon="-3.08197">
        <ele>88.4</ele>
        <time>2021-10-28 08:49:17</time>
      </trkpt>
      <trkpt lat="43.33348" lon="-3.08202">
        <ele>88.2</ele>
        <time>2021-10-28 08:49:18</time>
      </trkpt>
      <trkpt lat="43.33348" lon="-3.08202">
        <ele>88.2</ele>
        <time>2021-10-28 08:49:19</time>
      </trkpt>
      <trkpt lat="43.33353" lon="-3.08209">
        <ele>88</ele>
        <time>2021-10-28 08:49:20</time>
      </trkpt>
      <trkpt lat="43.33359" lon="-3.08216">
        <ele>87.8</ele>
        <time>2021-10-28 08:49:21</time>
      </trkpt>
      <trkpt lat="43.33364" lon="-3.08221">
        <ele>87.8</ele>
        <time>2021-10-28 08:49:22</time>
      </trkpt>
      <trkpt lat="43.3337" lon="-3.08227">
        <ele>87.6</ele>
        <time>2021-10-28 08:49:23</time>
      </trkpt>
      <trkpt lat="43.33375" lon="-3.08234">
        <ele>87.4</ele>
        <time>2021-10-28 08:49:24</time>
      </trkpt>
      <trkpt lat="43.33387" lon="-3.08244">
        <ele>87.2</ele>
        <time>2021-10-28 08:49:25</time>
      </trkpt>
      <trkpt lat="43.33387" lon="-3.08244">
        <ele>87.2</ele>
        <time>2021-10-28 08:49:27</time>
      </trkpt>
      <trkpt lat="43.334" lon="-3.08253">
        <ele>87</ele>
        <time>2021-10-28 08:49:28</time>
      </trkpt>
      <trkpt lat="43.334" lon="-3.08253">
        <ele>86.8</ele>
        <time>2021-10-28 08:49:29</time>
      </trkpt>
      <trkpt lat="43.33406" lon="-3.08257">
        <ele>86.6</ele>
        <time>2021-10-28 08:49:30</time>
      </trkpt>
      <trkpt lat="43.3342" lon="-3.08267">
        <ele>86.4</ele>
        <time>2021-10-28 08:49:31</time>
      </trkpt>
      <trkpt lat="43.33428" lon="-3.0827">
        <ele>86.2</ele>
        <time>2021-10-28 08:49:32</time>
      </trkpt>
      <trkpt lat="43.33428" lon="-3.0827">
        <ele>86</ele>
        <time>2021-10-28 08:49:33</time>
      </trkpt>
      <trkpt lat="43.33435" lon="-3.08275">
        <ele>85.8</ele>
        <time>2021-10-28 08:49:34</time>
      </trkpt>
      <trkpt lat="43.33442" lon="-3.0828">
        <ele>85.6</ele>
        <time>2021-10-28 08:49:35</time>
      </trkpt>
      <trkpt lat="43.33448" lon="-3.08285">
        <ele>85.4</ele>
        <time>2021-10-28 08:49:36</time>
      </trkpt>
      <trkpt lat="43.33456" lon="-3.0829">
        <ele>85</ele>
        <time>2021-10-28 08:49:37</time>
      </trkpt>
      <trkpt lat="43.33468" lon="-3.08301">
        <ele>84.8</ele>
        <time>2021-10-28 08:49:38</time>
      </trkpt>
      <trkpt lat="43.33468" lon="-3.08301">
        <ele>84.6</ele>
        <time>2021-10-28 08:49:39</time>
      </trkpt>
      <trkpt lat="43.33479" lon="-3.08313">
        <ele>84.4</ele>
        <time>2021-10-28 08:49:40</time>
      </trkpt>
      <trkpt lat="43.33479" lon="-3.08313">
        <ele>84.2</ele>
        <time>2021-10-28 08:49:41</time>
      </trkpt>
      <trkpt lat="43.33492" lon="-3.08323">
        <ele>84</ele>
        <time>2021-10-28 08:49:42</time>
      </trkpt>
      <trkpt lat="43.33498" lon="-3.08328">
        <ele>83.8</ele>
        <time>2021-10-28 08:49:43</time>
      </trkpt>
      <trkpt lat="43.33498" lon="-3.08328">
        <ele>83.6</ele>
        <time>2021-10-28 08:49:44</time>
      </trkpt>
      <trkpt lat="43.33513" lon="-3.08339">
        <ele>83.4</ele>
        <time>2021-10-28 08:49:45</time>
      </trkpt>
      <trkpt lat="43.3352" lon="-3.08345">
        <ele>83</ele>
        <time>2021-10-28 08:49:46</time>
      </trkpt>
      <trkpt lat="43.3352" lon="-3.08345">
        <ele>82.8</ele>
        <time>2021-10-28 08:49:47</time>
      </trkpt>
      <trkpt lat="43.33535" lon="-3.08356">
        <ele>82.4</ele>
        <time>2021-10-28 08:49:48</time>
      </trkpt>
      <trkpt lat="43.33535" lon="-3.08356">
        <ele>82</ele>
        <time>2021-10-28 08:49:49</time>
      </trkpt>
      <trkpt lat="43.33551" lon="-3.08368">
        <ele>81.6</ele>
        <time>2021-10-28 08:49:50</time>
      </trkpt>
      <trkpt lat="43.33551" lon="-3.08368">
        <ele>81.4</ele>
        <time>2021-10-28 08:49:51</time>
      </trkpt>
      <trkpt lat="43.33565" lon="-3.08381">
        <ele>81</ele>
        <time>2021-10-28 08:49:52</time>
      </trkpt>
      <trkpt lat="43.33565" lon="-3.08381">
        <ele>80.6</ele>
        <time>2021-10-28 08:49:53</time>
      </trkpt>
      <trkpt lat="43.33572" lon="-3.08387">
        <ele>80.2</ele>
        <time>2021-10-28 08:49:54</time>
      </trkpt>
      <trkpt lat="43.33586" lon="-3.08402">
        <ele>79.8</ele>
        <time>2021-10-28 08:49:55</time>
      </trkpt>
      <trkpt lat="43.33586" lon="-3.08402">
        <ele>79.4</ele>
        <time>2021-10-28 08:49:56</time>
      </trkpt>
      <trkpt lat="43.33593" lon="-3.08409">
        <ele>79.2</ele>
        <time>2021-10-28 08:49:57</time>
      </trkpt>
      <trkpt lat="43.336" lon="-3.08415">
        <ele>78.8</ele>
        <time>2021-10-28 08:49:58</time>
      </trkpt>
      <trkpt lat="43.33606" lon="-3.08421">
        <ele>78.6</ele>
        <time>2021-10-28 08:49:59</time>
      </trkpt>
      <trkpt lat="43.3362" lon="-3.08433">
        <ele>78.4</ele>
        <time>2021-10-28 08:50:00</time>
      </trkpt>
      <trkpt lat="43.3362" lon="-3.08433">
        <ele>78</ele>
        <time>2021-10-28 08:50:01</time>
      </trkpt>
      <trkpt lat="43.33632" lon="-3.08444">
        <ele>77.8</ele>
        <time>2021-10-28 08:50:02</time>
      </trkpt>
      <trkpt lat="43.33632" lon="-3.08444">
        <ele>77.6</ele>
        <time>2021-10-28 08:50:03</time>
      </trkpt>
      <trkpt lat="43.33643" lon="-3.08455">
        <ele>77.4</ele>
        <time>2021-10-28 08:50:04</time>
      </trkpt>
      <trkpt lat="43.33647" lon="-3.08463">
        <ele>77.2</ele>
        <time>2021-10-28 08:50:05</time>
      </trkpt>
      <trkpt lat="43.33647" lon="-3.08463">
        <ele>77.2</ele>
        <time>2021-10-28 08:50:06</time>
      </trkpt>
      <trkpt lat="43.33648" lon="-3.08471">
        <ele>77</ele>
        <time>2021-10-28 08:50:07</time>
      </trkpt>
      <trkpt lat="43.33646" lon="-3.08479">
        <ele>77</ele>
        <time>2021-10-28 08:50:08</time>
      </trkpt>
      <trkpt lat="43.33643" lon="-3.08487">
        <ele>77</ele>
        <time>2021-10-28 08:50:09</time>
      </trkpt>
      <trkpt lat="43.33637" lon="-3.08491">
        <ele>76.8</ele>
        <time>2021-10-28 08:50:10</time>
      </trkpt>
      <trkpt lat="43.33623" lon="-3.0849">
        <ele>76.4</ele>
        <time>2021-10-28 08:50:11</time>
      </trkpt>
      <trkpt lat="43.33616" lon="-3.08486">
        <ele>76</ele>
        <time>2021-10-28 08:50:12</time>
      </trkpt>
      <trkpt lat="43.33616" lon="-3.08486">
        <ele>75.8</ele>
        <time>2021-10-28 08:50:13</time>
      </trkpt>
      <trkpt lat="43.3361" lon="-3.08482">
        <ele>75.4</ele>
        <time>2021-10-28 08:50:14</time>
      </trkpt>
      <trkpt lat="43.33596" lon="-3.08474">
        <ele>75.2</ele>
        <time>2021-10-28 08:50:15</time>
      </trkpt>
      <trkpt lat="43.33596" lon="-3.08474">
        <ele>74.8</ele>
        <time>2021-10-28 08:50:16</time>
      </trkpt>
      <trkpt lat="43.33583" lon="-3.08467">
        <ele>74.6</ele>
        <time>2021-10-28 08:50:17</time>
      </trkpt>
      <trkpt lat="43.33576" lon="-3.08464">
        <ele>74.4</ele>
        <time>2021-10-28 08:50:18</time>
      </trkpt>
      <trkpt lat="43.33576" lon="-3.08464">
        <ele>74</ele>
        <time>2021-10-28 08:50:19</time>
      </trkpt>
      <trkpt lat="43.33563" lon="-3.0846">
        <ele>73.8</ele>
        <time>2021-10-28 08:50:20</time>
      </trkpt>
      <trkpt lat="43.33563" lon="-3.0846">
        <ele>73.4</ele>
        <time>2021-10-28 08:50:21</time>
      </trkpt>
      <trkpt lat="43.3355" lon="-3.08458">
        <ele>73.2</ele>
        <time>2021-10-28 08:50:22</time>
      </trkpt>
      <trkpt lat="43.3355" lon="-3.08458">
        <ele>73</ele>
        <time>2021-10-28 08:50:23</time>
      </trkpt>
      <trkpt lat="43.33537" lon="-3.08457">
        <ele>72.8</ele>
        <time>2021-10-28 08:50:24</time>
      </trkpt>
      <trkpt lat="43.33537" lon="-3.08457">
        <ele>72.4</ele>
        <time>2021-10-28 08:50:25</time>
      </trkpt>
      <trkpt lat="43.33524" lon="-3.08456">
        <ele>72.2</ele>
        <time>2021-10-28 08:50:26</time>
      </trkpt>
      <trkpt lat="43.33524" lon="-3.08456">
        <ele>71.8</ele>
        <time>2021-10-28 08:50:27</time>
      </trkpt>
      <trkpt lat="43.33518" lon="-3.08458">
        <ele>71.4</ele>
        <time>2021-10-28 08:50:28</time>
      </trkpt>
      <trkpt lat="43.33509" lon="-3.08459">
        <ele>71.2</ele>
        <time>2021-10-28 08:50:29</time>
      </trkpt>
      <trkpt lat="43.33509" lon="-3.08459">
        <ele>71</ele>
        <time>2021-10-28 08:50:30</time>
      </trkpt>
      <trkpt lat="43.33499" lon="-3.08461">
        <ele>70.8</ele>
        <time>2021-10-28 08:50:31</time>
      </trkpt>
      <trkpt lat="43.33499" lon="-3.08461">
        <ele>70.6</ele>
        <time>2021-10-28 08:50:32</time>
      </trkpt>
      <trkpt lat="43.33493" lon="-3.08461">
        <ele>70.4</ele>
        <time>2021-10-28 08:50:33</time>
      </trkpt>
      <trkpt lat="43.3349" lon="-3.08463">
        <ele>70</ele>
        <time>2021-10-28 08:50:34</time>
      </trkpt>
      <trkpt lat="43.33484" lon="-3.08468">
        <ele>69.8</ele>
        <time>2021-10-28 08:50:35</time>
      </trkpt>
      <trkpt lat="43.33484" lon="-3.08468">
        <ele>69.6</ele>
        <time>2021-10-28 08:50:36</time>
      </trkpt>
      <trkpt lat="43.33479" lon="-3.08471">
        <ele>69.4</ele>
        <time>2021-10-28 08:50:37</time>
      </trkpt>
      <trkpt lat="43.33475" lon="-3.08473">
        <ele>69.4</ele>
        <time>2021-10-28 08:50:38</time>
      </trkpt>
      <trkpt lat="43.33466" lon="-3.08482">
        <ele>69.2</ele>
        <time>2021-10-28 08:50:39</time>
      </trkpt>
      <trkpt lat="43.33463" lon="-3.08486">
        <ele>69</ele>
        <time>2021-10-28 08:50:40</time>
      </trkpt>
      <trkpt lat="43.3346" lon="-3.08495">
        <ele>69</ele>
        <time>2021-10-28 08:50:41</time>
      </trkpt>
      <trkpt lat="43.3346" lon="-3.08495">
        <ele>68.8</ele>
        <time>2021-10-28 08:50:42</time>
      </trkpt>
      <trkpt lat="43.33464" lon="-3.0851">
        <ele>68.6</ele>
        <time>2021-10-28 08:50:43</time>
      </trkpt>
      <trkpt lat="43.33464" lon="-3.0851">
        <ele>68.4</ele>
        <time>2021-10-28 08:50:44</time>
      </trkpt>
      <trkpt lat="43.33469" lon="-3.08515">
        <ele>68.2</ele>
        <time>2021-10-28 08:50:45</time>
      </trkpt>
      <trkpt lat="43.33482" lon="-3.08524">
        <ele>68</ele>
        <time>2021-10-28 08:50:46</time>
      </trkpt>
      <trkpt lat="43.33482" lon="-3.08524">
        <ele>67.8</ele>
        <time>2021-10-28 08:50:47</time>
      </trkpt>
      <trkpt lat="43.33494" lon="-3.08526">
        <ele>67.6</ele>
        <time>2021-10-28 08:50:48</time>
      </trkpt>
      <trkpt lat="43.33494" lon="-3.08526">
        <ele>67.2</ele>
        <time>2021-10-28 08:50:49</time>
      </trkpt>
      <trkpt lat="43.33494" lon="-3.08526">
        <ele>67</ele>
        <time>2021-10-28 08:50:50</time>
      </trkpt>
      <trkpt lat="43.33518" lon="-3.08532">
        <ele>66.6</ele>
        <time>2021-10-28 08:50:51</time>
      </trkpt>
      <trkpt lat="43.33518" lon="-3.08532">
        <ele>66.4</ele>
        <time>2021-10-28 08:50:52</time>
      </trkpt>
      <trkpt lat="43.33527" lon="-3.08533">
        <ele>66</ele>
        <time>2021-10-28 08:50:53</time>
      </trkpt>
      <trkpt lat="43.33545" lon="-3.08547">
        <ele>65.6</ele>
        <time>2021-10-28 08:50:54</time>
      </trkpt>
      <trkpt lat="43.33545" lon="-3.08547">
        <ele>65.2</ele>
        <time>2021-10-28 08:50:55</time>
      </trkpt>
      <trkpt lat="43.33545" lon="-3.08547">
        <ele>64.8</ele>
        <time>2021-10-28 08:50:56</time>
      </trkpt>
      <trkpt lat="43.33561" lon="-3.08564">
        <ele>64.6</ele>
        <time>2021-10-28 08:50:57</time>
      </trkpt>
      <trkpt lat="43.33575" lon="-3.08577">
        <ele>64.4</ele>
        <time>2021-10-28 08:50:58</time>
      </trkpt>
      <trkpt lat="43.33575" lon="-3.08577">
        <ele>64</ele>
        <time>2021-10-28 08:50:59</time>
      </trkpt>
      <trkpt lat="43.33581" lon="-3.08584">
        <ele>63.8</ele>
        <time>2021-10-28 08:51:00</time>
      </trkpt>
      <trkpt lat="43.33593" lon="-3.086">
        <ele>63.6</ele>
        <time>2021-10-28 08:51:01</time>
      </trkpt>
      <trkpt lat="43.33599" lon="-3.08605">
        <ele>63.4</ele>
        <time>2021-10-28 08:51:02</time>
      </trkpt>
      <trkpt lat="43.33606" lon="-3.08611">
        <ele>63</ele>
        <time>2021-10-28 08:51:03</time>
      </trkpt>
      <trkpt lat="43.33606" lon="-3.08611">
        <ele>62.6</ele>
        <time>2021-10-28 08:51:04</time>
      </trkpt>
      <trkpt lat="43.33621" lon="-3.08623">
        <ele>62.2</ele>
        <time>2021-10-28 08:51:05</time>
      </trkpt>
      <trkpt lat="43.33621" lon="-3.08623">
        <ele>62</ele>
        <time>2021-10-28 08:51:06</time>
      </trkpt>
      <trkpt lat="43.33629" lon="-3.08628">
        <ele>61.8</ele>
        <time>2021-10-28 08:51:07</time>
      </trkpt>
      <trkpt lat="43.33644" lon="-3.08637">
        <ele>61.6</ele>
        <time>2021-10-28 08:51:08</time>
      </trkpt>
      <trkpt lat="43.33644" lon="-3.08637">
        <ele>61.4</ele>
        <time>2021-10-28 08:51:09</time>
      </trkpt>
      <trkpt lat="43.33658" lon="-3.08648">
        <ele>61.2</ele>
        <time>2021-10-28 08:51:10</time>
      </trkpt>
      <trkpt lat="43.33658" lon="-3.08648">
        <ele>61</ele>
        <time>2021-10-28 08:51:11</time>
      </trkpt>
      <trkpt lat="43.33674" lon="-3.08648">
        <ele>60.8</ele>
        <time>2021-10-28 08:51:12</time>
      </trkpt>
      <trkpt lat="43.33674" lon="-3.08648">
        <ele>60.8</ele>
        <time>2021-10-28 08:51:13</time>
      </trkpt>
      <trkpt lat="43.33681" lon="-3.08651">
        <ele>60.6</ele>
        <time>2021-10-28 08:51:14</time>
      </trkpt>
      <trkpt lat="43.33697" lon="-3.08654">
        <ele>60.4</ele>
        <time>2021-10-28 08:51:15</time>
      </trkpt>
      <trkpt lat="43.33697" lon="-3.08654">
        <ele>60.2</ele>
        <time>2021-10-28 08:51:16</time>
      </trkpt>
      <trkpt lat="43.33697" lon="-3.08654">
        <ele>60</ele>
        <time>2021-10-28 08:51:17</time>
      </trkpt>
      <trkpt lat="43.33711" lon="-3.0866">
        <ele>60</ele>
        <time>2021-10-28 08:51:18</time>
      </trkpt>
      <trkpt lat="43.33725" lon="-3.08665">
        <ele>59.8</ele>
        <time>2021-10-28 08:51:19</time>
      </trkpt>
      <trkpt lat="43.33731" lon="-3.08667">
        <ele>59.6</ele>
        <time>2021-10-28 08:51:20</time>
      </trkpt>
      <trkpt lat="43.33731" lon="-3.08667">
        <ele>59.4</ele>
        <time>2021-10-28 08:51:21</time>
      </trkpt>
      <trkpt lat="43.33738" lon="-3.08674">
        <ele>59.2</ele>
        <time>2021-10-28 08:51:22</time>
      </trkpt>
      <trkpt lat="43.3375" lon="-3.08691">
        <ele>59</ele>
        <time>2021-10-28 08:51:23</time>
      </trkpt>
      <trkpt lat="43.3375" lon="-3.08691">
        <ele>58.8</ele>
        <time>2021-10-28 08:51:24</time>
      </trkpt>
      <trkpt lat="43.33759" lon="-3.0871">
        <ele>58.6</ele>
        <time>2021-10-28 08:51:25</time>
      </trkpt>
      <trkpt lat="43.33759" lon="-3.0871">
        <ele>58.4</ele>
        <time>2021-10-28 08:51:26</time>
      </trkpt>
      <trkpt lat="43.33766" lon="-3.08722">
        <ele>58.2</ele>
        <time>2021-10-28 08:51:27</time>
      </trkpt>
      <trkpt lat="43.33768" lon="-3.08733">
        <ele>58</ele>
        <time>2021-10-28 08:51:28</time>
      </trkpt>
      <trkpt lat="43.33771" lon="-3.08744">
        <ele>57.8</ele>
        <time>2021-10-28 08:51:29</time>
      </trkpt>
      <trkpt lat="43.33776" lon="-3.08773">
        <ele>57.4</ele>
        <time>2021-10-28 08:51:30</time>
      </trkpt>
      <trkpt lat="43.33776" lon="-3.08773">
        <ele>57</ele>
        <time>2021-10-28 08:51:31</time>
      </trkpt>
      <trkpt lat="43.33776" lon="-3.08786">
        <ele>56.6</ele>
        <time>2021-10-28 08:51:32</time>
      </trkpt>
      <trkpt lat="43.33778" lon="-3.08812">
        <ele>56.2</ele>
        <time>2021-10-28 08:51:33</time>
      </trkpt>
      <trkpt lat="43.33778" lon="-3.08812">
        <ele>55.8</ele>
        <time>2021-10-28 08:51:34</time>
      </trkpt>
      <trkpt lat="43.33778" lon="-3.08812">
        <ele>55.6</ele>
        <time>2021-10-28 08:51:35</time>
      </trkpt>
      <trkpt lat="43.33779" lon="-3.08853">
        <ele>55.2</ele>
        <time>2021-10-28 08:51:36</time>
      </trkpt>
      <trkpt lat="43.33779" lon="-3.08867">
        <ele>54.8</ele>
        <time>2021-10-28 08:51:37</time>
      </trkpt>
      <trkpt lat="43.33781" lon="-3.08881">
        <ele>54.6</ele>
        <time>2021-10-28 08:51:38</time>
      </trkpt>
      <trkpt lat="43.33781" lon="-3.08881">
        <ele>54.2</ele>
        <time>2021-10-28 08:51:39</time>
      </trkpt>
      <trkpt lat="43.3379" lon="-3.08907">
        <ele>54</ele>
        <time>2021-10-28 08:51:40</time>
      </trkpt>
      <trkpt lat="43.3379" lon="-3.08907">
        <ele>53.6</ele>
        <time>2021-10-28 08:51:41</time>
      </trkpt>
      <trkpt lat="43.33804" lon="-3.08927">
        <ele>53.4</ele>
        <time>2021-10-28 08:51:42</time>
      </trkpt>
      <trkpt lat="43.33804" lon="-3.08927">
        <ele>53</ele>
        <time>2021-10-28 08:51:43</time>
      </trkpt>
      <trkpt lat="43.3382" lon="-3.08945">
        <ele>52.8</ele>
        <time>2021-10-28 08:51:44</time>
      </trkpt>
      <trkpt lat="43.3382" lon="-3.08945">
        <ele>52.4</ele>
        <time>2021-10-28 08:51:45</time>
      </trkpt>
      <trkpt lat="43.33826" lon="-3.08957">
        <ele>52.2</ele>
        <time>2021-10-28 08:51:46</time>
      </trkpt>
      <trkpt lat="43.33832" lon="-3.08983">
        <ele>52</ele>
        <time>2021-10-28 08:51:47</time>
      </trkpt>
      <trkpt lat="43.33831" lon="-3.08998">
        <ele>51.6</ele>
        <time>2021-10-28 08:51:48</time>
      </trkpt>
      <trkpt lat="43.33831" lon="-3.08998">
        <ele>51.4</ele>
        <time>2021-10-28 08:51:49</time>
      </trkpt>
      <trkpt lat="43.33822" lon="-3.09027">
        <ele>51.2</ele>
        <time>2021-10-28 08:51:50</time>
      </trkpt>
      <trkpt lat="43.33822" lon="-3.09027">
        <ele>51.2</ele>
        <time>2021-10-28 08:51:51</time>
      </trkpt>
      <trkpt lat="43.33819" lon="-3.09055">
        <ele>51</ele>
        <time>2021-10-28 08:51:52</time>
      </trkpt>
      <trkpt lat="43.33819" lon="-3.09055">
        <ele>50.8</ele>
        <time>2021-10-28 08:51:53</time>
      </trkpt>
      <trkpt lat="43.33818" lon="-3.09069">
        <ele>50.6</ele>
        <time>2021-10-28 08:51:54</time>
      </trkpt>
      <trkpt lat="43.33819" lon="-3.09097">
        <ele>50.4</ele>
        <time>2021-10-28 08:51:55</time>
      </trkpt>
      <trkpt lat="43.33819" lon="-3.09097">
        <ele>50.2</ele>
        <time>2021-10-28 08:51:56</time>
      </trkpt>
      <trkpt lat="43.33825" lon="-3.0912">
        <ele>50.2</ele>
        <time>2021-10-28 08:51:57</time>
      </trkpt>
      <trkpt lat="43.33825" lon="-3.0912">
        <ele>50</ele>
        <time>2021-10-28 08:51:58</time>
      </trkpt>
      <trkpt lat="43.33834" lon="-3.09142">
        <ele>50</ele>
        <time>2021-10-28 08:51:59</time>
      </trkpt>
      <trkpt lat="43.33838" lon="-3.09155">
        <ele>50</ele>
        <time>2021-10-28 08:52:00</time>
      </trkpt>
      <trkpt lat="43.33838" lon="-3.09155">
        <ele>49.8</ele>
        <time>2021-10-28 08:52:01</time>
      </trkpt>
      <trkpt lat="43.33842" lon="-3.09167">
        <ele>49.8</ele>
        <time>2021-10-28 08:52:02</time>
      </trkpt>
      <trkpt lat="43.33845" lon="-3.09181">
        <ele>49.6</ele>
        <time>2021-10-28 08:52:03</time>
      </trkpt>
      <trkpt lat="43.33849" lon="-3.09207">
        <ele>49.4</ele>
        <time>2021-10-28 08:52:04</time>
      </trkpt>
      <trkpt lat="43.33849" lon="-3.09207">
        <ele>49.2</ele>
        <time>2021-10-28 08:52:05</time>
      </trkpt>
      <trkpt lat="43.3385" lon="-3.09235">
        <ele>49</ele>
        <time>2021-10-28 08:52:06</time>
      </trkpt>
      <trkpt lat="43.3385" lon="-3.09235">
        <ele>48.8</ele>
        <time>2021-10-28 08:52:07</time>
      </trkpt>
      <trkpt lat="43.33853" lon="-3.09259">
        <ele>48.6</ele>
        <time>2021-10-28 08:52:08</time>
      </trkpt>
      <trkpt lat="43.33855" lon="-3.09272">
        <ele>48.6</ele>
        <time>2021-10-28 08:52:09</time>
      </trkpt>
      <trkpt lat="43.33855" lon="-3.09272">
        <ele>48.2</ele>
        <time>2021-10-28 08:52:10</time>
      </trkpt>
      <trkpt lat="43.3386" lon="-3.09284">
        <ele>48</ele>
        <time>2021-10-28 08:52:11</time>
      </trkpt>
      <trkpt lat="43.33864" lon="-3.09296">
        <ele>47.8</ele>
        <time>2021-10-28 08:52:12</time>
      </trkpt>
      <trkpt lat="43.3387" lon="-3.09307">
        <ele>47.4</ele>
        <time>2021-10-28 08:52:13</time>
      </trkpt>
      <trkpt lat="43.33877" lon="-3.09316">
        <ele>47.2</ele>
        <time>2021-10-28 08:52:14</time>
      </trkpt>
      <trkpt lat="43.33895" lon="-3.09329">
        <ele>47</ele>
        <time>2021-10-28 08:52:15</time>
      </trkpt>
      <trkpt lat="43.33905" lon="-3.09335">
        <ele>46.8</ele>
        <time>2021-10-28 08:52:16</time>
      </trkpt>
      <trkpt lat="43.33905" lon="-3.09335">
        <ele>46.6</ele>
        <time>2021-10-28 08:52:17</time>
      </trkpt>
      <trkpt lat="43.33913" lon="-3.09342">
        <ele>46.4</ele>
        <time>2021-10-28 08:52:18</time>
      </trkpt>
      <trkpt lat="43.33922" lon="-3.0935">
        <ele>46.2</ele>
        <time>2021-10-28 08:52:19</time>
      </trkpt>
      <trkpt lat="43.33928" lon="-3.09362">
        <ele>45.8</ele>
        <time>2021-10-28 08:52:20</time>
      </trkpt>
      <trkpt lat="43.33935" lon="-3.09386">
        <ele>45.4</ele>
        <time>2021-10-28 08:52:21</time>
      </trkpt>
      <trkpt lat="43.33935" lon="-3.09386">
        <ele>45</ele>
        <time>2021-10-28 08:52:22</time>
      </trkpt>
      <trkpt lat="43.33945" lon="-3.09408">
        <ele>44.8</ele>
        <time>2021-10-28 08:52:23</time>
      </trkpt>
      <trkpt lat="43.33945" lon="-3.09408">
        <ele>44.4</ele>
        <time>2021-10-28 08:52:24</time>
      </trkpt>
      <trkpt lat="43.33957" lon="-3.0943">
        <ele>44.2</ele>
        <time>2021-10-28 08:52:25</time>
      </trkpt>
      <trkpt lat="43.33964" lon="-3.0944">
        <ele>43.8</ele>
        <time>2021-10-28 08:52:26</time>
      </trkpt>
      <trkpt lat="43.33964" lon="-3.0944">
        <ele>43.4</ele>
        <time>2021-10-28 08:52:27</time>
      </trkpt>
      <trkpt lat="43.33974" lon="-3.09449">
        <ele>43</ele>
        <time>2021-10-28 08:52:28</time>
      </trkpt>
      <trkpt lat="43.33982" lon="-3.09459">
        <ele>42.6</ele>
        <time>2021-10-28 08:52:29</time>
      </trkpt>
      <trkpt lat="43.33989" lon="-3.09468">
        <ele>42</ele>
        <time>2021-10-28 08:52:30</time>
      </trkpt>
      <trkpt lat="43.34006" lon="-3.09484">
        <ele>41.6</ele>
        <time>2021-10-28 08:52:31</time>
      </trkpt>
      <trkpt lat="43.34006" lon="-3.09484">
        <ele>41.2</ele>
        <time>2021-10-28 08:52:32</time>
      </trkpt>
      <trkpt lat="43.34021" lon="-3.09503">
        <ele>41</ele>
        <time>2021-10-28 08:52:33</time>
      </trkpt>
      <trkpt lat="43.34021" lon="-3.09503">
        <ele>40.8</ele>
        <time>2021-10-28 08:52:34</time>
      </trkpt>
      <trkpt lat="43.34032" lon="-3.09529">
        <ele>40.6</ele>
        <time>2021-10-28 08:52:35</time>
      </trkpt>
      <trkpt lat="43.34032" lon="-3.09529">
        <ele>40.4</ele>
        <time>2021-10-28 08:52:36</time>
      </trkpt>
      <trkpt lat="43.34039" lon="-3.09556">
        <ele>40</ele>
        <time>2021-10-28 08:52:37</time>
      </trkpt>
      <trkpt lat="43.34041" lon="-3.09571">
        <ele>39.6</ele>
        <time>2021-10-28 08:52:38</time>
      </trkpt>
      <trkpt lat="43.34041" lon="-3.09571">
        <ele>39.2</ele>
        <time>2021-10-28 08:52:39</time>
      </trkpt>
      <trkpt lat="43.34049" lon="-3.09599">
        <ele>38.8</ele>
        <time>2021-10-28 08:52:40</time>
      </trkpt>
      <trkpt lat="43.34049" lon="-3.09599">
        <ele>38.4</ele>
        <time>2021-10-28 08:52:41</time>
      </trkpt>
      <trkpt lat="43.34059" lon="-3.09624">
        <ele>38</ele>
        <time>2021-10-28 08:52:42</time>
      </trkpt>
      <trkpt lat="43.34064" lon="-3.09636">
        <ele>37.6</ele>
        <time>2021-10-28 08:52:43</time>
      </trkpt>
      <trkpt lat="43.34071" lon="-3.09648">
        <ele>37.2</ele>
        <time>2021-10-28 08:52:44</time>
      </trkpt>
      <trkpt lat="43.34071" lon="-3.09648">
        <ele>36.8</ele>
        <time>2021-10-28 08:52:45</time>
      </trkpt>
      <trkpt lat="43.34075" lon="-3.0966">
        <ele>36.4</ele>
        <time>2021-10-28 08:52:46</time>
      </trkpt>
      <trkpt lat="43.34081" lon="-3.09687">
        <ele>35.8</ele>
        <time>2021-10-28 08:52:47</time>
      </trkpt>
      <trkpt lat="43.34081" lon="-3.09687">
        <ele>35.2</ele>
        <time>2021-10-28 08:52:48</time>
      </trkpt>
      <trkpt lat="43.34078" lon="-3.09718">
        <ele>34.8</ele>
        <time>2021-10-28 08:52:49</time>
      </trkpt>
      <trkpt lat="43.34077" lon="-3.09733">
        <ele>34.4</ele>
        <time>2021-10-28 08:52:50</time>
      </trkpt>
      <trkpt lat="43.34077" lon="-3.09733">
        <ele>34</ele>
        <time>2021-10-28 08:52:51</time>
      </trkpt>
      <trkpt lat="43.34078" lon="-3.09762">
        <ele>33.8</ele>
        <time>2021-10-28 08:52:52</time>
      </trkpt>
      <trkpt lat="43.34078" lon="-3.09762">
        <ele>33.4</ele>
        <time>2021-10-28 08:52:53</time>
      </trkpt>
      <trkpt lat="43.34083" lon="-3.0979">
        <ele>33.2</ele>
        <time>2021-10-28 08:52:54</time>
      </trkpt>
      <trkpt lat="43.34087" lon="-3.09803">
        <ele>32.8</ele>
        <time>2021-10-28 08:52:55</time>
      </trkpt>
      <trkpt lat="43.34087" lon="-3.09803">
        <ele>32.6</ele>
        <time>2021-10-28 08:52:56</time>
      </trkpt>
      <trkpt lat="43.34087" lon="-3.09803">
        <ele>32</ele>
        <time>2021-10-28 08:52:57</time>
      </trkpt>
      <trkpt lat="43.34099" lon="-3.09846">
        <ele>31.6</ele>
        <time>2021-10-28 08:52:58</time>
      </trkpt>
      <trkpt lat="43.34099" lon="-3.09846">
        <ele>31</ele>
        <time>2021-10-28 08:52:59</time>
      </trkpt>
      <trkpt lat="43.34105" lon="-3.09873">
        <ele>30.6</ele>
        <time>2021-10-28 08:53:00</time>
      </trkpt>
      <trkpt lat="43.34105" lon="-3.09873">
        <ele>30.2</ele>
        <time>2021-10-28 08:53:01</time>
      </trkpt>
      <trkpt lat="43.34105" lon="-3.09873">
        <ele>30</ele>
        <time>2021-10-28 08:53:02</time>
      </trkpt>
      <trkpt lat="43.34105" lon="-3.09912">
        <ele>29.8</ele>
        <time>2021-10-28 08:53:03</time>
      </trkpt>
      <trkpt lat="43.34105" lon="-3.09912">
        <ele>29.6</ele>
        <time>2021-10-28 08:53:04</time>
      </trkpt>
      <trkpt lat="43.34107" lon="-3.09935">
        <ele>29.4</ele>
        <time>2021-10-28 08:53:05</time>
      </trkpt>
      <trkpt lat="43.34107" lon="-3.09935">
        <ele>29.2</ele>
        <time>2021-10-28 08:53:06</time>
      </trkpt>
      <trkpt lat="43.34109" lon="-3.09948">
        <ele>29.2</ele>
        <time>2021-10-28 08:53:07</time>
      </trkpt>
      <trkpt lat="43.3411" lon="-3.09974">
        <ele>29</ele>
        <time>2021-10-28 08:53:08</time>
      </trkpt>
      <trkpt lat="43.34111" lon="-3.09987">
        <ele>28.8</ele>
        <time>2021-10-28 08:53:09</time>
      </trkpt>
      <trkpt lat="43.34111" lon="-3.09987">
        <ele>28.8</ele>
        <time>2021-10-28 08:53:10</time>
      </trkpt>
      <trkpt lat="43.34113" lon="-3.09998">
        <ele>28.8</ele>
        <time>2021-10-28 08:53:11</time>
      </trkpt>
      <trkpt lat="43.34118" lon="-3.10021">
        <ele>28.6</ele>
        <time>2021-10-28 08:53:12</time>
      </trkpt>
      <trkpt lat="43.34118" lon="-3.10021">
        <ele>28.6</ele>
        <time>2021-10-28 08:53:13</time>
      </trkpt>
      <trkpt lat="43.34123" lon="-3.10041">
        <ele>28.4</ele>
        <time>2021-10-28 08:53:14</time>
      </trkpt>
      <trkpt lat="43.34123" lon="-3.10041">
        <ele>28.2</ele>
        <time>2021-10-28 08:53:15</time>
      </trkpt>
      <trkpt lat="43.34128" lon="-3.10062">
        <ele>28.2</ele>
        <time>2021-10-28 08:53:16</time>
      </trkpt>
      <trkpt lat="43.34132" lon="-3.10073">
        <ele>28.2</ele>
        <time>2021-10-28 08:53:17</time>
      </trkpt>
      <trkpt lat="43.34132" lon="-3.10073">
        <ele>28.2</ele>
        <time>2021-10-28 08:53:18</time>
      </trkpt>
      <trkpt lat="43.34132" lon="-3.10073">
        <ele>28.2</ele>
        <time>2021-10-28 08:53:19</time>
      </trkpt>
      <trkpt lat="43.34139" lon="-3.10105">
        <ele>28.2</ele>
        <time>2021-10-28 08:53:20</time>
      </trkpt>
      <trkpt lat="43.34142" lon="-3.10115">
        <ele>28.2</ele>
        <time>2021-10-28 08:53:21</time>
      </trkpt>
      <trkpt lat="43.34145" lon="-3.10124">
        <ele>28</ele>
        <time>2021-10-28 08:53:22</time>
      </trkpt>
      <trkpt lat="43.34145" lon="-3.10124">
        <ele>27.8</ele>
        <time>2021-10-28 08:53:23</time>
      </trkpt>
      <trkpt lat="43.34147" lon="-3.10135">
        <ele>27.6</ele>
        <time>2021-10-28 08:53:24</time>
      </trkpt>
      <trkpt lat="43.34153" lon="-3.10155">
        <ele>27.4</ele>
        <time>2021-10-28 08:53:25</time>
      </trkpt>
      <trkpt lat="43.34153" lon="-3.10155">
        <ele>27.4</ele>
        <time>2021-10-28 08:53:26</time>
      </trkpt>
      <trkpt lat="43.34161" lon="-3.10175">
        <ele>27.4</ele>
        <time>2021-10-28 08:53:27</time>
      </trkpt>
      <trkpt lat="43.34161" lon="-3.10175">
        <ele>27.2</ele>
        <time>2021-10-28 08:53:28</time>
      </trkpt>
      <trkpt lat="43.34172" lon="-3.10189">
        <ele>27.2</ele>
        <time>2021-10-28 08:53:29</time>
      </trkpt>
      <trkpt lat="43.34172" lon="-3.10189">
        <ele>27</ele>
        <time>2021-10-28 08:53:30</time>
      </trkpt>
      <trkpt lat="43.34179" lon="-3.10208">
        <ele>27</ele>
        <time>2021-10-28 08:53:31</time>
      </trkpt>
      <trkpt lat="43.34179" lon="-3.10208">
        <ele>26.8</ele>
        <time>2021-10-28 08:53:32</time>
      </trkpt>
      <trkpt lat="43.34185" lon="-3.10219">
        <ele>26.6</ele>
        <time>2021-10-28 08:53:33</time>
      </trkpt>
      <trkpt lat="43.34198" lon="-3.10233">
        <ele>26.4</ele>
        <time>2021-10-28 08:53:34</time>
      </trkpt>
      <trkpt lat="43.34205" lon="-3.10237">
        <ele>26.4</ele>
        <time>2021-10-28 08:53:35</time>
      </trkpt>
      <trkpt lat="43.34211" lon="-3.10245">
        <ele>26.2</ele>
        <time>2021-10-28 08:53:36</time>
      </trkpt>
      <trkpt lat="43.34211" lon="-3.10245">
        <ele>26.2</ele>
        <time>2021-10-28 08:53:37</time>
      </trkpt>
      <trkpt lat="43.34224" lon="-3.10257">
        <ele>26.2</ele>
        <time>2021-10-28 08:53:38</time>
      </trkpt>
      <trkpt lat="43.34233" lon="-3.10263">
        <ele>26.2</ele>
        <time>2021-10-28 08:53:39</time>
      </trkpt>
      <trkpt lat="43.34233" lon="-3.10263">
        <ele>26</ele>
        <time>2021-10-28 08:53:40</time>
      </trkpt>
      <trkpt lat="43.34246" lon="-3.10277">
        <ele>26</ele>
        <time>2021-10-28 08:53:41</time>
      </trkpt>
      <trkpt lat="43.34246" lon="-3.10277">
        <ele>25.8</ele>
        <time>2021-10-28 08:53:42</time>
      </trkpt>
      <trkpt lat="43.34246" lon="-3.10277">
        <ele>25.8</ele>
        <time>2021-10-28 08:53:43</time>
      </trkpt>
      <trkpt lat="43.34266" lon="-3.10295">
        <ele>25.8</ele>
        <time>2021-10-28 08:53:44</time>
      </trkpt>
      <trkpt lat="43.34266" lon="-3.10295">
        <ele>25.6</ele>
        <time>2021-10-28 08:53:45</time>
      </trkpt>
      <trkpt lat="43.34279" lon="-3.10306">
        <ele>25.6</ele>
        <time>2021-10-28 08:53:46</time>
      </trkpt>
      <trkpt lat="43.34279" lon="-3.10306">
        <ele>25.4</ele>
        <time>2021-10-28 08:53:47</time>
      </trkpt>
      <trkpt lat="43.34286" lon="-3.1031">
        <ele>25.4</ele>
        <time>2021-10-28 08:53:48</time>
      </trkpt>
      <trkpt lat="43.34301" lon="-3.10323">
        <ele>25.4</ele>
        <time>2021-10-28 08:53:49</time>
      </trkpt>
      <trkpt lat="43.34301" lon="-3.10323">
        <ele>25.2</ele>
        <time>2021-10-28 08:53:50</time>
      </trkpt>
      <trkpt lat="43.34316" lon="-3.10336">
        <ele>25.2</ele>
        <time>2021-10-28 08:53:51</time>
      </trkpt>
      <trkpt lat="43.34316" lon="-3.10336">
        <ele>25</ele>
        <time>2021-10-28 08:53:52</time>
      </trkpt>
      <trkpt lat="43.34329" lon="-3.10348">
        <ele>25</ele>
        <time>2021-10-28 08:53:53</time>
      </trkpt>
      <trkpt lat="43.34329" lon="-3.10348">
        <ele>24.8</ele>
        <time>2021-10-28 08:53:54</time>
      </trkpt>
      <trkpt lat="43.3434" lon="-3.1036">
        <ele>24.6</ele>
        <time>2021-10-28 08:53:55</time>
      </trkpt>
      <trkpt lat="43.34347" lon="-3.10365">
        <ele>24.4</ele>
        <time>2021-10-28 08:53:56</time>
      </trkpt>
      <trkpt lat="43.34347" lon="-3.10365">
        <ele>24</ele>
        <time>2021-10-28 08:53:57</time>
      </trkpt>
      <trkpt lat="43.34364" lon="-3.10379">
        <ele>24</ele>
        <time>2021-10-28 08:53:58</time>
      </trkpt>
      <trkpt lat="43.34371" lon="-3.10387">
        <ele>23.8</ele>
        <time>2021-10-28 08:53:59</time>
      </trkpt>
      <trkpt lat="43.34371" lon="-3.10387">
        <ele>23.8</ele>
        <time>2021-10-28 08:54:00</time>
      </trkpt>
      <trkpt lat="43.34387" lon="-3.10402">
        <ele>23.6</ele>
        <time>2021-10-28 08:54:01</time>
      </trkpt>
      <trkpt lat="43.34387" lon="-3.10402">
        <ele>23.4</ele>
        <time>2021-10-28 08:54:02</time>
      </trkpt>
      <trkpt lat="43.34402" lon="-3.10416">
        <ele>23.4</ele>
        <time>2021-10-28 08:54:03</time>
      </trkpt>
      <trkpt lat="43.34402" lon="-3.10416">
        <ele>23.2</ele>
        <time>2021-10-28 08:54:04</time>
      </trkpt>
      <trkpt lat="43.34402" lon="-3.10416">
        <ele>23.2</ele>
        <time>2021-10-28 08:54:05</time>
      </trkpt>
      <trkpt lat="43.3442" lon="-3.10443">
        <ele>23</ele>
        <time>2021-10-28 08:54:06</time>
      </trkpt>
      <trkpt lat="43.3442" lon="-3.10443">
        <ele>22.8</ele>
        <time>2021-10-28 08:54:07</time>
      </trkpt>
      <trkpt lat="43.34427" lon="-3.10452">
        <ele>22.6</ele>
        <time>2021-10-28 08:54:08</time>
      </trkpt>
      <trkpt lat="43.34434" lon="-3.10461">
        <ele>22.6</ele>
        <time>2021-10-28 08:54:09</time>
      </trkpt>
      <trkpt lat="43.3444" lon="-3.10472">
        <ele>22.4</ele>
        <time>2021-10-28 08:54:10</time>
      </trkpt>
      <trkpt lat="43.3445" lon="-3.10491">
        <ele>22.4</ele>
        <time>2021-10-28 08:54:11</time>
      </trkpt>
      <trkpt lat="43.3445" lon="-3.10491">
        <ele>22.4</ele>
        <time>2021-10-28 08:54:12</time>
      </trkpt>
      <trkpt lat="43.34461" lon="-3.10512">
        <ele>22.2</ele>
        <time>2021-10-28 08:54:13</time>
      </trkpt>
      <trkpt lat="43.34461" lon="-3.10512">
        <ele>22.2</ele>
        <time>2021-10-28 08:54:14</time>
      </trkpt>
      <trkpt lat="43.34467" lon="-3.10533">
        <ele>22</ele>
        <time>2021-10-28 08:54:15</time>
      </trkpt>
      <trkpt lat="43.34467" lon="-3.10533">
        <ele>22</ele>
        <time>2021-10-28 08:54:16</time>
      </trkpt>
      <trkpt lat="43.34471" lon="-3.10544">
        <ele>22</ele>
        <time>2021-10-28 08:54:17</time>
      </trkpt>
      <trkpt lat="43.34475" lon="-3.10568">
        <ele>22</ele>
        <time>2021-10-28 08:54:18</time>
      </trkpt>
      <trkpt lat="43.34475" lon="-3.10568">
        <ele>22</ele>
        <time>2021-10-28 08:54:19</time>
      </trkpt>
      <trkpt lat="43.3448" lon="-3.10592">
        <ele>22</ele>
        <time>2021-10-28 08:54:20</time>
      </trkpt>
      <trkpt lat="43.3448" lon="-3.10592">
        <ele>22</ele>
        <time>2021-10-28 08:54:21</time>
      </trkpt>
      <trkpt lat="43.34483" lon="-3.10603">
        <ele>22</ele>
        <time>2021-10-28 08:54:22</time>
      </trkpt>
      <trkpt lat="43.34488" lon="-3.10625">
        <ele>22</ele>
        <time>2021-10-28 08:54:23</time>
      </trkpt>
      <trkpt lat="43.34488" lon="-3.10625">
        <ele>21.8</ele>
        <time>2021-10-28 08:54:24</time>
      </trkpt>
      <trkpt lat="43.34491" lon="-3.1065">
        <ele>21.6</ele>
        <time>2021-10-28 08:54:25</time>
      </trkpt>
      <trkpt lat="43.34491" lon="-3.1065">
        <ele>21.4</ele>
        <time>2021-10-28 08:54:26</time>
      </trkpt>
      <trkpt lat="43.34494" lon="-3.10661">
        <ele>21.2</ele>
        <time>2021-10-28 08:54:27</time>
      </trkpt>
      <trkpt lat="43.34499" lon="-3.10684">
        <ele>21</ele>
        <time>2021-10-28 08:54:28</time>
      </trkpt>
      <trkpt lat="43.34502" lon="-3.10696">
        <ele>20.8</ele>
        <time>2021-10-28 08:54:29</time>
      </trkpt>
      <trkpt lat="43.34502" lon="-3.10696">
        <ele>20.6</ele>
        <time>2021-10-28 08:54:30</time>
      </trkpt>
      <trkpt lat="43.34508" lon="-3.1072">
        <ele>20.6</ele>
        <time>2021-10-28 08:54:31</time>
      </trkpt>
      <trkpt lat="43.34508" lon="-3.1072">
        <ele>20.4</ele>
        <time>2021-10-28 08:54:32</time>
      </trkpt>
      <trkpt lat="43.34514" lon="-3.10741">
        <ele>20.4</ele>
        <time>2021-10-28 08:54:33</time>
      </trkpt>
      <trkpt lat="43.34514" lon="-3.10741">
        <ele>20.2</ele>
        <time>2021-10-28 08:54:34</time>
      </trkpt>
      <trkpt lat="43.3452" lon="-3.1075">
        <ele>19.8</ele>
        <time>2021-10-28 08:54:35</time>
      </trkpt>
      <trkpt lat="43.34525" lon="-3.10776">
        <ele>19.6</ele>
        <time>2021-10-28 08:54:36</time>
      </trkpt>
      <trkpt lat="43.34526" lon="-3.10787">
        <ele>19.4</ele>
        <time>2021-10-28 08:54:37</time>
      </trkpt>
      <trkpt lat="43.34529" lon="-3.10797">
        <ele>19</ele>
        <time>2021-10-28 08:54:38</time>
      </trkpt>
      <trkpt lat="43.34529" lon="-3.10797">
        <ele>18.6</ele>
        <time>2021-10-28 08:54:39</time>
      </trkpt>
      <trkpt lat="43.3453" lon="-3.1082">
        <ele>18.4</ele>
        <time>2021-10-28 08:54:40</time>
      </trkpt>
      <trkpt lat="43.3453" lon="-3.10832">
        <ele>18</ele>
        <time>2021-10-28 08:54:41</time>
      </trkpt>
      <trkpt lat="43.3453" lon="-3.10832">
        <ele>17.8</ele>
        <time>2021-10-28 08:54:42</time>
      </trkpt>
      <trkpt lat="43.34528" lon="-3.10859">
        <ele>17.4</ele>
        <time>2021-10-28 08:54:43</time>
      </trkpt>
      <trkpt lat="43.34528" lon="-3.10859">
        <ele>17.4</ele>
        <time>2021-10-28 08:54:44</time>
      </trkpt>
      <trkpt lat="43.3453" lon="-3.10882">
        <ele>17.2</ele>
        <time>2021-10-28 08:54:45</time>
      </trkpt>
      <trkpt lat="43.3453" lon="-3.10894">
        <ele>17.2</ele>
        <time>2021-10-28 08:54:46</time>
      </trkpt>
      <trkpt lat="43.3453" lon="-3.10894">
        <ele>17.2</ele>
        <time>2021-10-28 08:54:47</time>
      </trkpt>
      <trkpt lat="43.34532" lon="-3.10917">
        <ele>17</ele>
        <time>2021-10-28 08:54:48</time>
      </trkpt>
      <trkpt lat="43.34532" lon="-3.10917">
        <ele>17</ele>
        <time>2021-10-28 08:54:49</time>
      </trkpt>
      <trkpt lat="43.34535" lon="-3.1094">
        <ele>17</ele>
        <time>2021-10-28 08:54:50</time>
      </trkpt>
      <trkpt lat="43.34535" lon="-3.1094">
        <ele>16.8</ele>
        <time>2021-10-28 08:54:51</time>
      </trkpt>
      <trkpt lat="43.3454" lon="-3.10961">
        <ele>16.6</ele>
        <time>2021-10-28 08:54:52</time>
      </trkpt>
      <trkpt lat="43.3454" lon="-3.10961">
        <ele>16.4</ele>
        <time>2021-10-28 08:54:53</time>
      </trkpt>
      <trkpt lat="43.34546" lon="-3.1098">
        <ele>16.4</ele>
        <time>2021-10-28 08:54:54</time>
      </trkpt>
      <trkpt lat="43.3455" lon="-3.10988">
        <ele>16.4</ele>
        <time>2021-10-28 08:54:55</time>
      </trkpt>
      <trkpt lat="43.3455" lon="-3.10988">
        <ele>16.4</ele>
        <time>2021-10-28 08:54:56</time>
      </trkpt>
      <trkpt lat="43.34554" lon="-3.10993">
        <ele>16.4</ele>
        <time>2021-10-28 08:54:57</time>
      </trkpt>
      <trkpt lat="43.34553" lon="-3.11004">
        <ele>16.4</ele>
        <time>2021-10-28 08:54:58</time>
      </trkpt>
      <trkpt lat="43.34551" lon="-3.11011">
        <ele>16.4</ele>
        <time>2021-10-28 08:54:59</time>
      </trkpt>
      <trkpt lat="43.34543" lon="-3.11023">
        <ele>16.4</ele>
        <time>2021-10-28 08:55:00</time>
      </trkpt>
      <trkpt lat="43.34543" lon="-3.11023">
        <ele>16.4</ele>
        <time>2021-10-28 08:55:01</time>
      </trkpt>
      <trkpt lat="43.34539" lon="-3.11037">
        <ele>16.6</ele>
        <time>2021-10-28 08:55:02</time>
      </trkpt>
      <trkpt lat="43.34539" lon="-3.11037">
        <ele>16.6</ele>
        <time>2021-10-28 08:55:03</time>
      </trkpt>
      <trkpt lat="43.34539" lon="-3.11046">
        <ele>16.8</ele>
        <time>2021-10-28 08:55:04</time>
      </trkpt>
      <trkpt lat="43.34539" lon="-3.11053">
        <ele>16.8</ele>
        <time>2021-10-28 08:55:05</time>
      </trkpt>
      <trkpt lat="43.34536" lon="-3.11062">
        <ele>16.8</ele>
        <time>2021-10-28 08:55:06</time>
      </trkpt>
      <trkpt lat="43.3453" lon="-3.11077">
        <ele>17</ele>
        <time>2021-10-28 08:55:07</time>
      </trkpt>
      <trkpt lat="43.3453" lon="-3.11077">
        <ele>17.2</ele>
        <time>2021-10-28 08:55:08</time>
      </trkpt>
      <trkpt lat="43.34523" lon="-3.11086">
        <ele>17.2</ele>
        <time>2021-10-28 08:55:09</time>
      </trkpt>
      <trkpt lat="43.34519" lon="-3.1109">
        <ele>17.2</ele>
        <time>2021-10-28 08:55:10</time>
      </trkpt>
      <trkpt lat="43.34519" lon="-3.1109">
        <ele>17.2</ele>
        <time>2021-10-28 08:55:11</time>
      </trkpt>
      <trkpt lat="43.34511" lon="-3.11096">
        <ele>17</ele>
        <time>2021-10-28 08:55:12</time>
      </trkpt>
      <trkpt lat="43.34511" lon="-3.11096">
        <ele>17</ele>
        <time>2021-10-28 08:55:13</time>
      </trkpt>
      <trkpt lat="43.34511" lon="-3.11096">
        <ele>17</ele>
        <time>2021-10-28 08:55:14</time>
      </trkpt>
      <trkpt lat="43.34494" lon="-3.11102">
        <ele>17</ele>
        <time>2021-10-28 08:55:15</time>
      </trkpt>
      <trkpt lat="43.34494" lon="-3.11102">
        <ele>17</ele>
        <time>2021-10-28 08:55:16</time>
      </trkpt>
      <trkpt lat="43.34485" lon="-3.11103">
        <ele>17.2</ele>
        <time>2021-10-28 08:55:17</time>
      </trkpt>
      <trkpt lat="43.34482" lon="-3.11103">
        <ele>17.2</ele>
        <time>2021-10-28 08:55:18</time>
      </trkpt>
      <trkpt lat="43.34479" lon="-3.11105">
        <ele>17.4</ele>
        <time>2021-10-28 08:55:19</time>
      </trkpt>
      <trkpt lat="43.34479" lon="-3.11105">
        <ele>17.4</ele>
        <time>2021-10-28 08:55:20</time>
      </trkpt>
      <trkpt lat="43.34479" lon="-3.11105">
        <ele>17.4</ele>
        <time>2021-10-28 08:55:21</time>
      </trkpt>
      <trkpt lat="43.34479" lon="-3.11105">
        <ele>17.4</ele>
        <time>2021-10-28 08:55:22</time>
      </trkpt>
      <trkpt lat="43.34455" lon="-3.11111">
        <ele>17.4</ele>
        <time>2021-10-28 08:55:23</time>
      </trkpt>
      <trkpt lat="43.34449" lon="-3.11112">
        <ele>17.2</ele>
        <time>2021-10-28 08:55:24</time>
      </trkpt>
      <trkpt lat="43.34449" lon="-3.11112">
        <ele>17.2</ele>
        <time>2021-10-28 08:55:25</time>
      </trkpt>
      <trkpt lat="43.34442" lon="-3.11113">
        <ele>17.2</ele>
        <time>2021-10-28 08:55:26</time>
      </trkpt>
      <trkpt lat="43.34434" lon="-3.11118">
        <ele>17.4</ele>
        <time>2021-10-28 08:55:27</time>
      </trkpt>
      <trkpt lat="43.34434" lon="-3.11118">
        <ele>17.4</ele>
        <time>2021-10-28 08:55:28</time>
      </trkpt>
      <trkpt lat="43.34434" lon="-3.11118">
        <ele>17.4</ele>
        <time>2021-10-28 08:55:29</time>
      </trkpt>
      <trkpt lat="43.3442" lon="-3.1113">
        <ele>17.4</ele>
        <time>2021-10-28 08:55:30</time>
      </trkpt>
      <trkpt lat="43.34416" lon="-3.11135">
        <ele>17.4</ele>
        <time>2021-10-28 08:55:31</time>
      </trkpt>
      <trkpt lat="43.34416" lon="-3.11135">
        <ele>17.4</ele>
        <time>2021-10-28 08:55:32</time>
      </trkpt>
      <trkpt lat="43.3441" lon="-3.1114">
        <ele>17.4</ele>
        <time>2021-10-28 08:55:33</time>
      </trkpt>
      <trkpt lat="43.34409" lon="-3.11145">
        <ele>17.6</ele>
        <time>2021-10-28 08:55:34</time>
      </trkpt>
      <trkpt lat="43.34402" lon="-3.11159">
        <ele>17.6</ele>
        <time>2021-10-28 08:55:35</time>
      </trkpt>
      <trkpt lat="43.34398" lon="-3.11165">
        <ele>17.6</ele>
        <time>2021-10-28 08:55:36</time>
      </trkpt>
      <trkpt lat="43.34398" lon="-3.11165">
        <ele>17.8</ele>
        <time>2021-10-28 08:55:37</time>
      </trkpt>
      <trkpt lat="43.34393" lon="-3.11175">
        <ele>17.8</ele>
        <time>2021-10-28 08:55:38</time>
      </trkpt>
      <trkpt lat="43.34393" lon="-3.11175">
        <ele>18</ele>
        <time>2021-10-28 08:55:39</time>
      </trkpt>
      <trkpt lat="43.34386" lon="-3.11178">
        <ele>18</ele>
        <time>2021-10-28 08:55:40</time>
      </trkpt>
      <trkpt lat="43.34377" lon="-3.11188">
        <ele>18</ele>
        <time>2021-10-28 08:55:41</time>
      </trkpt>
      <trkpt lat="43.34377" lon="-3.11188">
        <ele>17.8</ele>
        <time>2021-10-28 08:55:42</time>
      </trkpt>
      <trkpt lat="43.34369" lon="-3.11198">
        <ele>17.8</ele>
        <time>2021-10-28 08:55:43</time>
      </trkpt>
      <trkpt lat="43.34369" lon="-3.11198">
        <ele>17.8</ele>
        <time>2021-10-28 08:55:44</time>
      </trkpt>
      <trkpt lat="43.34367" lon="-3.11201">
        <ele>17.8</ele>
        <time>2021-10-28 08:55:45</time>
      </trkpt>
      <trkpt lat="43.3436" lon="-3.11204">
        <ele>17.6</ele>
        <time>2021-10-28 08:55:46</time>
      </trkpt>
      <trkpt lat="43.34353" lon="-3.11204">
        <ele>17.6</ele>
        <time>2021-10-28 08:55:47</time>
      </trkpt>
      <trkpt lat="43.34342" lon="-3.112">
        <ele>17.4</ele>
        <time>2021-10-28 08:55:48</time>
      </trkpt>
      <trkpt lat="43.34342" lon="-3.112">
        <ele>17</ele>
        <time>2021-10-28 08:55:49</time>
      </trkpt>
      <trkpt lat="43.3433" lon="-3.11195">
        <ele>16.8</ele>
        <time>2021-10-28 08:55:50</time>
      </trkpt>
      <trkpt lat="43.3433" lon="-3.11195">
        <ele>16.8</ele>
        <time>2021-10-28 08:55:51</time>
      </trkpt>
      <trkpt lat="43.34316" lon="-3.11193">
        <ele>16.8</ele>
        <time>2021-10-28 08:55:52</time>
      </trkpt>
      <trkpt lat="43.34311" lon="-3.11193">
        <ele>16.6</ele>
        <time>2021-10-28 08:55:53</time>
      </trkpt>
      <trkpt lat="43.34311" lon="-3.11193">
        <ele>16.6</ele>
        <time>2021-10-28 08:55:54</time>
      </trkpt>
      <trkpt lat="43.34304" lon="-3.11193">
        <ele>16.6</ele>
        <time>2021-10-28 08:55:55</time>
      </trkpt>
      <trkpt lat="43.34301" lon="-3.11188">
        <ele>16.4</ele>
        <time>2021-10-28 08:55:56</time>
      </trkpt>
      <trkpt lat="43.3429" lon="-3.11181">
        <ele>16.2</ele>
        <time>2021-10-28 08:55:57</time>
      </trkpt>
      <trkpt lat="43.34284" lon="-3.1118">
        <ele>16.2</ele>
        <time>2021-10-28 08:55:58</time>
      </trkpt>
      <trkpt lat="43.34284" lon="-3.1118">
        <ele>16.2</ele>
        <time>2021-10-28 08:55:59</time>
      </trkpt>
      <trkpt lat="43.34274" lon="-3.11175">
        <ele>16.2</ele>
        <time>2021-10-28 08:56:00</time>
      </trkpt>
      <trkpt lat="43.34274" lon="-3.11175">
        <ele>16.2</ele>
        <time>2021-10-28 08:56:01</time>
      </trkpt>
      <trkpt lat="43.34262" lon="-3.11171">
        <ele>16.2</ele>
        <time>2021-10-28 08:56:02</time>
      </trkpt>
      <trkpt lat="43.34262" lon="-3.11171">
        <ele>16</ele>
        <time>2021-10-28 08:56:03</time>
      </trkpt>
      <trkpt lat="43.34262" lon="-3.11171">
        <ele>16</ele>
        <time>2021-10-28 08:56:04</time>
      </trkpt>
      <trkpt lat="43.34244" lon="-3.11165">
        <ele>16</ele>
        <time>2021-10-28 08:56:05</time>
      </trkpt>
      <trkpt lat="43.34244" lon="-3.11165">
        <ele>16</ele>
        <time>2021-10-28 08:56:06</time>
      </trkpt>
      <trkpt lat="43.34241" lon="-3.11165">
        <ele>16.2</ele>
        <time>2021-10-28 08:56:07</time>
      </trkpt>
      <trkpt lat="43.34236" lon="-3.11166">
        <ele>16.2</ele>
        <time>2021-10-28 08:56:08</time>
      </trkpt>
      <trkpt lat="43.34224" lon="-3.11169">
        <ele>16.2</ele>
        <time>2021-10-28 08:56:09</time>
      </trkpt>
      <trkpt lat="43.34219" lon="-3.11169">
        <ele>16.2</ele>
        <time>2021-10-28 08:56:10</time>
      </trkpt>
      <trkpt lat="43.34219" lon="-3.11169">
        <ele>16.2</ele>
        <time>2021-10-28 08:56:11</time>
      </trkpt>
      <trkpt lat="43.34207" lon="-3.11171">
        <ele>16.2</ele>
        <time>2021-10-28 08:56:12</time>
      </trkpt>
      <trkpt lat="43.34207" lon="-3.11171">
        <ele>16.2</ele>
        <time>2021-10-28 08:56:13</time>
      </trkpt>
      <trkpt lat="43.34202" lon="-3.11172">
        <ele>16.2</ele>
        <time>2021-10-28 08:56:14</time>
      </trkpt>
      <trkpt lat="43.34188" lon="-3.11174">
        <ele>16.2</ele>
        <time>2021-10-28 08:56:15</time>
      </trkpt>
      <trkpt lat="43.34188" lon="-3.11174">
        <ele>16.2</ele>
        <time>2021-10-28 08:56:16</time>
      </trkpt>
      <trkpt lat="43.34183" lon="-3.11177">
        <ele>16.2</ele>
        <time>2021-10-28 08:56:17</time>
      </trkpt>
      <trkpt lat="43.34177" lon="-3.11179">
        <ele>16</ele>
        <time>2021-10-28 08:56:18</time>
      </trkpt>
      <trkpt lat="43.34166" lon="-3.11176">
        <ele>16</ele>
        <time>2021-10-28 08:56:19</time>
      </trkpt>
      <trkpt lat="43.34166" lon="-3.11176">
        <ele>16</ele>
        <time>2021-10-28 08:56:20</time>
      </trkpt>
      <trkpt lat="43.34161" lon="-3.11176">
        <ele>16</ele>
        <time>2021-10-28 08:56:21</time>
      </trkpt>
      <trkpt lat="43.34147" lon="-3.1118">
        <ele>16</ele>
        <time>2021-10-28 08:56:22</time>
      </trkpt>
      <trkpt lat="43.34147" lon="-3.1118">
        <ele>16</ele>
        <time>2021-10-28 08:56:23</time>
      </trkpt>
      <trkpt lat="43.34136" lon="-3.11182">
        <ele>16</ele>
        <time>2021-10-28 08:56:24</time>
      </trkpt>
      <trkpt lat="43.34136" lon="-3.11182">
        <ele>16</ele>
        <time>2021-10-28 08:56:25</time>
      </trkpt>
      <trkpt lat="43.3413" lon="-3.11182">
        <ele>16</ele>
        <time>2021-10-28 08:56:26</time>
      </trkpt>
      <trkpt lat="43.34121" lon="-3.1118">
        <ele>16</ele>
        <time>2021-10-28 08:56:27</time>
      </trkpt>
      <trkpt lat="43.34121" lon="-3.1118">
        <ele>16</ele>
        <time>2021-10-28 08:56:28</time>
      </trkpt>
      <trkpt lat="43.34113" lon="-3.11182">
        <ele>16</ele>
        <time>2021-10-28 08:56:29</time>
      </trkpt>
      <trkpt lat="43.34109" lon="-3.11182">
        <ele>16</ele>
        <time>2021-10-28 08:56:30</time>
      </trkpt>
      <trkpt lat="43.34102" lon="-3.11181">
        <ele>16</ele>
        <time>2021-10-28 08:56:31</time>
      </trkpt>
      <trkpt lat="43.34093" lon="-3.11177">
        <ele>16</ele>
        <time>2021-10-28 08:56:32</time>
      </trkpt>
      <trkpt lat="43.34093" lon="-3.11177">
        <ele>16</ele>
        <time>2021-10-28 08:56:33</time>
      </trkpt>
      <trkpt lat="43.34087" lon="-3.11174">
        <ele>16</ele>
        <time>2021-10-28 08:56:34</time>
      </trkpt>
      <trkpt lat="43.34081" lon="-3.11173">
        <ele>16</ele>
        <time>2021-10-28 08:56:35</time>
      </trkpt>
      <trkpt lat="43.34073" lon="-3.11173">
        <ele>16</ele>
        <time>2021-10-28 08:56:36</time>
      </trkpt>
      <trkpt lat="43.34067" lon="-3.11172">
        <ele>16.2</ele>
        <time>2021-10-28 08:56:37</time>
      </trkpt>
      <trkpt lat="43.34056" lon="-3.11169">
        <ele>16.2</ele>
        <time>2021-10-28 08:56:38</time>
      </trkpt>
      <trkpt lat="43.34051" lon="-3.11165">
        <ele>16.2</ele>
        <time>2021-10-28 08:56:39</time>
      </trkpt>
      <trkpt lat="43.34051" lon="-3.11165">
        <ele>16.2</ele>
        <time>2021-10-28 08:56:40</time>
      </trkpt>
      <trkpt lat="43.34039" lon="-3.11159">
        <ele>16.2</ele>
        <time>2021-10-28 08:56:41</time>
      </trkpt>
      <trkpt lat="43.34039" lon="-3.11159">
        <ele>16.2</ele>
        <time>2021-10-28 08:56:42</time>
      </trkpt>
      <trkpt lat="43.34039" lon="-3.11159">
        <ele>16.4</ele>
        <time>2021-10-28 08:56:43</time>
      </trkpt>
      <trkpt lat="43.34021" lon="-3.11149">
        <ele>16.4</ele>
        <time>2021-10-28 08:56:44</time>
      </trkpt>
      <trkpt lat="43.34021" lon="-3.11149">
        <ele>16.4</ele>
        <time>2021-10-28 08:56:45</time>
      </trkpt>
      <trkpt lat="43.34008" lon="-3.11149">
        <ele>16.6</ele>
        <time>2021-10-28 08:56:46</time>
      </trkpt>
      <trkpt lat="43.34008" lon="-3.11149">
        <ele>16.6</ele>
        <time>2021-10-28 08:56:47</time>
      </trkpt>
      <trkpt lat="43.34002" lon="-3.11148">
        <ele>16.6</ele>
        <time>2021-10-28 08:56:48</time>
      </trkpt>
      <trkpt lat="43.33991" lon="-3.11142">
        <ele>16.6</ele>
        <time>2021-10-28 08:56:49</time>
      </trkpt>
      <trkpt lat="43.33991" lon="-3.11142">
        <ele>16.8</ele>
        <time>2021-10-28 08:56:50</time>
      </trkpt>
      <trkpt lat="43.33983" lon="-3.11141">
        <ele>17</ele>
        <time>2021-10-28 08:56:51</time>
      </trkpt>
      <trkpt lat="43.33977" lon="-3.11141">
        <ele>17.2</ele>
        <time>2021-10-28 08:56:52</time>
      </trkpt>
      <trkpt lat="43.33971" lon="-3.1114">
        <ele>17.4</ele>
        <time>2021-10-28 08:56:53</time>
      </trkpt>
      <trkpt lat="43.33965" lon="-3.1114">
        <ele>17.4</ele>
        <time>2021-10-28 08:56:54</time>
      </trkpt>
      <trkpt lat="43.33952" lon="-3.11139">
        <ele>17.4</ele>
        <time>2021-10-28 08:56:55</time>
      </trkpt>
      <trkpt lat="43.33947" lon="-3.11135">
        <ele>17.4</ele>
        <time>2021-10-28 08:56:56</time>
      </trkpt>
      <trkpt lat="43.33947" lon="-3.11135">
        <ele>17.4</ele>
        <time>2021-10-28 08:56:57</time>
      </trkpt>
      <trkpt lat="43.33947" lon="-3.11135">
        <ele>17.4</ele>
        <time>2021-10-28 08:56:58</time>
      </trkpt>
      <trkpt lat="43.33934" lon="-3.11135">
        <ele>17.6</ele>
        <time>2021-10-28 08:56:59</time>
      </trkpt>
      <trkpt lat="43.33928" lon="-3.11137">
        <ele>17.6</ele>
        <time>2021-10-28 08:57:00</time>
      </trkpt>
      <trkpt lat="43.33916" lon="-3.11137">
        <ele>17.8</ele>
        <time>2021-10-28 08:57:01</time>
      </trkpt>
      <trkpt lat="43.33916" lon="-3.11137">
        <ele>18</ele>
        <time>2021-10-28 08:57:02</time>
      </trkpt>
      <trkpt lat="43.33905" lon="-3.1114">
        <ele>18</ele>
        <time>2021-10-28 08:57:03</time>
      </trkpt>
      <trkpt lat="43.33905" lon="-3.1114">
        <ele>18</ele>
        <time>2021-10-28 08:57:04</time>
      </trkpt>
      <trkpt lat="43.33899" lon="-3.11137">
        <ele>18</ele>
        <time>2021-10-28 08:57:05</time>
      </trkpt>
      <trkpt lat="43.33893" lon="-3.11139">
        <ele>17.8</ele>
        <time>2021-10-28 08:57:06</time>
      </trkpt>
      <trkpt lat="43.33888" lon="-3.11142">
        <ele>17.4</ele>
        <time>2021-10-28 08:57:07</time>
      </trkpt>
      <trkpt lat="43.33882" lon="-3.11144">
        <ele>17.2</ele>
        <time>2021-10-28 08:57:08</time>
      </trkpt>
      <trkpt lat="43.33876" lon="-3.11146">
        <ele>17</ele>
        <time>2021-10-28 08:57:09</time>
      </trkpt>
      <trkpt lat="43.33869" lon="-3.11148">
        <ele>17</ele>
        <time>2021-10-28 08:57:10</time>
      </trkpt>
      <trkpt lat="43.33863" lon="-3.11149">
        <ele>17</ele>
        <time>2021-10-28 08:57:11</time>
      </trkpt>
      <trkpt lat="43.3385" lon="-3.11154">
        <ele>17</ele>
        <time>2021-10-28 08:57:12</time>
      </trkpt>
      <trkpt lat="43.33845" lon="-3.11159">
        <ele>17</ele>
        <time>2021-10-28 08:57:13</time>
      </trkpt>
      <trkpt lat="43.33845" lon="-3.11159">
        <ele>17</ele>
        <time>2021-10-28 08:57:14</time>
      </trkpt>
      <trkpt lat="43.33841" lon="-3.11163">
        <ele>17</ele>
        <time>2021-10-28 08:57:15</time>
      </trkpt>
      <trkpt lat="43.33836" lon="-3.11165">
        <ele>17</ele>
        <time>2021-10-28 08:57:16</time>
      </trkpt>
      <trkpt lat="43.33825" lon="-3.11167">
        <ele>17</ele>
        <time>2021-10-28 08:57:17</time>
      </trkpt>
      <trkpt lat="43.33819" lon="-3.11171">
        <ele>16.8</ele>
        <time>2021-10-28 08:57:18</time>
      </trkpt>
      <trkpt lat="43.33819" lon="-3.11171">
        <ele>16.8</ele>
        <time>2021-10-28 08:57:19</time>
      </trkpt>
      <trkpt lat="43.33807" lon="-3.11176">
        <ele>16.8</ele>
        <time>2021-10-28 08:57:20</time>
      </trkpt>
      <trkpt lat="43.33807" lon="-3.11176">
        <ele>16.6</ele>
        <time>2021-10-28 08:57:21</time>
      </trkpt>
      <trkpt lat="43.338" lon="-3.11178">
        <ele>16.8</ele>
        <time>2021-10-28 08:57:22</time>
      </trkpt>
      <trkpt lat="43.33791" lon="-3.11181">
        <ele>17</ele>
        <time>2021-10-28 08:57:23</time>
      </trkpt>
      <trkpt lat="43.33785" lon="-3.11183">
        <ele>17.2</ele>
        <time>2021-10-28 08:57:24</time>
      </trkpt>
      <trkpt lat="43.33778" lon="-3.11184">
        <ele>17.6</ele>
        <time>2021-10-28 08:57:25</time>
      </trkpt>
      <trkpt lat="43.33778" lon="-3.11184">
        <ele>17.6</ele>
        <time>2021-10-28 08:57:26</time>
      </trkpt>
      <trkpt lat="43.33772" lon="-3.11185">
        <ele>17.8</ele>
        <time>2021-10-28 08:57:27</time>
      </trkpt>
      <trkpt lat="43.33767" lon="-3.11184">
        <ele>17.8</ele>
        <time>2021-10-28 08:57:28</time>
      </trkpt>
      <trkpt lat="43.33756" lon="-3.11186">
        <ele>18</ele>
        <time>2021-10-28 08:57:29</time>
      </trkpt>
      <trkpt lat="43.3375" lon="-3.11187">
        <ele>18.2</ele>
        <time>2021-10-28 08:57:30</time>
      </trkpt>
      <trkpt lat="43.33743" lon="-3.11189">
        <ele>18.2</ele>
        <time>2021-10-28 08:57:31</time>
      </trkpt>
      <trkpt lat="43.33743" lon="-3.11189">
        <ele>18.2</ele>
        <time>2021-10-28 08:57:32</time>
      </trkpt>
      <trkpt lat="43.33731" lon="-3.11188">
        <ele>18.2</ele>
        <time>2021-10-28 08:57:33</time>
      </trkpt>
      <trkpt lat="43.33731" lon="-3.11188">
        <ele>18</ele>
        <time>2021-10-28 08:57:34</time>
      </trkpt>
      <trkpt lat="43.3372" lon="-3.11185">
        <ele>18</ele>
        <time>2021-10-28 08:57:35</time>
      </trkpt>
      <trkpt lat="43.3372" lon="-3.11185">
        <ele>18</ele>
        <time>2021-10-28 08:57:36</time>
      </trkpt>
      <trkpt lat="43.33708" lon="-3.11181">
        <ele>18</ele>
        <time>2021-10-28 08:57:37</time>
      </trkpt>
      <trkpt lat="43.33708" lon="-3.11181">
        <ele>18.2</ele>
        <time>2021-10-28 08:57:38</time>
      </trkpt>
      <trkpt lat="43.33708" lon="-3.11181">
        <ele>18.2</ele>
        <time>2021-10-28 08:57:39</time>
      </trkpt>
      <trkpt lat="43.33696" lon="-3.11177">
        <ele>18.2</ele>
        <time>2021-10-28 08:57:40</time>
      </trkpt>
      <trkpt lat="43.3369" lon="-3.11177">
        <ele>18.2</ele>
        <time>2021-10-28 08:57:41</time>
      </trkpt>
      <trkpt lat="43.33685" lon="-3.11175">
        <ele>18.2</ele>
        <time>2021-10-28 08:57:42</time>
      </trkpt>
      <trkpt lat="43.33679" lon="-3.11171">
        <ele>18.2</ele>
        <time>2021-10-28 08:57:43</time>
      </trkpt>
      <trkpt lat="43.33674" lon="-3.11168">
        <ele>18.2</ele>
        <time>2021-10-28 08:57:44</time>
      </trkpt>
      <trkpt lat="43.33662" lon="-3.1116">
        <ele>18</ele>
        <time>2021-10-28 08:57:45</time>
      </trkpt>
      <trkpt lat="43.33662" lon="-3.1116">
        <ele>18</ele>
        <time>2021-10-28 08:57:46</time>
      </trkpt>
      <trkpt lat="43.33653" lon="-3.11147">
        <ele>17.8</ele>
        <time>2021-10-28 08:57:47</time>
      </trkpt>
      <trkpt lat="43.33653" lon="-3.11147">
        <ele>17.8</ele>
        <time>2021-10-28 08:57:48</time>
      </trkpt>
      <trkpt lat="43.33642" lon="-3.11136">
        <ele>17.6</ele>
        <time>2021-10-28 08:57:49</time>
      </trkpt>
      <trkpt lat="43.33642" lon="-3.11136">
        <ele>17.6</ele>
        <time>2021-10-28 08:57:50</time>
      </trkpt>
      <trkpt lat="43.33636" lon="-3.11133">
        <ele>17.4</ele>
        <time>2021-10-28 08:57:51</time>
      </trkpt>
      <trkpt lat="43.33627" lon="-3.11122">
        <ele>17.4</ele>
        <time>2021-10-28 08:57:52</time>
      </trkpt>
      <trkpt lat="43.33627" lon="-3.11122">
        <ele>17.4</ele>
        <time>2021-10-28 08:57:53</time>
      </trkpt>
      <trkpt lat="43.33627" lon="-3.11122">
        <ele>17.4</ele>
        <time>2021-10-28 08:57:54</time>
      </trkpt>
      <trkpt lat="43.33614" lon="-3.11103">
        <ele>17.4</ele>
        <time>2021-10-28 08:57:55</time>
      </trkpt>
      <trkpt lat="43.33614" lon="-3.11103">
        <ele>17.4</ele>
        <time>2021-10-28 08:57:56</time>
      </trkpt>
      <trkpt lat="43.33603" lon="-3.11094">
        <ele>17.4</ele>
        <time>2021-10-28 08:57:57</time>
      </trkpt>
      <trkpt lat="43.33597" lon="-3.11086">
        <ele>17.4</ele>
        <time>2021-10-28 08:57:58</time>
      </trkpt>
      <trkpt lat="43.33597" lon="-3.11086">
        <ele>17.2</ele>
        <time>2021-10-28 08:57:59</time>
      </trkpt>
      <trkpt lat="43.33593" lon="-3.11081">
        <ele>17.2</ele>
        <time>2021-10-28 08:58:00</time>
      </trkpt>
      <trkpt lat="43.33588" lon="-3.11073">
        <ele>17.2</ele>
        <time>2021-10-28 08:58:01</time>
      </trkpt>
      <trkpt lat="43.33579" lon="-3.11063">
        <ele>17</ele>
        <time>2021-10-28 08:58:02</time>
      </trkpt>
      <trkpt lat="43.33579" lon="-3.11063">
        <ele>17</ele>
        <time>2021-10-28 08:58:03</time>
      </trkpt>
      <trkpt lat="43.33574" lon="-3.11057">
        <ele>17</ele>
        <time>2021-10-28 08:58:04</time>
      </trkpt>
      <trkpt lat="43.33571" lon="-3.11053">
        <ele>17</ele>
        <time>2021-10-28 08:58:05</time>
      </trkpt>
      <trkpt lat="43.33567" lon="-3.11046">
        <ele>17</ele>
        <time>2021-10-28 08:58:06</time>
      </trkpt>
      <trkpt lat="43.33561" lon="-3.1104">
        <ele>17</ele>
        <time>2021-10-28 08:58:07</time>
      </trkpt>
      <trkpt lat="43.33556" lon="-3.11035">
        <ele>17</ele>
        <time>2021-10-28 08:58:08</time>
      </trkpt>
      <trkpt lat="43.33546" lon="-3.11021">
        <ele>17</ele>
        <time>2021-10-28 08:58:09</time>
      </trkpt>
      <trkpt lat="43.33546" lon="-3.11021">
        <ele>17</ele>
        <time>2021-10-28 08:58:10</time>
      </trkpt>
      <trkpt lat="43.33541" lon="-3.11014">
        <ele>17.2</ele>
        <time>2021-10-28 08:58:11</time>
      </trkpt>
      <trkpt lat="43.33531" lon="-3.11007">
        <ele>17.2</ele>
        <time>2021-10-28 08:58:12</time>
      </trkpt>
      <trkpt lat="43.33531" lon="-3.11007">
        <ele>17.2</ele>
        <time>2021-10-28 08:58:13</time>
      </trkpt>
      <trkpt lat="43.33521" lon="-3.10993">
        <ele>17.2</ele>
        <time>2021-10-28 08:58:14</time>
      </trkpt>
      <trkpt lat="43.33521" lon="-3.10993">
        <ele>17.2</ele>
        <time>2021-10-28 08:58:15</time>
      </trkpt>
      <trkpt lat="43.33517" lon="-3.10986">
        <ele>17.4</ele>
        <time>2021-10-28 08:58:16</time>
      </trkpt>
      <trkpt lat="43.33507" lon="-3.10975">
        <ele>17.4</ele>
        <time>2021-10-28 08:58:17</time>
      </trkpt>
      <trkpt lat="43.33507" lon="-3.10975">
        <ele>17.4</ele>
        <time>2021-10-28 08:58:18</time>
      </trkpt>
      <trkpt lat="43.33498" lon="-3.10966">
        <ele>17.2</ele>
        <time>2021-10-28 08:58:19</time>
      </trkpt>
      <trkpt lat="43.33498" lon="-3.10966">
        <ele>17.2</ele>
        <time>2021-10-28 08:58:20</time>
      </trkpt>
      <trkpt lat="43.33498" lon="-3.10966">
        <ele>17.2</ele>
        <time>2021-10-28 08:58:21</time>
      </trkpt>
      <trkpt lat="43.33483" lon="-3.1095">
        <ele>17.2</ele>
        <time>2021-10-28 08:58:22</time>
      </trkpt>
      <trkpt lat="43.33483" lon="-3.1095">
        <ele>17.4</ele>
        <time>2021-10-28 08:58:23</time>
      </trkpt>
      <trkpt lat="43.33483" lon="-3.1095">
        <ele>17.2</ele>
        <time>2021-10-28 08:58:24</time>
      </trkpt>
      <trkpt lat="43.33472" lon="-3.1094">
        <ele>16.8</ele>
        <time>2021-10-28 08:58:25</time>
      </trkpt>
      <trkpt lat="43.33462" lon="-3.10929">
        <ele>16.6</ele>
        <time>2021-10-28 08:58:26</time>
      </trkpt>
      <trkpt lat="43.33462" lon="-3.10929">
        <ele>16.6</ele>
        <time>2021-10-28 08:58:27</time>
      </trkpt>
      <trkpt lat="43.33458" lon="-3.10924">
        <ele>16.6</ele>
        <time>2021-10-28 08:58:28</time>
      </trkpt>
      <trkpt lat="43.33452" lon="-3.10918">
        <ele>17.4</ele>
        <time>2021-10-28 08:58:29</time>
      </trkpt>
      <trkpt lat="43.33447" lon="-3.10913">
        <ele>17.8</ele>
        <time>2021-10-28 08:58:30</time>
      </trkpt>
      <trkpt lat="43.33442" lon="-3.10908">
        <ele>18</ele>
        <time>2021-10-28 08:58:31</time>
      </trkpt>
      <trkpt lat="43.33437" lon="-3.10901">
        <ele>18</ele>
        <time>2021-10-28 08:58:32</time>
      </trkpt>
      <trkpt lat="43.33426" lon="-3.10893">
        <ele>17.8</ele>
        <time>2021-10-28 08:58:33</time>
      </trkpt>
      <trkpt lat="43.33426" lon="-3.10893">
        <ele>17.8</ele>
        <time>2021-10-28 08:58:34</time>
      </trkpt>
      <trkpt lat="43.33426" lon="-3.10893">
        <ele>17.8</ele>
        <time>2021-10-28 08:58:35</time>
      </trkpt>
      <trkpt lat="43.33411" lon="-3.10878">
        <ele>17.6</ele>
        <time>2021-10-28 08:58:36</time>
      </trkpt>
      <trkpt lat="43.33411" lon="-3.10878">
        <ele>17.6</ele>
        <time>2021-10-28 08:58:37</time>
      </trkpt>
      <trkpt lat="43.33405" lon="-3.10874">
        <ele>17.6</ele>
        <time>2021-10-28 08:58:38</time>
      </trkpt>
      <trkpt lat="43.334" lon="-3.10872">
        <ele>17.6</ele>
        <time>2021-10-28 08:58:39</time>
      </trkpt>
      <trkpt lat="43.3339" lon="-3.1087">
        <ele>17.6</ele>
        <time>2021-10-28 08:58:40</time>
      </trkpt>
      <trkpt lat="43.3339" lon="-3.1087">
        <ele>17.6</ele>
        <time>2021-10-28 08:58:41</time>
      </trkpt>
      <trkpt lat="43.33379" lon="-3.10869">
        <ele>17.6</ele>
        <time>2021-10-28 08:58:42</time>
      </trkpt>
      <trkpt lat="43.33379" lon="-3.10869">
        <ele>17.6</ele>
        <time>2021-10-28 08:58:43</time>
      </trkpt>
      <trkpt lat="43.33379" lon="-3.10869">
        <ele>17.6</ele>
        <time>2021-10-28 08:58:44</time>
      </trkpt>
      <trkpt lat="43.33363" lon="-3.10865">
        <ele>17.6</ele>
        <time>2021-10-28 08:58:45</time>
      </trkpt>
      <trkpt lat="43.33363" lon="-3.10865">
        <ele>18</ele>
        <time>2021-10-28 08:58:46</time>
      </trkpt>
      <trkpt lat="43.33356" lon="-3.10866">
        <ele>18</ele>
        <time>2021-10-28 08:58:47</time>
      </trkpt>
      <trkpt lat="43.33345" lon="-3.10868">
        <ele>18</ele>
        <time>2021-10-28 08:58:48</time>
      </trkpt>
      <trkpt lat="43.33339" lon="-3.10872">
        <ele>18</ele>
        <time>2021-10-28 08:58:49</time>
      </trkpt>
      <trkpt lat="43.33339" lon="-3.10872">
        <ele>17.8</ele>
        <time>2021-10-28 08:58:50</time>
      </trkpt>
      <trkpt lat="43.33333" lon="-3.10874">
        <ele>17.8</ele>
        <time>2021-10-28 08:58:51</time>
      </trkpt>
      <trkpt lat="43.33325" lon="-3.10878">
        <ele>17.8</ele>
        <time>2021-10-28 08:58:52</time>
      </trkpt>
      <trkpt lat="43.33315" lon="-3.10882">
        <ele>17.8</ele>
        <time>2021-10-28 08:58:53</time>
      </trkpt>
      <trkpt lat="43.33315" lon="-3.10882">
        <ele>17.8</ele>
        <time>2021-10-28 08:58:54</time>
      </trkpt>
      <trkpt lat="43.33305" lon="-3.10887">
        <ele>17.8</ele>
        <time>2021-10-28 08:58:55</time>
      </trkpt>
      <trkpt lat="43.33305" lon="-3.10887">
        <ele>17.8</ele>
        <time>2021-10-28 08:58:56</time>
      </trkpt>
      <trkpt lat="43.33295" lon="-3.10895">
        <ele>17.8</ele>
        <time>2021-10-28 08:58:57</time>
      </trkpt>
      <trkpt lat="43.33295" lon="-3.10895">
        <ele>17.6</ele>
        <time>2021-10-28 08:58:58</time>
      </trkpt>
      <trkpt lat="43.33289" lon="-3.109">
        <ele>17.6</ele>
        <time>2021-10-28 08:58:59</time>
      </trkpt>
      <trkpt lat="43.33285" lon="-3.10906">
        <ele>17.4</ele>
        <time>2021-10-28 08:59:00</time>
      </trkpt>
      <trkpt lat="43.33281" lon="-3.10912">
        <ele>17.4</ele>
        <time>2021-10-28 08:59:01</time>
      </trkpt>
      <trkpt lat="43.33277" lon="-3.1092">
        <ele>17.4</ele>
        <time>2021-10-28 08:59:02</time>
      </trkpt>
      <trkpt lat="43.33272" lon="-3.10931">
        <ele>17.4</ele>
        <time>2021-10-28 08:59:03</time>
      </trkpt>
      <trkpt lat="43.33272" lon="-3.10931">
        <ele>17.4</ele>
        <time>2021-10-28 08:59:04</time>
      </trkpt>
      <trkpt lat="43.33272" lon="-3.10931">
        <ele>17.4</ele>
        <time>2021-10-28 08:59:05</time>
      </trkpt>
      <trkpt lat="43.33262" lon="-3.10955">
        <ele>17.4</ele>
        <time>2021-10-28 08:59:06</time>
      </trkpt>
      <trkpt lat="43.33262" lon="-3.10955">
        <ele>17.4</ele>
        <time>2021-10-28 08:59:07</time>
      </trkpt>
      <trkpt lat="43.33258" lon="-3.10972">
        <ele>17.4</ele>
        <time>2021-10-28 08:59:08</time>
      </trkpt>
      <trkpt lat="43.33258" lon="-3.10972">
        <ele>17.4</ele>
        <time>2021-10-28 08:59:09</time>
      </trkpt>
      <trkpt lat="43.33254" lon="-3.1099">
        <ele>17.4</ele>
        <time>2021-10-28 08:59:10</time>
      </trkpt>
      <trkpt lat="43.33254" lon="-3.1099">
        <ele>17.4</ele>
        <time>2021-10-28 08:59:11</time>
      </trkpt>
      <trkpt lat="43.33252" lon="-3.11007">
        <ele>17.4</ele>
        <time>2021-10-28 08:59:12</time>
      </trkpt>
      <trkpt lat="43.33252" lon="-3.11007">
        <ele>17.4</ele>
        <time>2021-10-28 08:59:13</time>
      </trkpt>
      <trkpt lat="43.33247" lon="-3.11024">
        <ele>17.4</ele>
        <time>2021-10-28 08:59:14</time>
      </trkpt>
      <trkpt lat="43.33247" lon="-3.11024">
        <ele>17.6</ele>
        <time>2021-10-28 08:59:15</time>
      </trkpt>
      <trkpt lat="43.33244" lon="-3.11038">
        <ele>17.6</ele>
        <time>2021-10-28 08:59:16</time>
      </trkpt>
      <trkpt lat="43.33244" lon="-3.11038">
        <ele>17.6</ele>
        <time>2021-10-28 08:59:17</time>
      </trkpt>
      <trkpt lat="43.33244" lon="-3.11038">
        <ele>17.8</ele>
        <time>2021-10-28 08:59:18</time>
      </trkpt>
      <trkpt lat="43.33242" lon="-3.11054">
        <ele>18</ele>
        <time>2021-10-28 08:59:19</time>
      </trkpt>
      <trkpt lat="43.3324" lon="-3.11069">
        <ele>18</ele>
        <time>2021-10-28 08:59:20</time>
      </trkpt>
      <trkpt lat="43.3324" lon="-3.11069">
        <ele>18.2</ele>
        <time>2021-10-28 08:59:21</time>
      </trkpt>
      <trkpt lat="43.3324" lon="-3.11069">
        <ele>18.2</ele>
        <time>2021-10-28 08:59:22</time>
      </trkpt>
      <trkpt lat="43.33235" lon="-3.11084">
        <ele>18.2</ele>
        <time>2021-10-28 08:59:23</time>
      </trkpt>
      <trkpt lat="43.33235" lon="-3.11094">
        <ele>18.4</ele>
        <time>2021-10-28 08:59:24</time>
      </trkpt>
      <trkpt lat="43.33234" lon="-3.11103">
        <ele>18.6</ele>
        <time>2021-10-28 08:59:25</time>
      </trkpt>
      <trkpt lat="43.33231" lon="-3.11111">
        <ele>18.6</ele>
        <time>2021-10-28 08:59:26</time>
      </trkpt>
      <trkpt lat="43.33229" lon="-3.11119">
        <ele>18.6</ele>
        <time>2021-10-28 08:59:27</time>
      </trkpt>
      <trkpt lat="43.33225" lon="-3.11134">
        <ele>18.8</ele>
        <time>2021-10-28 08:59:28</time>
      </trkpt>
      <trkpt lat="43.33225" lon="-3.11134">
        <ele>18.8</ele>
        <time>2021-10-28 08:59:29</time>
      </trkpt>
      <trkpt lat="43.33221" lon="-3.11152">
        <ele>18.8</ele>
        <time>2021-10-28 08:59:30</time>
      </trkpt>
      <trkpt lat="43.33221" lon="-3.11152">
        <ele>18.8</ele>
        <time>2021-10-28 08:59:31</time>
      </trkpt>
      <trkpt lat="43.33219" lon="-3.11161">
        <ele>18.8</ele>
        <time>2021-10-28 08:59:32</time>
      </trkpt>
      <trkpt lat="43.33217" lon="-3.1117">
        <ele>18.8</ele>
        <time>2021-10-28 08:59:33</time>
      </trkpt>
      <trkpt lat="43.33216" lon="-3.11178">
        <ele>18.8</ele>
        <time>2021-10-28 08:59:34</time>
      </trkpt>
      <trkpt lat="43.33213" lon="-3.1119">
        <ele>18.8</ele>
        <time>2021-10-28 08:59:35</time>
      </trkpt>
      <trkpt lat="43.3321" lon="-3.11198">
        <ele>18.8</ele>
        <time>2021-10-28 08:59:36</time>
      </trkpt>
      <trkpt lat="43.3321" lon="-3.11198">
        <ele>19</ele>
        <time>2021-10-28 08:59:37</time>
      </trkpt>
      <trkpt lat="43.33206" lon="-3.11213">
        <ele>19</ele>
        <time>2021-10-28 08:59:38</time>
      </trkpt>
      <trkpt lat="43.33206" lon="-3.11213">
        <ele>19</ele>
        <time>2021-10-28 08:59:39</time>
      </trkpt>
      <trkpt lat="43.33203" lon="-3.11226">
        <ele>19</ele>
        <time>2021-10-28 08:59:40</time>
      </trkpt>
      <trkpt lat="43.33203" lon="-3.11226">
        <ele>19.2</ele>
        <time>2021-10-28 08:59:41</time>
      </trkpt>
      <trkpt lat="43.33197" lon="-3.11243">
        <ele>19.4</ele>
        <time>2021-10-28 08:59:42</time>
      </trkpt>
      <trkpt lat="43.33197" lon="-3.11243">
        <ele>19.6</ele>
        <time>2021-10-28 08:59:43</time>
      </trkpt>
      <trkpt lat="43.33194" lon="-3.11252">
        <ele>19.8</ele>
        <time>2021-10-28 08:59:44</time>
      </trkpt>
      <trkpt lat="43.33186" lon="-3.11267">
        <ele>19.8</ele>
        <time>2021-10-28 08:59:45</time>
      </trkpt>
      <trkpt lat="43.33186" lon="-3.11267">
        <ele>19.8</ele>
        <time>2021-10-28 08:59:46</time>
      </trkpt>
      <trkpt lat="43.33186" lon="-3.11267">
        <ele>19.8</ele>
        <time>2021-10-28 08:59:47</time>
      </trkpt>
      <trkpt lat="43.33175" lon="-3.11291">
        <ele>19.6</ele>
        <time>2021-10-28 08:59:48</time>
      </trkpt>
      <trkpt lat="43.33175" lon="-3.11291">
        <ele>19.6</ele>
        <time>2021-10-28 08:59:49</time>
      </trkpt>
      <trkpt lat="43.33173" lon="-3.11298">
        <ele>19.4</ele>
        <time>2021-10-28 08:59:50</time>
      </trkpt>
      <trkpt lat="43.33167" lon="-3.11305">
        <ele>19.4</ele>
        <time>2021-10-28 08:59:51</time>
      </trkpt>
      <trkpt lat="43.33162" lon="-3.11313">
        <ele>19.4</ele>
        <time>2021-10-28 08:59:52</time>
      </trkpt>
      <trkpt lat="43.33157" lon="-3.1132">
        <ele>19.6</ele>
        <time>2021-10-28 08:59:53</time>
      </trkpt>
      <trkpt lat="43.33152" lon="-3.11325">
        <ele>19.8</ele>
        <time>2021-10-28 08:59:54</time>
      </trkpt>
      <trkpt lat="43.33143" lon="-3.11335">
        <ele>20</ele>
        <time>2021-10-28 08:59:55</time>
      </trkpt>
      <trkpt lat="43.33143" lon="-3.11335">
        <ele>20</ele>
        <time>2021-10-28 08:59:56</time>
      </trkpt>
      <trkpt lat="43.33132" lon="-3.11345">
        <ele>20.2</ele>
        <time>2021-10-28 08:59:57</time>
      </trkpt>
      <trkpt lat="43.33132" lon="-3.11345">
        <ele>20.2</ele>
        <time>2021-10-28 08:59:58</time>
      </trkpt>
      <trkpt lat="43.33128" lon="-3.1135">
        <ele>20</ele>
        <time>2021-10-28 08:59:59</time>
      </trkpt>
      <trkpt lat="43.33123" lon="-3.11355">
        <ele>19.8</ele>
        <time>2021-10-28 09:00:00</time>
      </trkpt>
      <trkpt lat="43.33114" lon="-3.11368">
        <ele>19.8</ele>
        <time>2021-10-28 09:00:01</time>
      </trkpt>
      <trkpt lat="43.33114" lon="-3.11368">
        <ele>19.6</ele>
        <time>2021-10-28 09:00:02</time>
      </trkpt>
      <trkpt lat="43.33106" lon="-3.11381">
        <ele>19.6</ele>
        <time>2021-10-28 09:00:03</time>
      </trkpt>
      <trkpt lat="43.33106" lon="-3.11381">
        <ele>19.6</ele>
        <time>2021-10-28 09:00:04</time>
      </trkpt>
      <trkpt lat="43.33102" lon="-3.11388">
        <ele>19.8</ele>
        <time>2021-10-28 09:00:05</time>
      </trkpt>
      <trkpt lat="43.33099" lon="-3.11395">
        <ele>19.8</ele>
        <time>2021-10-28 09:00:06</time>
      </trkpt>
      <trkpt lat="43.33095" lon="-3.11403">
        <ele>19.8</ele>
        <time>2021-10-28 09:00:07</time>
      </trkpt>
      <trkpt lat="43.33089" lon="-3.11417">
        <ele>19.8</ele>
        <time>2021-10-28 09:00:08</time>
      </trkpt>
      <trkpt lat="43.33089" lon="-3.11417">
        <ele>20</ele>
        <time>2021-10-28 09:00:09</time>
      </trkpt>
      <trkpt lat="43.33086" lon="-3.11424">
        <ele>20</ele>
        <time>2021-10-28 09:00:10</time>
      </trkpt>
      <trkpt lat="43.33083" lon="-3.11431">
        <ele>20</ele>
        <time>2021-10-28 09:00:11</time>
      </trkpt>
      <trkpt lat="43.33076" lon="-3.11446">
        <ele>19.8</ele>
        <time>2021-10-28 09:00:12</time>
      </trkpt>
      <trkpt lat="43.33076" lon="-3.11446">
        <ele>19.8</ele>
        <time>2021-10-28 09:00:13</time>
      </trkpt>
      <trkpt lat="43.33073" lon="-3.11453">
        <ele>19.8</ele>
        <time>2021-10-28 09:00:14</time>
      </trkpt>
      <trkpt lat="43.3307" lon="-3.11461">
        <ele>19.8</ele>
        <time>2021-10-28 09:00:15</time>
      </trkpt>
      <trkpt lat="43.33064" lon="-3.11476">
        <ele>20</ele>
        <time>2021-10-28 09:00:16</time>
      </trkpt>
      <trkpt lat="43.33064" lon="-3.11476">
        <ele>20</ele>
        <time>2021-10-28 09:00:17</time>
      </trkpt>
      <trkpt lat="43.33061" lon="-3.11483">
        <ele>20</ele>
        <time>2021-10-28 09:00:18</time>
      </trkpt>
      <trkpt lat="43.33058" lon="-3.1149">
        <ele>20</ele>
        <time>2021-10-28 09:00:19</time>
      </trkpt>
      <trkpt lat="43.33053" lon="-3.11504">
        <ele>19.8</ele>
        <time>2021-10-28 09:00:20</time>
      </trkpt>
      <trkpt lat="43.33053" lon="-3.11504">
        <ele>19.8</ele>
        <time>2021-10-28 09:00:21</time>
      </trkpt>
      <trkpt lat="43.33046" lon="-3.11517">
        <ele>19.8</ele>
        <time>2021-10-28 09:00:22</time>
      </trkpt>
      <trkpt lat="43.33044" lon="-3.11523">
        <ele>20</ele>
        <time>2021-10-28 09:00:23</time>
      </trkpt>
      <trkpt lat="43.33044" lon="-3.11523">
        <ele>20</ele>
        <time>2021-10-28 09:00:24</time>
      </trkpt>
      <trkpt lat="43.3304" lon="-3.11539">
        <ele>20</ele>
        <time>2021-10-28 09:00:25</time>
      </trkpt>
      <trkpt lat="43.3304" lon="-3.11539">
        <ele>20</ele>
        <time>2021-10-28 09:00:26</time>
      </trkpt>
      <trkpt lat="43.33038" lon="-3.11544">
        <ele>20</ele>
        <time>2021-10-28 09:00:27</time>
      </trkpt>
      <trkpt lat="43.33036" lon="-3.11553">
        <ele>20.2</ele>
        <time>2021-10-28 09:00:28</time>
      </trkpt>
      <trkpt lat="43.33033" lon="-3.11568">
        <ele>20</ele>
        <time>2021-10-28 09:00:29</time>
      </trkpt>
      <trkpt lat="43.33033" lon="-3.11568">
        <ele>20</ele>
        <time>2021-10-28 09:00:30</time>
      </trkpt>
      <trkpt lat="43.3303" lon="-3.11577">
        <ele>20.2</ele>
        <time>2021-10-28 09:00:31</time>
      </trkpt>
      <trkpt lat="43.33029" lon="-3.11587">
        <ele>20.2</ele>
        <time>2021-10-28 09:00:32</time>
      </trkpt>
      <trkpt lat="43.33026" lon="-3.11603">
        <ele>20.2</ele>
        <time>2021-10-28 09:00:33</time>
      </trkpt>
      <trkpt lat="43.33026" lon="-3.11603">
        <ele>20.2</ele>
        <time>2021-10-28 09:00:34</time>
      </trkpt>
      <trkpt lat="43.33026" lon="-3.11603">
        <ele>20</ele>
        <time>2021-10-28 09:00:35</time>
      </trkpt>
      <trkpt lat="43.33023" lon="-3.11618">
        <ele>19.6</ele>
        <time>2021-10-28 09:00:36</time>
      </trkpt>
      <trkpt lat="43.33021" lon="-3.11632">
        <ele>19.4</ele>
        <time>2021-10-28 09:00:37</time>
      </trkpt>
      <trkpt lat="43.33021" lon="-3.11632">
        <ele>19.2</ele>
        <time>2021-10-28 09:00:38</time>
      </trkpt>
      <trkpt lat="43.33021" lon="-3.1164">
        <ele>19.2</ele>
        <time>2021-10-28 09:00:39</time>
      </trkpt>
      <trkpt lat="43.3302" lon="-3.11647">
        <ele>19.2</ele>
        <time>2021-10-28 09:00:40</time>
      </trkpt>
      <trkpt lat="43.33019" lon="-3.11655">
        <ele>19.2</ele>
        <time>2021-10-28 09:00:41</time>
      </trkpt>
      <trkpt lat="43.33016" lon="-3.1167">
        <ele>19.4</ele>
        <time>2021-10-28 09:00:42</time>
      </trkpt>
      <trkpt lat="43.33016" lon="-3.1167">
        <ele>19.4</ele>
        <time>2021-10-28 09:00:43</time>
      </trkpt>
      <trkpt lat="43.33013" lon="-3.11684">
        <ele>19.4</ele>
        <time>2021-10-28 09:00:44</time>
      </trkpt>
      <trkpt lat="43.33013" lon="-3.11684">
        <ele>19.2</ele>
        <time>2021-10-28 09:00:45</time>
      </trkpt>
      <trkpt lat="43.33012" lon="-3.11692">
        <ele>19.2</ele>
        <time>2021-10-28 09:00:46</time>
      </trkpt>
      <trkpt lat="43.3301" lon="-3.11698">
        <ele>19.2</ele>
        <time>2021-10-28 09:00:47</time>
      </trkpt>
      <trkpt lat="43.33006" lon="-3.11705">
        <ele>19.2</ele>
        <time>2021-10-28 09:00:48</time>
      </trkpt>
      <trkpt lat="43.33001" lon="-3.11721">
        <ele>19</ele>
        <time>2021-10-28 09:00:49</time>
      </trkpt>
      <trkpt lat="43.33001" lon="-3.11721">
        <ele>19</ele>
        <time>2021-10-28 09:00:50</time>
      </trkpt>
      <trkpt lat="43.32999" lon="-3.11726">
        <ele>19</ele>
        <time>2021-10-28 09:00:51</time>
      </trkpt>
      <trkpt lat="43.3299" lon="-3.11744">
        <ele>18.8</ele>
        <time>2021-10-28 09:00:52</time>
      </trkpt>
      <trkpt lat="43.3299" lon="-3.11744">
        <ele>18.8</ele>
        <time>2021-10-28 09:00:53</time>
      </trkpt>
      <trkpt lat="43.3299" lon="-3.11744">
        <ele>19</ele>
        <time>2021-10-28 09:00:54</time>
      </trkpt>
      <trkpt lat="43.3298" lon="-3.11766">
        <ele>19</ele>
        <time>2021-10-28 09:00:55</time>
      </trkpt>
      <trkpt lat="43.3298" lon="-3.11766">
        <ele>19</ele>
        <time>2021-10-28 09:00:56</time>
      </trkpt>
      <trkpt lat="43.32975" lon="-3.11776">
        <ele>19</ele>
        <time>2021-10-28 09:00:57</time>
      </trkpt>
      <trkpt lat="43.32968" lon="-3.11788">
        <ele>19</ele>
        <time>2021-10-28 09:00:58</time>
      </trkpt>
      <trkpt lat="43.32968" lon="-3.11788">
        <ele>18.8</ele>
        <time>2021-10-28 09:00:59</time>
      </trkpt>
      <trkpt lat="43.32968" lon="-3.11788">
        <ele>18.6</ele>
        <time>2021-10-28 09:01:00</time>
      </trkpt>
      <trkpt lat="43.32958" lon="-3.11799">
        <ele>18.6</ele>
        <time>2021-10-28 09:01:01</time>
      </trkpt>
      <trkpt lat="43.32949" lon="-3.11811">
        <ele>18.6</ele>
        <time>2021-10-28 09:01:02</time>
      </trkpt>
      <trkpt lat="43.32949" lon="-3.11811">
        <ele>18.8</ele>
        <time>2021-10-28 09:01:03</time>
      </trkpt>
      <trkpt lat="43.32946" lon="-3.11816">
        <ele>19</ele>
        <time>2021-10-28 09:01:04</time>
      </trkpt>
      <trkpt lat="43.32942" lon="-3.11821">
        <ele>19.2</ele>
        <time>2021-10-28 09:01:05</time>
      </trkpt>
      <trkpt lat="43.32934" lon="-3.1183">
        <ele>19.4</ele>
        <time>2021-10-28 09:01:06</time>
      </trkpt>
      <trkpt lat="43.32934" lon="-3.1183">
        <ele>19.4</ele>
        <time>2021-10-28 09:01:07</time>
      </trkpt>
      <trkpt lat="43.32931" lon="-3.11836">
        <ele>19.4</ele>
        <time>2021-10-28 09:01:08</time>
      </trkpt>
      <trkpt lat="43.32928" lon="-3.11844">
        <ele>19.4</ele>
        <time>2021-10-28 09:01:09</time>
      </trkpt>
      <trkpt lat="43.32918" lon="-3.11851">
        <ele>19.2</ele>
        <time>2021-10-28 09:01:10</time>
      </trkpt>
      <trkpt lat="43.32918" lon="-3.11851">
        <ele>19.2</ele>
        <time>2021-10-28 09:01:11</time>
      </trkpt>
      <trkpt lat="43.32915" lon="-3.11857">
        <ele>19</ele>
        <time>2021-10-28 09:01:12</time>
      </trkpt>
      <trkpt lat="43.32911" lon="-3.11864">
        <ele>19</ele>
        <time>2021-10-28 09:01:13</time>
      </trkpt>
      <trkpt lat="43.32902" lon="-3.11876">
        <ele>18.8</ele>
        <time>2021-10-28 09:01:14</time>
      </trkpt>
      <trkpt lat="43.32902" lon="-3.11876">
        <ele>18.8</ele>
        <time>2021-10-28 09:01:15</time>
      </trkpt>
      <trkpt lat="43.32895" lon="-3.11889">
        <ele>18.8</ele>
        <time>2021-10-28 09:01:16</time>
      </trkpt>
      <trkpt lat="43.32895" lon="-3.11889">
        <ele>18.8</ele>
        <time>2021-10-28 09:01:17</time>
      </trkpt>
      <trkpt lat="43.3289" lon="-3.11894">
        <ele>18.8</ele>
        <time>2021-10-28 09:01:18</time>
      </trkpt>
      <trkpt lat="43.32882" lon="-3.11903">
        <ele>18.6</ele>
        <time>2021-10-28 09:01:19</time>
      </trkpt>
      <trkpt lat="43.32882" lon="-3.11903">
        <ele>18.6</ele>
        <time>2021-10-28 09:01:20</time>
      </trkpt>
      <trkpt lat="43.32882" lon="-3.11903">
        <ele>18.4</ele>
        <time>2021-10-28 09:01:21</time>
      </trkpt>
      <trkpt lat="43.32872" lon="-3.11918">
        <ele>18.4</ele>
        <time>2021-10-28 09:01:22</time>
      </trkpt>
      <trkpt lat="43.32868" lon="-3.11925">
        <ele>18.4</ele>
        <time>2021-10-28 09:01:23</time>
      </trkpt>
      <trkpt lat="43.32868" lon="-3.11925">
        <ele>18.4</ele>
        <time>2021-10-28 09:01:24</time>
      </trkpt>
      <trkpt lat="43.32858" lon="-3.11939">
        <ele>18.4</ele>
        <time>2021-10-28 09:01:25</time>
      </trkpt>
      <trkpt lat="43.32858" lon="-3.11939">
        <ele>18.6</ele>
        <time>2021-10-28 09:01:26</time>
      </trkpt>
      <trkpt lat="43.32854" lon="-3.11942">
        <ele>18.6</ele>
        <time>2021-10-28 09:01:27</time>
      </trkpt>
      <trkpt lat="43.32845" lon="-3.11957">
        <ele>18.8</ele>
        <time>2021-10-28 09:01:28</time>
      </trkpt>
      <trkpt lat="43.32845" lon="-3.11957">
        <ele>19</ele>
        <time>2021-10-28 09:01:29</time>
      </trkpt>
      <trkpt lat="43.32839" lon="-3.11964">
        <ele>19.2</ele>
        <time>2021-10-28 09:01:30</time>
      </trkpt>
      <trkpt lat="43.3283" lon="-3.11976">
        <ele>19.2</ele>
        <time>2021-10-28 09:01:31</time>
      </trkpt>
      <trkpt lat="43.32827" lon="-3.11982">
        <ele>19</ele>
        <time>2021-10-28 09:01:32</time>
      </trkpt>
      <trkpt lat="43.32827" lon="-3.11982">
        <ele>19</ele>
        <time>2021-10-28 09:01:33</time>
      </trkpt>
      <trkpt lat="43.32823" lon="-3.11987">
        <ele>18.8</ele>
        <time>2021-10-28 09:01:34</time>
      </trkpt>
      <trkpt lat="43.32821" lon="-3.11996">
        <ele>18.8</ele>
        <time>2021-10-28 09:01:35</time>
      </trkpt>
      <trkpt lat="43.32814" lon="-3.12012">
        <ele>18.6</ele>
        <time>2021-10-28 09:01:36</time>
      </trkpt>
      <trkpt lat="43.32814" lon="-3.12012">
        <ele>18.6</ele>
        <time>2021-10-28 09:01:37</time>
      </trkpt>
      <trkpt lat="43.32812" lon="-3.12018">
        <ele>19</ele>
        <time>2021-10-28 09:01:38</time>
      </trkpt>
      <trkpt lat="43.32805" lon="-3.12034">
        <ele>19.2</ele>
        <time>2021-10-28 09:01:39</time>
      </trkpt>
      <trkpt lat="43.32805" lon="-3.12034">
        <ele>19.2</ele>
        <time>2021-10-28 09:01:40</time>
      </trkpt>
      <trkpt lat="43.32805" lon="-3.12034">
        <ele>19.2</ele>
        <time>2021-10-28 09:01:41</time>
      </trkpt>
      <trkpt lat="43.32802" lon="-3.12045">
        <ele>18.8</ele>
        <time>2021-10-28 09:01:42</time>
      </trkpt>
      <trkpt lat="43.32799" lon="-3.12053">
        <ele>18.6</ele>
        <time>2021-10-28 09:01:43</time>
      </trkpt>
      <trkpt lat="43.32794" lon="-3.1206">
        <ele>18.6</ele>
        <time>2021-10-28 09:01:44</time>
      </trkpt>
      <trkpt lat="43.3279" lon="-3.12066">
        <ele>18.8</ele>
        <time>2021-10-28 09:01:45</time>
      </trkpt>
      <trkpt lat="43.32783" lon="-3.1208">
        <ele>18.8</ele>
        <time>2021-10-28 09:01:46</time>
      </trkpt>
      <trkpt lat="43.32783" lon="-3.1208">
        <ele>19</ele>
        <time>2021-10-28 09:01:47</time>
      </trkpt>
      <trkpt lat="43.32778" lon="-3.12085">
        <ele>19</ele>
        <time>2021-10-28 09:01:48</time>
      </trkpt>
      <trkpt lat="43.32771" lon="-3.12098">
        <ele>19</ele>
        <time>2021-10-28 09:01:49</time>
      </trkpt>
      <trkpt lat="43.32771" lon="-3.12098">
        <ele>18.8</ele>
        <time>2021-10-28 09:01:50</time>
      </trkpt>
      <trkpt lat="43.32764" lon="-3.12108">
        <ele>18.8</ele>
        <time>2021-10-28 09:01:51</time>
      </trkpt>
      <trkpt lat="43.32764" lon="-3.12108">
        <ele>18.6</ele>
        <time>2021-10-28 09:01:52</time>
      </trkpt>
      <trkpt lat="43.32755" lon="-3.12118">
        <ele>18.6</ele>
        <time>2021-10-28 09:01:53</time>
      </trkpt>
      <trkpt lat="43.32755" lon="-3.12118">
        <ele>18.4</ele>
        <time>2021-10-28 09:01:54</time>
      </trkpt>
      <trkpt lat="43.32749" lon="-3.12123">
        <ele>18.2</ele>
        <time>2021-10-28 09:01:55</time>
      </trkpt>
      <trkpt lat="43.32746" lon="-3.12128">
        <ele>18.2</ele>
        <time>2021-10-28 09:01:56</time>
      </trkpt>
      <trkpt lat="43.32734" lon="-3.12137">
        <ele>18</ele>
        <time>2021-10-28 09:01:57</time>
      </trkpt>
      <trkpt lat="43.32734" lon="-3.12137">
        <ele>18</ele>
        <time>2021-10-28 09:01:58</time>
      </trkpt>
      <trkpt lat="43.32729" lon="-3.12142">
        <ele>18</ele>
        <time>2021-10-28 09:01:59</time>
      </trkpt>
      <trkpt lat="43.3272" lon="-3.12149">
        <ele>18.2</ele>
        <time>2021-10-28 09:02:00</time>
      </trkpt>
      <trkpt lat="43.3272" lon="-3.12149">
        <ele>18.4</ele>
        <time>2021-10-28 09:02:01</time>
      </trkpt>
      <trkpt lat="43.32713" lon="-3.12153">
        <ele>18.4</ele>
        <time>2021-10-28 09:02:02</time>
      </trkpt>
      <trkpt lat="43.32703" lon="-3.12158">
        <ele>18.4</ele>
        <time>2021-10-28 09:02:03</time>
      </trkpt>
      <trkpt lat="43.32703" lon="-3.12158">
        <ele>18.4</ele>
        <time>2021-10-28 09:02:04</time>
      </trkpt>
      <trkpt lat="43.32699" lon="-3.12161">
        <ele>18.2</ele>
        <time>2021-10-28 09:02:05</time>
      </trkpt>
      <trkpt lat="43.32689" lon="-3.12161">
        <ele>18</ele>
        <time>2021-10-28 09:02:06</time>
      </trkpt>
      <trkpt lat="43.32689" lon="-3.12161">
        <ele>17.8</ele>
        <time>2021-10-28 09:02:07</time>
      </trkpt>
      <trkpt lat="43.32676" lon="-3.12166">
        <ele>17.8</ele>
        <time>2021-10-28 09:02:08</time>
      </trkpt>
      <trkpt lat="43.3267" lon="-3.12166">
        <ele>17.8</ele>
        <time>2021-10-28 09:02:09</time>
      </trkpt>
      <trkpt lat="43.3267" lon="-3.12166">
        <ele>17.8</ele>
        <time>2021-10-28 09:02:10</time>
      </trkpt>
      <trkpt lat="43.3267" lon="-3.12166">
        <ele>18.2</ele>
        <time>2021-10-28 09:02:11</time>
      </trkpt>
      <trkpt lat="43.32657" lon="-3.12168">
        <ele>18.8</ele>
        <time>2021-10-28 09:02:12</time>
      </trkpt>
      <trkpt lat="43.32652" lon="-3.12166">
        <ele>19.4</ele>
        <time>2021-10-28 09:02:13</time>
      </trkpt>
      <trkpt lat="43.32646" lon="-3.12166">
        <ele>19.8</ele>
        <time>2021-10-28 09:02:14</time>
      </trkpt>
      <trkpt lat="43.32633" lon="-3.1216">
        <ele>19.8</ele>
        <time>2021-10-28 09:02:15</time>
      </trkpt>
      <trkpt lat="43.32633" lon="-3.1216">
        <ele>20.2</ele>
        <time>2021-10-28 09:02:16</time>
      </trkpt>
      <trkpt lat="43.32633" lon="-3.1216">
        <ele>20</ele>
        <time>2021-10-28 09:02:17</time>
      </trkpt>
      <trkpt lat="43.32622" lon="-3.12156">
        <ele>20.4</ele>
        <time>2021-10-28 09:02:18</time>
      </trkpt>
      <trkpt lat="43.32611" lon="-3.12148">
        <ele>17.8</ele>
        <time>2021-10-28 09:02:19</time>
      </trkpt>
      <trkpt lat="43.32602" lon="-3.12138">
        <ele>16.8</ele>
        <time>2021-10-28 09:02:20</time>
      </trkpt>
      <trkpt lat="43.32602" lon="-3.12138">
        <ele>19</ele>
        <time>2021-10-28 09:02:21</time>
      </trkpt>
      <trkpt lat="43.32593" lon="-3.12128">
        <ele>18.8</ele>
        <time>2021-10-28 09:02:22</time>
      </trkpt>
      <trkpt lat="43.32593" lon="-3.12128">
        <ele>19</ele>
        <time>2021-10-28 09:02:23</time>
      </trkpt>
      <trkpt lat="43.32587" lon="-3.1212">
        <ele>18.8</ele>
        <time>2021-10-28 09:02:24</time>
      </trkpt>
      <trkpt lat="43.32579" lon="-3.12106">
        <ele>18.8</ele>
        <time>2021-10-28 09:02:25</time>
      </trkpt>
      <trkpt lat="43.32579" lon="-3.12106">
        <ele>19</ele>
        <time>2021-10-28 09:02:26</time>
      </trkpt>
      <trkpt lat="43.3257" lon="-3.12082">
        <ele>19</ele>
        <time>2021-10-28 09:02:27</time>
      </trkpt>
      <trkpt lat="43.3257" lon="-3.12082">
        <ele>19</ele>
        <time>2021-10-28 09:02:28</time>
      </trkpt>
      <trkpt lat="43.32566" lon="-3.12075">
        <ele>19</ele>
        <time>2021-10-28 09:02:30</time>
      </trkpt>
      <trkpt lat="43.32561" lon="-3.12061">
        <ele>19</ele>
        <time>2021-10-28 09:02:31</time>
      </trkpt>
      <trkpt lat="43.32561" lon="-3.12061">
        <ele>19</ele>
        <time>2021-10-28 09:02:32</time>
      </trkpt>
      <trkpt lat="43.32557" lon="-3.12046">
        <ele>19.2</ele>
        <time>2021-10-28 09:02:33</time>
      </trkpt>
      <trkpt lat="43.32557" lon="-3.12046">
        <ele>19.2</ele>
        <time>2021-10-28 09:02:34</time>
      </trkpt>
      <trkpt lat="43.32554" lon="-3.12038">
        <ele>19.4</ele>
        <time>2021-10-28 09:02:35</time>
      </trkpt>
      <trkpt lat="43.32554" lon="-3.12038">
        <ele>19.4</ele>
        <time>2021-10-28 09:02:37</time>
      </trkpt>
      <trkpt lat="43.32551" lon="-3.12024">
        <ele>19.4</ele>
        <time>2021-10-28 09:02:38</time>
      </trkpt>
      <trkpt lat="43.32544" lon="-3.12009">
        <ele>19.6</ele>
        <time>2021-10-28 09:02:39</time>
      </trkpt>
      <trkpt lat="43.32537" lon="-3.11996">
        <ele>19.6</ele>
        <time>2021-10-28 09:02:40</time>
      </trkpt>
      <trkpt lat="43.32533" lon="-3.11991">
        <ele>19.4</ele>
        <time>2021-10-28 09:02:41</time>
      </trkpt>
      <trkpt lat="43.32533" lon="-3.11991">
        <ele>19.4</ele>
        <time>2021-10-28 09:02:42</time>
      </trkpt>
      <trkpt lat="43.32533" lon="-3.11991">
        <ele>19.4</ele>
        <time>2021-10-28 09:02:43</time>
      </trkpt>
      <trkpt lat="43.32525" lon="-3.11975">
        <ele>19.4</ele>
        <time>2021-10-28 09:02:44</time>
      </trkpt>
      <trkpt lat="43.32521" lon="-3.11969">
        <ele>19.4</ele>
        <time>2021-10-28 09:02:45</time>
      </trkpt>
      <trkpt lat="43.32512" lon="-3.11957">
        <ele>19.4</ele>
        <time>2021-10-28 09:02:46</time>
      </trkpt>
      <trkpt lat="43.32506" lon="-3.11943">
        <ele>19.4</ele>
        <time>2021-10-28 09:02:47</time>
      </trkpt>
      <trkpt lat="43.32501" lon="-3.11937">
        <ele>19.4</ele>
        <time>2021-10-28 09:02:48</time>
      </trkpt>
      <trkpt lat="43.32501" lon="-3.11937">
        <ele>19.4</ele>
        <time>2021-10-28 09:02:50</time>
      </trkpt>
      <trkpt lat="43.32497" lon="-3.11929">
        <ele>19.4</ele>
        <time>2021-10-28 09:02:51</time>
      </trkpt>
      <trkpt lat="43.32489" lon="-3.11917">
        <ele>19.4</ele>
        <time>2021-10-28 09:02:52</time>
      </trkpt>
      <trkpt lat="43.32489" lon="-3.11917">
        <ele>19.6</ele>
        <time>2021-10-28 09:02:53</time>
      </trkpt>
      <trkpt lat="43.32489" lon="-3.11917">
        <ele>19.4</ele>
        <time>2021-10-28 09:02:54</time>
      </trkpt>
      <trkpt lat="43.32479" lon="-3.11909">
        <ele>19.4</ele>
        <time>2021-10-28 09:02:55</time>
      </trkpt>
      <trkpt lat="43.32474" lon="-3.11906">
        <ele>19.4</ele>
        <time>2021-10-28 09:02:56</time>
      </trkpt>
      <trkpt lat="43.32464" lon="-3.11893">
        <ele>19.4</ele>
        <time>2021-10-28 09:02:58</time>
      </trkpt>
      <trkpt lat="43.32464" lon="-3.11893">
        <ele>19.4</ele>
        <time>2021-10-28 09:02:59</time>
      </trkpt>
      <trkpt lat="43.32464" lon="-3.11893">
        <ele>19.4</ele>
        <time>2021-10-28 09:03:00</time>
      </trkpt>
      <trkpt lat="43.32456" lon="-3.1188">
        <ele>19.2</ele>
        <time>2021-10-28 09:03:01</time>
      </trkpt>
      <trkpt lat="43.32456" lon="-3.1188">
        <ele>19.2</ele>
        <time>2021-10-28 09:03:02</time>
      </trkpt>
      <trkpt lat="43.32442" lon="-3.11861">
        <ele>19.2</ele>
        <time>2021-10-28 09:03:03</time>
      </trkpt>
      <trkpt lat="43.32434" lon="-3.11849">
        <ele>20</ele>
        <time>2021-10-28 09:03:04</time>
      </trkpt>
      <trkpt lat="43.32429" lon="-3.11842">
        <ele>20.2</ele>
        <time>2021-10-28 09:03:05</time>
      </trkpt>
      <trkpt lat="43.32429" lon="-3.11842">
        <ele>20.4</ele>
        <time>2021-10-28 09:03:06</time>
      </trkpt>
      <trkpt lat="43.32425" lon="-3.11836">
        <ele>20.4</ele>
        <time>2021-10-28 09:03:07</time>
      </trkpt>
      <trkpt lat="43.32419" lon="-3.11831">
        <ele>20.2</ele>
        <time>2021-10-28 09:03:08</time>
      </trkpt>
      <trkpt lat="43.32416" lon="-3.11827">
        <ele>20</ele>
        <time>2021-10-28 09:03:09</time>
      </trkpt>
      <trkpt lat="43.32409" lon="-3.11813">
        <ele>20</ele>
        <time>2021-10-28 09:03:10</time>
      </trkpt>
      <trkpt lat="43.32409" lon="-3.11813">
        <ele>20</ele>
        <time>2021-10-28 09:03:11</time>
      </trkpt>
      <trkpt lat="43.32405" lon="-3.11805">
        <ele>20</ele>
        <time>2021-10-28 09:03:12</time>
      </trkpt>
      <trkpt lat="43.32402" lon="-3.118">
        <ele>19.8</ele>
        <time>2021-10-28 09:03:14</time>
      </trkpt>
      <trkpt lat="43.32399" lon="-3.11794">
        <ele>19.8</ele>
        <time>2021-10-28 09:03:15</time>
      </trkpt>
      <trkpt lat="43.32395" lon="-3.11783">
        <ele>19.8</ele>
        <time>2021-10-28 09:03:16</time>
      </trkpt>
      <trkpt lat="43.32394" lon="-3.11775">
        <ele>20.2</ele>
        <time>2021-10-28 09:03:17</time>
      </trkpt>
      <trkpt lat="43.32388" lon="-3.11764">
        <ele>20.6</ele>
        <time>2021-10-28 09:03:18</time>
      </trkpt>
      <trkpt lat="43.32388" lon="-3.11764">
        <ele>20.6</ele>
        <time>2021-10-28 09:03:19</time>
      </trkpt>
      <trkpt lat="43.32384" lon="-3.11759">
        <ele>20.8</ele>
        <time>2021-10-28 09:03:20</time>
      </trkpt>
      <trkpt lat="43.32384" lon="-3.11759">
        <ele>20.8</ele>
        <time>2021-10-28 09:03:21</time>
      </trkpt>
      <trkpt lat="43.32375" lon="-3.11749">
        <ele>21</ele>
        <time>2021-10-28 09:03:22</time>
      </trkpt>
      <trkpt lat="43.32367" lon="-3.11745">
        <ele>21.6</ele>
        <time>2021-10-28 09:03:23</time>
      </trkpt>
      <trkpt lat="43.32364" lon="-3.11745">
        <ele>22.2</ele>
        <time>2021-10-28 09:03:24</time>
      </trkpt>
      <trkpt lat="43.32357" lon="-3.11751">
        <ele>22.2</ele>
        <time>2021-10-28 09:03:25</time>
      </trkpt>
      <trkpt lat="43.32357" lon="-3.11751">
        <ele>21.8</ele>
        <time>2021-10-28 09:03:27</time>
      </trkpt>
      <trkpt lat="43.32355" lon="-3.11752">
        <ele>21.6</ele>
        <time>2021-10-28 09:03:28</time>
      </trkpt>
      <trkpt lat="43.32351" lon="-3.11752">
        <ele>21.6</ele>
        <time>2021-10-28 09:03:29</time>
      </trkpt>
      <trkpt lat="43.32346" lon="-3.11754">
        <ele>21.4</ele>
        <time>2021-10-28 09:03:30</time>
      </trkpt>
      <trkpt lat="43.32339" lon="-3.1176">
        <ele>21.2</ele>
        <time>2021-10-28 09:03:31</time>
      </trkpt>
      <trkpt lat="43.32339" lon="-3.1176">
        <ele>21</ele>
        <time>2021-10-28 09:03:32</time>
      </trkpt>
      <trkpt lat="43.32335" lon="-3.11764">
        <ele>21</ele>
        <time>2021-10-28 09:03:33</time>
      </trkpt>
      <trkpt lat="43.32332" lon="-3.1177">
        <ele>21</ele>
        <time>2021-10-28 09:03:35</time>
      </trkpt>
      <trkpt lat="43.32332" lon="-3.1177">
        <ele>21</ele>
        <time>2021-10-28 09:03:36</time>
      </trkpt>
      <trkpt lat="43.32322" lon="-3.11778">
        <ele>21</ele>
        <time>2021-10-28 09:03:37</time>
      </trkpt>
      <trkpt lat="43.32318" lon="-3.11782">
        <ele>21</ele>
        <time>2021-10-28 09:03:38</time>
      </trkpt>
      <trkpt lat="43.32304" lon="-3.11791">
        <ele>21</ele>
        <time>2021-10-28 09:03:39</time>
      </trkpt>
      <trkpt lat="43.32304" lon="-3.11791">
        <ele>21</ele>
        <time>2021-10-28 09:03:40</time>
      </trkpt>
      <trkpt lat="43.32304" lon="-3.11791">
        <ele>21</ele>
        <time>2021-10-28 09:03:41</time>
      </trkpt>
      <trkpt lat="43.32298" lon="-3.118">
        <ele>21.2</ele>
        <time>2021-10-28 09:03:42</time>
      </trkpt>
      <trkpt lat="43.32292" lon="-3.11803">
        <ele>21.2</ele>
        <time>2021-10-28 09:03:43</time>
      </trkpt>
      <trkpt lat="43.32281" lon="-3.11808">
        <ele>21</ele>
        <time>2021-10-28 09:03:44</time>
      </trkpt>
      <trkpt lat="43.32275" lon="-3.1181">
        <ele>20.6</ele>
        <time>2021-10-28 09:03:45</time>
      </trkpt>
      <trkpt lat="43.32264" lon="-3.11812">
        <ele>20.6</ele>
        <time>2021-10-28 09:03:46</time>
      </trkpt>
      <trkpt lat="43.32264" lon="-3.11812">
        <ele>20.8</ele>
        <time>2021-10-28 09:03:48</time>
      </trkpt>
      <trkpt lat="43.3226" lon="-3.11812">
        <ele>21</ele>
        <time>2021-10-28 09:03:49</time>
      </trkpt>
      <trkpt lat="43.32253" lon="-3.11812">
        <ele>21.2</ele>
        <time>2021-10-28 09:03:50</time>
      </trkpt>
      <trkpt lat="43.32248" lon="-3.1181">
        <ele>21.4</ele>
        <time>2021-10-28 09:03:51</time>
      </trkpt>
      <trkpt lat="43.32237" lon="-3.11809">
        <ele>21.2</ele>
        <time>2021-10-28 09:03:52</time>
      </trkpt>
      <trkpt lat="43.32233" lon="-3.11806">
        <ele>20.6</ele>
        <time>2021-10-28 09:03:53</time>
      </trkpt>
      <trkpt lat="43.32224" lon="-3.11803">
        <ele>20.4</ele>
        <time>2021-10-28 09:03:54</time>
      </trkpt>
      <trkpt lat="43.32224" lon="-3.11803">
        <ele>20.2</ele>
        <time>2021-10-28 09:03:56</time>
      </trkpt>
      <trkpt lat="43.32219" lon="-3.11801">
        <ele>20.2</ele>
        <time>2021-10-28 09:03:57</time>
      </trkpt>
      <trkpt lat="43.32215" lon="-3.118">
        <ele>20.6</ele>
        <time>2021-10-28 09:03:58</time>
      </trkpt>
      <trkpt lat="43.32215" lon="-3.118">
        <ele>21</ele>
        <time>2021-10-28 09:03:59</time>
      </trkpt>
      <trkpt lat="43.32198" lon="-3.11801">
        <ele>21.6</ele>
        <time>2021-10-28 09:04:00</time>
      </trkpt>
      <trkpt lat="43.32198" lon="-3.11801">
        <ele>21.6</ele>
        <time>2021-10-28 09:04:01</time>
      </trkpt>
      <trkpt lat="43.32196" lon="-3.11802">
        <ele>21.4</ele>
        <time>2021-10-28 09:04:02</time>
      </trkpt>
      <trkpt lat="43.32193" lon="-3.11803">
        <ele>20.6</ele>
        <time>2021-10-28 09:04:04</time>
      </trkpt>
      <trkpt lat="43.32193" lon="-3.11803">
        <ele>19.6</ele>
        <time>2021-10-28 09:04:05</time>
      </trkpt>
      <trkpt lat="43.32193" lon="-3.11803">
        <ele>19.2</ele>
        <time>2021-10-28 09:04:06</time>
      </trkpt>
      <trkpt lat="43.32191" lon="-3.11803">
        <ele>19</ele>
        <time>2021-10-28 09:04:07</time>
      </trkpt>
      <trkpt lat="43.3219" lon="-3.11803">
        <ele>19</ele>
        <time>2021-10-28 09:04:08</time>
      </trkpt>
      <trkpt lat="43.32188" lon="-3.11807">
        <ele>19</ele>
        <time>2021-10-28 09:04:09</time>
      </trkpt>
      <trkpt lat="43.32188" lon="-3.11807">
        <ele>18.8</ele>
        <time>2021-10-28 09:04:10</time>
      </trkpt>
      <trkpt lat="43.32188" lon="-3.11807">
        <ele>18.6</ele>
        <time>2021-10-28 09:04:11</time>
      </trkpt>
      <trkpt lat="43.3218" lon="-3.1182">
        <ele>18.6</ele>
        <time>2021-10-28 09:04:12</time>
      </trkpt>
      <trkpt lat="43.3218" lon="-3.1182">
        <ele>18.6</ele>
        <time>2021-10-28 09:04:13</time>
      </trkpt>
      <trkpt lat="43.3218" lon="-3.1182">
        <ele>18.8</ele>
        <time>2021-10-28 09:04:14</time>
      </trkpt>
      <trkpt lat="43.32175" lon="-3.11832">
        <ele>19</ele>
        <time>2021-10-28 09:04:15</time>
      </trkpt>
      <trkpt lat="43.32172" lon="-3.11835">
        <ele>19</ele>
        <time>2021-10-28 09:04:16</time>
      </trkpt>
      <trkpt lat="43.32168" lon="-3.11841">
        <ele>19</ele>
        <time>2021-10-28 09:04:17</time>
      </trkpt>
      <trkpt lat="43.32168" lon="-3.11841">
        <ele>19.2</ele>
        <time>2021-10-28 09:04:18</time>
      </trkpt>
      <trkpt lat="43.32168" lon="-3.11841">
        <ele>19.2</ele>
        <time>2021-10-28 09:04:19</time>
      </trkpt>
      <trkpt lat="43.32161" lon="-3.11848">
        <ele>19.2</ele>
        <time>2021-10-28 09:04:20</time>
      </trkpt>
      <trkpt lat="43.32161" lon="-3.11848">
        <ele>19.2</ele>
        <time>2021-10-28 09:04:21</time>
      </trkpt>
      <trkpt lat="43.32161" lon="-3.11848">
        <ele>19.2</ele>
        <time>2021-10-28 09:04:22</time>
      </trkpt>
      <trkpt lat="43.32155" lon="-3.11849">
        <ele>19.2</ele>
        <time>2021-10-28 09:04:23</time>
      </trkpt>
      <trkpt lat="43.32155" lon="-3.11849">
        <ele>19.2</ele>
        <time>2021-10-28 09:04:24</time>
      </trkpt>
      <trkpt lat="43.32141" lon="-3.11861">
        <ele>19</ele>
        <time>2021-10-28 09:04:25</time>
      </trkpt>
      <trkpt lat="43.32141" lon="-3.11861">
        <ele>19</ele>
        <time>2021-10-28 09:04:26</time>
      </trkpt>
      <trkpt lat="43.32138" lon="-3.11865">
        <ele>19</ele>
        <time>2021-10-28 09:04:27</time>
      </trkpt>
      <trkpt lat="43.3213" lon="-3.11877">
        <ele>19</ele>
        <time>2021-10-28 09:04:28</time>
      </trkpt>
      <trkpt lat="43.3213" lon="-3.11877">
        <ele>19</ele>
        <time>2021-10-28 09:04:29</time>
      </trkpt>
      <trkpt lat="43.32128" lon="-3.11883">
        <ele>19.2</ele>
        <time>2021-10-28 09:04:30</time>
      </trkpt>
      <trkpt lat="43.32128" lon="-3.11883">
        <ele>19.4</ele>
        <time>2021-10-28 09:04:31</time>
      </trkpt>
      <trkpt lat="43.3212" lon="-3.11893">
        <ele>19.8</ele>
        <time>2021-10-28 09:04:32</time>
      </trkpt>
      <trkpt lat="43.32115" lon="-3.11904">
        <ele>20</ele>
        <time>2021-10-28 09:04:33</time>
      </trkpt>
      <trkpt lat="43.32115" lon="-3.11904">
        <ele>20.2</ele>
        <time>2021-10-28 09:04:34</time>
      </trkpt>
      <trkpt lat="43.32115" lon="-3.11904">
        <ele>20.6</ele>
        <time>2021-10-28 09:04:35</time>
      </trkpt>
      <trkpt lat="43.3211" lon="-3.11918">
        <ele>21.2</ele>
        <time>2021-10-28 09:04:36</time>
      </trkpt>
      <trkpt lat="43.3211" lon="-3.11918">
        <ele>21.8</ele>
        <time>2021-10-28 09:04:37</time>
      </trkpt>
      <trkpt lat="43.3211" lon="-3.11918">
        <ele>22.2</ele>
        <time>2021-10-28 09:04:38</time>
      </trkpt>
      <trkpt lat="43.32107" lon="-3.11928">
        <ele>22.6</ele>
        <time>2021-10-28 09:04:39</time>
      </trkpt>
      <trkpt lat="43.32106" lon="-3.11932">
        <ele>22.8</ele>
        <time>2021-10-28 09:04:40</time>
      </trkpt>
      <trkpt lat="43.321" lon="-3.11939">
        <ele>22.6</ele>
        <time>2021-10-28 09:04:41</time>
      </trkpt>
      <trkpt lat="43.321" lon="-3.11939">
        <ele>23</ele>
        <time>2021-10-28 09:04:42</time>
      </trkpt>
      <trkpt lat="43.321" lon="-3.11939">
        <ele>23.2</ele>
        <time>2021-10-28 09:04:43</time>
      </trkpt>
      <trkpt lat="43.321" lon="-3.11939">
        <ele>22.8</ele>
        <time>2021-10-28 09:04:44</time>
      </trkpt>
      <trkpt lat="43.32095" lon="-3.11952">
        <ele>22.8</ele>
        <time>2021-10-28 09:04:45</time>
      </trkpt>
      <trkpt lat="43.3209" lon="-3.11963">
        <ele>22.6</ele>
        <time>2021-10-28 09:04:46</time>
      </trkpt>
      <trkpt lat="43.32089" lon="-3.11967">
        <ele>21.6</ele>
        <time>2021-10-28 09:04:47</time>
      </trkpt>
      <trkpt lat="43.32085" lon="-3.11978">
        <ele>21.6</ele>
        <time>2021-10-28 09:04:48</time>
      </trkpt>
      <trkpt lat="43.32085" lon="-3.11978">
        <ele>21.6</ele>
        <time>2021-10-28 09:04:49</time>
      </trkpt>
      <trkpt lat="43.32085" lon="-3.11978">
        <ele>22</ele>
        <time>2021-10-28 09:04:50</time>
      </trkpt>
      <trkpt lat="43.3208" lon="-3.11991">
        <ele>22</ele>
        <time>2021-10-28 09:04:51</time>
      </trkpt>
      <trkpt lat="43.3208" lon="-3.11991">
        <ele>22.2</ele>
        <time>2021-10-28 09:04:52</time>
      </trkpt>
      <trkpt lat="43.32073" lon="-3.12004">
        <ele>22.2</ele>
        <time>2021-10-28 09:04:53</time>
      </trkpt>
      <trkpt lat="43.32073" lon="-3.12004">
        <ele>21.4</ele>
        <time>2021-10-28 09:04:54</time>
      </trkpt>
      <trkpt lat="43.32066" lon="-3.12019">
        <ele>21.2</ele>
        <time>2021-10-28 09:04:55</time>
      </trkpt>
      <trkpt lat="43.32066" lon="-3.12019">
        <ele>21.2</ele>
        <time>2021-10-28 09:04:57</time>
      </trkpt>
      <trkpt lat="43.32064" lon="-3.12024">
        <ele>21.2</ele>
        <time>2021-10-28 09:04:58</time>
      </trkpt>
      <trkpt lat="43.32064" lon="-3.12024">
        <ele>21.2</ele>
        <time>2021-10-28 09:04:59</time>
      </trkpt>
      <trkpt lat="43.32059" lon="-3.12037">
        <ele>21.2</ele>
        <time>2021-10-28 09:05:00</time>
      </trkpt>
      <trkpt lat="43.32054" lon="-3.12051">
        <ele>21.2</ele>
        <time>2021-10-28 09:05:01</time>
      </trkpt>
      <trkpt lat="43.32054" lon="-3.12051">
        <ele>21.4</ele>
        <time>2021-10-28 09:05:02</time>
      </trkpt>
      <trkpt lat="43.32049" lon="-3.12064">
        <ele>21.4</ele>
        <time>2021-10-28 09:05:03</time>
      </trkpt>
      <trkpt lat="43.32049" lon="-3.12064">
        <ele>21.4</ele>
        <time>2021-10-28 09:05:05</time>
      </trkpt>
      <trkpt lat="43.32047" lon="-3.12069">
        <ele>21.6</ele>
        <time>2021-10-28 09:05:06</time>
      </trkpt>
      <trkpt lat="43.32043" lon="-3.12073">
        <ele>21.8</ele>
        <time>2021-10-28 09:05:07</time>
      </trkpt>
      <trkpt lat="43.32042" lon="-3.12077">
        <ele>22</ele>
        <time>2021-10-28 09:05:08</time>
      </trkpt>
      <trkpt lat="43.32034" lon="-3.12086">
        <ele>22</ele>
        <time>2021-10-28 09:05:09</time>
      </trkpt>
      <trkpt lat="43.32034" lon="-3.12086">
        <ele>21.8</ele>
        <time>2021-10-28 09:05:10</time>
      </trkpt>
      <trkpt lat="43.32031" lon="-3.1209">
        <ele>21.8</ele>
        <time>2021-10-28 09:05:11</time>
      </trkpt>
      <trkpt lat="43.32031" lon="-3.1209">
        <ele>21.8</ele>
        <time>2021-10-28 09:05:13</time>
      </trkpt>
      <trkpt lat="43.32028" lon="-3.12099">
        <ele>21.4</ele>
        <time>2021-10-28 09:05:14</time>
      </trkpt>
      <trkpt lat="43.32028" lon="-3.12099">
        <ele>21.2</ele>
        <time>2021-10-28 09:05:15</time>
      </trkpt>
      <trkpt lat="43.32024" lon="-3.12108">
        <ele>21</ele>
        <time>2021-10-28 09:05:16</time>
      </trkpt>
      <trkpt lat="43.32016" lon="-3.12125">
        <ele>21</ele>
        <time>2021-10-28 09:05:17</time>
      </trkpt>
      <trkpt lat="43.32016" lon="-3.12125">
        <ele>21.2</ele>
        <time>2021-10-28 09:05:18</time>
      </trkpt>
      <trkpt lat="43.32016" lon="-3.12125">
        <ele>21.2</ele>
        <time>2021-10-28 09:05:19</time>
      </trkpt>
      <trkpt lat="43.32008" lon="-3.12134">
        <ele>21.2</ele>
        <time>2021-10-28 09:05:20</time>
      </trkpt>
      <trkpt lat="43.32008" lon="-3.12134">
        <ele>21.2</ele>
        <time>2021-10-28 09:05:21</time>
      </trkpt>
      <trkpt lat="43.31999" lon="-3.12152">
        <ele>21.2</ele>
        <time>2021-10-28 09:05:22</time>
      </trkpt>
      <trkpt lat="43.31999" lon="-3.12152">
        <ele>21.4</ele>
        <time>2021-10-28 09:05:23</time>
      </trkpt>
      <trkpt lat="43.31999" lon="-3.12152">
        <ele>21.6</ele>
        <time>2021-10-28 09:05:24</time>
      </trkpt>
      <trkpt lat="43.31994" lon="-3.12162">
        <ele>21.8</ele>
        <time>2021-10-28 09:05:26</time>
      </trkpt>
      <trkpt lat="43.31991" lon="-3.12168">
        <ele>21.8</ele>
        <time>2021-10-28 09:05:27</time>
      </trkpt>
      <trkpt lat="43.31991" lon="-3.12168">
        <ele>21.8</ele>
        <time>2021-10-28 09:05:28</time>
      </trkpt>
      <trkpt lat="43.31988" lon="-3.12182">
        <ele>21.2</ele>
        <time>2021-10-28 09:05:29</time>
      </trkpt>
      <trkpt lat="43.31985" lon="-3.12192">
        <ele>20.8</ele>
        <time>2021-10-28 09:05:30</time>
      </trkpt>
      <trkpt lat="43.31985" lon="-3.12192">
        <ele>20.6</ele>
        <time>2021-10-28 09:05:31</time>
      </trkpt>
      <trkpt lat="43.31985" lon="-3.12192">
        <ele>20.4</ele>
        <time>2021-10-28 09:05:32</time>
      </trkpt>
      <trkpt lat="43.31985" lon="-3.12192">
        <ele>20</ele>
        <time>2021-10-28 09:05:33</time>
      </trkpt>
      <trkpt lat="43.31975" lon="-3.12208">
        <ele>20</ele>
        <time>2021-10-28 09:05:34</time>
      </trkpt>
      <trkpt lat="43.31974" lon="-3.12214">
        <ele>19.8</ele>
        <time>2021-10-28 09:05:35</time>
      </trkpt>
      <trkpt lat="43.31974" lon="-3.12214">
        <ele>19.2</ele>
        <time>2021-10-28 09:05:36</time>
      </trkpt>
      <trkpt lat="43.31975" lon="-3.12217">
        <ele>18.8</ele>
        <time>2021-10-28 09:05:37</time>
      </trkpt>
      <trkpt lat="43.31976" lon="-3.12218">
        <ele>18.6</ele>
        <time>2021-10-28 09:05:39</time>
      </trkpt>
      <trkpt lat="43.31976" lon="-3.12218">
        <ele>18.6</ele>
        <time>2021-10-28 09:05:40</time>
      </trkpt>
      <trkpt lat="43.31976" lon="-3.12227">
        <ele>18.6</ele>
        <time>2021-10-28 09:05:41</time>
      </trkpt>
      <trkpt lat="43.31976" lon="-3.12227">
        <ele>19</ele>
        <time>2021-10-28 09:05:42</time>
      </trkpt>
      <trkpt lat="43.31975" lon="-3.12234">
        <ele>19.2</ele>
        <time>2021-10-28 09:05:43</time>
      </trkpt>
      <trkpt lat="43.31975" lon="-3.12234">
        <ele>19.4</ele>
        <time>2021-10-28 09:05:44</time>
      </trkpt>
      <trkpt lat="43.31975" lon="-3.12234">
        <ele>19.6</ele>
        <time>2021-10-28 09:05:45</time>
      </trkpt>
      <trkpt lat="43.31973" lon="-3.12241">
        <ele>19.8</ele>
        <time>2021-10-28 09:05:46</time>
      </trkpt>
      <trkpt lat="43.31974" lon="-3.12246">
        <ele>19.8</ele>
        <time>2021-10-28 09:05:47</time>
      </trkpt>
      <trkpt lat="43.31975" lon="-3.12257">
        <ele>19.6</ele>
        <time>2021-10-28 09:05:48</time>
      </trkpt>
      <trkpt lat="43.31975" lon="-3.12257">
        <ele>19.6</ele>
        <time>2021-10-28 09:05:49</time>
      </trkpt>
      <trkpt lat="43.31974" lon="-3.1227">
        <ele>19.8</ele>
        <time>2021-10-28 09:05:50</time>
      </trkpt>
      <trkpt lat="43.31974" lon="-3.1227">
        <ele>20</ele>
        <time>2021-10-28 09:05:52</time>
      </trkpt>
      <trkpt lat="43.31974" lon="-3.1227">
        <ele>20.2</ele>
        <time>2021-10-28 09:05:53</time>
      </trkpt>
      <trkpt lat="43.31974" lon="-3.12275">
        <ele>20.4</ele>
        <time>2021-10-28 09:05:54</time>
      </trkpt>
      <trkpt lat="43.31974" lon="-3.12275">
        <ele>20.4</ele>
        <time>2021-10-28 09:05:55</time>
      </trkpt>
      <trkpt lat="43.31969" lon="-3.12283">
        <ele>20.4</ele>
        <time>2021-10-28 09:05:56</time>
      </trkpt>
      <trkpt lat="43.31969" lon="-3.12283">
        <ele>20.6</ele>
        <time>2021-10-28 09:05:57</time>
      </trkpt>
      <trkpt lat="43.31969" lon="-3.12283">
        <ele>20.6</ele>
        <time>2021-10-28 09:05:58</time>
      </trkpt>
      <trkpt lat="43.31969" lon="-3.12283">
        <ele>20.6</ele>
        <time>2021-10-28 09:06:00</time>
      </trkpt>
      <trkpt lat="43.31959" lon="-3.12296">
        <ele>20.8</ele>
        <time>2021-10-28 09:06:01</time>
      </trkpt>
      <trkpt lat="43.31954" lon="-3.12298">
        <ele>20.8</ele>
        <time>2021-10-28 09:06:02</time>
      </trkpt>
      <trkpt lat="43.31953" lon="-3.12298">
        <ele>21</ele>
        <time>2021-10-28 09:06:03</time>
      </trkpt>
      <trkpt lat="43.31949" lon="-3.12298">
        <ele>21.2</ele>
        <time>2021-10-28 09:06:04</time>
      </trkpt>
      <trkpt lat="43.31949" lon="-3.12298">
        <ele>21.2</ele>
        <time>2021-10-28 09:06:05</time>
      </trkpt>
      <trkpt lat="43.31946" lon="-3.12298">
        <ele>21.2</ele>
        <time>2021-10-28 09:06:06</time>
      </trkpt>
      <trkpt lat="43.31942" lon="-3.12298">
        <ele>21.4</ele>
        <time>2021-10-28 09:06:07</time>
      </trkpt>
      <trkpt lat="43.31942" lon="-3.12298">
        <ele>21.4</ele>
        <time>2021-10-28 09:06:08</time>
      </trkpt>
      <trkpt lat="43.31935" lon="-3.12302">
        <ele>21.4</ele>
        <time>2021-10-28 09:06:09</time>
      </trkpt>
      <trkpt lat="43.31935" lon="-3.12302">
        <ele>21.4</ele>
        <time>2021-10-28 09:06:10</time>
      </trkpt>
      <trkpt lat="43.31935" lon="-3.12302">
        <ele>21.4</ele>
        <time>2021-10-28 09:06:11</time>
      </trkpt>
      <trkpt lat="43.31931" lon="-3.12309">
        <ele>21.4</ele>
        <time>2021-10-28 09:06:13</time>
      </trkpt>
      <trkpt lat="43.31931" lon="-3.12309">
        <ele>21.4</ele>
        <time>2021-10-28 09:06:14</time>
      </trkpt>
      <trkpt lat="43.31927" lon="-3.12315">
        <ele>21.6</ele>
        <time>2021-10-28 09:06:15</time>
      </trkpt>
      <trkpt lat="43.31927" lon="-3.12315">
        <ele>21.6</ele>
        <time>2021-10-28 09:06:16</time>
      </trkpt>
      <trkpt lat="43.31922" lon="-3.12321">
        <ele>21.6</ele>
        <time>2021-10-28 09:06:17</time>
      </trkpt>
      <trkpt lat="43.31922" lon="-3.12321">
        <ele>21.6</ele>
        <time>2021-10-28 09:06:18</time>
      </trkpt>
      <trkpt lat="43.31919" lon="-3.12325">
        <ele>21.6</ele>
        <time>2021-10-28 09:06:19</time>
      </trkpt>
      <trkpt lat="43.31919" lon="-3.12325">
        <ele>21.6</ele>
        <time>2021-10-28 09:06:20</time>
      </trkpt>
      <trkpt lat="43.31908" lon="-3.12334">
        <ele>21.6</ele>
        <time>2021-10-28 09:06:21</time>
      </trkpt>
      <trkpt lat="43.31898" lon="-3.1234">
        <ele>21.6</ele>
        <time>2021-10-28 09:06:22</time>
      </trkpt>
      <trkpt lat="43.31898" lon="-3.1234">
        <ele>21.8</ele>
        <time>2021-10-28 09:06:23</time>
      </trkpt>
      <trkpt lat="43.31894" lon="-3.12345">
        <ele>21.8</ele>
        <time>2021-10-28 09:06:24</time>
      </trkpt>
      <trkpt lat="43.31891" lon="-3.12348">
        <ele>22</ele>
        <time>2021-10-28 09:06:26</time>
      </trkpt>
      <trkpt lat="43.31891" lon="-3.12348">
        <ele>22.2</ele>
        <time>2021-10-28 09:06:27</time>
      </trkpt>
      <trkpt lat="43.31887" lon="-3.12352">
        <ele>22.4</ele>
        <time>2021-10-28 09:06:28</time>
      </trkpt>
      <trkpt lat="43.31885" lon="-3.12355">
        <ele>22.4</ele>
        <time>2021-10-28 09:06:29</time>
      </trkpt>
      <trkpt lat="43.31883" lon="-3.12357">
        <ele>22.2</ele>
        <time>2021-10-28 09:06:30</time>
      </trkpt>
      <trkpt lat="43.31874" lon="-3.12371">
        <ele>22.2</ele>
        <time>2021-10-28 09:06:31</time>
      </trkpt>
      <trkpt lat="43.31874" lon="-3.12371">
        <ele>22.4</ele>
        <time>2021-10-28 09:06:32</time>
      </trkpt>
      <trkpt lat="43.31874" lon="-3.12371">
        <ele>22.4</ele>
        <time>2021-10-28 09:06:33</time>
      </trkpt>
      <trkpt lat="43.3187" lon="-3.12379">
        <ele>22.4</ele>
        <time>2021-10-28 09:06:34</time>
      </trkpt>
      <trkpt lat="43.31868" lon="-3.12379">
        <ele>22.6</ele>
        <time>2021-10-28 09:06:35</time>
      </trkpt>
      <trkpt lat="43.31859" lon="-3.12392">
        <ele>22.6</ele>
        <time>2021-10-28 09:06:36</time>
      </trkpt>
      <trkpt lat="43.31859" lon="-3.12392">
        <ele>22.6</ele>
        <time>2021-10-28 09:06:37</time>
      </trkpt>
      <trkpt lat="43.31855" lon="-3.12398">
        <ele>22.8</ele>
        <time>2021-10-28 09:06:38</time>
      </trkpt>
      <trkpt lat="43.31851" lon="-3.12406">
        <ele>23</ele>
        <time>2021-10-28 09:06:39</time>
      </trkpt>
      <trkpt lat="43.31851" lon="-3.12406">
        <ele>23.2</ele>
        <time>2021-10-28 09:06:40</time>
      </trkpt>
      <trkpt lat="43.31851" lon="-3.12406">
        <ele>23.2</ele>
        <time>2021-10-28 09:06:41</time>
      </trkpt>
      <trkpt lat="43.31849" lon="-3.12409">
        <ele>23.4</ele>
        <time>2021-10-28 09:06:42</time>
      </trkpt>
      <trkpt lat="43.31845" lon="-3.12419">
        <ele>23.6</ele>
        <time>2021-10-28 09:06:43</time>
      </trkpt>
      <trkpt lat="43.31845" lon="-3.12428">
        <ele>23.8</ele>
        <time>2021-10-28 09:06:44</time>
      </trkpt>
      <trkpt lat="43.31845" lon="-3.12428">
        <ele>23.8</ele>
        <time>2021-10-28 09:06:45</time>
      </trkpt>
      <trkpt lat="43.31845" lon="-3.12428">
        <ele>24</ele>
        <time>2021-10-28 09:06:46</time>
      </trkpt>
      <trkpt lat="43.31842" lon="-3.1244">
        <ele>24</ele>
        <time>2021-10-28 09:06:47</time>
      </trkpt>
      <trkpt lat="43.31842" lon="-3.1244">
        <ele>24</ele>
        <time>2021-10-28 09:06:48</time>
      </trkpt>
      <trkpt lat="43.31836" lon="-3.12458">
        <ele>24</ele>
        <time>2021-10-28 09:06:49</time>
      </trkpt>
      <trkpt lat="43.31836" lon="-3.12458">
        <ele>24.2</ele>
        <time>2021-10-28 09:06:50</time>
      </trkpt>
      <trkpt lat="43.31832" lon="-3.12473">
        <ele>24.4</ele>
        <time>2021-10-28 09:06:51</time>
      </trkpt>
      <trkpt lat="43.31832" lon="-3.12473">
        <ele>24.4</ele>
        <time>2021-10-28 09:06:52</time>
      </trkpt>
      <trkpt lat="43.31831" lon="-3.12479">
        <ele>24.6</ele>
        <time>2021-10-28 09:06:53</time>
      </trkpt>
      <trkpt lat="43.31829" lon="-3.12486">
        <ele>25</ele>
        <time>2021-10-28 09:06:54</time>
      </trkpt>
      <trkpt lat="43.31828" lon="-3.12491">
        <ele>25.2</ele>
        <time>2021-10-28 09:06:55</time>
      </trkpt>
      <trkpt lat="43.31826" lon="-3.12503">
        <ele>25.4</ele>
        <time>2021-10-28 09:06:56</time>
      </trkpt>
      <trkpt lat="43.31826" lon="-3.12503">
        <ele>25.6</ele>
        <time>2021-10-28 09:06:57</time>
      </trkpt>
      <trkpt lat="43.31826" lon="-3.12503">
        <ele>25.6</ele>
        <time>2021-10-28 09:06:58</time>
      </trkpt>
      <trkpt lat="43.31826" lon="-3.12516">
        <ele>25.6</ele>
        <time>2021-10-28 09:07:00</time>
      </trkpt>
      <trkpt lat="43.31826" lon="-3.12516">
        <ele>25.6</ele>
        <time>2021-10-28 09:07:01</time>
      </trkpt>
      <trkpt lat="43.31821" lon="-3.12531">
        <ele>25.8</ele>
        <time>2021-10-28 09:07:02</time>
      </trkpt>
      <trkpt lat="43.31821" lon="-3.12531">
        <ele>26.2</ele>
        <time>2021-10-28 09:07:03</time>
      </trkpt>
      <trkpt lat="43.31817" lon="-3.12548">
        <ele>26.2</ele>
        <time>2021-10-28 09:07:04</time>
      </trkpt>
      <trkpt lat="43.31817" lon="-3.12548">
        <ele>26.4</ele>
        <time>2021-10-28 09:07:05</time>
      </trkpt>
      <trkpt lat="43.31817" lon="-3.12548">
        <ele>26.6</ele>
        <time>2021-10-28 09:07:06</time>
      </trkpt>
      <trkpt lat="43.31819" lon="-3.1256">
        <ele>26.8</ele>
        <time>2021-10-28 09:07:07</time>
      </trkpt>
      <trkpt lat="43.31819" lon="-3.1256">
        <ele>26.8</ele>
        <time>2021-10-28 09:07:08</time>
      </trkpt>
      <trkpt lat="43.3182" lon="-3.12577">
        <ele>27</ele>
        <time>2021-10-28 09:07:09</time>
      </trkpt>
      <trkpt lat="43.3182" lon="-3.12577">
        <ele>27</ele>
        <time>2021-10-28 09:07:10</time>
      </trkpt>
      <trkpt lat="43.31821" lon="-3.12583">
        <ele>27.2</ele>
        <time>2021-10-28 09:07:11</time>
      </trkpt>
      <trkpt lat="43.31821" lon="-3.12583">
        <ele>27.2</ele>
        <time>2021-10-28 09:07:13</time>
      </trkpt>
      <trkpt lat="43.31823" lon="-3.12594">
        <ele>27.4</ele>
        <time>2021-10-28 09:07:14</time>
      </trkpt>
      <trkpt lat="43.31828" lon="-3.12603">
        <ele>27.4</ele>
        <time>2021-10-28 09:07:15</time>
      </trkpt>
      <trkpt lat="43.31828" lon="-3.12603">
        <ele>27.8</ele>
        <time>2021-10-28 09:07:16</time>
      </trkpt>
      <trkpt lat="43.31832" lon="-3.12619">
        <ele>28</ele>
        <time>2021-10-28 09:07:17</time>
      </trkpt>
      <trkpt lat="43.31832" lon="-3.12619">
        <ele>28</ele>
        <time>2021-10-28 09:07:18</time>
      </trkpt>
      <trkpt lat="43.31832" lon="-3.12619">
        <ele>28</ele>
        <time>2021-10-28 09:07:19</time>
      </trkpt>
      <trkpt lat="43.31836" lon="-3.12631">
        <ele>28.2</ele>
        <time>2021-10-28 09:07:20</time>
      </trkpt>
      <trkpt lat="43.31836" lon="-3.12631">
        <ele>28.4</ele>
        <time>2021-10-28 09:07:21</time>
      </trkpt>
      <trkpt lat="43.31846" lon="-3.12637">
        <ele>28.6</ele>
        <time>2021-10-28 09:07:22</time>
      </trkpt>
      <trkpt lat="43.31846" lon="-3.12637">
        <ele>28.8</ele>
        <time>2021-10-28 09:07:23</time>
      </trkpt>
      <trkpt lat="43.31857" lon="-3.12647">
        <ele>28.8</ele>
        <time>2021-10-28 09:07:24</time>
      </trkpt>
      <trkpt lat="43.31857" lon="-3.12647">
        <ele>28.8</ele>
        <time>2021-10-28 09:07:26</time>
      </trkpt>
      <trkpt lat="43.31857" lon="-3.12647">
        <ele>29</ele>
        <time>2021-10-28 09:07:27</time>
      </trkpt>
      <trkpt lat="43.3186" lon="-3.12652">
        <ele>29</ele>
        <time>2021-10-28 09:07:28</time>
      </trkpt>
      <trkpt lat="43.31862" lon="-3.12657">
        <ele>29</ele>
        <time>2021-10-28 09:07:29</time>
      </trkpt>
      <trkpt lat="43.31869" lon="-3.12671">
        <ele>29.2</ele>
        <time>2021-10-28 09:07:30</time>
      </trkpt>
      <trkpt lat="43.31869" lon="-3.12671">
        <ele>29.4</ele>
        <time>2021-10-28 09:07:31</time>
      </trkpt>
      <trkpt lat="43.31869" lon="-3.12671">
        <ele>29.6</ele>
        <time>2021-10-28 09:07:32</time>
      </trkpt>
      <trkpt lat="43.31875" lon="-3.12684">
        <ele>29.8</ele>
        <time>2021-10-28 09:07:34</time>
      </trkpt>
      <trkpt lat="43.31875" lon="-3.12684">
        <ele>30</ele>
        <time>2021-10-28 09:07:35</time>
      </trkpt>
      <trkpt lat="43.31875" lon="-3.12684">
        <ele>30</ele>
        <time>2021-10-28 09:07:36</time>
      </trkpt>
      <trkpt lat="43.31876" lon="-3.12689">
        <ele>30.2</ele>
        <time>2021-10-28 09:07:37</time>
      </trkpt>
      <trkpt lat="43.31881" lon="-3.12694">
        <ele>30.2</ele>
        <time>2021-10-28 09:07:38</time>
      </trkpt>
      <trkpt lat="43.31887" lon="-3.12703">
        <ele>30.4</ele>
        <time>2021-10-28 09:07:39</time>
      </trkpt>
      <trkpt lat="43.31887" lon="-3.12703">
        <ele>30.6</ele>
        <time>2021-10-28 09:07:40</time>
      </trkpt>
      <trkpt lat="43.31887" lon="-3.12703">
        <ele>31</ele>
        <time>2021-10-28 09:07:41</time>
      </trkpt>
      <trkpt lat="43.3189" lon="-3.12712">
        <ele>31</ele>
        <time>2021-10-28 09:07:42</time>
      </trkpt>
      <trkpt lat="43.31891" lon="-3.12716">
        <ele>31.2</ele>
        <time>2021-10-28 09:07:43</time>
      </trkpt>
      <trkpt lat="43.31895" lon="-3.12723">
        <ele>31.2</ele>
        <time>2021-10-28 09:07:44</time>
      </trkpt>
      <trkpt lat="43.31895" lon="-3.12723">
        <ele>31.4</ele>
        <time>2021-10-28 09:07:45</time>
      </trkpt>
      <trkpt lat="43.31902" lon="-3.12732">
        <ele>31.4</ele>
        <time>2021-10-28 09:07:46</time>
      </trkpt>
      <trkpt lat="43.31902" lon="-3.12732">
        <ele>31.4</ele>
        <time>2021-10-28 09:07:47</time>
      </trkpt>
      <trkpt lat="43.31902" lon="-3.12732">
        <ele>31.4</ele>
        <time>2021-10-28 09:07:48</time>
      </trkpt>
      <trkpt lat="43.31903" lon="-3.12739">
        <ele>31.6</ele>
        <time>2021-10-28 09:07:49</time>
      </trkpt>
      <trkpt lat="43.31906" lon="-3.12742">
        <ele>31.8</ele>
        <time>2021-10-28 09:07:50</time>
      </trkpt>
      <trkpt lat="43.31913" lon="-3.12752">
        <ele>32.4</ele>
        <time>2021-10-28 09:07:51</time>
      </trkpt>
      <trkpt lat="43.31913" lon="-3.12752">
        <ele>33.6</ele>
        <time>2021-10-28 09:07:52</time>
      </trkpt>
      <trkpt lat="43.31919" lon="-3.12765">
        <ele>33.6</ele>
        <time>2021-10-28 09:07:53</time>
      </trkpt>
      <trkpt lat="43.31919" lon="-3.12765">
        <ele>33.8</ele>
        <time>2021-10-28 09:07:55</time>
      </trkpt>
      <trkpt lat="43.31919" lon="-3.12765">
        <ele>33.8</ele>
        <time>2021-10-28 09:07:56</time>
      </trkpt>
      <trkpt lat="43.31919" lon="-3.12765">
        <ele>33.6</ele>
        <time>2021-10-28 09:07:57</time>
      </trkpt>
      <trkpt lat="43.31923" lon="-3.12774">
        <ele>33.4</ele>
        <time>2021-10-28 09:07:58</time>
      </trkpt>
      <trkpt lat="43.31929" lon="-3.12786">
        <ele>33</ele>
        <time>2021-10-28 09:07:59</time>
      </trkpt>
      <trkpt lat="43.31929" lon="-3.12786">
        <ele>33</ele>
        <time>2021-10-28 09:08:00</time>
      </trkpt>
      <trkpt lat="43.31933" lon="-3.12798">
        <ele>33.2</ele>
        <time>2021-10-28 09:08:01</time>
      </trkpt>
      <trkpt lat="43.31933" lon="-3.12798">
        <ele>33.6</ele>
        <time>2021-10-28 09:08:03</time>
      </trkpt>
      <trkpt lat="43.31933" lon="-3.12798">
        <ele>34.2</ele>
        <time>2021-10-28 09:08:04</time>
      </trkpt>
      <trkpt lat="43.31936" lon="-3.12807">
        <ele>34.8</ele>
        <time>2021-10-28 09:08:05</time>
      </trkpt>
      <trkpt lat="43.31936" lon="-3.12807">
        <ele>34.8</ele>
        <time>2021-10-28 09:08:06</time>
      </trkpt>
      <trkpt lat="43.31941" lon="-3.12819">
        <ele>34.8</ele>
        <time>2021-10-28 09:08:07</time>
      </trkpt>
      <trkpt lat="43.31941" lon="-3.12819">
        <ele>34.8</ele>
        <time>2021-10-28 09:08:08</time>
      </trkpt>
      <trkpt lat="43.31945" lon="-3.12836">
        <ele>34.8</ele>
        <time>2021-10-28 09:08:09</time>
      </trkpt>
      <trkpt lat="43.31945" lon="-3.12836">
        <ele>35</ele>
        <time>2021-10-28 09:08:11</time>
      </trkpt>
      <trkpt lat="43.31945" lon="-3.12836">
        <ele>35.2</ele>
        <time>2021-10-28 09:08:12</time>
      </trkpt>
      <trkpt lat="43.31948" lon="-3.12837">
        <ele>35.2</ele>
        <time>2021-10-28 09:08:13</time>
      </trkpt>
      <trkpt lat="43.3195" lon="-3.12847">
        <ele>35.2</ele>
        <time>2021-10-28 09:08:14</time>
      </trkpt>
      <trkpt lat="43.31953" lon="-3.12855">
        <ele>35.6</ele>
        <time>2021-10-28 09:08:15</time>
      </trkpt>
      <trkpt lat="43.31953" lon="-3.12855">
        <ele>36.4</ele>
        <time>2021-10-28 09:08:16</time>
      </trkpt>
      <trkpt lat="43.31953" lon="-3.12869">
        <ele>36.4</ele>
        <time>2021-10-28 09:08:17</time>
      </trkpt>
      <trkpt lat="43.31953" lon="-3.12869">
        <ele>36.4</ele>
        <time>2021-10-28 09:08:19</time>
      </trkpt>
      <trkpt lat="43.31953" lon="-3.12869">
        <ele>36.2</ele>
        <time>2021-10-28 09:08:20</time>
      </trkpt>
      <trkpt lat="43.31955" lon="-3.12873">
        <ele>36.2</ele>
        <time>2021-10-28 09:08:21</time>
      </trkpt>
      <trkpt lat="43.31957" lon="-3.12878">
        <ele>36.4</ele>
        <time>2021-10-28 09:08:22</time>
      </trkpt>
      <trkpt lat="43.31961" lon="-3.1289">
        <ele>36.8</ele>
        <time>2021-10-28 09:08:23</time>
      </trkpt>
      <trkpt lat="43.31961" lon="-3.1289">
        <ele>37.2</ele>
        <time>2021-10-28 09:08:24</time>
      </trkpt>
      <trkpt lat="43.31971" lon="-3.12898">
        <ele>37.4</ele>
        <time>2021-10-28 09:08:25</time>
      </trkpt>
      <trkpt lat="43.31971" lon="-3.12898">
        <ele>37.8</ele>
        <time>2021-10-28 09:08:27</time>
      </trkpt>
      <trkpt lat="43.31971" lon="-3.12898">
        <ele>38</ele>
        <time>2021-10-28 09:08:28</time>
      </trkpt>
      <trkpt lat="43.3197" lon="-3.12904">
        <ele>38</ele>
        <time>2021-10-28 09:08:29</time>
      </trkpt>
      <trkpt lat="43.31973" lon="-3.12909">
        <ele>38</ele>
        <time>2021-10-28 09:08:30</time>
      </trkpt>
      <trkpt lat="43.31979" lon="-3.12922">
        <ele>37.8</ele>
        <time>2021-10-28 09:08:31</time>
      </trkpt>
      <trkpt lat="43.31979" lon="-3.12922">
        <ele>37.6</ele>
        <time>2021-10-28 09:08:32</time>
      </trkpt>
      <trkpt lat="43.31988" lon="-3.12929">
        <ele>37.6</ele>
        <time>2021-10-28 09:08:33</time>
      </trkpt>
      <trkpt lat="43.31988" lon="-3.12929">
        <ele>37.8</ele>
        <time>2021-10-28 09:08:35</time>
      </trkpt>
      <trkpt lat="43.31988" lon="-3.12929">
        <ele>38</ele>
        <time>2021-10-28 09:08:36</time>
      </trkpt>
      <trkpt lat="43.31993" lon="-3.1293">
        <ele>38.2</ele>
        <time>2021-10-28 09:08:37</time>
      </trkpt>
      <trkpt lat="43.31996" lon="-3.12933">
        <ele>38.4</ele>
        <time>2021-10-28 09:08:38</time>
      </trkpt>
      <trkpt lat="43.32003" lon="-3.1294">
        <ele>38.6</ele>
        <time>2021-10-28 09:08:39</time>
      </trkpt>
      <trkpt lat="43.32003" lon="-3.1294">
        <ele>38.8</ele>
        <time>2021-10-28 09:08:40</time>
      </trkpt>
      <trkpt lat="43.32011" lon="-3.12945">
        <ele>38.8</ele>
        <time>2021-10-28 09:08:41</time>
      </trkpt>
      <trkpt lat="43.32011" lon="-3.12945">
        <ele>39</ele>
        <time>2021-10-28 09:08:43</time>
      </trkpt>
      <trkpt lat="43.32011" lon="-3.12945">
        <ele>39.2</ele>
        <time>2021-10-28 09:08:44</time>
      </trkpt>
      <trkpt lat="43.32014" lon="-3.12949">
        <ele>39.4</ele>
        <time>2021-10-28 09:08:45</time>
      </trkpt>
      <trkpt lat="43.32017" lon="-3.1295">
        <ele>39.6</ele>
        <time>2021-10-28 09:08:46</time>
      </trkpt>
      <trkpt lat="43.32019" lon="-3.12964">
        <ele>39.6</ele>
        <time>2021-10-28 09:08:47</time>
      </trkpt>
      <trkpt lat="43.32019" lon="-3.12964">
        <ele>40</ele>
        <time>2021-10-28 09:08:48</time>
      </trkpt>
      <trkpt lat="43.32026" lon="-3.12968">
        <ele>40.6</ele>
        <time>2021-10-28 09:08:49</time>
      </trkpt>
      <trkpt lat="43.32026" lon="-3.12968">
        <ele>40.8</ele>
        <time>2021-10-28 09:08:51</time>
      </trkpt>
      <trkpt lat="43.32026" lon="-3.12968">
        <ele>41.2</ele>
        <time>2021-10-28 09:08:52</time>
      </trkpt>
      <trkpt lat="43.32032" lon="-3.12973">
        <ele>41.4</ele>
        <time>2021-10-28 09:08:53</time>
      </trkpt>
      <trkpt lat="43.32032" lon="-3.12973">
        <ele>41.6</ele>
        <time>2021-10-28 09:08:54</time>
      </trkpt>
      <trkpt lat="43.32041" lon="-3.12981">
        <ele>42</ele>
        <time>2021-10-28 09:08:55</time>
      </trkpt>
      <trkpt lat="43.32041" lon="-3.12981">
        <ele>42.2</ele>
        <time>2021-10-28 09:08:56</time>
      </trkpt>
      <trkpt lat="43.3205" lon="-3.12984">
        <ele>42.4</ele>
        <time>2021-10-28 09:08:57</time>
      </trkpt>
      <trkpt lat="43.3205" lon="-3.12984">
        <ele>42.6</ele>
        <time>2021-10-28 09:08:59</time>
      </trkpt>
      <trkpt lat="43.3205" lon="-3.12984">
        <ele>42.6</ele>
        <time>2021-10-28 09:09:00</time>
      </trkpt>
      <trkpt lat="43.32051" lon="-3.12983">
        <ele>42.6</ele>
        <time>2021-10-28 09:09:01</time>
      </trkpt>
      <trkpt lat="43.32052" lon="-3.12983">
        <ele>42.6</ele>
        <time>2021-10-28 09:09:02</time>
      </trkpt>
      <trkpt lat="43.32059" lon="-3.12979">
        <ele>42.6</ele>
        <time>2021-10-28 09:09:03</time>
      </trkpt>
      <trkpt lat="43.32059" lon="-3.12979">
        <ele>42.6</ele>
        <time>2021-10-28 09:09:04</time>
      </trkpt>
      <trkpt lat="43.32066" lon="-3.12988">
        <ele>42.6</ele>
        <time>2021-10-28 09:09:05</time>
      </trkpt>
      <trkpt lat="43.32066" lon="-3.12988">
        <ele>42.6</ele>
        <time>2021-10-28 09:09:07</time>
      </trkpt>
      <trkpt lat="43.32066" lon="-3.12988">
        <ele>42.8</ele>
        <time>2021-10-28 09:09:08</time>
      </trkpt>
      <trkpt lat="43.32068" lon="-3.12989">
        <ele>42.8</ele>
        <time>2021-10-28 09:09:09</time>
      </trkpt>
      <trkpt lat="43.32071" lon="-3.12991">
        <ele>43</ele>
        <time>2021-10-28 09:09:10</time>
      </trkpt>
      <trkpt lat="43.32075" lon="-3.13002">
        <ele>43.2</ele>
        <time>2021-10-28 09:09:11</time>
      </trkpt>
      <trkpt lat="43.32075" lon="-3.13002">
        <ele>44</ele>
        <time>2021-10-28 09:09:12</time>
      </trkpt>
      <trkpt lat="43.32083" lon="-3.13012">
        <ele>44.2</ele>
        <time>2021-10-28 09:09:13</time>
      </trkpt>
      <trkpt lat="43.32083" lon="-3.13012">
        <ele>44.2</ele>
        <time>2021-10-28 09:09:15</time>
      </trkpt>
      <trkpt lat="43.32083" lon="-3.13012">
        <ele>44.4</ele>
        <time>2021-10-28 09:09:16</time>
      </trkpt>
      <trkpt lat="43.32086" lon="-3.13015">
        <ele>44.4</ele>
        <time>2021-10-28 09:09:17</time>
      </trkpt>
      <trkpt lat="43.32089" lon="-3.13018">
        <ele>44.8</ele>
        <time>2021-10-28 09:09:18</time>
      </trkpt>
      <trkpt lat="43.32095" lon="-3.13025">
        <ele>45</ele>
        <time>2021-10-28 09:09:19</time>
      </trkpt>
      <trkpt lat="43.32095" lon="-3.13025">
        <ele>45.8</ele>
        <time>2021-10-28 09:09:20</time>
      </trkpt>
      <trkpt lat="43.32104" lon="-3.13042">
        <ele>46.2</ele>
        <time>2021-10-28 09:09:21</time>
      </trkpt>
      <trkpt lat="43.32104" lon="-3.13042">
        <ele>46.4</ele>
        <time>2021-10-28 09:09:23</time>
      </trkpt>
      <trkpt lat="43.32104" lon="-3.13042">
        <ele>46.8</ele>
        <time>2021-10-28 09:09:24</time>
      </trkpt>
      <trkpt lat="43.32107" lon="-3.13044">
        <ele>47.2</ele>
        <time>2021-10-28 09:09:25</time>
      </trkpt>
      <trkpt lat="43.3211" lon="-3.13045">
        <ele>47.4</ele>
        <time>2021-10-28 09:09:26</time>
      </trkpt>
      <trkpt lat="43.32119" lon="-3.13043">
        <ele>47.6</ele>
        <time>2021-10-28 09:09:27</time>
      </trkpt>
      <trkpt lat="43.32119" lon="-3.13043">
        <ele>47.8</ele>
        <time>2021-10-28 09:09:28</time>
      </trkpt>
      <trkpt lat="43.3213" lon="-3.1304">
        <ele>47.8</ele>
        <time>2021-10-28 09:09:29</time>
      </trkpt>
      <trkpt lat="43.3213" lon="-3.1304">
        <ele>47.8</ele>
        <time>2021-10-28 09:09:31</time>
      </trkpt>
      <trkpt lat="43.3213" lon="-3.1304">
        <ele>47.8</ele>
        <time>2021-10-28 09:09:32</time>
      </trkpt>
      <trkpt lat="43.32132" lon="-3.13041">
        <ele>48</ele>
        <time>2021-10-28 09:09:33</time>
      </trkpt>
      <trkpt lat="43.32135" lon="-3.13038">
        <ele>48.2</ele>
        <time>2021-10-28 09:09:34</time>
      </trkpt>
      <trkpt lat="43.32139" lon="-3.1303">
        <ele>48.4</ele>
        <time>2021-10-28 09:09:35</time>
      </trkpt>
      <trkpt lat="43.32139" lon="-3.1303">
        <ele>48.6</ele>
        <time>2021-10-28 09:09:36</time>
      </trkpt>
      <trkpt lat="43.32139" lon="-3.1303">
        <ele>48.6</ele>
        <time>2021-10-28 09:09:37</time>
      </trkpt>
      <trkpt lat="43.32147" lon="-3.1302">
        <ele>48.6</ele>
        <time>2021-10-28 09:09:39</time>
      </trkpt>
      <trkpt lat="43.32147" lon="-3.1302">
        <ele>48.6</ele>
        <time>2021-10-28 09:09:40</time>
      </trkpt>
      <trkpt lat="43.32147" lon="-3.1302">
        <ele>48.4</ele>
        <time>2021-10-28 09:09:41</time>
      </trkpt>
      <trkpt lat="43.32149" lon="-3.13019">
        <ele>48.4</ele>
        <time>2021-10-28 09:09:42</time>
      </trkpt>
      <trkpt lat="43.32149" lon="-3.13015">
        <ele>48.2</ele>
        <time>2021-10-28 09:09:43</time>
      </trkpt>
      <trkpt lat="43.32154" lon="-3.13008">
        <ele>48.2</ele>
        <time>2021-10-28 09:09:44</time>
      </trkpt>
      <trkpt lat="43.32154" lon="-3.13008">
        <ele>48.2</ele>
        <time>2021-10-28 09:09:45</time>
      </trkpt>
      <trkpt lat="43.32154" lon="-3.13008">
        <ele>48.2</ele>
        <time>2021-10-28 09:09:46</time>
      </trkpt>
      <trkpt lat="43.32155" lon="-3.13006">
        <ele>48.2</ele>
        <time>2021-10-28 09:09:47</time>
      </trkpt>
      <trkpt lat="43.32159" lon="-3.13002">
        <ele>48.4</ele>
        <time>2021-10-28 09:09:48</time>
      </trkpt>
      <trkpt lat="43.32168" lon="-3.12989">
        <ele>48.4</ele>
        <time>2021-10-28 09:09:49</time>
      </trkpt>
      <trkpt lat="43.32168" lon="-3.12989">
        <ele>48.2</ele>
        <time>2021-10-28 09:09:50</time>
      </trkpt>
      <trkpt lat="43.32179" lon="-3.12976">
        <ele>48.2</ele>
        <time>2021-10-28 09:09:51</time>
      </trkpt>
      <trkpt lat="43.32179" lon="-3.12976">
        <ele>48</ele>
        <time>2021-10-28 09:09:52</time>
      </trkpt>
      <trkpt lat="43.32179" lon="-3.12976">
        <ele>47.8</ele>
        <time>2021-10-28 09:09:53</time>
      </trkpt>
      <trkpt lat="43.32179" lon="-3.12976">
        <ele>47.6</ele>
        <time>2021-10-28 09:09:54</time>
      </trkpt>
      <trkpt lat="43.32187" lon="-3.12967">
        <ele>47.4</ele>
        <time>2021-10-28 09:09:55</time>
      </trkpt>
      <trkpt lat="43.32199" lon="-3.12952">
        <ele>47.2</ele>
        <time>2021-10-28 09:09:56</time>
      </trkpt>
      <trkpt lat="43.32199" lon="-3.12952">
        <ele>47</ele>
        <time>2021-10-28 09:09:57</time>
      </trkpt>
      <trkpt lat="43.32212" lon="-3.12936">
        <ele>47</ele>
        <time>2021-10-28 09:09:58</time>
      </trkpt>
      <trkpt lat="43.32212" lon="-3.12936">
        <ele>46.8</ele>
        <time>2021-10-28 09:10:00</time>
      </trkpt>
      <trkpt lat="43.32212" lon="-3.12936">
        <ele>46.8</ele>
        <time>2021-10-28 09:10:01</time>
      </trkpt>
      <trkpt lat="43.32215" lon="-3.1293">
        <ele>46.6</ele>
        <time>2021-10-28 09:10:02</time>
      </trkpt>
      <trkpt lat="43.32219" lon="-3.12924">
        <ele>46.6</ele>
        <time>2021-10-28 09:10:03</time>
      </trkpt>
      <trkpt lat="43.32229" lon="-3.1291">
        <ele>46.4</ele>
        <time>2021-10-28 09:10:04</time>
      </trkpt>
      <trkpt lat="43.32229" lon="-3.1291">
        <ele>46.4</ele>
        <time>2021-10-28 09:10:05</time>
      </trkpt>
      <trkpt lat="43.32229" lon="-3.1291">
        <ele>46.2</ele>
        <time>2021-10-28 09:10:06</time>
      </trkpt>
      <trkpt lat="43.32238" lon="-3.12897">
        <ele>46.2</ele>
        <time>2021-10-28 09:10:08</time>
      </trkpt>
      <trkpt lat="43.32238" lon="-3.12897">
        <ele>46</ele>
        <time>2021-10-28 09:10:09</time>
      </trkpt>
      <trkpt lat="43.32238" lon="-3.12897">
        <ele>45.6</ele>
        <time>2021-10-28 09:10:10</time>
      </trkpt>
      <trkpt lat="43.32238" lon="-3.12897">
        <ele>45.2</ele>
        <time>2021-10-28 09:10:11</time>
      </trkpt>
      <trkpt lat="43.32244" lon="-3.12895">
        <ele>45</ele>
        <time>2021-10-28 09:10:12</time>
      </trkpt>
      <trkpt lat="43.32252" lon="-3.12899">
        <ele>44.8</ele>
        <time>2021-10-28 09:10:13</time>
      </trkpt>
      <trkpt lat="43.32252" lon="-3.12899">
        <ele>44.6</ele>
        <time>2021-10-28 09:10:14</time>
      </trkpt>
      <trkpt lat="43.32252" lon="-3.12899">
        <ele>44.4</ele>
        <time>2021-10-28 09:10:15</time>
      </trkpt>
      <trkpt lat="43.32255" lon="-3.12904">
        <ele>44.4</ele>
        <time>2021-10-28 09:10:16</time>
      </trkpt>
      <trkpt lat="43.32255" lon="-3.12904">
        <ele>44.2</ele>
        <time>2021-10-28 09:10:17</time>
      </trkpt>
      <trkpt lat="43.32261" lon="-3.12914">
        <ele>44.2</ele>
        <time>2021-10-28 09:10:18</time>
      </trkpt>
      <trkpt lat="43.32261" lon="-3.12914">
        <ele>43.8</ele>
        <time>2021-10-28 09:10:19</time>
      </trkpt>
      <trkpt lat="43.32269" lon="-3.12926">
        <ele>43.8</ele>
        <time>2021-10-28 09:10:20</time>
      </trkpt>
      <trkpt lat="43.32269" lon="-3.12926">
        <ele>43.8</ele>
        <time>2021-10-28 09:10:21</time>
      </trkpt>
      <trkpt lat="43.32269" lon="-3.12926">
        <ele>43.8</ele>
        <time>2021-10-28 09:10:22</time>
      </trkpt>
      <trkpt lat="43.32272" lon="-3.12929">
        <ele>43.8</ele>
        <time>2021-10-28 09:10:23</time>
      </trkpt>
      <trkpt lat="43.32279" lon="-3.12938">
        <ele>43.8</ele>
        <time>2021-10-28 09:10:24</time>
      </trkpt>
      <trkpt lat="43.32279" lon="-3.12938">
        <ele>43.8</ele>
        <time>2021-10-28 09:10:25</time>
      </trkpt>
      <trkpt lat="43.32287" lon="-3.1294">
        <ele>43.8</ele>
        <time>2021-10-28 09:10:26</time>
      </trkpt>
      <trkpt lat="43.32287" lon="-3.1294">
        <ele>43.6</ele>
        <time>2021-10-28 09:10:27</time>
      </trkpt>
      <trkpt lat="43.32298" lon="-3.12936">
        <ele>43.6</ele>
        <time>2021-10-28 09:10:29</time>
      </trkpt>
      <trkpt lat="43.32298" lon="-3.12936">
        <ele>43.4</ele>
        <time>2021-10-28 09:10:30</time>
      </trkpt>
      <trkpt lat="43.32298" lon="-3.12936">
        <ele>43.2</ele>
        <time>2021-10-28 09:10:31</time>
      </trkpt>
      <trkpt lat="43.32303" lon="-3.12921">
        <ele>43</ele>
        <time>2021-10-28 09:10:32</time>
      </trkpt>
      <trkpt lat="43.32303" lon="-3.12921">
        <ele>42.6</ele>
        <time>2021-10-28 09:10:33</time>
      </trkpt>
      <trkpt lat="43.32311" lon="-3.12911">
        <ele>42.2</ele>
        <time>2021-10-28 09:10:34</time>
      </trkpt>
      <trkpt lat="43.32311" lon="-3.12911">
        <ele>42.2</ele>
        <time>2021-10-28 09:10:35</time>
      </trkpt>
      <trkpt lat="43.32316" lon="-3.12919">
        <ele>42</ele>
        <time>2021-10-28 09:10:36</time>
      </trkpt>
      <trkpt lat="43.32316" lon="-3.12919">
        <ele>41.8</ele>
        <time>2021-10-28 09:10:37</time>
      </trkpt>
      <trkpt lat="43.32316" lon="-3.12919">
        <ele>41.6</ele>
        <time>2021-10-28 09:10:38</time>
      </trkpt>
      <trkpt lat="43.32316" lon="-3.12919">
        <ele>41.6</ele>
        <time>2021-10-28 09:10:39</time>
      </trkpt>
      <trkpt lat="43.32318" lon="-3.12925">
        <ele>41.6</ele>
        <time>2021-10-28 09:10:40</time>
      </trkpt>
      <trkpt lat="43.32319" lon="-3.12924">
        <ele>41.6</ele>
        <time>2021-10-28 09:10:41</time>
      </trkpt>
      <trkpt lat="43.32319" lon="-3.12924">
        <ele>41.6</ele>
        <time>2021-10-28 09:10:42</time>
      </trkpt>
      <trkpt lat="43.32319" lon="-3.12924">
        <ele>41.6</ele>
        <time>2021-10-28 09:10:43</time>
      </trkpt>
      <trkpt lat="43.32318" lon="-3.12923">
        <ele>41.4</ele>
        <time>2021-10-28 09:10:45</time>
      </trkpt>
      <trkpt lat="43.32318" lon="-3.12923">
        <ele>41.4</ele>
        <time>2021-10-28 09:10:46</time>
      </trkpt>
      <trkpt lat="43.32318" lon="-3.12923">
        <ele>41.4</ele>
        <time>2021-10-28 09:10:47</time>
      </trkpt>
      <trkpt lat="43.3232" lon="-3.12924">
        <ele>41.4</ele>
        <time>2021-10-28 09:10:48</time>
      </trkpt>
      <trkpt lat="43.3232" lon="-3.12924">
        <ele>41.4</ele>
        <time>2021-10-28 09:10:49</time>
      </trkpt>
      <trkpt lat="43.3232" lon="-3.12925">
        <ele>41.2</ele>
        <time>2021-10-28 09:10:50</time>
      </trkpt>
      <trkpt lat="43.32305" lon="-3.12947">
        <ele>41.2</ele>
        <time>2021-10-28 09:10:51</time>
      </trkpt>
      <trkpt lat="43.32303" lon="-3.12953">
        <ele>41.4</ele>
        <time>2021-10-28 09:10:52</time>
      </trkpt>
      <trkpt lat="43.32304" lon="-3.12956">
        <ele>41.4</ele>
        <time>2021-10-28 09:10:53</time>
      </trkpt>
      <trkpt lat="43.32304" lon="-3.12956">
        <ele>41.6</ele>
        <time>2021-10-28 09:10:54</time>
      </trkpt>
      <trkpt lat="43.32303" lon="-3.12965">
        <ele>41.8</ele>
        <time>2021-10-28 09:10:55</time>
      </trkpt>
      <trkpt lat="43.32303" lon="-3.12965">
        <ele>41.8</ele>
        <time>2021-10-28 09:10:56</time>
      </trkpt>
      <trkpt lat="43.32304" lon="-3.12966">
        <ele>42.2</ele>
        <time>2021-10-28 09:10:57</time>
      </trkpt>
      <trkpt lat="43.32304" lon="-3.12966">
        <ele>42.4</ele>
        <time>2021-10-28 09:10:58</time>
      </trkpt>
      <trkpt lat="43.32309" lon="-3.12974">
        <ele>42.6</ele>
        <time>2021-10-28 09:10:59</time>
      </trkpt>
      <trkpt lat="43.32313" lon="-3.12978">
        <ele>42.8</ele>
        <time>2021-10-28 09:11:00</time>
      </trkpt>
      <trkpt lat="43.32312" lon="-3.12985">
        <ele>43.2</ele>
        <time>2021-10-28 09:12:47</time>
      </trkpt>
      <trkpt lat="43.32316" lon="-3.12987">
        <ele>43.4</ele>
        <time>2021-10-28 09:12:48</time>
      </trkpt>
      <trkpt lat="43.32316" lon="-3.12987">
        <ele>43.6</ele>
        <time>2021-10-28 09:12:50</time>
      </trkpt>
      <trkpt lat="43.32316" lon="-3.12987">
        <ele>43.8</ele>
        <time>2021-10-28 09:12:51</time>
      </trkpt>
      <trkpt lat="43.3232" lon="-3.12989">
        <ele>44</ele>
        <time>2021-10-28 09:12:52</time>
      </trkpt>
      <trkpt lat="43.32321" lon="-3.12991">
        <ele>44.2</ele>
        <time>2021-10-28 09:12:53</time>
      </trkpt>
      <trkpt lat="43.32324" lon="-3.12993">
        <ele>44.2</ele>
        <time>2021-10-28 09:12:54</time>
      </trkpt>
      <trkpt lat="43.32324" lon="-3.12993">
        <ele>44.4</ele>
        <time>2021-10-28 09:12:55</time>
      </trkpt>
      <trkpt lat="43.32324" lon="-3.12993">
        <ele>44.4</ele>
        <time>2021-10-28 09:12:56</time>
      </trkpt>
      <trkpt lat="43.32329" lon="-3.12996">
        <ele>44.4</ele>
        <time>2021-10-28 09:12:58</time>
      </trkpt>
      <trkpt lat="43.32329" lon="-3.12996">
        <ele>44.4</ele>
        <time>2021-10-28 09:12:59</time>
      </trkpt>
      <trkpt lat="43.32328" lon="-3.12997">
        <ele>44.2</ele>
        <time>2021-10-28 09:13:00</time>
      </trkpt>
      <trkpt lat="43.32328" lon="-3.12997">
        <ele>44.2</ele>
        <time>2021-10-28 09:13:01</time>
      </trkpt>
      <trkpt lat="43.3233" lon="-3.13003">
        <ele>44</ele>
        <time>2021-10-28 09:13:02</time>
      </trkpt>
      <trkpt lat="43.32335" lon="-3.13005">
        <ele>44</ele>
        <time>2021-10-28 09:13:03</time>
      </trkpt>
      <trkpt lat="43.32335" lon="-3.13005">
        <ele>43.8</ele>
        <time>2021-10-28 09:13:04</time>
      </trkpt>
      <trkpt lat="43.32335" lon="-3.13005">
        <ele>43.6</ele>
        <time>2021-10-28 09:13:05</time>
      </trkpt>
      <trkpt lat="43.3234" lon="-3.13006">
        <ele>43.4</ele>
        <time>2021-10-28 09:13:06</time>
      </trkpt>
      <trkpt lat="43.3234" lon="-3.13007">
        <ele>43.2</ele>
        <time>2021-10-28 09:13:07</time>
      </trkpt>
      <trkpt lat="43.32343" lon="-3.13007">
        <ele>43.2</ele>
        <time>2021-10-28 09:13:08</time>
      </trkpt>
      <trkpt lat="43.32343" lon="-3.13007">
        <ele>43</ele>
        <time>2021-10-28 09:13:09</time>
      </trkpt>
      <trkpt lat="43.32347" lon="-3.13012">
        <ele>43</ele>
        <time>2021-10-28 09:13:10</time>
      </trkpt>
      <trkpt lat="43.32347" lon="-3.13012">
        <ele>43</ele>
        <time>2021-10-28 09:13:11</time>
      </trkpt>
      <trkpt lat="43.32349" lon="-3.13013">
        <ele>43</ele>
        <time>2021-10-28 09:13:12</time>
      </trkpt>
      <trkpt lat="43.32349" lon="-3.13013">
        <ele>43</ele>
        <time>2021-10-28 09:13:13</time>
      </trkpt>
      <trkpt lat="43.32353" lon="-3.13019">
        <ele>43</ele>
        <time>2021-10-28 09:13:14</time>
      </trkpt>
      <trkpt lat="43.32359" lon="-3.13021">
        <ele>43</ele>
        <time>2021-10-28 09:13:15</time>
      </trkpt>
      <trkpt lat="43.32359" lon="-3.13021">
        <ele>43</ele>
        <time>2021-10-28 09:13:16</time>
      </trkpt>
      <trkpt lat="43.32359" lon="-3.13021">
        <ele>43</ele>
        <time>2021-10-28 09:13:17</time>
      </trkpt>
      <trkpt lat="43.32361" lon="-3.13022">
        <ele>43.2</ele>
        <time>2021-10-28 09:13:19</time>
      </trkpt>
      <trkpt lat="43.32361" lon="-3.13021">
        <ele>43.4</ele>
        <time>2021-10-28 09:13:20</time>
      </trkpt>
      <trkpt lat="43.32365" lon="-3.13025">
        <ele>43.8</ele>
        <time>2021-10-28 09:13:21</time>
      </trkpt>
      <trkpt lat="43.32365" lon="-3.13025">
        <ele>44.4</ele>
        <time>2021-10-28 09:13:22</time>
      </trkpt>
      <trkpt lat="43.32371" lon="-3.13028">
        <ele>44.6</ele>
        <time>2021-10-28 09:13:23</time>
      </trkpt>
      <trkpt lat="43.32371" lon="-3.13028">
        <ele>44.6</ele>
        <time>2021-10-28 09:13:24</time>
      </trkpt>
      <trkpt lat="43.32373" lon="-3.1303">
        <ele>44.8</ele>
        <time>2021-10-28 09:13:25</time>
      </trkpt>
      <trkpt lat="43.32373" lon="-3.1303">
        <ele>45</ele>
        <time>2021-10-28 09:13:26</time>
      </trkpt>
      <trkpt lat="43.32373" lon="-3.1303">
        <ele>45</ele>
        <time>2021-10-28 09:13:27</time>
      </trkpt>
      <trkpt lat="43.3238" lon="-3.13038">
        <ele>45.2</ele>
        <time>2021-10-28 09:13:28</time>
      </trkpt>
      <trkpt lat="43.3238" lon="-3.13038">
        <ele>45.2</ele>
        <time>2021-10-28 09:13:29</time>
      </trkpt>
      <trkpt lat="43.3238" lon="-3.13038">
        <ele>45.2</ele>
        <time>2021-10-28 09:13:30</time>
      </trkpt>
      <trkpt lat="43.32387" lon="-3.13043">
        <ele>45.2</ele>
        <time>2021-10-28 09:13:32</time>
      </trkpt>
      <trkpt lat="43.32387" lon="-3.13043">
        <ele>45</ele>
        <time>2021-10-28 09:13:33</time>
      </trkpt>
      <trkpt lat="43.32388" lon="-3.13053">
        <ele>45</ele>
        <time>2021-10-28 09:13:34</time>
      </trkpt>
      <trkpt lat="43.32388" lon="-3.13053">
        <ele>45</ele>
        <time>2021-10-28 09:13:35</time>
      </trkpt>
      <trkpt lat="43.32391" lon="-3.13064">
        <ele>44.8</ele>
        <time>2021-10-28 09:13:36</time>
      </trkpt>
      <trkpt lat="43.32391" lon="-3.13064">
        <ele>44.8</ele>
        <time>2021-10-28 09:13:37</time>
      </trkpt>
      <trkpt lat="43.32391" lon="-3.13064">
        <ele>44.8</ele>
        <time>2021-10-28 09:13:38</time>
      </trkpt>
      <trkpt lat="43.32391" lon="-3.13064">
        <ele>44.8</ele>
        <time>2021-10-28 09:13:39</time>
      </trkpt>
      <trkpt lat="43.32392" lon="-3.1307">
        <ele>45</ele>
        <time>2021-10-28 09:13:40</time>
      </trkpt>
      <trkpt lat="43.32393" lon="-3.13083">
        <ele>45</ele>
        <time>2021-10-28 09:13:41</time>
      </trkpt>
      <trkpt lat="43.32393" lon="-3.13083">
        <ele>45</ele>
        <time>2021-10-28 09:13:42</time>
      </trkpt>
      <trkpt lat="43.32393" lon="-3.13083">
        <ele>45</ele>
        <time>2021-10-28 09:13:43</time>
      </trkpt>
      <trkpt lat="43.32394" lon="-3.13092">
        <ele>45</ele>
        <time>2021-10-28 09:13:45</time>
      </trkpt>
      <trkpt lat="43.32393" lon="-3.131">
        <ele>45</ele>
        <time>2021-10-28 09:13:46</time>
      </trkpt>
      <trkpt lat="43.32392" lon="-3.13108">
        <ele>45.2</ele>
        <time>2021-10-28 09:13:47</time>
      </trkpt>
      <trkpt lat="43.32392" lon="-3.13108">
        <ele>45.4</ele>
        <time>2021-10-28 09:13:48</time>
      </trkpt>
      <trkpt lat="43.32392" lon="-3.13108">
        <ele>45.6</ele>
        <time>2021-10-28 09:13:49</time>
      </trkpt>
      <trkpt lat="43.32391" lon="-3.1311">
        <ele>45.8</ele>
        <time>2021-10-28 09:13:50</time>
      </trkpt>
      <trkpt lat="43.32391" lon="-3.1311">
        <ele>45.8</ele>
        <time>2021-10-28 09:13:51</time>
      </trkpt>
      <trkpt lat="43.32388" lon="-3.13122">
        <ele>45.8</ele>
        <time>2021-10-28 09:13:52</time>
      </trkpt>
      <trkpt lat="43.32388" lon="-3.13122">
        <ele>45.8</ele>
        <time>2021-10-28 09:13:53</time>
      </trkpt>
      <trkpt lat="43.32387" lon="-3.13125">
        <ele>46</ele>
        <time>2021-10-28 09:13:54</time>
      </trkpt>
      <trkpt lat="43.32387" lon="-3.13125">
        <ele>46</ele>
        <time>2021-10-28 09:13:55</time>
      </trkpt>
      <trkpt lat="43.32387" lon="-3.13125">
        <ele>46.2</ele>
        <time>2021-10-28 09:13:56</time>
      </trkpt>
      <trkpt lat="43.32383" lon="-3.13139">
        <ele>46.4</ele>
        <time>2021-10-28 09:13:57</time>
      </trkpt>
      <trkpt lat="43.32383" lon="-3.13139">
        <ele>46.8</ele>
        <time>2021-10-28 09:13:58</time>
      </trkpt>
      <trkpt lat="43.32383" lon="-3.13139">
        <ele>46.8</ele>
        <time>2021-10-28 09:13:59</time>
      </trkpt>
      <trkpt lat="43.32383" lon="-3.1314">
        <ele>46.8</ele>
        <time>2021-10-28 09:14:00</time>
      </trkpt>
      <trkpt lat="43.32382" lon="-3.13145">
        <ele>46.8</ele>
        <time>2021-10-28 09:14:01</time>
      </trkpt>
      <trkpt lat="43.32382" lon="-3.13145">
        <ele>47</ele>
        <time>2021-10-28 09:14:02</time>
      </trkpt>
      <trkpt lat="43.3238" lon="-3.13146">
        <ele>47</ele>
        <time>2021-10-28 09:14:03</time>
      </trkpt>
      <trkpt lat="43.32377" lon="-3.1315">
        <ele>47.2</ele>
        <time>2021-10-28 09:14:04</time>
      </trkpt>
      <trkpt lat="43.32377" lon="-3.1315">
        <ele>47.4</ele>
        <time>2021-10-28 09:14:05</time>
      </trkpt>
      <trkpt lat="43.32377" lon="-3.1315">
        <ele>47.8</ele>
        <time>2021-10-28 09:14:06</time>
      </trkpt>
      <trkpt lat="43.32376" lon="-3.13154">
        <ele>48</ele>
        <time>2021-10-28 09:14:07</time>
      </trkpt>
      <trkpt lat="43.32376" lon="-3.13154">
        <ele>48.2</ele>
        <time>2021-10-28 09:14:08</time>
      </trkpt>
      <trkpt lat="43.3237" lon="-3.13166">
        <ele>48.4</ele>
        <time>2021-10-28 09:14:09</time>
      </trkpt>
      <trkpt lat="43.3237" lon="-3.13166">
        <ele>48.8</ele>
        <time>2021-10-28 09:14:10</time>
      </trkpt>
      <trkpt lat="43.3237" lon="-3.13166">
        <ele>49.2</ele>
        <time>2021-10-28 09:14:11</time>
      </trkpt>
      <trkpt lat="43.32367" lon="-3.13169">
        <ele>49.8</ele>
        <time>2021-10-28 09:14:12</time>
      </trkpt>
      <trkpt lat="43.32367" lon="-3.13169">
        <ele>50.2</ele>
        <time>2021-10-28 09:14:13</time>
      </trkpt>
      <trkpt lat="43.3236" lon="-3.13166">
        <ele>50.6</ele>
        <time>2021-10-28 09:14:14</time>
      </trkpt>
      <trkpt lat="43.3236" lon="-3.13166">
        <ele>50.6</ele>
        <time>2021-10-28 09:14:15</time>
      </trkpt>
      <trkpt lat="43.3236" lon="-3.13166">
        <ele>50.6</ele>
        <time>2021-10-28 09:14:16</time>
      </trkpt>
      <trkpt lat="43.32356" lon="-3.13158">
        <ele>50.6</ele>
        <time>2021-10-28 09:14:17</time>
      </trkpt>
      <trkpt lat="43.32356" lon="-3.13158">
        <ele>50.8</ele>
        <time>2021-10-28 09:14:18</time>
      </trkpt>
      <trkpt lat="43.32353" lon="-3.13149">
        <ele>51</ele>
        <time>2021-10-28 09:14:19</time>
      </trkpt>
      <trkpt lat="43.32353" lon="-3.13149">
        <ele>51.2</ele>
        <time>2021-10-28 09:14:20</time>
      </trkpt>
      <trkpt lat="43.32353" lon="-3.13149">
        <ele>51.6</ele>
        <time>2021-10-28 09:14:21</time>
      </trkpt>
      <trkpt lat="43.3235" lon="-3.13148">
        <ele>52</ele>
        <time>2021-10-28 09:14:22</time>
      </trkpt>
      <trkpt lat="43.3235" lon="-3.13148">
        <ele>52.2</ele>
        <time>2021-10-28 09:14:23</time>
      </trkpt>
      <trkpt lat="43.32346" lon="-3.13145">
        <ele>52.4</ele>
        <time>2021-10-28 09:14:24</time>
      </trkpt>
      <trkpt lat="43.32346" lon="-3.13145">
        <ele>52.6</ele>
        <time>2021-10-28 09:14:25</time>
      </trkpt>
      <trkpt lat="43.32341" lon="-3.13143">
        <ele>52.8</ele>
        <time>2021-10-28 09:14:26</time>
      </trkpt>
      <trkpt lat="43.32341" lon="-3.13144">
        <ele>53</ele>
        <time>2021-10-28 09:14:27</time>
      </trkpt>
      <trkpt lat="43.32341" lon="-3.13144">
        <ele>53.2</ele>
        <time>2021-10-28 09:14:28</time>
      </trkpt>
      <trkpt lat="43.32337" lon="-3.13143">
        <ele>53.2</ele>
        <time>2021-10-28 09:14:29</time>
      </trkpt>
      <trkpt lat="43.32337" lon="-3.13143">
        <ele>53.2</ele>
        <time>2021-10-28 09:14:30</time>
      </trkpt>
      <trkpt lat="43.32331" lon="-3.13141">
        <ele>53.2</ele>
        <time>2021-10-28 09:14:31</time>
      </trkpt>
      <trkpt lat="43.32331" lon="-3.13141">
        <ele>53.2</ele>
        <time>2021-10-28 09:14:32</time>
      </trkpt>
      <trkpt lat="43.32331" lon="-3.13141">
        <ele>53.4</ele>
        <time>2021-10-28 09:14:33</time>
      </trkpt>
      <trkpt lat="43.32329" lon="-3.13139">
        <ele>53.6</ele>
        <time>2021-10-28 09:14:34</time>
      </trkpt>
      <trkpt lat="43.32326" lon="-3.1314">
        <ele>54.2</ele>
        <time>2021-10-28 09:14:35</time>
      </trkpt>
      <trkpt lat="43.3232" lon="-3.13138">
        <ele>54.6</ele>
        <time>2021-10-28 09:14:36</time>
      </trkpt>
      <trkpt lat="43.3232" lon="-3.13138">
        <ele>55</ele>
        <time>2021-10-28 09:14:37</time>
      </trkpt>
      <trkpt lat="43.3232" lon="-3.13138">
        <ele>55</ele>
        <time>2021-10-28 09:14:38</time>
      </trkpt>
      <trkpt lat="43.32319" lon="-3.13138">
        <ele>55</ele>
        <time>2021-10-28 09:14:39</time>
      </trkpt>
      <trkpt lat="43.32314" lon="-3.13137">
        <ele>55</ele>
        <time>2021-10-28 09:14:40</time>
      </trkpt>
      <trkpt lat="43.32307" lon="-3.13129">
        <ele>55</ele>
        <time>2021-10-28 09:14:41</time>
      </trkpt>
      <trkpt lat="43.32307" lon="-3.13129">
        <ele>55.2</ele>
        <time>2021-10-28 09:14:42</time>
      </trkpt>
      <trkpt lat="43.32307" lon="-3.13129">
        <ele>55.2</ele>
        <time>2021-10-28 09:14:43</time>
      </trkpt>
      <trkpt lat="43.32307" lon="-3.1313">
        <ele>55.2</ele>
        <time>2021-10-28 09:14:44</time>
      </trkpt>
      <trkpt lat="43.32304" lon="-3.13131">
        <ele>55.4</ele>
        <time>2021-10-28 09:14:45</time>
      </trkpt>
      <trkpt lat="43.32299" lon="-3.13127">
        <ele>55.4</ele>
        <time>2021-10-28 09:14:46</time>
      </trkpt>
      <trkpt lat="43.32299" lon="-3.13127">
        <ele>55.6</ele>
        <time>2021-10-28 09:14:47</time>
      </trkpt>
      <trkpt lat="43.32299" lon="-3.13127">
        <ele>55.8</ele>
        <time>2021-10-28 09:14:48</time>
      </trkpt>
      <trkpt lat="43.32295" lon="-3.13126">
        <ele>55.8</ele>
        <time>2021-10-28 09:14:49</time>
      </trkpt>
      <trkpt lat="43.32292" lon="-3.13124">
        <ele>56</ele>
        <time>2021-10-28 09:14:50</time>
      </trkpt>
      <trkpt lat="43.32285" lon="-3.1312">
        <ele>56.2</ele>
        <time>2021-10-28 09:14:51</time>
      </trkpt>
      <trkpt lat="43.32285" lon="-3.1312">
        <ele>56.2</ele>
        <time>2021-10-28 09:14:52</time>
      </trkpt>
      <trkpt lat="43.32285" lon="-3.1312">
        <ele>56.2</ele>
        <time>2021-10-28 09:14:53</time>
      </trkpt>
      <trkpt lat="43.32282" lon="-3.13116">
        <ele>56.2</ele>
        <time>2021-10-28 09:14:54</time>
      </trkpt>
      <trkpt lat="43.32282" lon="-3.13116">
        <ele>56.2</ele>
        <time>2021-10-28 09:14:55</time>
      </trkpt>
      <trkpt lat="43.32279" lon="-3.13112">
        <ele>56.2</ele>
        <time>2021-10-28 09:14:56</time>
      </trkpt>
      <trkpt lat="43.32279" lon="-3.13112">
        <ele>56.4</ele>
        <time>2021-10-28 09:14:57</time>
      </trkpt>
      <trkpt lat="43.32279" lon="-3.13112">
        <ele>56.4</ele>
        <time>2021-10-28 09:14:58</time>
      </trkpt>
      <trkpt lat="43.32276" lon="-3.13107">
        <ele>56.4</ele>
        <time>2021-10-28 09:14:59</time>
      </trkpt>
      <trkpt lat="43.32276" lon="-3.13102">
        <ele>56.4</ele>
        <time>2021-10-28 09:15:00</time>
      </trkpt>
      <trkpt lat="43.32268" lon="-3.13099">
        <ele>56.6</ele>
        <time>2021-10-28 09:15:01</time>
      </trkpt>
      <trkpt lat="43.32268" lon="-3.13099">
        <ele>57.2</ele>
        <time>2021-10-28 09:15:02</time>
      </trkpt>
      <trkpt lat="43.3226" lon="-3.13105">
        <ele>57.8</ele>
        <time>2021-10-28 09:15:03</time>
      </trkpt>
      <trkpt lat="43.3226" lon="-3.13105">
        <ele>58.2</ele>
        <time>2021-10-28 09:15:04</time>
      </trkpt>
      <trkpt lat="43.3226" lon="-3.13105">
        <ele>58.2</ele>
        <time>2021-10-28 09:15:05</time>
      </trkpt>
      <trkpt lat="43.32256" lon="-3.13106">
        <ele>58.4</ele>
        <time>2021-10-28 09:15:06</time>
      </trkpt>
      <trkpt lat="43.32256" lon="-3.13106">
        <ele>58.4</ele>
        <time>2021-10-28 09:15:07</time>
      </trkpt>
      <trkpt lat="43.3225" lon="-3.1311">
        <ele>58.4</ele>
        <time>2021-10-28 09:15:08</time>
      </trkpt>
      <trkpt lat="43.3225" lon="-3.1311">
        <ele>58.6</ele>
        <time>2021-10-28 09:15:09</time>
      </trkpt>
      <trkpt lat="43.3225" lon="-3.1311">
        <ele>58.6</ele>
        <time>2021-10-28 09:15:10</time>
      </trkpt>
      <trkpt lat="43.32246" lon="-3.13117">
        <ele>58.6</ele>
        <time>2021-10-28 09:15:12</time>
      </trkpt>
      <trkpt lat="43.32246" lon="-3.13117">
        <ele>58.6</ele>
        <time>2021-10-28 09:15:13</time>
      </trkpt>
      <trkpt lat="43.32246" lon="-3.13117">
        <ele>58.6</ele>
        <time>2021-10-28 09:15:14</time>
      </trkpt>
      <trkpt lat="43.32245" lon="-3.1312">
        <ele>59</ele>
        <time>2021-10-28 09:15:15</time>
      </trkpt>
      <trkpt lat="43.32243" lon="-3.13123">
        <ele>59.2</ele>
        <time>2021-10-28 09:15:16</time>
      </trkpt>
      <trkpt lat="43.32238" lon="-3.13132">
        <ele>59.6</ele>
        <time>2021-10-28 09:15:17</time>
      </trkpt>
      <trkpt lat="43.32238" lon="-3.13132">
        <ele>59.8</ele>
        <time>2021-10-28 09:15:18</time>
      </trkpt>
      <trkpt lat="43.32238" lon="-3.13132">
        <ele>60</ele>
        <time>2021-10-28 09:15:19</time>
      </trkpt>
      <trkpt lat="43.32238" lon="-3.13133">
        <ele>60.2</ele>
        <time>2021-10-28 09:15:20</time>
      </trkpt>
      <trkpt lat="43.32238" lon="-3.13133">
        <ele>60.2</ele>
        <time>2021-10-28 09:15:21</time>
      </trkpt>
      <trkpt lat="43.32235" lon="-3.13136">
        <ele>60.4</ele>
        <time>2021-10-28 09:15:22</time>
      </trkpt>
      <trkpt lat="43.32235" lon="-3.13139">
        <ele>60.6</ele>
        <time>2021-10-28 09:15:23</time>
      </trkpt>
      <trkpt lat="43.3223" lon="-3.13146">
        <ele>61</ele>
        <time>2021-10-28 09:15:24</time>
      </trkpt>
      <trkpt lat="43.3223" lon="-3.13146">
        <ele>61.4</ele>
        <time>2021-10-28 09:15:25</time>
      </trkpt>
      <trkpt lat="43.3223" lon="-3.13146">
        <ele>61.6</ele>
        <time>2021-10-28 09:15:26</time>
      </trkpt>
      <trkpt lat="43.32226" lon="-3.13147">
        <ele>62</ele>
        <time>2021-10-28 09:15:27</time>
      </trkpt>
      <trkpt lat="43.32226" lon="-3.13147">
        <ele>62</ele>
        <time>2021-10-28 09:15:28</time>
      </trkpt>
      <trkpt lat="43.32222" lon="-3.13151">
        <ele>62</ele>
        <time>2021-10-28 09:15:29</time>
      </trkpt>
      <trkpt lat="43.32222" lon="-3.13151">
        <ele>62.2</ele>
        <time>2021-10-28 09:15:30</time>
      </trkpt>
      <trkpt lat="43.32222" lon="-3.13151">
        <ele>62.4</ele>
        <time>2021-10-28 09:15:31</time>
      </trkpt>
      <trkpt lat="43.3222" lon="-3.13155">
        <ele>62.6</ele>
        <time>2021-10-28 09:15:32</time>
      </trkpt>
      <trkpt lat="43.3222" lon="-3.13155">
        <ele>62.8</ele>
        <time>2021-10-28 09:15:33</time>
      </trkpt>
      <trkpt lat="43.32215" lon="-3.1316">
        <ele>62.8</ele>
        <time>2021-10-28 09:15:34</time>
      </trkpt>
      <trkpt lat="43.32215" lon="-3.1316">
        <ele>63</ele>
        <time>2021-10-28 09:15:35</time>
      </trkpt>
      <trkpt lat="43.32215" lon="-3.1316">
        <ele>63</ele>
        <time>2021-10-28 09:15:36</time>
      </trkpt>
      <trkpt lat="43.32212" lon="-3.13162">
        <ele>63.2</ele>
        <time>2021-10-28 09:15:37</time>
      </trkpt>
      <trkpt lat="43.32212" lon="-3.13162">
        <ele>63.6</ele>
        <time>2021-10-28 09:15:38</time>
      </trkpt>
      <trkpt lat="43.32208" lon="-3.13168">
        <ele>64</ele>
        <time>2021-10-28 09:15:39</time>
      </trkpt>
      <trkpt lat="43.32208" lon="-3.13168">
        <ele>64</ele>
        <time>2021-10-28 09:15:40</time>
      </trkpt>
      <trkpt lat="43.32208" lon="-3.13168">
        <ele>64.2</ele>
        <time>2021-10-28 09:15:41</time>
      </trkpt>
      <trkpt lat="43.32204" lon="-3.13173">
        <ele>64.2</ele>
        <time>2021-10-28 09:15:42</time>
      </trkpt>
      <trkpt lat="43.32202" lon="-3.13175">
        <ele>64.2</ele>
        <time>2021-10-28 09:15:43</time>
      </trkpt>
      <trkpt lat="43.32202" lon="-3.13178">
        <ele>64.2</ele>
        <time>2021-10-28 09:15:44</time>
      </trkpt>
      <trkpt lat="43.32202" lon="-3.13178">
        <ele>64.2</ele>
        <time>2021-10-28 09:15:45</time>
      </trkpt>
      <trkpt lat="43.32195" lon="-3.13189">
        <ele>64</ele>
        <time>2021-10-28 09:15:46</time>
      </trkpt>
      <trkpt lat="43.32195" lon="-3.13189">
        <ele>64</ele>
        <time>2021-10-28 09:15:47</time>
      </trkpt>
      <trkpt lat="43.32195" lon="-3.13189">
        <ele>64</ele>
        <time>2021-10-28 09:15:48</time>
      </trkpt>
      <trkpt lat="43.32195" lon="-3.13189">
        <ele>64.2</ele>
        <time>2021-10-28 09:15:49</time>
      </trkpt>
      <trkpt lat="43.32191" lon="-3.13192">
        <ele>64.6</ele>
        <time>2021-10-28 09:15:50</time>
      </trkpt>
      <trkpt lat="43.32188" lon="-3.13196">
        <ele>65</ele>
        <time>2021-10-28 09:15:51</time>
      </trkpt>
      <trkpt lat="43.32188" lon="-3.13196">
        <ele>65.4</ele>
        <time>2021-10-28 09:15:52</time>
      </trkpt>
      <trkpt lat="43.32188" lon="-3.13196">
        <ele>65.6</ele>
        <time>2021-10-28 09:15:53</time>
      </trkpt>
      <trkpt lat="43.32187" lon="-3.13199">
        <ele>65.6</ele>
        <time>2021-10-28 09:15:54</time>
      </trkpt>
      <trkpt lat="43.32187" lon="-3.13199">
        <ele>65.8</ele>
        <time>2021-10-28 09:15:55</time>
      </trkpt>
      <trkpt lat="43.32184" lon="-3.13203">
        <ele>65.8</ele>
        <time>2021-10-28 09:15:56</time>
      </trkpt>
      <trkpt lat="43.32184" lon="-3.13203">
        <ele>66</ele>
        <time>2021-10-28 09:15:57</time>
      </trkpt>
      <trkpt lat="43.32184" lon="-3.13203">
        <ele>66</ele>
        <time>2021-10-28 09:15:58</time>
      </trkpt>
      <trkpt lat="43.32183" lon="-3.13204">
        <ele>66.2</ele>
        <time>2021-10-28 09:15:59</time>
      </trkpt>
      <trkpt lat="43.32181" lon="-3.13205">
        <ele>66.2</ele>
        <time>2021-10-28 09:16:00</time>
      </trkpt>
      <trkpt lat="43.32178" lon="-3.13208">
        <ele>66.2</ele>
        <time>2021-10-28 09:16:01</time>
      </trkpt>
      <trkpt lat="43.32178" lon="-3.13212">
        <ele>66.4</ele>
        <time>2021-10-28 09:16:02</time>
      </trkpt>
      <trkpt lat="43.32177" lon="-3.13217">
        <ele>66.4</ele>
        <time>2021-10-28 09:16:03</time>
      </trkpt>
      <trkpt lat="43.32175" lon="-3.13218">
        <ele>66.6</ele>
        <time>2021-10-28 09:16:04</time>
      </trkpt>
      <trkpt lat="43.32175" lon="-3.13218">
        <ele>66.8</ele>
        <time>2021-10-28 09:16:05</time>
      </trkpt>
      <trkpt lat="43.32174" lon="-3.13222">
        <ele>67</ele>
        <time>2021-10-28 09:16:06</time>
      </trkpt>
      <trkpt lat="43.32173" lon="-3.13224">
        <ele>67.2</ele>
        <time>2021-10-28 09:16:07</time>
      </trkpt>
      <trkpt lat="43.32172" lon="-3.13231">
        <ele>67.4</ele>
        <time>2021-10-28 09:16:08</time>
      </trkpt>
      <trkpt lat="43.32172" lon="-3.13231">
        <ele>67.4</ele>
        <time>2021-10-28 09:16:09</time>
      </trkpt>
      <trkpt lat="43.32172" lon="-3.13231">
        <ele>67.6</ele>
        <time>2021-10-28 09:16:10</time>
      </trkpt>
      <trkpt lat="43.32171" lon="-3.13233">
        <ele>67.8</ele>
        <time>2021-10-28 09:16:11</time>
      </trkpt>
      <trkpt lat="43.3217" lon="-3.13235">
        <ele>68.2</ele>
        <time>2021-10-28 09:16:12</time>
      </trkpt>
      <trkpt lat="43.32168" lon="-3.13241">
        <ele>68.4</ele>
        <time>2021-10-28 09:16:13</time>
      </trkpt>
      <trkpt lat="43.32168" lon="-3.13241">
        <ele>68.8</ele>
        <time>2021-10-28 09:16:14</time>
      </trkpt>
      <trkpt lat="43.32168" lon="-3.13241">
        <ele>69</ele>
        <time>2021-10-28 09:16:15</time>
      </trkpt>
      <trkpt lat="43.32166" lon="-3.13242">
        <ele>69.4</ele>
        <time>2021-10-28 09:16:16</time>
      </trkpt>
      <trkpt lat="43.32165" lon="-3.13242">
        <ele>69.6</ele>
        <time>2021-10-28 09:16:17</time>
      </trkpt>
      <trkpt lat="43.32165" lon="-3.13244">
        <ele>69.8</ele>
        <time>2021-10-28 09:16:18</time>
      </trkpt>
      <trkpt lat="43.32167" lon="-3.13246">
        <ele>70</ele>
        <time>2021-10-28 09:16:19</time>
      </trkpt>
      <trkpt lat="43.32168" lon="-3.13251">
        <ele>70.2</ele>
        <time>2021-10-28 09:16:20</time>
      </trkpt>
      <trkpt lat="43.32168" lon="-3.13251">
        <ele>70.6</ele>
        <time>2021-10-28 09:16:21</time>
      </trkpt>
      <trkpt lat="43.32168" lon="-3.13251">
        <ele>70.8</ele>
        <time>2021-10-28 09:16:22</time>
      </trkpt>
      <trkpt lat="43.32168" lon="-3.13251">
        <ele>71</ele>
        <time>2021-10-28 09:16:23</time>
      </trkpt>
      <trkpt lat="43.32165" lon="-3.13255">
        <ele>71.2</ele>
        <time>2021-10-28 09:16:24</time>
      </trkpt>
      <trkpt lat="43.32168" lon="-3.13258">
        <ele>71.4</ele>
        <time>2021-10-28 09:16:25</time>
      </trkpt>
      <trkpt lat="43.32168" lon="-3.13258">
        <ele>71.6</ele>
        <time>2021-10-28 09:16:26</time>
      </trkpt>
      <trkpt lat="43.32168" lon="-3.13258">
        <ele>71.8</ele>
        <time>2021-10-28 09:16:27</time>
      </trkpt>
      <trkpt lat="43.32169" lon="-3.13261">
        <ele>72</ele>
        <time>2021-10-28 09:16:28</time>
      </trkpt>
      <trkpt lat="43.32169" lon="-3.13265">
        <ele>72.2</ele>
        <time>2021-10-28 09:16:29</time>
      </trkpt>
      <trkpt lat="43.3217" lon="-3.13267">
        <ele>72.6</ele>
        <time>2021-10-28 09:16:30</time>
      </trkpt>
      <trkpt lat="43.3217" lon="-3.13267">
        <ele>72.8</ele>
        <time>2021-10-28 09:16:31</time>
      </trkpt>
      <trkpt lat="43.32171" lon="-3.13271">
        <ele>73</ele>
        <time>2021-10-28 09:16:32</time>
      </trkpt>
      <trkpt lat="43.3217" lon="-3.13272">
        <ele>73.4</ele>
        <time>2021-10-28 09:16:33</time>
      </trkpt>
      <trkpt lat="43.32171" lon="-3.13274">
        <ele>73.6</ele>
        <time>2021-10-28 09:16:34</time>
      </trkpt>
      <trkpt lat="43.32171" lon="-3.13274">
        <ele>73.8</ele>
        <time>2021-10-28 09:16:35</time>
      </trkpt>
      <trkpt lat="43.32173" lon="-3.13278">
        <ele>74</ele>
        <time>2021-10-28 09:16:36</time>
      </trkpt>
      <trkpt lat="43.32175" lon="-3.1328">
        <ele>74.4</ele>
        <time>2021-10-28 09:16:37</time>
      </trkpt>
      <trkpt lat="43.32175" lon="-3.1328">
        <ele>74.6</ele>
        <time>2021-10-28 09:16:38</time>
      </trkpt>
      <trkpt lat="43.32175" lon="-3.1328">
        <ele>74.8</ele>
        <time>2021-10-28 09:16:39</time>
      </trkpt>
      <trkpt lat="43.32173" lon="-3.13289">
        <ele>75.2</ele>
        <time>2021-10-28 09:16:40</time>
      </trkpt>
      <trkpt lat="43.32173" lon="-3.13291">
        <ele>75.6</ele>
        <time>2021-10-28 09:16:41</time>
      </trkpt>
      <trkpt lat="43.32172" lon="-3.13294">
        <ele>76.2</ele>
        <time>2021-10-28 09:16:42</time>
      </trkpt>
      <trkpt lat="43.32172" lon="-3.13294">
        <ele>76.8</ele>
        <time>2021-10-28 09:16:43</time>
      </trkpt>
      <trkpt lat="43.32173" lon="-3.13296">
        <ele>77.4</ele>
        <time>2021-10-28 09:16:44</time>
      </trkpt>
      <trkpt lat="43.32173" lon="-3.13296">
        <ele>77.8</ele>
        <time>2021-10-28 09:16:45</time>
      </trkpt>
      <trkpt lat="43.32174" lon="-3.13297">
        <ele>78.2</ele>
        <time>2021-10-28 09:16:46</time>
      </trkpt>
      <trkpt lat="43.32174" lon="-3.13299">
        <ele>78.4</ele>
        <time>2021-10-28 09:16:47</time>
      </trkpt>
      <trkpt lat="43.32174" lon="-3.13305">
        <ele>78.6</ele>
        <time>2021-10-28 09:16:48</time>
      </trkpt>
      <trkpt lat="43.32176" lon="-3.13308">
        <ele>78.8</ele>
        <time>2021-10-28 09:16:49</time>
      </trkpt>
      <trkpt lat="43.32176" lon="-3.13308">
        <ele>79</ele>
        <time>2021-10-28 09:16:50</time>
      </trkpt>
      <trkpt lat="43.32176" lon="-3.13308">
        <ele>79.2</ele>
        <time>2021-10-28 09:16:51</time>
      </trkpt>
      <trkpt lat="43.32175" lon="-3.13311">
        <ele>79.6</ele>
        <time>2021-10-28 09:16:52</time>
      </trkpt>
      <trkpt lat="43.32175" lon="-3.13313">
        <ele>79.8</ele>
        <time>2021-10-28 09:16:53</time>
      </trkpt>
      <trkpt lat="43.32176" lon="-3.13317">
        <ele>80</ele>
        <time>2021-10-28 09:16:54</time>
      </trkpt>
      <trkpt lat="43.32176" lon="-3.13317">
        <ele>80.2</ele>
        <time>2021-10-28 09:16:55</time>
      </trkpt>
      <trkpt lat="43.32176" lon="-3.13317">
        <ele>80.4</ele>
        <time>2021-10-28 09:16:56</time>
      </trkpt>
      <trkpt lat="43.32177" lon="-3.13319">
        <ele>80.4</ele>
        <time>2021-10-28 09:16:57</time>
      </trkpt>
      <trkpt lat="43.32175" lon="-3.13321">
        <ele>80.8</ele>
        <time>2021-10-28 09:16:58</time>
      </trkpt>
      <trkpt lat="43.32174" lon="-3.13322">
        <ele>81</ele>
        <time>2021-10-28 09:16:59</time>
      </trkpt>
      <trkpt lat="43.32176" lon="-3.13324">
        <ele>81.4</ele>
        <time>2021-10-28 09:17:00</time>
      </trkpt>
      <trkpt lat="43.32176" lon="-3.13328">
        <ele>81.8</ele>
        <time>2021-10-28 09:17:01</time>
      </trkpt>
      <trkpt lat="43.32176" lon="-3.13328">
        <ele>82.4</ele>
        <time>2021-10-28 09:17:02</time>
      </trkpt>
      <trkpt lat="43.32176" lon="-3.13328">
        <ele>82.8</ele>
        <time>2021-10-28 09:17:03</time>
      </trkpt>
      <trkpt lat="43.32174" lon="-3.13331">
        <ele>83</ele>
        <time>2021-10-28 09:17:04</time>
      </trkpt>
      <trkpt lat="43.32174" lon="-3.13333">
        <ele>83</ele>
        <time>2021-10-28 09:17:05</time>
      </trkpt>
      <trkpt lat="43.32173" lon="-3.13339">
        <ele>83</ele>
        <time>2021-10-28 09:17:06</time>
      </trkpt>
      <trkpt lat="43.32173" lon="-3.13339">
        <ele>83</ele>
        <time>2021-10-28 09:17:07</time>
      </trkpt>
      <trkpt lat="43.32173" lon="-3.13339">
        <ele>83</ele>
        <time>2021-10-28 09:17:08</time>
      </trkpt>
      <trkpt lat="43.32172" lon="-3.1334">
        <ele>83</ele>
        <time>2021-10-28 09:17:09</time>
      </trkpt>
      <trkpt lat="43.32173" lon="-3.13342">
        <ele>83.2</ele>
        <time>2021-10-28 09:17:10</time>
      </trkpt>
      <trkpt lat="43.32174" lon="-3.13344">
        <ele>83.2</ele>
        <time>2021-10-28 09:17:11</time>
      </trkpt>
      <trkpt lat="43.32174" lon="-3.13351">
        <ele>83.4</ele>
        <time>2021-10-28 09:17:12</time>
      </trkpt>
      <trkpt lat="43.32174" lon="-3.13351">
        <ele>83.6</ele>
        <time>2021-10-28 09:17:13</time>
      </trkpt>
      <trkpt lat="43.32174" lon="-3.13355">
        <ele>83.6</ele>
        <time>2021-10-28 09:17:14</time>
      </trkpt>
      <trkpt lat="43.32174" lon="-3.13355">
        <ele>83.8</ele>
        <time>2021-10-28 09:17:15</time>
      </trkpt>
      <trkpt lat="43.32175" lon="-3.13356">
        <ele>84.2</ele>
        <time>2021-10-28 09:17:16</time>
      </trkpt>
      <trkpt lat="43.32178" lon="-3.13359">
        <ele>84.4</ele>
        <time>2021-10-28 09:17:17</time>
      </trkpt>
      <trkpt lat="43.3218" lon="-3.1336">
        <ele>84.8</ele>
        <time>2021-10-28 09:17:18</time>
      </trkpt>
      <trkpt lat="43.3218" lon="-3.1336">
        <ele>84.8</ele>
        <time>2021-10-28 09:17:19</time>
      </trkpt>
      <trkpt lat="43.3218" lon="-3.13363">
        <ele>85</ele>
        <time>2021-10-28 09:17:20</time>
      </trkpt>
      <trkpt lat="43.3218" lon="-3.13366">
        <ele>85</ele>
        <time>2021-10-28 09:17:21</time>
      </trkpt>
      <trkpt lat="43.3218" lon="-3.13366">
        <ele>85</ele>
        <time>2021-10-28 09:17:22</time>
      </trkpt>
      <trkpt lat="43.32181" lon="-3.13368">
        <ele>85</ele>
        <time>2021-10-28 09:17:23</time>
      </trkpt>
      <trkpt lat="43.32181" lon="-3.13368">
        <ele>85</ele>
        <time>2021-10-28 09:17:24</time>
      </trkpt>
      <trkpt lat="43.32181" lon="-3.13368">
        <ele>85</ele>
        <time>2021-10-28 09:17:25</time>
      </trkpt>
      <trkpt lat="43.32181" lon="-3.13368">
        <ele>85.2</ele>
        <time>2021-10-28 09:17:26</time>
      </trkpt>
      <trkpt lat="43.32183" lon="-3.13368">
        <ele>85.6</ele>
        <time>2021-10-28 09:17:27</time>
      </trkpt>
      <trkpt lat="43.32183" lon="-3.13368">
        <ele>86.2</ele>
        <time>2021-10-28 09:17:28</time>
      </trkpt>
      <trkpt lat="43.32182" lon="-3.1337">
        <ele>87</ele>
        <time>2021-10-28 09:17:29</time>
      </trkpt>
      <trkpt lat="43.3218" lon="-3.1338">
        <ele>87.4</ele>
        <time>2021-10-28 09:17:30</time>
      </trkpt>
      <trkpt lat="43.3218" lon="-3.1338">
        <ele>87.6</ele>
        <time>2021-10-28 09:17:31</time>
      </trkpt>
      <trkpt lat="43.3218" lon="-3.1338">
        <ele>88</ele>
        <time>2021-10-28 09:17:32</time>
      </trkpt>
      <trkpt lat="43.32179" lon="-3.13384">
        <ele>88.4</ele>
        <time>2021-10-28 09:17:33</time>
      </trkpt>
      <trkpt lat="43.32181" lon="-3.13383">
        <ele>88.6</ele>
        <time>2021-10-28 09:17:34</time>
      </trkpt>
      <trkpt lat="43.32181" lon="-3.13393">
        <ele>89</ele>
        <time>2021-10-28 09:17:35</time>
      </trkpt>
      <trkpt lat="43.32181" lon="-3.13393">
        <ele>89.2</ele>
        <time>2021-10-28 09:17:36</time>
      </trkpt>
      <trkpt lat="43.32181" lon="-3.13393">
        <ele>89.6</ele>
        <time>2021-10-28 09:17:37</time>
      </trkpt>
      <trkpt lat="43.32181" lon="-3.13395">
        <ele>89.8</ele>
        <time>2021-10-28 09:17:38</time>
      </trkpt>
      <trkpt lat="43.3218" lon="-3.13396">
        <ele>90.2</ele>
        <time>2021-10-28 09:17:39</time>
      </trkpt>
      <trkpt lat="43.3218" lon="-3.13396">
        <ele>90.4</ele>
        <time>2021-10-28 09:17:40</time>
      </trkpt>
      <trkpt lat="43.3218" lon="-3.13396">
        <ele>90.6</ele>
        <time>2021-10-28 09:17:41</time>
      </trkpt>
      <trkpt lat="43.32181" lon="-3.134">
        <ele>90.8</ele>
        <time>2021-10-28 09:17:42</time>
      </trkpt>
      <trkpt lat="43.32181" lon="-3.134">
        <ele>91.2</ele>
        <time>2021-10-28 09:17:43</time>
      </trkpt>
      <trkpt lat="43.32181" lon="-3.134">
        <ele>91.4</ele>
        <time>2021-10-28 09:17:44</time>
      </trkpt>
      <trkpt lat="43.32178" lon="-3.13401">
        <ele>91.8</ele>
        <time>2021-10-28 09:17:45</time>
      </trkpt>
      <trkpt lat="43.32178" lon="-3.13401">
        <ele>92</ele>
        <time>2021-10-28 09:17:46</time>
      </trkpt>
      <trkpt lat="43.32169" lon="-3.13402">
        <ele>92.2</ele>
        <time>2021-10-28 09:17:47</time>
      </trkpt>
      <trkpt lat="43.32169" lon="-3.13402">
        <ele>92.4</ele>
        <time>2021-10-28 09:17:48</time>
      </trkpt>
      <trkpt lat="43.32169" lon="-3.13402">
        <ele>92.6</ele>
        <time>2021-10-28 09:17:49</time>
      </trkpt>
      <trkpt lat="43.32168" lon="-3.13404">
        <ele>92.8</ele>
        <time>2021-10-28 09:17:50</time>
      </trkpt>
      <trkpt lat="43.32167" lon="-3.13406">
        <ele>93</ele>
        <time>2021-10-28 09:17:51</time>
      </trkpt>
      <trkpt lat="43.32167" lon="-3.13406">
        <ele>93.2</ele>
        <time>2021-10-28 09:17:52</time>
      </trkpt>
      <trkpt lat="43.32166" lon="-3.13407">
        <ele>93.4</ele>
        <time>2021-10-28 09:17:53</time>
      </trkpt>
      <trkpt lat="43.32164" lon="-3.13403">
        <ele>93.8</ele>
        <time>2021-10-28 09:17:54</time>
      </trkpt>
      <trkpt lat="43.32164" lon="-3.13403">
        <ele>94.2</ele>
        <time>2021-10-28 09:17:55</time>
      </trkpt>
      <trkpt lat="43.32164" lon="-3.13403">
        <ele>94.4</ele>
        <time>2021-10-28 09:17:56</time>
      </trkpt>
      <trkpt lat="43.32159" lon="-3.13407">
        <ele>94.8</ele>
        <time>2021-10-28 09:17:57</time>
      </trkpt>
      <trkpt lat="43.32159" lon="-3.13407">
        <ele>95</ele>
        <time>2021-10-28 09:17:58</time>
      </trkpt>
      <trkpt lat="43.32159" lon="-3.13403">
        <ele>95.4</ele>
        <time>2021-10-28 09:17:59</time>
      </trkpt>
      <trkpt lat="43.32159" lon="-3.13403">
        <ele>95.8</ele>
        <time>2021-10-28 09:18:00</time>
      </trkpt>
      <trkpt lat="43.32158" lon="-3.13404">
        <ele>96</ele>
        <time>2021-10-28 09:18:01</time>
      </trkpt>
      <trkpt lat="43.32158" lon="-3.13404">
        <ele>96.2</ele>
        <time>2021-10-28 09:18:02</time>
      </trkpt>
      <trkpt lat="43.32158" lon="-3.13404">
        <ele>96.2</ele>
        <time>2021-10-28 09:18:03</time>
      </trkpt>
      <trkpt lat="43.32149" lon="-3.1341">
        <ele>96.4</ele>
        <time>2021-10-28 09:18:04</time>
      </trkpt>
      <trkpt lat="43.32149" lon="-3.1341">
        <ele>96.8</ele>
        <time>2021-10-28 09:18:05</time>
      </trkpt>
      <trkpt lat="43.32149" lon="-3.1341">
        <ele>97</ele>
        <time>2021-10-28 09:18:06</time>
      </trkpt>
      <trkpt lat="43.32149" lon="-3.13408">
        <ele>97</ele>
        <time>2021-10-28 09:18:07</time>
      </trkpt>
      <trkpt lat="43.32149" lon="-3.13408">
        <ele>97.2</ele>
        <time>2021-10-28 09:18:08</time>
      </trkpt>
      <trkpt lat="43.32149" lon="-3.13407">
        <ele>97.2</ele>
        <time>2021-10-28 09:18:09</time>
      </trkpt>
      <trkpt lat="43.32149" lon="-3.13407">
        <ele>97.4</ele>
        <time>2021-10-28 09:18:10</time>
      </trkpt>
      <trkpt lat="43.32142" lon="-3.13412">
        <ele>97.4</ele>
        <time>2021-10-28 09:18:11</time>
      </trkpt>
      <trkpt lat="43.32142" lon="-3.13412">
        <ele>97.8</ele>
        <time>2021-10-28 09:18:12</time>
      </trkpt>
      <trkpt lat="43.32142" lon="-3.13412">
        <ele>98</ele>
        <time>2021-10-28 09:18:13</time>
      </trkpt>
      <trkpt lat="43.32141" lon="-3.13415">
        <ele>98</ele>
        <time>2021-10-28 09:18:14</time>
      </trkpt>
      <trkpt lat="43.32141" lon="-3.13415">
        <ele>98.2</ele>
        <time>2021-10-28 09:18:15</time>
      </trkpt>
      <trkpt lat="43.32133" lon="-3.1342">
        <ele>98.4</ele>
        <time>2021-10-28 09:18:16</time>
      </trkpt>
      <trkpt lat="43.32133" lon="-3.1342">
        <ele>98.8</ele>
        <time>2021-10-28 09:18:17</time>
      </trkpt>
      <trkpt lat="43.32133" lon="-3.1342">
        <ele>99</ele>
        <time>2021-10-28 09:18:18</time>
      </trkpt>
      <trkpt lat="43.32131" lon="-3.13423">
        <ele>99.2</ele>
        <time>2021-10-28 09:18:19</time>
      </trkpt>
      <trkpt lat="43.3213" lon="-3.1342">
        <ele>99.4</ele>
        <time>2021-10-28 09:18:20</time>
      </trkpt>
      <trkpt lat="43.3213" lon="-3.1342">
        <ele>99.6</ele>
        <time>2021-10-28 09:18:21</time>
      </trkpt>
      <trkpt lat="43.32126" lon="-3.13423">
        <ele>100</ele>
        <time>2021-10-28 09:18:22</time>
      </trkpt>
      <trkpt lat="43.32123" lon="-3.13424">
        <ele>100.2</ele>
        <time>2021-10-28 09:18:23</time>
      </trkpt>
      <trkpt lat="43.32123" lon="-3.13424">
        <ele>100.4</ele>
        <time>2021-10-28 09:18:24</time>
      </trkpt>
      <trkpt lat="43.32123" lon="-3.13424">
        <ele>100.6</ele>
        <time>2021-10-28 09:18:25</time>
      </trkpt>
      <trkpt lat="43.32122" lon="-3.13424">
        <ele>100.8</ele>
        <time>2021-10-28 09:18:26</time>
      </trkpt>
      <trkpt lat="43.32122" lon="-3.13424">
        <ele>100.8</ele>
        <time>2021-10-28 09:18:27</time>
      </trkpt>
      <trkpt lat="43.32119" lon="-3.13428">
        <ele>101</ele>
        <time>2021-10-28 09:18:28</time>
      </trkpt>
      <trkpt lat="43.32119" lon="-3.13428">
        <ele>101.4</ele>
        <time>2021-10-28 09:18:29</time>
      </trkpt>
      <trkpt lat="43.32119" lon="-3.13428">
        <ele>101.4</ele>
        <time>2021-10-28 09:18:30</time>
      </trkpt>
      <trkpt lat="43.32116" lon="-3.13428">
        <ele>101.6</ele>
        <time>2021-10-28 09:18:31</time>
      </trkpt>
      <trkpt lat="43.32116" lon="-3.13428">
        <ele>101.6</ele>
        <time>2021-10-28 09:18:32</time>
      </trkpt>
      <trkpt lat="43.32114" lon="-3.13428">
        <ele>101.6</ele>
        <time>2021-10-28 09:18:33</time>
      </trkpt>
      <trkpt lat="43.32114" lon="-3.13428">
        <ele>101.8</ele>
        <time>2021-10-28 09:18:34</time>
      </trkpt>
      <trkpt lat="43.32114" lon="-3.13428">
        <ele>102.2</ele>
        <time>2021-10-28 09:18:35</time>
      </trkpt>
      <trkpt lat="43.32112" lon="-3.1343">
        <ele>102.4</ele>
        <time>2021-10-28 09:18:36</time>
      </trkpt>
      <trkpt lat="43.32112" lon="-3.1343">
        <ele>102.6</ele>
        <time>2021-10-28 09:18:37</time>
      </trkpt>
      <trkpt lat="43.3211" lon="-3.13429">
        <ele>102.8</ele>
        <time>2021-10-28 09:18:38</time>
      </trkpt>
      <trkpt lat="43.3211" lon="-3.13429">
        <ele>103.2</ele>
        <time>2021-10-28 09:18:39</time>
      </trkpt>
      <trkpt lat="43.32107" lon="-3.13425">
        <ele>103.4</ele>
        <time>2021-10-28 09:18:40</time>
      </trkpt>
      <trkpt lat="43.32107" lon="-3.13425">
        <ele>103.6</ele>
        <time>2021-10-28 09:18:41</time>
      </trkpt>
      <trkpt lat="43.32107" lon="-3.13425">
        <ele>103.8</ele>
        <time>2021-10-28 09:18:42</time>
      </trkpt>
      <trkpt lat="43.32106" lon="-3.13424">
        <ele>104</ele>
        <time>2021-10-28 09:18:43</time>
      </trkpt>
      <trkpt lat="43.32104" lon="-3.13422">
        <ele>104</ele>
        <time>2021-10-28 09:18:44</time>
      </trkpt>
      <trkpt lat="43.321" lon="-3.13418">
        <ele>104</ele>
        <time>2021-10-28 09:18:45</time>
      </trkpt>
      <trkpt lat="43.321" lon="-3.13418">
        <ele>104.2</ele>
        <time>2021-10-28 09:18:46</time>
      </trkpt>
      <trkpt lat="43.321" lon="-3.13418">
        <ele>104.2</ele>
        <time>2021-10-28 09:18:47</time>
      </trkpt>
      <trkpt lat="43.32095" lon="-3.13418">
        <ele>104.4</ele>
        <time>2021-10-28 09:18:48</time>
      </trkpt>
      <trkpt lat="43.32095" lon="-3.13418">
        <ele>104.6</ele>
        <time>2021-10-28 09:18:49</time>
      </trkpt>
      <trkpt lat="43.32086" lon="-3.13418">
        <ele>104.8</ele>
        <time>2021-10-28 09:18:50</time>
      </trkpt>
      <trkpt lat="43.32086" lon="-3.13418">
        <ele>105</ele>
        <time>2021-10-28 09:18:51</time>
      </trkpt>
      <trkpt lat="43.32084" lon="-3.13421">
        <ele>105.2</ele>
        <time>2021-10-28 09:18:52</time>
      </trkpt>
      <trkpt lat="43.32084" lon="-3.13421">
        <ele>105.4</ele>
        <time>2021-10-28 09:18:53</time>
      </trkpt>
      <trkpt lat="43.32077" lon="-3.13423">
        <ele>105.6</ele>
        <time>2021-10-28 09:18:54</time>
      </trkpt>
      <trkpt lat="43.32077" lon="-3.13423">
        <ele>105.8</ele>
        <time>2021-10-28 09:18:55</time>
      </trkpt>
      <trkpt lat="43.32076" lon="-3.13423">
        <ele>106</ele>
        <time>2021-10-28 09:18:56</time>
      </trkpt>
      <trkpt lat="43.32075" lon="-3.13423">
        <ele>106</ele>
        <time>2021-10-28 09:18:57</time>
      </trkpt>
      <trkpt lat="43.32075" lon="-3.13423">
        <ele>106.2</ele>
        <time>2021-10-28 09:18:58</time>
      </trkpt>
      <trkpt lat="43.32075" lon="-3.13423">
        <ele>106.2</ele>
        <time>2021-10-28 09:18:59</time>
      </trkpt>
      <trkpt lat="43.32075" lon="-3.13423">
        <ele>106.2</ele>
        <time>2021-10-28 09:19:00</time>
      </trkpt>
      <trkpt lat="43.3207" lon="-3.13423">
        <ele>106.4</ele>
        <time>2021-10-28 09:19:01</time>
      </trkpt>
      <trkpt lat="43.32066" lon="-3.13425">
        <ele>106.4</ele>
        <time>2021-10-28 09:19:02</time>
      </trkpt>
      <trkpt lat="43.32066" lon="-3.13425">
        <ele>106.8</ele>
        <time>2021-10-28 09:19:03</time>
      </trkpt>
      <trkpt lat="43.32066" lon="-3.13425">
        <ele>106.8</ele>
        <time>2021-10-28 09:19:04</time>
      </trkpt>
      <trkpt lat="43.32064" lon="-3.13425">
        <ele>107</ele>
        <time>2021-10-28 09:19:05</time>
      </trkpt>
      <trkpt lat="43.3206" lon="-3.13422">
        <ele>107</ele>
        <time>2021-10-28 09:19:06</time>
      </trkpt>
      <trkpt lat="43.32058" lon="-3.13418">
        <ele>107.2</ele>
        <time>2021-10-28 09:19:07</time>
      </trkpt>
      <trkpt lat="43.32058" lon="-3.13418">
        <ele>107.4</ele>
        <time>2021-10-28 09:19:08</time>
      </trkpt>
      <trkpt lat="43.32056" lon="-3.13416">
        <ele>107.4</ele>
        <time>2021-10-28 09:19:09</time>
      </trkpt>
      <trkpt lat="43.32054" lon="-3.13413">
        <ele>107.6</ele>
        <time>2021-10-28 09:19:10</time>
      </trkpt>
      <trkpt lat="43.32054" lon="-3.13413">
        <ele>107.8</ele>
        <time>2021-10-28 09:19:11</time>
      </trkpt>
      <trkpt lat="43.3205" lon="-3.13413">
        <ele>107.8</ele>
        <time>2021-10-28 09:19:12</time>
      </trkpt>
      <trkpt lat="43.3205" lon="-3.13413">
        <ele>108</ele>
        <time>2021-10-28 09:19:13</time>
      </trkpt>
      <trkpt lat="43.32046" lon="-3.13413">
        <ele>108</ele>
        <time>2021-10-28 09:19:14</time>
      </trkpt>
      <trkpt lat="43.32046" lon="-3.13413">
        <ele>108.2</ele>
        <time>2021-10-28 09:19:15</time>
      </trkpt>
      <trkpt lat="43.32046" lon="-3.13413">
        <ele>108.6</ele>
        <time>2021-10-28 09:19:16</time>
      </trkpt>
      <trkpt lat="43.32046" lon="-3.13415">
        <ele>108.8</ele>
        <time>2021-10-28 09:19:17</time>
      </trkpt>
      <trkpt lat="43.32046" lon="-3.13415">
        <ele>109</ele>
        <time>2021-10-28 09:19:18</time>
      </trkpt>
      <trkpt lat="43.32042" lon="-3.13417">
        <ele>109.4</ele>
        <time>2021-10-28 09:19:19</time>
      </trkpt>
      <trkpt lat="43.32042" lon="-3.13417">
        <ele>109.8</ele>
        <time>2021-10-28 09:19:20</time>
      </trkpt>
      <trkpt lat="43.32042" lon="-3.13417">
        <ele>110</ele>
        <time>2021-10-28 09:19:21</time>
      </trkpt>
      <trkpt lat="43.32041" lon="-3.13417">
        <ele>110.2</ele>
        <time>2021-10-28 09:19:22</time>
      </trkpt>
      <trkpt lat="43.32041" lon="-3.13417">
        <ele>110.2</ele>
        <time>2021-10-28 09:19:23</time>
      </trkpt>
      <trkpt lat="43.32038" lon="-3.13416">
        <ele>111.8</ele>
        <time>2021-10-28 09:19:24</time>
      </trkpt>
      <trkpt lat="43.32034" lon="-3.13417">
        <ele>112</ele>
        <time>2021-10-28 09:19:25</time>
      </trkpt>
      <trkpt lat="43.32031" lon="-3.13418">
        <ele>112.2</ele>
        <time>2021-10-28 09:19:26</time>
      </trkpt>
      <trkpt lat="43.32031" lon="-3.13418">
        <ele>112.2</ele>
        <time>2021-10-28 09:19:27</time>
      </trkpt>
      <trkpt lat="43.32031" lon="-3.13418">
        <ele>112.2</ele>
        <time>2021-10-28 09:19:28</time>
      </trkpt>
      <trkpt lat="43.32028" lon="-3.13418">
        <ele>112.2</ele>
        <time>2021-10-28 09:19:29</time>
      </trkpt>
      <trkpt lat="43.32028" lon="-3.13418">
        <ele>112.2</ele>
        <time>2021-10-28 09:19:30</time>
      </trkpt>
      <trkpt lat="43.32019" lon="-3.13421">
        <ele>112.2</ele>
        <time>2021-10-28 09:19:31</time>
      </trkpt>
      <trkpt lat="43.32019" lon="-3.13421">
        <ele>112.4</ele>
        <time>2021-10-28 09:19:32</time>
      </trkpt>
      <trkpt lat="43.32019" lon="-3.13421">
        <ele>112.4</ele>
        <time>2021-10-28 09:19:33</time>
      </trkpt>
      <trkpt lat="43.32013" lon="-3.13422">
        <ele>112.4</ele>
        <time>2021-10-28 09:19:39</time>
      </trkpt>
      <trkpt lat="43.32013" lon="-3.13422">
        <ele>112.6</ele>
        <time>2021-10-28 09:19:40</time>
      </trkpt>
      <trkpt lat="43.32011" lon="-3.13421">
        <ele>112.8</ele>
        <time>2021-10-28 09:19:41</time>
      </trkpt>
      <trkpt lat="43.32011" lon="-3.13421">
        <ele>113</ele>
        <time>2021-10-28 09:19:42</time>
      </trkpt>
      <trkpt lat="43.32011" lon="-3.13421">
        <ele>113.2</ele>
        <time>2021-10-28 09:19:43</time>
      </trkpt>
      <trkpt lat="43.32009" lon="-3.13416">
        <ele>113.4</ele>
        <time>2021-10-28 09:19:44</time>
      </trkpt>
      <trkpt lat="43.32008" lon="-3.13415">
        <ele>113.6</ele>
        <time>2021-10-28 09:19:45</time>
      </trkpt>
      <trkpt lat="43.32005" lon="-3.13412">
        <ele>114</ele>
        <time>2021-10-28 09:19:46</time>
      </trkpt>
      <trkpt lat="43.32005" lon="-3.13412">
        <ele>114.6</ele>
        <time>2021-10-28 09:19:47</time>
      </trkpt>
      <trkpt lat="43.32001" lon="-3.13411">
        <ele>115</ele>
        <time>2021-10-28 09:19:48</time>
      </trkpt>
      <trkpt lat="43.32001" lon="-3.13411">
        <ele>115.4</ele>
        <time>2021-10-28 09:19:49</time>
      </trkpt>
      <trkpt lat="43.32001" lon="-3.13411">
        <ele>115.6</ele>
        <time>2021-10-28 09:19:50</time>
      </trkpt>
      <trkpt lat="43.31998" lon="-3.13412">
        <ele>115.8</ele>
        <time>2021-10-28 09:19:51</time>
      </trkpt>
      <trkpt lat="43.31998" lon="-3.13414">
        <ele>116</ele>
        <time>2021-10-28 09:19:52</time>
      </trkpt>
      <trkpt lat="43.31992" lon="-3.13414">
        <ele>116.2</ele>
        <time>2021-10-28 09:19:53</time>
      </trkpt>
      <trkpt lat="43.31992" lon="-3.13414">
        <ele>116.4</ele>
        <time>2021-10-28 09:19:54</time>
      </trkpt>
      <trkpt lat="43.31992" lon="-3.13414">
        <ele>116.6</ele>
        <time>2021-10-28 09:19:55</time>
      </trkpt>
      <trkpt lat="43.31991" lon="-3.13414">
        <ele>116.6</ele>
        <time>2021-10-28 09:19:56</time>
      </trkpt>
      <trkpt lat="43.31988" lon="-3.13414">
        <ele>116.8</ele>
        <time>2021-10-28 09:19:57</time>
      </trkpt>
      <trkpt lat="43.31976" lon="-3.13413">
        <ele>118.6</ele>
        <time>2021-10-28 09:19:58</time>
      </trkpt>
      <trkpt lat="43.31975" lon="-3.13413">
        <ele>118.8</ele>
        <time>2021-10-28 09:19:59</time>
      </trkpt>
      <trkpt lat="43.31974" lon="-3.13412">
        <ele>119</ele>
        <time>2021-10-28 09:20:00</time>
      </trkpt>
      <trkpt lat="43.3197" lon="-3.13411">
        <ele>119.4</ele>
        <time>2021-10-28 09:20:01</time>
      </trkpt>
      <trkpt lat="43.3197" lon="-3.13411">
        <ele>119.8</ele>
        <time>2021-10-28 09:20:02</time>
      </trkpt>
      <trkpt lat="43.31969" lon="-3.1341">
        <ele>120</ele>
        <time>2021-10-28 09:20:03</time>
      </trkpt>
      <trkpt lat="43.31969" lon="-3.1341">
        <ele>120.4</ele>
        <time>2021-10-28 09:20:04</time>
      </trkpt>
      <trkpt lat="43.31967" lon="-3.1341">
        <ele>120.6</ele>
        <time>2021-10-28 09:20:05</time>
      </trkpt>
      <trkpt lat="43.31962" lon="-3.1341">
        <ele>120.8</ele>
        <time>2021-10-28 09:20:06</time>
      </trkpt>
      <trkpt lat="43.31962" lon="-3.1341">
        <ele>121</ele>
        <time>2021-10-28 09:20:07</time>
      </trkpt>
      <trkpt lat="43.31962" lon="-3.1341">
        <ele>121</ele>
        <time>2021-10-28 09:20:17</time>
      </trkpt>
      <trkpt lat="43.31961" lon="-3.13409">
        <ele>121.2</ele>
        <time>2021-10-28 09:20:18</time>
      </trkpt>
      <trkpt lat="43.31959" lon="-3.13409">
        <ele>121.4</ele>
        <time>2021-10-28 09:20:19</time>
      </trkpt>
      <trkpt lat="43.31959" lon="-3.13409">
        <ele>121.6</ele>
        <time>2021-10-28 09:20:20</time>
      </trkpt>
      <trkpt lat="43.31958" lon="-3.13408">
        <ele>122</ele>
        <time>2021-10-28 09:20:21</time>
      </trkpt>
      <trkpt lat="43.31956" lon="-3.13406">
        <ele>122.4</ele>
        <time>2021-10-28 09:20:22</time>
      </trkpt>
      <trkpt lat="43.31956" lon="-3.13406">
        <ele>122.8</ele>
        <time>2021-10-28 09:20:23</time>
      </trkpt>
      <trkpt lat="43.31956" lon="-3.13406">
        <ele>123</ele>
        <time>2021-10-28 09:20:24</time>
      </trkpt>
      <trkpt lat="43.31955" lon="-3.13405">
        <ele>123</ele>
        <time>2021-10-28 09:20:25</time>
      </trkpt>
      <trkpt lat="43.31952" lon="-3.13407">
        <ele>123.2</ele>
        <time>2021-10-28 09:20:26</time>
      </trkpt>
      <trkpt lat="43.31949" lon="-3.13405">
        <ele>123.2</ele>
        <time>2021-10-28 09:20:27</time>
      </trkpt>
      <trkpt lat="43.31949" lon="-3.13405">
        <ele>123.4</ele>
        <time>2021-10-28 09:20:28</time>
      </trkpt>
      <trkpt lat="43.31949" lon="-3.13405">
        <ele>123.6</ele>
        <time>2021-10-28 09:20:29</time>
      </trkpt>
      <trkpt lat="43.31948" lon="-3.13403">
        <ele>124</ele>
        <time>2021-10-28 09:20:30</time>
      </trkpt>
      <trkpt lat="43.31947" lon="-3.13402">
        <ele>124.2</ele>
        <time>2021-10-28 09:20:31</time>
      </trkpt>
      <trkpt lat="43.31943" lon="-3.13401">
        <ele>124.4</ele>
        <time>2021-10-28 09:20:32</time>
      </trkpt>
      <trkpt lat="43.31943" lon="-3.13401">
        <ele>124.6</ele>
        <time>2021-10-28 09:20:33</time>
      </trkpt>
      <trkpt lat="43.31943" lon="-3.13401">
        <ele>124.8</ele>
        <time>2021-10-28 09:20:34</time>
      </trkpt>
      <trkpt lat="43.31942" lon="-3.13404">
        <ele>125</ele>
        <time>2021-10-28 09:20:35</time>
      </trkpt>
      <trkpt lat="43.31939" lon="-3.13398">
        <ele>125.2</ele>
        <time>2021-10-28 09:20:36</time>
      </trkpt>
      <trkpt lat="43.31938" lon="-3.13398">
        <ele>125.4</ele>
        <time>2021-10-28 09:20:37</time>
      </trkpt>
      <trkpt lat="43.31933" lon="-3.13397">
        <ele>125.4</ele>
        <time>2021-10-28 09:20:38</time>
      </trkpt>
      <trkpt lat="43.31925" lon="-3.13394">
        <ele>125.6</ele>
        <time>2021-10-28 09:20:39</time>
      </trkpt>
      <trkpt lat="43.31925" lon="-3.13394">
        <ele>125.8</ele>
        <time>2021-10-28 09:20:40</time>
      </trkpt>
      <trkpt lat="43.31923" lon="-3.13391">
        <ele>126</ele>
        <time>2021-10-28 09:20:41</time>
      </trkpt>
      <trkpt lat="43.31925" lon="-3.1339">
        <ele>126.4</ele>
        <time>2021-10-28 09:20:42</time>
      </trkpt>
      <trkpt lat="43.31925" lon="-3.1339">
        <ele>126.6</ele>
        <time>2021-10-28 09:20:43</time>
      </trkpt>
      <trkpt lat="43.31923" lon="-3.13387">
        <ele>126.8</ele>
        <time>2021-10-28 09:20:44</time>
      </trkpt>
      <trkpt lat="43.31923" lon="-3.13387">
        <ele>127.2</ele>
        <time>2021-10-28 09:20:45</time>
      </trkpt>
      <trkpt lat="43.31923" lon="-3.13387">
        <ele>127.4</ele>
        <time>2021-10-28 09:20:46</time>
      </trkpt>
      <trkpt lat="43.31921" lon="-3.13388">
        <ele>127.6</ele>
        <time>2021-10-28 09:20:47</time>
      </trkpt>
      <trkpt lat="43.31921" lon="-3.13388">
        <ele>127.8</ele>
        <time>2021-10-28 09:20:48</time>
      </trkpt>
      <trkpt lat="43.31917" lon="-3.13387">
        <ele>128</ele>
        <time>2021-10-28 09:20:49</time>
      </trkpt>
      <trkpt lat="43.31917" lon="-3.13387">
        <ele>128.2</ele>
        <time>2021-10-28 09:20:50</time>
      </trkpt>
      <trkpt lat="43.31913" lon="-3.13384">
        <ele>128.2</ele>
        <time>2021-10-28 09:20:51</time>
      </trkpt>
      <trkpt lat="43.31913" lon="-3.13384">
        <ele>128.4</ele>
        <time>2021-10-28 09:20:52</time>
      </trkpt>
      <trkpt lat="43.31912" lon="-3.13381">
        <ele>128.4</ele>
        <time>2021-10-28 09:20:53</time>
      </trkpt>
      <trkpt lat="43.31912" lon="-3.13381">
        <ele>128.6</ele>
        <time>2021-10-28 09:20:54</time>
      </trkpt>
      <trkpt lat="43.31908" lon="-3.13379">
        <ele>128.8</ele>
        <time>2021-10-28 09:20:55</time>
      </trkpt>
      <trkpt lat="43.31906" lon="-3.13379">
        <ele>129.2</ele>
        <time>2021-10-28 09:20:56</time>
      </trkpt>
      <trkpt lat="43.31906" lon="-3.13379">
        <ele>129.4</ele>
        <time>2021-10-28 09:20:57</time>
      </trkpt>
      <trkpt lat="43.31906" lon="-3.13379">
        <ele>129.4</ele>
        <time>2021-10-28 09:20:58</time>
      </trkpt>
      <trkpt lat="43.31903" lon="-3.13375">
        <ele>129.4</ele>
        <time>2021-10-28 09:20:59</time>
      </trkpt>
      <trkpt lat="43.31903" lon="-3.13375">
        <ele>129.6</ele>
        <time>2021-10-28 09:21:00</time>
      </trkpt>
      <trkpt lat="43.31899" lon="-3.13375">
        <ele>129.8</ele>
        <time>2021-10-28 09:21:01</time>
      </trkpt>
      <trkpt lat="43.31899" lon="-3.13375">
        <ele>130</ele>
        <time>2021-10-28 09:21:02</time>
      </trkpt>
      <trkpt lat="43.31894" lon="-3.13377">
        <ele>130.4</ele>
        <time>2021-10-28 09:21:03</time>
      </trkpt>
      <trkpt lat="43.31894" lon="-3.13377">
        <ele>130.6</ele>
        <time>2021-10-28 09:21:04</time>
      </trkpt>
      <trkpt lat="43.31891" lon="-3.13374">
        <ele>130.8</ele>
        <time>2021-10-28 09:21:05</time>
      </trkpt>
      <trkpt lat="43.31889" lon="-3.13375">
        <ele>130.8</ele>
        <time>2021-10-28 09:21:06</time>
      </trkpt>
      <trkpt lat="43.31889" lon="-3.13375">
        <ele>131</ele>
        <time>2021-10-28 09:21:07</time>
      </trkpt>
      <trkpt lat="43.31889" lon="-3.13375">
        <ele>131</ele>
        <time>2021-10-28 09:21:08</time>
      </trkpt>
      <trkpt lat="43.31887" lon="-3.1337">
        <ele>131.2</ele>
        <time>2021-10-28 09:21:09</time>
      </trkpt>
      <trkpt lat="43.31887" lon="-3.1337">
        <ele>131.4</ele>
        <time>2021-10-28 09:21:10</time>
      </trkpt>
      <trkpt lat="43.31886" lon="-3.1337">
        <ele>131.4</ele>
        <time>2021-10-28 09:21:11</time>
      </trkpt>
      <trkpt lat="43.31886" lon="-3.1337">
        <ele>131.4</ele>
        <time>2021-10-28 09:21:12</time>
      </trkpt>
      <trkpt lat="43.31882" lon="-3.1336">
        <ele>131.4</ele>
        <time>2021-10-28 09:21:13</time>
      </trkpt>
      <trkpt lat="43.31882" lon="-3.1336">
        <ele>131.6</ele>
        <time>2021-10-28 09:21:14</time>
      </trkpt>
      <trkpt lat="43.31882" lon="-3.1336">
        <ele>131.8</ele>
        <time>2021-10-28 09:21:15</time>
      </trkpt>
      <trkpt lat="43.31879" lon="-3.13358">
        <ele>132.2</ele>
        <time>2021-10-28 09:21:16</time>
      </trkpt>
      <trkpt lat="43.31879" lon="-3.13358">
        <ele>132.4</ele>
        <time>2021-10-28 09:21:17</time>
      </trkpt>
      <trkpt lat="43.31874" lon="-3.13354">
        <ele>132.6</ele>
        <time>2021-10-28 09:21:18</time>
      </trkpt>
      <trkpt lat="43.31874" lon="-3.13354">
        <ele>132.8</ele>
        <time>2021-10-28 09:21:19</time>
      </trkpt>
      <trkpt lat="43.31874" lon="-3.13354">
        <ele>133.2</ele>
        <time>2021-10-28 09:21:20</time>
      </trkpt>
      <trkpt lat="43.31874" lon="-3.13354">
        <ele>133.6</ele>
        <time>2021-10-28 09:21:21</time>
      </trkpt>
      <trkpt lat="43.31872" lon="-3.13352">
        <ele>134</ele>
        <time>2021-10-28 09:21:22</time>
      </trkpt>
      <trkpt lat="43.31867" lon="-3.13356">
        <ele>134.2</ele>
        <time>2021-10-28 09:21:23</time>
      </trkpt>
      <trkpt lat="43.31867" lon="-3.13356">
        <ele>134.4</ele>
        <time>2021-10-28 09:21:24</time>
      </trkpt>
      <trkpt lat="43.31867" lon="-3.13356">
        <ele>134.4</ele>
        <time>2021-10-28 09:21:25</time>
      </trkpt>
      <trkpt lat="43.31867" lon="-3.13355">
        <ele>134.4</ele>
        <time>2021-10-28 09:21:26</time>
      </trkpt>
      <trkpt lat="43.31863" lon="-3.13356">
        <ele>134.4</ele>
        <time>2021-10-28 09:21:27</time>
      </trkpt>
      <trkpt lat="43.31863" lon="-3.13356">
        <ele>134.4</ele>
        <time>2021-10-28 09:21:28</time>
      </trkpt>
      <trkpt lat="43.31864" lon="-3.13357">
        <ele>134.6</ele>
        <time>2021-10-28 09:21:29</time>
      </trkpt>
      <trkpt lat="43.3186" lon="-3.13358">
        <ele>134.8</ele>
        <time>2021-10-28 09:21:30</time>
      </trkpt>
      <trkpt lat="43.3186" lon="-3.13358">
        <ele>135</ele>
        <time>2021-10-28 09:21:31</time>
      </trkpt>
      <trkpt lat="43.3186" lon="-3.13358">
        <ele>135</ele>
        <time>2021-10-28 09:21:32</time>
      </trkpt>
      <trkpt lat="43.31859" lon="-3.13357">
        <ele>135</ele>
        <time>2021-10-28 09:21:33</time>
      </trkpt>
      <trkpt lat="43.31857" lon="-3.13356">
        <ele>135</ele>
        <time>2021-10-28 09:21:34</time>
      </trkpt>
      <trkpt lat="43.31851" lon="-3.13352">
        <ele>135.2</ele>
        <time>2021-10-28 09:21:35</time>
      </trkpt>
      <trkpt lat="43.31851" lon="-3.13352">
        <ele>135.6</ele>
        <time>2021-10-28 09:21:36</time>
      </trkpt>
      <trkpt lat="43.31851" lon="-3.13352">
        <ele>135.8</ele>
        <time>2021-10-28 09:21:37</time>
      </trkpt>
      <trkpt lat="43.31851" lon="-3.13352">
        <ele>136.2</ele>
        <time>2021-10-28 09:21:38</time>
      </trkpt>
      <trkpt lat="43.31847" lon="-3.13353">
        <ele>136.2</ele>
        <time>2021-10-28 09:21:39</time>
      </trkpt>
      <trkpt lat="43.31847" lon="-3.13354">
        <ele>136.2</ele>
        <time>2021-10-28 09:21:40</time>
      </trkpt>
      <trkpt lat="43.31846" lon="-3.13354">
        <ele>136.4</ele>
        <time>2021-10-28 09:21:41</time>
      </trkpt>
      <trkpt lat="43.31846" lon="-3.13359">
        <ele>136.6</ele>
        <time>2021-10-28 09:21:42</time>
      </trkpt>
      <trkpt lat="43.31846" lon="-3.13359">
        <ele>137</ele>
        <time>2021-10-28 09:21:43</time>
      </trkpt>
      <trkpt lat="43.31846" lon="-3.13359">
        <ele>137.2</ele>
        <time>2021-10-28 09:21:44</time>
      </trkpt>
      <trkpt lat="43.31847" lon="-3.13359">
        <ele>137.4</ele>
        <time>2021-10-28 09:21:45</time>
      </trkpt>
      <trkpt lat="43.31847" lon="-3.13359">
        <ele>137.4</ele>
        <time>2021-10-28 09:21:46</time>
      </trkpt>
      <trkpt lat="43.31848" lon="-3.13368">
        <ele>137.4</ele>
        <time>2021-10-28 09:21:47</time>
      </trkpt>
      <trkpt lat="43.31848" lon="-3.13368">
        <ele>137.4</ele>
        <time>2021-10-28 09:21:48</time>
      </trkpt>
      <trkpt lat="43.31848" lon="-3.13368">
        <ele>137.4</ele>
        <time>2021-10-28 09:21:49</time>
      </trkpt>
      <trkpt lat="43.31848" lon="-3.13368">
        <ele>137.4</ele>
        <time>2021-10-28 09:21:50</time>
      </trkpt>
      <trkpt lat="43.3185" lon="-3.13373">
        <ele>137.4</ele>
        <time>2021-10-28 09:21:51</time>
      </trkpt>
      <trkpt lat="43.31849" lon="-3.13376">
        <ele>137.4</ele>
        <time>2021-10-28 09:21:52</time>
      </trkpt>
      <trkpt lat="43.3185" lon="-3.13378">
        <ele>137.4</ele>
        <time>2021-10-28 09:21:53</time>
      </trkpt>
      <trkpt lat="43.31849" lon="-3.13386">
        <ele>137.6</ele>
        <time>2021-10-28 09:21:54</time>
      </trkpt>
      <trkpt lat="43.31849" lon="-3.13386">
        <ele>137.8</ele>
        <time>2021-10-28 09:21:55</time>
      </trkpt>
      <trkpt lat="43.31849" lon="-3.13386">
        <ele>138</ele>
        <time>2021-10-28 09:21:56</time>
      </trkpt>
      <trkpt lat="43.31851" lon="-3.13389">
        <ele>138.2</ele>
        <time>2021-10-28 09:21:57</time>
      </trkpt>
      <trkpt lat="43.31851" lon="-3.13389">
        <ele>138.6</ele>
        <time>2021-10-28 09:21:58</time>
      </trkpt>
      <trkpt lat="43.31852" lon="-3.13391">
        <ele>138.8</ele>
        <time>2021-10-28 09:21:59</time>
      </trkpt>
      <trkpt lat="43.31852" lon="-3.13391">
        <ele>139</ele>
        <time>2021-10-28 09:22:00</time>
      </trkpt>
      <trkpt lat="43.31852" lon="-3.13391">
        <ele>139.2</ele>
        <time>2021-10-28 09:22:01</time>
      </trkpt>
      <trkpt lat="43.31849" lon="-3.13397">
        <ele>139.4</ele>
        <time>2021-10-28 09:22:02</time>
      </trkpt>
      <trkpt lat="43.31849" lon="-3.13398">
        <ele>139.6</ele>
        <time>2021-10-28 09:22:03</time>
      </trkpt>
      <trkpt lat="43.31847" lon="-3.13402">
        <ele>139.6</ele>
        <time>2021-10-28 09:22:04</time>
      </trkpt>
      <trkpt lat="43.31847" lon="-3.13402">
        <ele>139.8</ele>
        <time>2021-10-28 09:22:05</time>
      </trkpt>
      <trkpt lat="43.31849" lon="-3.13409">
        <ele>139.8</ele>
        <time>2021-10-28 09:22:06</time>
      </trkpt>
      <trkpt lat="43.31849" lon="-3.13409">
        <ele>139.8</ele>
        <time>2021-10-28 09:22:07</time>
      </trkpt>
      <trkpt lat="43.31849" lon="-3.13409">
        <ele>139.8</ele>
        <time>2021-10-28 09:22:08</time>
      </trkpt>
      <trkpt lat="43.31848" lon="-3.13412">
        <ele>139.8</ele>
        <time>2021-10-28 09:22:09</time>
      </trkpt>
      <trkpt lat="43.31847" lon="-3.13415">
        <ele>139.8</ele>
        <time>2021-10-28 09:22:10</time>
      </trkpt>
      <trkpt lat="43.31848" lon="-3.1342">
        <ele>140</ele>
        <time>2021-10-28 09:22:11</time>
      </trkpt>
      <trkpt lat="43.31848" lon="-3.1342">
        <ele>140</ele>
        <time>2021-10-28 09:22:12</time>
      </trkpt>
      <trkpt lat="43.31848" lon="-3.1342">
        <ele>140</ele>
        <time>2021-10-28 09:22:13</time>
      </trkpt>
      <trkpt lat="43.31847" lon="-3.13426">
        <ele>140.2</ele>
        <time>2021-10-28 09:22:14</time>
      </trkpt>
      <trkpt lat="43.31847" lon="-3.13426">
        <ele>140.6</ele>
        <time>2021-10-28 09:22:15</time>
      </trkpt>
      <trkpt lat="43.31848" lon="-3.13425">
        <ele>141</ele>
        <time>2021-10-28 09:22:16</time>
      </trkpt>
      <trkpt lat="43.31848" lon="-3.13427">
        <ele>141.2</ele>
        <time>2021-10-28 09:22:17</time>
      </trkpt>
      <trkpt lat="43.31849" lon="-3.13431">
        <ele>141.4</ele>
        <time>2021-10-28 09:22:18</time>
      </trkpt>
      <trkpt lat="43.31849" lon="-3.13431">
        <ele>141.6</ele>
        <time>2021-10-28 09:22:19</time>
      </trkpt>
      <trkpt lat="43.31849" lon="-3.13431">
        <ele>141.8</ele>
        <time>2021-10-28 09:22:20</time>
      </trkpt>
      <trkpt lat="43.31847" lon="-3.13431">
        <ele>142.2</ele>
        <time>2021-10-28 09:22:21</time>
      </trkpt>
      <trkpt lat="43.31845" lon="-3.13436">
        <ele>142.2</ele>
        <time>2021-10-28 09:22:22</time>
      </trkpt>
      <trkpt lat="43.31843" lon="-3.13442">
        <ele>142.2</ele>
        <time>2021-10-28 09:22:23</time>
      </trkpt>
      <trkpt lat="43.31843" lon="-3.13442">
        <ele>142.2</ele>
        <time>2021-10-28 09:22:24</time>
      </trkpt>
      <trkpt lat="43.31843" lon="-3.13442">
        <ele>142.2</ele>
        <time>2021-10-28 09:22:25</time>
      </trkpt>
      <trkpt lat="43.31838" lon="-3.13446">
        <ele>142.2</ele>
        <time>2021-10-28 09:22:26</time>
      </trkpt>
      <trkpt lat="43.31838" lon="-3.13446">
        <ele>142.4</ele>
        <time>2021-10-28 09:22:27</time>
      </trkpt>
      <trkpt lat="43.31837" lon="-3.13446">
        <ele>142.2</ele>
        <time>2021-10-28 09:22:28</time>
      </trkpt>
      <trkpt lat="43.31837" lon="-3.13447">
        <ele>142.4</ele>
        <time>2021-10-28 09:22:29</time>
      </trkpt>
      <trkpt lat="43.31833" lon="-3.13454">
        <ele>142.6</ele>
        <time>2021-10-28 09:22:30</time>
      </trkpt>
      <trkpt lat="43.31833" lon="-3.13454">
        <ele>142.6</ele>
        <time>2021-10-28 09:22:31</time>
      </trkpt>
      <trkpt lat="43.31833" lon="-3.13454">
        <ele>142.6</ele>
        <time>2021-10-28 09:22:32</time>
      </trkpt>
      <trkpt lat="43.31834" lon="-3.13456">
        <ele>142.6</ele>
        <time>2021-10-28 09:22:33</time>
      </trkpt>
      <trkpt lat="43.31832" lon="-3.13458">
        <ele>142.6</ele>
        <time>2021-10-28 09:22:34</time>
      </trkpt>
      <trkpt lat="43.3183" lon="-3.1346">
        <ele>143</ele>
        <time>2021-10-28 09:22:35</time>
      </trkpt>
      <trkpt lat="43.3183" lon="-3.1346">
        <ele>143.2</ele>
        <time>2021-10-28 09:22:36</time>
      </trkpt>
      <trkpt lat="43.31828" lon="-3.13464">
        <ele>143.4</ele>
        <time>2021-10-28 09:22:37</time>
      </trkpt>
      <trkpt lat="43.31828" lon="-3.13464">
        <ele>143.6</ele>
        <time>2021-10-28 09:22:38</time>
      </trkpt>
      <trkpt lat="43.31828" lon="-3.13465">
        <ele>143.6</ele>
        <time>2021-10-28 09:22:39</time>
      </trkpt>
      <trkpt lat="43.31827" lon="-3.13468">
        <ele>143.8</ele>
        <time>2021-10-28 09:22:40</time>
      </trkpt>
      <trkpt lat="43.31827" lon="-3.13468">
        <ele>144</ele>
        <time>2021-10-28 09:22:41</time>
      </trkpt>
      <trkpt lat="43.31823" lon="-3.13478">
        <ele>144.2</ele>
        <time>2021-10-28 09:22:42</time>
      </trkpt>
      <trkpt lat="43.31823" lon="-3.13478">
        <ele>144.4</ele>
        <time>2021-10-28 09:22:43</time>
      </trkpt>
      <trkpt lat="43.31823" lon="-3.13478">
        <ele>144.4</ele>
        <time>2021-10-28 09:22:44</time>
      </trkpt>
      <trkpt lat="43.3182" lon="-3.1348">
        <ele>144.4</ele>
        <time>2021-10-28 09:22:45</time>
      </trkpt>
      <trkpt lat="43.31819" lon="-3.13481">
        <ele>144.6</ele>
        <time>2021-10-28 09:22:46</time>
      </trkpt>
      <trkpt lat="43.31818" lon="-3.13482">
        <ele>144.8</ele>
        <time>2021-10-28 09:22:47</time>
      </trkpt>
      <trkpt lat="43.31818" lon="-3.13481">
        <ele>145.2</ele>
        <time>2021-10-28 09:22:48</time>
      </trkpt>
      <trkpt lat="43.3182" lon="-3.13482">
        <ele>145.4</ele>
        <time>2021-10-28 09:22:49</time>
      </trkpt>
      <trkpt lat="43.31815" lon="-3.13483">
        <ele>145.8</ele>
        <time>2021-10-28 09:22:50</time>
      </trkpt>
      <trkpt lat="43.31815" lon="-3.13483">
        <ele>146.2</ele>
        <time>2021-10-28 09:22:51</time>
      </trkpt>
      <trkpt lat="43.31815" lon="-3.13483">
        <ele>146.4</ele>
        <time>2021-10-28 09:22:52</time>
      </trkpt>
      <trkpt lat="43.31812" lon="-3.13491">
        <ele>146.4</ele>
        <time>2021-10-28 09:22:53</time>
      </trkpt>
      <trkpt lat="43.3181" lon="-3.13495">
        <ele>146.6</ele>
        <time>2021-10-28 09:22:54</time>
      </trkpt>
      <trkpt lat="43.3181" lon="-3.13495">
        <ele>146.6</ele>
        <time>2021-10-28 09:22:55</time>
      </trkpt>
      <trkpt lat="43.3181" lon="-3.13495">
        <ele>146.6</ele>
        <time>2021-10-28 09:22:56</time>
      </trkpt>
      <trkpt lat="43.3181" lon="-3.13496">
        <ele>146.8</ele>
        <time>2021-10-28 09:22:57</time>
      </trkpt>
      <trkpt lat="43.31809" lon="-3.13497">
        <ele>146.8</ele>
        <time>2021-10-28 09:22:58</time>
      </trkpt>
      <trkpt lat="43.31808" lon="-3.13499">
        <ele>147</ele>
        <time>2021-10-28 09:22:59</time>
      </trkpt>
      <trkpt lat="43.31808" lon="-3.13499">
        <ele>147.2</ele>
        <time>2021-10-28 09:23:00</time>
      </trkpt>
      <trkpt lat="43.31808" lon="-3.13499">
        <ele>147.4</ele>
        <time>2021-10-28 09:23:01</time>
      </trkpt>
      <trkpt lat="43.31805" lon="-3.13502">
        <ele>147.6</ele>
        <time>2021-10-28 09:23:02</time>
      </trkpt>
      <trkpt lat="43.31805" lon="-3.13502">
        <ele>147.8</ele>
        <time>2021-10-28 09:23:03</time>
      </trkpt>
      <trkpt lat="43.31807" lon="-3.13505">
        <ele>148</ele>
        <time>2021-10-28 09:23:04</time>
      </trkpt>
      <trkpt lat="43.31805" lon="-3.13506">
        <ele>148</ele>
        <time>2021-10-28 09:23:05</time>
      </trkpt>
      <trkpt lat="43.31804" lon="-3.13506">
        <ele>148</ele>
        <time>2021-10-28 09:23:06</time>
      </trkpt>
      <trkpt lat="43.31826" lon="-3.13497">
        <ele>151.2</ele>
        <time>2021-10-28 09:23:07</time>
      </trkpt>
      <trkpt lat="43.31826" lon="-3.13497">
        <ele>151.6</ele>
        <time>2021-10-28 09:23:08</time>
      </trkpt>
      <trkpt lat="43.31826" lon="-3.13495">
        <ele>152</ele>
        <time>2021-10-28 09:23:09</time>
      </trkpt>
      <trkpt lat="43.31828" lon="-3.13492">
        <ele>152.4</ele>
        <time>2021-10-28 09:23:10</time>
      </trkpt>
      <trkpt lat="43.31834" lon="-3.13491">
        <ele>152.8</ele>
        <time>2021-10-28 09:23:11</time>
      </trkpt>
      <trkpt lat="43.31838" lon="-3.13492">
        <ele>153.4</ele>
        <time>2021-10-28 09:23:12</time>
      </trkpt>
      <trkpt lat="43.31838" lon="-3.13492">
        <ele>153.8</ele>
        <time>2021-10-28 09:23:13</time>
      </trkpt>
      <trkpt lat="43.3184" lon="-3.13491">
        <ele>154.2</ele>
        <time>2021-10-28 09:23:14</time>
      </trkpt>
      <trkpt lat="43.3184" lon="-3.13489">
        <ele>154.6</ele>
        <time>2021-10-28 09:23:15</time>
      </trkpt>
      <trkpt lat="43.31841" lon="-3.13489">
        <ele>155</ele>
        <time>2021-10-28 09:23:16</time>
      </trkpt>
      <trkpt lat="43.31844" lon="-3.13487">
        <ele>155</ele>
        <time>2021-10-28 09:23:42</time>
      </trkpt>
      <trkpt lat="43.31844" lon="-3.13487">
        <ele>155.2</ele>
        <time>2021-10-28 09:23:43</time>
      </trkpt>
      <trkpt lat="43.31844" lon="-3.13487">
        <ele>155.4</ele>
        <time>2021-10-28 09:23:44</time>
      </trkpt>
      <trkpt lat="43.31846" lon="-3.13487">
        <ele>155.6</ele>
        <time>2021-10-28 09:23:45</time>
      </trkpt>
      <trkpt lat="43.31847" lon="-3.13487">
        <ele>156</ele>
        <time>2021-10-28 09:23:46</time>
      </trkpt>
      <trkpt lat="43.31849" lon="-3.13483">
        <ele>156.2</ele>
        <time>2021-10-28 09:23:47</time>
      </trkpt>
      <trkpt lat="43.3185" lon="-3.13479">
        <ele>156.6</ele>
        <time>2021-10-28 09:23:48</time>
      </trkpt>
      <trkpt lat="43.31852" lon="-3.13476">
        <ele>156.8</ele>
        <time>2021-10-28 09:23:49</time>
      </trkpt>
      <trkpt lat="43.31856" lon="-3.13477">
        <ele>157.2</ele>
        <time>2021-10-28 09:23:50</time>
      </trkpt>
      <trkpt lat="43.31856" lon="-3.13477">
        <ele>157.6</ele>
        <time>2021-10-28 09:23:51</time>
      </trkpt>
      <trkpt lat="43.31859" lon="-3.13475">
        <ele>158</ele>
        <time>2021-10-28 09:23:52</time>
      </trkpt>
      <trkpt lat="43.31859" lon="-3.13475">
        <ele>158.4</ele>
        <time>2021-10-28 09:23:53</time>
      </trkpt>
      <trkpt lat="43.31863" lon="-3.13477">
        <ele>158.6</ele>
        <time>2021-10-28 09:23:54</time>
      </trkpt>
      <trkpt lat="43.31863" lon="-3.13477">
        <ele>159</ele>
        <time>2021-10-28 09:23:55</time>
      </trkpt>
      <trkpt lat="43.31863" lon="-3.13477">
        <ele>159.2</ele>
        <time>2021-10-28 09:23:56</time>
      </trkpt>
      <trkpt lat="43.31866" lon="-3.13478">
        <ele>159.4</ele>
        <time>2021-10-28 09:23:57</time>
      </trkpt>
      <trkpt lat="43.31866" lon="-3.13478">
        <ele>159.6</ele>
        <time>2021-10-28 09:23:58</time>
      </trkpt>
      <trkpt lat="43.31868" lon="-3.13478">
        <ele>159.8</ele>
        <time>2021-10-28 09:23:59</time>
      </trkpt>
      <trkpt lat="43.3187" lon="-3.13478">
        <ele>159.8</ele>
        <time>2021-10-28 09:24:00</time>
      </trkpt>
      <trkpt lat="43.3187" lon="-3.13478">
        <ele>160</ele>
        <time>2021-10-28 09:24:01</time>
      </trkpt>
      <trkpt lat="43.31874" lon="-3.13482">
        <ele>160</ele>
        <time>2021-10-28 09:24:02</time>
      </trkpt>
      <trkpt lat="43.31874" lon="-3.13482">
        <ele>160.2</ele>
        <time>2021-10-28 09:24:03</time>
      </trkpt>
      <trkpt lat="43.31878" lon="-3.13485">
        <ele>160.6</ele>
        <time>2021-10-28 09:24:04</time>
      </trkpt>
      <trkpt lat="43.31878" lon="-3.13485">
        <ele>161</ele>
        <time>2021-10-28 09:24:05</time>
      </trkpt>
      <trkpt lat="43.31879" lon="-3.13487">
        <ele>161.4</ele>
        <time>2021-10-28 09:24:06</time>
      </trkpt>
      <trkpt lat="43.31879" lon="-3.13487">
        <ele>161.8</ele>
        <time>2021-10-28 09:24:07</time>
      </trkpt>
      <trkpt lat="43.31879" lon="-3.13487">
        <ele>162.2</ele>
        <time>2021-10-28 09:24:08</time>
      </trkpt>
      <trkpt lat="43.31881" lon="-3.1349">
        <ele>162.4</ele>
        <time>2021-10-28 09:24:09</time>
      </trkpt>
      <trkpt lat="43.31883" lon="-3.13493">
        <ele>162.6</ele>
        <time>2021-10-28 09:24:10</time>
      </trkpt>
      <trkpt lat="43.31885" lon="-3.13496">
        <ele>162.8</ele>
        <time>2021-10-28 09:24:11</time>
      </trkpt>
      <trkpt lat="43.31885" lon="-3.13496">
        <ele>163</ele>
        <time>2021-10-28 09:24:12</time>
      </trkpt>
      <trkpt lat="43.31885" lon="-3.13496">
        <ele>163.2</ele>
        <time>2021-10-28 09:24:13</time>
      </trkpt>
      <trkpt lat="43.31888" lon="-3.13496">
        <ele>163.6</ele>
        <time>2021-10-28 09:24:14</time>
      </trkpt>
      <trkpt lat="43.3189" lon="-3.13499">
        <ele>163.8</ele>
        <time>2021-10-28 09:24:15</time>
      </trkpt>
      <trkpt lat="43.3189" lon="-3.13499">
        <ele>164.2</ele>
        <time>2021-10-28 09:24:16</time>
      </trkpt>
      <trkpt lat="43.31891" lon="-3.13501">
        <ele>164.6</ele>
        <time>2021-10-28 09:24:17</time>
      </trkpt>
      <trkpt lat="43.31891" lon="-3.13502">
        <ele>165.2</ele>
        <time>2021-10-28 09:24:18</time>
      </trkpt>
      <trkpt lat="43.31891" lon="-3.13502">
        <ele>165.6</ele>
        <time>2021-10-28 09:24:19</time>
      </trkpt>
      <trkpt lat="43.31892" lon="-3.13503">
        <ele>165.8</ele>
        <time>2021-10-28 09:24:20</time>
      </trkpt>
      <trkpt lat="43.31892" lon="-3.13505">
        <ele>166</ele>
        <time>2021-10-28 09:24:21</time>
      </trkpt>
      <trkpt lat="43.31892" lon="-3.13505">
        <ele>166.2</ele>
        <time>2021-10-28 09:24:22</time>
      </trkpt>
      <trkpt lat="43.31895" lon="-3.13507">
        <ele>166.2</ele>
        <time>2021-10-28 09:24:23</time>
      </trkpt>
      <trkpt lat="43.31895" lon="-3.13507">
        <ele>166.2</ele>
        <time>2021-10-28 09:24:24</time>
      </trkpt>
      <trkpt lat="43.31895" lon="-3.13507">
        <ele>166.4</ele>
        <time>2021-10-28 09:24:25</time>
      </trkpt>
      <trkpt lat="43.31895" lon="-3.13509">
        <ele>166.6</ele>
        <time>2021-10-28 09:24:26</time>
      </trkpt>
      <trkpt lat="43.31896" lon="-3.13512">
        <ele>166.8</ele>
        <time>2021-10-28 09:24:27</time>
      </trkpt>
      <trkpt lat="43.31896" lon="-3.13512">
        <ele>167.2</ele>
        <time>2021-10-28 09:24:28</time>
      </trkpt>
      <trkpt lat="43.31897" lon="-3.13515">
        <ele>167.4</ele>
        <time>2021-10-28 09:24:29</time>
      </trkpt>
      <trkpt lat="43.31898" lon="-3.13518">
        <ele>167.6</ele>
        <time>2021-10-28 09:24:30</time>
      </trkpt>
      <trkpt lat="43.31898" lon="-3.13518">
        <ele>167.6</ele>
        <time>2021-10-28 09:24:31</time>
      </trkpt>
      <trkpt lat="43.31898" lon="-3.13518">
        <ele>167.8</ele>
        <time>2021-10-28 09:24:32</time>
      </trkpt>
      <trkpt lat="43.31898" lon="-3.13519">
        <ele>168.2</ele>
        <time>2021-10-28 09:24:33</time>
      </trkpt>
      <trkpt lat="43.31898" lon="-3.13519">
        <ele>168.4</ele>
        <time>2021-10-28 09:24:34</time>
      </trkpt>
      <trkpt lat="43.319" lon="-3.13524">
        <ele>168.6</ele>
        <time>2021-10-28 09:24:35</time>
      </trkpt>
      <trkpt lat="43.319" lon="-3.13524">
        <ele>168.8</ele>
        <time>2021-10-28 09:24:36</time>
      </trkpt>
      <trkpt lat="43.319" lon="-3.13524">
        <ele>169</ele>
        <time>2021-10-28 09:24:37</time>
      </trkpt>
      <trkpt lat="43.319" lon="-3.13524">
        <ele>169.4</ele>
        <time>2021-10-28 09:24:38</time>
      </trkpt>
      <trkpt lat="43.31903" lon="-3.13527">
        <ele>169.6</ele>
        <time>2021-10-28 09:24:39</time>
      </trkpt>
      <trkpt lat="43.31904" lon="-3.13531">
        <ele>170</ele>
        <time>2021-10-28 09:24:40</time>
      </trkpt>
      <trkpt lat="43.31904" lon="-3.13531">
        <ele>170.4</ele>
        <time>2021-10-28 09:24:41</time>
      </trkpt>
      <trkpt lat="43.31904" lon="-3.13531">
        <ele>170.6</ele>
        <time>2021-10-28 09:24:42</time>
      </trkpt>
      <trkpt lat="43.31905" lon="-3.13535">
        <ele>170.6</ele>
        <time>2021-10-28 09:24:43</time>
      </trkpt>
      <trkpt lat="43.31905" lon="-3.13537">
        <ele>170.6</ele>
        <time>2021-10-28 09:24:44</time>
      </trkpt>
      <trkpt lat="43.31906" lon="-3.13536">
        <ele>170.8</ele>
        <time>2021-10-28 09:24:45</time>
      </trkpt>
      <trkpt lat="43.31906" lon="-3.13536">
        <ele>171</ele>
        <time>2021-10-28 09:24:46</time>
      </trkpt>
      <trkpt lat="43.31909" lon="-3.13537">
        <ele>171.2</ele>
        <time>2021-10-28 09:24:47</time>
      </trkpt>
      <trkpt lat="43.31909" lon="-3.13537">
        <ele>171.4</ele>
        <time>2021-10-28 09:24:48</time>
      </trkpt>
      <trkpt lat="43.31909" lon="-3.13537">
        <ele>171.6</ele>
        <time>2021-10-28 09:24:49</time>
      </trkpt>
      <trkpt lat="43.31909" lon="-3.13537">
        <ele>171.8</ele>
        <time>2021-10-28 09:24:50</time>
      </trkpt>
      <trkpt lat="43.31911" lon="-3.1354">
        <ele>172</ele>
        <time>2021-10-28 09:24:51</time>
      </trkpt>
      <trkpt lat="43.31915" lon="-3.13542">
        <ele>172.2</ele>
        <time>2021-10-28 09:24:52</time>
      </trkpt>
      <trkpt lat="43.31915" lon="-3.13542">
        <ele>172.6</ele>
        <time>2021-10-28 09:24:53</time>
      </trkpt>
      <trkpt lat="43.31915" lon="-3.13542">
        <ele>172.8</ele>
        <time>2021-10-28 09:24:54</time>
      </trkpt>
      <trkpt lat="43.31919" lon="-3.13555">
        <ele>173.8</ele>
        <time>2021-10-28 09:24:55</time>
      </trkpt>
      <trkpt lat="43.31919" lon="-3.13555">
        <ele>174.2</ele>
        <time>2021-10-28 09:24:56</time>
      </trkpt>
      <trkpt lat="43.31919" lon="-3.13555">
        <ele>174.4</ele>
        <time>2021-10-28 09:24:57</time>
      </trkpt>
      <trkpt lat="43.31919" lon="-3.13555">
        <ele>174.6</ele>
        <time>2021-10-28 09:24:58</time>
      </trkpt>
      <trkpt lat="43.31921" lon="-3.13559">
        <ele>174.6</ele>
        <time>2021-10-28 09:24:59</time>
      </trkpt>
      <trkpt lat="43.31923" lon="-3.13559">
        <ele>174.8</ele>
        <time>2021-10-28 09:25:00</time>
      </trkpt>
      <trkpt lat="43.31923" lon="-3.13559">
        <ele>175.2</ele>
        <time>2021-10-28 09:25:01</time>
      </trkpt>
      <trkpt lat="43.31923" lon="-3.13559">
        <ele>175.6</ele>
        <time>2021-10-28 09:25:02</time>
      </trkpt>
      <trkpt lat="43.31925" lon="-3.1356">
        <ele>175.8</ele>
        <time>2021-10-28 09:25:03</time>
      </trkpt>
      <trkpt lat="43.31925" lon="-3.1356">
        <ele>176</ele>
        <time>2021-10-28 09:25:04</time>
      </trkpt>
      <trkpt lat="43.31924" lon="-3.13561">
        <ele>176</ele>
        <time>2021-10-28 09:25:09</time>
      </trkpt>
      <trkpt lat="43.31924" lon="-3.13561">
        <ele>176.2</ele>
        <time>2021-10-28 09:25:10</time>
      </trkpt>
      <trkpt lat="43.31925" lon="-3.1356">
        <ele>176.4</ele>
        <time>2021-10-28 09:25:11</time>
      </trkpt>
      <trkpt lat="43.31924" lon="-3.13562">
        <ele>176.6</ele>
        <time>2021-10-28 09:25:12</time>
      </trkpt>
      <trkpt lat="43.31924" lon="-3.13562">
        <ele>177</ele>
        <time>2021-10-28 09:25:13</time>
      </trkpt>
      <trkpt lat="43.31929" lon="-3.13562">
        <ele>177.2</ele>
        <time>2021-10-28 09:25:14</time>
      </trkpt>
      <trkpt lat="43.31929" lon="-3.13562">
        <ele>177.2</ele>
        <time>2021-10-28 09:25:15</time>
      </trkpt>
      <trkpt lat="43.31931" lon="-3.13563">
        <ele>177.4</ele>
        <time>2021-10-28 09:25:16</time>
      </trkpt>
      <trkpt lat="43.31931" lon="-3.13563">
        <ele>177.4</ele>
        <time>2021-10-28 09:25:17</time>
      </trkpt>
      <trkpt lat="43.31932" lon="-3.13564">
        <ele>177.4</ele>
        <time>2021-10-28 09:25:18</time>
      </trkpt>
      <trkpt lat="43.31932" lon="-3.13564">
        <ele>177.6</ele>
        <time>2021-10-28 09:25:19</time>
      </trkpt>
      <trkpt lat="43.31933" lon="-3.13567">
        <ele>177.6</ele>
        <time>2021-10-28 09:25:20</time>
      </trkpt>
      <trkpt lat="43.31933" lon="-3.13567">
        <ele>177.6</ele>
        <time>2021-10-28 09:25:21</time>
      </trkpt>
      <trkpt lat="43.31935" lon="-3.13569">
        <ele>177.8</ele>
        <time>2021-10-28 09:25:22</time>
      </trkpt>
      <trkpt lat="43.31936" lon="-3.13569">
        <ele>178</ele>
        <time>2021-10-28 09:25:23</time>
      </trkpt>
      <trkpt lat="43.31937" lon="-3.1357">
        <ele>178.6</ele>
        <time>2021-10-28 09:25:24</time>
      </trkpt>
      <trkpt lat="43.31937" lon="-3.1357">
        <ele>179</ele>
        <time>2021-10-28 09:25:25</time>
      </trkpt>
      <trkpt lat="43.31938" lon="-3.13575">
        <ele>179.4</ele>
        <time>2021-10-28 09:25:26</time>
      </trkpt>
      <trkpt lat="43.31938" lon="-3.13575">
        <ele>179.6</ele>
        <time>2021-10-28 09:25:27</time>
      </trkpt>
      <trkpt lat="43.31938" lon="-3.1358">
        <ele>179.8</ele>
        <time>2021-10-28 09:25:28</time>
      </trkpt>
      <trkpt lat="43.31938" lon="-3.1358">
        <ele>179.8</ele>
        <time>2021-10-28 09:25:29</time>
      </trkpt>
      <trkpt lat="43.31938" lon="-3.1358">
        <ele>179.8</ele>
        <time>2021-10-28 09:25:30</time>
      </trkpt>
      <trkpt lat="43.31939" lon="-3.13584">
        <ele>179.8</ele>
        <time>2021-10-28 09:25:31</time>
      </trkpt>
      <trkpt lat="43.31939" lon="-3.13584">
        <ele>180</ele>
        <time>2021-10-28 09:25:32</time>
      </trkpt>
      <trkpt lat="43.3194" lon="-3.1359">
        <ele>180.4</ele>
        <time>2021-10-28 09:25:33</time>
      </trkpt>
      <trkpt lat="43.3194" lon="-3.1359">
        <ele>181</ele>
        <time>2021-10-28 09:25:34</time>
      </trkpt>
      <trkpt lat="43.3194" lon="-3.1359">
        <ele>181.6</ele>
        <time>2021-10-28 09:25:35</time>
      </trkpt>
      <trkpt lat="43.31941" lon="-3.13589">
        <ele>182</ele>
        <time>2021-10-28 09:25:36</time>
      </trkpt>
      <trkpt lat="43.31941" lon="-3.13589">
        <ele>182.2</ele>
        <time>2021-10-28 09:25:37</time>
      </trkpt>
      <trkpt lat="43.31943" lon="-3.13589">
        <ele>182.4</ele>
        <time>2021-10-28 09:25:38</time>
      </trkpt>
      <trkpt lat="43.31943" lon="-3.13589">
        <ele>182.4</ele>
        <time>2021-10-28 09:25:39</time>
      </trkpt>
      <trkpt lat="43.31942" lon="-3.13592">
        <ele>182.4</ele>
        <time>2021-10-28 09:25:40</time>
      </trkpt>
      <trkpt lat="43.31942" lon="-3.13592">
        <ele>182.6</ele>
        <time>2021-10-28 09:25:41</time>
      </trkpt>
      <trkpt lat="43.31942" lon="-3.13592">
        <ele>182.6</ele>
        <time>2021-10-28 09:25:42</time>
      </trkpt>
      <trkpt lat="43.31944" lon="-3.13601">
        <ele>182.6</ele>
        <time>2021-10-28 09:25:43</time>
      </trkpt>
      <trkpt lat="43.31944" lon="-3.13601">
        <ele>183</ele>
        <time>2021-10-28 09:25:44</time>
      </trkpt>
      <trkpt lat="43.31947" lon="-3.13603">
        <ele>183.2</ele>
        <time>2021-10-28 09:25:45</time>
      </trkpt>
      <trkpt lat="43.31947" lon="-3.13603">
        <ele>183.6</ele>
        <time>2021-10-28 09:25:46</time>
      </trkpt>
      <trkpt lat="43.3193" lon="-3.13613">
        <ele>189.2</ele>
        <time>2021-10-28 09:25:47</time>
      </trkpt>
      <trkpt lat="43.3193" lon="-3.13613">
        <ele>189.6</ele>
        <time>2021-10-28 09:25:48</time>
      </trkpt>
      <trkpt lat="43.31928" lon="-3.13612">
        <ele>190</ele>
        <time>2021-10-28 09:25:49</time>
      </trkpt>
      <trkpt lat="43.31928" lon="-3.13612">
        <ele>190.2</ele>
        <time>2021-10-28 09:25:50</time>
      </trkpt>
      <trkpt lat="43.31927" lon="-3.1361">
        <ele>190.2</ele>
        <time>2021-10-28 09:25:51</time>
      </trkpt>
      <trkpt lat="43.31926" lon="-3.13608">
        <ele>190.2</ele>
        <time>2021-10-28 09:25:52</time>
      </trkpt>
      <trkpt lat="43.31924" lon="-3.13616">
        <ele>190.2</ele>
        <time>2021-10-28 09:25:53</time>
      </trkpt>
      <trkpt lat="43.31924" lon="-3.13616">
        <ele>190.4</ele>
        <time>2021-10-28 09:25:54</time>
      </trkpt>
      <trkpt lat="43.31924" lon="-3.13616">
        <ele>190.4</ele>
        <time>2021-10-28 09:25:55</time>
      </trkpt>
      <trkpt lat="43.31923" lon="-3.13617">
        <ele>190.6</ele>
        <time>2021-10-28 09:25:56</time>
      </trkpt>
      <trkpt lat="43.31923" lon="-3.13617">
        <ele>190.6</ele>
        <time>2021-10-28 09:28:38</time>
      </trkpt>
      <trkpt lat="43.31923" lon="-3.13611">
        <ele>190.8</ele>
        <time>2021-10-28 09:28:39</time>
      </trkpt>
      <trkpt lat="43.31895" lon="-3.1361">
        <ele>194.8</ele>
        <time>2021-10-28 09:28:40</time>
      </trkpt>
      <trkpt lat="43.31893" lon="-3.13613">
        <ele>195</ele>
        <time>2021-10-28 09:28:41</time>
      </trkpt>
      <trkpt lat="43.31893" lon="-3.13613">
        <ele>195.4</ele>
        <time>2021-10-28 09:28:42</time>
      </trkpt>
      <trkpt lat="43.31891" lon="-3.13615">
        <ele>195.6</ele>
        <time>2021-10-28 09:28:43</time>
      </trkpt>
      <trkpt lat="43.3189" lon="-3.13615">
        <ele>196</ele>
        <time>2021-10-28 09:28:44</time>
      </trkpt>
      <trkpt lat="43.31887" lon="-3.13612">
        <ele>196.2</ele>
        <time>2021-10-28 09:28:45</time>
      </trkpt>
      <trkpt lat="43.31887" lon="-3.13612">
        <ele>196.4</ele>
        <time>2021-10-28 09:28:46</time>
      </trkpt>
      <trkpt lat="43.31884" lon="-3.1361">
        <ele>196.6</ele>
        <time>2021-10-28 09:28:47</time>
      </trkpt>
      <trkpt lat="43.31884" lon="-3.1361">
        <ele>196.8</ele>
        <time>2021-10-28 09:28:48</time>
      </trkpt>
      <trkpt lat="43.3188" lon="-3.13614">
        <ele>197</ele>
        <time>2021-10-28 09:28:49</time>
      </trkpt>
      <trkpt lat="43.3188" lon="-3.13614">
        <ele>197</ele>
        <time>2021-10-28 09:29:28</time>
      </trkpt>
      <trkpt lat="43.3188" lon="-3.13614">
        <ele>196.8</ele>
        <time>2021-10-28 09:29:29</time>
      </trkpt>
      <trkpt lat="43.31881" lon="-3.13613">
        <ele>196.8</ele>
        <time>2021-10-28 09:29:30</time>
      </trkpt>
      <trkpt lat="43.31881" lon="-3.13613">
        <ele>196.8</ele>
        <time>2021-10-28 09:29:31</time>
      </trkpt>
      <trkpt lat="43.3188" lon="-3.13617">
        <ele>196.6</ele>
        <time>2021-10-28 09:29:32</time>
      </trkpt>
      <trkpt lat="43.3188" lon="-3.13617">
        <ele>196.6</ele>
        <time>2021-10-28 09:29:33</time>
      </trkpt>
      <trkpt lat="43.3188" lon="-3.13617">
        <ele>196.8</ele>
        <time>2021-10-28 09:29:34</time>
      </trkpt>
      <trkpt lat="43.31879" lon="-3.13619">
        <ele>196.8</ele>
        <time>2021-10-28 09:29:35</time>
      </trkpt>
      <trkpt lat="43.31872" lon="-3.13622">
        <ele>196.8</ele>
        <time>2021-10-28 09:29:36</time>
      </trkpt>
      <trkpt lat="43.31872" lon="-3.13624">
        <ele>197</ele>
        <time>2021-10-28 09:29:37</time>
      </trkpt>
      <trkpt lat="43.31866" lon="-3.13627">
        <ele>197.6</ele>
        <time>2021-10-28 09:29:38</time>
      </trkpt>
      <trkpt lat="43.31866" lon="-3.13627">
        <ele>198</ele>
        <time>2021-10-28 09:29:39</time>
      </trkpt>
      <trkpt lat="43.31866" lon="-3.13627">
        <ele>198.4</ele>
        <time>2021-10-28 09:29:40</time>
      </trkpt>
      <trkpt lat="43.31866" lon="-3.13632">
        <ele>198.8</ele>
        <time>2021-10-28 09:29:41</time>
      </trkpt>
      <trkpt lat="43.31863" lon="-3.13632">
        <ele>199.2</ele>
        <time>2021-10-28 09:29:42</time>
      </trkpt>
      <trkpt lat="43.31863" lon="-3.13632">
        <ele>199.6</ele>
        <time>2021-10-28 09:29:43</time>
      </trkpt>
      <trkpt lat="43.31862" lon="-3.13639">
        <ele>199.6</ele>
        <time>2021-10-28 09:29:44</time>
      </trkpt>
      <trkpt lat="43.31857" lon="-3.13644">
        <ele>199.8</ele>
        <time>2021-10-28 09:29:45</time>
      </trkpt>
      <trkpt lat="43.31857" lon="-3.13644">
        <ele>199.8</ele>
        <time>2021-10-28 09:29:52</time>
      </trkpt>
      <trkpt lat="43.31857" lon="-3.13644">
        <ele>200.2</ele>
        <time>2021-10-28 09:29:53</time>
      </trkpt>
      <trkpt lat="43.31853" lon="-3.13646">
        <ele>200.4</ele>
        <time>2021-10-28 09:29:54</time>
      </trkpt>
      <trkpt lat="43.31851" lon="-3.13648">
        <ele>200.6</ele>
        <time>2021-10-28 09:29:55</time>
      </trkpt>
      <trkpt lat="43.31848" lon="-3.13651">
        <ele>200.8</ele>
        <time>2021-10-28 09:29:56</time>
      </trkpt>
      <trkpt lat="43.31848" lon="-3.13651">
        <ele>200.8</ele>
        <time>2021-10-28 09:29:57</time>
      </trkpt>
      <trkpt lat="43.31847" lon="-3.13653">
        <ele>201</ele>
        <time>2021-10-28 09:29:58</time>
      </trkpt>
      <trkpt lat="43.31843" lon="-3.13656">
        <ele>201</ele>
        <time>2021-10-28 09:29:59</time>
      </trkpt>
      <trkpt lat="43.31843" lon="-3.13656">
        <ele>201.2</ele>
        <time>2021-10-28 09:30:00</time>
      </trkpt>
      <trkpt lat="43.31841" lon="-3.13658">
        <ele>201.4</ele>
        <time>2021-10-28 09:30:01</time>
      </trkpt>
      <trkpt lat="43.3184" lon="-3.13661">
        <ele>201.8</ele>
        <time>2021-10-28 09:30:02</time>
      </trkpt>
      <trkpt lat="43.31836" lon="-3.13667">
        <ele>202.2</ele>
        <time>2021-10-28 09:30:03</time>
      </trkpt>
      <trkpt lat="43.31836" lon="-3.13667">
        <ele>202.4</ele>
        <time>2021-10-28 09:30:04</time>
      </trkpt>
      <trkpt lat="43.31836" lon="-3.13667">
        <ele>202.4</ele>
        <time>2021-10-28 09:30:05</time>
      </trkpt>
      <trkpt lat="43.31836" lon="-3.13667">
        <ele>202.4</ele>
        <time>2021-10-28 09:30:06</time>
      </trkpt>
      <trkpt lat="43.31834" lon="-3.1367">
        <ele>202.4</ele>
        <time>2021-10-28 09:30:07</time>
      </trkpt>
      <trkpt lat="43.31833" lon="-3.13671">
        <ele>202.4</ele>
        <time>2021-10-28 09:30:08</time>
      </trkpt>
      <trkpt lat="43.3183" lon="-3.13675">
        <ele>202.6</ele>
        <time>2021-10-28 09:30:09</time>
      </trkpt>
      <trkpt lat="43.3183" lon="-3.13675">
        <ele>202.8</ele>
        <time>2021-10-28 09:30:10</time>
      </trkpt>
      <trkpt lat="43.31829" lon="-3.1368">
        <ele>203</ele>
        <time>2021-10-28 09:30:11</time>
      </trkpt>
      <trkpt lat="43.31829" lon="-3.1368">
        <ele>203.2</ele>
        <time>2021-10-28 09:30:12</time>
      </trkpt>
      <trkpt lat="43.31828" lon="-3.13682">
        <ele>203.6</ele>
        <time>2021-10-28 09:30:13</time>
      </trkpt>
      <trkpt lat="43.31828" lon="-3.13684">
        <ele>203.8</ele>
        <time>2021-10-28 09:30:14</time>
      </trkpt>
      <trkpt lat="43.31826" lon="-3.13691">
        <ele>203.8</ele>
        <time>2021-10-28 09:30:15</time>
      </trkpt>
      <trkpt lat="43.31826" lon="-3.13691">
        <ele>204</ele>
        <time>2021-10-28 09:30:16</time>
      </trkpt>
      <trkpt lat="43.31826" lon="-3.13691">
        <ele>204.4</ele>
        <time>2021-10-28 09:30:17</time>
      </trkpt>
      <trkpt lat="43.31826" lon="-3.13694">
        <ele>204.8</ele>
        <time>2021-10-28 09:30:18</time>
      </trkpt>
      <trkpt lat="43.31824" lon="-3.13699">
        <ele>205.2</ele>
        <time>2021-10-28 09:30:19</time>
      </trkpt>
      <trkpt lat="43.31824" lon="-3.13699">
        <ele>205.2</ele>
        <time>2021-10-28 09:30:20</time>
      </trkpt>
      <trkpt lat="43.31824" lon="-3.13701">
        <ele>205.2</ele>
        <time>2021-10-28 09:30:21</time>
      </trkpt>
      <trkpt lat="43.31823" lon="-3.13708">
        <ele>205.2</ele>
        <time>2021-10-28 09:30:22</time>
      </trkpt>
      <trkpt lat="43.31823" lon="-3.13708">
        <ele>205</ele>
        <time>2021-10-28 09:30:23</time>
      </trkpt>
      <trkpt lat="43.31823" lon="-3.13708">
        <ele>205</ele>
        <time>2021-10-28 09:30:24</time>
      </trkpt>
      <trkpt lat="43.31822" lon="-3.1371">
        <ele>205</ele>
        <time>2021-10-28 09:30:25</time>
      </trkpt>
      <trkpt lat="43.31822" lon="-3.13713">
        <ele>205.2</ele>
        <time>2021-10-28 09:30:26</time>
      </trkpt>
      <trkpt lat="43.31822" lon="-3.13719">
        <ele>205.4</ele>
        <time>2021-10-28 09:30:27</time>
      </trkpt>
      <trkpt lat="43.31822" lon="-3.13719">
        <ele>205.6</ele>
        <time>2021-10-28 09:30:28</time>
      </trkpt>
      <trkpt lat="43.31822" lon="-3.13719">
        <ele>206</ele>
        <time>2021-10-28 09:30:29</time>
      </trkpt>
      <trkpt lat="43.31821" lon="-3.13723">
        <ele>206.4</ele>
        <time>2021-10-28 09:30:30</time>
      </trkpt>
      <trkpt lat="43.31821" lon="-3.13723">
        <ele>206.6</ele>
        <time>2021-10-28 09:30:31</time>
      </trkpt>
      <trkpt lat="43.31821" lon="-3.13723">
        <ele>206.8</ele>
        <time>2021-10-28 09:30:32</time>
      </trkpt>
      <trkpt lat="43.31821" lon="-3.13726">
        <ele>207</ele>
        <time>2021-10-28 09:30:33</time>
      </trkpt>
      <trkpt lat="43.3182" lon="-3.13735">
        <ele>207</ele>
        <time>2021-10-28 09:30:34</time>
      </trkpt>
      <trkpt lat="43.3182" lon="-3.13735">
        <ele>207.2</ele>
        <time>2021-10-28 09:30:35</time>
      </trkpt>
      <trkpt lat="43.3182" lon="-3.13735">
        <ele>207.2</ele>
        <time>2021-10-28 09:30:36</time>
      </trkpt>
      <trkpt lat="43.31821" lon="-3.13739">
        <ele>207.4</ele>
        <time>2021-10-28 09:30:37</time>
      </trkpt>
      <trkpt lat="43.31819" lon="-3.13742">
        <ele>207.4</ele>
        <time>2021-10-28 09:30:38</time>
      </trkpt>
      <trkpt lat="43.31819" lon="-3.13742">
        <ele>207.4</ele>
        <time>2021-10-28 09:30:39</time>
      </trkpt>
      <trkpt lat="43.31819" lon="-3.13745">
        <ele>207.6</ele>
        <time>2021-10-28 09:30:40</time>
      </trkpt>
      <trkpt lat="43.31818" lon="-3.13749">
        <ele>207.8</ele>
        <time>2021-10-28 09:30:41</time>
      </trkpt>
      <trkpt lat="43.31818" lon="-3.1375">
        <ele>208.4</ele>
        <time>2021-10-28 09:30:42</time>
      </trkpt>
      <trkpt lat="43.31818" lon="-3.1375">
        <ele>209</ele>
        <time>2021-10-28 09:30:43</time>
      </trkpt>
      <trkpt lat="43.31818" lon="-3.1375">
        <ele>209.6</ele>
        <time>2021-10-28 09:30:44</time>
      </trkpt>
      <trkpt lat="43.3182" lon="-3.13754">
        <ele>209.8</ele>
        <time>2021-10-28 09:30:45</time>
      </trkpt>
      <trkpt lat="43.31819" lon="-3.13758">
        <ele>209.8</ele>
        <time>2021-10-28 09:30:46</time>
      </trkpt>
      <trkpt lat="43.31819" lon="-3.13758">
        <ele>210</ele>
        <time>2021-10-28 09:30:47</time>
      </trkpt>
      <trkpt lat="43.31819" lon="-3.13758">
        <ele>210.2</ele>
        <time>2021-10-28 09:30:48</time>
      </trkpt>
      <trkpt lat="43.31817" lon="-3.13761">
        <ele>210.4</ele>
        <time>2021-10-28 09:30:49</time>
      </trkpt>
      <trkpt lat="43.31817" lon="-3.13761">
        <ele>210.6</ele>
        <time>2021-10-28 09:30:50</time>
      </trkpt>
      <trkpt lat="43.31817" lon="-3.13765">
        <ele>210.8</ele>
        <time>2021-10-28 09:30:51</time>
      </trkpt>
      <trkpt lat="43.31814" lon="-3.13771">
        <ele>210.8</ele>
        <time>2021-10-28 09:30:52</time>
      </trkpt>
      <trkpt lat="43.31812" lon="-3.13776">
        <ele>211</ele>
        <time>2021-10-28 09:30:53</time>
      </trkpt>
      <trkpt lat="43.31812" lon="-3.13776">
        <ele>211</ele>
        <time>2021-10-28 09:30:54</time>
      </trkpt>
      <trkpt lat="43.31812" lon="-3.13776">
        <ele>211</ele>
        <time>2021-10-28 09:30:55</time>
      </trkpt>
      <trkpt lat="43.31812" lon="-3.13776">
        <ele>211</ele>
        <time>2021-10-28 09:30:56</time>
      </trkpt>
      <trkpt lat="43.31811" lon="-3.13778">
        <ele>211.2</ele>
        <time>2021-10-28 09:30:57</time>
      </trkpt>
      <trkpt lat="43.3181" lon="-3.13784">
        <ele>211.2</ele>
        <time>2021-10-28 09:30:58</time>
      </trkpt>
      <trkpt lat="43.3181" lon="-3.13784">
        <ele>211.4</ele>
        <time>2021-10-28 09:30:59</time>
      </trkpt>
      <trkpt lat="43.3181" lon="-3.13784">
        <ele>211.4</ele>
        <time>2021-10-28 09:31:00</time>
      </trkpt>
      <trkpt lat="43.3181" lon="-3.13787">
        <ele>211.4</ele>
        <time>2021-10-28 09:31:01</time>
      </trkpt>
      <trkpt lat="43.3181" lon="-3.13787">
        <ele>211.4</ele>
        <time>2021-10-28 09:31:02</time>
      </trkpt>
      <trkpt lat="43.31805" lon="-3.13792">
        <ele>211.6</ele>
        <time>2021-10-28 09:31:03</time>
      </trkpt>
      <trkpt lat="43.31805" lon="-3.13792">
        <ele>211.6</ele>
        <time>2021-10-28 09:31:04</time>
      </trkpt>
      <trkpt lat="43.31803" lon="-3.13797">
        <ele>211.6</ele>
        <time>2021-10-28 09:31:05</time>
      </trkpt>
      <trkpt lat="43.31803" lon="-3.13797">
        <ele>211.4</ele>
        <time>2021-10-28 09:31:06</time>
      </trkpt>
      <trkpt lat="43.31803" lon="-3.13797">
        <ele>211.6</ele>
        <time>2021-10-28 09:31:07</time>
      </trkpt>
      <trkpt lat="43.31806" lon="-3.13804">
        <ele>211.8</ele>
        <time>2021-10-28 09:31:08</time>
      </trkpt>
      <trkpt lat="43.31806" lon="-3.13804">
        <ele>212</ele>
        <time>2021-10-28 09:31:09</time>
      </trkpt>
      <trkpt lat="43.31802" lon="-3.13812">
        <ele>212.4</ele>
        <time>2021-10-28 09:31:10</time>
      </trkpt>
      <trkpt lat="43.31802" lon="-3.13812">
        <ele>212.6</ele>
        <time>2021-10-28 09:31:11</time>
      </trkpt>
      <trkpt lat="43.31798" lon="-3.13818">
        <ele>212.8</ele>
        <time>2021-10-28 09:31:12</time>
      </trkpt>
      <trkpt lat="43.31797" lon="-3.13819">
        <ele>213</ele>
        <time>2021-10-28 09:31:13</time>
      </trkpt>
      <trkpt lat="43.31797" lon="-3.13819">
        <ele>213.4</ele>
        <time>2021-10-28 09:31:14</time>
      </trkpt>
      <trkpt lat="43.31799" lon="-3.13817">
        <ele>213.6</ele>
        <time>2021-10-28 09:31:15</time>
      </trkpt>
      <trkpt lat="43.31799" lon="-3.13817">
        <ele>213.6</ele>
        <time>2021-10-28 09:31:16</time>
      </trkpt>
      <trkpt lat="43.31798" lon="-3.13823">
        <ele>213.6</ele>
        <time>2021-10-28 09:31:17</time>
      </trkpt>
      <trkpt lat="43.31798" lon="-3.13823">
        <ele>213.8</ele>
        <time>2021-10-28 09:31:18</time>
      </trkpt>
      <trkpt lat="43.31798" lon="-3.13823">
        <ele>214</ele>
        <time>2021-10-28 09:31:19</time>
      </trkpt>
      <trkpt lat="43.31796" lon="-3.13828">
        <ele>214.2</ele>
        <time>2021-10-28 09:31:20</time>
      </trkpt>
      <trkpt lat="43.31791" lon="-3.13837">
        <ele>214.2</ele>
        <time>2021-10-28 09:31:21</time>
      </trkpt>
      <trkpt lat="43.31793" lon="-3.13845">
        <ele>214.6</ele>
        <time>2021-10-28 09:31:22</time>
      </trkpt>
      <trkpt lat="43.31793" lon="-3.13845">
        <ele>214.8</ele>
        <time>2021-10-28 09:31:23</time>
      </trkpt>
      <trkpt lat="43.318" lon="-3.13843">
        <ele>215.2</ele>
        <time>2021-10-28 09:31:24</time>
      </trkpt>
      <trkpt lat="43.318" lon="-3.13843">
        <ele>215.6</ele>
        <time>2021-10-28 09:31:25</time>
      </trkpt>
      <trkpt lat="43.318" lon="-3.13843">
        <ele>216</ele>
        <time>2021-10-28 09:31:26</time>
      </trkpt>
      <trkpt lat="43.318" lon="-3.13846">
        <ele>216.2</ele>
        <time>2021-10-28 09:31:27</time>
      </trkpt>
      <trkpt lat="43.318" lon="-3.13846">
        <ele>216.2</ele>
        <time>2021-10-28 09:31:28</time>
      </trkpt>
      <trkpt lat="43.31798" lon="-3.13856">
        <ele>216</ele>
        <time>2021-10-28 09:31:29</time>
      </trkpt>
      <trkpt lat="43.31798" lon="-3.13856">
        <ele>215.8</ele>
        <time>2021-10-28 09:31:30</time>
      </trkpt>
      <trkpt lat="43.31798" lon="-3.13857">
        <ele>215.6</ele>
        <time>2021-10-28 09:31:31</time>
      </trkpt>
      <trkpt lat="43.31791" lon="-3.1387">
        <ele>215.4</ele>
        <time>2021-10-28 09:31:32</time>
      </trkpt>
      <trkpt lat="43.31791" lon="-3.1387">
        <ele>215.2</ele>
        <time>2021-10-28 09:31:33</time>
      </trkpt>
      <trkpt lat="43.31789" lon="-3.13868">
        <ele>215.2</ele>
        <time>2021-10-28 09:31:34</time>
      </trkpt>
      <trkpt lat="43.31783" lon="-3.13876">
        <ele>215.2</ele>
        <time>2021-10-28 09:31:35</time>
      </trkpt>
      <trkpt lat="43.31783" lon="-3.13876">
        <ele>215</ele>
        <time>2021-10-28 09:31:36</time>
      </trkpt>
      <trkpt lat="43.31783" lon="-3.13876">
        <ele>215</ele>
        <time>2021-10-28 09:31:37</time>
      </trkpt>
      <trkpt lat="43.31783" lon="-3.13876">
        <ele>215</ele>
        <time>2021-10-28 09:31:38</time>
      </trkpt>
      <trkpt lat="43.31783" lon="-3.13876">
        <ele>215</ele>
        <time>2021-10-28 09:31:39</time>
      </trkpt>
      <trkpt lat="43.31783" lon="-3.13876">
        <ele>215.2</ele>
        <time>2021-10-28 09:31:40</time>
      </trkpt>
      <trkpt lat="43.31783" lon="-3.13876">
        <ele>215.6</ele>
        <time>2021-10-28 09:31:41</time>
      </trkpt>
      <trkpt lat="43.31783" lon="-3.13876">
        <ele>215.8</ele>
        <time>2021-10-28 09:31:42</time>
      </trkpt>
      <trkpt lat="43.31783" lon="-3.13876">
        <ele>216.2</ele>
        <time>2021-10-28 09:31:43</time>
      </trkpt>
      <trkpt lat="43.31783" lon="-3.13876">
        <ele>216.4</ele>
        <time>2021-10-28 09:31:44</time>
      </trkpt>
      <trkpt lat="43.31783" lon="-3.13876">
        <ele>216.4</ele>
        <time>2021-10-28 09:31:45</time>
      </trkpt>
      <trkpt lat="43.31783" lon="-3.13876">
        <ele>216.8</ele>
        <time>2021-10-28 09:31:46</time>
      </trkpt>
      <trkpt lat="43.31783" lon="-3.13876">
        <ele>217.2</ele>
        <time>2021-10-28 09:31:47</time>
      </trkpt>
      <trkpt lat="43.31772" lon="-3.13904">
        <ele>219</ele>
        <time>2021-10-28 09:31:48</time>
      </trkpt>
      <trkpt lat="43.31769" lon="-3.13908">
        <ele>219.2</ele>
        <time>2021-10-28 09:31:49</time>
      </trkpt>
      <trkpt lat="43.31769" lon="-3.13908">
        <ele>219.4</ele>
        <time>2021-10-28 09:31:50</time>
      </trkpt>
      <trkpt lat="43.31769" lon="-3.13908">
        <ele>219.4</ele>
        <time>2021-10-28 09:31:51</time>
      </trkpt>
      <trkpt lat="43.31766" lon="-3.13912">
        <ele>219.6</ele>
        <time>2021-10-28 09:31:52</time>
      </trkpt>
      <trkpt lat="43.31766" lon="-3.13912">
        <ele>219.6</ele>
        <time>2021-10-28 09:31:53</time>
      </trkpt>
      <trkpt lat="43.31762" lon="-3.13915">
        <ele>219.8</ele>
        <time>2021-10-28 09:31:54</time>
      </trkpt>
      <trkpt lat="43.31762" lon="-3.13915">
        <ele>219.8</ele>
        <time>2021-10-28 09:31:55</time>
      </trkpt>
      <trkpt lat="43.31762" lon="-3.13915">
        <ele>220</ele>
        <time>2021-10-28 09:31:56</time>
      </trkpt>
      <trkpt lat="43.31757" lon="-3.13922">
        <ele>220.4</ele>
        <time>2021-10-28 09:31:57</time>
      </trkpt>
      <trkpt lat="43.31757" lon="-3.13922">
        <ele>220.8</ele>
        <time>2021-10-28 09:31:58</time>
      </trkpt>
      <trkpt lat="43.31759" lon="-3.13924">
        <ele>221.2</ele>
        <time>2021-10-28 09:31:59</time>
      </trkpt>
      <trkpt lat="43.31758" lon="-3.13926">
        <ele>221.4</ele>
        <time>2021-10-28 09:32:00</time>
      </trkpt>
      <trkpt lat="43.31749" lon="-3.13932">
        <ele>221.8</ele>
        <time>2021-10-28 09:32:01</time>
      </trkpt>
      <trkpt lat="43.31749" lon="-3.13932">
        <ele>222.4</ele>
        <time>2021-10-28 09:32:02</time>
      </trkpt>
      <trkpt lat="43.31749" lon="-3.13932">
        <ele>222.6</ele>
        <time>2021-10-28 09:32:03</time>
      </trkpt>
      <trkpt lat="43.31746" lon="-3.13937">
        <ele>222.8</ele>
        <time>2021-10-28 09:32:04</time>
      </trkpt>
      <trkpt lat="43.31746" lon="-3.13937">
        <ele>222.8</ele>
        <time>2021-10-28 09:32:05</time>
      </trkpt>
      <trkpt lat="43.31746" lon="-3.13937">
        <ele>222.4</ele>
        <time>2021-10-28 09:32:06</time>
      </trkpt>
      <trkpt lat="43.31739" lon="-3.1396">
        <ele>221.2</ele>
        <time>2021-10-28 09:32:07</time>
      </trkpt>
      <trkpt lat="43.31739" lon="-3.1396">
        <ele>221</ele>
        <time>2021-10-28 09:32:08</time>
      </trkpt>
      <trkpt lat="43.31738" lon="-3.13968">
        <ele>221</ele>
        <time>2021-10-28 09:32:09</time>
      </trkpt>
      <trkpt lat="43.31738" lon="-3.13971">
        <ele>221</ele>
        <time>2021-10-28 09:32:10</time>
      </trkpt>
      <trkpt lat="43.31738" lon="-3.13975">
        <ele>220.6</ele>
        <time>2021-10-28 09:32:11</time>
      </trkpt>
      <trkpt lat="43.31738" lon="-3.13975">
        <ele>220.6</ele>
        <time>2021-10-28 09:32:12</time>
      </trkpt>
      <trkpt lat="43.31737" lon="-3.13983">
        <ele>220.4</ele>
        <time>2021-10-28 09:32:13</time>
      </trkpt>
      <trkpt lat="43.31737" lon="-3.13983">
        <ele>220</ele>
        <time>2021-10-28 09:32:14</time>
      </trkpt>
      <trkpt lat="43.31734" lon="-3.13992">
        <ele>220</ele>
        <time>2021-10-28 09:32:15</time>
      </trkpt>
      <trkpt lat="43.31734" lon="-3.13992">
        <ele>219.8</ele>
        <time>2021-10-28 09:32:16</time>
      </trkpt>
      <trkpt lat="43.31734" lon="-3.13992">
        <ele>219.6</ele>
        <time>2021-10-28 09:32:17</time>
      </trkpt>
      <trkpt lat="43.31734" lon="-3.13996">
        <ele>219.4</ele>
        <time>2021-10-28 09:32:18</time>
      </trkpt>
      <trkpt lat="43.31734" lon="-3.13998">
        <ele>219.4</ele>
        <time>2021-10-28 09:32:19</time>
      </trkpt>
      <trkpt lat="43.31734" lon="-3.14">
        <ele>219.2</ele>
        <time>2021-10-28 09:32:20</time>
      </trkpt>
      <trkpt lat="43.31734" lon="-3.14005">
        <ele>219</ele>
        <time>2021-10-28 09:32:21</time>
      </trkpt>
      <trkpt lat="43.31732" lon="-3.14009">
        <ele>219</ele>
        <time>2021-10-28 09:32:22</time>
      </trkpt>
      <trkpt lat="43.31732" lon="-3.14009">
        <ele>219.2</ele>
        <time>2021-10-28 09:32:23</time>
      </trkpt>
      <trkpt lat="43.31732" lon="-3.14009">
        <ele>219.4</ele>
        <time>2021-10-28 09:32:24</time>
      </trkpt>
      <trkpt lat="43.31733" lon="-3.14012">
        <ele>219.6</ele>
        <time>2021-10-28 09:32:25</time>
      </trkpt>
      <trkpt lat="43.31733" lon="-3.14012">
        <ele>219.6</ele>
        <time>2021-10-28 09:32:26</time>
      </trkpt>
      <trkpt lat="43.31732" lon="-3.14015">
        <ele>220</ele>
        <time>2021-10-28 09:32:27</time>
      </trkpt>
      <trkpt lat="43.31732" lon="-3.14015">
        <ele>220.2</ele>
        <time>2021-10-28 09:32:28</time>
      </trkpt>
      <trkpt lat="43.31733" lon="-3.14019">
        <ele>220.6</ele>
        <time>2021-10-28 09:32:29</time>
      </trkpt>
      <trkpt lat="43.31732" lon="-3.14021">
        <ele>220.8</ele>
        <time>2021-10-28 09:32:30</time>
      </trkpt>
      <trkpt lat="43.31732" lon="-3.14021">
        <ele>221.2</ele>
        <time>2021-10-28 09:32:31</time>
      </trkpt>
      <trkpt lat="43.31732" lon="-3.14021">
        <ele>221.4</ele>
        <time>2021-10-28 09:32:32</time>
      </trkpt>
      <trkpt lat="43.31732" lon="-3.14025">
        <ele>221.6</ele>
        <time>2021-10-28 09:32:33</time>
      </trkpt>
      <trkpt lat="43.31732" lon="-3.14028">
        <ele>221.6</ele>
        <time>2021-10-28 09:32:34</time>
      </trkpt>
      <trkpt lat="43.31732" lon="-3.14028">
        <ele>221.6</ele>
        <time>2021-10-28 09:32:35</time>
      </trkpt>
      <trkpt lat="43.31732" lon="-3.14028">
        <ele>221.6</ele>
        <time>2021-10-28 09:32:36</time>
      </trkpt>
      <trkpt lat="43.31734" lon="-3.1403">
        <ele>221.6</ele>
        <time>2021-10-28 09:32:37</time>
      </trkpt>
      <trkpt lat="43.31734" lon="-3.1403">
        <ele>221.8</ele>
        <time>2021-10-28 09:32:38</time>
      </trkpt>
      <trkpt lat="43.31734" lon="-3.14033">
        <ele>222</ele>
        <time>2021-10-28 09:32:39</time>
      </trkpt>
      <trkpt lat="43.31734" lon="-3.14033">
        <ele>222.4</ele>
        <time>2021-10-28 09:32:40</time>
      </trkpt>
      <trkpt lat="43.31737" lon="-3.14037">
        <ele>222.6</ele>
        <time>2021-10-28 09:32:41</time>
      </trkpt>
      <trkpt lat="43.31737" lon="-3.14037">
        <ele>223</ele>
        <time>2021-10-28 09:32:42</time>
      </trkpt>
      <trkpt lat="43.31738" lon="-3.14039">
        <ele>223.2</ele>
        <time>2021-10-28 09:32:43</time>
      </trkpt>
      <trkpt lat="43.31738" lon="-3.14039">
        <ele>223.6</ele>
        <time>2021-10-28 09:32:44</time>
      </trkpt>
      <trkpt lat="43.31738" lon="-3.14039">
        <ele>223.8</ele>
        <time>2021-10-28 09:32:45</time>
      </trkpt>
      <trkpt lat="43.31738" lon="-3.14042">
        <ele>224</ele>
        <time>2021-10-28 09:32:46</time>
      </trkpt>
      <trkpt lat="43.31738" lon="-3.14047">
        <ele>224.4</ele>
        <time>2021-10-28 09:32:47</time>
      </trkpt>
      <trkpt lat="43.31738" lon="-3.14047">
        <ele>224.8</ele>
        <time>2021-10-28 09:32:48</time>
      </trkpt>
      <trkpt lat="43.31738" lon="-3.14049">
        <ele>225</ele>
        <time>2021-10-28 09:32:49</time>
      </trkpt>
      <trkpt lat="43.31738" lon="-3.14049">
        <ele>225.2</ele>
        <time>2021-10-28 09:32:50</time>
      </trkpt>
      <trkpt lat="43.31738" lon="-3.14049">
        <ele>225.2</ele>
        <time>2021-10-28 09:32:51</time>
      </trkpt>
      <trkpt lat="43.31739" lon="-3.14049">
        <ele>225.4</ele>
        <time>2021-10-28 09:32:52</time>
      </trkpt>
      <trkpt lat="43.31739" lon="-3.14052">
        <ele>225.6</ele>
        <time>2021-10-28 09:32:53</time>
      </trkpt>
      <trkpt lat="43.31739" lon="-3.14052">
        <ele>225.8</ele>
        <time>2021-10-28 09:32:54</time>
      </trkpt>
      <trkpt lat="43.31739" lon="-3.14052">
        <ele>226</ele>
        <time>2021-10-28 09:32:55</time>
      </trkpt>
      <trkpt lat="43.31738" lon="-3.14057">
        <ele>226.4</ele>
        <time>2021-10-28 09:32:56</time>
      </trkpt>
      <trkpt lat="43.31738" lon="-3.14057">
        <ele>226.6</ele>
        <time>2021-10-28 09:32:57</time>
      </trkpt>
      <trkpt lat="43.31738" lon="-3.14059">
        <ele>227</ele>
        <time>2021-10-28 09:32:58</time>
      </trkpt>
      <trkpt lat="43.31741" lon="-3.1407">
        <ele>228</ele>
        <time>2021-10-28 09:32:59</time>
      </trkpt>
      <trkpt lat="43.31745" lon="-3.14069">
        <ele>228</ele>
        <time>2021-10-28 09:33:00</time>
      </trkpt>
      <trkpt lat="43.31745" lon="-3.14069">
        <ele>228.2</ele>
        <time>2021-10-28 09:33:01</time>
      </trkpt>
      <trkpt lat="43.31743" lon="-3.14071">
        <ele>228.4</ele>
        <time>2021-10-28 09:33:02</time>
      </trkpt>
      <trkpt lat="43.31743" lon="-3.14069">
        <ele>228.6</ele>
        <time>2021-10-28 09:33:03</time>
      </trkpt>
      <trkpt lat="43.31743" lon="-3.14069">
        <ele>229.2</ele>
        <time>2021-10-28 09:33:04</time>
      </trkpt>
      <trkpt lat="43.31743" lon="-3.14069">
        <ele>229.6</ele>
        <time>2021-10-28 09:33:05</time>
      </trkpt>
      <trkpt lat="43.31743" lon="-3.14071">
        <ele>230.2</ele>
        <time>2021-10-28 09:33:06</time>
      </trkpt>
      <trkpt lat="43.3174" lon="-3.14078">
        <ele>230.4</ele>
        <time>2021-10-28 09:33:07</time>
      </trkpt>
      <trkpt lat="43.31738" lon="-3.1408">
        <ele>230.6</ele>
        <time>2021-10-28 09:33:08</time>
      </trkpt>
      <trkpt lat="43.31738" lon="-3.1408">
        <ele>230.6</ele>
        <time>2021-10-28 09:33:09</time>
      </trkpt>
      <trkpt lat="43.31736" lon="-3.14094">
        <ele>231.2</ele>
        <time>2021-10-28 09:33:10</time>
      </trkpt>
      <trkpt lat="43.31736" lon="-3.14094">
        <ele>231.6</ele>
        <time>2021-10-28 09:33:11</time>
      </trkpt>
      <trkpt lat="43.31736" lon="-3.14097">
        <ele>231.8</ele>
        <time>2021-10-28 09:33:12</time>
      </trkpt>
      <trkpt lat="43.31736" lon="-3.14097">
        <ele>232</ele>
        <time>2021-10-28 09:33:13</time>
      </trkpt>
      <trkpt lat="43.31744" lon="-3.14095">
        <ele>232</ele>
        <time>2021-10-28 09:33:14</time>
      </trkpt>
      <trkpt lat="43.31744" lon="-3.14095">
        <ele>232</ele>
        <time>2021-10-28 09:33:15</time>
      </trkpt>
      <trkpt lat="43.3174" lon="-3.14098">
        <ele>232</ele>
        <time>2021-10-28 09:33:16</time>
      </trkpt>
      <trkpt lat="43.3174" lon="-3.14098">
        <ele>232.2</ele>
        <time>2021-10-28 09:33:17</time>
      </trkpt>
      <trkpt lat="43.3174" lon="-3.14098">
        <ele>232.6</ele>
        <time>2021-10-28 09:33:18</time>
      </trkpt>
      <trkpt lat="43.3174" lon="-3.14098">
        <ele>232.8</ele>
        <time>2021-10-28 09:33:19</time>
      </trkpt>
      <trkpt lat="43.31741" lon="-3.14099">
        <ele>232.8</ele>
        <time>2021-10-28 09:33:24</time>
      </trkpt>
      <trkpt lat="43.31739" lon="-3.14101">
        <ele>232.8</ele>
        <time>2021-10-28 09:33:25</time>
      </trkpt>
      <trkpt lat="43.31736" lon="-3.14105">
        <ele>232.8</ele>
        <time>2021-10-28 09:33:26</time>
      </trkpt>
      <trkpt lat="43.31735" lon="-3.14107">
        <ele>232.6</ele>
        <time>2021-10-28 09:33:27</time>
      </trkpt>
      <trkpt lat="43.31733" lon="-3.14107">
        <ele>232.4</ele>
        <time>2021-10-28 09:33:28</time>
      </trkpt>
      <trkpt lat="43.31733" lon="-3.14107">
        <ele>232.4</ele>
        <time>2021-10-28 09:33:29</time>
      </trkpt>
      <trkpt lat="43.31735" lon="-3.14106">
        <ele>232.2</ele>
        <time>2021-10-28 09:33:30</time>
      </trkpt>
      <trkpt lat="43.31734" lon="-3.14108">
        <ele>232</ele>
        <time>2021-10-28 09:33:31</time>
      </trkpt>
      <trkpt lat="43.31736" lon="-3.14145">
        <ele>234.4</ele>
        <time>2021-10-28 09:33:32</time>
      </trkpt>
      <trkpt lat="43.31736" lon="-3.14145">
        <ele>234.6</ele>
        <time>2021-10-28 09:33:33</time>
      </trkpt>
      <trkpt lat="43.31735" lon="-3.14154">
        <ele>234.8</ele>
        <time>2021-10-28 09:33:34</time>
      </trkpt>
      <trkpt lat="43.31735" lon="-3.14154">
        <ele>235</ele>
        <time>2021-10-28 09:33:41</time>
      </trkpt>
      <trkpt lat="43.31735" lon="-3.14154">
        <ele>235</ele>
        <time>2021-10-28 09:33:42</time>
      </trkpt>
      <trkpt lat="43.31735" lon="-3.14157">
        <ele>235.2</ele>
        <time>2021-10-28 09:33:43</time>
      </trkpt>
      <trkpt lat="43.31735" lon="-3.14157">
        <ele>235.4</ele>
        <time>2021-10-28 09:33:44</time>
      </trkpt>
      <trkpt lat="43.31738" lon="-3.14158">
        <ele>235.6</ele>
        <time>2021-10-28 09:33:45</time>
      </trkpt>
      <trkpt lat="43.31738" lon="-3.14158">
        <ele>235.6</ele>
        <time>2021-10-28 09:33:46</time>
      </trkpt>
      <trkpt lat="43.3174" lon="-3.14163">
        <ele>235.8</ele>
        <time>2021-10-28 09:33:47</time>
      </trkpt>
      <trkpt lat="43.3174" lon="-3.14163">
        <ele>236</ele>
        <time>2021-10-28 09:33:48</time>
      </trkpt>
      <trkpt lat="43.3174" lon="-3.14163">
        <ele>236.2</ele>
        <time>2021-10-28 09:33:49</time>
      </trkpt>
      <trkpt lat="43.31739" lon="-3.14165">
        <ele>236.4</ele>
        <time>2021-10-28 09:33:50</time>
      </trkpt>
      <trkpt lat="43.31743" lon="-3.14166">
        <ele>236.6</ele>
        <time>2021-10-28 09:33:51</time>
      </trkpt>
      <trkpt lat="43.31743" lon="-3.14166">
        <ele>236.6</ele>
        <time>2021-10-28 09:33:52</time>
      </trkpt>
      <trkpt lat="43.31743" lon="-3.14168">
        <ele>236.8</ele>
        <time>2021-10-28 09:33:53</time>
      </trkpt>
      <trkpt lat="43.31744" lon="-3.1417">
        <ele>236.8</ele>
        <time>2021-10-28 09:33:54</time>
      </trkpt>
      <trkpt lat="43.31744" lon="-3.1417">
        <ele>236.8</ele>
        <time>2021-10-28 09:33:55</time>
      </trkpt>
      <trkpt lat="43.31744" lon="-3.1417">
        <ele>236.8</ele>
        <time>2021-10-28 09:33:56</time>
      </trkpt>
      <trkpt lat="43.31745" lon="-3.14166">
        <ele>236.6</ele>
        <time>2021-10-28 09:33:57</time>
      </trkpt>
      <trkpt lat="43.31745" lon="-3.14166">
        <ele>236.6</ele>
        <time>2021-10-28 09:33:58</time>
      </trkpt>
      <trkpt lat="43.31745" lon="-3.14166">
        <ele>236.4</ele>
        <time>2021-10-28 09:34:16</time>
      </trkpt>
      <trkpt lat="43.31742" lon="-3.14171">
        <ele>236.4</ele>
        <time>2021-10-28 09:34:17</time>
      </trkpt>
      <trkpt lat="43.3174" lon="-3.14177">
        <ele>236.2</ele>
        <time>2021-10-28 09:34:18</time>
      </trkpt>
      <trkpt lat="43.31739" lon="-3.14178">
        <ele>236.2</ele>
        <time>2021-10-28 09:34:19</time>
      </trkpt>
      <trkpt lat="43.31744" lon="-3.14196">
        <ele>238.8</ele>
        <time>2021-10-28 09:34:20</time>
      </trkpt>
      <trkpt lat="43.31746" lon="-3.14198">
        <ele>239.2</ele>
        <time>2021-10-28 09:34:21</time>
      </trkpt>
      <trkpt lat="43.31751" lon="-3.142">
        <ele>239.6</ele>
        <time>2021-10-28 09:34:22</time>
      </trkpt>
      <trkpt lat="43.31751" lon="-3.142">
        <ele>239.8</ele>
        <time>2021-10-28 09:34:23</time>
      </trkpt>
      <trkpt lat="43.31751" lon="-3.142">
        <ele>240</ele>
        <time>2021-10-28 09:34:24</time>
      </trkpt>
      <trkpt lat="43.31754" lon="-3.14199">
        <ele>240</ele>
        <time>2021-10-28 09:34:25</time>
      </trkpt>
      <trkpt lat="43.31752" lon="-3.14206">
        <ele>239.8</ele>
        <time>2021-10-28 09:34:26</time>
      </trkpt>
      <trkpt lat="43.31756" lon="-3.14211">
        <ele>239.8</ele>
        <time>2021-10-28 09:34:27</time>
      </trkpt>
      <trkpt lat="43.31756" lon="-3.14211">
        <ele>239.8</ele>
        <time>2021-10-28 09:34:28</time>
      </trkpt>
      <trkpt lat="43.31756" lon="-3.14211">
        <ele>239.8</ele>
        <time>2021-10-28 09:34:29</time>
      </trkpt>
      <trkpt lat="43.31756" lon="-3.14211">
        <ele>239.6</ele>
        <time>2021-10-28 09:34:30</time>
      </trkpt>
      <trkpt lat="43.31759" lon="-3.14218">
        <ele>239.4</ele>
        <time>2021-10-28 09:34:31</time>
      </trkpt>
      <trkpt lat="43.31756" lon="-3.14226">
        <ele>239.2</ele>
        <time>2021-10-28 09:34:32</time>
      </trkpt>
      <trkpt lat="43.31756" lon="-3.14226">
        <ele>239</ele>
        <time>2021-10-28 09:34:33</time>
      </trkpt>
      <trkpt lat="43.31756" lon="-3.14226">
        <ele>239</ele>
        <time>2021-10-28 09:34:34</time>
      </trkpt>
      <trkpt lat="43.31756" lon="-3.14226">
        <ele>238.8</ele>
        <time>2021-10-28 09:34:35</time>
      </trkpt>
      <trkpt lat="43.31757" lon="-3.14228">
        <ele>238.8</ele>
        <time>2021-10-28 09:34:36</time>
      </trkpt>
      <trkpt lat="43.31753" lon="-3.14234">
        <ele>238.8</ele>
        <time>2021-10-28 09:34:37</time>
      </trkpt>
      <trkpt lat="43.31751" lon="-3.14244">
        <ele>238.8</ele>
        <time>2021-10-28 09:34:38</time>
      </trkpt>
      <trkpt lat="43.31751" lon="-3.1425">
        <ele>239</ele>
        <time>2021-10-28 09:34:39</time>
      </trkpt>
      <trkpt lat="43.31751" lon="-3.1425">
        <ele>239.6</ele>
        <time>2021-10-28 09:34:40</time>
      </trkpt>
      <trkpt lat="43.31751" lon="-3.1425">
        <ele>240.2</ele>
        <time>2021-10-28 09:34:49</time>
      </trkpt>
      <trkpt lat="43.31751" lon="-3.14254">
        <ele>240.4</ele>
        <time>2021-10-28 09:34:50</time>
      </trkpt>
      <trkpt lat="43.31751" lon="-3.14254">
        <ele>240.8</ele>
        <time>2021-10-28 09:34:51</time>
      </trkpt>
      <trkpt lat="43.31747" lon="-3.14259">
        <ele>241.2</ele>
        <time>2021-10-28 09:34:52</time>
      </trkpt>
      <trkpt lat="43.31749" lon="-3.14261">
        <ele>241.8</ele>
        <time>2021-10-28 09:34:53</time>
      </trkpt>
      <trkpt lat="43.31756" lon="-3.14261">
        <ele>242.4</ele>
        <time>2021-10-28 09:34:54</time>
      </trkpt>
      <trkpt lat="43.31756" lon="-3.14261">
        <ele>243.2</ele>
        <time>2021-10-28 09:34:55</time>
      </trkpt>
      <trkpt lat="43.31756" lon="-3.14261">
        <ele>243.8</ele>
        <time>2021-10-28 09:34:56</time>
      </trkpt>
      <trkpt lat="43.31754" lon="-3.14269">
        <ele>244.4</ele>
        <time>2021-10-28 09:34:57</time>
      </trkpt>
      <trkpt lat="43.31754" lon="-3.14269">
        <ele>244.8</ele>
        <time>2021-10-28 09:34:58</time>
      </trkpt>
      <trkpt lat="43.31759" lon="-3.14271">
        <ele>245</ele>
        <time>2021-10-28 09:34:59</time>
      </trkpt>
      <trkpt lat="43.31759" lon="-3.14271">
        <ele>245</ele>
        <time>2021-10-28 09:35:00</time>
      </trkpt>
      <trkpt lat="43.31759" lon="-3.14277">
        <ele>245</ele>
        <time>2021-10-28 09:35:01</time>
      </trkpt>
      <trkpt lat="43.3176" lon="-3.14277">
        <ele>244.8</ele>
        <time>2021-10-28 09:35:02</time>
      </trkpt>
      <trkpt lat="43.3176" lon="-3.14277">
        <ele>244.8</ele>
        <time>2021-10-28 09:35:03</time>
      </trkpt>
      <trkpt lat="43.31761" lon="-3.1428">
        <ele>245</ele>
        <time>2021-10-28 09:35:04</time>
      </trkpt>
      <trkpt lat="43.31764" lon="-3.14285">
        <ele>245.4</ele>
        <time>2021-10-28 09:35:05</time>
      </trkpt>
      <trkpt lat="43.31771" lon="-3.14284">
        <ele>245.8</ele>
        <time>2021-10-28 09:35:06</time>
      </trkpt>
      <trkpt lat="43.31771" lon="-3.14284">
        <ele>246.4</ele>
        <time>2021-10-28 09:35:07</time>
      </trkpt>
      <trkpt lat="43.31771" lon="-3.14284">
        <ele>246.8</ele>
        <time>2021-10-28 09:35:08</time>
      </trkpt>
      <trkpt lat="43.31771" lon="-3.14287">
        <ele>247.2</ele>
        <time>2021-10-28 09:35:09</time>
      </trkpt>
      <trkpt lat="43.3177" lon="-3.14291">
        <ele>247.4</ele>
        <time>2021-10-28 09:35:10</time>
      </trkpt>
      <trkpt lat="43.3177" lon="-3.14291">
        <ele>247.6</ele>
        <time>2021-10-28 09:35:11</time>
      </trkpt>
      <trkpt lat="43.3177" lon="-3.14291">
        <ele>247.6</ele>
        <time>2021-10-28 09:35:12</time>
      </trkpt>
      <trkpt lat="43.31773" lon="-3.14301">
        <ele>247.8</ele>
        <time>2021-10-28 09:35:13</time>
      </trkpt>
      <trkpt lat="43.31773" lon="-3.14301">
        <ele>248</ele>
        <time>2021-10-28 09:35:14</time>
      </trkpt>
      <trkpt lat="43.31773" lon="-3.14302">
        <ele>248.2</ele>
        <time>2021-10-28 09:35:15</time>
      </trkpt>
      <trkpt lat="43.31773" lon="-3.14302">
        <ele>248.2</ele>
        <time>2021-10-28 09:35:16</time>
      </trkpt>
      <trkpt lat="43.31773" lon="-3.14302">
        <ele>248.4</ele>
        <time>2021-10-28 09:35:17</time>
      </trkpt>
      <trkpt lat="43.31769" lon="-3.14315">
        <ele>248.4</ele>
        <time>2021-10-28 09:35:18</time>
      </trkpt>
      <trkpt lat="43.31769" lon="-3.14315">
        <ele>248.4</ele>
        <time>2021-10-28 09:35:19</time>
      </trkpt>
      <trkpt lat="43.31772" lon="-3.14316">
        <ele>248.4</ele>
        <time>2021-10-28 09:35:20</time>
      </trkpt>
      <trkpt lat="43.31771" lon="-3.14322">
        <ele>248.6</ele>
        <time>2021-10-28 09:35:21</time>
      </trkpt>
      <trkpt lat="43.31771" lon="-3.14322">
        <ele>248.8</ele>
        <time>2021-10-28 09:35:22</time>
      </trkpt>
      <trkpt lat="43.31773" lon="-3.14323">
        <ele>249</ele>
        <time>2021-10-28 09:35:23</time>
      </trkpt>
      <trkpt lat="43.31776" lon="-3.14326">
        <ele>249</ele>
        <time>2021-10-28 09:35:24</time>
      </trkpt>
      <trkpt lat="43.31776" lon="-3.14326">
        <ele>249.2</ele>
        <time>2021-10-28 09:35:25</time>
      </trkpt>
      <trkpt lat="43.31782" lon="-3.14328">
        <ele>249.2</ele>
        <time>2021-10-28 09:35:26</time>
      </trkpt>
      <trkpt lat="43.31782" lon="-3.14328">
        <ele>249.2</ele>
        <time>2021-10-28 09:35:27</time>
      </trkpt>
      <trkpt lat="43.31778" lon="-3.14338">
        <ele>249.2</ele>
        <time>2021-10-28 09:35:28</time>
      </trkpt>
      <trkpt lat="43.31778" lon="-3.14338">
        <ele>249</ele>
        <time>2021-10-28 09:35:29</time>
      </trkpt>
      <trkpt lat="43.31777" lon="-3.14341">
        <ele>249</ele>
        <time>2021-10-28 09:35:30</time>
      </trkpt>
      <trkpt lat="43.31777" lon="-3.14344">
        <ele>249</ele>
        <time>2021-10-28 09:35:31</time>
      </trkpt>
      <trkpt lat="43.31782" lon="-3.14347">
        <ele>249.6</ele>
        <time>2021-10-28 09:35:32</time>
      </trkpt>
      <trkpt lat="43.31782" lon="-3.14347">
        <ele>250.2</ele>
        <time>2021-10-28 09:35:33</time>
      </trkpt>
      <trkpt lat="43.31782" lon="-3.14347">
        <ele>250.6</ele>
        <time>2021-10-28 09:35:34</time>
      </trkpt>
      <trkpt lat="43.31782" lon="-3.14349">
        <ele>250.6</ele>
        <time>2021-10-28 09:35:35</time>
      </trkpt>
      <trkpt lat="43.31782" lon="-3.14353">
        <ele>250.6</ele>
        <time>2021-10-28 09:35:36</time>
      </trkpt>
      <trkpt lat="43.31777" lon="-3.14357">
        <ele>250</ele>
        <time>2021-10-28 09:35:37</time>
      </trkpt>
      <trkpt lat="43.31777" lon="-3.14361">
        <ele>249.8</ele>
        <time>2021-10-28 09:35:38</time>
      </trkpt>
      <trkpt lat="43.31769" lon="-3.14377">
        <ele>249.8</ele>
        <time>2021-10-28 09:35:39</time>
      </trkpt>
      <trkpt lat="43.31769" lon="-3.14377">
        <ele>249.8</ele>
        <time>2021-10-28 09:35:40</time>
      </trkpt>
      <trkpt lat="43.31769" lon="-3.14382">
        <ele>250.4</ele>
        <time>2021-10-28 09:35:41</time>
      </trkpt>
      <trkpt lat="43.31769" lon="-3.14382">
        <ele>251.4</ele>
        <time>2021-10-28 09:35:42</time>
      </trkpt>
      <trkpt lat="43.3177" lon="-3.14384">
        <ele>252.2</ele>
        <time>2021-10-28 09:35:43</time>
      </trkpt>
      <trkpt lat="43.3177" lon="-3.14388">
        <ele>252.8</ele>
        <time>2021-10-28 09:35:44</time>
      </trkpt>
      <trkpt lat="43.31772" lon="-3.14387">
        <ele>252.8</ele>
        <time>2021-10-28 09:35:45</time>
      </trkpt>
      <trkpt lat="43.31769" lon="-3.14396">
        <ele>253</ele>
        <time>2021-10-28 09:35:46</time>
      </trkpt>
      <trkpt lat="43.31769" lon="-3.14396">
        <ele>253.2</ele>
        <time>2021-10-28 09:35:47</time>
      </trkpt>
      <trkpt lat="43.31769" lon="-3.14396">
        <ele>253.2</ele>
        <time>2021-10-28 09:35:48</time>
      </trkpt>
      <trkpt lat="43.31768" lon="-3.14401">
        <ele>253.4</ele>
        <time>2021-10-28 09:35:49</time>
      </trkpt>
      <trkpt lat="43.3177" lon="-3.14402">
        <ele>253.8</ele>
        <time>2021-10-28 09:35:50</time>
      </trkpt>
      <trkpt lat="43.3177" lon="-3.14402">
        <ele>254</ele>
        <time>2021-10-28 09:35:51</time>
      </trkpt>
      <trkpt lat="43.31776" lon="-3.14395">
        <ele>254.2</ele>
        <time>2021-10-28 09:35:52</time>
      </trkpt>
      <trkpt lat="43.3178" lon="-3.14397">
        <ele>254.2</ele>
        <time>2021-10-28 09:35:53</time>
      </trkpt>
      <trkpt lat="43.31777" lon="-3.14403">
        <ele>254.4</ele>
        <time>2021-10-28 09:35:54</time>
      </trkpt>
      <trkpt lat="43.31777" lon="-3.14403">
        <ele>254.6</ele>
        <time>2021-10-28 09:35:55</time>
      </trkpt>
      <trkpt lat="43.31777" lon="-3.14403">
        <ele>255</ele>
        <time>2021-10-28 09:35:56</time>
      </trkpt>
      <trkpt lat="43.31782" lon="-3.14406">
        <ele>255.4</ele>
        <time>2021-10-28 09:35:57</time>
      </trkpt>
      <trkpt lat="43.31773" lon="-3.14422">
        <ele>255.8</ele>
        <time>2021-10-28 09:35:58</time>
      </trkpt>
      <trkpt lat="43.31773" lon="-3.14422">
        <ele>256</ele>
        <time>2021-10-28 09:35:59</time>
      </trkpt>
      <trkpt lat="43.31773" lon="-3.14422">
        <ele>256.4</ele>
        <time>2021-10-28 09:36:00</time>
      </trkpt>
      <trkpt lat="43.31776" lon="-3.14423">
        <ele>256.6</ele>
        <time>2021-10-28 09:36:01</time>
      </trkpt>
      <trkpt lat="43.31775" lon="-3.14426">
        <ele>257</ele>
        <time>2021-10-28 09:36:02</time>
      </trkpt>
      <trkpt lat="43.31775" lon="-3.14429">
        <ele>257.2</ele>
        <time>2021-10-28 09:36:03</time>
      </trkpt>
      <trkpt lat="43.3178" lon="-3.14428">
        <ele>257.4</ele>
        <time>2021-10-28 09:36:04</time>
      </trkpt>
      <trkpt lat="43.31785" lon="-3.14431">
        <ele>257.8</ele>
        <time>2021-10-28 09:36:05</time>
      </trkpt>
      <trkpt lat="43.31785" lon="-3.14431">
        <ele>258.2</ele>
        <time>2021-10-28 09:36:06</time>
      </trkpt>
      <trkpt lat="43.31785" lon="-3.14431">
        <ele>258.6</ele>
        <time>2021-10-28 09:36:07</time>
      </trkpt>
      <trkpt lat="43.31788" lon="-3.14431">
        <ele>259</ele>
        <time>2021-10-28 09:36:08</time>
      </trkpt>
      <trkpt lat="43.3179" lon="-3.1443">
        <ele>259.4</ele>
        <time>2021-10-28 09:36:09</time>
      </trkpt>
      <trkpt lat="43.31787" lon="-3.14435">
        <ele>259.8</ele>
        <time>2021-10-28 09:36:10</time>
      </trkpt>
      <trkpt lat="43.31787" lon="-3.14435">
        <ele>260.2</ele>
        <time>2021-10-28 09:36:11</time>
      </trkpt>
      <trkpt lat="43.31779" lon="-3.14451">
        <ele>260.6</ele>
        <time>2021-10-28 09:36:12</time>
      </trkpt>
      <trkpt lat="43.31779" lon="-3.14451">
        <ele>260.8</ele>
        <time>2021-10-28 09:36:13</time>
      </trkpt>
      <trkpt lat="43.31777" lon="-3.14454">
        <ele>261</ele>
        <time>2021-10-28 09:36:14</time>
      </trkpt>
      <trkpt lat="43.31778" lon="-3.14454">
        <ele>261</ele>
        <time>2021-10-28 09:36:15</time>
      </trkpt>
      <trkpt lat="43.31778" lon="-3.14454">
        <ele>261.2</ele>
        <time>2021-10-28 09:36:16</time>
      </trkpt>
      <trkpt lat="43.31779" lon="-3.14456">
        <ele>261.4</ele>
        <time>2021-10-28 09:36:17</time>
      </trkpt>
      <trkpt lat="43.3178" lon="-3.14458">
        <ele>261.4</ele>
        <time>2021-10-28 09:36:18</time>
      </trkpt>
      <trkpt lat="43.31782" lon="-3.14462">
        <ele>261.6</ele>
        <time>2021-10-28 09:36:19</time>
      </trkpt>
      <trkpt lat="43.31782" lon="-3.14462">
        <ele>261.6</ele>
        <time>2021-10-28 09:36:20</time>
      </trkpt>
      <trkpt lat="43.31785" lon="-3.14461">
        <ele>261.8</ele>
        <time>2021-10-28 09:36:21</time>
      </trkpt>
      <trkpt lat="43.31785" lon="-3.14461">
        <ele>261.8</ele>
        <time>2021-10-28 09:36:22</time>
      </trkpt>
      <trkpt lat="43.31779" lon="-3.14472">
        <ele>262</ele>
        <time>2021-10-28 09:36:23</time>
      </trkpt>
      <trkpt lat="43.31779" lon="-3.14472">
        <ele>262</ele>
        <time>2021-10-28 09:36:24</time>
      </trkpt>
      <trkpt lat="43.31782" lon="-3.14471">
        <ele>262</ele>
        <time>2021-10-28 09:36:25</time>
      </trkpt>
      <trkpt lat="43.31784" lon="-3.14472">
        <ele>262</ele>
        <time>2021-10-28 09:36:26</time>
      </trkpt>
      <trkpt lat="43.31786" lon="-3.14474">
        <ele>262.2</ele>
        <time>2021-10-28 09:36:27</time>
      </trkpt>
      <trkpt lat="43.31786" lon="-3.14474">
        <ele>262.2</ele>
        <time>2021-10-28 09:36:28</time>
      </trkpt>
      <trkpt lat="43.31783" lon="-3.14484">
        <ele>262.4</ele>
        <time>2021-10-28 09:36:29</time>
      </trkpt>
      <trkpt lat="43.31784" lon="-3.14485">
        <ele>262.4</ele>
        <time>2021-10-28 09:36:30</time>
      </trkpt>
      <trkpt lat="43.31776" lon="-3.14497">
        <ele>262.6</ele>
        <time>2021-10-28 09:36:31</time>
      </trkpt>
      <trkpt lat="43.31776" lon="-3.14497">
        <ele>262.8</ele>
        <time>2021-10-28 09:36:32</time>
      </trkpt>
      <trkpt lat="43.31776" lon="-3.14497">
        <ele>263</ele>
        <time>2021-10-28 09:36:33</time>
      </trkpt>
      <trkpt lat="43.31775" lon="-3.145">
        <ele>263.2</ele>
        <time>2021-10-28 09:36:34</time>
      </trkpt>
      <trkpt lat="43.31782" lon="-3.14498">
        <ele>263.4</ele>
        <time>2021-10-28 09:36:35</time>
      </trkpt>
      <trkpt lat="43.31782" lon="-3.14498">
        <ele>263.6</ele>
        <time>2021-10-28 09:36:36</time>
      </trkpt>
      <trkpt lat="43.3178" lon="-3.14502">
        <ele>264</ele>
        <time>2021-10-28 09:36:37</time>
      </trkpt>
      <trkpt lat="43.31782" lon="-3.14505">
        <ele>264.2</ele>
        <time>2021-10-28 09:36:38</time>
      </trkpt>
      <trkpt lat="43.31782" lon="-3.14505">
        <ele>264.4</ele>
        <time>2021-10-28 09:36:39</time>
      </trkpt>
      <trkpt lat="43.31782" lon="-3.14505">
        <ele>264.8</ele>
        <time>2021-10-28 09:36:40</time>
      </trkpt>
      <trkpt lat="43.31783" lon="-3.14507">
        <ele>265</ele>
        <time>2021-10-28 09:36:41</time>
      </trkpt>
      <trkpt lat="43.31781" lon="-3.14515">
        <ele>265.2</ele>
        <time>2021-10-28 09:36:42</time>
      </trkpt>
      <trkpt lat="43.31781" lon="-3.14515">
        <ele>265.4</ele>
        <time>2021-10-28 09:36:43</time>
      </trkpt>
      <trkpt lat="43.31783" lon="-3.14517">
        <ele>265.6</ele>
        <time>2021-10-28 09:36:44</time>
      </trkpt>
      <trkpt lat="43.31788" lon="-3.14516">
        <ele>265.8</ele>
        <time>2021-10-28 09:36:45</time>
      </trkpt>
      <trkpt lat="43.31788" lon="-3.14516">
        <ele>266</ele>
        <time>2021-10-28 09:36:46</time>
      </trkpt>
      <trkpt lat="43.31788" lon="-3.14516">
        <ele>266.2</ele>
        <time>2021-10-28 09:36:47</time>
      </trkpt>
      <trkpt lat="43.31792" lon="-3.14517">
        <ele>266.6</ele>
        <time>2021-10-28 09:36:48</time>
      </trkpt>
      <trkpt lat="43.31792" lon="-3.14517">
        <ele>267</ele>
        <time>2021-10-28 09:36:49</time>
      </trkpt>
      <trkpt lat="43.31788" lon="-3.14521">
        <ele>267.4</ele>
        <time>2021-10-28 09:36:50</time>
      </trkpt>
      <trkpt lat="43.31788" lon="-3.14521">
        <ele>267.8</ele>
        <time>2021-10-28 09:36:51</time>
      </trkpt>
      <trkpt lat="43.31789" lon="-3.14522">
        <ele>268</ele>
        <time>2021-10-28 09:36:52</time>
      </trkpt>
      <trkpt lat="43.31782" lon="-3.14531">
        <ele>268.4</ele>
        <time>2021-10-28 09:36:53</time>
      </trkpt>
      <trkpt lat="43.31782" lon="-3.14531">
        <ele>268.6</ele>
        <time>2021-10-28 09:36:54</time>
      </trkpt>
      <trkpt lat="43.31781" lon="-3.14534">
        <ele>268.6</ele>
        <time>2021-10-28 09:36:55</time>
      </trkpt>
      <trkpt lat="43.31781" lon="-3.14536">
        <ele>268.6</ele>
        <time>2021-10-28 09:36:56</time>
      </trkpt>
      <trkpt lat="43.31781" lon="-3.14542">
        <ele>268.6</ele>
        <time>2021-10-28 09:36:57</time>
      </trkpt>
      <trkpt lat="43.31781" lon="-3.14542">
        <ele>268.6</ele>
        <time>2021-10-28 09:36:58</time>
      </trkpt>
      <trkpt lat="43.31781" lon="-3.14542">
        <ele>268.4</ele>
        <time>2021-10-28 09:36:59</time>
      </trkpt>
      <trkpt lat="43.31781" lon="-3.14547">
        <ele>268.4</ele>
        <time>2021-10-28 09:37:00</time>
      </trkpt>
      <trkpt lat="43.31781" lon="-3.14547">
        <ele>268.6</ele>
        <time>2021-10-28 09:37:01</time>
      </trkpt>
      <trkpt lat="43.31778" lon="-3.1455">
        <ele>268.8</ele>
        <time>2021-10-28 09:37:02</time>
      </trkpt>
      <trkpt lat="43.31775" lon="-3.14558">
        <ele>269.2</ele>
        <time>2021-10-28 09:37:03</time>
      </trkpt>
      <trkpt lat="43.31776" lon="-3.14562">
        <ele>269.6</ele>
        <time>2021-10-28 09:37:04</time>
      </trkpt>
      <trkpt lat="43.31776" lon="-3.14562">
        <ele>270.2</ele>
        <time>2021-10-28 09:37:05</time>
      </trkpt>
      <trkpt lat="43.3178" lon="-3.1456">
        <ele>270.6</ele>
        <time>2021-10-28 09:37:06</time>
      </trkpt>
      <trkpt lat="43.31784" lon="-3.14559">
        <ele>270.8</ele>
        <time>2021-10-28 09:37:07</time>
      </trkpt>
      <trkpt lat="43.31787" lon="-3.14558">
        <ele>271.2</ele>
        <time>2021-10-28 09:37:08</time>
      </trkpt>
      <trkpt lat="43.31784" lon="-3.14563">
        <ele>271.4</ele>
        <time>2021-10-28 09:37:09</time>
      </trkpt>
      <trkpt lat="43.31784" lon="-3.14563">
        <ele>271.8</ele>
        <time>2021-10-28 09:37:10</time>
      </trkpt>
      <trkpt lat="43.31785" lon="-3.14564">
        <ele>271.8</ele>
        <time>2021-10-28 09:37:11</time>
      </trkpt>
      <trkpt lat="43.31782" lon="-3.1457">
        <ele>272</ele>
        <time>2021-10-28 09:37:12</time>
      </trkpt>
      <trkpt lat="43.31782" lon="-3.1457">
        <ele>272.2</ele>
        <time>2021-10-28 09:37:13</time>
      </trkpt>
      <trkpt lat="43.31782" lon="-3.14573">
        <ele>272.6</ele>
        <time>2021-10-28 09:37:14</time>
      </trkpt>
      <trkpt lat="43.31781" lon="-3.1458">
        <ele>272.8</ele>
        <time>2021-10-28 09:37:15</time>
      </trkpt>
      <trkpt lat="43.31781" lon="-3.14584">
        <ele>273</ele>
        <time>2021-10-28 09:37:16</time>
      </trkpt>
      <trkpt lat="43.31781" lon="-3.14584">
        <ele>273.4</ele>
        <time>2021-10-28 09:37:17</time>
      </trkpt>
      <trkpt lat="43.31781" lon="-3.14584">
        <ele>273.6</ele>
        <time>2021-10-28 09:37:18</time>
      </trkpt>
      <trkpt lat="43.31781" lon="-3.14584">
        <ele>274</ele>
        <time>2021-10-28 09:37:19</time>
      </trkpt>
      <trkpt lat="43.31779" lon="-3.14594">
        <ele>274.2</ele>
        <time>2021-10-28 09:37:20</time>
      </trkpt>
      <trkpt lat="43.31779" lon="-3.14594">
        <ele>274.4</ele>
        <time>2021-10-28 09:37:21</time>
      </trkpt>
      <trkpt lat="43.31779" lon="-3.14594">
        <ele>274.6</ele>
        <time>2021-10-28 09:37:22</time>
      </trkpt>
      <trkpt lat="43.31778" lon="-3.14601">
        <ele>275</ele>
        <time>2021-10-28 09:37:23</time>
      </trkpt>
      <trkpt lat="43.31778" lon="-3.14601">
        <ele>275</ele>
        <time>2021-10-28 09:37:24</time>
      </trkpt>
      <trkpt lat="43.31778" lon="-3.14601">
        <ele>275.2</ele>
        <time>2021-10-28 09:37:25</time>
      </trkpt>
      <trkpt lat="43.31771" lon="-3.1461">
        <ele>275.4</ele>
        <time>2021-10-28 09:37:26</time>
      </trkpt>
      <trkpt lat="43.31771" lon="-3.1461">
        <ele>275.6</ele>
        <time>2021-10-28 09:37:27</time>
      </trkpt>
      <trkpt lat="43.31771" lon="-3.1461">
        <ele>275.8</ele>
        <time>2021-10-28 09:37:28</time>
      </trkpt>
      <trkpt lat="43.31773" lon="-3.14612">
        <ele>276</ele>
        <time>2021-10-28 09:37:29</time>
      </trkpt>
      <trkpt lat="43.31773" lon="-3.14617">
        <ele>276</ele>
        <time>2021-10-28 09:37:30</time>
      </trkpt>
      <trkpt lat="43.31773" lon="-3.14617">
        <ele>276</ele>
        <time>2021-10-28 09:37:31</time>
      </trkpt>
      <trkpt lat="43.31773" lon="-3.14617">
        <ele>276</ele>
        <time>2021-10-28 09:37:32</time>
      </trkpt>
      <trkpt lat="43.31777" lon="-3.14614">
        <ele>276</ele>
        <time>2021-10-28 09:37:33</time>
      </trkpt>
      <trkpt lat="43.31777" lon="-3.14614">
        <ele>276</ele>
        <time>2021-10-28 09:37:34</time>
      </trkpt>
      <trkpt lat="43.31769" lon="-3.14629">
        <ele>276</ele>
        <time>2021-10-28 09:37:35</time>
      </trkpt>
      <trkpt lat="43.31769" lon="-3.14629">
        <ele>276</ele>
        <time>2021-10-28 09:37:36</time>
      </trkpt>
      <trkpt lat="43.31769" lon="-3.1463">
        <ele>276</ele>
        <time>2021-10-28 09:37:37</time>
      </trkpt>
      <trkpt lat="43.31768" lon="-3.14632">
        <ele>275.8</ele>
        <time>2021-10-28 09:37:38</time>
      </trkpt>
      <trkpt lat="43.31767" lon="-3.14635">
        <ele>275.8</ele>
        <time>2021-10-28 09:37:39</time>
      </trkpt>
      <trkpt lat="43.31767" lon="-3.14635">
        <ele>276</ele>
        <time>2021-10-28 09:37:40</time>
      </trkpt>
      <trkpt lat="43.31767" lon="-3.14635">
        <ele>276</ele>
        <time>2021-10-28 09:37:41</time>
      </trkpt>
      <trkpt lat="43.31763" lon="-3.14638">
        <ele>276</ele>
        <time>2021-10-28 09:37:42</time>
      </trkpt>
      <trkpt lat="43.31763" lon="-3.14638">
        <ele>276.2</ele>
        <time>2021-10-28 09:37:43</time>
      </trkpt>
      <trkpt lat="43.31763" lon="-3.14638">
        <ele>276</ele>
        <time>2021-10-28 09:37:44</time>
      </trkpt>
      <trkpt lat="43.31777" lon="-3.14601">
        <ele>278.2</ele>
        <time>2021-10-28 09:37:45</time>
      </trkpt>
      <trkpt lat="43.3178" lon="-3.14596">
        <ele>278.4</ele>
        <time>2021-10-28 09:37:46</time>
      </trkpt>
      <trkpt lat="43.3178" lon="-3.14596">
        <ele>278.6</ele>
        <time>2021-10-28 09:37:47</time>
      </trkpt>
      <trkpt lat="43.31782" lon="-3.14591">
        <ele>278.8</ele>
        <time>2021-10-28 09:37:48</time>
      </trkpt>
      <trkpt lat="43.31787" lon="-3.14589">
        <ele>279</ele>
        <time>2021-10-28 09:37:49</time>
      </trkpt>
      <trkpt lat="43.31789" lon="-3.14587">
        <ele>279.2</ele>
        <time>2021-10-28 09:37:50</time>
      </trkpt>
      <trkpt lat="43.31792" lon="-3.14583">
        <ele>279.6</ele>
        <time>2021-10-28 09:37:51</time>
      </trkpt>
      <trkpt lat="43.31794" lon="-3.14582">
        <ele>279.8</ele>
        <time>2021-10-28 09:37:52</time>
      </trkpt>
      <trkpt lat="43.31794" lon="-3.14582">
        <ele>280</ele>
        <time>2021-10-28 09:37:53</time>
      </trkpt>
      <trkpt lat="43.31796" lon="-3.14576">
        <ele>280.2</ele>
        <time>2021-10-28 09:37:54</time>
      </trkpt>
      <trkpt lat="43.31796" lon="-3.14576">
        <ele>280.4</ele>
        <time>2021-10-28 09:37:55</time>
      </trkpt>
      <trkpt lat="43.31796" lon="-3.14576">
        <ele>280.4</ele>
        <time>2021-10-28 09:37:56</time>
      </trkpt>
      <trkpt lat="43.31797" lon="-3.14575">
        <ele>280.4</ele>
        <time>2021-10-28 09:37:57</time>
      </trkpt>
      <trkpt lat="43.31795" lon="-3.14573">
        <ele>280.6</ele>
        <time>2021-10-28 09:37:58</time>
      </trkpt>
      <trkpt lat="43.31795" lon="-3.14573">
        <ele>280.6</ele>
        <time>2021-10-28 09:37:59</time>
      </trkpt>
      <trkpt lat="43.31798" lon="-3.14569">
        <ele>280.6</ele>
        <time>2021-10-28 09:38:00</time>
      </trkpt>
      <trkpt lat="43.31797" lon="-3.14566">
        <ele>280.8</ele>
        <time>2021-10-28 09:38:01</time>
      </trkpt>
      <trkpt lat="43.31797" lon="-3.14566">
        <ele>281</ele>
        <time>2021-10-28 09:38:02</time>
      </trkpt>
      <trkpt lat="43.31797" lon="-3.14566">
        <ele>281.2</ele>
        <time>2021-10-28 09:38:03</time>
      </trkpt>
      <trkpt lat="43.31796" lon="-3.14568">
        <ele>281.4</ele>
        <time>2021-10-28 09:38:04</time>
      </trkpt>
      <trkpt lat="43.31794" lon="-3.14565">
        <ele>281.4</ele>
        <time>2021-10-28 09:38:05</time>
      </trkpt>
      <trkpt lat="43.31794" lon="-3.14565">
        <ele>281.6</ele>
        <time>2021-10-28 09:38:25</time>
      </trkpt>
      <trkpt lat="43.31794" lon="-3.14562">
        <ele>282</ele>
        <time>2021-10-28 09:38:26</time>
      </trkpt>
      <trkpt lat="43.31795" lon="-3.14561">
        <ele>282.2</ele>
        <time>2021-10-28 09:38:27</time>
      </trkpt>
      <trkpt lat="43.31795" lon="-3.14561">
        <ele>282.6</ele>
        <time>2021-10-28 09:38:28</time>
      </trkpt>
      <trkpt lat="43.31795" lon="-3.14561">
        <ele>282.8</ele>
        <time>2021-10-28 09:38:29</time>
      </trkpt>
      <trkpt lat="43.31785" lon="-3.14564">
        <ele>283</ele>
        <time>2021-10-28 09:38:30</time>
      </trkpt>
      <trkpt lat="43.31785" lon="-3.14564">
        <ele>283</ele>
        <time>2021-10-28 09:38:31</time>
      </trkpt>
      <trkpt lat="43.31779" lon="-3.14564">
        <ele>283.2</ele>
        <time>2021-10-28 09:38:32</time>
      </trkpt>
      <trkpt lat="43.31779" lon="-3.14564">
        <ele>283.4</ele>
        <time>2021-10-28 09:38:33</time>
      </trkpt>
      <trkpt lat="43.31784" lon="-3.14557">
        <ele>283.4</ele>
        <time>2021-10-28 09:38:34</time>
      </trkpt>
      <trkpt lat="43.31791" lon="-3.14555">
        <ele>283.6</ele>
        <time>2021-10-28 09:38:35</time>
      </trkpt>
      <trkpt lat="43.31791" lon="-3.14555">
        <ele>283.6</ele>
        <time>2021-10-28 09:38:36</time>
      </trkpt>
      <trkpt lat="43.31796" lon="-3.14549">
        <ele>283.8</ele>
        <time>2021-10-28 09:38:37</time>
      </trkpt>
      <trkpt lat="43.31796" lon="-3.14549">
        <ele>283.8</ele>
        <time>2021-10-28 09:38:38</time>
      </trkpt>
      <trkpt lat="43.31795" lon="-3.1455">
        <ele>283.8</ele>
        <time>2021-10-28 09:38:39</time>
      </trkpt>
      <trkpt lat="43.31795" lon="-3.1455">
        <ele>283.8</ele>
        <time>2021-10-28 09:38:40</time>
      </trkpt>
      <trkpt lat="43.31795" lon="-3.1455">
        <ele>283.8</ele>
        <time>2021-10-28 09:38:41</time>
      </trkpt>
      <trkpt lat="43.31797" lon="-3.14549">
        <ele>283.8</ele>
        <time>2021-10-28 09:38:42</time>
      </trkpt>
      <trkpt lat="43.31797" lon="-3.14549">
        <ele>283.8</ele>
        <time>2021-10-28 09:38:43</time>
      </trkpt>
      <trkpt lat="43.31799" lon="-3.14547">
        <ele>283.8</ele>
        <time>2021-10-28 09:38:44</time>
      </trkpt>
      <trkpt lat="43.31797" lon="-3.14532">
        <ele>284.4</ele>
        <time>2021-10-28 09:38:45</time>
      </trkpt>
      <trkpt lat="43.31791" lon="-3.14532">
        <ele>284.4</ele>
        <time>2021-10-28 09:38:46</time>
      </trkpt>
      <trkpt lat="43.31791" lon="-3.14532">
        <ele>284.4</ele>
        <time>2021-10-28 09:38:47</time>
      </trkpt>
      <trkpt lat="43.31798" lon="-3.14526">
        <ele>284.4</ele>
        <time>2021-10-28 09:38:48</time>
      </trkpt>
      <trkpt lat="43.31798" lon="-3.14526">
        <ele>284.4</ele>
        <time>2021-10-28 09:38:49</time>
      </trkpt>
      <trkpt lat="43.31799" lon="-3.14525">
        <ele>284.6</ele>
        <time>2021-10-28 09:38:50</time>
      </trkpt>
      <trkpt lat="43.31798" lon="-3.14525">
        <ele>284.6</ele>
        <time>2021-10-28 09:38:51</time>
      </trkpt>
      <trkpt lat="43.31796" lon="-3.14526">
        <ele>284.8</ele>
        <time>2021-10-28 09:38:52</time>
      </trkpt>
      <trkpt lat="43.31797" lon="-3.14525">
        <ele>285</ele>
        <time>2021-10-28 09:38:53</time>
      </trkpt>
      <trkpt lat="43.31797" lon="-3.14525">
        <ele>285.2</ele>
        <time>2021-10-28 09:38:54</time>
      </trkpt>
      <trkpt lat="43.31797" lon="-3.14525">
        <ele>285.2</ele>
        <time>2021-10-28 09:38:55</time>
      </trkpt>
      <trkpt lat="43.318" lon="-3.1452">
        <ele>285</ele>
        <time>2021-10-28 09:38:56</time>
      </trkpt>
      <trkpt lat="43.318" lon="-3.1452">
        <ele>285</ele>
        <time>2021-10-28 09:38:57</time>
      </trkpt>
      <trkpt lat="43.31797" lon="-3.14521">
        <ele>284.6</ele>
        <time>2021-10-28 09:38:58</time>
      </trkpt>
      <trkpt lat="43.31797" lon="-3.1452">
        <ele>284.2</ele>
        <time>2021-10-28 09:38:59</time>
      </trkpt>
      <trkpt lat="43.31797" lon="-3.14517">
        <ele>283.8</ele>
        <time>2021-10-28 09:39:00</time>
      </trkpt>
      <trkpt lat="43.31797" lon="-3.14516">
        <ele>283.6</ele>
        <time>2021-10-28 09:39:01</time>
      </trkpt>
      <trkpt lat="43.31797" lon="-3.14516">
        <ele>283.6</ele>
        <time>2021-10-28 09:39:02</time>
      </trkpt>
      <trkpt lat="43.31795" lon="-3.14513">
        <ele>283.6</ele>
        <time>2021-10-28 09:39:03</time>
      </trkpt>
      <trkpt lat="43.31795" lon="-3.14513">
        <ele>284</ele>
        <time>2021-10-28 09:39:04</time>
      </trkpt>
      <trkpt lat="43.31801" lon="-3.14503">
        <ele>284.4</ele>
        <time>2021-10-28 09:39:05</time>
      </trkpt>
      <trkpt lat="43.31801" lon="-3.14503">
        <ele>284.8</ele>
        <time>2021-10-28 09:39:18</time>
      </trkpt>
      <trkpt lat="43.31805" lon="-3.14501">
        <ele>284.8</ele>
        <time>2021-10-28 09:39:19</time>
      </trkpt>
      <trkpt lat="43.31805" lon="-3.14501">
        <ele>285</ele>
        <time>2021-10-28 09:39:20</time>
      </trkpt>
      <trkpt lat="43.31805" lon="-3.14498">
        <ele>284.8</ele>
        <time>2021-10-28 09:39:21</time>
      </trkpt>
      <trkpt lat="43.31801" lon="-3.145">
        <ele>284.6</ele>
        <time>2021-10-28 09:39:22</time>
      </trkpt>
      <trkpt lat="43.31801" lon="-3.145">
        <ele>284.6</ele>
        <time>2021-10-28 09:39:23</time>
      </trkpt>
      <trkpt lat="43.31801" lon="-3.14496">
        <ele>284.6</ele>
        <time>2021-10-28 09:39:24</time>
      </trkpt>
      <trkpt lat="43.31801" lon="-3.14496">
        <ele>284.6</ele>
        <time>2021-10-28 09:39:25</time>
      </trkpt>
      <trkpt lat="43.31801" lon="-3.14496">
        <ele>284.4</ele>
        <time>2021-10-28 09:39:26</time>
      </trkpt>
      <trkpt lat="43.31805" lon="-3.14492">
        <ele>284.4</ele>
        <time>2021-10-28 09:39:27</time>
      </trkpt>
      <trkpt lat="43.31805" lon="-3.14492">
        <ele>284.4</ele>
        <time>2021-10-28 09:39:28</time>
      </trkpt>
      <trkpt lat="43.3181" lon="-3.14484">
        <ele>284.2</ele>
        <time>2021-10-28 09:39:29</time>
      </trkpt>
      <trkpt lat="43.3181" lon="-3.14484">
        <ele>284</ele>
        <time>2021-10-28 09:39:30</time>
      </trkpt>
      <trkpt lat="43.3181" lon="-3.1448">
        <ele>283.8</ele>
        <time>2021-10-28 09:39:31</time>
      </trkpt>
      <trkpt lat="43.3181" lon="-3.1448">
        <ele>283.6</ele>
        <time>2021-10-28 09:39:32</time>
      </trkpt>
      <trkpt lat="43.3181" lon="-3.1448">
        <ele>283.6</ele>
        <time>2021-10-28 09:39:33</time>
      </trkpt>
      <trkpt lat="43.31812" lon="-3.1448">
        <ele>283.6</ele>
        <time>2021-10-28 09:39:34</time>
      </trkpt>
      <trkpt lat="43.31812" lon="-3.1448">
        <ele>284</ele>
        <time>2021-10-28 09:39:35</time>
      </trkpt>
      <trkpt lat="43.31813" lon="-3.14478">
        <ele>284.4</ele>
        <time>2021-10-28 09:39:36</time>
      </trkpt>
      <trkpt lat="43.31802" lon="-3.1448">
        <ele>284.4</ele>
        <time>2021-10-28 09:39:37</time>
      </trkpt>
      <trkpt lat="43.31802" lon="-3.1448">
        <ele>284.6</ele>
        <time>2021-10-28 09:39:38</time>
      </trkpt>
      <trkpt lat="43.31807" lon="-3.14476">
        <ele>284.8</ele>
        <time>2021-10-28 09:39:39</time>
      </trkpt>
      <trkpt lat="43.31807" lon="-3.14476">
        <ele>285</ele>
        <time>2021-10-28 09:39:40</time>
      </trkpt>
      <trkpt lat="43.31808" lon="-3.14475">
        <ele>285</ele>
        <time>2021-10-28 09:39:41</time>
      </trkpt>
      <trkpt lat="43.31808" lon="-3.14473">
        <ele>285</ele>
        <time>2021-10-28 09:39:42</time>
      </trkpt>
      <trkpt lat="43.31807" lon="-3.1447">
        <ele>285</ele>
        <time>2021-10-28 09:39:43</time>
      </trkpt>
      <trkpt lat="43.31807" lon="-3.1447">
        <ele>285</ele>
        <time>2021-10-28 09:39:44</time>
      </trkpt>
      <trkpt lat="43.31806" lon="-3.14471">
        <ele>285</ele>
        <time>2021-10-28 09:39:45</time>
      </trkpt>
      <trkpt lat="43.31806" lon="-3.14471">
        <ele>284.8</ele>
        <time>2021-10-28 09:39:46</time>
      </trkpt>
      <trkpt lat="43.31806" lon="-3.14471">
        <ele>284.8</ele>
        <time>2021-10-28 09:39:47</time>
      </trkpt>
      <trkpt lat="43.3181" lon="-3.14444">
        <ele>285.8</ele>
        <time>2021-10-28 09:39:48</time>
      </trkpt>
      <trkpt lat="43.3181" lon="-3.1444">
        <ele>286</ele>
        <time>2021-10-28 09:39:49</time>
      </trkpt>
      <trkpt lat="43.3181" lon="-3.1444">
        <ele>286.4</ele>
        <time>2021-10-28 09:39:50</time>
      </trkpt>
      <trkpt lat="43.3181" lon="-3.14434">
        <ele>286.4</ele>
        <time>2021-10-28 09:39:51</time>
      </trkpt>
      <trkpt lat="43.3181" lon="-3.14434">
        <ele>286.4</ele>
        <time>2021-10-28 09:39:52</time>
      </trkpt>
      <trkpt lat="43.3181" lon="-3.14434">
        <ele>286.4</ele>
        <time>2021-10-28 09:39:53</time>
      </trkpt>
      <trkpt lat="43.3181" lon="-3.1443">
        <ele>286.2</ele>
        <time>2021-10-28 09:39:54</time>
      </trkpt>
      <trkpt lat="43.3181" lon="-3.1443">
        <ele>286.2</ele>
        <time>2021-10-28 09:39:55</time>
      </trkpt>
      <trkpt lat="43.3181" lon="-3.14429">
        <ele>286.4</ele>
        <time>2021-10-28 09:39:56</time>
      </trkpt>
      <trkpt lat="43.31811" lon="-3.14427">
        <ele>286.8</ele>
        <time>2021-10-28 09:39:57</time>
      </trkpt>
      <trkpt lat="43.31812" lon="-3.14423">
        <ele>286.8</ele>
        <time>2021-10-28 09:39:58</time>
      </trkpt>
      <trkpt lat="43.31812" lon="-3.14423">
        <ele>286.8</ele>
        <time>2021-10-28 09:39:59</time>
      </trkpt>
      <trkpt lat="43.31812" lon="-3.14423">
        <ele>286.4</ele>
        <time>2021-10-28 09:40:00</time>
      </trkpt>
      <trkpt lat="43.31812" lon="-3.14422">
        <ele>286</ele>
        <time>2021-10-28 09:40:01</time>
      </trkpt>
      <trkpt lat="43.31812" lon="-3.1442">
        <ele>285.4</ele>
        <time>2021-10-28 09:40:02</time>
      </trkpt>
      <trkpt lat="43.31814" lon="-3.14412">
        <ele>285.2</ele>
        <time>2021-10-28 09:40:03</time>
      </trkpt>
      <trkpt lat="43.31814" lon="-3.14412">
        <ele>285</ele>
        <time>2021-10-28 09:40:04</time>
      </trkpt>
      <trkpt lat="43.31814" lon="-3.14399">
        <ele>284.8</ele>
        <time>2021-10-28 09:40:05</time>
      </trkpt>
      <trkpt lat="43.31814" lon="-3.14399">
        <ele>284.8</ele>
        <time>2021-10-28 09:40:06</time>
      </trkpt>
      <trkpt lat="43.31814" lon="-3.14399">
        <ele>284.6</ele>
        <time>2021-10-28 09:40:07</time>
      </trkpt>
      <trkpt lat="43.31815" lon="-3.14395">
        <ele>284.4</ele>
        <time>2021-10-28 09:40:08</time>
      </trkpt>
      <trkpt lat="43.31815" lon="-3.14389">
        <ele>284</ele>
        <time>2021-10-28 09:40:20</time>
      </trkpt>
      <trkpt lat="43.31815" lon="-3.14389">
        <ele>283.6</ele>
        <time>2021-10-28 09:40:21</time>
      </trkpt>
      <trkpt lat="43.31815" lon="-3.14384">
        <ele>283</ele>
        <time>2021-10-28 09:40:22</time>
      </trkpt>
      <trkpt lat="43.31815" lon="-3.14384">
        <ele>283</ele>
        <time>2021-10-28 09:40:23</time>
      </trkpt>
      <trkpt lat="43.31816" lon="-3.1438">
        <ele>283</ele>
        <time>2021-10-28 09:40:24</time>
      </trkpt>
      <trkpt lat="43.31816" lon="-3.1438">
        <ele>283.2</ele>
        <time>2021-10-28 09:40:25</time>
      </trkpt>
      <trkpt lat="43.31815" lon="-3.14376">
        <ele>283.8</ele>
        <time>2021-10-28 09:40:26</time>
      </trkpt>
      <trkpt lat="43.31819" lon="-3.14368">
        <ele>284.4</ele>
        <time>2021-10-28 09:40:27</time>
      </trkpt>
      <trkpt lat="43.31819" lon="-3.14368">
        <ele>284.8</ele>
        <time>2021-10-28 09:40:28</time>
      </trkpt>
      <trkpt lat="43.31814" lon="-3.14365">
        <ele>285</ele>
        <time>2021-10-28 09:40:29</time>
      </trkpt>
      <trkpt lat="43.31814" lon="-3.14365">
        <ele>285</ele>
        <time>2021-10-28 09:40:30</time>
      </trkpt>
      <trkpt lat="43.31815" lon="-3.14361">
        <ele>285</ele>
        <time>2021-10-28 09:40:31</time>
      </trkpt>
      <trkpt lat="43.31818" lon="-3.14357">
        <ele>285</ele>
        <time>2021-10-28 09:40:32</time>
      </trkpt>
      <trkpt lat="43.31818" lon="-3.14357">
        <ele>284.8</ele>
        <time>2021-10-28 09:40:33</time>
      </trkpt>
      <trkpt lat="43.31812" lon="-3.14359">
        <ele>284.6</ele>
        <time>2021-10-28 09:40:34</time>
      </trkpt>
      <trkpt lat="43.31813" lon="-3.14357">
        <ele>284.2</ele>
        <time>2021-10-28 09:40:35</time>
      </trkpt>
      <trkpt lat="43.31813" lon="-3.14357">
        <ele>284</ele>
        <time>2021-10-28 09:40:36</time>
      </trkpt>
      <trkpt lat="43.31813" lon="-3.14357">
        <ele>284</ele>
        <time>2021-10-28 09:40:37</time>
      </trkpt>
      <trkpt lat="43.31806" lon="-3.1436">
        <ele>284</ele>
        <time>2021-10-28 09:40:38</time>
      </trkpt>
      <trkpt lat="43.31806" lon="-3.1436">
        <ele>284</ele>
        <time>2021-10-28 09:40:39</time>
      </trkpt>
      <trkpt lat="43.31804" lon="-3.14362">
        <ele>284.2</ele>
        <time>2021-10-28 09:40:40</time>
      </trkpt>
      <trkpt lat="43.31804" lon="-3.14362">
        <ele>284.2</ele>
        <time>2021-10-28 09:40:41</time>
      </trkpt>
      <trkpt lat="43.31805" lon="-3.14362">
        <ele>284.2</ele>
        <time>2021-10-28 09:40:42</time>
      </trkpt>
      <trkpt lat="43.31805" lon="-3.14362">
        <ele>284.2</ele>
        <time>2021-10-28 09:40:43</time>
      </trkpt>
      <trkpt lat="43.31818" lon="-3.14392">
        <ele>284.2</ele>
        <time>2021-10-28 09:40:44</time>
      </trkpt>
      <trkpt lat="43.31818" lon="-3.14392">
        <ele>284.4</ele>
        <time>2021-10-28 09:40:45</time>
      </trkpt>
      <trkpt lat="43.31818" lon="-3.14397">
        <ele>284.4</ele>
        <time>2021-10-28 09:40:46</time>
      </trkpt>
      <trkpt lat="43.31818" lon="-3.14397">
        <ele>284.4</ele>
        <time>2021-10-28 09:40:47</time>
      </trkpt>
      <trkpt lat="43.31817" lon="-3.14398">
        <ele>284.4</ele>
        <time>2021-10-28 09:40:48</time>
      </trkpt>
      <trkpt lat="43.31819" lon="-3.14397">
        <ele>284.2</ele>
        <time>2021-10-28 09:40:49</time>
      </trkpt>
      <trkpt lat="43.31819" lon="-3.14397">
        <ele>284.2</ele>
        <time>2021-10-28 09:40:50</time>
      </trkpt>
      <trkpt lat="43.31821" lon="-3.14397">
        <ele>284.2</ele>
        <time>2021-10-28 09:40:51</time>
      </trkpt>
      <trkpt lat="43.31821" lon="-3.14397">
        <ele>284.2</ele>
        <time>2021-10-28 09:40:52</time>
      </trkpt>
      <trkpt lat="43.31821" lon="-3.144">
        <ele>284.4</ele>
        <time>2021-10-28 09:40:53</time>
      </trkpt>
      <trkpt lat="43.31821" lon="-3.144">
        <ele>284.6</ele>
        <time>2021-10-28 09:40:54</time>
      </trkpt>
      <trkpt lat="43.31823" lon="-3.14406">
        <ele>284.8</ele>
        <time>2021-10-28 09:40:55</time>
      </trkpt>
      <trkpt lat="43.31823" lon="-3.14406">
        <ele>284.8</ele>
        <time>2021-10-28 09:40:56</time>
      </trkpt>
      <trkpt lat="43.31823" lon="-3.14406">
        <ele>285</ele>
        <time>2021-10-28 09:40:57</time>
      </trkpt>
      <trkpt lat="43.3182" lon="-3.14423">
        <ele>284.8</ele>
        <time>2021-10-28 09:40:58</time>
      </trkpt>
      <trkpt lat="43.3182" lon="-3.14423">
        <ele>284.8</ele>
        <time>2021-10-28 09:40:59</time>
      </trkpt>
      <trkpt lat="43.3182" lon="-3.14426">
        <ele>284.8</ele>
        <time>2021-10-28 09:41:00</time>
      </trkpt>
      <trkpt lat="43.31818" lon="-3.14436">
        <ele>284.8</ele>
        <time>2021-10-28 09:41:01</time>
      </trkpt>
      <trkpt lat="43.31818" lon="-3.14436">
        <ele>284.8</ele>
        <time>2021-10-28 09:41:02</time>
      </trkpt>
      <trkpt lat="43.31817" lon="-3.14444">
        <ele>284.6</ele>
        <time>2021-10-28 09:41:03</time>
      </trkpt>
      <trkpt lat="43.31817" lon="-3.14444">
        <ele>284.4</ele>
        <time>2021-10-28 09:41:04</time>
      </trkpt>
      <trkpt lat="43.31814" lon="-3.14453">
        <ele>284</ele>
        <time>2021-10-28 09:42:36</time>
      </trkpt>
      <trkpt lat="43.31814" lon="-3.14453">
        <ele>283.8</ele>
        <time>2021-10-28 09:42:37</time>
      </trkpt>
      <trkpt lat="43.31813" lon="-3.14457">
        <ele>283.6</ele>
        <time>2021-10-28 09:42:38</time>
      </trkpt>
      <trkpt lat="43.31813" lon="-3.14461">
        <ele>283.6</ele>
        <time>2021-10-28 09:42:39</time>
      </trkpt>
      <trkpt lat="43.3181" lon="-3.14471">
        <ele>283.6</ele>
        <time>2021-10-28 09:42:40</time>
      </trkpt>
      <trkpt lat="43.3181" lon="-3.14471">
        <ele>283.6</ele>
        <time>2021-10-28 09:42:41</time>
      </trkpt>
      <trkpt lat="43.3181" lon="-3.14471">
        <ele>283.8</ele>
        <time>2021-10-28 09:42:42</time>
      </trkpt>
      <trkpt lat="43.3181" lon="-3.14475">
        <ele>284</ele>
        <time>2021-10-28 09:42:43</time>
      </trkpt>
      <trkpt lat="43.3181" lon="-3.14475">
        <ele>284.2</ele>
        <time>2021-10-28 09:42:44</time>
      </trkpt>
      <trkpt lat="43.31809" lon="-3.14482">
        <ele>284.4</ele>
        <time>2021-10-28 09:42:45</time>
      </trkpt>
      <trkpt lat="43.31809" lon="-3.14482">
        <ele>284.6</ele>
        <time>2021-10-28 09:42:46</time>
      </trkpt>
      <trkpt lat="43.31809" lon="-3.14488">
        <ele>284.8</ele>
        <time>2021-10-28 09:42:47</time>
      </trkpt>
      <trkpt lat="43.31809" lon="-3.14488">
        <ele>284.8</ele>
        <time>2021-10-28 09:42:48</time>
      </trkpt>
      <trkpt lat="43.31809" lon="-3.14489">
        <ele>285</ele>
        <time>2021-10-28 09:42:49</time>
      </trkpt>
      <trkpt lat="43.31809" lon="-3.14489">
        <ele>285</ele>
        <time>2021-10-28 09:42:55</time>
      </trkpt>
      <trkpt lat="43.31809" lon="-3.14494">
        <ele>285</ele>
        <time>2021-10-28 09:42:56</time>
      </trkpt>
      <trkpt lat="43.31809" lon="-3.14494">
        <ele>285</ele>
        <time>2021-10-28 09:42:57</time>
      </trkpt>
      <trkpt lat="43.31809" lon="-3.14496">
        <ele>284.8</ele>
        <time>2021-10-28 09:42:58</time>
      </trkpt>
      <trkpt lat="43.3181" lon="-3.14505">
        <ele>284.6</ele>
        <time>2021-10-28 09:42:59</time>
      </trkpt>
      <trkpt lat="43.3181" lon="-3.14505">
        <ele>284.2</ele>
        <time>2021-10-28 09:43:00</time>
      </trkpt>
      <trkpt lat="43.3181" lon="-3.14505">
        <ele>283.8</ele>
        <time>2021-10-28 09:43:01</time>
      </trkpt>
      <trkpt lat="43.31811" lon="-3.14511">
        <ele>283.6</ele>
        <time>2021-10-28 09:43:02</time>
      </trkpt>
      <trkpt lat="43.31811" lon="-3.14511">
        <ele>283.4</ele>
        <time>2021-10-28 09:43:03</time>
      </trkpt>
      <trkpt lat="43.31808" lon="-3.14517">
        <ele>283</ele>
        <time>2021-10-28 09:43:04</time>
      </trkpt>
      <trkpt lat="43.3181" lon="-3.14521">
        <ele>282.8</ele>
        <time>2021-10-28 09:43:05</time>
      </trkpt>
      <trkpt lat="43.3181" lon="-3.14521">
        <ele>282.4</ele>
        <time>2021-10-28 09:43:06</time>
      </trkpt>
      <trkpt lat="43.31808" lon="-3.14528">
        <ele>282.2</ele>
        <time>2021-10-28 09:43:07</time>
      </trkpt>
      <trkpt lat="43.31808" lon="-3.14528">
        <ele>282.2</ele>
        <time>2021-10-28 09:43:08</time>
      </trkpt>
      <trkpt lat="43.31806" lon="-3.14533">
        <ele>282.2</ele>
        <time>2021-10-28 09:43:09</time>
      </trkpt>
      <trkpt lat="43.31806" lon="-3.14536">
        <ele>282.2</ele>
        <time>2021-10-28 09:43:10</time>
      </trkpt>
      <trkpt lat="43.31805" lon="-3.14542">
        <ele>282.2</ele>
        <time>2021-10-28 09:43:11</time>
      </trkpt>
      <trkpt lat="43.31805" lon="-3.14542">
        <ele>282.6</ele>
        <time>2021-10-28 09:43:12</time>
      </trkpt>
      <trkpt lat="43.31805" lon="-3.14542">
        <ele>282.8</ele>
        <time>2021-10-28 09:43:13</time>
      </trkpt>
      <trkpt lat="43.31804" lon="-3.14546">
        <ele>283.2</ele>
        <time>2021-10-28 09:43:14</time>
      </trkpt>
      <trkpt lat="43.31806" lon="-3.14544">
        <ele>283.2</ele>
        <time>2021-10-28 09:43:15</time>
      </trkpt>
      <trkpt lat="43.31806" lon="-3.14544">
        <ele>283.2</ele>
        <time>2021-10-28 09:43:16</time>
      </trkpt>
      <trkpt lat="43.31806" lon="-3.14544">
        <ele>283</ele>
        <time>2021-10-28 09:43:17</time>
      </trkpt>
      <trkpt lat="43.31804" lon="-3.14545">
        <ele>282.6</ele>
        <time>2021-10-28 09:43:18</time>
      </trkpt>
      <trkpt lat="43.31804" lon="-3.14545">
        <ele>282.4</ele>
        <time>2021-10-28 09:43:19</time>
      </trkpt>
      <trkpt lat="43.31804" lon="-3.14545">
        <ele>282.4</ele>
        <time>2021-10-28 09:43:20</time>
      </trkpt>
      <trkpt lat="43.31803" lon="-3.14547">
        <ele>282.4</ele>
        <time>2021-10-28 09:43:21</time>
      </trkpt>
      <trkpt lat="43.31803" lon="-3.14548">
        <ele>282.2</ele>
        <time>2021-10-28 09:43:22</time>
      </trkpt>
      <trkpt lat="43.31803" lon="-3.1455">
        <ele>282</ele>
        <time>2021-10-28 09:43:23</time>
      </trkpt>
      <trkpt lat="43.31803" lon="-3.1455">
        <ele>282</ele>
        <time>2021-10-28 09:43:24</time>
      </trkpt>
      <trkpt lat="43.31802" lon="-3.14553">
        <ele>282</ele>
        <time>2021-10-28 09:43:25</time>
      </trkpt>
      <trkpt lat="43.318" lon="-3.14554">
        <ele>282</ele>
        <time>2021-10-28 09:43:26</time>
      </trkpt>
      <trkpt lat="43.31799" lon="-3.14571">
        <ele>281</ele>
        <time>2021-10-28 09:43:27</time>
      </trkpt>
      <trkpt lat="43.31799" lon="-3.14574">
        <ele>280.8</ele>
        <time>2021-10-28 09:43:28</time>
      </trkpt>
      <trkpt lat="43.31798" lon="-3.14579">
        <ele>280.6</ele>
        <time>2021-10-28 09:43:29</time>
      </trkpt>
      <trkpt lat="43.31798" lon="-3.14579">
        <ele>280.4</ele>
        <time>2021-10-28 09:43:30</time>
      </trkpt>
      <trkpt lat="43.31798" lon="-3.14579">
        <ele>280</ele>
        <time>2021-10-28 09:43:31</time>
      </trkpt>
      <trkpt lat="43.31798" lon="-3.14579">
        <ele>280</ele>
        <time>2021-10-28 09:43:32</time>
      </trkpt>
      <trkpt lat="43.31796" lon="-3.14585">
        <ele>279.8</ele>
        <time>2021-10-28 09:43:33</time>
      </trkpt>
      <trkpt lat="43.31794" lon="-3.14587">
        <ele>279.4</ele>
        <time>2021-10-28 09:43:34</time>
      </trkpt>
      <trkpt lat="43.31793" lon="-3.14591">
        <ele>279.2</ele>
        <time>2021-10-28 09:43:35</time>
      </trkpt>
      <trkpt lat="43.31793" lon="-3.14591">
        <ele>278.8</ele>
        <time>2021-10-28 09:43:36</time>
      </trkpt>
      <trkpt lat="43.31795" lon="-3.14594">
        <ele>278.6</ele>
        <time>2021-10-28 09:43:37</time>
      </trkpt>
      <trkpt lat="43.31795" lon="-3.14594">
        <ele>278.2</ele>
        <time>2021-10-28 09:43:38</time>
      </trkpt>
      <trkpt lat="43.31796" lon="-3.14598">
        <ele>278</ele>
        <time>2021-10-28 09:43:39</time>
      </trkpt>
      <trkpt lat="43.31796" lon="-3.14598">
        <ele>277.8</ele>
        <time>2021-10-28 09:43:40</time>
      </trkpt>
      <trkpt lat="43.31788" lon="-3.1461">
        <ele>277.6</ele>
        <time>2021-10-28 09:43:41</time>
      </trkpt>
      <trkpt lat="43.31788" lon="-3.1461">
        <ele>277.6</ele>
        <time>2021-10-28 09:43:42</time>
      </trkpt>
      <trkpt lat="43.31788" lon="-3.1461">
        <ele>277.2</ele>
        <time>2021-10-28 09:43:43</time>
      </trkpt>
      <trkpt lat="43.31786" lon="-3.14615">
        <ele>277</ele>
        <time>2021-10-28 09:43:44</time>
      </trkpt>
      <trkpt lat="43.31784" lon="-3.14625">
        <ele>276.8</ele>
        <time>2021-10-28 09:43:45</time>
      </trkpt>
      <trkpt lat="43.31784" lon="-3.14625">
        <ele>276.8</ele>
        <time>2021-10-28 09:43:46</time>
      </trkpt>
      <trkpt lat="43.31783" lon="-3.14628">
        <ele>276.6</ele>
        <time>2021-10-28 09:43:47</time>
      </trkpt>
      <trkpt lat="43.3178" lon="-3.14634">
        <ele>276.8</ele>
        <time>2021-10-28 09:43:56</time>
      </trkpt>
      <trkpt lat="43.3178" lon="-3.14634">
        <ele>276.8</ele>
        <time>2021-10-28 09:43:57</time>
      </trkpt>
      <trkpt lat="43.31789" lon="-3.14624">
        <ele>276.8</ele>
        <time>2021-10-28 09:43:58</time>
      </trkpt>
      <trkpt lat="43.31788" lon="-3.14626">
        <ele>276.8</ele>
        <time>2021-10-28 09:43:59</time>
      </trkpt>
      <trkpt lat="43.31788" lon="-3.14627">
        <ele>277</ele>
        <time>2021-10-28 09:44:00</time>
      </trkpt>
      <trkpt lat="43.31788" lon="-3.14627">
        <ele>277.4</ele>
        <time>2021-10-28 09:44:01</time>
      </trkpt>
      <trkpt lat="43.31787" lon="-3.1463">
        <ele>277.8</ele>
        <time>2021-10-28 09:44:02</time>
      </trkpt>
      <trkpt lat="43.31787" lon="-3.1463">
        <ele>278.2</ele>
        <time>2021-10-28 09:44:03</time>
      </trkpt>
      <trkpt lat="43.31786" lon="-3.14633">
        <ele>278.6</ele>
        <time>2021-10-28 09:44:04</time>
      </trkpt>
      <trkpt lat="43.31786" lon="-3.14633">
        <ele>278.8</ele>
        <time>2021-10-28 09:44:05</time>
      </trkpt>
      <trkpt lat="43.31785" lon="-3.14634">
        <ele>279</ele>
        <time>2021-10-28 09:44:06</time>
      </trkpt>
      <trkpt lat="43.31784" lon="-3.14636">
        <ele>279.2</ele>
        <time>2021-10-28 09:44:07</time>
      </trkpt>
      <trkpt lat="43.31781" lon="-3.14642">
        <ele>279.4</ele>
        <time>2021-10-28 09:44:08</time>
      </trkpt>
      <trkpt lat="43.31781" lon="-3.14642">
        <ele>279.6</ele>
        <time>2021-10-28 09:44:09</time>
      </trkpt>
      <trkpt lat="43.31781" lon="-3.14642">
        <ele>280</ele>
        <time>2021-10-28 09:44:10</time>
      </trkpt>
      <trkpt lat="43.3178" lon="-3.14643">
        <ele>280.2</ele>
        <time>2021-10-28 09:44:11</time>
      </trkpt>
      <trkpt lat="43.31778" lon="-3.14645">
        <ele>280.4</ele>
        <time>2021-10-28 09:44:12</time>
      </trkpt>
      <trkpt lat="43.31778" lon="-3.14645">
        <ele>280.8</ele>
        <time>2021-10-28 09:44:13</time>
      </trkpt>
      <trkpt lat="43.31773" lon="-3.14651">
        <ele>281.2</ele>
        <time>2021-10-28 09:44:14</time>
      </trkpt>
      <trkpt lat="43.31773" lon="-3.14652">
        <ele>281.4</ele>
        <time>2021-10-28 09:44:15</time>
      </trkpt>
      <trkpt lat="43.31749" lon="-3.14692">
        <ele>286.6</ele>
        <time>2021-10-28 09:44:16</time>
      </trkpt>
      <trkpt lat="43.31751" lon="-3.14693">
        <ele>286.8</ele>
        <time>2021-10-28 09:44:17</time>
      </trkpt>
      <trkpt lat="43.31751" lon="-3.14693">
        <ele>287</ele>
        <time>2021-10-28 09:44:18</time>
      </trkpt>
      <trkpt lat="43.31751" lon="-3.14693">
        <ele>287.4</ele>
        <time>2021-10-28 09:44:19</time>
      </trkpt>
      <trkpt lat="43.31751" lon="-3.14693">
        <ele>287.8</ele>
        <time>2021-10-28 09:44:20</time>
      </trkpt>
      <trkpt lat="43.31748" lon="-3.14697">
        <ele>288.2</ele>
        <time>2021-10-28 09:44:21</time>
      </trkpt>
      <trkpt lat="43.31748" lon="-3.14696">
        <ele>288.4</ele>
        <time>2021-10-28 09:44:22</time>
      </trkpt>
      <trkpt lat="43.31748" lon="-3.14696">
        <ele>288.6</ele>
        <time>2021-10-28 09:44:23</time>
      </trkpt>
      <trkpt lat="43.31748" lon="-3.14699">
        <ele>289</ele>
        <time>2021-10-28 09:44:24</time>
      </trkpt>
      <trkpt lat="43.31748" lon="-3.14699">
        <ele>289.2</ele>
        <time>2021-10-28 09:44:25</time>
      </trkpt>
      <trkpt lat="43.31748" lon="-3.14699">
        <ele>289.4</ele>
        <time>2021-10-28 09:44:26</time>
      </trkpt>
      <trkpt lat="43.31747" lon="-3.14701">
        <ele>289.6</ele>
        <time>2021-10-28 09:44:27</time>
      </trkpt>
      <trkpt lat="43.31747" lon="-3.14704">
        <ele>289.8</ele>
        <time>2021-10-28 09:44:28</time>
      </trkpt>
      <trkpt lat="43.31744" lon="-3.14705">
        <ele>290</ele>
        <time>2021-10-28 09:44:29</time>
      </trkpt>
      <trkpt lat="43.31744" lon="-3.14705">
        <ele>290.4</ele>
        <time>2021-10-28 09:44:30</time>
      </trkpt>
      <trkpt lat="43.31744" lon="-3.14705">
        <ele>290.8</ele>
        <time>2021-10-28 09:44:31</time>
      </trkpt>
      <trkpt lat="43.3177" lon="-3.14746">
        <ele>305</ele>
        <time>2021-10-28 09:44:32</time>
      </trkpt>
      <trkpt lat="43.31771" lon="-3.14745">
        <ele>305.2</ele>
        <time>2021-10-28 09:44:33</time>
      </trkpt>
      <trkpt lat="43.31771" lon="-3.14741">
        <ele>305.2</ele>
        <time>2021-10-28 09:44:34</time>
      </trkpt>
      <trkpt lat="43.31775" lon="-3.14738">
        <ele>305.4</ele>
        <time>2021-10-28 09:44:35</time>
      </trkpt>
      <trkpt lat="43.31775" lon="-3.14738">
        <ele>305.6</ele>
        <time>2021-10-28 09:44:36</time>
      </trkpt>
      <trkpt lat="43.31777" lon="-3.14734">
        <ele>305.8</ele>
        <time>2021-10-28 09:45:06</time>
      </trkpt>
      <trkpt lat="43.31777" lon="-3.14734">
        <ele>306</ele>
        <time>2021-10-28 09:45:07</time>
      </trkpt>
      <trkpt lat="43.31777" lon="-3.14734">
        <ele>306</ele>
        <time>2021-10-28 09:45:08</time>
      </trkpt>
      <trkpt lat="43.31779" lon="-3.14734">
        <ele>306.2</ele>
        <time>2021-10-28 09:45:09</time>
      </trkpt>
      <trkpt lat="43.31779" lon="-3.14734">
        <ele>306.2</ele>
        <time>2021-10-28 09:45:10</time>
      </trkpt>
      <trkpt lat="43.31781" lon="-3.14729">
        <ele>306</ele>
        <time>2021-10-28 09:45:11</time>
      </trkpt>
      <trkpt lat="43.31781" lon="-3.14729">
        <ele>306</ele>
        <time>2021-10-28 09:45:12</time>
      </trkpt>
      <trkpt lat="43.31781" lon="-3.14729">
        <ele>306</ele>
        <time>2021-10-28 09:45:13</time>
      </trkpt>
      <trkpt lat="43.31781" lon="-3.14729">
        <ele>306</ele>
        <time>2021-10-28 09:45:14</time>
      </trkpt>
      <trkpt lat="43.31784" lon="-3.14727">
        <ele>306</ele>
        <time>2021-10-28 09:45:15</time>
      </trkpt>
      <trkpt lat="43.31785" lon="-3.14724">
        <ele>306.2</ele>
        <time>2021-10-28 09:45:16</time>
      </trkpt>
      <trkpt lat="43.31787" lon="-3.14721">
        <ele>306.4</ele>
        <time>2021-10-28 09:45:17</time>
      </trkpt>
      <trkpt lat="43.31788" lon="-3.14718">
        <ele>306.8</ele>
        <time>2021-10-28 09:45:18</time>
      </trkpt>
      <trkpt lat="43.31789" lon="-3.14717">
        <ele>306.8</ele>
        <time>2021-10-28 09:45:19</time>
      </trkpt>
      <trkpt lat="43.31789" lon="-3.14717">
        <ele>307</ele>
        <time>2021-10-28 09:45:20</time>
      </trkpt>
      <trkpt lat="43.31793" lon="-3.14712">
        <ele>307</ele>
        <time>2021-10-28 09:45:21</time>
      </trkpt>
      <trkpt lat="43.31794" lon="-3.1471">
        <ele>307.2</ele>
        <time>2021-10-28 09:47:53</time>
      </trkpt>
      <trkpt lat="43.31798" lon="-3.14706">
        <ele>307.2</ele>
        <time>2021-10-28 09:47:54</time>
      </trkpt>
      <trkpt lat="43.31798" lon="-3.14706">
        <ele>307.4</ele>
        <time>2021-10-28 09:47:55</time>
      </trkpt>
      <trkpt lat="43.31799" lon="-3.14702">
        <ele>307.4</ele>
        <time>2021-10-28 09:47:56</time>
      </trkpt>
      <trkpt lat="43.31799" lon="-3.14702">
        <ele>307.6</ele>
        <time>2021-10-28 09:47:57</time>
      </trkpt>
      <trkpt lat="43.31802" lon="-3.14699">
        <ele>307.8</ele>
        <time>2021-10-28 09:47:58</time>
      </trkpt>
      <trkpt lat="43.31802" lon="-3.14699">
        <ele>308</ele>
        <time>2021-10-28 09:47:59</time>
      </trkpt>
      <trkpt lat="43.31804" lon="-3.14696">
        <ele>308.2</ele>
        <time>2021-10-28 09:48:00</time>
      </trkpt>
      <trkpt lat="43.31809" lon="-3.14691">
        <ele>308.4</ele>
        <time>2021-10-28 09:48:01</time>
      </trkpt>
      <trkpt lat="43.31809" lon="-3.14691">
        <ele>308.8</ele>
        <time>2021-10-28 09:48:02</time>
      </trkpt>
      <trkpt lat="43.31809" lon="-3.14691">
        <ele>309</ele>
        <time>2021-10-28 09:48:03</time>
      </trkpt>
      <trkpt lat="43.31811" lon="-3.14687">
        <ele>309.4</ele>
        <time>2021-10-28 09:48:04</time>
      </trkpt>
      <trkpt lat="43.31811" lon="-3.14687">
        <ele>309.6</ele>
        <time>2021-10-28 09:48:05</time>
      </trkpt>
      <trkpt lat="43.31811" lon="-3.14685">
        <ele>309.8</ele>
        <time>2021-10-28 09:48:06</time>
      </trkpt>
      <trkpt lat="43.31812" lon="-3.14684">
        <ele>310.2</ele>
        <time>2021-10-28 09:48:07</time>
      </trkpt>
      <trkpt lat="43.31813" lon="-3.14681">
        <ele>310.2</ele>
        <time>2021-10-28 09:48:08</time>
      </trkpt>
      <trkpt lat="43.31817" lon="-3.14677">
        <ele>310.4</ele>
        <time>2021-10-28 09:48:09</time>
      </trkpt>
      <trkpt lat="43.31817" lon="-3.14677">
        <ele>310.4</ele>
        <time>2021-10-28 09:48:10</time>
      </trkpt>
      <trkpt lat="43.31817" lon="-3.14675">
        <ele>310.6</ele>
        <time>2021-10-28 09:48:11</time>
      </trkpt>
      <trkpt lat="43.3182" lon="-3.14673">
        <ele>310.6</ele>
        <time>2021-10-28 09:48:12</time>
      </trkpt>
      <trkpt lat="43.31822" lon="-3.14664">
        <ele>310.8</ele>
        <time>2021-10-28 09:48:13</time>
      </trkpt>
      <trkpt lat="43.31822" lon="-3.14664">
        <ele>310.8</ele>
        <time>2021-10-28 09:48:14</time>
      </trkpt>
      <trkpt lat="43.31822" lon="-3.14664">
        <ele>310.8</ele>
        <time>2021-10-28 09:48:15</time>
      </trkpt>
      <trkpt lat="43.31824" lon="-3.1466">
        <ele>310.8</ele>
        <time>2021-10-28 09:48:16</time>
      </trkpt>
      <trkpt lat="43.31828" lon="-3.14654">
        <ele>310.8</ele>
        <time>2021-10-28 09:48:17</time>
      </trkpt>
      <trkpt lat="43.3183" lon="-3.14647">
        <ele>310.8</ele>
        <time>2021-10-28 09:48:18</time>
      </trkpt>
      <trkpt lat="43.3183" lon="-3.14647">
        <ele>310.6</ele>
        <time>2021-10-28 09:48:19</time>
      </trkpt>
      <trkpt lat="43.31833" lon="-3.14643">
        <ele>310.4</ele>
        <time>2021-10-28 09:48:20</time>
      </trkpt>
      <trkpt lat="43.31832" lon="-3.14637">
        <ele>310.2</ele>
        <time>2021-10-28 09:48:21</time>
      </trkpt>
      <trkpt lat="43.31832" lon="-3.14637">
        <ele>310</ele>
        <time>2021-10-28 09:48:22</time>
      </trkpt>
      <trkpt lat="43.31835" lon="-3.14631">
        <ele>310</ele>
        <time>2021-10-28 09:48:23</time>
      </trkpt>
      <trkpt lat="43.31835" lon="-3.14631">
        <ele>310</ele>
        <time>2021-10-28 09:48:24</time>
      </trkpt>
      <trkpt lat="43.31838" lon="-3.14626">
        <ele>310</ele>
        <time>2021-10-28 09:48:25</time>
      </trkpt>
      <trkpt lat="43.31838" lon="-3.14626">
        <ele>310.2</ele>
        <time>2021-10-28 09:48:26</time>
      </trkpt>
      <trkpt lat="43.31838" lon="-3.14626">
        <ele>310.4</ele>
        <time>2021-10-28 09:48:27</time>
      </trkpt>
      <trkpt lat="43.31841" lon="-3.14617">
        <ele>310.8</ele>
        <time>2021-10-28 09:48:28</time>
      </trkpt>
      <trkpt lat="43.31841" lon="-3.14615">
        <ele>311</ele>
        <time>2021-10-28 09:48:29</time>
      </trkpt>
      <trkpt lat="43.31841" lon="-3.14615">
        <ele>311.2</ele>
        <time>2021-10-28 09:48:30</time>
      </trkpt>
      <trkpt lat="43.31841" lon="-3.14615">
        <ele>311.6</ele>
        <time>2021-10-28 09:48:31</time>
      </trkpt>
      <trkpt lat="43.31841" lon="-3.14611">
        <ele>311.8</ele>
        <time>2021-10-28 09:48:32</time>
      </trkpt>
      <trkpt lat="43.31841" lon="-3.14611">
        <ele>312.2</ele>
        <time>2021-10-28 09:48:33</time>
      </trkpt>
      <trkpt lat="43.31841" lon="-3.14611">
        <ele>312.4</ele>
        <time>2021-10-28 09:48:34</time>
      </trkpt>
      <trkpt lat="43.31842" lon="-3.14609">
        <ele>312.4</ele>
        <time>2021-10-28 09:48:35</time>
      </trkpt>
      <trkpt lat="43.31843" lon="-3.14607">
        <ele>312.6</ele>
        <time>2021-10-28 09:48:36</time>
      </trkpt>
      <trkpt lat="43.31842" lon="-3.14603">
        <ele>312.6</ele>
        <time>2021-10-28 09:48:37</time>
      </trkpt>
      <trkpt lat="43.31844" lon="-3.14597">
        <ele>313</ele>
        <time>2021-10-28 09:48:38</time>
      </trkpt>
      <trkpt lat="43.31844" lon="-3.14597">
        <ele>313.6</ele>
        <time>2021-10-28 09:48:39</time>
      </trkpt>
      <trkpt lat="43.31845" lon="-3.14591">
        <ele>314.2</ele>
        <time>2021-10-28 09:48:40</time>
      </trkpt>
      <trkpt lat="43.31845" lon="-3.14591">
        <ele>314.6</ele>
        <time>2021-10-28 09:48:41</time>
      </trkpt>
      <trkpt lat="43.31845" lon="-3.14591">
        <ele>314.6</ele>
        <time>2021-10-28 09:48:42</time>
      </trkpt>
      <trkpt lat="43.31848" lon="-3.14583">
        <ele>314.6</ele>
        <time>2021-10-28 09:48:43</time>
      </trkpt>
      <trkpt lat="43.31849" lon="-3.1458">
        <ele>314.4</ele>
        <time>2021-10-28 09:48:44</time>
      </trkpt>
      <trkpt lat="43.31849" lon="-3.1458">
        <ele>314.4</ele>
        <time>2021-10-28 09:48:45</time>
      </trkpt>
      <trkpt lat="43.31849" lon="-3.14578">
        <ele>314.4</ele>
        <time>2021-10-28 09:48:46</time>
      </trkpt>
      <trkpt lat="43.31851" lon="-3.14572">
        <ele>314.4</ele>
        <time>2021-10-28 09:48:47</time>
      </trkpt>
      <trkpt lat="43.31851" lon="-3.14572">
        <ele>314.6</ele>
        <time>2021-10-28 09:48:48</time>
      </trkpt>
      <trkpt lat="43.31851" lon="-3.1457">
        <ele>314.6</ele>
        <time>2021-10-28 09:48:49</time>
      </trkpt>
      <trkpt lat="43.31852" lon="-3.14567">
        <ele>314.8</ele>
        <time>2021-10-28 09:48:50</time>
      </trkpt>
      <trkpt lat="43.31853" lon="-3.14562">
        <ele>315.2</ele>
        <time>2021-10-28 09:48:51</time>
      </trkpt>
      <trkpt lat="43.31853" lon="-3.14562">
        <ele>315.4</ele>
        <time>2021-10-28 09:48:52</time>
      </trkpt>
      <trkpt lat="43.31854" lon="-3.14559">
        <ele>315.6</ele>
        <time>2021-10-28 09:48:53</time>
      </trkpt>
      <trkpt lat="43.31854" lon="-3.14559">
        <ele>316</ele>
        <time>2021-10-28 09:48:54</time>
      </trkpt>
      <trkpt lat="43.31857" lon="-3.14555">
        <ele>316.4</ele>
        <time>2021-10-28 09:48:55</time>
      </trkpt>
      <trkpt lat="43.31857" lon="-3.14553">
        <ele>316.8</ele>
        <time>2021-10-28 09:48:56</time>
      </trkpt>
      <trkpt lat="43.31859" lon="-3.14552">
        <ele>317</ele>
        <time>2021-10-28 09:48:57</time>
      </trkpt>
      <trkpt lat="43.31858" lon="-3.14547">
        <ele>317.4</ele>
        <time>2021-10-28 09:48:58</time>
      </trkpt>
      <trkpt lat="43.3186" lon="-3.14545">
        <ele>317.8</ele>
        <time>2021-10-28 09:48:59</time>
      </trkpt>
      <trkpt lat="43.3186" lon="-3.14545">
        <ele>318.2</ele>
        <time>2021-10-28 09:49:00</time>
      </trkpt>
      <trkpt lat="43.31861" lon="-3.14544">
        <ele>318.6</ele>
        <time>2021-10-28 09:49:01</time>
      </trkpt>
      <trkpt lat="43.31862" lon="-3.14542">
        <ele>318.8</ele>
        <time>2021-10-28 09:49:02</time>
      </trkpt>
      <trkpt lat="43.31862" lon="-3.14537">
        <ele>319</ele>
        <time>2021-10-28 09:49:03</time>
      </trkpt>
      <trkpt lat="43.31862" lon="-3.14537">
        <ele>319.4</ele>
        <time>2021-10-28 09:49:04</time>
      </trkpt>
      <trkpt lat="43.31862" lon="-3.14537">
        <ele>319.6</ele>
        <time>2021-10-28 09:49:05</time>
      </trkpt>
      <trkpt lat="43.31864" lon="-3.14534">
        <ele>320</ele>
        <time>2021-10-28 09:49:06</time>
      </trkpt>
      <trkpt lat="43.31864" lon="-3.14534">
        <ele>320.4</ele>
        <time>2021-10-28 09:49:07</time>
      </trkpt>
      <trkpt lat="43.31864" lon="-3.14532">
        <ele>320.6</ele>
        <time>2021-10-28 09:49:08</time>
      </trkpt>
      <trkpt lat="43.31864" lon="-3.1453">
        <ele>320.8</ele>
        <time>2021-10-28 09:49:09</time>
      </trkpt>
      <trkpt lat="43.31863" lon="-3.14524">
        <ele>321</ele>
        <time>2021-10-28 09:49:10</time>
      </trkpt>
      <trkpt lat="43.31863" lon="-3.14524">
        <ele>321.2</ele>
        <time>2021-10-28 09:49:11</time>
      </trkpt>
      <trkpt lat="43.31863" lon="-3.14524">
        <ele>321.4</ele>
        <time>2021-10-28 09:49:12</time>
      </trkpt>
      <trkpt lat="43.31862" lon="-3.1452">
        <ele>321.6</ele>
        <time>2021-10-28 09:49:13</time>
      </trkpt>
      <trkpt lat="43.31862" lon="-3.1452">
        <ele>321.8</ele>
        <time>2021-10-28 09:49:14</time>
      </trkpt>
      <trkpt lat="43.31863" lon="-3.14519">
        <ele>322.2</ele>
        <time>2021-10-28 09:49:15</time>
      </trkpt>
      <trkpt lat="43.31863" lon="-3.14514">
        <ele>322.4</ele>
        <time>2021-10-28 09:49:16</time>
      </trkpt>
      <trkpt lat="43.31863" lon="-3.14514">
        <ele>322.4</ele>
        <time>2021-10-28 09:49:17</time>
      </trkpt>
      <trkpt lat="43.31864" lon="-3.1451">
        <ele>322.4</ele>
        <time>2021-10-28 09:49:18</time>
      </trkpt>
      <trkpt lat="43.31864" lon="-3.1451">
        <ele>322.6</ele>
        <time>2021-10-28 09:49:19</time>
      </trkpt>
      <trkpt lat="43.31866" lon="-3.14505">
        <ele>322.8</ele>
        <time>2021-10-28 09:49:20</time>
      </trkpt>
      <trkpt lat="43.31868" lon="-3.14504">
        <ele>323</ele>
        <time>2021-10-28 09:49:21</time>
      </trkpt>
      <trkpt lat="43.31869" lon="-3.14502">
        <ele>323.4</ele>
        <time>2021-10-28 09:49:22</time>
      </trkpt>
      <trkpt lat="43.31869" lon="-3.14502">
        <ele>323.8</ele>
        <time>2021-10-28 09:49:23</time>
      </trkpt>
      <trkpt lat="43.31869" lon="-3.145">
        <ele>323.8</ele>
        <time>2021-10-28 09:49:24</time>
      </trkpt>
      <trkpt lat="43.31868" lon="-3.14498">
        <ele>324</ele>
        <time>2021-10-28 09:49:25</time>
      </trkpt>
      <trkpt lat="43.31867" lon="-3.14498">
        <ele>324.6</ele>
        <time>2021-10-28 09:49:26</time>
      </trkpt>
      <trkpt lat="43.31868" lon="-3.14495">
        <ele>325</ele>
        <time>2021-10-28 09:49:27</time>
      </trkpt>
      <trkpt lat="43.3187" lon="-3.1449">
        <ele>325.4</ele>
        <time>2021-10-28 09:49:28</time>
      </trkpt>
      <trkpt lat="43.31871" lon="-3.14486">
        <ele>325.6</ele>
        <time>2021-10-28 09:49:29</time>
      </trkpt>
      <trkpt lat="43.31871" lon="-3.14486">
        <ele>325.8</ele>
        <time>2021-10-28 09:49:30</time>
      </trkpt>
      <trkpt lat="43.31871" lon="-3.14486">
        <ele>326</ele>
        <time>2021-10-28 09:49:31</time>
      </trkpt>
      <trkpt lat="43.3187" lon="-3.14483">
        <ele>326.2</ele>
        <time>2021-10-28 09:49:32</time>
      </trkpt>
      <trkpt lat="43.31871" lon="-3.14479">
        <ele>326.6</ele>
        <time>2021-10-28 09:49:33</time>
      </trkpt>
      <trkpt lat="43.31871" lon="-3.14479">
        <ele>327</ele>
        <time>2021-10-28 09:49:34</time>
      </trkpt>
      <trkpt lat="43.31874" lon="-3.14476">
        <ele>327.6</ele>
        <time>2021-10-28 09:49:35</time>
      </trkpt>
      <trkpt lat="43.31874" lon="-3.14474">
        <ele>328</ele>
        <time>2021-10-28 09:49:36</time>
      </trkpt>
      <trkpt lat="43.31875" lon="-3.14471">
        <ele>328.2</ele>
        <time>2021-10-28 09:49:37</time>
      </trkpt>
      <trkpt lat="43.31875" lon="-3.14471">
        <ele>328.6</ele>
        <time>2021-10-28 09:49:38</time>
      </trkpt>
      <trkpt lat="43.31876" lon="-3.14466">
        <ele>328.8</ele>
        <time>2021-10-28 09:49:39</time>
      </trkpt>
      <trkpt lat="43.31876" lon="-3.14466">
        <ele>328.8</ele>
        <time>2021-10-28 09:49:40</time>
      </trkpt>
      <trkpt lat="43.31876" lon="-3.14463">
        <ele>329</ele>
        <time>2021-10-28 09:49:41</time>
      </trkpt>
      <trkpt lat="43.31879" lon="-3.1446">
        <ele>329</ele>
        <time>2021-10-28 09:49:42</time>
      </trkpt>
      <trkpt lat="43.31879" lon="-3.1446">
        <ele>329</ele>
        <time>2021-10-28 09:49:43</time>
      </trkpt>
      <trkpt lat="43.31881" lon="-3.14454">
        <ele>329.2</ele>
        <time>2021-10-28 09:49:44</time>
      </trkpt>
      <trkpt lat="43.31881" lon="-3.14454">
        <ele>329.4</ele>
        <time>2021-10-28 09:49:45</time>
      </trkpt>
      <trkpt lat="43.31882" lon="-3.14449">
        <ele>329.4</ele>
        <time>2021-10-28 09:49:46</time>
      </trkpt>
      <trkpt lat="43.31882" lon="-3.14449">
        <ele>329.6</ele>
        <time>2021-10-28 09:49:47</time>
      </trkpt>
      <trkpt lat="43.31883" lon="-3.14443">
        <ele>329.6</ele>
        <time>2021-10-28 09:49:48</time>
      </trkpt>
      <trkpt lat="43.31883" lon="-3.14443">
        <ele>329.8</ele>
        <time>2021-10-28 09:49:49</time>
      </trkpt>
      <trkpt lat="43.31883" lon="-3.14443">
        <ele>330.2</ele>
        <time>2021-10-28 09:49:50</time>
      </trkpt>
      <trkpt lat="43.31882" lon="-3.14442">
        <ele>330.6</ele>
        <time>2021-10-28 09:49:51</time>
      </trkpt>
      <trkpt lat="43.31882" lon="-3.14442">
        <ele>331</ele>
        <time>2021-10-28 09:49:52</time>
      </trkpt>
      <trkpt lat="43.31882" lon="-3.1444">
        <ele>331.2</ele>
        <time>2021-10-28 09:49:53</time>
      </trkpt>
      <trkpt lat="43.31882" lon="-3.14439">
        <ele>331.4</ele>
        <time>2021-10-28 09:49:54</time>
      </trkpt>
      <trkpt lat="43.31882" lon="-3.14434">
        <ele>331.4</ele>
        <time>2021-10-28 09:49:55</time>
      </trkpt>
      <trkpt lat="43.31882" lon="-3.14434">
        <ele>331.8</ele>
        <time>2021-10-28 09:49:56</time>
      </trkpt>
      <trkpt lat="43.31883" lon="-3.14432">
        <ele>332</ele>
        <time>2021-10-28 09:49:57</time>
      </trkpt>
      <trkpt lat="43.31883" lon="-3.14432">
        <ele>332.4</ele>
        <time>2021-10-28 09:49:58</time>
      </trkpt>
      <trkpt lat="43.31883" lon="-3.1443">
        <ele>332.6</ele>
        <time>2021-10-28 09:49:59</time>
      </trkpt>
      <trkpt lat="43.3188" lon="-3.14431">
        <ele>332.6</ele>
        <time>2021-10-28 09:50:00</time>
      </trkpt>
      <trkpt lat="43.3188" lon="-3.1443">
        <ele>332.8</ele>
        <time>2021-10-28 09:50:01</time>
      </trkpt>
      <trkpt lat="43.31879" lon="-3.14428">
        <ele>332.8</ele>
        <time>2021-10-28 09:50:02</time>
      </trkpt>
      <trkpt lat="43.3188" lon="-3.14424">
        <ele>333</ele>
        <time>2021-10-28 09:50:03</time>
      </trkpt>
      <trkpt lat="43.3188" lon="-3.14424">
        <ele>333</ele>
        <time>2021-10-28 09:50:04</time>
      </trkpt>
      <trkpt lat="43.3188" lon="-3.14422">
        <ele>333.2</ele>
        <time>2021-10-28 09:50:05</time>
      </trkpt>
      <trkpt lat="43.31881" lon="-3.1442">
        <ele>333.6</ele>
        <time>2021-10-28 09:50:06</time>
      </trkpt>
      <trkpt lat="43.31881" lon="-3.14418">
        <ele>334</ele>
        <time>2021-10-28 09:50:07</time>
      </trkpt>
      <trkpt lat="43.31881" lon="-3.14416">
        <ele>334.4</ele>
        <time>2021-10-28 09:50:08</time>
      </trkpt>
      <trkpt lat="43.31882" lon="-3.14412">
        <ele>334.8</ele>
        <time>2021-10-28 09:50:09</time>
      </trkpt>
      <trkpt lat="43.31882" lon="-3.1441">
        <ele>335.4</ele>
        <time>2021-10-28 09:50:10</time>
      </trkpt>
      <trkpt lat="43.31882" lon="-3.1441">
        <ele>335.6</ele>
        <time>2021-10-28 09:50:11</time>
      </trkpt>
      <trkpt lat="43.31882" lon="-3.14408">
        <ele>335.8</ele>
        <time>2021-10-28 09:50:12</time>
      </trkpt>
      <trkpt lat="43.31884" lon="-3.14404">
        <ele>336</ele>
        <time>2021-10-28 09:50:13</time>
      </trkpt>
      <trkpt lat="43.31886" lon="-3.14399">
        <ele>336</ele>
        <time>2021-10-28 09:50:14</time>
      </trkpt>
      <trkpt lat="43.31886" lon="-3.14399">
        <ele>336</ele>
        <time>2021-10-28 09:50:15</time>
      </trkpt>
      <trkpt lat="43.31886" lon="-3.14399">
        <ele>336.2</ele>
        <time>2021-10-28 09:50:16</time>
      </trkpt>
      <trkpt lat="43.31887" lon="-3.14397">
        <ele>336.2</ele>
        <time>2021-10-28 09:50:17</time>
      </trkpt>
      <trkpt lat="43.31887" lon="-3.14393">
        <ele>336.2</ele>
        <time>2021-10-28 09:50:18</time>
      </trkpt>
      <trkpt lat="43.31887" lon="-3.14393">
        <ele>336.2</ele>
        <time>2021-10-28 09:50:19</time>
      </trkpt>
      <trkpt lat="43.31887" lon="-3.14392">
        <ele>336.4</ele>
        <time>2021-10-28 09:50:20</time>
      </trkpt>
      <trkpt lat="43.31888" lon="-3.14386">
        <ele>336.8</ele>
        <time>2021-10-28 09:50:21</time>
      </trkpt>
      <trkpt lat="43.31888" lon="-3.14386">
        <ele>337</ele>
        <time>2021-10-28 09:50:22</time>
      </trkpt>
      <trkpt lat="43.31888" lon="-3.14386">
        <ele>337.2</ele>
        <time>2021-10-28 09:50:23</time>
      </trkpt>
      <trkpt lat="43.31888" lon="-3.14384">
        <ele>337.2</ele>
        <time>2021-10-28 09:50:24</time>
      </trkpt>
      <trkpt lat="43.3189" lon="-3.14381">
        <ele>337.4</ele>
        <time>2021-10-28 09:50:25</time>
      </trkpt>
      <trkpt lat="43.31891" lon="-3.14379">
        <ele>337.4</ele>
        <time>2021-10-28 09:50:26</time>
      </trkpt>
      <trkpt lat="43.31892" lon="-3.14376">
        <ele>337.4</ele>
        <time>2021-10-28 09:50:27</time>
      </trkpt>
      <trkpt lat="43.31892" lon="-3.14376">
        <ele>337.4</ele>
        <time>2021-10-28 09:50:28</time>
      </trkpt>
      <trkpt lat="43.31891" lon="-3.14374">
        <ele>337.6</ele>
        <time>2021-10-28 09:50:29</time>
      </trkpt>
      <trkpt lat="43.31891" lon="-3.14374">
        <ele>337.6</ele>
        <time>2021-10-28 09:50:30</time>
      </trkpt>
      <trkpt lat="43.31891" lon="-3.14374">
        <ele>337.8</ele>
        <time>2021-10-28 09:50:31</time>
      </trkpt>
      <trkpt lat="43.31894" lon="-3.14367">
        <ele>338.2</ele>
        <time>2021-10-28 09:50:32</time>
      </trkpt>
      <trkpt lat="43.31894" lon="-3.14367">
        <ele>338.4</ele>
        <time>2021-10-28 09:50:33</time>
      </trkpt>
      <trkpt lat="43.31893" lon="-3.14365">
        <ele>338.6</ele>
        <time>2021-10-28 09:50:34</time>
      </trkpt>
      <trkpt lat="43.31893" lon="-3.14365">
        <ele>338.8</ele>
        <time>2021-10-28 09:50:35</time>
      </trkpt>
      <trkpt lat="43.31895" lon="-3.1436">
        <ele>338.8</ele>
        <time>2021-10-28 09:50:36</time>
      </trkpt>
      <trkpt lat="43.31896" lon="-3.14357">
        <ele>339</ele>
        <time>2021-10-28 09:50:37</time>
      </trkpt>
      <trkpt lat="43.31896" lon="-3.14357">
        <ele>339.4</ele>
        <time>2021-10-28 09:50:38</time>
      </trkpt>
      <trkpt lat="43.31897" lon="-3.14355">
        <ele>339.8</ele>
        <time>2021-10-28 09:50:39</time>
      </trkpt>
      <trkpt lat="43.31901" lon="-3.14352">
        <ele>340.2</ele>
        <time>2021-10-28 09:50:40</time>
      </trkpt>
      <trkpt lat="43.31901" lon="-3.14352">
        <ele>340.4</ele>
        <time>2021-10-28 09:50:41</time>
      </trkpt>
      <trkpt lat="43.31901" lon="-3.14352">
        <ele>340.4</ele>
        <time>2021-10-28 09:50:42</time>
      </trkpt>
      <trkpt lat="43.31902" lon="-3.14358">
        <ele>340.6</ele>
        <time>2021-10-28 09:50:43</time>
      </trkpt>
      <trkpt lat="43.31902" lon="-3.14358">
        <ele>340.6</ele>
        <time>2021-10-28 09:50:44</time>
      </trkpt>
      <trkpt lat="43.31903" lon="-3.14358">
        <ele>340.8</ele>
        <time>2021-10-28 09:50:45</time>
      </trkpt>
      <trkpt lat="43.31904" lon="-3.14363">
        <ele>341</ele>
        <time>2021-10-28 09:50:46</time>
      </trkpt>
      <trkpt lat="43.31903" lon="-3.14369">
        <ele>341.2</ele>
        <time>2021-10-28 09:50:47</time>
      </trkpt>
      <trkpt lat="43.31903" lon="-3.14369">
        <ele>341.2</ele>
        <time>2021-10-28 09:50:48</time>
      </trkpt>
      <trkpt lat="43.31903" lon="-3.14369">
        <ele>341.2</ele>
        <time>2021-10-28 09:50:49</time>
      </trkpt>
      <trkpt lat="43.31903" lon="-3.14369">
        <ele>341.4</ele>
        <time>2021-10-28 09:50:50</time>
      </trkpt>
      <trkpt lat="43.31903" lon="-3.14375">
        <ele>341.4</ele>
        <time>2021-10-28 09:50:51</time>
      </trkpt>
      <trkpt lat="43.31902" lon="-3.14377">
        <ele>341.4</ele>
        <time>2021-10-28 09:50:52</time>
      </trkpt>
      <trkpt lat="43.319" lon="-3.14382">
        <ele>341.2</ele>
        <time>2021-10-28 09:50:53</time>
      </trkpt>
      <trkpt lat="43.31899" lon="-3.14385">
        <ele>341.4</ele>
        <time>2021-10-28 09:50:54</time>
      </trkpt>
      <trkpt lat="43.31899" lon="-3.14392">
        <ele>341.4</ele>
        <time>2021-10-28 09:50:55</time>
      </trkpt>
      <trkpt lat="43.31899" lon="-3.14392">
        <ele>341.4</ele>
        <time>2021-10-28 09:50:56</time>
      </trkpt>
      <trkpt lat="43.31901" lon="-3.14393">
        <ele>341.6</ele>
        <time>2021-10-28 09:50:57</time>
      </trkpt>
      <trkpt lat="43.31903" lon="-3.14404">
        <ele>341.8</ele>
        <time>2021-10-28 09:50:58</time>
      </trkpt>
      <trkpt lat="43.31905" lon="-3.14411">
        <ele>341.8</ele>
        <time>2021-10-28 09:50:59</time>
      </trkpt>
      <trkpt lat="43.31905" lon="-3.14411">
        <ele>341.8</ele>
        <time>2021-10-28 09:51:00</time>
      </trkpt>
      <trkpt lat="43.31905" lon="-3.14411">
        <ele>341.8</ele>
        <time>2021-10-28 09:51:01</time>
      </trkpt>
      <trkpt lat="43.31907" lon="-3.14414">
        <ele>342</ele>
        <time>2021-10-28 09:51:02</time>
      </trkpt>
      <trkpt lat="43.31907" lon="-3.14414">
        <ele>342</ele>
        <time>2021-10-28 09:51:03</time>
      </trkpt>
      <trkpt lat="43.31908" lon="-3.14418">
        <ele>342</ele>
        <time>2021-10-28 09:51:04</time>
      </trkpt>
      <trkpt lat="43.31909" lon="-3.14426">
        <ele>342</ele>
        <time>2021-10-28 09:51:05</time>
      </trkpt>
      <trkpt lat="43.31911" lon="-3.14431">
        <ele>342.2</ele>
        <time>2021-10-28 09:51:06</time>
      </trkpt>
      <trkpt lat="43.31911" lon="-3.14431">
        <ele>342.2</ele>
        <time>2021-10-28 09:51:07</time>
      </trkpt>
      <trkpt lat="43.31911" lon="-3.14431">
        <ele>342</ele>
        <time>2021-10-28 09:51:08</time>
      </trkpt>
      <trkpt lat="43.31913" lon="-3.14433">
        <ele>342</ele>
        <time>2021-10-28 09:51:09</time>
      </trkpt>
      <trkpt lat="43.31917" lon="-3.14434">
        <ele>342</ele>
        <time>2021-10-28 09:51:10</time>
      </trkpt>
      <trkpt lat="43.31919" lon="-3.14436">
        <ele>342</ele>
        <time>2021-10-28 09:51:11</time>
      </trkpt>
      <trkpt lat="43.31919" lon="-3.14436">
        <ele>342.4</ele>
        <time>2021-10-28 09:51:12</time>
      </trkpt>
      <trkpt lat="43.31919" lon="-3.14436">
        <ele>342.8</ele>
        <time>2021-10-28 09:51:13</time>
      </trkpt>
      <trkpt lat="43.3192" lon="-3.14444">
        <ele>343</ele>
        <time>2021-10-28 09:51:14</time>
      </trkpt>
      <trkpt lat="43.3192" lon="-3.14444">
        <ele>343.2</ele>
        <time>2021-10-28 09:51:15</time>
      </trkpt>
      <trkpt lat="43.3192" lon="-3.14447">
        <ele>343.4</ele>
        <time>2021-10-28 09:51:16</time>
      </trkpt>
      <trkpt lat="43.31919" lon="-3.14453">
        <ele>343.6</ele>
        <time>2021-10-28 09:51:17</time>
      </trkpt>
      <trkpt lat="43.3192" lon="-3.14458">
        <ele>343.8</ele>
        <time>2021-10-28 09:51:18</time>
      </trkpt>
      <trkpt lat="43.3192" lon="-3.14458">
        <ele>344</ele>
        <time>2021-10-28 09:51:19</time>
      </trkpt>
      <trkpt lat="43.31918" lon="-3.14464">
        <ele>344.2</ele>
        <time>2021-10-28 09:51:20</time>
      </trkpt>
      <trkpt lat="43.31918" lon="-3.14466">
        <ele>344.6</ele>
        <time>2021-10-28 09:51:21</time>
      </trkpt>
      <trkpt lat="43.31918" lon="-3.14466">
        <ele>345</ele>
        <time>2021-10-28 09:51:22</time>
      </trkpt>
      <trkpt lat="43.31919" lon="-3.1447">
        <ele>345.2</ele>
        <time>2021-10-28 09:51:23</time>
      </trkpt>
      <trkpt lat="43.31919" lon="-3.1447">
        <ele>345.4</ele>
        <time>2021-10-28 09:51:24</time>
      </trkpt>
      <trkpt lat="43.31919" lon="-3.14472">
        <ele>345.6</ele>
        <time>2021-10-28 09:51:25</time>
      </trkpt>
      <trkpt lat="43.31918" lon="-3.14477">
        <ele>345.8</ele>
        <time>2021-10-28 09:51:26</time>
      </trkpt>
      <trkpt lat="43.31918" lon="-3.14477">
        <ele>346.2</ele>
        <time>2021-10-28 09:51:27</time>
      </trkpt>
      <trkpt lat="43.31918" lon="-3.14477">
        <ele>346.4</ele>
        <time>2021-10-28 09:51:28</time>
      </trkpt>
      <trkpt lat="43.31919" lon="-3.14481">
        <ele>346.6</ele>
        <time>2021-10-28 09:51:29</time>
      </trkpt>
      <trkpt lat="43.31921" lon="-3.14487">
        <ele>346.8</ele>
        <time>2021-10-28 09:51:30</time>
      </trkpt>
      <trkpt lat="43.31921" lon="-3.14487">
        <ele>347</ele>
        <time>2021-10-28 09:51:31</time>
      </trkpt>
      <trkpt lat="43.31922" lon="-3.14489">
        <ele>347.4</ele>
        <time>2021-10-28 09:51:32</time>
      </trkpt>
      <trkpt lat="43.31922" lon="-3.14489">
        <ele>347.8</ele>
        <time>2021-10-28 09:51:33</time>
      </trkpt>
      <trkpt lat="43.31922" lon="-3.14496">
        <ele>348.2</ele>
        <time>2021-10-28 09:51:34</time>
      </trkpt>
      <trkpt lat="43.31922" lon="-3.14496">
        <ele>348.8</ele>
        <time>2021-10-28 09:51:35</time>
      </trkpt>
      <trkpt lat="43.31924" lon="-3.14497">
        <ele>349.2</ele>
        <time>2021-10-28 09:51:36</time>
      </trkpt>
      <trkpt lat="43.31921" lon="-3.14505">
        <ele>349.4</ele>
        <time>2021-10-28 09:51:37</time>
      </trkpt>
      <trkpt lat="43.31921" lon="-3.14508">
        <ele>349.4</ele>
        <time>2021-10-28 09:51:38</time>
      </trkpt>
      <trkpt lat="43.3192" lon="-3.14511">
        <ele>349.6</ele>
        <time>2021-10-28 09:51:39</time>
      </trkpt>
      <trkpt lat="43.3192" lon="-3.14511">
        <ele>349.8</ele>
        <time>2021-10-28 09:51:40</time>
      </trkpt>
      <trkpt lat="43.31921" lon="-3.14515">
        <ele>350</ele>
        <time>2021-10-28 09:51:41</time>
      </trkpt>
      <trkpt lat="43.31922" lon="-3.14521">
        <ele>350.4</ele>
        <time>2021-10-28 09:51:42</time>
      </trkpt>
      <trkpt lat="43.31922" lon="-3.14521">
        <ele>350.8</ele>
        <time>2021-10-28 09:51:43</time>
      </trkpt>
      <trkpt lat="43.31922" lon="-3.14521">
        <ele>351.2</ele>
        <time>2021-10-28 09:51:44</time>
      </trkpt>
      <trkpt lat="43.31924" lon="-3.14523">
        <ele>351.8</ele>
        <time>2021-10-28 09:51:45</time>
      </trkpt>
      <trkpt lat="43.31923" lon="-3.14528">
        <ele>352.2</ele>
        <time>2021-10-28 09:51:46</time>
      </trkpt>
      <trkpt lat="43.31923" lon="-3.1453">
        <ele>352.6</ele>
        <time>2021-10-28 09:51:47</time>
      </trkpt>
      <trkpt lat="43.31923" lon="-3.1453">
        <ele>352.8</ele>
        <time>2021-10-28 09:51:48</time>
      </trkpt>
      <trkpt lat="43.31921" lon="-3.14539">
        <ele>353</ele>
        <time>2021-10-28 09:51:49</time>
      </trkpt>
      <trkpt lat="43.31921" lon="-3.14539">
        <ele>353</ele>
        <time>2021-10-28 09:51:50</time>
      </trkpt>
      <trkpt lat="43.31921" lon="-3.14539">
        <ele>353</ele>
        <time>2021-10-28 09:51:51</time>
      </trkpt>
      <trkpt lat="43.31926" lon="-3.1454">
        <ele>353.2</ele>
        <time>2021-10-28 09:51:52</time>
      </trkpt>
      <trkpt lat="43.31926" lon="-3.1454">
        <ele>353.4</ele>
        <time>2021-10-28 09:51:53</time>
      </trkpt>
      <trkpt lat="43.31927" lon="-3.14545">
        <ele>353.6</ele>
        <time>2021-10-28 09:51:54</time>
      </trkpt>
      <trkpt lat="43.31927" lon="-3.14545">
        <ele>353.6</ele>
        <time>2021-10-28 09:51:55</time>
      </trkpt>
      <trkpt lat="43.31927" lon="-3.14545">
        <ele>353.8</ele>
        <time>2021-10-28 09:51:56</time>
      </trkpt>
      <trkpt lat="43.31929" lon="-3.14549">
        <ele>354</ele>
        <time>2021-10-28 09:51:57</time>
      </trkpt>
      <trkpt lat="43.31929" lon="-3.14549">
        <ele>354.2</ele>
        <time>2021-10-28 09:51:58</time>
      </trkpt>
      <trkpt lat="43.31929" lon="-3.14551">
        <ele>354.4</ele>
        <time>2021-10-28 09:51:59</time>
      </trkpt>
      <trkpt lat="43.31933" lon="-3.14553">
        <ele>354.6</ele>
        <time>2021-10-28 09:52:00</time>
      </trkpt>
      <trkpt lat="43.31937" lon="-3.14556">
        <ele>354.6</ele>
        <time>2021-10-28 09:52:01</time>
      </trkpt>
      <trkpt lat="43.31937" lon="-3.14556">
        <ele>354.6</ele>
        <time>2021-10-28 09:52:02</time>
      </trkpt>
      <trkpt lat="43.31937" lon="-3.14556">
        <ele>354.6</ele>
        <time>2021-10-28 09:52:03</time>
      </trkpt>
      <trkpt lat="43.31938" lon="-3.14562">
        <ele>354.6</ele>
        <time>2021-10-28 09:52:04</time>
      </trkpt>
      <trkpt lat="43.31938" lon="-3.14562">
        <ele>354.6</ele>
        <time>2021-10-28 09:52:05</time>
      </trkpt>
      <trkpt lat="43.3194" lon="-3.14565">
        <ele>354.4</ele>
        <time>2021-10-28 09:52:06</time>
      </trkpt>
      <trkpt lat="43.3194" lon="-3.14565">
        <ele>354.4</ele>
        <time>2021-10-28 09:52:07</time>
      </trkpt>
      <trkpt lat="43.31944" lon="-3.1457">
        <ele>354.2</ele>
        <time>2021-10-28 09:52:08</time>
      </trkpt>
      <trkpt lat="43.31947" lon="-3.14573">
        <ele>354.2</ele>
        <time>2021-10-28 09:52:09</time>
      </trkpt>
      <trkpt lat="43.31947" lon="-3.14573">
        <ele>354.6</ele>
        <time>2021-10-28 09:52:10</time>
      </trkpt>
      <trkpt lat="43.31948" lon="-3.14574">
        <ele>355</ele>
        <time>2021-10-28 09:52:11</time>
      </trkpt>
      <trkpt lat="43.31949" lon="-3.14575">
        <ele>355.2</ele>
        <time>2021-10-28 09:52:12</time>
      </trkpt>
      <trkpt lat="43.31954" lon="-3.14577">
        <ele>355.4</ele>
        <time>2021-10-28 09:52:13</time>
      </trkpt>
      <trkpt lat="43.31954" lon="-3.14577">
        <ele>355.4</ele>
        <time>2021-10-28 09:52:14</time>
      </trkpt>
      <trkpt lat="43.31954" lon="-3.14577">
        <ele>355.4</ele>
        <time>2021-10-28 09:52:15</time>
      </trkpt>
      <trkpt lat="43.31959" lon="-3.1458">
        <ele>355.6</ele>
        <time>2021-10-28 09:52:16</time>
      </trkpt>
      <trkpt lat="43.31959" lon="-3.1458">
        <ele>355.8</ele>
        <time>2021-10-28 09:52:17</time>
      </trkpt>
      <trkpt lat="43.31961" lon="-3.14582">
        <ele>355.8</ele>
        <time>2021-10-28 09:52:18</time>
      </trkpt>
      <trkpt lat="43.31966" lon="-3.14584">
        <ele>356</ele>
        <time>2021-10-28 09:52:19</time>
      </trkpt>
      <trkpt lat="43.31966" lon="-3.14584">
        <ele>356</ele>
        <time>2021-10-28 09:52:20</time>
      </trkpt>
      <trkpt lat="43.31968" lon="-3.1459">
        <ele>356</ele>
        <time>2021-10-28 09:52:21</time>
      </trkpt>
      <trkpt lat="43.31968" lon="-3.1459">
        <ele>356.2</ele>
        <time>2021-10-28 09:52:22</time>
      </trkpt>
      <trkpt lat="43.31971" lon="-3.14593">
        <ele>356.2</ele>
        <time>2021-10-28 09:52:23</time>
      </trkpt>
      <trkpt lat="43.31971" lon="-3.14593">
        <ele>356.4</ele>
        <time>2021-10-28 09:52:24</time>
      </trkpt>
      <trkpt lat="43.31976" lon="-3.14596">
        <ele>356.4</ele>
        <time>2021-10-28 09:52:25</time>
      </trkpt>
      <trkpt lat="43.31976" lon="-3.14596">
        <ele>356.4</ele>
        <time>2021-10-28 09:52:26</time>
      </trkpt>
      <trkpt lat="43.31976" lon="-3.14596">
        <ele>356.6</ele>
        <time>2021-10-28 09:52:27</time>
      </trkpt>
      <trkpt lat="43.31978" lon="-3.14597">
        <ele>357</ele>
        <time>2021-10-28 09:52:28</time>
      </trkpt>
      <trkpt lat="43.31978" lon="-3.14597">
        <ele>357.4</ele>
        <time>2021-10-28 09:52:29</time>
      </trkpt>
      <trkpt lat="43.31982" lon="-3.14598">
        <ele>357.6</ele>
        <time>2021-10-28 09:52:30</time>
      </trkpt>
      <trkpt lat="43.31982" lon="-3.14599">
        <ele>357.6</ele>
        <time>2021-10-28 09:52:31</time>
      </trkpt>
      <trkpt lat="43.31982" lon="-3.14599">
        <ele>357.4</ele>
        <time>2021-10-28 09:52:32</time>
      </trkpt>
      <trkpt lat="43.31986" lon="-3.146">
        <ele>357.4</ele>
        <time>2021-10-28 09:52:33</time>
      </trkpt>
      <trkpt lat="43.31986" lon="-3.146">
        <ele>357.4</ele>
        <time>2021-10-28 09:52:34</time>
      </trkpt>
      <trkpt lat="43.31988" lon="-3.14602">
        <ele>357.6</ele>
        <time>2021-10-28 09:52:35</time>
      </trkpt>
      <trkpt lat="43.31989" lon="-3.14603">
        <ele>357.8</ele>
        <time>2021-10-28 09:52:36</time>
      </trkpt>
      <trkpt lat="43.31995" lon="-3.14605">
        <ele>357.8</ele>
        <time>2021-10-28 09:52:37</time>
      </trkpt>
      <trkpt lat="43.31995" lon="-3.14605">
        <ele>357.6</ele>
        <time>2021-10-28 09:52:38</time>
      </trkpt>
      <trkpt lat="43.31995" lon="-3.14605">
        <ele>357.4</ele>
        <time>2021-10-28 09:52:39</time>
      </trkpt>
      <trkpt lat="43.31995" lon="-3.14605">
        <ele>357.4</ele>
        <time>2021-10-28 09:52:40</time>
      </trkpt>
      <trkpt lat="43.31995" lon="-3.14606">
        <ele>357.4</ele>
        <time>2021-10-28 09:52:41</time>
      </trkpt>
      <trkpt lat="43.31996" lon="-3.14604">
        <ele>357.4</ele>
        <time>2021-10-28 09:52:42</time>
      </trkpt>
      <trkpt lat="43.31996" lon="-3.14604">
        <ele>357.4</ele>
        <time>2021-10-28 09:52:43</time>
      </trkpt>
      <trkpt lat="43.31996" lon="-3.14606">
        <ele>357.4</ele>
        <time>2021-10-28 09:52:44</time>
      </trkpt>
      <trkpt lat="43.31996" lon="-3.14606">
        <ele>357.2</ele>
        <time>2021-10-28 09:52:45</time>
      </trkpt>
      <trkpt lat="43.31996" lon="-3.14606">
        <ele>357</ele>
        <time>2021-10-28 09:52:46</time>
      </trkpt>
      <trkpt lat="43.31995" lon="-3.14607">
        <ele>356.6</ele>
        <time>2021-10-28 09:52:47</time>
      </trkpt>
      <trkpt lat="43.31995" lon="-3.14608">
        <ele>356.4</ele>
        <time>2021-10-28 09:52:48</time>
      </trkpt>
      <trkpt lat="43.31996" lon="-3.14607">
        <ele>356.4</ele>
        <time>2021-10-28 09:52:49</time>
      </trkpt>
      <trkpt lat="43.31985" lon="-3.14611">
        <ele>357</ele>
        <time>2021-10-28 09:52:50</time>
      </trkpt>
      <trkpt lat="43.31984" lon="-3.14612">
        <ele>357</ele>
        <time>2021-10-28 09:52:51</time>
      </trkpt>
      <trkpt lat="43.31984" lon="-3.14612">
        <ele>357</ele>
        <time>2021-10-28 09:52:52</time>
      </trkpt>
      <trkpt lat="43.31984" lon="-3.14612">
        <ele>357.4</ele>
        <time>2021-10-28 09:52:53</time>
      </trkpt>
      <trkpt lat="43.31983" lon="-3.14614">
        <ele>357.4</ele>
        <time>2021-10-28 09:52:54</time>
      </trkpt>
      <trkpt lat="43.31982" lon="-3.146">
        <ele>358.2</ele>
        <time>2021-10-28 09:52:55</time>
      </trkpt>
      <trkpt lat="43.31977" lon="-3.14598">
        <ele>358.2</ele>
        <time>2021-10-28 09:52:56</time>
      </trkpt>
      <trkpt lat="43.31977" lon="-3.14598">
        <ele>358.2</ele>
        <time>2021-10-28 09:52:57</time>
      </trkpt>
      <trkpt lat="43.31977" lon="-3.14598">
        <ele>358</ele>
        <time>2021-10-28 09:52:58</time>
      </trkpt>
      <trkpt lat="43.31972" lon="-3.14596">
        <ele>357.8</ele>
        <time>2021-10-28 09:52:59</time>
      </trkpt>
      <trkpt lat="43.31972" lon="-3.14596">
        <ele>357.8</ele>
        <time>2021-10-28 09:53:00</time>
      </trkpt>
      <trkpt lat="43.31969" lon="-3.1459">
        <ele>357.6</ele>
        <time>2021-10-28 09:53:01</time>
      </trkpt>
      <trkpt lat="43.31969" lon="-3.1459">
        <ele>357.6</ele>
        <time>2021-10-28 09:53:02</time>
      </trkpt>
      <trkpt lat="43.31966" lon="-3.14587">
        <ele>357.4</ele>
        <time>2021-10-28 09:53:03</time>
      </trkpt>
      <trkpt lat="43.31961" lon="-3.14585">
        <ele>357</ele>
        <time>2021-10-28 09:53:04</time>
      </trkpt>
      <trkpt lat="43.31961" lon="-3.14585">
        <ele>356.6</ele>
        <time>2021-10-28 09:53:05</time>
      </trkpt>
      <trkpt lat="43.31955" lon="-3.14586">
        <ele>356.2</ele>
        <time>2021-10-28 09:53:06</time>
      </trkpt>
      <trkpt lat="43.31955" lon="-3.14586">
        <ele>356</ele>
        <time>2021-10-28 09:53:07</time>
      </trkpt>
      <trkpt lat="43.31949" lon="-3.14587">
        <ele>355.8</ele>
        <time>2021-10-28 09:53:08</time>
      </trkpt>
      <trkpt lat="43.31949" lon="-3.14587">
        <ele>355.8</ele>
        <time>2021-10-28 09:53:09</time>
      </trkpt>
      <trkpt lat="43.31949" lon="-3.14587">
        <ele>355.6</ele>
        <time>2021-10-28 09:53:10</time>
      </trkpt>
      <trkpt lat="43.31946" lon="-3.14586">
        <ele>355.4</ele>
        <time>2021-10-28 09:54:33</time>
      </trkpt>
      <trkpt lat="43.31946" lon="-3.14587">
        <ele>354.8</ele>
        <time>2021-10-28 09:54:34</time>
      </trkpt>
      <trkpt lat="43.31943" lon="-3.14588">
        <ele>354.2</ele>
        <time>2021-10-28 09:54:35</time>
      </trkpt>
      <trkpt lat="43.31944" lon="-3.14589">
        <ele>353.8</ele>
        <time>2021-10-28 09:54:36</time>
      </trkpt>
      <trkpt lat="43.31937" lon="-3.14597">
        <ele>353.6</ele>
        <time>2021-10-28 09:54:37</time>
      </trkpt>
      <trkpt lat="43.31937" lon="-3.14597">
        <ele>353.2</ele>
        <time>2021-10-28 09:57:06</time>
      </trkpt>
      <trkpt lat="43.31937" lon="-3.14597">
        <ele>352.8</ele>
        <time>2021-10-28 09:57:07</time>
      </trkpt>
      <trkpt lat="43.31928" lon="-3.14611">
        <ele>352.2</ele>
        <time>2021-10-28 09:57:08</time>
      </trkpt>
      <trkpt lat="43.31928" lon="-3.14611">
        <ele>351.6</ele>
        <time>2021-10-28 09:57:09</time>
      </trkpt>
      <trkpt lat="43.31924" lon="-3.14616">
        <ele>351</ele>
        <time>2021-10-28 09:57:10</time>
      </trkpt>
      <trkpt lat="43.31917" lon="-3.1463">
        <ele>350.2</ele>
        <time>2021-10-28 09:57:11</time>
      </trkpt>
      <trkpt lat="43.31917" lon="-3.1463">
        <ele>349.4</ele>
        <time>2021-10-28 09:57:12</time>
      </trkpt>
      <trkpt lat="43.31912" lon="-3.14637">
        <ele>348.6</ele>
        <time>2021-10-28 09:57:13</time>
      </trkpt>
      <trkpt lat="43.31912" lon="-3.14637">
        <ele>347.8</ele>
        <time>2021-10-28 09:57:14</time>
      </trkpt>
      <trkpt lat="43.31909" lon="-3.14641">
        <ele>347.4</ele>
        <time>2021-10-28 09:57:15</time>
      </trkpt>
      <trkpt lat="43.31906" lon="-3.14647">
        <ele>346.8</ele>
        <time>2021-10-28 09:57:16</time>
      </trkpt>
      <trkpt lat="43.31899" lon="-3.14667">
        <ele>346.2</ele>
        <time>2021-10-28 09:57:17</time>
      </trkpt>
      <trkpt lat="43.31899" lon="-3.14667">
        <ele>345.8</ele>
        <time>2021-10-28 09:57:18</time>
      </trkpt>
      <trkpt lat="43.31899" lon="-3.14667">
        <ele>345.2</ele>
        <time>2021-10-28 09:57:19</time>
      </trkpt>
      <trkpt lat="43.31893" lon="-3.14679">
        <ele>344.6</ele>
        <time>2021-10-28 09:57:20</time>
      </trkpt>
      <trkpt lat="43.31893" lon="-3.14679">
        <ele>344.2</ele>
        <time>2021-10-28 09:57:21</time>
      </trkpt>
      <trkpt lat="43.31892" lon="-3.14688">
        <ele>343.8</ele>
        <time>2021-10-28 09:57:22</time>
      </trkpt>
      <trkpt lat="43.3189" lon="-3.14693">
        <ele>343.6</ele>
        <time>2021-10-28 09:57:23</time>
      </trkpt>
      <trkpt lat="43.31882" lon="-3.14704">
        <ele>343.2</ele>
        <time>2021-10-28 09:57:24</time>
      </trkpt>
      <trkpt lat="43.31879" lon="-3.14709">
        <ele>342.8</ele>
        <time>2021-10-28 09:57:25</time>
      </trkpt>
      <trkpt lat="43.31879" lon="-3.14709">
        <ele>342.2</ele>
        <time>2021-10-28 09:57:26</time>
      </trkpt>
      <trkpt lat="43.31879" lon="-3.14709">
        <ele>341.6</ele>
        <time>2021-10-28 09:57:27</time>
      </trkpt>
      <trkpt lat="43.31872" lon="-3.1472">
        <ele>340.8</ele>
        <time>2021-10-28 09:57:28</time>
      </trkpt>
      <trkpt lat="43.31862" lon="-3.14734">
        <ele>340.2</ele>
        <time>2021-10-28 09:57:29</time>
      </trkpt>
      <trkpt lat="43.31862" lon="-3.14734">
        <ele>339.6</ele>
        <time>2021-10-28 09:57:30</time>
      </trkpt>
      <trkpt lat="43.31862" lon="-3.14734">
        <ele>339.2</ele>
        <time>2021-10-28 09:57:31</time>
      </trkpt>
      <trkpt lat="43.31862" lon="-3.14734">
        <ele>339</ele>
        <time>2021-10-28 09:57:32</time>
      </trkpt>
      <trkpt lat="43.31862" lon="-3.14734">
        <ele>338.8</ele>
        <time>2021-10-28 09:57:33</time>
      </trkpt>
      <trkpt lat="43.31849" lon="-3.14752">
        <ele>338.6</ele>
        <time>2021-10-28 09:57:34</time>
      </trkpt>
      <trkpt lat="43.31845" lon="-3.14767">
        <ele>338.4</ele>
        <time>2021-10-28 09:57:35</time>
      </trkpt>
      <trkpt lat="43.31839" lon="-3.14777">
        <ele>338.2</ele>
        <time>2021-10-28 09:57:36</time>
      </trkpt>
      <trkpt lat="43.31839" lon="-3.14777">
        <ele>337.8</ele>
        <time>2021-10-28 09:57:37</time>
      </trkpt>
      <trkpt lat="43.31839" lon="-3.14777">
        <ele>337.6</ele>
        <time>2021-10-28 09:57:38</time>
      </trkpt>
      <trkpt lat="43.31835" lon="-3.14783">
        <ele>337.2</ele>
        <time>2021-10-28 09:57:39</time>
      </trkpt>
      <trkpt lat="43.31831" lon="-3.14791">
        <ele>337.2</ele>
        <time>2021-10-28 09:57:40</time>
      </trkpt>
      <trkpt lat="43.31833" lon="-3.14794">
        <ele>337</ele>
        <time>2021-10-28 09:57:41</time>
      </trkpt>
      <trkpt lat="43.31826" lon="-3.14806">
        <ele>336.8</ele>
        <time>2021-10-28 09:57:42</time>
      </trkpt>
      <trkpt lat="43.31824" lon="-3.14807">
        <ele>336.6</ele>
        <time>2021-10-28 09:57:43</time>
      </trkpt>
      <trkpt lat="43.31822" lon="-3.14811">
        <ele>336.6</ele>
        <time>2021-10-28 09:57:44</time>
      </trkpt>
      <trkpt lat="43.31822" lon="-3.14811">
        <ele>336.4</ele>
        <time>2021-10-28 09:57:45</time>
      </trkpt>
      <trkpt lat="43.3182" lon="-3.14812">
        <ele>336.4</ele>
        <time>2021-10-28 09:57:46</time>
      </trkpt>
      <trkpt lat="43.31818" lon="-3.14817">
        <ele>336.4</ele>
        <time>2021-10-28 09:57:47</time>
      </trkpt>
      <trkpt lat="43.31813" lon="-3.1482">
        <ele>336.2</ele>
        <time>2021-10-28 09:57:48</time>
      </trkpt>
      <trkpt lat="43.31813" lon="-3.1482">
        <ele>336.2</ele>
        <time>2021-10-28 09:57:49</time>
      </trkpt>
      <trkpt lat="43.31811" lon="-3.14823">
        <ele>336.2</ele>
        <time>2021-10-28 09:57:50</time>
      </trkpt>
      <trkpt lat="43.31811" lon="-3.14823">
        <ele>336</ele>
        <time>2021-10-28 09:57:51</time>
      </trkpt>
      <trkpt lat="43.31802" lon="-3.1483">
        <ele>336</ele>
        <time>2021-10-28 09:57:52</time>
      </trkpt>
      <trkpt lat="43.31799" lon="-3.14833">
        <ele>336</ele>
        <time>2021-10-28 09:57:53</time>
      </trkpt>
      <trkpt lat="43.31793" lon="-3.14836">
        <ele>336</ele>
        <time>2021-10-28 09:57:54</time>
      </trkpt>
      <trkpt lat="43.31793" lon="-3.14836">
        <ele>335.8</ele>
        <time>2021-10-28 09:57:55</time>
      </trkpt>
      <trkpt lat="43.31788" lon="-3.14839">
        <ele>335.8</ele>
        <time>2021-10-28 09:57:56</time>
      </trkpt>
      <trkpt lat="43.31788" lon="-3.14839">
        <ele>335.8</ele>
        <time>2021-10-28 09:57:57</time>
      </trkpt>
      <trkpt lat="43.31784" lon="-3.14839">
        <ele>335.8</ele>
        <time>2021-10-28 09:57:58</time>
      </trkpt>
      <trkpt lat="43.31784" lon="-3.14839">
        <ele>335.8</ele>
        <time>2021-10-28 09:57:59</time>
      </trkpt>
      <trkpt lat="43.31778" lon="-3.14841">
        <ele>335.8</ele>
        <time>2021-10-28 09:58:00</time>
      </trkpt>
      <trkpt lat="43.31778" lon="-3.14841">
        <ele>336</ele>
        <time>2021-10-28 09:58:01</time>
      </trkpt>
      <trkpt lat="43.31778" lon="-3.14841">
        <ele>336.2</ele>
        <time>2021-10-28 09:58:02</time>
      </trkpt>
      <trkpt lat="43.31778" lon="-3.14841">
        <ele>336.4</ele>
        <time>2021-10-28 09:58:03</time>
      </trkpt>
      <trkpt lat="43.31774" lon="-3.1484">
        <ele>337</ele>
        <time>2021-10-28 09:58:04</time>
      </trkpt>
      <trkpt lat="43.31774" lon="-3.1484">
        <ele>337.6</ele>
        <time>2021-10-28 09:58:05</time>
      </trkpt>
      <trkpt lat="43.31743" lon="-3.14852">
        <ele>340.2</ele>
        <time>2021-10-28 09:58:06</time>
      </trkpt>
      <trkpt lat="43.31735" lon="-3.14855">
        <ele>340.2</ele>
        <time>2021-10-28 09:58:07</time>
      </trkpt>
      <trkpt lat="43.31735" lon="-3.14855">
        <ele>340.2</ele>
        <time>2021-10-28 09:58:08</time>
      </trkpt>
      <trkpt lat="43.31735" lon="-3.14855">
        <ele>340.2</ele>
        <time>2021-10-28 09:58:09</time>
      </trkpt>
      <trkpt lat="43.31733" lon="-3.14855">
        <ele>340.2</ele>
        <time>2021-10-28 09:58:10</time>
      </trkpt>
      <trkpt lat="43.31729" lon="-3.14855">
        <ele>340.4</ele>
        <time>2021-10-28 09:58:11</time>
      </trkpt>
      <trkpt lat="43.31729" lon="-3.14855">
        <ele>340.6</ele>
        <time>2021-10-28 09:58:12</time>
      </trkpt>
      <trkpt lat="43.31723" lon="-3.14855">
        <ele>340.8</ele>
        <time>2021-10-28 09:58:13</time>
      </trkpt>
      <trkpt lat="43.31717" lon="-3.14858">
        <ele>341</ele>
        <time>2021-10-28 09:58:14</time>
      </trkpt>
      <trkpt lat="43.31717" lon="-3.14858">
        <ele>341.2</ele>
        <time>2021-10-28 09:58:15</time>
      </trkpt>
      <trkpt lat="43.31717" lon="-3.14858">
        <ele>341.4</ele>
        <time>2021-10-28 09:58:16</time>
      </trkpt>
      <trkpt lat="43.31716" lon="-3.14858">
        <ele>341.6</ele>
        <time>2021-10-28 09:58:17</time>
      </trkpt>
      <trkpt lat="43.31712" lon="-3.14859">
        <ele>341.6</ele>
        <time>2021-10-28 09:58:18</time>
      </trkpt>
      <trkpt lat="43.31709" lon="-3.14858">
        <ele>341.8</ele>
        <time>2021-10-28 09:58:19</time>
      </trkpt>
      <trkpt lat="43.31709" lon="-3.14858">
        <ele>341.8</ele>
        <time>2021-10-28 09:58:20</time>
      </trkpt>
      <trkpt lat="43.31707" lon="-3.14858">
        <ele>341.8</ele>
        <time>2021-10-28 09:58:21</time>
      </trkpt>
      <trkpt lat="43.31704" lon="-3.1486">
        <ele>341.8</ele>
        <time>2021-10-28 09:58:22</time>
      </trkpt>
      <trkpt lat="43.31704" lon="-3.1486">
        <ele>341.8</ele>
        <time>2021-10-28 09:58:23</time>
      </trkpt>
      <trkpt lat="43.31704" lon="-3.1486">
        <ele>341.8</ele>
        <time>2021-10-28 09:58:24</time>
      </trkpt>
      <trkpt lat="43.317" lon="-3.14864">
        <ele>342</ele>
        <time>2021-10-28 09:58:25</time>
      </trkpt>
      <trkpt lat="43.31693" lon="-3.14864">
        <ele>342.2</ele>
        <time>2021-10-28 09:58:26</time>
      </trkpt>
      <trkpt lat="43.31693" lon="-3.14864">
        <ele>342.4</ele>
        <time>2021-10-28 09:58:39</time>
      </trkpt>
      <trkpt lat="43.31693" lon="-3.14864">
        <ele>342.6</ele>
        <time>2021-10-28 09:58:40</time>
      </trkpt>
      <trkpt lat="43.31688" lon="-3.14863">
        <ele>342.8</ele>
        <time>2021-10-28 09:58:41</time>
      </trkpt>
      <trkpt lat="43.31688" lon="-3.14863">
        <ele>342.8</ele>
        <time>2021-10-28 09:58:42</time>
      </trkpt>
      <trkpt lat="43.31682" lon="-3.14864">
        <ele>342.8</ele>
        <time>2021-10-28 09:58:43</time>
      </trkpt>
      <trkpt lat="43.3168" lon="-3.14864">
        <ele>343</ele>
        <time>2021-10-28 09:58:44</time>
      </trkpt>
      <trkpt lat="43.31676" lon="-3.14866">
        <ele>343</ele>
        <time>2021-10-28 09:58:45</time>
      </trkpt>
      <trkpt lat="43.31676" lon="-3.14866">
        <ele>343.2</ele>
        <time>2021-10-28 09:58:46</time>
      </trkpt>
      <trkpt lat="43.31676" lon="-3.14866">
        <ele>343.4</ele>
        <time>2021-10-28 09:58:47</time>
      </trkpt>
      <trkpt lat="43.31673" lon="-3.14869">
        <ele>343.4</ele>
        <time>2021-10-28 09:58:48</time>
      </trkpt>
      <trkpt lat="43.31673" lon="-3.14869">
        <ele>343.2</ele>
        <time>2021-10-28 09:58:49</time>
      </trkpt>
      <trkpt lat="43.31671" lon="-3.14871">
        <ele>343</ele>
        <time>2021-10-28 09:58:50</time>
      </trkpt>
      <trkpt lat="43.31668" lon="-3.14875">
        <ele>343</ele>
        <time>2021-10-28 09:58:51</time>
      </trkpt>
      <trkpt lat="43.31659" lon="-3.14881">
        <ele>342.8</ele>
        <time>2021-10-28 09:58:52</time>
      </trkpt>
      <trkpt lat="43.31659" lon="-3.14881">
        <ele>342.2</ele>
        <time>2021-10-28 09:58:53</time>
      </trkpt>
      <trkpt lat="43.31659" lon="-3.14881">
        <ele>341.8</ele>
        <time>2021-10-28 09:58:54</time>
      </trkpt>
      <trkpt lat="43.31656" lon="-3.14888">
        <ele>341.4</ele>
        <time>2021-10-28 09:58:55</time>
      </trkpt>
      <trkpt lat="43.31656" lon="-3.14888">
        <ele>341.2</ele>
        <time>2021-10-28 09:58:56</time>
      </trkpt>
      <trkpt lat="43.31649" lon="-3.14898">
        <ele>340.8</ele>
        <time>2021-10-28 09:58:57</time>
      </trkpt>
      <trkpt lat="43.31649" lon="-3.14898">
        <ele>340.2</ele>
        <time>2021-10-28 09:58:58</time>
      </trkpt>
      <trkpt lat="43.3164" lon="-3.14916">
        <ele>339.6</ele>
        <time>2021-10-28 09:58:59</time>
      </trkpt>
      <trkpt lat="43.3164" lon="-3.14916">
        <ele>338.8</ele>
        <time>2021-10-28 09:59:00</time>
      </trkpt>
      <trkpt lat="43.3164" lon="-3.14916">
        <ele>338.2</ele>
        <time>2021-10-28 09:59:01</time>
      </trkpt>
      <trkpt lat="43.31637" lon="-3.14923">
        <ele>337.8</ele>
        <time>2021-10-28 09:59:02</time>
      </trkpt>
      <trkpt lat="43.31627" lon="-3.14934">
        <ele>337.6</ele>
        <time>2021-10-28 09:59:03</time>
      </trkpt>
      <trkpt lat="43.31627" lon="-3.14934">
        <ele>337.4</ele>
        <time>2021-10-28 09:59:04</time>
      </trkpt>
      <trkpt lat="43.31623" lon="-3.14938">
        <ele>337.4</ele>
        <time>2021-10-28 09:59:05</time>
      </trkpt>
      <trkpt lat="43.31611" lon="-3.14946">
        <ele>337.6</ele>
        <time>2021-10-28 09:59:06</time>
      </trkpt>
      <trkpt lat="43.31611" lon="-3.14946">
        <ele>337.6</ele>
        <time>2021-10-28 09:59:07</time>
      </trkpt>
      <trkpt lat="43.31607" lon="-3.14949">
        <ele>337.8</ele>
        <time>2021-10-28 09:59:08</time>
      </trkpt>
      <trkpt lat="43.31607" lon="-3.14949">
        <ele>337.8</ele>
        <time>2021-10-28 09:59:09</time>
      </trkpt>
      <trkpt lat="43.31603" lon="-3.14951">
        <ele>337.8</ele>
        <time>2021-10-28 09:59:10</time>
      </trkpt>
      <trkpt lat="43.31599" lon="-3.14953">
        <ele>338.2</ele>
        <time>2021-10-28 09:59:11</time>
      </trkpt>
      <trkpt lat="43.31589" lon="-3.14957">
        <ele>338.6</ele>
        <time>2021-10-28 09:59:12</time>
      </trkpt>
      <trkpt lat="43.31585" lon="-3.14959">
        <ele>339.2</ele>
        <time>2021-10-28 09:59:13</time>
      </trkpt>
      <trkpt lat="43.31585" lon="-3.14959">
        <ele>339.8</ele>
        <time>2021-10-28 09:59:14</time>
      </trkpt>
      <trkpt lat="43.31585" lon="-3.14959">
        <ele>340.2</ele>
        <time>2021-10-28 09:59:15</time>
      </trkpt>
      <trkpt lat="43.31583" lon="-3.14959">
        <ele>340.4</ele>
        <time>2021-10-28 09:59:16</time>
      </trkpt>
      <trkpt lat="43.31581" lon="-3.14961">
        <ele>340.6</ele>
        <time>2021-10-28 09:59:17</time>
      </trkpt>
      <trkpt lat="43.31575" lon="-3.14962">
        <ele>340.8</ele>
        <time>2021-10-28 09:59:18</time>
      </trkpt>
      <trkpt lat="43.31575" lon="-3.14962">
        <ele>341</ele>
        <time>2021-10-28 09:59:19</time>
      </trkpt>
      <trkpt lat="43.31574" lon="-3.14966">
        <ele>341</ele>
        <time>2021-10-28 09:59:20</time>
      </trkpt>
      <trkpt lat="43.31571" lon="-3.14969">
        <ele>341</ele>
        <time>2021-10-28 09:59:21</time>
      </trkpt>
      <trkpt lat="43.31571" lon="-3.14969">
        <ele>341.2</ele>
        <time>2021-10-28 09:59:22</time>
      </trkpt>
      <trkpt lat="43.31571" lon="-3.14969">
        <ele>341.4</ele>
        <time>2021-10-28 09:59:23</time>
      </trkpt>
      <trkpt lat="43.31566" lon="-3.14973">
        <ele>341.8</ele>
        <time>2021-10-28 09:59:24</time>
      </trkpt>
      <trkpt lat="43.31566" lon="-3.14977">
        <ele>342.2</ele>
        <time>2021-10-28 09:59:25</time>
      </trkpt>
      <trkpt lat="43.31564" lon="-3.14977">
        <ele>343</ele>
        <time>2021-10-28 09:59:26</time>
      </trkpt>
      <trkpt lat="43.31563" lon="-3.14978">
        <ele>343.6</ele>
        <time>2021-10-28 09:59:27</time>
      </trkpt>
      <trkpt lat="43.3156" lon="-3.14979">
        <ele>344.2</ele>
        <time>2021-10-28 09:59:28</time>
      </trkpt>
      <trkpt lat="43.31558" lon="-3.14979">
        <ele>344.4</ele>
        <time>2021-10-28 09:59:29</time>
      </trkpt>
      <trkpt lat="43.31558" lon="-3.14979">
        <ele>344.4</ele>
        <time>2021-10-28 09:59:30</time>
      </trkpt>
      <trkpt lat="43.31555" lon="-3.1498">
        <ele>344.6</ele>
        <time>2021-10-28 09:59:31</time>
      </trkpt>
      <trkpt lat="43.31545" lon="-3.14986">
        <ele>344.6</ele>
        <time>2021-10-28 09:59:32</time>
      </trkpt>
      <trkpt lat="43.31545" lon="-3.14986">
        <ele>344.6</ele>
        <time>2021-10-28 09:59:33</time>
      </trkpt>
      <trkpt lat="43.31545" lon="-3.14986">
        <ele>345</ele>
        <time>2021-10-28 09:59:34</time>
      </trkpt>
      <trkpt lat="43.31539" lon="-3.14987">
        <ele>345.4</ele>
        <time>2021-10-28 09:59:35</time>
      </trkpt>
      <trkpt lat="43.31539" lon="-3.14987">
        <ele>345.8</ele>
        <time>2021-10-28 09:59:36</time>
      </trkpt>
      <trkpt lat="43.31538" lon="-3.14988">
        <ele>346.2</ele>
        <time>2021-10-28 09:59:37</time>
      </trkpt>
      <trkpt lat="43.31533" lon="-3.14992">
        <ele>346.4</ele>
        <time>2021-10-28 09:59:38</time>
      </trkpt>
      <trkpt lat="43.31533" lon="-3.14992">
        <ele>346.6</ele>
        <time>2021-10-28 09:59:39</time>
      </trkpt>
      <trkpt lat="43.31533" lon="-3.14999">
        <ele>347</ele>
        <time>2021-10-28 09:59:40</time>
      </trkpt>
      <trkpt lat="43.31533" lon="-3.14999">
        <ele>347</ele>
        <time>2021-10-28 09:59:41</time>
      </trkpt>
      <trkpt lat="43.31534" lon="-3.15002">
        <ele>347.2</ele>
        <time>2021-10-28 09:59:42</time>
      </trkpt>
      <trkpt lat="43.31534" lon="-3.15002">
        <ele>347.4</ele>
        <time>2021-10-28 09:59:43</time>
      </trkpt>
      <trkpt lat="43.31533" lon="-3.15002">
        <ele>347.6</ele>
        <time>2021-10-28 09:59:44</time>
      </trkpt>
      <trkpt lat="43.31533" lon="-3.15002">
        <ele>347.8</ele>
        <time>2021-10-28 09:59:45</time>
      </trkpt>
      <trkpt lat="43.31531" lon="-3.14998">
        <ele>348</ele>
        <time>2021-10-28 09:59:46</time>
      </trkpt>
      <trkpt lat="43.31531" lon="-3.14998">
        <ele>348.4</ele>
        <time>2021-10-28 09:59:47</time>
      </trkpt>
      <trkpt lat="43.31531" lon="-3.14998">
        <ele>348.6</ele>
        <time>2021-10-28 09:59:48</time>
      </trkpt>
      <trkpt lat="43.31529" lon="-3.14996">
        <ele>348.8</ele>
        <time>2021-10-28 09:59:49</time>
      </trkpt>
      <trkpt lat="43.31527" lon="-3.14995">
        <ele>349</ele>
        <time>2021-10-28 09:59:50</time>
      </trkpt>
      <trkpt lat="43.31524" lon="-3.14993">
        <ele>349</ele>
        <time>2021-10-28 09:59:51</time>
      </trkpt>
      <trkpt lat="43.31522" lon="-3.14992">
        <ele>349.2</ele>
        <time>2021-10-28 09:59:52</time>
      </trkpt>
      <trkpt lat="43.31515" lon="-3.14987">
        <ele>349.4</ele>
        <time>2021-10-28 09:59:53</time>
      </trkpt>
      <trkpt lat="43.31515" lon="-3.14987">
        <ele>349.6</ele>
        <time>2021-10-28 09:59:54</time>
      </trkpt>
      <trkpt lat="43.31515" lon="-3.14987">
        <ele>349.8</ele>
        <time>2021-10-28 09:59:55</time>
      </trkpt>
      <trkpt lat="43.31513" lon="-3.14986">
        <ele>349.8</ele>
        <time>2021-10-28 09:59:56</time>
      </trkpt>
      <trkpt lat="43.31507" lon="-3.14982">
        <ele>349.8</ele>
        <time>2021-10-28 09:59:57</time>
      </trkpt>
      <trkpt lat="43.31507" lon="-3.14982">
        <ele>349.8</ele>
        <time>2021-10-28 09:59:58</time>
      </trkpt>
      <trkpt lat="43.31502" lon="-3.1498">
        <ele>350</ele>
        <time>2021-10-28 09:59:59</time>
      </trkpt>
      <trkpt lat="43.31502" lon="-3.1498">
        <ele>350</ele>
        <time>2021-10-28 10:00:00</time>
      </trkpt>
      <trkpt lat="43.31497" lon="-3.1498">
        <ele>350</ele>
        <time>2021-10-28 10:00:01</time>
      </trkpt>
      <trkpt lat="43.31497" lon="-3.1498">
        <ele>350.2</ele>
        <time>2021-10-28 10:00:02</time>
      </trkpt>
      <trkpt lat="43.31497" lon="-3.1498">
        <ele>350.4</ele>
        <time>2021-10-28 10:00:03</time>
      </trkpt>
      <trkpt lat="43.31489" lon="-3.14975">
        <ele>350.6</ele>
        <time>2021-10-28 10:00:04</time>
      </trkpt>
      <trkpt lat="43.31489" lon="-3.14975">
        <ele>350.8</ele>
        <time>2021-10-28 10:00:05</time>
      </trkpt>
      <trkpt lat="43.31484" lon="-3.14972">
        <ele>351</ele>
        <time>2021-10-28 10:00:06</time>
      </trkpt>
      <trkpt lat="43.31484" lon="-3.14972">
        <ele>351</ele>
        <time>2021-10-28 10:00:07</time>
      </trkpt>
      <trkpt lat="43.31481" lon="-3.14969">
        <ele>351</ele>
        <time>2021-10-28 10:00:08</time>
      </trkpt>
      <trkpt lat="43.31481" lon="-3.14969">
        <ele>351</ele>
        <time>2021-10-28 10:00:09</time>
      </trkpt>
      <trkpt lat="43.31476" lon="-3.14967">
        <ele>351</ele>
        <time>2021-10-28 10:00:10</time>
      </trkpt>
      <trkpt lat="43.31476" lon="-3.14967">
        <ele>351</ele>
        <time>2021-10-28 10:00:11</time>
      </trkpt>
      <trkpt lat="43.31469" lon="-3.14963">
        <ele>351</ele>
        <time>2021-10-28 10:00:12</time>
      </trkpt>
      <trkpt lat="43.31469" lon="-3.14963">
        <ele>351</ele>
        <time>2021-10-28 10:00:13</time>
      </trkpt>
      <trkpt lat="43.31469" lon="-3.14963">
        <ele>351</ele>
        <time>2021-10-28 10:00:14</time>
      </trkpt>
      <trkpt lat="43.31463" lon="-3.14962">
        <ele>351.2</ele>
        <time>2021-10-28 10:00:15</time>
      </trkpt>
      <trkpt lat="43.31463" lon="-3.14962">
        <ele>351.2</ele>
        <time>2021-10-28 10:00:16</time>
      </trkpt>
      <trkpt lat="43.3146" lon="-3.14961">
        <ele>351.2</ele>
        <time>2021-10-28 10:00:17</time>
      </trkpt>
      <trkpt lat="43.31454" lon="-3.14959">
        <ele>351.2</ele>
        <time>2021-10-28 10:00:18</time>
      </trkpt>
      <trkpt lat="43.31454" lon="-3.14959">
        <ele>351.2</ele>
        <time>2021-10-28 10:00:19</time>
      </trkpt>
      <trkpt lat="43.31448" lon="-3.14958">
        <ele>351.2</ele>
        <time>2021-10-28 10:00:20</time>
      </trkpt>
      <trkpt lat="43.31448" lon="-3.14958">
        <ele>351.4</ele>
        <time>2021-10-28 10:00:21</time>
      </trkpt>
      <trkpt lat="43.31445" lon="-3.14956">
        <ele>351.4</ele>
        <time>2021-10-28 10:00:22</time>
      </trkpt>
      <trkpt lat="43.31441" lon="-3.14952">
        <ele>351.4</ele>
        <time>2021-10-28 10:00:23</time>
      </trkpt>
      <trkpt lat="43.31441" lon="-3.14952">
        <ele>351.6</ele>
        <time>2021-10-28 10:00:24</time>
      </trkpt>
      <trkpt lat="43.31441" lon="-3.14952">
        <ele>352</ele>
        <time>2021-10-28 10:00:25</time>
      </trkpt>
      <trkpt lat="43.31435" lon="-3.14945">
        <ele>352.2</ele>
        <time>2021-10-28 10:00:26</time>
      </trkpt>
      <trkpt lat="43.31432" lon="-3.14943">
        <ele>352.6</ele>
        <time>2021-10-28 10:00:27</time>
      </trkpt>
      <trkpt lat="43.31432" lon="-3.14943">
        <ele>352.6</ele>
        <time>2021-10-28 10:00:28</time>
      </trkpt>
      <trkpt lat="43.31429" lon="-3.14941">
        <ele>352.6</ele>
        <time>2021-10-28 10:00:29</time>
      </trkpt>
      <trkpt lat="43.31426" lon="-3.14938">
        <ele>352.8</ele>
        <time>2021-10-28 10:00:30</time>
      </trkpt>
      <trkpt lat="43.31424" lon="-3.14941">
        <ele>353</ele>
        <time>2021-10-28 10:00:31</time>
      </trkpt>
      <trkpt lat="43.31424" lon="-3.14941">
        <ele>353.2</ele>
        <time>2021-10-28 10:00:32</time>
      </trkpt>
      <trkpt lat="43.31424" lon="-3.14941">
        <ele>353.4</ele>
        <time>2021-10-28 10:00:33</time>
      </trkpt>
      <trkpt lat="43.31426" lon="-3.14945">
        <ele>353.8</ele>
        <time>2021-10-28 10:00:34</time>
      </trkpt>
      <trkpt lat="43.31426" lon="-3.14945">
        <ele>354</ele>
        <time>2021-10-28 10:00:35</time>
      </trkpt>
      <trkpt lat="43.31426" lon="-3.14945">
        <ele>354.4</ele>
        <time>2021-10-28 10:00:36</time>
      </trkpt>
      <trkpt lat="43.31427" lon="-3.14949">
        <ele>354.8</ele>
        <time>2021-10-28 10:00:37</time>
      </trkpt>
      <trkpt lat="43.3143" lon="-3.14955">
        <ele>355</ele>
        <time>2021-10-28 10:00:38</time>
      </trkpt>
      <trkpt lat="43.3143" lon="-3.14955">
        <ele>355.2</ele>
        <time>2021-10-28 10:00:39</time>
      </trkpt>
      <trkpt lat="43.3143" lon="-3.14955">
        <ele>355.4</ele>
        <time>2021-10-28 10:00:40</time>
      </trkpt>
      <trkpt lat="43.3143" lon="-3.14955">
        <ele>355.6</ele>
        <time>2021-10-28 10:00:41</time>
      </trkpt>
      <trkpt lat="43.31435" lon="-3.14958">
        <ele>355.6</ele>
        <time>2021-10-28 10:00:42</time>
      </trkpt>
      <trkpt lat="43.31436" lon="-3.14959">
        <ele>355.8</ele>
        <time>2021-10-28 10:00:43</time>
      </trkpt>
      <trkpt lat="43.31439" lon="-3.14961">
        <ele>356</ele>
        <time>2021-10-28 10:00:44</time>
      </trkpt>
      <trkpt lat="43.31445" lon="-3.14961">
        <ele>356.2</ele>
        <time>2021-10-28 10:00:45</time>
      </trkpt>
      <trkpt lat="43.31448" lon="-3.14966">
        <ele>356.4</ele>
        <time>2021-10-28 10:00:46</time>
      </trkpt>
      <trkpt lat="43.31448" lon="-3.14966">
        <ele>356.6</ele>
        <time>2021-10-28 10:00:47</time>
      </trkpt>
      <trkpt lat="43.3145" lon="-3.14968">
        <ele>357</ele>
        <time>2021-10-28 10:00:48</time>
      </trkpt>
      <trkpt lat="43.31452" lon="-3.14972">
        <ele>357.2</ele>
        <time>2021-10-28 10:00:49</time>
      </trkpt>
      <trkpt lat="43.31453" lon="-3.14978">
        <ele>357.6</ele>
        <time>2021-10-28 10:00:50</time>
      </trkpt>
      <trkpt lat="43.31453" lon="-3.14978">
        <ele>357.8</ele>
        <time>2021-10-28 10:00:51</time>
      </trkpt>
      <trkpt lat="43.31453" lon="-3.14978">
        <ele>358.2</ele>
        <time>2021-10-28 10:00:52</time>
      </trkpt>
      <trkpt lat="43.31453" lon="-3.14982">
        <ele>358.4</ele>
        <time>2021-10-28 10:00:53</time>
      </trkpt>
      <trkpt lat="43.31453" lon="-3.14982">
        <ele>358.6</ele>
        <time>2021-10-28 10:00:54</time>
      </trkpt>
      <trkpt lat="43.31453" lon="-3.14985">
        <ele>358.8</ele>
        <time>2021-10-28 10:00:55</time>
      </trkpt>
      <trkpt lat="43.31454" lon="-3.14991">
        <ele>359</ele>
        <time>2021-10-28 10:00:56</time>
      </trkpt>
      <trkpt lat="43.31454" lon="-3.14997">
        <ele>359.2</ele>
        <time>2021-10-28 10:00:57</time>
      </trkpt>
      <trkpt lat="43.31454" lon="-3.14997">
        <ele>359.4</ele>
        <time>2021-10-28 10:00:58</time>
      </trkpt>
      <trkpt lat="43.31454" lon="-3.14997">
        <ele>359.6</ele>
        <time>2021-10-28 10:00:59</time>
      </trkpt>
      <trkpt lat="43.31455" lon="-3.15003">
        <ele>359.8</ele>
        <time>2021-10-28 10:01:00</time>
      </trkpt>
      <trkpt lat="43.31455" lon="-3.15003">
        <ele>359.8</ele>
        <time>2021-10-28 10:01:01</time>
      </trkpt>
      <trkpt lat="43.31456" lon="-3.15005">
        <ele>360</ele>
        <time>2021-10-28 10:01:02</time>
      </trkpt>
      <trkpt lat="43.31456" lon="-3.15008">
        <ele>360.2</ele>
        <time>2021-10-28 10:01:03</time>
      </trkpt>
      <trkpt lat="43.31456" lon="-3.15013">
        <ele>360.6</ele>
        <time>2021-10-28 10:01:04</time>
      </trkpt>
      <trkpt lat="43.31457" lon="-3.15016">
        <ele>361</ele>
        <time>2021-10-28 10:01:05</time>
      </trkpt>
      <trkpt lat="43.31457" lon="-3.15016">
        <ele>361.6</ele>
        <time>2021-10-28 10:01:06</time>
      </trkpt>
      <trkpt lat="43.31458" lon="-3.15021">
        <ele>362</ele>
        <time>2021-10-28 10:01:07</time>
      </trkpt>
      <trkpt lat="43.31458" lon="-3.15021">
        <ele>362.2</ele>
        <time>2021-10-28 10:01:08</time>
      </trkpt>
      <trkpt lat="43.31458" lon="-3.15029">
        <ele>362.4</ele>
        <time>2021-10-28 10:01:09</time>
      </trkpt>
      <trkpt lat="43.31458" lon="-3.15029">
        <ele>362.6</ele>
        <time>2021-10-28 10:01:10</time>
      </trkpt>
      <trkpt lat="43.31458" lon="-3.15029">
        <ele>363</ele>
        <time>2021-10-28 10:01:11</time>
      </trkpt>
      <trkpt lat="43.3146" lon="-3.15033">
        <ele>363.4</ele>
        <time>2021-10-28 10:01:12</time>
      </trkpt>
      <trkpt lat="43.3146" lon="-3.15033">
        <ele>363.6</ele>
        <time>2021-10-28 10:01:13</time>
      </trkpt>
      <trkpt lat="43.3146" lon="-3.15038">
        <ele>364</ele>
        <time>2021-10-28 10:01:14</time>
      </trkpt>
      <trkpt lat="43.3146" lon="-3.15038">
        <ele>364.4</ele>
        <time>2021-10-28 10:01:15</time>
      </trkpt>
      <trkpt lat="43.31459" lon="-3.15045">
        <ele>364.6</ele>
        <time>2021-10-28 10:01:16</time>
      </trkpt>
      <trkpt lat="43.31459" lon="-3.15045">
        <ele>364.8</ele>
        <time>2021-10-28 10:01:17</time>
      </trkpt>
      <trkpt lat="43.31459" lon="-3.15045">
        <ele>365</ele>
        <time>2021-10-28 10:01:18</time>
      </trkpt>
      <trkpt lat="43.31459" lon="-3.15047">
        <ele>365</ele>
        <time>2021-10-28 10:01:19</time>
      </trkpt>
      <trkpt lat="43.3146" lon="-3.15049">
        <ele>365.2</ele>
        <time>2021-10-28 10:01:20</time>
      </trkpt>
      <trkpt lat="43.3146" lon="-3.15052">
        <ele>365.6</ele>
        <time>2021-10-28 10:01:21</time>
      </trkpt>
      <trkpt lat="43.3146" lon="-3.15054">
        <ele>365.8</ele>
        <time>2021-10-28 10:01:22</time>
      </trkpt>
      <trkpt lat="43.3146" lon="-3.15057">
        <ele>366</ele>
        <time>2021-10-28 10:01:23</time>
      </trkpt>
      <trkpt lat="43.3146" lon="-3.15062">
        <ele>366.2</ele>
        <time>2021-10-28 10:01:24</time>
      </trkpt>
      <trkpt lat="43.3146" lon="-3.15064">
        <ele>366.6</ele>
        <time>2021-10-28 10:01:25</time>
      </trkpt>
      <trkpt lat="43.3146" lon="-3.15064">
        <ele>366.8</ele>
        <time>2021-10-28 10:01:26</time>
      </trkpt>
      <trkpt lat="43.3146" lon="-3.15067">
        <ele>367</ele>
        <time>2021-10-28 10:01:27</time>
      </trkpt>
      <trkpt lat="43.3146" lon="-3.15075">
        <ele>367.4</ele>
        <time>2021-10-28 10:01:28</time>
      </trkpt>
      <trkpt lat="43.3146" lon="-3.15075">
        <ele>367.6</ele>
        <time>2021-10-28 10:01:29</time>
      </trkpt>
      <trkpt lat="43.3146" lon="-3.15075">
        <ele>367.8</ele>
        <time>2021-10-28 10:01:30</time>
      </trkpt>
      <trkpt lat="43.31459" lon="-3.15077">
        <ele>368</ele>
        <time>2021-10-28 10:01:31</time>
      </trkpt>
      <trkpt lat="43.31459" lon="-3.15079">
        <ele>368</ele>
        <time>2021-10-28 10:01:32</time>
      </trkpt>
      <trkpt lat="43.31459" lon="-3.15079">
        <ele>368.2</ele>
        <time>2021-10-28 10:01:33</time>
      </trkpt>
      <trkpt lat="43.31455" lon="-3.15083">
        <ele>368.4</ele>
        <time>2021-10-28 10:01:34</time>
      </trkpt>
      <trkpt lat="43.31449" lon="-3.15084">
        <ele>368.8</ele>
        <time>2021-10-28 10:01:35</time>
      </trkpt>
      <trkpt lat="43.31449" lon="-3.15084">
        <ele>369.2</ele>
        <time>2021-10-28 10:01:36</time>
      </trkpt>
      <trkpt lat="43.31449" lon="-3.15084">
        <ele>369.6</ele>
        <time>2021-10-28 10:01:37</time>
      </trkpt>
      <trkpt lat="43.31447" lon="-3.15084">
        <ele>370</ele>
        <time>2021-10-28 10:01:38</time>
      </trkpt>
      <trkpt lat="43.31445" lon="-3.15083">
        <ele>370.4</ele>
        <time>2021-10-28 10:01:39</time>
      </trkpt>
      <trkpt lat="43.31441" lon="-3.15082">
        <ele>370.6</ele>
        <time>2021-10-28 10:01:40</time>
      </trkpt>
      <trkpt lat="43.31441" lon="-3.15082">
        <ele>371</ele>
        <time>2021-10-28 10:01:41</time>
      </trkpt>
      <trkpt lat="43.31437" lon="-3.15078">
        <ele>371.2</ele>
        <time>2021-10-28 10:01:42</time>
      </trkpt>
      <trkpt lat="43.31437" lon="-3.15078">
        <ele>371.8</ele>
        <time>2021-10-28 10:01:43</time>
      </trkpt>
      <trkpt lat="43.31437" lon="-3.15078">
        <ele>372.2</ele>
        <time>2021-10-28 10:01:44</time>
      </trkpt>
      <trkpt lat="43.31435" lon="-3.15075">
        <ele>372.6</ele>
        <time>2021-10-28 10:01:45</time>
      </trkpt>
      <trkpt lat="43.31435" lon="-3.15075">
        <ele>372.8</ele>
        <time>2021-10-28 10:01:46</time>
      </trkpt>
      <trkpt lat="43.31433" lon="-3.15071">
        <ele>373</ele>
        <time>2021-10-28 10:01:47</time>
      </trkpt>
      <trkpt lat="43.31433" lon="-3.15071">
        <ele>373.2</ele>
        <time>2021-10-28 10:01:48</time>
      </trkpt>
      <trkpt lat="43.3143" lon="-3.15068">
        <ele>373.4</ele>
        <time>2021-10-28 10:01:49</time>
      </trkpt>
      <trkpt lat="43.31429" lon="-3.15066">
        <ele>373.6</ele>
        <time>2021-10-28 10:01:50</time>
      </trkpt>
      <trkpt lat="43.31429" lon="-3.15066">
        <ele>373.8</ele>
        <time>2021-10-28 10:01:51</time>
      </trkpt>
      <trkpt lat="43.31428" lon="-3.15064">
        <ele>374</ele>
        <time>2021-10-28 10:01:52</time>
      </trkpt>
      <trkpt lat="43.31427" lon="-3.15062">
        <ele>374.2</ele>
        <time>2021-10-28 10:01:53</time>
      </trkpt>
      <trkpt lat="43.31423" lon="-3.15057">
        <ele>374.6</ele>
        <time>2021-10-28 10:01:54</time>
      </trkpt>
      <trkpt lat="43.31423" lon="-3.15057">
        <ele>374.8</ele>
        <time>2021-10-28 10:01:55</time>
      </trkpt>
      <trkpt lat="43.31423" lon="-3.15057">
        <ele>375</ele>
        <time>2021-10-28 10:01:56</time>
      </trkpt>
      <trkpt lat="43.31422" lon="-3.15055">
        <ele>375</ele>
        <time>2021-10-28 10:01:57</time>
      </trkpt>
      <trkpt lat="43.3142" lon="-3.15055">
        <ele>375</ele>
        <time>2021-10-28 10:01:58</time>
      </trkpt>
      <trkpt lat="43.31417" lon="-3.15051">
        <ele>374.8</ele>
        <time>2021-10-28 10:01:59</time>
      </trkpt>
      <trkpt lat="43.31417" lon="-3.15051">
        <ele>374.8</ele>
        <time>2021-10-28 10:02:00</time>
      </trkpt>
      <trkpt lat="43.31413" lon="-3.15046">
        <ele>374.8</ele>
        <time>2021-10-28 10:02:01</time>
      </trkpt>
      <trkpt lat="43.31413" lon="-3.15046">
        <ele>375</ele>
        <time>2021-10-28 10:02:02</time>
      </trkpt>
      <trkpt lat="43.31413" lon="-3.15046">
        <ele>375.2</ele>
        <time>2021-10-28 10:02:03</time>
      </trkpt>
      <trkpt lat="43.31412" lon="-3.15045">
        <ele>375.6</ele>
        <time>2021-10-28 10:02:04</time>
      </trkpt>
      <trkpt lat="43.3141" lon="-3.15044">
        <ele>375.8</ele>
        <time>2021-10-28 10:02:05</time>
      </trkpt>
      <trkpt lat="43.31412" lon="-3.15039">
        <ele>375.8</ele>
        <time>2021-10-28 10:02:06</time>
      </trkpt>
      <trkpt lat="43.31412" lon="-3.15039">
        <ele>375.8</ele>
        <time>2021-10-28 10:02:07</time>
      </trkpt>
      <trkpt lat="43.3141" lon="-3.15036">
        <ele>375.8</ele>
        <time>2021-10-28 10:02:08</time>
      </trkpt>
      <trkpt lat="43.31408" lon="-3.15033">
        <ele>375.8</ele>
        <time>2021-10-28 10:02:09</time>
      </trkpt>
      <trkpt lat="43.31408" lon="-3.15033">
        <ele>375.8</ele>
        <time>2021-10-28 10:02:10</time>
      </trkpt>
      <trkpt lat="43.31406" lon="-3.15032">
        <ele>376</ele>
        <time>2021-10-28 10:02:11</time>
      </trkpt>
      <trkpt lat="43.31406" lon="-3.1503">
        <ele>376.4</ele>
        <time>2021-10-28 10:02:12</time>
      </trkpt>
      <trkpt lat="43.31402" lon="-3.15028">
        <ele>376.8</ele>
        <time>2021-10-28 10:02:13</time>
      </trkpt>
      <trkpt lat="43.31402" lon="-3.15028">
        <ele>377</ele>
        <time>2021-10-28 10:02:14</time>
      </trkpt>
      <trkpt lat="43.31399" lon="-3.15026">
        <ele>377.2</ele>
        <time>2021-10-28 10:02:15</time>
      </trkpt>
      <trkpt lat="43.31398" lon="-3.15024">
        <ele>377.2</ele>
        <time>2021-10-28 10:02:16</time>
      </trkpt>
      <trkpt lat="43.31398" lon="-3.15024">
        <ele>377.2</ele>
        <time>2021-10-28 10:02:17</time>
      </trkpt>
      <trkpt lat="43.31397" lon="-3.15022">
        <ele>377.4</ele>
        <time>2021-10-28 10:02:18</time>
      </trkpt>
      <trkpt lat="43.31395" lon="-3.15021">
        <ele>377.4</ele>
        <time>2021-10-28 10:02:19</time>
      </trkpt>
      <trkpt lat="43.3139" lon="-3.15016">
        <ele>377.6</ele>
        <time>2021-10-28 10:02:20</time>
      </trkpt>
      <trkpt lat="43.3139" lon="-3.15016">
        <ele>377.8</ele>
        <time>2021-10-28 10:02:21</time>
      </trkpt>
      <trkpt lat="43.3139" lon="-3.15016">
        <ele>378</ele>
        <time>2021-10-28 10:02:22</time>
      </trkpt>
      <trkpt lat="43.31388" lon="-3.15013">
        <ele>378.2</ele>
        <time>2021-10-28 10:02:23</time>
      </trkpt>
      <trkpt lat="43.31388" lon="-3.15013">
        <ele>378.4</ele>
        <time>2021-10-28 10:02:24</time>
      </trkpt>
      <trkpt lat="43.31385" lon="-3.1501">
        <ele>378.4</ele>
        <time>2021-10-28 10:02:25</time>
      </trkpt>
      <trkpt lat="43.31385" lon="-3.1501">
        <ele>378.4</ele>
        <time>2021-10-28 10:02:26</time>
      </trkpt>
      <trkpt lat="43.31382" lon="-3.15007">
        <ele>378.6</ele>
        <time>2021-10-28 10:02:27</time>
      </trkpt>
      <trkpt lat="43.3138" lon="-3.15005">
        <ele>378.6</ele>
        <time>2021-10-28 10:02:28</time>
      </trkpt>
      <trkpt lat="43.3138" lon="-3.15005">
        <ele>378.8</ele>
        <time>2021-10-28 10:02:29</time>
      </trkpt>
      <trkpt lat="43.31379" lon="-3.15003">
        <ele>379</ele>
        <time>2021-10-28 10:02:30</time>
      </trkpt>
      <trkpt lat="43.31377" lon="-3.15">
        <ele>379</ele>
        <time>2021-10-28 10:02:31</time>
      </trkpt>
      <trkpt lat="43.31376" lon="-3.14997">
        <ele>379.2</ele>
        <time>2021-10-28 10:02:32</time>
      </trkpt>
      <trkpt lat="43.31376" lon="-3.14997">
        <ele>379.2</ele>
        <time>2021-10-28 10:02:33</time>
      </trkpt>
      <trkpt lat="43.31368" lon="-3.14997">
        <ele>379.4</ele>
        <time>2021-10-28 10:02:34</time>
      </trkpt>
      <trkpt lat="43.31368" lon="-3.14997">
        <ele>379.6</ele>
        <time>2021-10-28 10:02:35</time>
      </trkpt>
      <trkpt lat="43.31366" lon="-3.14996">
        <ele>379.8</ele>
        <time>2021-10-28 10:02:36</time>
      </trkpt>
      <trkpt lat="43.31362" lon="-3.14994">
        <ele>380.2</ele>
        <time>2021-10-28 10:02:37</time>
      </trkpt>
      <trkpt lat="43.31362" lon="-3.14994">
        <ele>380.6</ele>
        <time>2021-10-28 10:02:38</time>
      </trkpt>
      <trkpt lat="43.31356" lon="-3.14991">
        <ele>381</ele>
        <time>2021-10-28 10:02:39</time>
      </trkpt>
      <trkpt lat="43.31356" lon="-3.14991">
        <ele>381.2</ele>
        <time>2021-10-28 10:02:40</time>
      </trkpt>
      <trkpt lat="43.31356" lon="-3.14991">
        <ele>381.2</ele>
        <time>2021-10-28 10:02:41</time>
      </trkpt>
      <trkpt lat="43.31352" lon="-3.14991">
        <ele>381.4</ele>
        <time>2021-10-28 10:02:42</time>
      </trkpt>
      <trkpt lat="43.31352" lon="-3.1499">
        <ele>381.4</ele>
        <time>2021-10-28 10:02:43</time>
      </trkpt>
      <trkpt lat="43.31352" lon="-3.1499">
        <ele>381.4</ele>
        <time>2021-10-28 10:02:44</time>
      </trkpt>
      <trkpt lat="43.31349" lon="-3.1499">
        <ele>381.4</ele>
        <time>2021-10-28 10:02:45</time>
      </trkpt>
      <trkpt lat="43.31347" lon="-3.14989">
        <ele>381.6</ele>
        <time>2021-10-28 10:02:46</time>
      </trkpt>
      <trkpt lat="43.31344" lon="-3.14989">
        <ele>381.6</ele>
        <time>2021-10-28 10:02:47</time>
      </trkpt>
      <trkpt lat="43.31344" lon="-3.14989">
        <ele>381.6</ele>
        <time>2021-10-28 10:02:48</time>
      </trkpt>
      <trkpt lat="43.3134" lon="-3.1499">
        <ele>381.8</ele>
        <time>2021-10-28 10:02:49</time>
      </trkpt>
      <trkpt lat="43.3134" lon="-3.1499">
        <ele>381.8</ele>
        <time>2021-10-28 10:02:50</time>
      </trkpt>
      <trkpt lat="43.31339" lon="-3.14988">
        <ele>382</ele>
        <time>2021-10-28 10:02:51</time>
      </trkpt>
      <trkpt lat="43.31337" lon="-3.14988">
        <ele>382.4</ele>
        <time>2021-10-28 10:02:52</time>
      </trkpt>
      <trkpt lat="43.31334" lon="-3.14986">
        <ele>382.8</ele>
        <time>2021-10-28 10:02:53</time>
      </trkpt>
      <trkpt lat="43.31333" lon="-3.14986">
        <ele>383.2</ele>
        <time>2021-10-28 10:02:54</time>
      </trkpt>
      <trkpt lat="43.31333" lon="-3.14986">
        <ele>383.6</ele>
        <time>2021-10-28 10:02:55</time>
      </trkpt>
      <trkpt lat="43.31331" lon="-3.14987">
        <ele>384</ele>
        <time>2021-10-28 10:02:56</time>
      </trkpt>
      <trkpt lat="43.3133" lon="-3.14985">
        <ele>384.2</ele>
        <time>2021-10-28 10:02:57</time>
      </trkpt>
      <trkpt lat="43.31325" lon="-3.1498">
        <ele>384.4</ele>
        <time>2021-10-28 10:02:58</time>
      </trkpt>
      <trkpt lat="43.31325" lon="-3.1498">
        <ele>384.6</ele>
        <time>2021-10-28 10:02:59</time>
      </trkpt>
      <trkpt lat="43.31325" lon="-3.1498">
        <ele>384.6</ele>
        <time>2021-10-28 10:03:00</time>
      </trkpt>
      <trkpt lat="43.31322" lon="-3.14977">
        <ele>384.8</ele>
        <time>2021-10-28 10:03:01</time>
      </trkpt>
      <trkpt lat="43.31318" lon="-3.14973">
        <ele>384.8</ele>
        <time>2021-10-28 10:03:02</time>
      </trkpt>
      <trkpt lat="43.31318" lon="-3.14973">
        <ele>384.8</ele>
        <time>2021-10-28 10:03:03</time>
      </trkpt>
      <trkpt lat="43.31315" lon="-3.14973">
        <ele>384.8</ele>
        <time>2021-10-28 10:03:04</time>
      </trkpt>
      <trkpt lat="43.31315" lon="-3.14973">
        <ele>385</ele>
        <time>2021-10-28 10:03:05</time>
      </trkpt>
      <trkpt lat="43.31312" lon="-3.14971">
        <ele>385</ele>
        <time>2021-10-28 10:03:06</time>
      </trkpt>
      <trkpt lat="43.31312" lon="-3.14971">
        <ele>385.2</ele>
        <time>2021-10-28 10:03:07</time>
      </trkpt>
      <trkpt lat="43.31309" lon="-3.14969">
        <ele>385.4</ele>
        <time>2021-10-28 10:03:08</time>
      </trkpt>
      <trkpt lat="43.31308" lon="-3.14967">
        <ele>385.6</ele>
        <time>2021-10-28 10:03:09</time>
      </trkpt>
      <trkpt lat="43.31308" lon="-3.14967">
        <ele>385.6</ele>
        <time>2021-10-28 10:03:10</time>
      </trkpt>
      <trkpt lat="43.31305" lon="-3.14967">
        <ele>385.8</ele>
        <time>2021-10-28 10:03:11</time>
      </trkpt>
      <trkpt lat="43.31305" lon="-3.14967">
        <ele>386</ele>
        <time>2021-10-28 10:03:12</time>
      </trkpt>
      <trkpt lat="43.31301" lon="-3.1497">
        <ele>386.2</ele>
        <time>2021-10-28 10:03:13</time>
      </trkpt>
      <trkpt lat="43.31301" lon="-3.1497">
        <ele>386.4</ele>
        <time>2021-10-28 10:03:14</time>
      </trkpt>
      <trkpt lat="43.31301" lon="-3.1497">
        <ele>386.8</ele>
        <time>2021-10-28 10:03:15</time>
      </trkpt>
      <trkpt lat="43.31302" lon="-3.14977">
        <ele>387</ele>
        <time>2021-10-28 10:03:16</time>
      </trkpt>
      <trkpt lat="43.31303" lon="-3.14982">
        <ele>387.2</ele>
        <time>2021-10-28 10:03:17</time>
      </trkpt>
      <trkpt lat="43.31303" lon="-3.14982">
        <ele>387.4</ele>
        <time>2021-10-28 10:03:18</time>
      </trkpt>
      <trkpt lat="43.31303" lon="-3.14982">
        <ele>387.6</ele>
        <time>2021-10-28 10:03:19</time>
      </trkpt>
      <trkpt lat="43.31303" lon="-3.14986">
        <ele>387.6</ele>
        <time>2021-10-28 10:03:20</time>
      </trkpt>
      <trkpt lat="43.31305" lon="-3.14989">
        <ele>388</ele>
        <time>2021-10-28 10:03:21</time>
      </trkpt>
      <trkpt lat="43.31305" lon="-3.14989">
        <ele>388.2</ele>
        <time>2021-10-28 10:03:22</time>
      </trkpt>
      <trkpt lat="43.31311" lon="-3.14991">
        <ele>388.6</ele>
        <time>2021-10-28 10:03:23</time>
      </trkpt>
      <trkpt lat="43.31311" lon="-3.14995">
        <ele>389</ele>
        <time>2021-10-28 10:03:24</time>
      </trkpt>
      <trkpt lat="43.31311" lon="-3.14995">
        <ele>389.6</ele>
        <time>2021-10-28 10:03:25</time>
      </trkpt>
      <trkpt lat="43.31314" lon="-3.14998">
        <ele>389.8</ele>
        <time>2021-10-28 10:03:26</time>
      </trkpt>
      <trkpt lat="43.31314" lon="-3.14998">
        <ele>390.2</ele>
        <time>2021-10-28 10:03:27</time>
      </trkpt>
      <trkpt lat="43.31316" lon="-3.15001">
        <ele>390.4</ele>
        <time>2021-10-28 10:03:28</time>
      </trkpt>
      <trkpt lat="43.31316" lon="-3.15002">
        <ele>390.4</ele>
        <time>2021-10-28 10:03:29</time>
      </trkpt>
      <trkpt lat="43.31317" lon="-3.15005">
        <ele>390.6</ele>
        <time>2021-10-28 10:03:30</time>
      </trkpt>
      <trkpt lat="43.31318" lon="-3.15007">
        <ele>390.6</ele>
        <time>2021-10-28 10:03:31</time>
      </trkpt>
      <trkpt lat="43.31316" lon="-3.15009">
        <ele>390.8</ele>
        <time>2021-10-28 10:03:32</time>
      </trkpt>
      <trkpt lat="43.31316" lon="-3.15009">
        <ele>390.8</ele>
        <time>2021-10-28 10:03:33</time>
      </trkpt>
      <trkpt lat="43.31315" lon="-3.15012">
        <ele>390.8</ele>
        <time>2021-10-28 10:03:34</time>
      </trkpt>
      <trkpt lat="43.31318" lon="-3.15015">
        <ele>390.8</ele>
        <time>2021-10-28 10:03:35</time>
      </trkpt>
      <trkpt lat="43.31321" lon="-3.15018">
        <ele>390.8</ele>
        <time>2021-10-28 10:03:36</time>
      </trkpt>
      <trkpt lat="43.31321" lon="-3.15018">
        <ele>390.8</ele>
        <time>2021-10-28 10:03:37</time>
      </trkpt>
      <trkpt lat="43.31321" lon="-3.15018">
        <ele>390.8</ele>
        <time>2021-10-28 10:03:38</time>
      </trkpt>
      <trkpt lat="43.31321" lon="-3.15018">
        <ele>391</ele>
        <time>2021-10-28 10:03:39</time>
      </trkpt>
      <trkpt lat="43.31323" lon="-3.15024">
        <ele>391</ele>
        <time>2021-10-28 10:03:40</time>
      </trkpt>
      <trkpt lat="43.31324" lon="-3.15026">
        <ele>391.2</ele>
        <time>2021-10-28 10:03:41</time>
      </trkpt>
      <trkpt lat="43.31325" lon="-3.15029">
        <ele>391.2</ele>
        <time>2021-10-28 10:03:42</time>
      </trkpt>
      <trkpt lat="43.31326" lon="-3.15034">
        <ele>391.4</ele>
        <time>2021-10-28 10:03:43</time>
      </trkpt>
      <trkpt lat="43.31326" lon="-3.15034">
        <ele>391.6</ele>
        <time>2021-10-28 10:03:44</time>
      </trkpt>
      <trkpt lat="43.31326" lon="-3.15034">
        <ele>392</ele>
        <time>2021-10-28 10:03:45</time>
      </trkpt>
      <trkpt lat="43.31328" lon="-3.15035">
        <ele>392</ele>
        <time>2021-10-28 10:03:46</time>
      </trkpt>
      <trkpt lat="43.3133" lon="-3.15039">
        <ele>392.2</ele>
        <time>2021-10-28 10:03:47</time>
      </trkpt>
      <trkpt lat="43.3133" lon="-3.15039">
        <ele>392.4</ele>
        <time>2021-10-28 10:03:48</time>
      </trkpt>
      <trkpt lat="43.31331" lon="-3.15044">
        <ele>392.4</ele>
        <time>2021-10-28 10:03:49</time>
      </trkpt>
      <trkpt lat="43.31331" lon="-3.15044">
        <ele>392.6</ele>
        <time>2021-10-28 10:03:50</time>
      </trkpt>
      <trkpt lat="43.31333" lon="-3.15047">
        <ele>393</ele>
        <time>2021-10-28 10:03:51</time>
      </trkpt>
      <trkpt lat="43.31333" lon="-3.15047">
        <ele>393.4</ele>
        <time>2021-10-28 10:03:52</time>
      </trkpt>
      <trkpt lat="43.31334" lon="-3.15051">
        <ele>393.8</ele>
        <time>2021-10-28 10:03:53</time>
      </trkpt>
      <trkpt lat="43.31334" lon="-3.15051">
        <ele>394</ele>
        <time>2021-10-28 10:03:54</time>
      </trkpt>
      <trkpt lat="43.31335" lon="-3.15056">
        <ele>394.2</ele>
        <time>2021-10-28 10:03:55</time>
      </trkpt>
      <trkpt lat="43.31335" lon="-3.15056">
        <ele>394.2</ele>
        <time>2021-10-28 10:03:56</time>
      </trkpt>
      <trkpt lat="43.31335" lon="-3.15056">
        <ele>394.4</ele>
        <time>2021-10-28 10:03:57</time>
      </trkpt>
      <trkpt lat="43.31337" lon="-3.15059">
        <ele>394.8</ele>
        <time>2021-10-28 10:03:58</time>
      </trkpt>
      <trkpt lat="43.31337" lon="-3.15059">
        <ele>395</ele>
        <time>2021-10-28 10:03:59</time>
      </trkpt>
      <trkpt lat="43.31338" lon="-3.15061">
        <ele>395</ele>
        <time>2021-10-28 10:04:00</time>
      </trkpt>
      <trkpt lat="43.31339" lon="-3.15063">
        <ele>395.2</ele>
        <time>2021-10-28 10:04:01</time>
      </trkpt>
      <trkpt lat="43.31341" lon="-3.15068">
        <ele>395.4</ele>
        <time>2021-10-28 10:04:02</time>
      </trkpt>
      <trkpt lat="43.31343" lon="-3.1507">
        <ele>395.6</ele>
        <time>2021-10-28 10:04:03</time>
      </trkpt>
      <trkpt lat="43.31343" lon="-3.1507">
        <ele>395.6</ele>
        <time>2021-10-28 10:04:04</time>
      </trkpt>
      <trkpt lat="43.31344" lon="-3.15076">
        <ele>395.8</ele>
        <time>2021-10-28 10:04:05</time>
      </trkpt>
      <trkpt lat="43.31344" lon="-3.15076">
        <ele>396</ele>
        <time>2021-10-28 10:04:06</time>
      </trkpt>
      <trkpt lat="43.31343" lon="-3.15082">
        <ele>396.4</ele>
        <time>2021-10-28 10:04:07</time>
      </trkpt>
      <trkpt lat="43.31343" lon="-3.15082">
        <ele>396.6</ele>
        <time>2021-10-28 10:04:08</time>
      </trkpt>
      <trkpt lat="43.31343" lon="-3.15082">
        <ele>396.8</ele>
        <time>2021-10-28 10:04:09</time>
      </trkpt>
      <trkpt lat="43.31345" lon="-3.15088">
        <ele>397</ele>
        <time>2021-10-28 10:04:10</time>
      </trkpt>
      <trkpt lat="43.31345" lon="-3.15088">
        <ele>397.2</ele>
        <time>2021-10-28 10:04:11</time>
      </trkpt>
      <trkpt lat="43.31345" lon="-3.15094">
        <ele>397.4</ele>
        <time>2021-10-28 10:04:12</time>
      </trkpt>
      <trkpt lat="43.31345" lon="-3.15094">
        <ele>397.6</ele>
        <time>2021-10-28 10:04:13</time>
      </trkpt>
      <trkpt lat="43.31346" lon="-3.151">
        <ele>397.8</ele>
        <time>2021-10-28 10:04:14</time>
      </trkpt>
      <trkpt lat="43.31346" lon="-3.151">
        <ele>398.2</ele>
        <time>2021-10-28 10:04:15</time>
      </trkpt>
      <trkpt lat="43.31346" lon="-3.151">
        <ele>398.2</ele>
        <time>2021-10-28 10:04:16</time>
      </trkpt>
      <trkpt lat="43.31347" lon="-3.15105">
        <ele>398.4</ele>
        <time>2021-10-28 10:04:17</time>
      </trkpt>
      <trkpt lat="43.31347" lon="-3.15105">
        <ele>398.6</ele>
        <time>2021-10-28 10:04:18</time>
      </trkpt>
      <trkpt lat="43.31347" lon="-3.15105">
        <ele>398.8</ele>
        <time>2021-10-28 10:04:19</time>
      </trkpt>
      <trkpt lat="43.31347" lon="-3.15105">
        <ele>399.2</ele>
        <time>2021-10-28 10:04:20</time>
      </trkpt>
      <trkpt lat="43.31347" lon="-3.15105">
        <ele>399.6</ele>
        <time>2021-10-28 10:04:21</time>
      </trkpt>
      <trkpt lat="43.31344" lon="-3.15118">
        <ele>399.8</ele>
        <time>2021-10-28 10:04:22</time>
      </trkpt>
      <trkpt lat="43.31344" lon="-3.15118">
        <ele>400</ele>
        <time>2021-10-28 10:04:23</time>
      </trkpt>
      <trkpt lat="43.31343" lon="-3.1512">
        <ele>400.2</ele>
        <time>2021-10-28 10:04:24</time>
      </trkpt>
      <trkpt lat="43.3134" lon="-3.15125">
        <ele>400.2</ele>
        <time>2021-10-28 10:04:25</time>
      </trkpt>
      <trkpt lat="43.3134" lon="-3.15125">
        <ele>400.2</ele>
        <time>2021-10-28 10:04:26</time>
      </trkpt>
      <trkpt lat="43.31337" lon="-3.15129">
        <ele>400.4</ele>
        <time>2021-10-28 10:04:27</time>
      </trkpt>
      <trkpt lat="43.31337" lon="-3.15129">
        <ele>400.8</ele>
        <time>2021-10-28 10:04:28</time>
      </trkpt>
      <trkpt lat="43.31335" lon="-3.1513">
        <ele>401</ele>
        <time>2021-10-28 10:04:29</time>
      </trkpt>
      <trkpt lat="43.31335" lon="-3.1513">
        <ele>401.2</ele>
        <time>2021-10-28 10:04:30</time>
      </trkpt>
      <trkpt lat="43.31337" lon="-3.15132">
        <ele>401.4</ele>
        <time>2021-10-28 10:04:31</time>
      </trkpt>
      <trkpt lat="43.31337" lon="-3.15132">
        <ele>401.6</ele>
        <time>2021-10-28 10:04:32</time>
      </trkpt>
      <trkpt lat="43.31337" lon="-3.15136">
        <ele>401.8</ele>
        <time>2021-10-28 10:04:33</time>
      </trkpt>
      <trkpt lat="43.31337" lon="-3.15136">
        <ele>402</ele>
        <time>2021-10-28 10:04:34</time>
      </trkpt>
      <trkpt lat="43.31336" lon="-3.15138">
        <ele>402.2</ele>
        <time>2021-10-28 10:04:35</time>
      </trkpt>
      <trkpt lat="43.31334" lon="-3.15142">
        <ele>402.6</ele>
        <time>2021-10-28 10:04:36</time>
      </trkpt>
      <trkpt lat="43.31334" lon="-3.15142">
        <ele>403</ele>
        <time>2021-10-28 10:04:37</time>
      </trkpt>
      <trkpt lat="43.31331" lon="-3.15146">
        <ele>403.2</ele>
        <time>2021-10-28 10:04:38</time>
      </trkpt>
      <trkpt lat="43.31331" lon="-3.15146">
        <ele>403.2</ele>
        <time>2021-10-28 10:04:39</time>
      </trkpt>
      <trkpt lat="43.31327" lon="-3.1515">
        <ele>403.2</ele>
        <time>2021-10-28 10:04:40</time>
      </trkpt>
      <trkpt lat="43.31327" lon="-3.1515">
        <ele>403</ele>
        <time>2021-10-28 10:04:41</time>
      </trkpt>
      <trkpt lat="43.31327" lon="-3.1515">
        <ele>403</ele>
        <time>2021-10-28 10:04:42</time>
      </trkpt>
      <trkpt lat="43.31327" lon="-3.1515">
        <ele>403</ele>
        <time>2021-10-28 10:04:43</time>
      </trkpt>
      <trkpt lat="43.31324" lon="-3.15152">
        <ele>403</ele>
        <time>2021-10-28 10:04:44</time>
      </trkpt>
      <trkpt lat="43.31324" lon="-3.15155">
        <ele>403</ele>
        <time>2021-10-28 10:04:45</time>
      </trkpt>
      <trkpt lat="43.31324" lon="-3.15159">
        <ele>403</ele>
        <time>2021-10-28 10:04:46</time>
      </trkpt>
      <trkpt lat="43.31322" lon="-3.15163">
        <ele>403</ele>
        <time>2021-10-28 10:04:47</time>
      </trkpt>
      <trkpt lat="43.31322" lon="-3.15163">
        <ele>403.2</ele>
        <time>2021-10-28 10:04:48</time>
      </trkpt>
      <trkpt lat="43.31322" lon="-3.15163">
        <ele>403.4</ele>
        <time>2021-10-28 10:04:49</time>
      </trkpt>
      <trkpt lat="43.3132" lon="-3.15165">
        <ele>403.6</ele>
        <time>2021-10-28 10:04:50</time>
      </trkpt>
      <trkpt lat="43.3132" lon="-3.15165">
        <ele>404</ele>
        <time>2021-10-28 10:04:51</time>
      </trkpt>
      <trkpt lat="43.31318" lon="-3.15165">
        <ele>404.4</ele>
        <time>2021-10-28 10:04:52</time>
      </trkpt>
      <trkpt lat="43.31315" lon="-3.15162">
        <ele>404.8</ele>
        <time>2021-10-28 10:04:53</time>
      </trkpt>
      <trkpt lat="43.31316" lon="-3.15158">
        <ele>405</ele>
        <time>2021-10-28 10:04:54</time>
      </trkpt>
      <trkpt lat="43.31316" lon="-3.15158">
        <ele>405.4</ele>
        <time>2021-10-28 10:04:55</time>
      </trkpt>
      <trkpt lat="43.31316" lon="-3.15158">
        <ele>405.4</ele>
        <time>2021-10-28 10:04:56</time>
      </trkpt>
      <trkpt lat="43.31315" lon="-3.15155">
        <ele>405.6</ele>
        <time>2021-10-28 10:04:57</time>
      </trkpt>
      <trkpt lat="43.31316" lon="-3.15153">
        <ele>405.6</ele>
        <time>2021-10-28 10:04:58</time>
      </trkpt>
      <trkpt lat="43.31316" lon="-3.15153">
        <ele>405.6</ele>
        <time>2021-10-28 10:04:59</time>
      </trkpt>
      <trkpt lat="43.31316" lon="-3.15152">
        <ele>405.8</ele>
        <time>2021-10-28 10:05:00</time>
      </trkpt>
      <trkpt lat="43.31316" lon="-3.15149">
        <ele>406</ele>
        <time>2021-10-28 10:05:01</time>
      </trkpt>
      <trkpt lat="43.31316" lon="-3.15147">
        <ele>406.4</ele>
        <time>2021-10-28 10:05:02</time>
      </trkpt>
      <trkpt lat="43.31316" lon="-3.15147">
        <ele>406.8</ele>
        <time>2021-10-28 10:05:03</time>
      </trkpt>
      <trkpt lat="43.31317" lon="-3.15142">
        <ele>407.2</ele>
        <time>2021-10-28 10:05:04</time>
      </trkpt>
      <trkpt lat="43.31317" lon="-3.15142">
        <ele>407.8</ele>
        <time>2021-10-28 10:05:05</time>
      </trkpt>
      <trkpt lat="43.31318" lon="-3.15137">
        <ele>408</ele>
        <time>2021-10-28 10:05:06</time>
      </trkpt>
      <trkpt lat="43.31318" lon="-3.15137">
        <ele>408.4</ele>
        <time>2021-10-28 10:05:07</time>
      </trkpt>
      <trkpt lat="43.31317" lon="-3.15135">
        <ele>408.6</ele>
        <time>2021-10-28 10:05:08</time>
      </trkpt>
      <trkpt lat="43.31318" lon="-3.15134">
        <ele>408.6</ele>
        <time>2021-10-28 10:05:09</time>
      </trkpt>
      <trkpt lat="43.31318" lon="-3.15132">
        <ele>408.8</ele>
        <time>2021-10-28 10:05:10</time>
      </trkpt>
      <trkpt lat="43.31317" lon="-3.15125">
        <ele>409</ele>
        <time>2021-10-28 10:05:11</time>
      </trkpt>
      <trkpt lat="43.31318" lon="-3.15122">
        <ele>409.2</ele>
        <time>2021-10-28 10:05:12</time>
      </trkpt>
      <trkpt lat="43.31318" lon="-3.15117">
        <ele>409.2</ele>
        <time>2021-10-28 10:05:13</time>
      </trkpt>
      <trkpt lat="43.31318" lon="-3.15117">
        <ele>409.4</ele>
        <time>2021-10-28 10:05:14</time>
      </trkpt>
      <trkpt lat="43.31317" lon="-3.15115">
        <ele>409.4</ele>
        <time>2021-10-28 10:05:15</time>
      </trkpt>
      <trkpt lat="43.31317" lon="-3.15115">
        <ele>409.4</ele>
        <time>2021-10-28 10:05:16</time>
      </trkpt>
      <trkpt lat="43.31317" lon="-3.15114">
        <ele>409.6</ele>
        <time>2021-10-28 10:05:17</time>
      </trkpt>
      <trkpt lat="43.31318" lon="-3.1511">
        <ele>409.8</ele>
        <time>2021-10-28 10:05:18</time>
      </trkpt>
      <trkpt lat="43.31318" lon="-3.1511">
        <ele>410</ele>
        <time>2021-10-28 10:05:19</time>
      </trkpt>
      <trkpt lat="43.31317" lon="-3.15106">
        <ele>410.4</ele>
        <time>2021-10-28 10:05:20</time>
      </trkpt>
      <trkpt lat="43.31311" lon="-3.15102">
        <ele>410.8</ele>
        <time>2021-10-28 10:05:21</time>
      </trkpt>
      <trkpt lat="43.31311" lon="-3.15102">
        <ele>411.2</ele>
        <time>2021-10-28 10:05:22</time>
      </trkpt>
      <trkpt lat="43.31308" lon="-3.15101">
        <ele>411.6</ele>
        <time>2021-10-28 10:05:23</time>
      </trkpt>
      <trkpt lat="43.31304" lon="-3.15099">
        <ele>411.8</ele>
        <time>2021-10-28 10:05:24</time>
      </trkpt>
      <trkpt lat="43.31304" lon="-3.15099">
        <ele>411.8</ele>
        <time>2021-10-28 10:05:25</time>
      </trkpt>
      <trkpt lat="43.31299" lon="-3.15098">
        <ele>412</ele>
        <time>2021-10-28 10:05:26</time>
      </trkpt>
      <trkpt lat="43.31298" lon="-3.15096">
        <ele>412.2</ele>
        <time>2021-10-28 10:05:27</time>
      </trkpt>
      <trkpt lat="43.31297" lon="-3.15094">
        <ele>412.4</ele>
        <time>2021-10-28 10:05:28</time>
      </trkpt>
      <trkpt lat="43.31297" lon="-3.15094">
        <ele>412.6</ele>
        <time>2021-10-28 10:05:29</time>
      </trkpt>
      <trkpt lat="43.31295" lon="-3.1509">
        <ele>413</ele>
        <time>2021-10-28 10:05:30</time>
      </trkpt>
      <trkpt lat="43.31295" lon="-3.1509">
        <ele>413.4</ele>
        <time>2021-10-28 10:05:31</time>
      </trkpt>
      <trkpt lat="43.31291" lon="-3.1508">
        <ele>413.6</ele>
        <time>2021-10-28 10:05:32</time>
      </trkpt>
      <trkpt lat="43.31291" lon="-3.1508">
        <ele>413.6</ele>
        <time>2021-10-28 10:05:33</time>
      </trkpt>
      <trkpt lat="43.31291" lon="-3.1508">
        <ele>413.8</ele>
        <time>2021-10-28 10:05:34</time>
      </trkpt>
      <trkpt lat="43.31291" lon="-3.1508">
        <ele>414</ele>
        <time>2021-10-28 10:05:35</time>
      </trkpt>
      <trkpt lat="43.31287" lon="-3.15077">
        <ele>414.2</ele>
        <time>2021-10-28 10:05:36</time>
      </trkpt>
      <trkpt lat="43.31285" lon="-3.15077">
        <ele>414.2</ele>
        <time>2021-10-28 10:05:37</time>
      </trkpt>
      <trkpt lat="43.31283" lon="-3.15074">
        <ele>414.4</ele>
        <time>2021-10-28 10:05:38</time>
      </trkpt>
      <trkpt lat="43.31283" lon="-3.15074">
        <ele>414.8</ele>
        <time>2021-10-28 10:05:39</time>
      </trkpt>
      <trkpt lat="43.31277" lon="-3.15072">
        <ele>415</ele>
        <time>2021-10-28 10:05:40</time>
      </trkpt>
      <trkpt lat="43.31277" lon="-3.15072">
        <ele>415.2</ele>
        <time>2021-10-28 10:05:41</time>
      </trkpt>
      <trkpt lat="43.31277" lon="-3.1507">
        <ele>415.4</ele>
        <time>2021-10-28 10:05:42</time>
      </trkpt>
      <trkpt lat="43.31276" lon="-3.1507">
        <ele>415.8</ele>
        <time>2021-10-28 10:05:43</time>
      </trkpt>
      <trkpt lat="43.31272" lon="-3.15068">
        <ele>416.2</ele>
        <time>2021-10-28 10:05:44</time>
      </trkpt>
      <trkpt lat="43.31272" lon="-3.15068">
        <ele>416.4</ele>
        <time>2021-10-28 10:05:45</time>
      </trkpt>
      <trkpt lat="43.31272" lon="-3.15068">
        <ele>416.6</ele>
        <time>2021-10-28 10:05:46</time>
      </trkpt>
      <trkpt lat="43.31265" lon="-3.15064">
        <ele>416.6</ele>
        <time>2021-10-28 10:05:47</time>
      </trkpt>
      <trkpt lat="43.31265" lon="-3.15064">
        <ele>416.8</ele>
        <time>2021-10-28 10:05:48</time>
      </trkpt>
      <trkpt lat="43.31263" lon="-3.15063">
        <ele>417</ele>
        <time>2021-10-28 10:05:49</time>
      </trkpt>
      <trkpt lat="43.31261" lon="-3.15063">
        <ele>417.2</ele>
        <time>2021-10-28 10:05:50</time>
      </trkpt>
      <trkpt lat="43.31256" lon="-3.15059">
        <ele>417.4</ele>
        <time>2021-10-28 10:05:51</time>
      </trkpt>
      <trkpt lat="43.31256" lon="-3.15059">
        <ele>417.4</ele>
        <time>2021-10-28 10:05:52</time>
      </trkpt>
      <trkpt lat="43.31256" lon="-3.15059">
        <ele>417.6</ele>
        <time>2021-10-28 10:05:53</time>
      </trkpt>
      <trkpt lat="43.31253" lon="-3.15058">
        <ele>417.8</ele>
        <time>2021-10-28 10:05:54</time>
      </trkpt>
      <trkpt lat="43.31253" lon="-3.15058">
        <ele>418</ele>
        <time>2021-10-28 10:05:55</time>
      </trkpt>
      <trkpt lat="43.31252" lon="-3.15056">
        <ele>418.2</ele>
        <time>2021-10-28 10:05:56</time>
      </trkpt>
      <trkpt lat="43.31249" lon="-3.15054">
        <ele>418.4</ele>
        <time>2021-10-28 10:05:57</time>
      </trkpt>
      <trkpt lat="43.31246" lon="-3.15052">
        <ele>418.8</ele>
        <time>2021-10-28 10:05:58</time>
      </trkpt>
      <trkpt lat="43.31246" lon="-3.15052">
        <ele>419.2</ele>
        <time>2021-10-28 10:05:59</time>
      </trkpt>
      <trkpt lat="43.31246" lon="-3.15052">
        <ele>419.4</ele>
        <time>2021-10-28 10:06:00</time>
      </trkpt>
      <trkpt lat="43.31244" lon="-3.15052">
        <ele>419.8</ele>
        <time>2021-10-28 10:06:01</time>
      </trkpt>
      <trkpt lat="43.31239" lon="-3.1505">
        <ele>420</ele>
        <time>2021-10-28 10:06:02</time>
      </trkpt>
      <trkpt lat="43.31239" lon="-3.1505">
        <ele>420.2</ele>
        <time>2021-10-28 10:06:03</time>
      </trkpt>
      <trkpt lat="43.31236" lon="-3.15049">
        <ele>420.6</ele>
        <time>2021-10-28 10:06:04</time>
      </trkpt>
      <trkpt lat="43.31236" lon="-3.15049">
        <ele>420.8</ele>
        <time>2021-10-28 10:06:05</time>
      </trkpt>
      <trkpt lat="43.31232" lon="-3.15046">
        <ele>421</ele>
        <time>2021-10-28 10:06:06</time>
      </trkpt>
      <trkpt lat="43.31232" lon="-3.15046">
        <ele>421</ele>
        <time>2021-10-28 10:06:07</time>
      </trkpt>
      <trkpt lat="43.31231" lon="-3.15046">
        <ele>421</ele>
        <time>2021-10-28 10:06:08</time>
      </trkpt>
      <trkpt lat="43.31229" lon="-3.15044">
        <ele>421</ele>
        <time>2021-10-28 10:06:09</time>
      </trkpt>
      <trkpt lat="43.31229" lon="-3.15044">
        <ele>421.2</ele>
        <time>2021-10-28 10:06:10</time>
      </trkpt>
      <trkpt lat="43.31228" lon="-3.15043">
        <ele>421.2</ele>
        <time>2021-10-28 10:06:11</time>
      </trkpt>
      <trkpt lat="43.31226" lon="-3.15042">
        <ele>421.4</ele>
        <time>2021-10-28 10:06:12</time>
      </trkpt>
      <trkpt lat="43.31222" lon="-3.15041">
        <ele>421.8</ele>
        <time>2021-10-28 10:06:13</time>
      </trkpt>
      <trkpt lat="43.31222" lon="-3.15041">
        <ele>422</ele>
        <time>2021-10-28 10:06:14</time>
      </trkpt>
      <trkpt lat="43.3122" lon="-3.1504">
        <ele>422.4</ele>
        <time>2021-10-28 10:06:15</time>
      </trkpt>
      <trkpt lat="43.3122" lon="-3.1504">
        <ele>422.4</ele>
        <time>2021-10-28 10:06:16</time>
      </trkpt>
      <trkpt lat="43.31213" lon="-3.15035">
        <ele>422.6</ele>
        <time>2021-10-28 10:06:17</time>
      </trkpt>
      <trkpt lat="43.31213" lon="-3.15035">
        <ele>423</ele>
        <time>2021-10-28 10:06:18</time>
      </trkpt>
      <trkpt lat="43.31213" lon="-3.15035">
        <ele>423.4</ele>
        <time>2021-10-28 10:06:19</time>
      </trkpt>
      <trkpt lat="43.3121" lon="-3.15032">
        <ele>423.6</ele>
        <time>2021-10-28 10:06:20</time>
      </trkpt>
      <trkpt lat="43.3121" lon="-3.15032">
        <ele>423.6</ele>
        <time>2021-10-28 10:06:21</time>
      </trkpt>
      <trkpt lat="43.3121" lon="-3.15032">
        <ele>423.8</ele>
        <time>2021-10-28 10:06:22</time>
      </trkpt>
      <trkpt lat="43.31204" lon="-3.15026">
        <ele>423.8</ele>
        <time>2021-10-28 10:06:23</time>
      </trkpt>
      <trkpt lat="43.31204" lon="-3.15026">
        <ele>424</ele>
        <time>2021-10-28 10:06:24</time>
      </trkpt>
      <trkpt lat="43.31201" lon="-3.15024">
        <ele>424.2</ele>
        <time>2021-10-28 10:06:25</time>
      </trkpt>
      <trkpt lat="43.31201" lon="-3.15024">
        <ele>424.4</ele>
        <time>2021-10-28 10:06:26</time>
      </trkpt>
      <trkpt lat="43.312" lon="-3.15022">
        <ele>424.8</ele>
        <time>2021-10-28 10:06:27</time>
      </trkpt>
      <trkpt lat="43.312" lon="-3.15022">
        <ele>425.2</ele>
        <time>2021-10-28 10:06:28</time>
      </trkpt>
      <trkpt lat="43.31199" lon="-3.1502">
        <ele>425.6</ele>
        <time>2021-10-28 10:06:29</time>
      </trkpt>
      <trkpt lat="43.31198" lon="-3.15016">
        <ele>425.8</ele>
        <time>2021-10-28 10:06:30</time>
      </trkpt>
      <trkpt lat="43.31196" lon="-3.15012">
        <ele>425.8</ele>
        <time>2021-10-28 10:06:31</time>
      </trkpt>
      <trkpt lat="43.31193" lon="-3.15011">
        <ele>426</ele>
        <time>2021-10-28 10:06:32</time>
      </trkpt>
      <trkpt lat="43.31193" lon="-3.15011">
        <ele>426.2</ele>
        <time>2021-10-28 10:06:33</time>
      </trkpt>
      <trkpt lat="43.31191" lon="-3.15009">
        <ele>426.2</ele>
        <time>2021-10-28 10:06:34</time>
      </trkpt>
      <trkpt lat="43.3119" lon="-3.15007">
        <ele>426.6</ele>
        <time>2021-10-28 10:06:35</time>
      </trkpt>
      <trkpt lat="43.31186" lon="-3.15004">
        <ele>426.8</ele>
        <time>2021-10-28 10:06:36</time>
      </trkpt>
      <trkpt lat="43.31186" lon="-3.15004">
        <ele>427.2</ele>
        <time>2021-10-28 10:06:37</time>
      </trkpt>
      <trkpt lat="43.31186" lon="-3.15004">
        <ele>427.4</ele>
        <time>2021-10-28 10:06:38</time>
      </trkpt>
      <trkpt lat="43.31184" lon="-3.15002">
        <ele>427.4</ele>
        <time>2021-10-28 10:06:39</time>
      </trkpt>
      <trkpt lat="43.31184" lon="-3.15004">
        <ele>427.4</ele>
        <time>2021-10-28 10:06:40</time>
      </trkpt>
      <trkpt lat="43.31184" lon="-3.15004">
        <ele>427.6</ele>
        <time>2021-10-28 10:06:41</time>
      </trkpt>
      <trkpt lat="43.31183" lon="-3.15004">
        <ele>427.8</ele>
        <time>2021-10-28 10:06:42</time>
      </trkpt>
      <trkpt lat="43.31179" lon="-3.14996">
        <ele>428</ele>
        <time>2021-10-28 10:06:43</time>
      </trkpt>
      <trkpt lat="43.31179" lon="-3.14996">
        <ele>428.4</ele>
        <time>2021-10-28 10:06:44</time>
      </trkpt>
      <trkpt lat="43.31179" lon="-3.14996">
        <ele>429</ele>
        <time>2021-10-28 10:06:45</time>
      </trkpt>
      <trkpt lat="43.31177" lon="-3.1499">
        <ele>429.4</ele>
        <time>2021-10-28 10:06:46</time>
      </trkpt>
      <trkpt lat="43.31177" lon="-3.14987">
        <ele>429.6</ele>
        <time>2021-10-28 10:06:47</time>
      </trkpt>
      <trkpt lat="43.31177" lon="-3.14987">
        <ele>429.8</ele>
        <time>2021-10-28 10:06:48</time>
      </trkpt>
      <trkpt lat="43.31177" lon="-3.14982">
        <ele>429.8</ele>
        <time>2021-10-28 10:06:49</time>
      </trkpt>
      <trkpt lat="43.31177" lon="-3.14982">
        <ele>429.8</ele>
        <time>2021-10-28 10:06:50</time>
      </trkpt>
      <trkpt lat="43.31176" lon="-3.14977">
        <ele>429.8</ele>
        <time>2021-10-28 10:06:51</time>
      </trkpt>
      <trkpt lat="43.31176" lon="-3.14977">
        <ele>430</ele>
        <time>2021-10-28 10:06:52</time>
      </trkpt>
      <trkpt lat="43.31176" lon="-3.14975">
        <ele>430.2</ele>
        <time>2021-10-28 10:06:53</time>
      </trkpt>
      <trkpt lat="43.31173" lon="-3.14971">
        <ele>430.6</ele>
        <time>2021-10-28 10:06:54</time>
      </trkpt>
      <trkpt lat="43.31172" lon="-3.14966">
        <ele>430.6</ele>
        <time>2021-10-28 10:06:55</time>
      </trkpt>
      <trkpt lat="43.31172" lon="-3.14966">
        <ele>430.6</ele>
        <time>2021-10-28 10:06:56</time>
      </trkpt>
      <trkpt lat="43.31172" lon="-3.14966">
        <ele>430.8</ele>
        <time>2021-10-28 10:06:57</time>
      </trkpt>
      <trkpt lat="43.31171" lon="-3.14961">
        <ele>430.8</ele>
        <time>2021-10-28 10:06:58</time>
      </trkpt>
      <trkpt lat="43.31171" lon="-3.14961">
        <ele>430.8</ele>
        <time>2021-10-28 10:06:59</time>
      </trkpt>
      <trkpt lat="43.31173" lon="-3.14955">
        <ele>430.8</ele>
        <time>2021-10-28 10:07:00</time>
      </trkpt>
      <trkpt lat="43.31173" lon="-3.14955">
        <ele>430.8</ele>
        <time>2021-10-28 10:07:01</time>
      </trkpt>
      <trkpt lat="43.31172" lon="-3.14948">
        <ele>431</ele>
        <time>2021-10-28 10:07:02</time>
      </trkpt>
      <trkpt lat="43.31172" lon="-3.14948">
        <ele>431.2</ele>
        <time>2021-10-28 10:07:03</time>
      </trkpt>
      <trkpt lat="43.31172" lon="-3.14948">
        <ele>431.6</ele>
        <time>2021-10-28 10:07:04</time>
      </trkpt>
      <trkpt lat="43.31172" lon="-3.14943">
        <ele>432</ele>
        <time>2021-10-28 10:07:05</time>
      </trkpt>
      <trkpt lat="43.31172" lon="-3.14943">
        <ele>432.2</ele>
        <time>2021-10-28 10:07:06</time>
      </trkpt>
      <trkpt lat="43.31168" lon="-3.14942">
        <ele>432.4</ele>
        <time>2021-10-28 10:07:07</time>
      </trkpt>
      <trkpt lat="43.31168" lon="-3.14942">
        <ele>432.6</ele>
        <time>2021-10-28 10:07:08</time>
      </trkpt>
      <trkpt lat="43.31168" lon="-3.14939">
        <ele>432.8</ele>
        <time>2021-10-28 10:07:09</time>
      </trkpt>
      <trkpt lat="43.31165" lon="-3.14933">
        <ele>432.8</ele>
        <time>2021-10-28 10:07:10</time>
      </trkpt>
      <trkpt lat="43.31164" lon="-3.14932">
        <ele>433</ele>
        <time>2021-10-28 10:07:11</time>
      </trkpt>
      <trkpt lat="43.31164" lon="-3.14932">
        <ele>433.2</ele>
        <time>2021-10-28 10:07:12</time>
      </trkpt>
      <trkpt lat="43.31164" lon="-3.14929">
        <ele>433.6</ele>
        <time>2021-10-28 10:07:13</time>
      </trkpt>
      <trkpt lat="43.31162" lon="-3.14924">
        <ele>433.8</ele>
        <time>2021-10-28 10:07:14</time>
      </trkpt>
      <trkpt lat="43.31162" lon="-3.14924">
        <ele>434.2</ele>
        <time>2021-10-28 10:07:15</time>
      </trkpt>
      <trkpt lat="43.31162" lon="-3.14922">
        <ele>434.6</ele>
        <time>2021-10-28 10:07:16</time>
      </trkpt>
      <trkpt lat="43.31159" lon="-3.14922">
        <ele>434.8</ele>
        <time>2021-10-28 10:07:17</time>
      </trkpt>
      <trkpt lat="43.31155" lon="-3.14919">
        <ele>435.2</ele>
        <time>2021-10-28 10:07:18</time>
      </trkpt>
      <trkpt lat="43.31154" lon="-3.14917">
        <ele>435.4</ele>
        <time>2021-10-28 10:07:19</time>
      </trkpt>
      <trkpt lat="43.31154" lon="-3.14917">
        <ele>435.6</ele>
        <time>2021-10-28 10:07:20</time>
      </trkpt>
      <trkpt lat="43.31148" lon="-3.14914">
        <ele>435.8</ele>
        <time>2021-10-28 10:07:21</time>
      </trkpt>
      <trkpt lat="43.31148" lon="-3.14914">
        <ele>436</ele>
        <time>2021-10-28 10:07:22</time>
      </trkpt>
      <trkpt lat="43.31148" lon="-3.14914">
        <ele>436</ele>
        <time>2021-10-28 10:07:23</time>
      </trkpt>
      <trkpt lat="43.31147" lon="-3.14911">
        <ele>436.2</ele>
        <time>2021-10-28 10:07:24</time>
      </trkpt>
      <trkpt lat="43.31144" lon="-3.14906">
        <ele>436.4</ele>
        <time>2021-10-28 10:07:25</time>
      </trkpt>
      <trkpt lat="43.31144" lon="-3.14906">
        <ele>436.6</ele>
        <time>2021-10-28 10:07:26</time>
      </trkpt>
      <trkpt lat="43.3114" lon="-3.14904">
        <ele>437</ele>
        <time>2021-10-28 10:07:27</time>
      </trkpt>
      <trkpt lat="43.3114" lon="-3.14904">
        <ele>437.4</ele>
        <time>2021-10-28 10:07:28</time>
      </trkpt>
      <trkpt lat="43.31137" lon="-3.14903">
        <ele>437.8</ele>
        <time>2021-10-28 10:07:29</time>
      </trkpt>
      <trkpt lat="43.31137" lon="-3.14903">
        <ele>438</ele>
        <time>2021-10-28 10:07:30</time>
      </trkpt>
      <trkpt lat="43.31135" lon="-3.14905">
        <ele>438.2</ele>
        <time>2021-10-28 10:07:31</time>
      </trkpt>
      <trkpt lat="43.31132" lon="-3.14905">
        <ele>438.2</ele>
        <time>2021-10-28 10:07:32</time>
      </trkpt>
      <trkpt lat="43.3113" lon="-3.14901">
        <ele>438.4</ele>
        <time>2021-10-28 10:07:33</time>
      </trkpt>
      <trkpt lat="43.3113" lon="-3.14901">
        <ele>438.4</ele>
        <time>2021-10-28 10:07:34</time>
      </trkpt>
      <trkpt lat="43.3113" lon="-3.14901">
        <ele>438.6</ele>
        <time>2021-10-28 10:07:35</time>
      </trkpt>
      <trkpt lat="43.31126" lon="-3.14899">
        <ele>438.6</ele>
        <time>2021-10-28 10:07:36</time>
      </trkpt>
      <trkpt lat="43.31126" lon="-3.14899">
        <ele>438.6</ele>
        <time>2021-10-28 10:07:37</time>
      </trkpt>
      <trkpt lat="43.31124" lon="-3.14898">
        <ele>438.8</ele>
        <time>2021-10-28 10:07:38</time>
      </trkpt>
      <trkpt lat="43.31122" lon="-3.14897">
        <ele>439</ele>
        <time>2021-10-28 10:07:39</time>
      </trkpt>
      <trkpt lat="43.3112" lon="-3.14893">
        <ele>439.4</ele>
        <time>2021-10-28 10:07:40</time>
      </trkpt>
      <trkpt lat="43.3112" lon="-3.14893">
        <ele>439.6</ele>
        <time>2021-10-28 10:07:41</time>
      </trkpt>
      <trkpt lat="43.3112" lon="-3.14893">
        <ele>439.8</ele>
        <time>2021-10-28 10:07:42</time>
      </trkpt>
      <trkpt lat="43.31116" lon="-3.1489">
        <ele>440</ele>
        <time>2021-10-28 10:07:43</time>
      </trkpt>
      <trkpt lat="43.31116" lon="-3.1489">
        <ele>440.2</ele>
        <time>2021-10-28 10:07:44</time>
      </trkpt>
      <trkpt lat="43.31115" lon="-3.1489">
        <ele>440.4</ele>
        <time>2021-10-28 10:07:45</time>
      </trkpt>
      <trkpt lat="43.31113" lon="-3.14888">
        <ele>440.8</ele>
        <time>2021-10-28 10:07:46</time>
      </trkpt>
      <trkpt lat="43.31113" lon="-3.14888">
        <ele>441</ele>
        <time>2021-10-28 10:07:47</time>
      </trkpt>
      <trkpt lat="43.31108" lon="-3.14883">
        <ele>441.4</ele>
        <time>2021-10-28 10:07:48</time>
      </trkpt>
      <trkpt lat="43.31108" lon="-3.14883">
        <ele>441.8</ele>
        <time>2021-10-28 10:07:49</time>
      </trkpt>
      <trkpt lat="43.31106" lon="-3.14877">
        <ele>442</ele>
        <time>2021-10-28 10:07:50</time>
      </trkpt>
      <trkpt lat="43.31106" lon="-3.14877">
        <ele>442.2</ele>
        <time>2021-10-28 10:07:51</time>
      </trkpt>
      <trkpt lat="43.31106" lon="-3.14876">
        <ele>442.6</ele>
        <time>2021-10-28 10:07:52</time>
      </trkpt>
      <trkpt lat="43.31098" lon="-3.14874">
        <ele>442.8</ele>
        <time>2021-10-28 10:07:53</time>
      </trkpt>
      <trkpt lat="43.31098" lon="-3.14874">
        <ele>442.8</ele>
        <time>2021-10-28 10:07:54</time>
      </trkpt>
      <trkpt lat="43.3109" lon="-3.14874">
        <ele>443</ele>
        <time>2021-10-28 10:07:55</time>
      </trkpt>
      <trkpt lat="43.3109" lon="-3.14874">
        <ele>443</ele>
        <time>2021-10-28 10:07:56</time>
      </trkpt>
      <trkpt lat="43.31087" lon="-3.14873">
        <ele>443.2</ele>
        <time>2021-10-28 10:07:57</time>
      </trkpt>
      <trkpt lat="43.31084" lon="-3.14874">
        <ele>443.2</ele>
        <time>2021-10-28 10:07:58</time>
      </trkpt>
      <trkpt lat="43.3108" lon="-3.1487">
        <ele>443.2</ele>
        <time>2021-10-28 10:07:59</time>
      </trkpt>
      <trkpt lat="43.3108" lon="-3.1487">
        <ele>443.4</ele>
        <time>2021-10-28 10:08:00</time>
      </trkpt>
      <trkpt lat="43.3108" lon="-3.1487">
        <ele>443.4</ele>
        <time>2021-10-28 10:08:01</time>
      </trkpt>
      <trkpt lat="43.31078" lon="-3.1487">
        <ele>443.6</ele>
        <time>2021-10-28 10:08:02</time>
      </trkpt>
      <trkpt lat="43.31078" lon="-3.1487">
        <ele>443.8</ele>
        <time>2021-10-28 10:08:03</time>
      </trkpt>
      <trkpt lat="43.31076" lon="-3.14869">
        <ele>443.8</ele>
        <time>2021-10-28 10:08:04</time>
      </trkpt>
      <trkpt lat="43.31074" lon="-3.14868">
        <ele>443.8</ele>
        <time>2021-10-28 10:08:05</time>
      </trkpt>
      <trkpt lat="43.31069" lon="-3.14866">
        <ele>444</ele>
        <time>2021-10-28 10:08:06</time>
      </trkpt>
      <trkpt lat="43.31069" lon="-3.14866">
        <ele>444</ele>
        <time>2021-10-28 10:08:07</time>
      </trkpt>
      <trkpt lat="43.31069" lon="-3.14866">
        <ele>444</ele>
        <time>2021-10-28 10:08:08</time>
      </trkpt>
      <trkpt lat="43.31068" lon="-3.14866">
        <ele>444.2</ele>
        <time>2021-10-28 10:08:09</time>
      </trkpt>
      <trkpt lat="43.31063" lon="-3.1486">
        <ele>444.4</ele>
        <time>2021-10-28 10:08:10</time>
      </trkpt>
      <trkpt lat="43.31063" lon="-3.1486">
        <ele>444.8</ele>
        <time>2021-10-28 10:08:11</time>
      </trkpt>
      <trkpt lat="43.31061" lon="-3.14859">
        <ele>445.2</ele>
        <time>2021-10-28 10:08:12</time>
      </trkpt>
      <trkpt lat="43.31059" lon="-3.14859">
        <ele>445.6</ele>
        <time>2021-10-28 10:08:13</time>
      </trkpt>
      <trkpt lat="43.31055" lon="-3.14859">
        <ele>445.8</ele>
        <time>2021-10-28 10:08:14</time>
      </trkpt>
      <trkpt lat="43.31055" lon="-3.14859">
        <ele>446</ele>
        <time>2021-10-28 10:08:15</time>
      </trkpt>
      <trkpt lat="43.31053" lon="-3.14855">
        <ele>446</ele>
        <time>2021-10-28 10:08:16</time>
      </trkpt>
      <trkpt lat="43.31053" lon="-3.14855">
        <ele>446</ele>
        <time>2021-10-28 10:08:17</time>
      </trkpt>
      <trkpt lat="43.31051" lon="-3.14855">
        <ele>446.2</ele>
        <time>2021-10-28 10:08:18</time>
      </trkpt>
      <trkpt lat="43.3105" lon="-3.14852">
        <ele>446.2</ele>
        <time>2021-10-28 10:08:19</time>
      </trkpt>
      <trkpt lat="43.3105" lon="-3.14852">
        <ele>446.4</ele>
        <time>2021-10-28 10:08:20</time>
      </trkpt>
      <trkpt lat="43.31046" lon="-3.14852">
        <ele>446.6</ele>
        <time>2021-10-28 10:08:21</time>
      </trkpt>
      <trkpt lat="43.31046" lon="-3.14852">
        <ele>446.6</ele>
        <time>2021-10-28 10:08:22</time>
      </trkpt>
      <trkpt lat="43.31044" lon="-3.14852">
        <ele>446.8</ele>
        <time>2021-10-28 10:08:23</time>
      </trkpt>
      <trkpt lat="43.3104" lon="-3.14852">
        <ele>447.2</ele>
        <time>2021-10-28 10:08:24</time>
      </trkpt>
      <trkpt lat="43.3104" lon="-3.14852">
        <ele>447.4</ele>
        <time>2021-10-28 10:08:25</time>
      </trkpt>
      <trkpt lat="43.31038" lon="-3.14851">
        <ele>447.6</ele>
        <time>2021-10-28 10:08:26</time>
      </trkpt>
      <trkpt lat="43.31036" lon="-3.14851">
        <ele>447.6</ele>
        <time>2021-10-28 10:08:27</time>
      </trkpt>
      <trkpt lat="43.31033" lon="-3.1485">
        <ele>447.8</ele>
        <time>2021-10-28 10:08:28</time>
      </trkpt>
      <trkpt lat="43.31033" lon="-3.1485">
        <ele>448</ele>
        <time>2021-10-28 10:08:29</time>
      </trkpt>
      <trkpt lat="43.31031" lon="-3.14852">
        <ele>448.2</ele>
        <time>2021-10-28 10:08:30</time>
      </trkpt>
      <trkpt lat="43.31028" lon="-3.14851">
        <ele>448.4</ele>
        <time>2021-10-28 10:08:31</time>
      </trkpt>
      <trkpt lat="43.31026" lon="-3.14849">
        <ele>448.4</ele>
        <time>2021-10-28 10:08:32</time>
      </trkpt>
      <trkpt lat="43.31026" lon="-3.14849">
        <ele>448.6</ele>
        <time>2021-10-28 10:08:33</time>
      </trkpt>
      <trkpt lat="43.31026" lon="-3.14849">
        <ele>448.6</ele>
        <time>2021-10-28 10:08:34</time>
      </trkpt>
      <trkpt lat="43.31023" lon="-3.14851">
        <ele>448.6</ele>
        <time>2021-10-28 10:08:35</time>
      </trkpt>
      <trkpt lat="43.31023" lon="-3.14851">
        <ele>448.6</ele>
        <time>2021-10-28 10:08:36</time>
      </trkpt>
      <trkpt lat="43.31021" lon="-3.14847">
        <ele>448.8</ele>
        <time>2021-10-28 10:08:37</time>
      </trkpt>
      <trkpt lat="43.31019" lon="-3.14844">
        <ele>449</ele>
        <time>2021-10-28 10:08:38</time>
      </trkpt>
      <trkpt lat="43.31016" lon="-3.14841">
        <ele>449.4</ele>
        <time>2021-10-28 10:08:39</time>
      </trkpt>
      <trkpt lat="43.31016" lon="-3.14841">
        <ele>449.6</ele>
        <time>2021-10-28 10:08:40</time>
      </trkpt>
      <trkpt lat="43.31016" lon="-3.14841">
        <ele>450</ele>
        <time>2021-10-28 10:08:41</time>
      </trkpt>
      <trkpt lat="43.31014" lon="-3.1484">
        <ele>450.6</ele>
        <time>2021-10-28 10:08:42</time>
      </trkpt>
      <trkpt lat="43.31011" lon="-3.1484">
        <ele>451</ele>
        <time>2021-10-28 10:08:43</time>
      </trkpt>
      <trkpt lat="43.31011" lon="-3.1484">
        <ele>451.4</ele>
        <time>2021-10-28 10:08:44</time>
      </trkpt>
      <trkpt lat="43.31008" lon="-3.14843">
        <ele>451.6</ele>
        <time>2021-10-28 10:08:45</time>
      </trkpt>
      <trkpt lat="43.31008" lon="-3.14843">
        <ele>451.6</ele>
        <time>2021-10-28 10:08:46</time>
      </trkpt>
      <trkpt lat="43.31005" lon="-3.14843">
        <ele>451.8</ele>
        <time>2021-10-28 10:08:47</time>
      </trkpt>
      <trkpt lat="43.31003" lon="-3.14841">
        <ele>451.8</ele>
        <time>2021-10-28 10:08:48</time>
      </trkpt>
      <trkpt lat="43.31003" lon="-3.14841">
        <ele>452</ele>
        <time>2021-10-28 10:08:49</time>
      </trkpt>
      <trkpt lat="43.31001" lon="-3.14839">
        <ele>452.2</ele>
        <time>2021-10-28 10:08:50</time>
      </trkpt>
      <trkpt lat="43.31" lon="-3.14839">
        <ele>452.4</ele>
        <time>2021-10-28 10:08:51</time>
      </trkpt>
      <trkpt lat="43.30998" lon="-3.14841">
        <ele>452.6</ele>
        <time>2021-10-28 10:08:52</time>
      </trkpt>
      <trkpt lat="43.30998" lon="-3.14841">
        <ele>452.6</ele>
        <time>2021-10-28 10:08:53</time>
      </trkpt>
      <trkpt lat="43.30995" lon="-3.14839">
        <ele>452.8</ele>
        <time>2021-10-28 10:08:54</time>
      </trkpt>
      <trkpt lat="43.30995" lon="-3.14839">
        <ele>453</ele>
        <time>2021-10-28 10:08:55</time>
      </trkpt>
      <trkpt lat="43.30993" lon="-3.14837">
        <ele>453</ele>
        <time>2021-10-28 10:08:56</time>
      </trkpt>
      <trkpt lat="43.30993" lon="-3.14837">
        <ele>453.2</ele>
        <time>2021-10-28 10:08:57</time>
      </trkpt>
      <trkpt lat="43.30989" lon="-3.14835">
        <ele>453.2</ele>
        <time>2021-10-28 10:08:58</time>
      </trkpt>
      <trkpt lat="43.30989" lon="-3.14835">
        <ele>453.4</ele>
        <time>2021-10-28 10:08:59</time>
      </trkpt>
      <trkpt lat="43.30986" lon="-3.14835">
        <ele>453.4</ele>
        <time>2021-10-28 10:09:00</time>
      </trkpt>
      <trkpt lat="43.30985" lon="-3.14834">
        <ele>453.8</ele>
        <time>2021-10-28 10:09:01</time>
      </trkpt>
      <trkpt lat="43.30985" lon="-3.14834">
        <ele>454</ele>
        <time>2021-10-28 10:09:02</time>
      </trkpt>
      <trkpt lat="43.30984" lon="-3.14832">
        <ele>454.6</ele>
        <time>2021-10-28 10:09:03</time>
      </trkpt>
      <trkpt lat="43.30981" lon="-3.14831">
        <ele>454.8</ele>
        <time>2021-10-28 10:09:04</time>
      </trkpt>
      <trkpt lat="43.3098" lon="-3.1483">
        <ele>455</ele>
        <time>2021-10-28 10:09:05</time>
      </trkpt>
      <trkpt lat="43.3098" lon="-3.1483">
        <ele>455.2</ele>
        <time>2021-10-28 10:09:06</time>
      </trkpt>
      <trkpt lat="43.30975" lon="-3.14832">
        <ele>455.6</ele>
        <time>2021-10-28 10:09:07</time>
      </trkpt>
      <trkpt lat="43.30975" lon="-3.14832">
        <ele>456</ele>
        <time>2021-10-28 10:09:08</time>
      </trkpt>
      <trkpt lat="43.30974" lon="-3.1483">
        <ele>456.2</ele>
        <time>2021-10-28 10:09:09</time>
      </trkpt>
      <trkpt lat="43.30971" lon="-3.14826">
        <ele>456.4</ele>
        <time>2021-10-28 10:09:10</time>
      </trkpt>
      <trkpt lat="43.3097" lon="-3.14824">
        <ele>456.6</ele>
        <time>2021-10-28 10:09:11</time>
      </trkpt>
      <trkpt lat="43.30968" lon="-3.14823">
        <ele>457</ele>
        <time>2021-10-28 10:09:12</time>
      </trkpt>
      <trkpt lat="43.30968" lon="-3.14823">
        <ele>457.4</ele>
        <time>2021-10-28 10:09:13</time>
      </trkpt>
      <trkpt lat="43.30968" lon="-3.14823">
        <ele>457.6</ele>
        <time>2021-10-28 10:09:14</time>
      </trkpt>
      <trkpt lat="43.30966" lon="-3.1482">
        <ele>457.6</ele>
        <time>2021-10-28 10:09:15</time>
      </trkpt>
      <trkpt lat="43.30966" lon="-3.1482">
        <ele>457.8</ele>
        <time>2021-10-28 10:09:16</time>
      </trkpt>
      <trkpt lat="43.30966" lon="-3.1482">
        <ele>457.8</ele>
        <time>2021-10-28 10:09:17</time>
      </trkpt>
      <trkpt lat="43.30963" lon="-3.14818">
        <ele>458</ele>
        <time>2021-10-28 10:09:18</time>
      </trkpt>
      <trkpt lat="43.30963" lon="-3.14818">
        <ele>458.2</ele>
        <time>2021-10-28 10:09:19</time>
      </trkpt>
      <trkpt lat="43.30961" lon="-3.14816">
        <ele>458.4</ele>
        <time>2021-10-28 10:09:20</time>
      </trkpt>
      <trkpt lat="43.3096" lon="-3.14815">
        <ele>458.4</ele>
        <time>2021-10-28 10:09:21</time>
      </trkpt>
      <trkpt lat="43.3096" lon="-3.14815">
        <ele>458.6</ele>
        <time>2021-10-28 10:09:22</time>
      </trkpt>
      <trkpt lat="43.30957" lon="-3.14814">
        <ele>458.8</ele>
        <time>2021-10-28 10:09:23</time>
      </trkpt>
      <trkpt lat="43.30956" lon="-3.14814">
        <ele>458.8</ele>
        <time>2021-10-28 10:09:24</time>
      </trkpt>
      <trkpt lat="43.30956" lon="-3.14814">
        <ele>459</ele>
        <time>2021-10-28 10:09:25</time>
      </trkpt>
      <trkpt lat="43.30953" lon="-3.14813">
        <ele>459.2</ele>
        <time>2021-10-28 10:09:26</time>
      </trkpt>
      <trkpt lat="43.30952" lon="-3.14812">
        <ele>459.2</ele>
        <time>2021-10-28 10:09:27</time>
      </trkpt>
      <trkpt lat="43.3095" lon="-3.14811">
        <ele>459.4</ele>
        <time>2021-10-28 10:09:28</time>
      </trkpt>
      <trkpt lat="43.3095" lon="-3.14811">
        <ele>459.6</ele>
        <time>2021-10-28 10:09:29</time>
      </trkpt>
      <trkpt lat="43.30947" lon="-3.14809">
        <ele>459.8</ele>
        <time>2021-10-28 10:09:30</time>
      </trkpt>
      <trkpt lat="43.30947" lon="-3.14809">
        <ele>460</ele>
        <time>2021-10-28 10:09:31</time>
      </trkpt>
      <trkpt lat="43.30944" lon="-3.14806">
        <ele>460.2</ele>
        <time>2021-10-28 10:09:32</time>
      </trkpt>
      <trkpt lat="43.30944" lon="-3.14806">
        <ele>460.4</ele>
        <time>2021-10-28 10:09:33</time>
      </trkpt>
      <trkpt lat="43.30943" lon="-3.14811">
        <ele>460.6</ele>
        <time>2021-10-28 10:09:34</time>
      </trkpt>
      <trkpt lat="43.30943" lon="-3.14811">
        <ele>460.8</ele>
        <time>2021-10-28 10:09:35</time>
      </trkpt>
      <trkpt lat="43.30941" lon="-3.14809">
        <ele>461</ele>
        <time>2021-10-28 10:09:36</time>
      </trkpt>
      <trkpt lat="43.30936" lon="-3.14811">
        <ele>461</ele>
        <time>2021-10-28 10:09:37</time>
      </trkpt>
      <trkpt lat="43.30932" lon="-3.14809">
        <ele>461.2</ele>
        <time>2021-10-28 10:09:38</time>
      </trkpt>
      <trkpt lat="43.30932" lon="-3.14809">
        <ele>461.4</ele>
        <time>2021-10-28 10:09:39</time>
      </trkpt>
      <trkpt lat="43.30932" lon="-3.14809">
        <ele>461.6</ele>
        <time>2021-10-28 10:09:40</time>
      </trkpt>
      <trkpt lat="43.30931" lon="-3.14808">
        <ele>461.6</ele>
        <time>2021-10-28 10:09:41</time>
      </trkpt>
      <trkpt lat="43.30931" lon="-3.14809">
        <ele>461.8</ele>
        <time>2021-10-28 10:09:42</time>
      </trkpt>
      <trkpt lat="43.30931" lon="-3.14809">
        <ele>461.8</ele>
        <time>2021-10-28 10:09:43</time>
      </trkpt>
      <trkpt lat="43.30929" lon="-3.14808">
        <ele>462</ele>
        <time>2021-10-28 10:09:44</time>
      </trkpt>
      <trkpt lat="43.30926" lon="-3.14806">
        <ele>462</ele>
        <time>2021-10-28 10:09:45</time>
      </trkpt>
      <trkpt lat="43.30926" lon="-3.14806">
        <ele>462</ele>
        <time>2021-10-28 10:09:46</time>
      </trkpt>
      <trkpt lat="43.30926" lon="-3.14806">
        <ele>462.2</ele>
        <time>2021-10-28 10:09:47</time>
      </trkpt>
      <trkpt lat="43.30923" lon="-3.14805">
        <ele>462.2</ele>
        <time>2021-10-28 10:09:48</time>
      </trkpt>
      <trkpt lat="43.30923" lon="-3.14805">
        <ele>462.4</ele>
        <time>2021-10-28 10:09:49</time>
      </trkpt>
      <trkpt lat="43.30921" lon="-3.14804">
        <ele>462.4</ele>
        <time>2021-10-28 10:09:50</time>
      </trkpt>
      <trkpt lat="43.30919" lon="-3.14803">
        <ele>462.8</ele>
        <time>2021-10-28 10:09:51</time>
      </trkpt>
      <trkpt lat="43.30919" lon="-3.14803">
        <ele>463</ele>
        <time>2021-10-28 10:09:52</time>
      </trkpt>
      <trkpt lat="43.30916" lon="-3.14802">
        <ele>463.2</ele>
        <time>2021-10-28 10:09:53</time>
      </trkpt>
      <trkpt lat="43.30916" lon="-3.14802">
        <ele>463.6</ele>
        <time>2021-10-28 10:09:54</time>
      </trkpt>
      <trkpt lat="43.30913" lon="-3.148">
        <ele>463.8</ele>
        <time>2021-10-28 10:09:55</time>
      </trkpt>
      <trkpt lat="43.30913" lon="-3.148">
        <ele>464.2</ele>
        <time>2021-10-28 10:09:56</time>
      </trkpt>
      <trkpt lat="43.3091" lon="-3.14798">
        <ele>464.4</ele>
        <time>2021-10-28 10:09:57</time>
      </trkpt>
      <trkpt lat="43.3091" lon="-3.14798">
        <ele>464.6</ele>
        <time>2021-10-28 10:09:58</time>
      </trkpt>
      <trkpt lat="43.3091" lon="-3.14798">
        <ele>464.8</ele>
        <time>2021-10-28 10:09:59</time>
      </trkpt>
      <trkpt lat="43.30909" lon="-3.14798">
        <ele>465</ele>
        <time>2021-10-28 10:10:00</time>
      </trkpt>
      <trkpt lat="43.30908" lon="-3.14797">
        <ele>465.2</ele>
        <time>2021-10-28 10:10:01</time>
      </trkpt>
      <trkpt lat="43.30906" lon="-3.14795">
        <ele>465.4</ele>
        <time>2021-10-28 10:10:02</time>
      </trkpt>
      <trkpt lat="43.30906" lon="-3.14795">
        <ele>465.4</ele>
        <time>2021-10-28 10:10:03</time>
      </trkpt>
      <trkpt lat="43.30903" lon="-3.14792">
        <ele>465.6</ele>
        <time>2021-10-28 10:10:04</time>
      </trkpt>
      <trkpt lat="43.30903" lon="-3.14792">
        <ele>465.6</ele>
        <time>2021-10-28 10:10:05</time>
      </trkpt>
      <trkpt lat="43.30903" lon="-3.14792">
        <ele>465.8</ele>
        <time>2021-10-28 10:10:06</time>
      </trkpt>
      <trkpt lat="43.30901" lon="-3.14789">
        <ele>466</ele>
        <time>2021-10-28 10:10:07</time>
      </trkpt>
      <trkpt lat="43.30901" lon="-3.14789">
        <ele>466</ele>
        <time>2021-10-28 10:10:08</time>
      </trkpt>
      <trkpt lat="43.30901" lon="-3.14789">
        <ele>466.2</ele>
        <time>2021-10-28 10:10:09</time>
      </trkpt>
      <trkpt lat="43.30899" lon="-3.14786">
        <ele>466.4</ele>
        <time>2021-10-28 10:10:10</time>
      </trkpt>
      <trkpt lat="43.30899" lon="-3.14784">
        <ele>466.4</ele>
        <time>2021-10-28 10:10:11</time>
      </trkpt>
      <trkpt lat="43.30898" lon="-3.14781">
        <ele>466.6</ele>
        <time>2021-10-28 10:10:12</time>
      </trkpt>
      <trkpt lat="43.30898" lon="-3.14781">
        <ele>466.8</ele>
        <time>2021-10-28 10:10:13</time>
      </trkpt>
      <trkpt lat="43.30898" lon="-3.1478">
        <ele>467</ele>
        <time>2021-10-28 10:10:14</time>
      </trkpt>
      <trkpt lat="43.30898" lon="-3.1478">
        <ele>467</ele>
        <time>2021-10-28 10:10:15</time>
      </trkpt>
      <trkpt lat="43.30896" lon="-3.14772">
        <ele>467.2</ele>
        <time>2021-10-28 10:10:16</time>
      </trkpt>
      <trkpt lat="43.30896" lon="-3.14772">
        <ele>467.4</ele>
        <time>2021-10-28 10:10:17</time>
      </trkpt>
      <trkpt lat="43.30896" lon="-3.14772">
        <ele>467.6</ele>
        <time>2021-10-28 10:10:18</time>
      </trkpt>
      <trkpt lat="43.30895" lon="-3.14767">
        <ele>467.8</ele>
        <time>2021-10-28 10:10:19</time>
      </trkpt>
      <trkpt lat="43.30895" lon="-3.14767">
        <ele>468</ele>
        <time>2021-10-28 10:10:20</time>
      </trkpt>
      <trkpt lat="43.30894" lon="-3.14765">
        <ele>468.2</ele>
        <time>2021-10-28 10:10:21</time>
      </trkpt>
      <trkpt lat="43.30894" lon="-3.14761">
        <ele>468.4</ele>
        <time>2021-10-28 10:10:22</time>
      </trkpt>
      <trkpt lat="43.30894" lon="-3.14761">
        <ele>468.4</ele>
        <time>2021-10-28 10:10:23</time>
      </trkpt>
      <trkpt lat="43.30892" lon="-3.14757">
        <ele>468.6</ele>
        <time>2021-10-28 10:10:24</time>
      </trkpt>
      <trkpt lat="43.30892" lon="-3.14757">
        <ele>468.6</ele>
        <time>2021-10-28 10:10:25</time>
      </trkpt>
      <trkpt lat="43.30891" lon="-3.14754">
        <ele>468.8</ele>
        <time>2021-10-28 10:10:26</time>
      </trkpt>
      <trkpt lat="43.30891" lon="-3.14754">
        <ele>469</ele>
        <time>2021-10-28 10:10:27</time>
      </trkpt>
      <trkpt lat="43.3089" lon="-3.14751">
        <ele>469.2</ele>
        <time>2021-10-28 10:10:28</time>
      </trkpt>
      <trkpt lat="43.3089" lon="-3.14751">
        <ele>469.4</ele>
        <time>2021-10-28 10:10:29</time>
      </trkpt>
      <trkpt lat="43.3089" lon="-3.1475">
        <ele>469.6</ele>
        <time>2021-10-28 10:10:30</time>
      </trkpt>
      <trkpt lat="43.30889" lon="-3.14747">
        <ele>469.8</ele>
        <time>2021-10-28 10:10:31</time>
      </trkpt>
      <trkpt lat="43.30889" lon="-3.14747">
        <ele>470</ele>
        <time>2021-10-28 10:10:32</time>
      </trkpt>
      <trkpt lat="43.30889" lon="-3.14747">
        <ele>470.2</ele>
        <time>2021-10-28 10:10:33</time>
      </trkpt>
      <trkpt lat="43.30886" lon="-3.14742">
        <ele>470.4</ele>
        <time>2021-10-28 10:10:34</time>
      </trkpt>
      <trkpt lat="43.30884" lon="-3.14737">
        <ele>470.4</ele>
        <time>2021-10-28 10:10:35</time>
      </trkpt>
      <trkpt lat="43.30884" lon="-3.14737">
        <ele>470.6</ele>
        <time>2021-10-28 10:10:36</time>
      </trkpt>
      <trkpt lat="43.30884" lon="-3.14737">
        <ele>470.6</ele>
        <time>2021-10-28 10:10:37</time>
      </trkpt>
      <trkpt lat="43.30883" lon="-3.14736">
        <ele>470.6</ele>
        <time>2021-10-28 10:10:38</time>
      </trkpt>
      <trkpt lat="43.3088" lon="-3.14732">
        <ele>470.6</ele>
        <time>2021-10-28 10:10:39</time>
      </trkpt>
      <trkpt lat="43.3088" lon="-3.14732">
        <ele>470.6</ele>
        <time>2021-10-28 10:10:40</time>
      </trkpt>
      <trkpt lat="43.30876" lon="-3.14728">
        <ele>470.8</ele>
        <time>2021-10-28 10:10:41</time>
      </trkpt>
      <trkpt lat="43.30876" lon="-3.14728">
        <ele>471</ele>
        <time>2021-10-28 10:10:42</time>
      </trkpt>
      <trkpt lat="43.30875" lon="-3.14723">
        <ele>471</ele>
        <time>2021-10-28 10:10:43</time>
      </trkpt>
      <trkpt lat="43.30875" lon="-3.14723">
        <ele>471.2</ele>
        <time>2021-10-28 10:10:44</time>
      </trkpt>
      <trkpt lat="43.30874" lon="-3.14721">
        <ele>471.4</ele>
        <time>2021-10-28 10:10:45</time>
      </trkpt>
      <trkpt lat="43.30874" lon="-3.14721">
        <ele>471.6</ele>
        <time>2021-10-28 10:10:46</time>
      </trkpt>
      <trkpt lat="43.30874" lon="-3.14721">
        <ele>471.8</ele>
        <time>2021-10-28 10:10:47</time>
      </trkpt>
      <trkpt lat="43.30871" lon="-3.14717">
        <ele>472</ele>
        <time>2021-10-28 10:10:48</time>
      </trkpt>
      <trkpt lat="43.30869" lon="-3.14714">
        <ele>472.2</ele>
        <time>2021-10-28 10:10:49</time>
      </trkpt>
      <trkpt lat="43.30868" lon="-3.14713">
        <ele>472.4</ele>
        <time>2021-10-28 10:10:50</time>
      </trkpt>
      <trkpt lat="43.30868" lon="-3.14713">
        <ele>472.8</ele>
        <time>2021-10-28 10:10:51</time>
      </trkpt>
      <trkpt lat="43.30866" lon="-3.14713">
        <ele>473.2</ele>
        <time>2021-10-28 10:10:52</time>
      </trkpt>
      <trkpt lat="43.30866" lon="-3.14713">
        <ele>473.4</ele>
        <time>2021-10-28 10:10:53</time>
      </trkpt>
      <trkpt lat="43.30863" lon="-3.14711">
        <ele>473.6</ele>
        <time>2021-10-28 10:10:54</time>
      </trkpt>
      <trkpt lat="43.30863" lon="-3.14711">
        <ele>473.8</ele>
        <time>2021-10-28 10:10:55</time>
      </trkpt>
      <trkpt lat="43.30863" lon="-3.14711">
        <ele>474</ele>
        <time>2021-10-28 10:10:56</time>
      </trkpt>
      <trkpt lat="43.30861" lon="-3.14711">
        <ele>474</ele>
        <time>2021-10-28 10:10:57</time>
      </trkpt>
      <trkpt lat="43.30861" lon="-3.14711">
        <ele>474.2</ele>
        <time>2021-10-28 10:10:58</time>
      </trkpt>
      <trkpt lat="43.30863" lon="-3.1471">
        <ele>474.4</ele>
        <time>2021-10-28 10:10:59</time>
      </trkpt>
      <trkpt lat="43.30862" lon="-3.1471">
        <ele>474.6</ele>
        <time>2021-10-28 10:11:00</time>
      </trkpt>
      <trkpt lat="43.30863" lon="-3.14711">
        <ele>474.6</ele>
        <time>2021-10-28 10:11:01</time>
      </trkpt>
      <trkpt lat="43.30856" lon="-3.14737">
        <ele>476</ele>
        <time>2021-10-28 10:11:02</time>
      </trkpt>
      <trkpt lat="43.30857" lon="-3.14742">
        <ele>476.2</ele>
        <time>2021-10-28 10:11:03</time>
      </trkpt>
      <trkpt lat="43.30858" lon="-3.14742">
        <ele>476.4</ele>
        <time>2021-10-28 10:11:04</time>
      </trkpt>
      <trkpt lat="43.30858" lon="-3.14742">
        <ele>476.6</ele>
        <time>2021-10-28 10:11:05</time>
      </trkpt>
      <trkpt lat="43.3086" lon="-3.14746">
        <ele>476.8</ele>
        <time>2021-10-28 10:11:06</time>
      </trkpt>
      <trkpt lat="43.3086" lon="-3.14747">
        <ele>477</ele>
        <time>2021-10-28 10:11:07</time>
      </trkpt>
      <trkpt lat="43.3086" lon="-3.14747">
        <ele>477.4</ele>
        <time>2021-10-28 10:11:08</time>
      </trkpt>
      <trkpt lat="43.30861" lon="-3.14749">
        <ele>477.6</ele>
        <time>2021-10-28 10:11:09</time>
      </trkpt>
      <trkpt lat="43.30863" lon="-3.1475">
        <ele>477.6</ele>
        <time>2021-10-28 10:11:10</time>
      </trkpt>
      <trkpt lat="43.30863" lon="-3.14754">
        <ele>477.8</ele>
        <time>2021-10-28 10:11:11</time>
      </trkpt>
      <trkpt lat="43.30863" lon="-3.14754">
        <ele>478</ele>
        <time>2021-10-28 10:11:12</time>
      </trkpt>
      <trkpt lat="43.30864" lon="-3.14758">
        <ele>478.2</ele>
        <time>2021-10-28 10:11:13</time>
      </trkpt>
      <trkpt lat="43.30864" lon="-3.14762">
        <ele>478.4</ele>
        <time>2021-10-28 10:11:14</time>
      </trkpt>
      <trkpt lat="43.30864" lon="-3.14762">
        <ele>478.6</ele>
        <time>2021-10-28 10:11:15</time>
      </trkpt>
      <trkpt lat="43.30864" lon="-3.14765">
        <ele>478.8</ele>
        <time>2021-10-28 10:11:16</time>
      </trkpt>
      <trkpt lat="43.30863" lon="-3.14767">
        <ele>479</ele>
        <time>2021-10-28 10:11:17</time>
      </trkpt>
      <trkpt lat="43.30862" lon="-3.14773">
        <ele>479.2</ele>
        <time>2021-10-28 10:11:18</time>
      </trkpt>
      <trkpt lat="43.30862" lon="-3.14773">
        <ele>479.6</ele>
        <time>2021-10-28 10:11:19</time>
      </trkpt>
      <trkpt lat="43.30862" lon="-3.14773">
        <ele>479.8</ele>
        <time>2021-10-28 10:11:20</time>
      </trkpt>
      <trkpt lat="43.30863" lon="-3.14775">
        <ele>479.8</ele>
        <time>2021-10-28 10:11:21</time>
      </trkpt>
      <trkpt lat="43.30863" lon="-3.14777">
        <ele>479.8</ele>
        <time>2021-10-28 10:11:22</time>
      </trkpt>
      <trkpt lat="43.30863" lon="-3.1478">
        <ele>480</ele>
        <time>2021-10-28 10:13:17</time>
      </trkpt>
      <trkpt lat="43.30863" lon="-3.1478">
        <ele>480</ele>
        <time>2021-10-28 10:13:18</time>
      </trkpt>
      <trkpt lat="43.30863" lon="-3.1478">
        <ele>480.2</ele>
        <time>2021-10-28 10:13:19</time>
      </trkpt>
      <trkpt lat="43.30866" lon="-3.14784">
        <ele>480.4</ele>
        <time>2021-10-28 10:13:20</time>
      </trkpt>
      <trkpt lat="43.30865" lon="-3.14786">
        <ele>480.4</ele>
        <time>2021-10-28 10:13:21</time>
      </trkpt>
      <trkpt lat="43.30865" lon="-3.14786">
        <ele>480.6</ele>
        <time>2021-10-28 10:13:22</time>
      </trkpt>
      <trkpt lat="43.30865" lon="-3.14787">
        <ele>480.6</ele>
        <time>2021-10-28 10:13:23</time>
      </trkpt>
      <trkpt lat="43.30865" lon="-3.1479">
        <ele>480.6</ele>
        <time>2021-10-28 10:13:24</time>
      </trkpt>
      <trkpt lat="43.30866" lon="-3.14797">
        <ele>480.8</ele>
        <time>2021-10-28 10:13:25</time>
      </trkpt>
      <trkpt lat="43.30866" lon="-3.14797">
        <ele>480.8</ele>
        <time>2021-10-28 10:13:26</time>
      </trkpt>
      <trkpt lat="43.30865" lon="-3.14799">
        <ele>481</ele>
        <time>2021-10-28 10:13:27</time>
      </trkpt>
      <trkpt lat="43.30865" lon="-3.14799">
        <ele>481.2</ele>
        <time>2021-10-28 10:13:28</time>
      </trkpt>
      <trkpt lat="43.30865" lon="-3.14803">
        <ele>481.4</ele>
        <time>2021-10-28 10:13:29</time>
      </trkpt>
      <trkpt lat="43.30865" lon="-3.14803">
        <ele>481.4</ele>
        <time>2021-10-28 10:13:30</time>
      </trkpt>
      <trkpt lat="43.30869" lon="-3.14805">
        <ele>481.6</ele>
        <time>2021-10-28 10:13:31</time>
      </trkpt>
      <trkpt lat="43.30869" lon="-3.14805">
        <ele>481.8</ele>
        <time>2021-10-28 10:13:32</time>
      </trkpt>
      <trkpt lat="43.30869" lon="-3.14805">
        <ele>482</ele>
        <time>2021-10-28 10:13:33</time>
      </trkpt>
      <trkpt lat="43.3087" lon="-3.14809">
        <ele>482</ele>
        <time>2021-10-28 10:13:34</time>
      </trkpt>
      <trkpt lat="43.3087" lon="-3.14809">
        <ele>482.2</ele>
        <time>2021-10-28 10:13:35</time>
      </trkpt>
      <trkpt lat="43.3087" lon="-3.14811">
        <ele>482.4</ele>
        <time>2021-10-28 10:13:36</time>
      </trkpt>
      <trkpt lat="43.30871" lon="-3.14815">
        <ele>482.6</ele>
        <time>2021-10-28 10:13:37</time>
      </trkpt>
      <trkpt lat="43.30872" lon="-3.1482">
        <ele>482.8</ele>
        <time>2021-10-28 10:13:38</time>
      </trkpt>
      <trkpt lat="43.30874" lon="-3.14822">
        <ele>483</ele>
        <time>2021-10-28 10:13:39</time>
      </trkpt>
      <trkpt lat="43.30874" lon="-3.14822">
        <ele>483.2</ele>
        <time>2021-10-28 10:13:40</time>
      </trkpt>
      <trkpt lat="43.30873" lon="-3.14824">
        <ele>483.4</ele>
        <time>2021-10-28 10:13:41</time>
      </trkpt>
      <trkpt lat="43.30873" lon="-3.14828">
        <ele>483.4</ele>
        <time>2021-10-28 10:13:42</time>
      </trkpt>
      <trkpt lat="43.30873" lon="-3.14828">
        <ele>483.6</ele>
        <time>2021-10-28 10:13:43</time>
      </trkpt>
      <trkpt lat="43.30876" lon="-3.14833">
        <ele>483.8</ele>
        <time>2021-10-28 10:13:44</time>
      </trkpt>
      <trkpt lat="43.30876" lon="-3.14833">
        <ele>484</ele>
        <time>2021-10-28 10:13:45</time>
      </trkpt>
      <trkpt lat="43.30879" lon="-3.14835">
        <ele>484</ele>
        <time>2021-10-28 10:13:46</time>
      </trkpt>
      <trkpt lat="43.30879" lon="-3.14835">
        <ele>484.2</ele>
        <time>2021-10-28 10:13:47</time>
      </trkpt>
      <trkpt lat="43.30879" lon="-3.1484">
        <ele>484.2</ele>
        <time>2021-10-28 10:13:48</time>
      </trkpt>
      <trkpt lat="43.30879" lon="-3.1484">
        <ele>484.4</ele>
        <time>2021-10-28 10:13:49</time>
      </trkpt>
      <trkpt lat="43.30881" lon="-3.14845">
        <ele>484.6</ele>
        <time>2021-10-28 10:13:50</time>
      </trkpt>
      <trkpt lat="43.30881" lon="-3.14845">
        <ele>484.8</ele>
        <time>2021-10-28 10:13:51</time>
      </trkpt>
      <trkpt lat="43.30881" lon="-3.14845">
        <ele>485.2</ele>
        <time>2021-10-28 10:13:52</time>
      </trkpt>
      <trkpt lat="43.30886" lon="-3.14845">
        <ele>485.4</ele>
        <time>2021-10-28 10:13:53</time>
      </trkpt>
      <trkpt lat="43.30886" lon="-3.14845">
        <ele>485.6</ele>
        <time>2021-10-28 10:13:54</time>
      </trkpt>
      <trkpt lat="43.30886" lon="-3.14845">
        <ele>485.8</ele>
        <time>2021-10-28 10:13:55</time>
      </trkpt>
      <trkpt lat="43.3089" lon="-3.14847">
        <ele>486</ele>
        <time>2021-10-28 10:13:56</time>
      </trkpt>
      <trkpt lat="43.30893" lon="-3.14848">
        <ele>486.2</ele>
        <time>2021-10-28 10:13:57</time>
      </trkpt>
      <trkpt lat="43.30895" lon="-3.14847">
        <ele>486.4</ele>
        <time>2021-10-28 10:13:58</time>
      </trkpt>
      <trkpt lat="43.30895" lon="-3.14847">
        <ele>486.6</ele>
        <time>2021-10-28 10:13:59</time>
      </trkpt>
      <trkpt lat="43.30895" lon="-3.14848">
        <ele>486.8</ele>
        <time>2021-10-28 10:14:00</time>
      </trkpt>
      <trkpt lat="43.30895" lon="-3.1485">
        <ele>487</ele>
        <time>2021-10-28 10:14:01</time>
      </trkpt>
      <trkpt lat="43.30896" lon="-3.14852">
        <ele>487.2</ele>
        <time>2021-10-28 10:14:02</time>
      </trkpt>
      <trkpt lat="43.30897" lon="-3.14853">
        <ele>487.4</ele>
        <time>2021-10-28 10:14:03</time>
      </trkpt>
      <trkpt lat="43.30899" lon="-3.14857">
        <ele>487.4</ele>
        <time>2021-10-28 10:14:04</time>
      </trkpt>
      <trkpt lat="43.30901" lon="-3.14856">
        <ele>487.6</ele>
        <time>2021-10-28 10:14:05</time>
      </trkpt>
      <trkpt lat="43.30901" lon="-3.14856">
        <ele>487.8</ele>
        <time>2021-10-28 10:14:06</time>
      </trkpt>
      <trkpt lat="43.30905" lon="-3.14862">
        <ele>488</ele>
        <time>2021-10-28 10:14:07</time>
      </trkpt>
      <trkpt lat="43.30905" lon="-3.14862">
        <ele>488.2</ele>
        <time>2021-10-28 10:14:08</time>
      </trkpt>
      <trkpt lat="43.30906" lon="-3.14868">
        <ele>488.4</ele>
        <time>2021-10-28 10:14:09</time>
      </trkpt>
      <trkpt lat="43.30906" lon="-3.14868">
        <ele>488.6</ele>
        <time>2021-10-28 10:14:10</time>
      </trkpt>
      <trkpt lat="43.30906" lon="-3.14868">
        <ele>488.8</ele>
        <time>2021-10-28 10:14:11</time>
      </trkpt>
      <trkpt lat="43.30908" lon="-3.14873">
        <ele>488.8</ele>
        <time>2021-10-28 10:14:12</time>
      </trkpt>
      <trkpt lat="43.30908" lon="-3.14873">
        <ele>488.8</ele>
        <time>2021-10-28 10:14:13</time>
      </trkpt>
      <trkpt lat="43.3091" lon="-3.14878">
        <ele>489</ele>
        <time>2021-10-28 10:14:14</time>
      </trkpt>
      <trkpt lat="43.3091" lon="-3.14878">
        <ele>489.2</ele>
        <time>2021-10-28 10:14:15</time>
      </trkpt>
      <trkpt lat="43.30908" lon="-3.14882">
        <ele>489.2</ele>
        <time>2021-10-28 10:14:16</time>
      </trkpt>
      <trkpt lat="43.30908" lon="-3.14887">
        <ele>489.4</ele>
        <time>2021-10-28 10:14:17</time>
      </trkpt>
      <trkpt lat="43.30909" lon="-3.14888">
        <ele>489.6</ele>
        <time>2021-10-28 10:14:18</time>
      </trkpt>
      <trkpt lat="43.30909" lon="-3.14888">
        <ele>489.8</ele>
        <time>2021-10-28 10:14:19</time>
      </trkpt>
      <trkpt lat="43.3091" lon="-3.14889">
        <ele>489.8</ele>
        <time>2021-10-28 10:14:20</time>
      </trkpt>
      <trkpt lat="43.3091" lon="-3.14891">
        <ele>490</ele>
        <time>2021-10-28 10:14:21</time>
      </trkpt>
      <trkpt lat="43.30912" lon="-3.14892">
        <ele>490.2</ele>
        <time>2021-10-28 10:14:22</time>
      </trkpt>
      <trkpt lat="43.30914" lon="-3.14895">
        <ele>490.2</ele>
        <time>2021-10-28 10:14:23</time>
      </trkpt>
      <trkpt lat="43.30919" lon="-3.14895">
        <ele>490.4</ele>
        <time>2021-10-28 10:14:24</time>
      </trkpt>
      <trkpt lat="43.30919" lon="-3.14895">
        <ele>490.6</ele>
        <time>2021-10-28 10:14:25</time>
      </trkpt>
      <trkpt lat="43.3092" lon="-3.14896">
        <ele>490.6</ele>
        <time>2021-10-28 10:14:26</time>
      </trkpt>
      <trkpt lat="43.3092" lon="-3.14896">
        <ele>490.8</ele>
        <time>2021-10-28 10:14:27</time>
      </trkpt>
      <trkpt lat="43.30922" lon="-3.14902">
        <ele>490.8</ele>
        <time>2021-10-28 10:14:28</time>
      </trkpt>
      <trkpt lat="43.30922" lon="-3.14902">
        <ele>491</ele>
        <time>2021-10-28 10:14:29</time>
      </trkpt>
      <trkpt lat="43.30922" lon="-3.14902">
        <ele>491.2</ele>
        <time>2021-10-28 10:14:30</time>
      </trkpt>
      <trkpt lat="43.30922" lon="-3.14902">
        <ele>491.6</ele>
        <time>2021-10-28 10:14:31</time>
      </trkpt>
      <trkpt lat="43.30925" lon="-3.14906">
        <ele>491.6</ele>
        <time>2021-10-28 10:14:32</time>
      </trkpt>
      <trkpt lat="43.30925" lon="-3.14909">
        <ele>491.8</ele>
        <time>2021-10-28 10:14:33</time>
      </trkpt>
      <trkpt lat="43.30925" lon="-3.14911">
        <ele>492.2</ele>
        <time>2021-10-28 10:14:34</time>
      </trkpt>
      <trkpt lat="43.30925" lon="-3.14911">
        <ele>492.4</ele>
        <time>2021-10-28 10:14:35</time>
      </trkpt>
      <trkpt lat="43.30926" lon="-3.14911">
        <ele>492.6</ele>
        <time>2021-10-28 10:14:36</time>
      </trkpt>
      <trkpt lat="43.30926" lon="-3.14911">
        <ele>492.6</ele>
        <time>2021-10-28 10:14:37</time>
      </trkpt>
      <trkpt lat="43.30926" lon="-3.14911">
        <ele>492.8</ele>
        <time>2021-10-28 10:14:38</time>
      </trkpt>
      <trkpt lat="43.30929" lon="-3.1491">
        <ele>493</ele>
        <time>2021-10-28 10:14:39</time>
      </trkpt>
      <trkpt lat="43.30929" lon="-3.14916">
        <ele>493.4</ele>
        <time>2021-10-28 10:14:40</time>
      </trkpt>
      <trkpt lat="43.30929" lon="-3.14916">
        <ele>493.8</ele>
        <time>2021-10-28 10:14:41</time>
      </trkpt>
      <trkpt lat="43.30929" lon="-3.14916">
        <ele>494</ele>
        <time>2021-10-28 10:14:42</time>
      </trkpt>
      <trkpt lat="43.30929" lon="-3.1492">
        <ele>494.4</ele>
        <time>2021-10-28 10:14:43</time>
      </trkpt>
      <trkpt lat="43.30929" lon="-3.1492">
        <ele>494.4</ele>
        <time>2021-10-28 10:14:44</time>
      </trkpt>
      <trkpt lat="43.30936" lon="-3.14932">
        <ele>494.8</ele>
        <time>2021-10-28 10:14:45</time>
      </trkpt>
      <trkpt lat="43.30936" lon="-3.14932">
        <ele>494.8</ele>
        <time>2021-10-28 10:14:46</time>
      </trkpt>
      <trkpt lat="43.30939" lon="-3.14938">
        <ele>494.8</ele>
        <time>2021-10-28 10:14:47</time>
      </trkpt>
      <trkpt lat="43.30939" lon="-3.14938">
        <ele>494.8</ele>
        <time>2021-10-28 10:14:48</time>
      </trkpt>
      <trkpt lat="43.3094" lon="-3.14939">
        <ele>495</ele>
        <time>2021-10-28 10:14:49</time>
      </trkpt>
      <trkpt lat="43.3094" lon="-3.14939">
        <ele>495</ele>
        <time>2021-10-28 10:14:50</time>
      </trkpt>
      <trkpt lat="43.30943" lon="-3.14942">
        <ele>495.2</ele>
        <time>2021-10-28 10:14:51</time>
      </trkpt>
      <trkpt lat="43.30943" lon="-3.14942">
        <ele>495.2</ele>
        <time>2021-10-28 10:14:52</time>
      </trkpt>
      <trkpt lat="43.30944" lon="-3.14947">
        <ele>495.2</ele>
        <time>2021-10-28 10:14:53</time>
      </trkpt>
      <trkpt lat="43.30944" lon="-3.14947">
        <ele>495.2</ele>
        <time>2021-10-28 10:14:54</time>
      </trkpt>
      <trkpt lat="43.30947" lon="-3.14951">
        <ele>495.4</ele>
        <time>2021-10-28 10:14:55</time>
      </trkpt>
      <trkpt lat="43.30947" lon="-3.14951">
        <ele>495.4</ele>
        <time>2021-10-28 10:14:56</time>
      </trkpt>
      <trkpt lat="43.30947" lon="-3.14956">
        <ele>495.6</ele>
        <time>2021-10-28 10:14:57</time>
      </trkpt>
      <trkpt lat="43.30947" lon="-3.14956">
        <ele>496</ele>
        <time>2021-10-28 10:14:58</time>
      </trkpt>
      <trkpt lat="43.30949" lon="-3.14957">
        <ele>496.2</ele>
        <time>2021-10-28 10:14:59</time>
      </trkpt>
      <trkpt lat="43.30951" lon="-3.14957">
        <ele>496.6</ele>
        <time>2021-10-28 10:15:00</time>
      </trkpt>
      <trkpt lat="43.30951" lon="-3.14959">
        <ele>497</ele>
        <time>2021-10-28 10:15:01</time>
      </trkpt>
      <trkpt lat="43.30953" lon="-3.14963">
        <ele>497.4</ele>
        <time>2021-10-28 10:15:02</time>
      </trkpt>
      <trkpt lat="43.30953" lon="-3.14963">
        <ele>497.8</ele>
        <time>2021-10-28 10:15:03</time>
      </trkpt>
      <trkpt lat="43.30952" lon="-3.14965">
        <ele>498.2</ele>
        <time>2021-10-28 10:15:04</time>
      </trkpt>
      <trkpt lat="43.30952" lon="-3.14965">
        <ele>498.6</ele>
        <time>2021-10-28 10:15:05</time>
      </trkpt>
      <trkpt lat="43.30954" lon="-3.14972">
        <ele>498.8</ele>
        <time>2021-10-28 10:15:11</time>
      </trkpt>
      <trkpt lat="43.30954" lon="-3.14972">
        <ele>498.8</ele>
        <time>2021-10-28 10:15:12</time>
      </trkpt>
      <trkpt lat="43.30954" lon="-3.14976">
        <ele>499</ele>
        <time>2021-10-28 10:15:13</time>
      </trkpt>
      <trkpt lat="43.30954" lon="-3.14976">
        <ele>499</ele>
        <time>2021-10-28 10:15:14</time>
      </trkpt>
      <trkpt lat="43.30955" lon="-3.14978">
        <ele>499</ele>
        <time>2021-10-28 10:15:15</time>
      </trkpt>
      <trkpt lat="43.30955" lon="-3.14978">
        <ele>499.2</ele>
        <time>2021-10-28 10:15:16</time>
      </trkpt>
      <trkpt lat="43.30956" lon="-3.1498">
        <ele>499.2</ele>
        <time>2021-10-28 10:15:17</time>
      </trkpt>
      <trkpt lat="43.30958" lon="-3.14983">
        <ele>499.4</ele>
        <time>2021-10-28 10:15:18</time>
      </trkpt>
      <trkpt lat="43.30957" lon="-3.14985">
        <ele>499.4</ele>
        <time>2021-10-28 10:15:19</time>
      </trkpt>
      <trkpt lat="43.30957" lon="-3.14985">
        <ele>499.4</ele>
        <time>2021-10-28 10:15:20</time>
      </trkpt>
      <trkpt lat="43.30957" lon="-3.14987">
        <ele>499.6</ele>
        <time>2021-10-28 10:15:21</time>
      </trkpt>
      <trkpt lat="43.30956" lon="-3.1499">
        <ele>499.8</ele>
        <time>2021-10-28 10:15:22</time>
      </trkpt>
      <trkpt lat="43.30957" lon="-3.14999">
        <ele>499.8</ele>
        <time>2021-10-28 10:15:23</time>
      </trkpt>
      <trkpt lat="43.30957" lon="-3.14999">
        <ele>500</ele>
        <time>2021-10-28 10:15:24</time>
      </trkpt>
      <trkpt lat="43.30957" lon="-3.14999">
        <ele>500.4</ele>
        <time>2021-10-28 10:15:25</time>
      </trkpt>
      <trkpt lat="43.30955" lon="-3.15005">
        <ele>500.6</ele>
        <time>2021-10-28 10:15:26</time>
      </trkpt>
      <trkpt lat="43.30955" lon="-3.15005">
        <ele>500.8</ele>
        <time>2021-10-28 10:15:27</time>
      </trkpt>
      <trkpt lat="43.30955" lon="-3.15005">
        <ele>501</ele>
        <time>2021-10-28 10:15:28</time>
      </trkpt>
      <trkpt lat="43.30957" lon="-3.15009">
        <ele>501.2</ele>
        <time>2021-10-28 10:15:29</time>
      </trkpt>
      <trkpt lat="43.30957" lon="-3.15009">
        <ele>501.6</ele>
        <time>2021-10-28 10:15:30</time>
      </trkpt>
      <trkpt lat="43.30958" lon="-3.15012">
        <ele>501.8</ele>
        <time>2021-10-28 10:15:31</time>
      </trkpt>
      <trkpt lat="43.30958" lon="-3.15012">
        <ele>502</ele>
        <time>2021-10-28 10:15:32</time>
      </trkpt>
      <trkpt lat="43.30957" lon="-3.15017">
        <ele>502.2</ele>
        <time>2021-10-28 10:15:33</time>
      </trkpt>
      <trkpt lat="43.30957" lon="-3.15017">
        <ele>502.4</ele>
        <time>2021-10-28 10:15:34</time>
      </trkpt>
      <trkpt lat="43.30954" lon="-3.15024">
        <ele>502.6</ele>
        <time>2021-10-28 10:15:35</time>
      </trkpt>
      <trkpt lat="43.30954" lon="-3.15024">
        <ele>502.6</ele>
        <time>2021-10-28 10:15:36</time>
      </trkpt>
      <trkpt lat="43.30955" lon="-3.15029">
        <ele>502.8</ele>
        <time>2021-10-28 10:15:37</time>
      </trkpt>
      <trkpt lat="43.30955" lon="-3.15031">
        <ele>503</ele>
        <time>2021-10-28 10:15:38</time>
      </trkpt>
      <trkpt lat="43.30956" lon="-3.15034">
        <ele>503</ele>
        <time>2021-10-28 10:15:39</time>
      </trkpt>
      <trkpt lat="43.30956" lon="-3.15034">
        <ele>503.2</ele>
        <time>2021-10-28 10:15:40</time>
      </trkpt>
      <trkpt lat="43.30957" lon="-3.15036">
        <ele>503.2</ele>
        <time>2021-10-28 10:15:41</time>
      </trkpt>
      <trkpt lat="43.30958" lon="-3.15041">
        <ele>503.2</ele>
        <time>2021-10-28 10:15:42</time>
      </trkpt>
      <trkpt lat="43.30958" lon="-3.15041">
        <ele>503.4</ele>
        <time>2021-10-28 10:15:43</time>
      </trkpt>
      <trkpt lat="43.30957" lon="-3.15043">
        <ele>503.4</ele>
        <time>2021-10-28 10:15:44</time>
      </trkpt>
      <trkpt lat="43.30956" lon="-3.15045">
        <ele>503.6</ele>
        <time>2021-10-28 10:15:45</time>
      </trkpt>
      <trkpt lat="43.30956" lon="-3.15048">
        <ele>504</ele>
        <time>2021-10-28 10:15:46</time>
      </trkpt>
      <trkpt lat="43.30956" lon="-3.15048">
        <ele>504.2</ele>
        <time>2021-10-28 10:15:47</time>
      </trkpt>
      <trkpt lat="43.30959" lon="-3.15049">
        <ele>504.4</ele>
        <time>2021-10-28 10:15:48</time>
      </trkpt>
      <trkpt lat="43.30959" lon="-3.15049">
        <ele>504.6</ele>
        <time>2021-10-28 10:15:49</time>
      </trkpt>
      <trkpt lat="43.30961" lon="-3.15052">
        <ele>504.8</ele>
        <time>2021-10-28 10:15:50</time>
      </trkpt>
      <trkpt lat="43.30962" lon="-3.15054">
        <ele>505</ele>
        <time>2021-10-28 10:15:51</time>
      </trkpt>
      <trkpt lat="43.30962" lon="-3.15054">
        <ele>505</ele>
        <time>2021-10-28 10:15:52</time>
      </trkpt>
      <trkpt lat="43.3096" lon="-3.15059">
        <ele>505.2</ele>
        <time>2021-10-28 10:15:53</time>
      </trkpt>
      <trkpt lat="43.3096" lon="-3.15063">
        <ele>505.2</ele>
        <time>2021-10-28 10:15:54</time>
      </trkpt>
      <trkpt lat="43.3096" lon="-3.15063">
        <ele>505.2</ele>
        <time>2021-10-28 10:15:55</time>
      </trkpt>
      <trkpt lat="43.3096" lon="-3.15063">
        <ele>505.4</ele>
        <time>2021-10-28 10:15:56</time>
      </trkpt>
      <trkpt lat="43.3096" lon="-3.15063">
        <ele>505.6</ele>
        <time>2021-10-28 10:15:57</time>
      </trkpt>
      <trkpt lat="43.30961" lon="-3.1507">
        <ele>505.8</ele>
        <time>2021-10-28 10:15:58</time>
      </trkpt>
      <trkpt lat="43.30961" lon="-3.1507">
        <ele>506.2</ele>
        <time>2021-10-28 10:15:59</time>
      </trkpt>
      <trkpt lat="43.3096" lon="-3.15071">
        <ele>506.4</ele>
        <time>2021-10-28 10:16:00</time>
      </trkpt>
      <trkpt lat="43.30957" lon="-3.15077">
        <ele>506.6</ele>
        <time>2021-10-28 10:16:01</time>
      </trkpt>
      <trkpt lat="43.30957" lon="-3.15077">
        <ele>506.8</ele>
        <time>2021-10-28 10:16:02</time>
      </trkpt>
      <trkpt lat="43.30958" lon="-3.15079">
        <ele>507</ele>
        <time>2021-10-28 10:16:03</time>
      </trkpt>
      <trkpt lat="43.30958" lon="-3.15079">
        <ele>507</ele>
        <time>2021-10-28 10:16:04</time>
      </trkpt>
      <trkpt lat="43.30957" lon="-3.15081">
        <ele>507.2</ele>
        <time>2021-10-28 10:16:05</time>
      </trkpt>
      <trkpt lat="43.30958" lon="-3.15081">
        <ele>507.4</ele>
        <time>2021-10-28 10:16:06</time>
      </trkpt>
      <trkpt lat="43.30959" lon="-3.15084">
        <ele>507.4</ele>
        <time>2021-10-28 10:16:07</time>
      </trkpt>
      <trkpt lat="43.30959" lon="-3.15084">
        <ele>507.6</ele>
        <time>2021-10-28 10:16:08</time>
      </trkpt>
      <trkpt lat="43.30957" lon="-3.15083">
        <ele>507.8</ele>
        <time>2021-10-28 10:16:09</time>
      </trkpt>
      <trkpt lat="43.30957" lon="-3.15083">
        <ele>508</ele>
        <time>2021-10-28 10:16:10</time>
      </trkpt>
      <trkpt lat="43.30953" lon="-3.15087">
        <ele>508.2</ele>
        <time>2021-10-28 10:16:11</time>
      </trkpt>
      <trkpt lat="43.30953" lon="-3.15087">
        <ele>508.4</ele>
        <time>2021-10-28 10:16:12</time>
      </trkpt>
      <trkpt lat="43.30952" lon="-3.15087">
        <ele>508.4</ele>
        <time>2021-10-28 10:16:13</time>
      </trkpt>
      <trkpt lat="43.3095" lon="-3.15092">
        <ele>508.6</ele>
        <time>2021-10-28 10:16:14</time>
      </trkpt>
      <trkpt lat="43.3095" lon="-3.15092">
        <ele>508.8</ele>
        <time>2021-10-28 10:16:15</time>
      </trkpt>
      <trkpt lat="43.30951" lon="-3.15096">
        <ele>509</ele>
        <time>2021-10-28 10:16:16</time>
      </trkpt>
      <trkpt lat="43.30951" lon="-3.15096">
        <ele>509.2</ele>
        <time>2021-10-28 10:16:17</time>
      </trkpt>
      <trkpt lat="43.30952" lon="-3.15098">
        <ele>509.4</ele>
        <time>2021-10-28 10:16:18</time>
      </trkpt>
      <trkpt lat="43.30952" lon="-3.15101">
        <ele>509.6</ele>
        <time>2021-10-28 10:16:19</time>
      </trkpt>
      <trkpt lat="43.30947" lon="-3.15109">
        <ele>509.8</ele>
        <time>2021-10-28 10:16:20</time>
      </trkpt>
      <trkpt lat="43.30947" lon="-3.15109">
        <ele>510</ele>
        <time>2021-10-28 10:16:21</time>
      </trkpt>
      <trkpt lat="43.30947" lon="-3.15109">
        <ele>510.2</ele>
        <time>2021-10-28 10:16:22</time>
      </trkpt>
      <trkpt lat="43.30948" lon="-3.15111">
        <ele>510.6</ele>
        <time>2021-10-28 10:16:23</time>
      </trkpt>
      <trkpt lat="43.30948" lon="-3.15114">
        <ele>510.8</ele>
        <time>2021-10-28 10:16:24</time>
      </trkpt>
      <trkpt lat="43.30948" lon="-3.15114">
        <ele>511</ele>
        <time>2021-10-28 10:16:25</time>
      </trkpt>
      <trkpt lat="43.30948" lon="-3.15114">
        <ele>511.4</ele>
        <time>2021-10-28 10:16:26</time>
      </trkpt>
      <trkpt lat="43.30945" lon="-3.15122">
        <ele>511.4</ele>
        <time>2021-10-28 10:16:27</time>
      </trkpt>
      <trkpt lat="43.30944" lon="-3.15124">
        <ele>511.6</ele>
        <time>2021-10-28 10:16:28</time>
      </trkpt>
      <trkpt lat="43.30944" lon="-3.15124">
        <ele>511.6</ele>
        <time>2021-10-28 10:16:29</time>
      </trkpt>
      <trkpt lat="43.30943" lon="-3.15128">
        <ele>511.6</ele>
        <time>2021-10-28 10:16:30</time>
      </trkpt>
      <trkpt lat="43.30943" lon="-3.15131">
        <ele>511.6</ele>
        <time>2021-10-28 10:16:31</time>
      </trkpt>
      <trkpt lat="43.30943" lon="-3.15132">
        <ele>511.6</ele>
        <time>2021-10-28 10:16:32</time>
      </trkpt>
      <trkpt lat="43.30943" lon="-3.15132">
        <ele>511.6</ele>
        <time>2021-10-28 10:16:33</time>
      </trkpt>
      <trkpt lat="43.30943" lon="-3.15132">
        <ele>511.6</ele>
        <time>2021-10-28 10:16:34</time>
      </trkpt>
      <trkpt lat="43.30943" lon="-3.15134">
        <ele>511.6</ele>
        <time>2021-10-28 10:16:35</time>
      </trkpt>
      <trkpt lat="43.30943" lon="-3.15134">
        <ele>511.4</ele>
        <time>2021-10-28 10:16:36</time>
      </trkpt>
      <trkpt lat="43.30943" lon="-3.15134">
        <ele>511.4</ele>
        <time>2021-10-28 10:16:37</time>
      </trkpt>
      <trkpt lat="43.30943" lon="-3.15137">
        <ele>511.6</ele>
        <time>2021-10-28 10:16:38</time>
      </trkpt>
      <trkpt lat="43.30943" lon="-3.15137">
        <ele>511.8</ele>
        <time>2021-10-28 10:16:39</time>
      </trkpt>
      <trkpt lat="43.30943" lon="-3.15136">
        <ele>511.8</ele>
        <time>2021-10-28 10:16:40</time>
      </trkpt>
      <trkpt lat="43.30943" lon="-3.15136">
        <ele>511.8</ele>
        <time>2021-10-28 10:16:41</time>
      </trkpt>
      <trkpt lat="43.30935" lon="-3.15167">
        <ele>513.8</ele>
        <time>2021-10-28 10:16:42</time>
      </trkpt>
      <trkpt lat="43.30936" lon="-3.15171">
        <ele>514</ele>
        <time>2021-10-28 10:16:43</time>
      </trkpt>
      <trkpt lat="43.30937" lon="-3.15174">
        <ele>514.2</ele>
        <time>2021-10-28 10:16:44</time>
      </trkpt>
      <trkpt lat="43.30937" lon="-3.15174">
        <ele>514.2</ele>
        <time>2021-10-28 10:16:45</time>
      </trkpt>
      <trkpt lat="43.30937" lon="-3.15175">
        <ele>514.4</ele>
        <time>2021-10-28 10:16:46</time>
      </trkpt>
      <trkpt lat="43.30938" lon="-3.15178">
        <ele>514.4</ele>
        <time>2021-10-28 10:16:47</time>
      </trkpt>
      <trkpt lat="43.3094" lon="-3.15185">
        <ele>514.6</ele>
        <time>2021-10-28 10:16:48</time>
      </trkpt>
      <trkpt lat="43.3094" lon="-3.15185">
        <ele>514.8</ele>
        <time>2021-10-28 10:16:49</time>
      </trkpt>
      <trkpt lat="43.3094" lon="-3.15185">
        <ele>515</ele>
        <time>2021-10-28 10:16:50</time>
      </trkpt>
      <trkpt lat="43.30944" lon="-3.15189">
        <ele>515.2</ele>
        <time>2021-10-28 10:16:51</time>
      </trkpt>
      <trkpt lat="43.30944" lon="-3.15189">
        <ele>515.4</ele>
        <time>2021-10-28 10:16:52</time>
      </trkpt>
      <trkpt lat="43.30945" lon="-3.15195">
        <ele>515.6</ele>
        <time>2021-10-28 10:16:53</time>
      </trkpt>
      <trkpt lat="43.30945" lon="-3.15195">
        <ele>515.8</ele>
        <time>2021-10-28 10:16:54</time>
      </trkpt>
      <trkpt lat="43.30945" lon="-3.15199">
        <ele>515.8</ele>
        <time>2021-10-28 10:16:55</time>
      </trkpt>
      <trkpt lat="43.30945" lon="-3.15201">
        <ele>516</ele>
        <time>2021-10-28 10:16:56</time>
      </trkpt>
      <trkpt lat="43.30945" lon="-3.15201">
        <ele>516.2</ele>
        <time>2021-10-28 10:16:57</time>
      </trkpt>
      <trkpt lat="43.30945" lon="-3.15201">
        <ele>516.4</ele>
        <time>2021-10-28 10:16:58</time>
      </trkpt>
      <trkpt lat="43.30947" lon="-3.15209">
        <ele>516.6</ele>
        <time>2021-10-28 10:16:59</time>
      </trkpt>
      <trkpt lat="43.30947" lon="-3.15209">
        <ele>516.8</ele>
        <time>2021-10-28 10:17:00</time>
      </trkpt>
      <trkpt lat="43.30947" lon="-3.1521">
        <ele>517.2</ele>
        <time>2021-10-28 10:17:01</time>
      </trkpt>
      <trkpt lat="43.30948" lon="-3.15213">
        <ele>517.4</ele>
        <time>2021-10-28 10:17:02</time>
      </trkpt>
      <trkpt lat="43.30944" lon="-3.15222">
        <ele>517.6</ele>
        <time>2021-10-28 10:18:12</time>
      </trkpt>
      <trkpt lat="43.30944" lon="-3.15224">
        <ele>517.8</ele>
        <time>2021-10-28 10:18:13</time>
      </trkpt>
      <trkpt lat="43.30944" lon="-3.15224">
        <ele>518</ele>
        <time>2021-10-28 10:18:14</time>
      </trkpt>
      <trkpt lat="43.30944" lon="-3.15224">
        <ele>518.2</ele>
        <time>2021-10-28 10:18:15</time>
      </trkpt>
      <trkpt lat="43.30943" lon="-3.15228">
        <ele>518.6</ele>
        <time>2021-10-28 10:18:16</time>
      </trkpt>
      <trkpt lat="43.30944" lon="-3.15233">
        <ele>518.8</ele>
        <time>2021-10-28 10:18:17</time>
      </trkpt>
      <trkpt lat="43.30946" lon="-3.15235">
        <ele>519</ele>
        <time>2021-10-28 10:18:18</time>
      </trkpt>
      <trkpt lat="43.30947" lon="-3.15239">
        <ele>519.4</ele>
        <time>2021-10-28 10:18:19</time>
      </trkpt>
      <trkpt lat="43.30947" lon="-3.15239">
        <ele>519.6</ele>
        <time>2021-10-28 10:18:20</time>
      </trkpt>
      <trkpt lat="43.30946" lon="-3.15243">
        <ele>520</ele>
        <time>2021-10-28 10:18:21</time>
      </trkpt>
      <trkpt lat="43.30945" lon="-3.15245">
        <ele>520.4</ele>
        <time>2021-10-28 10:18:22</time>
      </trkpt>
      <trkpt lat="43.30945" lon="-3.15253">
        <ele>520.6</ele>
        <time>2021-10-28 10:18:23</time>
      </trkpt>
      <trkpt lat="43.30945" lon="-3.15253">
        <ele>520.8</ele>
        <time>2021-10-28 10:18:24</time>
      </trkpt>
      <trkpt lat="43.30945" lon="-3.15253">
        <ele>521.2</ele>
        <time>2021-10-28 10:18:25</time>
      </trkpt>
      <trkpt lat="43.30945" lon="-3.15253">
        <ele>521.4</ele>
        <time>2021-10-28 10:18:26</time>
      </trkpt>
      <trkpt lat="43.30946" lon="-3.15258">
        <ele>521.6</ele>
        <time>2021-10-28 10:18:27</time>
      </trkpt>
      <trkpt lat="43.30944" lon="-3.15262">
        <ele>521.8</ele>
        <time>2021-10-28 10:18:28</time>
      </trkpt>
      <trkpt lat="43.30944" lon="-3.15266">
        <ele>522</ele>
        <time>2021-10-28 10:18:29</time>
      </trkpt>
      <trkpt lat="43.30944" lon="-3.15266">
        <ele>522.2</ele>
        <time>2021-10-28 10:18:30</time>
      </trkpt>
      <trkpt lat="43.30942" lon="-3.15269">
        <ele>522.4</ele>
        <time>2021-10-28 10:18:31</time>
      </trkpt>
      <trkpt lat="43.30942" lon="-3.15269">
        <ele>522.4</ele>
        <time>2021-10-28 10:18:32</time>
      </trkpt>
      <trkpt lat="43.30942" lon="-3.15269">
        <ele>522.4</ele>
        <time>2021-10-28 10:18:33</time>
      </trkpt>
      <trkpt lat="43.30941" lon="-3.15279">
        <ele>522.4</ele>
        <time>2021-10-28 10:18:34</time>
      </trkpt>
      <trkpt lat="43.30941" lon="-3.15279">
        <ele>522.6</ele>
        <time>2021-10-28 10:18:35</time>
      </trkpt>
      <trkpt lat="43.30939" lon="-3.15284">
        <ele>522.8</ele>
        <time>2021-10-28 10:18:36</time>
      </trkpt>
      <trkpt lat="43.30939" lon="-3.15284">
        <ele>523.2</ele>
        <time>2021-10-28 10:18:37</time>
      </trkpt>
      <trkpt lat="43.30938" lon="-3.15288">
        <ele>523.8</ele>
        <time>2021-10-28 10:18:38</time>
      </trkpt>
      <trkpt lat="43.30938" lon="-3.15288">
        <ele>524.4</ele>
        <time>2021-10-28 10:18:39</time>
      </trkpt>
      <trkpt lat="43.30938" lon="-3.1529">
        <ele>525</ele>
        <time>2021-10-28 10:18:40</time>
      </trkpt>
      <trkpt lat="43.30938" lon="-3.1529">
        <ele>525.2</ele>
        <time>2021-10-28 10:18:41</time>
      </trkpt>
      <trkpt lat="43.30936" lon="-3.15292">
        <ele>525.4</ele>
        <time>2021-10-28 10:18:42</time>
      </trkpt>
      <trkpt lat="43.30931" lon="-3.15292">
        <ele>525.8</ele>
        <time>2021-10-28 10:18:43</time>
      </trkpt>
      <trkpt lat="43.30931" lon="-3.15292">
        <ele>525.8</ele>
        <time>2021-10-28 10:18:44</time>
      </trkpt>
      <trkpt lat="43.30927" lon="-3.1529">
        <ele>525.8</ele>
        <time>2021-10-28 10:18:45</time>
      </trkpt>
      <trkpt lat="43.30926" lon="-3.15287">
        <ele>525.8</ele>
        <time>2021-10-28 10:18:46</time>
      </trkpt>
      <trkpt lat="43.30926" lon="-3.15287">
        <ele>525.8</ele>
        <time>2021-10-28 10:18:47</time>
      </trkpt>
      <trkpt lat="43.30926" lon="-3.15287">
        <ele>525.8</ele>
        <time>2021-10-28 10:18:48</time>
      </trkpt>
      <trkpt lat="43.30925" lon="-3.15284">
        <ele>525.8</ele>
        <time>2021-10-28 10:18:49</time>
      </trkpt>
      <trkpt lat="43.30924" lon="-3.15283">
        <ele>526</ele>
        <time>2021-10-28 10:18:50</time>
      </trkpt>
      <trkpt lat="43.30923" lon="-3.1528">
        <ele>526.2</ele>
        <time>2021-10-28 10:18:51</time>
      </trkpt>
      <trkpt lat="43.30921" lon="-3.15275">
        <ele>526.2</ele>
        <time>2021-10-28 10:18:52</time>
      </trkpt>
      <trkpt lat="43.30921" lon="-3.15275">
        <ele>526.4</ele>
        <time>2021-10-28 10:18:53</time>
      </trkpt>
      <trkpt lat="43.30922" lon="-3.15272">
        <ele>526.4</ele>
        <time>2021-10-28 10:18:54</time>
      </trkpt>
      <trkpt lat="43.30922" lon="-3.15272">
        <ele>526.6</ele>
        <time>2021-10-28 10:18:55</time>
      </trkpt>
      <trkpt lat="43.30921" lon="-3.15267">
        <ele>526.8</ele>
        <time>2021-10-28 10:18:56</time>
      </trkpt>
      <trkpt lat="43.30921" lon="-3.15267">
        <ele>527.2</ele>
        <time>2021-10-28 10:18:57</time>
      </trkpt>
      <trkpt lat="43.30921" lon="-3.15267">
        <ele>527.6</ele>
        <time>2021-10-28 10:18:58</time>
      </trkpt>
      <trkpt lat="43.3092" lon="-3.15266">
        <ele>528</ele>
        <time>2021-10-28 10:18:59</time>
      </trkpt>
      <trkpt lat="43.30921" lon="-3.15263">
        <ele>528.2</ele>
        <time>2021-10-28 10:19:00</time>
      </trkpt>
      <trkpt lat="43.3092" lon="-3.15257">
        <ele>528.2</ele>
        <time>2021-10-28 10:19:01</time>
      </trkpt>
      <trkpt lat="43.3092" lon="-3.15257">
        <ele>528.2</ele>
        <time>2021-10-28 10:19:02</time>
      </trkpt>
      <trkpt lat="43.3092" lon="-3.15254">
        <ele>528.2</ele>
        <time>2021-10-28 10:19:03</time>
      </trkpt>
      <trkpt lat="43.3092" lon="-3.15254">
        <ele>528.2</ele>
        <time>2021-10-28 10:19:04</time>
      </trkpt>
      <trkpt lat="43.3092" lon="-3.15249">
        <ele>528.2</ele>
        <time>2021-10-28 10:19:05</time>
      </trkpt>
      <trkpt lat="43.3092" lon="-3.15249">
        <ele>528.2</ele>
        <time>2021-10-28 10:19:06</time>
      </trkpt>
      <trkpt lat="43.3092" lon="-3.15243">
        <ele>528.4</ele>
        <time>2021-10-28 10:19:07</time>
      </trkpt>
      <trkpt lat="43.3092" lon="-3.15243">
        <ele>528.4</ele>
        <time>2021-10-28 10:19:08</time>
      </trkpt>
      <trkpt lat="43.30919" lon="-3.15239">
        <ele>528.6</ele>
        <time>2021-10-28 10:19:09</time>
      </trkpt>
      <trkpt lat="43.30918" lon="-3.15238">
        <ele>528.8</ele>
        <time>2021-10-28 10:19:10</time>
      </trkpt>
      <trkpt lat="43.30918" lon="-3.15238">
        <ele>529</ele>
        <time>2021-10-28 10:19:11</time>
      </trkpt>
      <trkpt lat="43.30918" lon="-3.15236">
        <ele>529.2</ele>
        <time>2021-10-28 10:19:12</time>
      </trkpt>
      <trkpt lat="43.30917" lon="-3.15235">
        <ele>529.4</ele>
        <time>2021-10-28 10:19:13</time>
      </trkpt>
      <trkpt lat="43.30914" lon="-3.15229">
        <ele>529.6</ele>
        <time>2021-10-28 10:19:14</time>
      </trkpt>
      <trkpt lat="43.30914" lon="-3.15229">
        <ele>529.8</ele>
        <time>2021-10-28 10:19:15</time>
      </trkpt>
      <trkpt lat="43.30912" lon="-3.15227">
        <ele>530.2</ele>
        <time>2021-10-28 10:19:16</time>
      </trkpt>
      <trkpt lat="43.30912" lon="-3.15227">
        <ele>530.4</ele>
        <time>2021-10-28 10:19:17</time>
      </trkpt>
      <trkpt lat="43.30912" lon="-3.15227">
        <ele>530.4</ele>
        <time>2021-10-28 10:19:18</time>
      </trkpt>
      <trkpt lat="43.30909" lon="-3.15224">
        <ele>530.4</ele>
        <time>2021-10-28 10:19:19</time>
      </trkpt>
      <trkpt lat="43.30908" lon="-3.15221">
        <ele>530.4</ele>
        <time>2021-10-28 10:19:20</time>
      </trkpt>
      <trkpt lat="43.30908" lon="-3.15221">
        <ele>530.6</ele>
        <time>2021-10-28 10:19:21</time>
      </trkpt>
      <trkpt lat="43.30908" lon="-3.15221">
        <ele>530.8</ele>
        <time>2021-10-28 10:19:22</time>
      </trkpt>
      <trkpt lat="43.30907" lon="-3.15217">
        <ele>531.2</ele>
        <time>2021-10-28 10:19:23</time>
      </trkpt>
      <trkpt lat="43.30907" lon="-3.15217">
        <ele>531.6</ele>
        <time>2021-10-28 10:19:24</time>
      </trkpt>
      <trkpt lat="43.30907" lon="-3.15211">
        <ele>531.8</ele>
        <time>2021-10-28 10:19:25</time>
      </trkpt>
      <trkpt lat="43.30906" lon="-3.15209">
        <ele>532</ele>
        <time>2021-10-28 10:19:26</time>
      </trkpt>
      <trkpt lat="43.30906" lon="-3.15209">
        <ele>532</ele>
        <time>2021-10-28 10:19:27</time>
      </trkpt>
      <trkpt lat="43.30908" lon="-3.15207">
        <ele>532.2</ele>
        <time>2021-10-28 10:19:28</time>
      </trkpt>
      <trkpt lat="43.30908" lon="-3.15207">
        <ele>532.4</ele>
        <time>2021-10-28 10:19:29</time>
      </trkpt>
      <trkpt lat="43.30908" lon="-3.15205">
        <ele>532.4</ele>
        <time>2021-10-28 10:19:30</time>
      </trkpt>
      <trkpt lat="43.30907" lon="-3.15203">
        <ele>532.6</ele>
        <time>2021-10-28 10:19:31</time>
      </trkpt>
      <trkpt lat="43.30906" lon="-3.15201">
        <ele>532.8</ele>
        <time>2021-10-28 10:19:32</time>
      </trkpt>
      <trkpt lat="43.30904" lon="-3.15199">
        <ele>532.8</ele>
        <time>2021-10-28 10:19:33</time>
      </trkpt>
      <trkpt lat="43.30902" lon="-3.15198">
        <ele>532.8</ele>
        <time>2021-10-28 10:19:34</time>
      </trkpt>
      <trkpt lat="43.30901" lon="-3.15193">
        <ele>533</ele>
        <time>2021-10-28 10:19:35</time>
      </trkpt>
      <trkpt lat="43.30901" lon="-3.15193">
        <ele>533</ele>
        <time>2021-10-28 10:19:36</time>
      </trkpt>
      <trkpt lat="43.30901" lon="-3.15191">
        <ele>533</ele>
        <time>2021-10-28 10:19:37</time>
      </trkpt>
      <trkpt lat="43.309" lon="-3.15186">
        <ele>533</ele>
        <time>2021-10-28 10:19:38</time>
      </trkpt>
      <trkpt lat="43.30897" lon="-3.15184">
        <ele>533.2</ele>
        <time>2021-10-28 10:19:39</time>
      </trkpt>
      <trkpt lat="43.30897" lon="-3.15184">
        <ele>533.6</ele>
        <time>2021-10-28 10:19:40</time>
      </trkpt>
      <trkpt lat="43.30897" lon="-3.15184">
        <ele>533.8</ele>
        <time>2021-10-28 10:19:41</time>
      </trkpt>
      <trkpt lat="43.30896" lon="-3.15182">
        <ele>534</ele>
        <time>2021-10-28 10:19:42</time>
      </trkpt>
      <trkpt lat="43.30895" lon="-3.1518">
        <ele>534.4</ele>
        <time>2021-10-28 10:19:43</time>
      </trkpt>
      <trkpt lat="43.30895" lon="-3.1518">
        <ele>534.8</ele>
        <time>2021-10-28 10:19:44</time>
      </trkpt>
      <trkpt lat="43.30894" lon="-3.15178">
        <ele>535.4</ele>
        <time>2021-10-28 10:19:45</time>
      </trkpt>
      <trkpt lat="43.30891" lon="-3.15175">
        <ele>535.6</ele>
        <time>2021-10-28 10:19:46</time>
      </trkpt>
      <trkpt lat="43.3089" lon="-3.15173">
        <ele>536</ele>
        <time>2021-10-28 10:19:47</time>
      </trkpt>
      <trkpt lat="43.3089" lon="-3.15173">
        <ele>536.2</ele>
        <time>2021-10-28 10:19:48</time>
      </trkpt>
      <trkpt lat="43.30887" lon="-3.15169">
        <ele>536.4</ele>
        <time>2021-10-28 10:19:49</time>
      </trkpt>
      <trkpt lat="43.30887" lon="-3.15169">
        <ele>536.4</ele>
        <time>2021-10-28 10:19:50</time>
      </trkpt>
      <trkpt lat="43.30885" lon="-3.15167">
        <ele>536.4</ele>
        <time>2021-10-28 10:19:51</time>
      </trkpt>
      <trkpt lat="43.30882" lon="-3.15164">
        <ele>536.4</ele>
        <time>2021-10-28 10:19:52</time>
      </trkpt>
      <trkpt lat="43.30882" lon="-3.15164">
        <ele>536.6</ele>
        <time>2021-10-28 10:19:53</time>
      </trkpt>
      <trkpt lat="43.3088" lon="-3.1516">
        <ele>536.8</ele>
        <time>2021-10-28 10:19:54</time>
      </trkpt>
      <trkpt lat="43.3088" lon="-3.1516">
        <ele>537.4</ele>
        <time>2021-10-28 10:19:55</time>
      </trkpt>
      <trkpt lat="43.30877" lon="-3.15157">
        <ele>537.8</ele>
        <time>2021-10-28 10:19:56</time>
      </trkpt>
      <trkpt lat="43.30877" lon="-3.15157">
        <ele>537.8</ele>
        <time>2021-10-28 10:19:57</time>
      </trkpt>
      <trkpt lat="43.30875" lon="-3.15154">
        <ele>538</ele>
        <time>2021-10-28 10:19:58</time>
      </trkpt>
      <trkpt lat="43.30875" lon="-3.15154">
        <ele>538</ele>
        <time>2021-10-28 10:19:59</time>
      </trkpt>
      <trkpt lat="43.30874" lon="-3.15152">
        <ele>538.2</ele>
        <time>2021-10-28 10:20:00</time>
      </trkpt>
      <trkpt lat="43.30873" lon="-3.15151">
        <ele>538.4</ele>
        <time>2021-10-28 10:20:01</time>
      </trkpt>
      <trkpt lat="43.30872" lon="-3.1515">
        <ele>538.8</ele>
        <time>2021-10-28 10:20:02</time>
      </trkpt>
      <trkpt lat="43.3087" lon="-3.15149">
        <ele>539</ele>
        <time>2021-10-28 10:20:03</time>
      </trkpt>
      <trkpt lat="43.30869" lon="-3.15147">
        <ele>539</ele>
        <time>2021-10-28 10:20:04</time>
      </trkpt>
      <trkpt lat="43.30867" lon="-3.15145">
        <ele>539</ele>
        <time>2021-10-28 10:20:05</time>
      </trkpt>
      <trkpt lat="43.30866" lon="-3.15144">
        <ele>539.2</ele>
        <time>2021-10-28 10:20:06</time>
      </trkpt>
      <trkpt lat="43.30866" lon="-3.15144">
        <ele>539.4</ele>
        <time>2021-10-28 10:20:07</time>
      </trkpt>
      <trkpt lat="43.30863" lon="-3.15141">
        <ele>539.6</ele>
        <time>2021-10-28 10:20:08</time>
      </trkpt>
      <trkpt lat="43.30863" lon="-3.15141">
        <ele>539.6</ele>
        <time>2021-10-28 10:20:09</time>
      </trkpt>
      <trkpt lat="43.30862" lon="-3.15137">
        <ele>539.6</ele>
        <time>2021-10-28 10:20:10</time>
      </trkpt>
      <trkpt lat="43.30862" lon="-3.15137">
        <ele>539.6</ele>
        <time>2021-10-28 10:20:11</time>
      </trkpt>
      <trkpt lat="43.30861" lon="-3.15136">
        <ele>539.8</ele>
        <time>2021-10-28 10:20:12</time>
      </trkpt>
      <trkpt lat="43.30859" lon="-3.15132">
        <ele>540.2</ele>
        <time>2021-10-28 10:20:13</time>
      </trkpt>
      <trkpt lat="43.30859" lon="-3.15132">
        <ele>540.6</ele>
        <time>2021-10-28 10:20:14</time>
      </trkpt>
      <trkpt lat="43.30858" lon="-3.1513">
        <ele>540.8</ele>
        <time>2021-10-28 10:20:15</time>
      </trkpt>
      <trkpt lat="43.30856" lon="-3.1513">
        <ele>541</ele>
        <time>2021-10-28 10:20:16</time>
      </trkpt>
      <trkpt lat="43.30855" lon="-3.15124">
        <ele>541</ele>
        <time>2021-10-28 10:20:17</time>
      </trkpt>
      <trkpt lat="43.30855" lon="-3.15124">
        <ele>541</ele>
        <time>2021-10-28 10:20:18</time>
      </trkpt>
      <trkpt lat="43.30855" lon="-3.15124">
        <ele>541.2</ele>
        <time>2021-10-28 10:20:19</time>
      </trkpt>
      <trkpt lat="43.30854" lon="-3.15123">
        <ele>541.4</ele>
        <time>2021-10-28 10:20:20</time>
      </trkpt>
      <trkpt lat="43.30853" lon="-3.15122">
        <ele>541.6</ele>
        <time>2021-10-28 10:20:21</time>
      </trkpt>
      <trkpt lat="43.30851" lon="-3.15118">
        <ele>541.6</ele>
        <time>2021-10-28 10:20:22</time>
      </trkpt>
      <trkpt lat="43.30851" lon="-3.15118">
        <ele>541.8</ele>
        <time>2021-10-28 10:20:23</time>
      </trkpt>
      <trkpt lat="43.30851" lon="-3.15116">
        <ele>541.8</ele>
        <time>2021-10-28 10:20:24</time>
      </trkpt>
      <trkpt lat="43.30849" lon="-3.15113">
        <ele>541.8</ele>
        <time>2021-10-28 10:20:25</time>
      </trkpt>
      <trkpt lat="43.30849" lon="-3.15113">
        <ele>542</ele>
        <time>2021-10-28 10:20:26</time>
      </trkpt>
      <trkpt lat="43.30848" lon="-3.1511">
        <ele>542.2</ele>
        <time>2021-10-28 10:20:27</time>
      </trkpt>
      <trkpt lat="43.30848" lon="-3.1511">
        <ele>542.4</ele>
        <time>2021-10-28 10:20:28</time>
      </trkpt>
      <trkpt lat="43.30847" lon="-3.15109">
        <ele>542.8</ele>
        <time>2021-10-28 10:20:29</time>
      </trkpt>
      <trkpt lat="43.30846" lon="-3.15106">
        <ele>543.2</ele>
        <time>2021-10-28 10:20:30</time>
      </trkpt>
      <trkpt lat="43.30846" lon="-3.15106">
        <ele>543.6</ele>
        <time>2021-10-28 10:20:31</time>
      </trkpt>
      <trkpt lat="43.30844" lon="-3.15103">
        <ele>543.8</ele>
        <time>2021-10-28 10:20:32</time>
      </trkpt>
      <trkpt lat="43.30844" lon="-3.15103">
        <ele>544</ele>
        <time>2021-10-28 10:20:33</time>
      </trkpt>
      <trkpt lat="43.30842" lon="-3.15103">
        <ele>544.2</ele>
        <time>2021-10-28 10:20:34</time>
      </trkpt>
      <trkpt lat="43.30842" lon="-3.15103">
        <ele>544.6</ele>
        <time>2021-10-28 10:20:35</time>
      </trkpt>
      <trkpt lat="43.30841" lon="-3.15105">
        <ele>544.8</ele>
        <time>2021-10-28 10:20:36</time>
      </trkpt>
      <trkpt lat="43.30841" lon="-3.15105">
        <ele>545.2</ele>
        <time>2021-10-28 10:20:37</time>
      </trkpt>
      <trkpt lat="43.30841" lon="-3.15105">
        <ele>545.4</ele>
        <time>2021-10-28 10:20:38</time>
      </trkpt>
      <trkpt lat="43.30841" lon="-3.15108">
        <ele>545.4</ele>
        <time>2021-10-28 10:20:39</time>
      </trkpt>
      <trkpt lat="43.30841" lon="-3.15108">
        <ele>545.4</ele>
        <time>2021-10-28 10:20:40</time>
      </trkpt>
      <trkpt lat="43.30841" lon="-3.15113">
        <ele>545.6</ele>
        <time>2021-10-28 10:20:41</time>
      </trkpt>
      <trkpt lat="43.30841" lon="-3.15113">
        <ele>545.6</ele>
        <time>2021-10-28 10:20:42</time>
      </trkpt>
      <trkpt lat="43.30842" lon="-3.1512">
        <ele>545.8</ele>
        <time>2021-10-28 10:20:43</time>
      </trkpt>
      <trkpt lat="43.30842" lon="-3.1512">
        <ele>545.8</ele>
        <time>2021-10-28 10:20:44</time>
      </trkpt>
      <trkpt lat="43.30842" lon="-3.1512">
        <ele>546</ele>
        <time>2021-10-28 10:20:45</time>
      </trkpt>
      <trkpt lat="43.30844" lon="-3.15123">
        <ele>546.2</ele>
        <time>2021-10-28 10:20:46</time>
      </trkpt>
      <trkpt lat="43.30844" lon="-3.15123">
        <ele>546.4</ele>
        <time>2021-10-28 10:20:47</time>
      </trkpt>
      <trkpt lat="43.30843" lon="-3.15125">
        <ele>546.6</ele>
        <time>2021-10-28 10:20:48</time>
      </trkpt>
      <trkpt lat="43.30842" lon="-3.15126">
        <ele>546.8</ele>
        <time>2021-10-28 10:20:49</time>
      </trkpt>
      <trkpt lat="43.3084" lon="-3.15132">
        <ele>546.8</ele>
        <time>2021-10-28 10:20:50</time>
      </trkpt>
      <trkpt lat="43.3084" lon="-3.15133">
        <ele>546.8</ele>
        <time>2021-10-28 10:20:51</time>
      </trkpt>
      <trkpt lat="43.3084" lon="-3.15133">
        <ele>546.8</ele>
        <time>2021-10-28 10:20:52</time>
      </trkpt>
      <trkpt lat="43.30839" lon="-3.15135">
        <ele>546.8</ele>
        <time>2021-10-28 10:20:53</time>
      </trkpt>
      <trkpt lat="43.30841" lon="-3.15137">
        <ele>547</ele>
        <time>2021-10-28 10:20:54</time>
      </trkpt>
      <trkpt lat="43.30841" lon="-3.1514">
        <ele>547</ele>
        <time>2021-10-28 10:20:55</time>
      </trkpt>
      <trkpt lat="43.30841" lon="-3.1514">
        <ele>547.2</ele>
        <time>2021-10-28 10:20:56</time>
      </trkpt>
      <trkpt lat="43.30841" lon="-3.1514">
        <ele>547.2</ele>
        <time>2021-10-28 10:20:57</time>
      </trkpt>
      <trkpt lat="43.3084" lon="-3.15149">
        <ele>547.2</ele>
        <time>2021-10-28 10:20:58</time>
      </trkpt>
      <trkpt lat="43.3084" lon="-3.15149">
        <ele>547.2</ele>
        <time>2021-10-28 10:20:59</time>
      </trkpt>
      <trkpt lat="43.30841" lon="-3.15152">
        <ele>547.4</ele>
        <time>2021-10-28 10:21:00</time>
      </trkpt>
      <trkpt lat="43.30841" lon="-3.15155">
        <ele>547.4</ele>
        <time>2021-10-28 10:21:01</time>
      </trkpt>
      <trkpt lat="43.30842" lon="-3.15158">
        <ele>547.6</ele>
        <time>2021-10-28 10:21:02</time>
      </trkpt>
      <trkpt lat="43.30842" lon="-3.15158">
        <ele>548</ele>
        <time>2021-10-28 10:21:03</time>
      </trkpt>
      <trkpt lat="43.30842" lon="-3.15158">
        <ele>548.2</ele>
        <time>2021-10-28 10:21:04</time>
      </trkpt>
      <trkpt lat="43.30841" lon="-3.15161">
        <ele>548.2</ele>
        <time>2021-10-28 10:21:05</time>
      </trkpt>
      <trkpt lat="43.30842" lon="-3.15164">
        <ele>548.2</ele>
        <time>2021-10-28 10:21:06</time>
      </trkpt>
      <trkpt lat="43.30842" lon="-3.15167">
        <ele>548.2</ele>
        <time>2021-10-28 10:21:07</time>
      </trkpt>
      <trkpt lat="43.30841" lon="-3.15172">
        <ele>548.4</ele>
        <time>2021-10-28 10:21:08</time>
      </trkpt>
      <trkpt lat="43.30841" lon="-3.15172">
        <ele>548.6</ele>
        <time>2021-10-28 10:21:09</time>
      </trkpt>
      <trkpt lat="43.3084" lon="-3.15176">
        <ele>548.8</ele>
        <time>2021-10-28 10:21:10</time>
      </trkpt>
      <trkpt lat="43.3084" lon="-3.15176">
        <ele>549.2</ele>
        <time>2021-10-28 10:21:11</time>
      </trkpt>
      <trkpt lat="43.30842" lon="-3.15177">
        <ele>549.6</ele>
        <time>2021-10-28 10:21:12</time>
      </trkpt>
      <trkpt lat="43.30842" lon="-3.15177">
        <ele>549.8</ele>
        <time>2021-10-28 10:21:13</time>
      </trkpt>
      <trkpt lat="43.30838" lon="-3.15182">
        <ele>550</ele>
        <time>2021-10-28 10:21:14</time>
      </trkpt>
      <trkpt lat="43.30838" lon="-3.15182">
        <ele>550.4</ele>
        <time>2021-10-28 10:21:15</time>
      </trkpt>
      <trkpt lat="43.3084" lon="-3.15185">
        <ele>550.8</ele>
        <time>2021-10-28 10:21:16</time>
      </trkpt>
      <trkpt lat="43.3084" lon="-3.15185">
        <ele>551.2</ele>
        <time>2021-10-28 10:21:17</time>
      </trkpt>
      <trkpt lat="43.3084" lon="-3.15185">
        <ele>551.4</ele>
        <time>2021-10-28 10:21:18</time>
      </trkpt>
      <trkpt lat="43.3084" lon="-3.15188">
        <ele>551.6</ele>
        <time>2021-10-28 10:21:19</time>
      </trkpt>
      <trkpt lat="43.3084" lon="-3.15188">
        <ele>551.8</ele>
        <time>2021-10-28 10:21:20</time>
      </trkpt>
      <trkpt lat="43.3084" lon="-3.15192">
        <ele>551.8</ele>
        <time>2021-10-28 10:21:21</time>
      </trkpt>
      <trkpt lat="43.3084" lon="-3.15192">
        <ele>551.8</ele>
        <time>2021-10-28 10:21:22</time>
      </trkpt>
      <trkpt lat="43.3084" lon="-3.15196">
        <ele>551.8</ele>
        <time>2021-10-28 10:21:23</time>
      </trkpt>
      <trkpt lat="43.30841" lon="-3.15199">
        <ele>551.8</ele>
        <time>2021-10-28 10:21:24</time>
      </trkpt>
      <trkpt lat="43.30841" lon="-3.15199">
        <ele>551.8</ele>
        <time>2021-10-28 10:21:25</time>
      </trkpt>
      <trkpt lat="43.30841" lon="-3.15199">
        <ele>552</ele>
        <time>2021-10-28 10:21:26</time>
      </trkpt>
      <trkpt lat="43.30838" lon="-3.15201">
        <ele>552</ele>
        <time>2021-10-28 10:21:27</time>
      </trkpt>
      <trkpt lat="43.30836" lon="-3.15204">
        <ele>552.2</ele>
        <time>2021-10-28 10:21:28</time>
      </trkpt>
      <trkpt lat="43.30836" lon="-3.15204">
        <ele>552.2</ele>
        <time>2021-10-28 10:21:29</time>
      </trkpt>
      <trkpt lat="43.30836" lon="-3.15204">
        <ele>552.2</ele>
        <time>2021-10-28 10:21:30</time>
      </trkpt>
      <trkpt lat="43.30837" lon="-3.15205">
        <ele>552.2</ele>
        <time>2021-10-28 10:21:31</time>
      </trkpt>
      <trkpt lat="43.30837" lon="-3.15205">
        <ele>552.4</ele>
        <time>2021-10-28 10:21:32</time>
      </trkpt>
      <trkpt lat="43.30837" lon="-3.15206">
        <ele>552.4</ele>
        <time>2021-10-28 10:21:33</time>
      </trkpt>
      <trkpt lat="43.30835" lon="-3.15208">
        <ele>552.4</ele>
        <time>2021-10-28 10:21:34</time>
      </trkpt>
      <trkpt lat="43.30837" lon="-3.15209">
        <ele>552.6</ele>
        <time>2021-10-28 10:21:35</time>
      </trkpt>
      <trkpt lat="43.30834" lon="-3.15214">
        <ele>552.8</ele>
        <time>2021-10-28 10:21:36</time>
      </trkpt>
      <trkpt lat="43.30834" lon="-3.15214">
        <ele>553</ele>
        <time>2021-10-28 10:21:37</time>
      </trkpt>
      <trkpt lat="43.30832" lon="-3.15217">
        <ele>553.2</ele>
        <time>2021-10-28 10:21:38</time>
      </trkpt>
      <trkpt lat="43.30832" lon="-3.15217">
        <ele>553.2</ele>
        <time>2021-10-28 10:21:39</time>
      </trkpt>
      <trkpt lat="43.30831" lon="-3.15217">
        <ele>553.4</ele>
        <time>2021-10-28 10:21:40</time>
      </trkpt>
      <trkpt lat="43.30831" lon="-3.15219">
        <ele>553.4</ele>
        <time>2021-10-28 10:21:41</time>
      </trkpt>
      <trkpt lat="43.30831" lon="-3.15222">
        <ele>553.6</ele>
        <time>2021-10-28 10:21:42</time>
      </trkpt>
      <trkpt lat="43.30828" lon="-3.15224">
        <ele>553.8</ele>
        <time>2021-10-28 10:21:43</time>
      </trkpt>
      <trkpt lat="43.30828" lon="-3.15224">
        <ele>554</ele>
        <time>2021-10-28 10:21:44</time>
      </trkpt>
      <trkpt lat="43.30827" lon="-3.15225">
        <ele>554.6</ele>
        <time>2021-10-28 10:21:45</time>
      </trkpt>
      <trkpt lat="43.30825" lon="-3.15229">
        <ele>555</ele>
        <time>2021-10-28 10:21:46</time>
      </trkpt>
      <trkpt lat="43.30825" lon="-3.15229">
        <ele>555.2</ele>
        <time>2021-10-28 10:21:47</time>
      </trkpt>
      <trkpt lat="43.30825" lon="-3.15231">
        <ele>555.4</ele>
        <time>2021-10-28 10:21:48</time>
      </trkpt>
      <trkpt lat="43.30824" lon="-3.15237">
        <ele>555.8</ele>
        <time>2021-10-28 10:21:49</time>
      </trkpt>
      <trkpt lat="43.30822" lon="-3.15238">
        <ele>556.2</ele>
        <time>2021-10-28 10:21:50</time>
      </trkpt>
      <trkpt lat="43.30822" lon="-3.15238">
        <ele>556.6</ele>
        <time>2021-10-28 10:21:51</time>
      </trkpt>
      <trkpt lat="43.3082" lon="-3.15241">
        <ele>556.8</ele>
        <time>2021-10-28 10:21:52</time>
      </trkpt>
      <trkpt lat="43.3082" lon="-3.15241">
        <ele>557</ele>
        <time>2021-10-28 10:21:53</time>
      </trkpt>
      <trkpt lat="43.30819" lon="-3.15241">
        <ele>557</ele>
        <time>2021-10-28 10:21:54</time>
      </trkpt>
      <trkpt lat="43.30816" lon="-3.15244">
        <ele>557</ele>
        <time>2021-10-28 10:21:55</time>
      </trkpt>
      <trkpt lat="43.30816" lon="-3.15244">
        <ele>557</ele>
        <time>2021-10-28 10:21:56</time>
      </trkpt>
      <trkpt lat="43.30815" lon="-3.15247">
        <ele>557</ele>
        <time>2021-10-28 10:21:57</time>
      </trkpt>
      <trkpt lat="43.30815" lon="-3.15247">
        <ele>557.2</ele>
        <time>2021-10-28 10:21:58</time>
      </trkpt>
      <trkpt lat="43.30813" lon="-3.15249">
        <ele>557.6</ele>
        <time>2021-10-28 10:21:59</time>
      </trkpt>
      <trkpt lat="43.30813" lon="-3.15249">
        <ele>558.2</ele>
        <time>2021-10-28 10:22:00</time>
      </trkpt>
      <trkpt lat="43.30809" lon="-3.15253">
        <ele>558.6</ele>
        <time>2021-10-28 10:22:01</time>
      </trkpt>
      <trkpt lat="43.30809" lon="-3.15253">
        <ele>558.8</ele>
        <time>2021-10-28 10:22:02</time>
      </trkpt>
      <trkpt lat="43.30809" lon="-3.15253">
        <ele>559</ele>
        <time>2021-10-28 10:22:03</time>
      </trkpt>
      <trkpt lat="43.30806" lon="-3.15255">
        <ele>559</ele>
        <time>2021-10-28 10:22:04</time>
      </trkpt>
      <trkpt lat="43.30806" lon="-3.15255">
        <ele>559</ele>
        <time>2021-10-28 10:22:05</time>
      </trkpt>
      <trkpt lat="43.30807" lon="-3.15257">
        <ele>559.2</ele>
        <time>2021-10-28 10:22:06</time>
      </trkpt>
      <trkpt lat="43.30805" lon="-3.15257">
        <ele>559.2</ele>
        <time>2021-10-28 10:22:07</time>
      </trkpt>
      <trkpt lat="43.308" lon="-3.1526">
        <ele>559.4</ele>
        <time>2021-10-28 10:22:08</time>
      </trkpt>
      <trkpt lat="43.308" lon="-3.1526">
        <ele>559.6</ele>
        <time>2021-10-28 10:22:09</time>
      </trkpt>
      <trkpt lat="43.308" lon="-3.1526">
        <ele>559.6</ele>
        <time>2021-10-28 10:22:10</time>
      </trkpt>
      <trkpt lat="43.30799" lon="-3.15262">
        <ele>559.8</ele>
        <time>2021-10-28 10:22:11</time>
      </trkpt>
      <trkpt lat="43.30799" lon="-3.15262">
        <ele>560</ele>
        <time>2021-10-28 10:22:12</time>
      </trkpt>
      <trkpt lat="43.30797" lon="-3.15264">
        <ele>560.2</ele>
        <time>2021-10-28 10:22:13</time>
      </trkpt>
      <trkpt lat="43.30794" lon="-3.15264">
        <ele>560.6</ele>
        <time>2021-10-28 10:22:14</time>
      </trkpt>
      <trkpt lat="43.30791" lon="-3.15263">
        <ele>560.8</ele>
        <time>2021-10-28 10:22:15</time>
      </trkpt>
      <trkpt lat="43.3079" lon="-3.15264">
        <ele>561.2</ele>
        <time>2021-10-28 10:22:16</time>
      </trkpt>
      <trkpt lat="43.30789" lon="-3.15264">
        <ele>561.2</ele>
        <time>2021-10-28 10:22:17</time>
      </trkpt>
      <trkpt lat="43.30789" lon="-3.15264">
        <ele>561.4</ele>
        <time>2021-10-28 10:22:18</time>
      </trkpt>
      <trkpt lat="43.30789" lon="-3.15264">
        <ele>561.6</ele>
        <time>2021-10-28 10:22:19</time>
      </trkpt>
      <trkpt lat="43.30788" lon="-3.15263">
        <ele>562</ele>
        <time>2021-10-28 10:22:20</time>
      </trkpt>
      <trkpt lat="43.30785" lon="-3.15258">
        <ele>562.2</ele>
        <time>2021-10-28 10:22:21</time>
      </trkpt>
      <trkpt lat="43.30785" lon="-3.15258">
        <ele>562.4</ele>
        <time>2021-10-28 10:22:22</time>
      </trkpt>
      <trkpt lat="43.30784" lon="-3.15255">
        <ele>562.6</ele>
        <time>2021-10-28 10:22:23</time>
      </trkpt>
      <trkpt lat="43.30784" lon="-3.15255">
        <ele>563</ele>
        <time>2021-10-28 10:22:24</time>
      </trkpt>
      <trkpt lat="43.30784" lon="-3.15253">
        <ele>563.2</ele>
        <time>2021-10-28 10:22:25</time>
      </trkpt>
      <trkpt lat="43.30783" lon="-3.15251">
        <ele>563.4</ele>
        <time>2021-10-28 10:22:26</time>
      </trkpt>
      <trkpt lat="43.30783" lon="-3.15251">
        <ele>563.6</ele>
        <time>2021-10-28 10:22:27</time>
      </trkpt>
      <trkpt lat="43.30782" lon="-3.15247">
        <ele>563.6</ele>
        <time>2021-10-28 10:22:28</time>
      </trkpt>
      <trkpt lat="43.30782" lon="-3.15246">
        <ele>563.6</ele>
        <time>2021-10-28 10:22:29</time>
      </trkpt>
      <trkpt lat="43.30782" lon="-3.15243">
        <ele>563.6</ele>
        <time>2021-10-28 10:22:30</time>
      </trkpt>
      <trkpt lat="43.30782" lon="-3.15243">
        <ele>563.6</ele>
        <time>2021-10-28 10:22:31</time>
      </trkpt>
      <trkpt lat="43.30782" lon="-3.15242">
        <ele>563.8</ele>
        <time>2021-10-28 10:22:32</time>
      </trkpt>
      <trkpt lat="43.30783" lon="-3.15236">
        <ele>563.8</ele>
        <time>2021-10-28 10:22:33</time>
      </trkpt>
      <trkpt lat="43.30783" lon="-3.15236">
        <ele>564</ele>
        <time>2021-10-28 10:22:34</time>
      </trkpt>
      <trkpt lat="43.30782" lon="-3.15235">
        <ele>564.2</ele>
        <time>2021-10-28 10:22:35</time>
      </trkpt>
      <trkpt lat="43.30782" lon="-3.15231">
        <ele>564.2</ele>
        <time>2021-10-28 10:22:36</time>
      </trkpt>
      <trkpt lat="43.30783" lon="-3.15227">
        <ele>564.4</ele>
        <time>2021-10-28 10:22:37</time>
      </trkpt>
      <trkpt lat="43.30783" lon="-3.15227">
        <ele>564.4</ele>
        <time>2021-10-28 10:22:38</time>
      </trkpt>
      <trkpt lat="43.30782" lon="-3.15224">
        <ele>564.4</ele>
        <time>2021-10-28 10:22:39</time>
      </trkpt>
      <trkpt lat="43.30782" lon="-3.15224">
        <ele>564.6</ele>
        <time>2021-10-28 10:22:40</time>
      </trkpt>
      <trkpt lat="43.3078" lon="-3.15217">
        <ele>564.6</ele>
        <time>2021-10-28 10:22:41</time>
      </trkpt>
      <trkpt lat="43.3078" lon="-3.15217">
        <ele>564.6</ele>
        <time>2021-10-28 10:22:42</time>
      </trkpt>
      <trkpt lat="43.3078" lon="-3.15217">
        <ele>564.6</ele>
        <time>2021-10-28 10:22:43</time>
      </trkpt>
      <trkpt lat="43.30781" lon="-3.15214">
        <ele>564.6</ele>
        <time>2021-10-28 10:22:44</time>
      </trkpt>
      <trkpt lat="43.30782" lon="-3.1521">
        <ele>564.6</ele>
        <time>2021-10-28 10:22:45</time>
      </trkpt>
      <trkpt lat="43.30782" lon="-3.1521">
        <ele>564.6</ele>
        <time>2021-10-28 10:22:46</time>
      </trkpt>
      <trkpt lat="43.30781" lon="-3.15207">
        <ele>564.8</ele>
        <time>2021-10-28 10:22:47</time>
      </trkpt>
      <trkpt lat="43.30781" lon="-3.15207">
        <ele>564.8</ele>
        <time>2021-10-28 10:22:48</time>
      </trkpt>
      <trkpt lat="43.30782" lon="-3.15205">
        <ele>565</ele>
        <time>2021-10-28 10:22:49</time>
      </trkpt>
      <trkpt lat="43.30782" lon="-3.15205">
        <ele>565.2</ele>
        <time>2021-10-28 10:22:50</time>
      </trkpt>
      <trkpt lat="43.30781" lon="-3.15203">
        <ele>565.2</ele>
        <time>2021-10-28 10:22:51</time>
      </trkpt>
      <trkpt lat="43.3078" lon="-3.152">
        <ele>565.4</ele>
        <time>2021-10-28 10:22:52</time>
      </trkpt>
      <trkpt lat="43.3078" lon="-3.15195">
        <ele>565.6</ele>
        <time>2021-10-28 10:22:53</time>
      </trkpt>
      <trkpt lat="43.3078" lon="-3.15195">
        <ele>565.8</ele>
        <time>2021-10-28 10:22:54</time>
      </trkpt>
      <trkpt lat="43.30779" lon="-3.15191">
        <ele>566</ele>
        <time>2021-10-28 10:22:55</time>
      </trkpt>
      <trkpt lat="43.30779" lon="-3.1519">
        <ele>566.2</ele>
        <time>2021-10-28 10:22:56</time>
      </trkpt>
      <trkpt lat="43.30779" lon="-3.1519">
        <ele>566.2</ele>
        <time>2021-10-28 10:22:57</time>
      </trkpt>
      <trkpt lat="43.30779" lon="-3.15187">
        <ele>566.4</ele>
        <time>2021-10-28 10:22:58</time>
      </trkpt>
      <trkpt lat="43.30778" lon="-3.15185">
        <ele>566.6</ele>
        <time>2021-10-28 10:22:59</time>
      </trkpt>
      <trkpt lat="43.30778" lon="-3.15182">
        <ele>566.8</ele>
        <time>2021-10-28 10:23:00</time>
      </trkpt>
      <trkpt lat="43.30777" lon="-3.15178">
        <ele>567</ele>
        <time>2021-10-28 10:23:01</time>
      </trkpt>
      <trkpt lat="43.30777" lon="-3.15177">
        <ele>567.2</ele>
        <time>2021-10-28 10:23:02</time>
      </trkpt>
      <trkpt lat="43.30777" lon="-3.15174">
        <ele>567.4</ele>
        <time>2021-10-28 10:23:03</time>
      </trkpt>
      <trkpt lat="43.30778" lon="-3.15173">
        <ele>567.6</ele>
        <time>2021-10-28 10:23:04</time>
      </trkpt>
      <trkpt lat="43.30778" lon="-3.15173">
        <ele>567.6</ele>
        <time>2021-10-28 10:23:05</time>
      </trkpt>
      <trkpt lat="43.30778" lon="-3.15172">
        <ele>567.8</ele>
        <time>2021-10-28 10:23:06</time>
      </trkpt>
      <trkpt lat="43.30777" lon="-3.15169">
        <ele>568</ele>
        <time>2021-10-28 10:23:07</time>
      </trkpt>
      <trkpt lat="43.30777" lon="-3.15164">
        <ele>568</ele>
        <time>2021-10-28 10:23:08</time>
      </trkpt>
      <trkpt lat="43.30777" lon="-3.15164">
        <ele>568.2</ele>
        <time>2021-10-28 10:23:09</time>
      </trkpt>
      <trkpt lat="43.30778" lon="-3.15162">
        <ele>568.4</ele>
        <time>2021-10-28 10:23:10</time>
      </trkpt>
      <trkpt lat="43.30778" lon="-3.15162">
        <ele>568.6</ele>
        <time>2021-10-28 10:23:11</time>
      </trkpt>
      <trkpt lat="43.30779" lon="-3.1516">
        <ele>568.8</ele>
        <time>2021-10-28 10:23:12</time>
      </trkpt>
      <trkpt lat="43.30779" lon="-3.1516">
        <ele>569</ele>
        <time>2021-10-28 10:23:13</time>
      </trkpt>
      <trkpt lat="43.30779" lon="-3.1516">
        <ele>569.2</ele>
        <time>2021-10-28 10:23:14</time>
      </trkpt>
      <trkpt lat="43.30778" lon="-3.15158">
        <ele>569.6</ele>
        <time>2021-10-28 10:23:15</time>
      </trkpt>
      <trkpt lat="43.30778" lon="-3.15158">
        <ele>569.8</ele>
        <time>2021-10-28 10:23:16</time>
      </trkpt>
      <trkpt lat="43.30778" lon="-3.15155">
        <ele>570</ele>
        <time>2021-10-28 10:23:17</time>
      </trkpt>
      <trkpt lat="43.30776" lon="-3.15152">
        <ele>570</ele>
        <time>2021-10-28 10:23:18</time>
      </trkpt>
      <trkpt lat="43.30776" lon="-3.15152">
        <ele>570.2</ele>
        <time>2021-10-28 10:23:19</time>
      </trkpt>
      <trkpt lat="43.30775" lon="-3.15149">
        <ele>570.4</ele>
        <time>2021-10-28 10:23:20</time>
      </trkpt>
      <trkpt lat="43.30775" lon="-3.15149">
        <ele>570.4</ele>
        <time>2021-10-28 10:23:21</time>
      </trkpt>
      <trkpt lat="43.30774" lon="-3.15146">
        <ele>570.6</ele>
        <time>2021-10-28 10:23:22</time>
      </trkpt>
      <trkpt lat="43.30774" lon="-3.15144">
        <ele>570.8</ele>
        <time>2021-10-28 10:23:23</time>
      </trkpt>
      <trkpt lat="43.30772" lon="-3.15141">
        <ele>571</ele>
        <time>2021-10-28 10:23:24</time>
      </trkpt>
      <trkpt lat="43.30772" lon="-3.15141">
        <ele>571.2</ele>
        <time>2021-10-28 10:23:25</time>
      </trkpt>
      <trkpt lat="43.30772" lon="-3.15141">
        <ele>571.4</ele>
        <time>2021-10-28 10:23:26</time>
      </trkpt>
      <trkpt lat="43.30771" lon="-3.15138">
        <ele>571.6</ele>
        <time>2021-10-28 10:23:27</time>
      </trkpt>
      <trkpt lat="43.30771" lon="-3.15138">
        <ele>571.8</ele>
        <time>2021-10-28 10:23:28</time>
      </trkpt>
      <trkpt lat="43.30772" lon="-3.15135">
        <ele>572</ele>
        <time>2021-10-28 10:23:29</time>
      </trkpt>
      <trkpt lat="43.3077" lon="-3.15132">
        <ele>572.4</ele>
        <time>2021-10-28 10:23:30</time>
      </trkpt>
      <trkpt lat="43.3077" lon="-3.15132">
        <ele>572.6</ele>
        <time>2021-10-28 10:23:31</time>
      </trkpt>
      <trkpt lat="43.30771" lon="-3.15126">
        <ele>573</ele>
        <time>2021-10-28 10:23:32</time>
      </trkpt>
      <trkpt lat="43.30771" lon="-3.15126">
        <ele>573.2</ele>
        <time>2021-10-28 10:23:33</time>
      </trkpt>
      <trkpt lat="43.30771" lon="-3.15126">
        <ele>573.6</ele>
        <time>2021-10-28 10:23:34</time>
      </trkpt>
      <trkpt lat="43.30771" lon="-3.15124">
        <ele>574</ele>
        <time>2021-10-28 10:23:35</time>
      </trkpt>
      <trkpt lat="43.30771" lon="-3.15121">
        <ele>574.2</ele>
        <time>2021-10-28 10:23:36</time>
      </trkpt>
      <trkpt lat="43.3077" lon="-3.15118">
        <ele>574.4</ele>
        <time>2021-10-28 10:23:37</time>
      </trkpt>
      <trkpt lat="43.30771" lon="-3.15114">
        <ele>574.6</ele>
        <time>2021-10-28 10:23:38</time>
      </trkpt>
      <trkpt lat="43.3077" lon="-3.15113">
        <ele>574.8</ele>
        <time>2021-10-28 10:23:39</time>
      </trkpt>
      <trkpt lat="43.3077" lon="-3.15113">
        <ele>574.8</ele>
        <time>2021-10-28 10:23:40</time>
      </trkpt>
      <trkpt lat="43.30769" lon="-3.15111">
        <ele>574.8</ele>
        <time>2021-10-28 10:23:41</time>
      </trkpt>
      <trkpt lat="43.30767" lon="-3.15108">
        <ele>574.8</ele>
        <time>2021-10-28 10:23:42</time>
      </trkpt>
      <trkpt lat="43.30766" lon="-3.15105">
        <ele>574.6</ele>
        <time>2021-10-28 10:23:43</time>
      </trkpt>
      <trkpt lat="43.30765" lon="-3.15101">
        <ele>574.6</ele>
        <time>2021-10-28 10:23:44</time>
      </trkpt>
      <trkpt lat="43.30765" lon="-3.15101">
        <ele>574.6</ele>
        <time>2021-10-28 10:23:45</time>
      </trkpt>
      <trkpt lat="43.30765" lon="-3.15097">
        <ele>574.6</ele>
        <time>2021-10-28 10:23:46</time>
      </trkpt>
      <trkpt lat="43.30765" lon="-3.15097">
        <ele>574.8</ele>
        <time>2021-10-28 10:23:47</time>
      </trkpt>
      <trkpt lat="43.30765" lon="-3.15097">
        <ele>575</ele>
        <time>2021-10-28 10:23:48</time>
      </trkpt>
      <trkpt lat="43.30762" lon="-3.15092">
        <ele>575.2</ele>
        <time>2021-10-28 10:23:49</time>
      </trkpt>
      <trkpt lat="43.30762" lon="-3.15092">
        <ele>575.4</ele>
        <time>2021-10-28 10:23:50</time>
      </trkpt>
      <trkpt lat="43.3076" lon="-3.1509">
        <ele>575.6</ele>
        <time>2021-10-28 10:23:51</time>
      </trkpt>
      <trkpt lat="43.3076" lon="-3.1509">
        <ele>575.8</ele>
        <time>2021-10-28 10:23:52</time>
      </trkpt>
      <trkpt lat="43.30757" lon="-3.15086">
        <ele>576</ele>
        <time>2021-10-28 10:23:53</time>
      </trkpt>
      <trkpt lat="43.30757" lon="-3.15086">
        <ele>576.2</ele>
        <time>2021-10-28 10:23:54</time>
      </trkpt>
      <trkpt lat="43.30755" lon="-3.15078">
        <ele>576.2</ele>
        <time>2021-10-28 10:23:55</time>
      </trkpt>
      <trkpt lat="43.30755" lon="-3.15078">
        <ele>576.4</ele>
        <time>2021-10-28 10:23:56</time>
      </trkpt>
      <trkpt lat="43.30755" lon="-3.15078">
        <ele>576.6</ele>
        <time>2021-10-28 10:23:57</time>
      </trkpt>
      <trkpt lat="43.30755" lon="-3.15078">
        <ele>576.8</ele>
        <time>2021-10-28 10:23:58</time>
      </trkpt>
      <trkpt lat="43.30755" lon="-3.1507">
        <ele>577</ele>
        <time>2021-10-28 10:23:59</time>
      </trkpt>
      <trkpt lat="43.30755" lon="-3.1507">
        <ele>577.2</ele>
        <time>2021-10-28 10:24:00</time>
      </trkpt>
      <trkpt lat="43.30755" lon="-3.1507">
        <ele>577.4</ele>
        <time>2021-10-28 10:24:01</time>
      </trkpt>
      <trkpt lat="43.30754" lon="-3.15067">
        <ele>577.6</ele>
        <time>2021-10-28 10:24:02</time>
      </trkpt>
      <trkpt lat="43.30754" lon="-3.15064">
        <ele>577.8</ele>
        <time>2021-10-28 10:24:03</time>
      </trkpt>
      <trkpt lat="43.30754" lon="-3.15064">
        <ele>578.2</ele>
        <time>2021-10-28 10:24:04</time>
      </trkpt>
      <trkpt lat="43.30753" lon="-3.15057">
        <ele>578.4</ele>
        <time>2021-10-28 10:24:05</time>
      </trkpt>
      <trkpt lat="43.30753" lon="-3.15057">
        <ele>578.8</ele>
        <time>2021-10-28 10:24:06</time>
      </trkpt>
      <trkpt lat="43.30752" lon="-3.15051">
        <ele>579.2</ele>
        <time>2021-10-28 10:24:07</time>
      </trkpt>
      <trkpt lat="43.30752" lon="-3.15051">
        <ele>579.6</ele>
        <time>2021-10-28 10:24:08</time>
      </trkpt>
      <trkpt lat="43.30752" lon="-3.15051">
        <ele>580</ele>
        <time>2021-10-28 10:24:09</time>
      </trkpt>
      <trkpt lat="43.30753" lon="-3.15053">
        <ele>580.2</ele>
        <time>2021-10-28 10:24:10</time>
      </trkpt>
      <trkpt lat="43.30753" lon="-3.15053">
        <ele>580.6</ele>
        <time>2021-10-28 10:24:11</time>
      </trkpt>
      <trkpt lat="43.30751" lon="-3.15049">
        <ele>580.6</ele>
        <time>2021-10-28 10:24:12</time>
      </trkpt>
      <trkpt lat="43.30751" lon="-3.15046">
        <ele>580.8</ele>
        <time>2021-10-28 10:24:13</time>
      </trkpt>
      <trkpt lat="43.30751" lon="-3.15046">
        <ele>580.8</ele>
        <time>2021-10-28 10:24:14</time>
      </trkpt>
      <trkpt lat="43.30752" lon="-3.1504">
        <ele>580.8</ele>
        <time>2021-10-28 10:24:15</time>
      </trkpt>
      <trkpt lat="43.30752" lon="-3.1504">
        <ele>580.8</ele>
        <time>2021-10-28 10:24:16</time>
      </trkpt>
      <trkpt lat="43.30754" lon="-3.15038">
        <ele>581</ele>
        <time>2021-10-28 10:24:17</time>
      </trkpt>
      <trkpt lat="43.30753" lon="-3.15034">
        <ele>581</ele>
        <time>2021-10-28 10:24:18</time>
      </trkpt>
      <trkpt lat="43.30752" lon="-3.1503">
        <ele>581.2</ele>
        <time>2021-10-28 10:24:19</time>
      </trkpt>
      <trkpt lat="43.30752" lon="-3.1503">
        <ele>581.4</ele>
        <time>2021-10-28 10:24:20</time>
      </trkpt>
      <trkpt lat="43.30752" lon="-3.1503">
        <ele>581.4</ele>
        <time>2021-10-28 10:24:21</time>
      </trkpt>
      <trkpt lat="43.30752" lon="-3.15026">
        <ele>581.6</ele>
        <time>2021-10-28 10:24:22</time>
      </trkpt>
      <trkpt lat="43.30752" lon="-3.15026">
        <ele>581.8</ele>
        <time>2021-10-28 10:24:23</time>
      </trkpt>
      <trkpt lat="43.30752" lon="-3.15026">
        <ele>581.8</ele>
        <time>2021-10-28 10:24:24</time>
      </trkpt>
      <trkpt lat="43.30749" lon="-3.15027">
        <ele>582</ele>
        <time>2021-10-28 10:24:25</time>
      </trkpt>
      <trkpt lat="43.30749" lon="-3.15025">
        <ele>582</ele>
        <time>2021-10-28 10:24:26</time>
      </trkpt>
      <trkpt lat="43.30748" lon="-3.15023">
        <ele>582</ele>
        <time>2021-10-28 10:24:27</time>
      </trkpt>
      <trkpt lat="43.30748" lon="-3.15023">
        <ele>582.2</ele>
        <time>2021-10-28 10:24:28</time>
      </trkpt>
      <trkpt lat="43.30746" lon="-3.1502">
        <ele>582.4</ele>
        <time>2021-10-28 10:24:29</time>
      </trkpt>
      <trkpt lat="43.30746" lon="-3.1502">
        <ele>582.6</ele>
        <time>2021-10-28 10:24:30</time>
      </trkpt>
      <trkpt lat="43.30742" lon="-3.15013">
        <ele>583</ele>
        <time>2021-10-28 10:24:31</time>
      </trkpt>
      <trkpt lat="43.30742" lon="-3.15013">
        <ele>583.2</ele>
        <time>2021-10-28 10:24:32</time>
      </trkpt>
      <trkpt lat="43.30742" lon="-3.15013">
        <ele>583.2</ele>
        <time>2021-10-28 10:24:33</time>
      </trkpt>
      <trkpt lat="43.3074" lon="-3.15012">
        <ele>583.4</ele>
        <time>2021-10-28 10:24:34</time>
      </trkpt>
      <trkpt lat="43.3074" lon="-3.15012">
        <ele>583.4</ele>
        <time>2021-10-28 10:24:35</time>
      </trkpt>
      <trkpt lat="43.30738" lon="-3.15011">
        <ele>583.6</ele>
        <time>2021-10-28 10:24:36</time>
      </trkpt>
      <trkpt lat="43.30738" lon="-3.15011">
        <ele>583.8</ele>
        <time>2021-10-28 10:24:37</time>
      </trkpt>
      <trkpt lat="43.30735" lon="-3.15006">
        <ele>584</ele>
        <time>2021-10-28 10:24:38</time>
      </trkpt>
      <trkpt lat="43.30734" lon="-3.15006">
        <ele>584.2</ele>
        <time>2021-10-28 10:24:39</time>
      </trkpt>
      <trkpt lat="43.30734" lon="-3.15006">
        <ele>584.6</ele>
        <time>2021-10-28 10:24:40</time>
      </trkpt>
      <trkpt lat="43.30733" lon="-3.15004">
        <ele>584.8</ele>
        <time>2021-10-28 10:24:41</time>
      </trkpt>
      <trkpt lat="43.30731" lon="-3.15003">
        <ele>585</ele>
        <time>2021-10-28 10:24:42</time>
      </trkpt>
      <trkpt lat="43.30729" lon="-3.15">
        <ele>585.4</ele>
        <time>2021-10-28 10:24:43</time>
      </trkpt>
      <trkpt lat="43.30729" lon="-3.15">
        <ele>585.6</ele>
        <time>2021-10-28 10:24:44</time>
      </trkpt>
      <trkpt lat="43.30729" lon="-3.15">
        <ele>585.8</ele>
        <time>2021-10-28 10:24:45</time>
      </trkpt>
      <trkpt lat="43.30727" lon="-3.14995">
        <ele>586</ele>
        <time>2021-10-28 10:24:46</time>
      </trkpt>
      <trkpt lat="43.30727" lon="-3.14995">
        <ele>586.2</ele>
        <time>2021-10-28 10:24:47</time>
      </trkpt>
      <trkpt lat="43.30727" lon="-3.14993">
        <ele>586.2</ele>
        <time>2021-10-28 10:24:48</time>
      </trkpt>
      <trkpt lat="43.30724" lon="-3.14992">
        <ele>586.4</ele>
        <time>2021-10-28 10:24:49</time>
      </trkpt>
      <trkpt lat="43.30724" lon="-3.14992">
        <ele>586.4</ele>
        <time>2021-10-28 10:24:50</time>
      </trkpt>
      <trkpt lat="43.30723" lon="-3.14991">
        <ele>586.6</ele>
        <time>2021-10-28 10:24:51</time>
      </trkpt>
      <trkpt lat="43.30723" lon="-3.14991">
        <ele>586.8</ele>
        <time>2021-10-28 10:24:52</time>
      </trkpt>
      <trkpt lat="43.30722" lon="-3.14989">
        <ele>587.2</ele>
        <time>2021-10-28 10:24:53</time>
      </trkpt>
      <trkpt lat="43.30718" lon="-3.14985">
        <ele>587.4</ele>
        <time>2021-10-28 10:24:54</time>
      </trkpt>
      <trkpt lat="43.30714" lon="-3.14981">
        <ele>587.6</ele>
        <time>2021-10-28 10:24:55</time>
      </trkpt>
      <trkpt lat="43.30714" lon="-3.14981">
        <ele>587.8</ele>
        <time>2021-10-28 10:24:56</time>
      </trkpt>
      <trkpt lat="43.30714" lon="-3.14981">
        <ele>588</ele>
        <time>2021-10-28 10:24:57</time>
      </trkpt>
      <trkpt lat="43.30713" lon="-3.14975">
        <ele>588</ele>
        <time>2021-10-28 10:24:58</time>
      </trkpt>
      <trkpt lat="43.30713" lon="-3.14975">
        <ele>588.2</ele>
        <time>2021-10-28 10:24:59</time>
      </trkpt>
      <trkpt lat="43.30711" lon="-3.14974">
        <ele>588.2</ele>
        <time>2021-10-28 10:25:00</time>
      </trkpt>
      <trkpt lat="43.30711" lon="-3.14973">
        <ele>588.4</ele>
        <time>2021-10-28 10:25:01</time>
      </trkpt>
      <trkpt lat="43.3071" lon="-3.14971">
        <ele>588.6</ele>
        <time>2021-10-28 10:25:02</time>
      </trkpt>
      <trkpt lat="43.30708" lon="-3.14968">
        <ele>588.6</ele>
        <time>2021-10-28 10:25:03</time>
      </trkpt>
      <trkpt lat="43.30708" lon="-3.14968">
        <ele>588.8</ele>
        <time>2021-10-28 10:25:04</time>
      </trkpt>
      <trkpt lat="43.30707" lon="-3.14965">
        <ele>588.8</ele>
        <time>2021-10-28 10:25:05</time>
      </trkpt>
      <trkpt lat="43.30707" lon="-3.14965">
        <ele>589</ele>
        <time>2021-10-28 10:25:06</time>
      </trkpt>
      <trkpt lat="43.30706" lon="-3.14962">
        <ele>589.2</ele>
        <time>2021-10-28 10:25:07</time>
      </trkpt>
      <trkpt lat="43.30705" lon="-3.14958">
        <ele>589.4</ele>
        <time>2021-10-28 10:25:08</time>
      </trkpt>
      <trkpt lat="43.30705" lon="-3.14956">
        <ele>589.4</ele>
        <time>2021-10-28 10:25:09</time>
      </trkpt>
      <trkpt lat="43.30704" lon="-3.14957">
        <ele>589.6</ele>
        <time>2021-10-28 10:25:10</time>
      </trkpt>
      <trkpt lat="43.30704" lon="-3.14957">
        <ele>589.8</ele>
        <time>2021-10-28 10:25:11</time>
      </trkpt>
      <trkpt lat="43.30703" lon="-3.14954">
        <ele>590</ele>
        <time>2021-10-28 10:25:12</time>
      </trkpt>
      <trkpt lat="43.30703" lon="-3.14954">
        <ele>590.2</ele>
        <time>2021-10-28 10:25:13</time>
      </trkpt>
      <trkpt lat="43.30701" lon="-3.14949">
        <ele>590.4</ele>
        <time>2021-10-28 10:25:14</time>
      </trkpt>
      <trkpt lat="43.307" lon="-3.14946">
        <ele>590.6</ele>
        <time>2021-10-28 10:25:15</time>
      </trkpt>
      <trkpt lat="43.307" lon="-3.14946">
        <ele>590.8</ele>
        <time>2021-10-28 10:25:16</time>
      </trkpt>
      <trkpt lat="43.30699" lon="-3.14945">
        <ele>591</ele>
        <time>2021-10-28 10:25:17</time>
      </trkpt>
      <trkpt lat="43.30699" lon="-3.14945">
        <ele>591.2</ele>
        <time>2021-10-28 10:25:18</time>
      </trkpt>
      <trkpt lat="43.30696" lon="-3.14941">
        <ele>591.4</ele>
        <time>2021-10-28 10:25:19</time>
      </trkpt>
      <trkpt lat="43.30696" lon="-3.14941">
        <ele>591.6</ele>
        <time>2021-10-28 10:25:20</time>
      </trkpt>
      <trkpt lat="43.30696" lon="-3.14941">
        <ele>591.8</ele>
        <time>2021-10-28 10:25:21</time>
      </trkpt>
      <trkpt lat="43.30695" lon="-3.14935">
        <ele>592</ele>
        <time>2021-10-28 10:25:22</time>
      </trkpt>
      <trkpt lat="43.30695" lon="-3.14935">
        <ele>592</ele>
        <time>2021-10-28 10:25:23</time>
      </trkpt>
      <trkpt lat="43.30694" lon="-3.14933">
        <ele>592.2</ele>
        <time>2021-10-28 10:25:24</time>
      </trkpt>
      <trkpt lat="43.30694" lon="-3.1493">
        <ele>592.2</ele>
        <time>2021-10-28 10:25:25</time>
      </trkpt>
      <trkpt lat="43.30693" lon="-3.1493">
        <ele>592.2</ele>
        <time>2021-10-28 10:25:26</time>
      </trkpt>
      <trkpt lat="43.30693" lon="-3.1493">
        <ele>592.2</ele>
        <time>2021-10-28 10:25:27</time>
      </trkpt>
      <trkpt lat="43.30693" lon="-3.14927">
        <ele>592.2</ele>
        <time>2021-10-28 10:25:28</time>
      </trkpt>
      <trkpt lat="43.30693" lon="-3.14927">
        <ele>592.2</ele>
        <time>2021-10-28 10:25:29</time>
      </trkpt>
      <trkpt lat="43.30691" lon="-3.1493">
        <ele>592.2</ele>
        <time>2021-10-28 10:25:30</time>
      </trkpt>
      <trkpt lat="43.30691" lon="-3.1493">
        <ele>592.4</ele>
        <time>2021-10-28 10:25:31</time>
      </trkpt>
      <trkpt lat="43.30689" lon="-3.14927">
        <ele>592.4</ele>
        <time>2021-10-28 10:25:32</time>
      </trkpt>
      <trkpt lat="43.30689" lon="-3.14927">
        <ele>592.6</ele>
        <time>2021-10-28 10:25:33</time>
      </trkpt>
      <trkpt lat="43.30687" lon="-3.14921">
        <ele>592.6</ele>
        <time>2021-10-28 10:25:34</time>
      </trkpt>
      <trkpt lat="43.30687" lon="-3.14921">
        <ele>592.8</ele>
        <time>2021-10-28 10:25:35</time>
      </trkpt>
      <trkpt lat="43.30686" lon="-3.14918">
        <ele>593</ele>
        <time>2021-10-28 10:25:36</time>
      </trkpt>
      <trkpt lat="43.30686" lon="-3.14918">
        <ele>593.2</ele>
        <time>2021-10-28 10:25:37</time>
      </trkpt>
      <trkpt lat="43.30683" lon="-3.14909">
        <ele>593.4</ele>
        <time>2021-10-28 10:25:38</time>
      </trkpt>
      <trkpt lat="43.30683" lon="-3.14909">
        <ele>593.6</ele>
        <time>2021-10-28 10:25:39</time>
      </trkpt>
      <trkpt lat="43.30683" lon="-3.14909">
        <ele>593.6</ele>
        <time>2021-10-28 10:25:40</time>
      </trkpt>
      <trkpt lat="43.30682" lon="-3.14907">
        <ele>593.8</ele>
        <time>2021-10-28 10:25:41</time>
      </trkpt>
      <trkpt lat="43.3068" lon="-3.14902">
        <ele>593.8</ele>
        <time>2021-10-28 10:25:42</time>
      </trkpt>
      <trkpt lat="43.30678" lon="-3.149">
        <ele>593.8</ele>
        <time>2021-10-28 10:25:43</time>
      </trkpt>
      <trkpt lat="43.30678" lon="-3.149">
        <ele>593.8</ele>
        <time>2021-10-28 10:25:44</time>
      </trkpt>
      <trkpt lat="43.30678" lon="-3.149">
        <ele>593.8</ele>
        <time>2021-10-28 10:25:45</time>
      </trkpt>
      <trkpt lat="43.30676" lon="-3.14893">
        <ele>594</ele>
        <time>2021-10-28 10:25:46</time>
      </trkpt>
      <trkpt lat="43.30676" lon="-3.14893">
        <ele>594</ele>
        <time>2021-10-28 10:25:47</time>
      </trkpt>
      <trkpt lat="43.30676" lon="-3.14888">
        <ele>594</ele>
        <time>2021-10-28 10:25:48</time>
      </trkpt>
      <trkpt lat="43.30676" lon="-3.14888">
        <ele>594</ele>
        <time>2021-10-28 10:25:49</time>
      </trkpt>
      <trkpt lat="43.30672" lon="-3.14887">
        <ele>594.2</ele>
        <time>2021-10-28 10:25:50</time>
      </trkpt>
      <trkpt lat="43.30672" lon="-3.14887">
        <ele>594.4</ele>
        <time>2021-10-28 10:25:51</time>
      </trkpt>
      <trkpt lat="43.30672" lon="-3.14887">
        <ele>594.8</ele>
        <time>2021-10-28 10:25:52</time>
      </trkpt>
      <trkpt lat="43.30669" lon="-3.1488">
        <ele>595</ele>
        <time>2021-10-28 10:25:53</time>
      </trkpt>
      <trkpt lat="43.30669" lon="-3.1488">
        <ele>595.4</ele>
        <time>2021-10-28 10:25:54</time>
      </trkpt>
      <trkpt lat="43.30669" lon="-3.1488">
        <ele>595.8</ele>
        <time>2021-10-28 10:25:55</time>
      </trkpt>
      <trkpt lat="43.30668" lon="-3.14872">
        <ele>596.2</ele>
        <time>2021-10-28 10:25:56</time>
      </trkpt>
      <trkpt lat="43.30668" lon="-3.1487">
        <ele>596.2</ele>
        <time>2021-10-28 10:25:57</time>
      </trkpt>
      <trkpt lat="43.30668" lon="-3.1487">
        <ele>596.4</ele>
        <time>2021-10-28 10:25:58</time>
      </trkpt>
      <trkpt lat="43.30667" lon="-3.14867">
        <ele>596.4</ele>
        <time>2021-10-28 10:25:59</time>
      </trkpt>
      <trkpt lat="43.30667" lon="-3.14867">
        <ele>596.2</ele>
        <time>2021-10-28 10:26:00</time>
      </trkpt>
      <trkpt lat="43.30667" lon="-3.14867">
        <ele>596.2</ele>
        <time>2021-10-28 10:26:01</time>
      </trkpt>
      <trkpt lat="43.30668" lon="-3.14861">
        <ele>596.2</ele>
        <time>2021-10-28 10:26:02</time>
      </trkpt>
      <trkpt lat="43.30664" lon="-3.14857">
        <ele>596.4</ele>
        <time>2021-10-28 10:26:03</time>
      </trkpt>
      <trkpt lat="43.30663" lon="-3.14853">
        <ele>596.4</ele>
        <time>2021-10-28 10:26:04</time>
      </trkpt>
      <trkpt lat="43.30661" lon="-3.14851">
        <ele>596.6</ele>
        <time>2021-10-28 10:26:05</time>
      </trkpt>
      <trkpt lat="43.30661" lon="-3.14851">
        <ele>596.8</ele>
        <time>2021-10-28 10:26:06</time>
      </trkpt>
      <trkpt lat="43.30658" lon="-3.14847">
        <ele>597</ele>
        <time>2021-10-28 10:26:07</time>
      </trkpt>
      <trkpt lat="43.30658" lon="-3.14847">
        <ele>597</ele>
        <time>2021-10-28 10:26:08</time>
      </trkpt>
      <trkpt lat="43.30654" lon="-3.14844">
        <ele>597.2</ele>
        <time>2021-10-28 10:26:09</time>
      </trkpt>
      <trkpt lat="43.30654" lon="-3.14844">
        <ele>597.4</ele>
        <time>2021-10-28 10:26:10</time>
      </trkpt>
      <trkpt lat="43.30652" lon="-3.1484">
        <ele>597.4</ele>
        <time>2021-10-28 10:26:11</time>
      </trkpt>
      <trkpt lat="43.30651" lon="-3.14838">
        <ele>597.4</ele>
        <time>2021-10-28 10:26:12</time>
      </trkpt>
      <trkpt lat="43.30651" lon="-3.14838">
        <ele>597.4</ele>
        <time>2021-10-28 10:26:13</time>
      </trkpt>
      <trkpt lat="43.3065" lon="-3.14832">
        <ele>597.4</ele>
        <time>2021-10-28 10:26:14</time>
      </trkpt>
      <trkpt lat="43.3065" lon="-3.14832">
        <ele>597.4</ele>
        <time>2021-10-28 10:26:15</time>
      </trkpt>
      <trkpt lat="43.30644" lon="-3.14828">
        <ele>597.4</ele>
        <time>2021-10-28 10:26:16</time>
      </trkpt>
      <trkpt lat="43.30644" lon="-3.14828">
        <ele>597.4</ele>
        <time>2021-10-28 10:26:17</time>
      </trkpt>
      <trkpt lat="43.30644" lon="-3.14825">
        <ele>597.4</ele>
        <time>2021-10-28 10:26:18</time>
      </trkpt>
      <trkpt lat="43.30644" lon="-3.14825">
        <ele>597.6</ele>
        <time>2021-10-28 10:26:19</time>
      </trkpt>
      <trkpt lat="43.30641" lon="-3.1482">
        <ele>597.6</ele>
        <time>2021-10-28 10:26:20</time>
      </trkpt>
      <trkpt lat="43.30641" lon="-3.1482">
        <ele>597.8</ele>
        <time>2021-10-28 10:26:21</time>
      </trkpt>
      <trkpt lat="43.30639" lon="-3.14819">
        <ele>598</ele>
        <time>2021-10-28 10:26:22</time>
      </trkpt>
      <trkpt lat="43.30637" lon="-3.14815">
        <ele>598.2</ele>
        <time>2021-10-28 10:26:23</time>
      </trkpt>
      <trkpt lat="43.30636" lon="-3.14813">
        <ele>598.4</ele>
        <time>2021-10-28 10:26:24</time>
      </trkpt>
      <trkpt lat="43.30636" lon="-3.14813">
        <ele>598.6</ele>
        <time>2021-10-28 10:26:25</time>
      </trkpt>
      <trkpt lat="43.30635" lon="-3.14812">
        <ele>598.8</ele>
        <time>2021-10-28 10:26:26</time>
      </trkpt>
      <trkpt lat="43.30633" lon="-3.14812">
        <ele>599</ele>
        <time>2021-10-28 10:26:27</time>
      </trkpt>
      <trkpt lat="43.30631" lon="-3.14812">
        <ele>599</ele>
        <time>2021-10-28 10:26:28</time>
      </trkpt>
      <trkpt lat="43.30625" lon="-3.14809">
        <ele>599</ele>
        <time>2021-10-28 10:26:29</time>
      </trkpt>
      <trkpt lat="43.30625" lon="-3.14809">
        <ele>599</ele>
        <time>2021-10-28 10:26:30</time>
      </trkpt>
      <trkpt lat="43.3062" lon="-3.14809">
        <ele>599</ele>
        <time>2021-10-28 10:26:31</time>
      </trkpt>
      <trkpt lat="43.3062" lon="-3.14809">
        <ele>599.2</ele>
        <time>2021-10-28 10:26:32</time>
      </trkpt>
      <trkpt lat="43.30616" lon="-3.14807">
        <ele>599.4</ele>
        <time>2021-10-28 10:26:33</time>
      </trkpt>
      <trkpt lat="43.30616" lon="-3.14807">
        <ele>599.4</ele>
        <time>2021-10-28 10:26:34</time>
      </trkpt>
      <trkpt lat="43.30609" lon="-3.14806">
        <ele>599.4</ele>
        <time>2021-10-28 10:26:35</time>
      </trkpt>
      <trkpt lat="43.30609" lon="-3.14806">
        <ele>599.6</ele>
        <time>2021-10-28 10:26:36</time>
      </trkpt>
      <trkpt lat="43.30609" lon="-3.14806">
        <ele>599.8</ele>
        <time>2021-10-28 10:26:37</time>
      </trkpt>
      <trkpt lat="43.30609" lon="-3.14806">
        <ele>600</ele>
        <time>2021-10-28 10:26:38</time>
      </trkpt>
      <trkpt lat="43.30603" lon="-3.14806">
        <ele>600</ele>
        <time>2021-10-28 10:26:39</time>
      </trkpt>
      <trkpt lat="43.30603" lon="-3.14806">
        <ele>600.2</ele>
        <time>2021-10-28 10:26:40</time>
      </trkpt>
      <trkpt lat="43.306" lon="-3.14804">
        <ele>600.2</ele>
        <time>2021-10-28 10:26:41</time>
      </trkpt>
      <trkpt lat="43.306" lon="-3.14804">
        <ele>600.2</ele>
        <time>2021-10-28 10:26:42</time>
      </trkpt>
      <trkpt lat="43.30598" lon="-3.14802">
        <ele>600.2</ele>
        <time>2021-10-28 10:26:43</time>
      </trkpt>
      <trkpt lat="43.30598" lon="-3.14802">
        <ele>600.4</ele>
        <time>2021-10-28 10:26:44</time>
      </trkpt>
      <trkpt lat="43.30595" lon="-3.14798">
        <ele>600.4</ele>
        <time>2021-10-28 10:26:45</time>
      </trkpt>
      <trkpt lat="43.30591" lon="-3.14797">
        <ele>600.6</ele>
        <time>2021-10-28 10:26:46</time>
      </trkpt>
      <trkpt lat="43.30591" lon="-3.14797">
        <ele>600.8</ele>
        <time>2021-10-28 10:26:47</time>
      </trkpt>
      <trkpt lat="43.30589" lon="-3.14794">
        <ele>601</ele>
        <time>2021-10-28 10:26:48</time>
      </trkpt>
      <trkpt lat="43.30587" lon="-3.14795">
        <ele>601.2</ele>
        <time>2021-10-28 10:26:49</time>
      </trkpt>
      <trkpt lat="43.30582" lon="-3.14795">
        <ele>601.2</ele>
        <time>2021-10-28 10:26:50</time>
      </trkpt>
      <trkpt lat="43.30582" lon="-3.14795">
        <ele>601</ele>
        <time>2021-10-28 10:26:51</time>
      </trkpt>
      <trkpt lat="43.30579" lon="-3.14793">
        <ele>601</ele>
        <time>2021-10-28 10:26:52</time>
      </trkpt>
      <trkpt lat="43.30579" lon="-3.14793">
        <ele>600.8</ele>
        <time>2021-10-28 10:26:53</time>
      </trkpt>
      <trkpt lat="43.30571" lon="-3.14789">
        <ele>600.6</ele>
        <time>2021-10-28 10:26:54</time>
      </trkpt>
      <trkpt lat="43.30571" lon="-3.14789">
        <ele>600.6</ele>
        <time>2021-10-28 10:26:55</time>
      </trkpt>
      <trkpt lat="43.30571" lon="-3.14789">
        <ele>600.6</ele>
        <time>2021-10-28 10:26:56</time>
      </trkpt>
      <trkpt lat="43.30569" lon="-3.14789">
        <ele>600.8</ele>
        <time>2021-10-28 10:26:57</time>
      </trkpt>
      <trkpt lat="43.30568" lon="-3.14787">
        <ele>601</ele>
        <time>2021-10-28 10:26:58</time>
      </trkpt>
      <trkpt lat="43.30566" lon="-3.14786">
        <ele>601.2</ele>
        <time>2021-10-28 10:26:59</time>
      </trkpt>
      <trkpt lat="43.30563" lon="-3.14787">
        <ele>601.6</ele>
        <time>2021-10-28 10:27:00</time>
      </trkpt>
      <trkpt lat="43.30563" lon="-3.14787">
        <ele>601.8</ele>
        <time>2021-10-28 10:27:01</time>
      </trkpt>
      <trkpt lat="43.30561" lon="-3.1479">
        <ele>602</ele>
        <time>2021-10-28 10:27:02</time>
      </trkpt>
      <trkpt lat="43.30561" lon="-3.1479">
        <ele>602.2</ele>
        <time>2021-10-28 10:27:03</time>
      </trkpt>
      <trkpt lat="43.30557" lon="-3.14789">
        <ele>602.2</ele>
        <time>2021-10-28 10:27:04</time>
      </trkpt>
      <trkpt lat="43.30557" lon="-3.14789">
        <ele>602.2</ele>
        <time>2021-10-28 10:27:05</time>
      </trkpt>
      <trkpt lat="43.30557" lon="-3.14789">
        <ele>602.2</ele>
        <time>2021-10-28 10:27:06</time>
      </trkpt>
      <trkpt lat="43.30556" lon="-3.14791">
        <ele>602.2</ele>
        <time>2021-10-28 10:27:07</time>
      </trkpt>
      <trkpt lat="43.30558" lon="-3.14793">
        <ele>602.2</ele>
        <time>2021-10-28 10:27:08</time>
      </trkpt>
      <trkpt lat="43.3056" lon="-3.14795">
        <ele>602.4</ele>
        <time>2021-10-28 10:27:09</time>
      </trkpt>
      <trkpt lat="43.3056" lon="-3.14795">
        <ele>602.6</ele>
        <time>2021-10-28 10:27:10</time>
      </trkpt>
      <trkpt lat="43.3056" lon="-3.14795">
        <ele>602.8</ele>
        <time>2021-10-28 10:27:11</time>
      </trkpt>
      <trkpt lat="43.30562" lon="-3.14796">
        <ele>603</ele>
        <time>2021-10-28 10:27:12</time>
      </trkpt>
      <trkpt lat="43.30562" lon="-3.14798">
        <ele>603.2</ele>
        <time>2021-10-28 10:27:13</time>
      </trkpt>
      <trkpt lat="43.30562" lon="-3.14798">
        <ele>603.2</ele>
        <time>2021-10-28 10:27:14</time>
      </trkpt>
      <trkpt lat="43.30562" lon="-3.14798">
        <ele>603.4</ele>
        <time>2021-10-28 10:27:15</time>
      </trkpt>
      <trkpt lat="43.30565" lon="-3.14801">
        <ele>603.4</ele>
        <time>2021-10-28 10:27:16</time>
      </trkpt>
      <trkpt lat="43.30565" lon="-3.14801">
        <ele>603.4</ele>
        <time>2021-10-28 10:27:17</time>
      </trkpt>
      <trkpt lat="43.30565" lon="-3.14801">
        <ele>603.4</ele>
        <time>2021-10-28 10:27:18</time>
      </trkpt>
      <trkpt lat="43.30568" lon="-3.14804">
        <ele>603.6</ele>
        <time>2021-10-28 10:27:19</time>
      </trkpt>
      <trkpt lat="43.30573" lon="-3.14809">
        <ele>603.8</ele>
        <time>2021-10-28 10:27:20</time>
      </trkpt>
      <trkpt lat="43.30573" lon="-3.14809">
        <ele>604.2</ele>
        <time>2021-10-28 10:27:21</time>
      </trkpt>
      <trkpt lat="43.30573" lon="-3.14809">
        <ele>604.6</ele>
        <time>2021-10-28 10:27:22</time>
      </trkpt>
      <trkpt lat="43.30575" lon="-3.1481">
        <ele>605</ele>
        <time>2021-10-28 10:27:23</time>
      </trkpt>
      <trkpt lat="43.30577" lon="-3.14815">
        <ele>605</ele>
        <time>2021-10-28 10:27:24</time>
      </trkpt>
      <trkpt lat="43.30578" lon="-3.14817">
        <ele>604.8</ele>
        <time>2021-10-28 10:27:25</time>
      </trkpt>
      <trkpt lat="43.30578" lon="-3.14817">
        <ele>604.8</ele>
        <time>2021-10-28 10:27:26</time>
      </trkpt>
      <trkpt lat="43.3058" lon="-3.14821">
        <ele>604.8</ele>
        <time>2021-10-28 10:27:27</time>
      </trkpt>
      <trkpt lat="43.30581" lon="-3.14822">
        <ele>604.8</ele>
        <time>2021-10-28 10:27:28</time>
      </trkpt>
      <trkpt lat="43.30581" lon="-3.14822">
        <ele>604.8</ele>
        <time>2021-10-28 10:27:29</time>
      </trkpt>
      <trkpt lat="43.30584" lon="-3.14824">
        <ele>605.4</ele>
        <time>2021-10-28 10:27:30</time>
      </trkpt>
      <trkpt lat="43.30584" lon="-3.14824">
        <ele>606</ele>
        <time>2021-10-28 10:27:31</time>
      </trkpt>
      <trkpt lat="43.30588" lon="-3.14826">
        <ele>606.4</ele>
        <time>2021-10-28 10:27:32</time>
      </trkpt>
      <trkpt lat="43.30588" lon="-3.14826">
        <ele>606.6</ele>
        <time>2021-10-28 10:27:33</time>
      </trkpt>
      <trkpt lat="43.3059" lon="-3.14827">
        <ele>606.8</ele>
        <time>2021-10-28 10:27:34</time>
      </trkpt>
      <trkpt lat="43.30592" lon="-3.14829">
        <ele>606.8</ele>
        <time>2021-10-28 10:27:35</time>
      </trkpt>
      <trkpt lat="43.30592" lon="-3.14829">
        <ele>607</ele>
        <time>2021-10-28 10:27:36</time>
      </trkpt>
      <trkpt lat="43.30593" lon="-3.14833">
        <ele>607</ele>
        <time>2021-10-28 10:27:37</time>
      </trkpt>
      <trkpt lat="43.30593" lon="-3.14833">
        <ele>607.2</ele>
        <time>2021-10-28 10:27:38</time>
      </trkpt>
      <trkpt lat="43.30595" lon="-3.14839">
        <ele>607.2</ele>
        <time>2021-10-28 10:27:39</time>
      </trkpt>
      <trkpt lat="43.30595" lon="-3.14839">
        <ele>607.2</ele>
        <time>2021-10-28 10:27:40</time>
      </trkpt>
      <trkpt lat="43.30595" lon="-3.14839">
        <ele>607.2</ele>
        <time>2021-10-28 10:27:41</time>
      </trkpt>
      <trkpt lat="43.30595" lon="-3.14839">
        <ele>607.2</ele>
        <time>2021-10-28 10:27:42</time>
      </trkpt>
      <trkpt lat="43.30597" lon="-3.14847">
        <ele>607.4</ele>
        <time>2021-10-28 10:27:43</time>
      </trkpt>
      <trkpt lat="43.30597" lon="-3.14847">
        <ele>607.6</ele>
        <time>2021-10-28 10:27:44</time>
      </trkpt>
      <trkpt lat="43.30597" lon="-3.14849">
        <ele>607.8</ele>
        <time>2021-10-28 10:27:45</time>
      </trkpt>
      <trkpt lat="43.306" lon="-3.14853">
        <ele>608</ele>
        <time>2021-10-28 10:27:46</time>
      </trkpt>
      <trkpt lat="43.30601" lon="-3.14854">
        <ele>608.2</ele>
        <time>2021-10-28 10:27:47</time>
      </trkpt>
      <trkpt lat="43.30601" lon="-3.14856">
        <ele>608.4</ele>
        <time>2021-10-28 10:27:48</time>
      </trkpt>
      <trkpt lat="43.30602" lon="-3.14857">
        <ele>608.6</ele>
        <time>2021-10-28 10:27:49</time>
      </trkpt>
      <trkpt lat="43.30603" lon="-3.1486">
        <ele>608.8</ele>
        <time>2021-10-28 10:27:50</time>
      </trkpt>
      <trkpt lat="43.30603" lon="-3.1486">
        <ele>609</ele>
        <time>2021-10-28 10:27:51</time>
      </trkpt>
      <trkpt lat="43.30604" lon="-3.14864">
        <ele>609.4</ele>
        <time>2021-10-28 10:27:52</time>
      </trkpt>
      <trkpt lat="43.30604" lon="-3.14864">
        <ele>609.6</ele>
        <time>2021-10-28 10:27:53</time>
      </trkpt>
      <trkpt lat="43.30606" lon="-3.14868">
        <ele>609.6</ele>
        <time>2021-10-28 10:27:54</time>
      </trkpt>
      <trkpt lat="43.30606" lon="-3.14868">
        <ele>609.8</ele>
        <time>2021-10-28 10:27:55</time>
      </trkpt>
      <trkpt lat="43.3061" lon="-3.14872">
        <ele>609.8</ele>
        <time>2021-10-28 10:27:56</time>
      </trkpt>
      <trkpt lat="43.3061" lon="-3.14872">
        <ele>610</ele>
        <time>2021-10-28 10:27:57</time>
      </trkpt>
      <trkpt lat="43.30611" lon="-3.14878">
        <ele>610.2</ele>
        <time>2021-10-28 10:27:58</time>
      </trkpt>
      <trkpt lat="43.30611" lon="-3.14878">
        <ele>610.6</ele>
        <time>2021-10-28 10:27:59</time>
      </trkpt>
      <trkpt lat="43.30611" lon="-3.14878">
        <ele>610.8</ele>
        <time>2021-10-28 10:28:00</time>
      </trkpt>
      <trkpt lat="43.30612" lon="-3.1488">
        <ele>611</ele>
        <time>2021-10-28 10:28:01</time>
      </trkpt>
      <trkpt lat="43.30615" lon="-3.14882">
        <ele>611</ele>
        <time>2021-10-28 10:28:02</time>
      </trkpt>
      <trkpt lat="43.30615" lon="-3.14882">
        <ele>611.2</ele>
        <time>2021-10-28 10:28:03</time>
      </trkpt>
      <trkpt lat="43.30618" lon="-3.14888">
        <ele>611.4</ele>
        <time>2021-10-28 10:28:04</time>
      </trkpt>
      <trkpt lat="43.30618" lon="-3.14888">
        <ele>611.6</ele>
        <time>2021-10-28 10:28:05</time>
      </trkpt>
      <trkpt lat="43.30618" lon="-3.14892">
        <ele>611.6</ele>
        <time>2021-10-28 10:28:06</time>
      </trkpt>
      <trkpt lat="43.30618" lon="-3.14892">
        <ele>611.8</ele>
        <time>2021-10-28 10:28:07</time>
      </trkpt>
      <trkpt lat="43.30619" lon="-3.14895">
        <ele>612</ele>
        <time>2021-10-28 10:28:08</time>
      </trkpt>
      <trkpt lat="43.30619" lon="-3.14895">
        <ele>612</ele>
        <time>2021-10-28 10:28:09</time>
      </trkpt>
      <trkpt lat="43.30619" lon="-3.14901">
        <ele>612</ele>
        <time>2021-10-28 10:28:10</time>
      </trkpt>
      <trkpt lat="43.30621" lon="-3.14902">
        <ele>612.2</ele>
        <time>2021-10-28 10:28:11</time>
      </trkpt>
      <trkpt lat="43.30621" lon="-3.14902">
        <ele>612.4</ele>
        <time>2021-10-28 10:28:12</time>
      </trkpt>
      <trkpt lat="43.3062" lon="-3.14905">
        <ele>612.6</ele>
        <time>2021-10-28 10:28:13</time>
      </trkpt>
      <trkpt lat="43.3062" lon="-3.14905">
        <ele>612.8</ele>
        <time>2021-10-28 10:28:14</time>
      </trkpt>
      <trkpt lat="43.3062" lon="-3.14911">
        <ele>613</ele>
        <time>2021-10-28 10:28:15</time>
      </trkpt>
      <trkpt lat="43.3062" lon="-3.14911">
        <ele>613.2</ele>
        <time>2021-10-28 10:28:16</time>
      </trkpt>
      <trkpt lat="43.30619" lon="-3.14918">
        <ele>613.4</ele>
        <time>2021-10-28 10:28:17</time>
      </trkpt>
      <trkpt lat="43.30619" lon="-3.14918">
        <ele>613.6</ele>
        <time>2021-10-28 10:28:18</time>
      </trkpt>
      <trkpt lat="43.3062" lon="-3.14919">
        <ele>613.8</ele>
        <time>2021-10-28 10:28:19</time>
      </trkpt>
      <trkpt lat="43.3062" lon="-3.14919">
        <ele>613.8</ele>
        <time>2021-10-28 10:28:20</time>
      </trkpt>
      <trkpt lat="43.3062" lon="-3.14924">
        <ele>613.8</ele>
        <time>2021-10-28 10:28:21</time>
      </trkpt>
      <trkpt lat="43.3062" lon="-3.14924">
        <ele>613.8</ele>
        <time>2021-10-28 10:28:22</time>
      </trkpt>
      <trkpt lat="43.30619" lon="-3.14929">
        <ele>613.8</ele>
        <time>2021-10-28 10:28:23</time>
      </trkpt>
      <trkpt lat="43.30619" lon="-3.14932">
        <ele>614.2</ele>
        <time>2021-10-28 10:28:24</time>
      </trkpt>
      <trkpt lat="43.30619" lon="-3.14937">
        <ele>614.6</ele>
        <time>2021-10-28 10:28:25</time>
      </trkpt>
      <trkpt lat="43.30619" lon="-3.14939">
        <ele>615</ele>
        <time>2021-10-28 10:28:26</time>
      </trkpt>
      <trkpt lat="43.30619" lon="-3.14939">
        <ele>615.2</ele>
        <time>2021-10-28 10:28:27</time>
      </trkpt>
      <trkpt lat="43.30621" lon="-3.14944">
        <ele>615.4</ele>
        <time>2021-10-28 10:28:28</time>
      </trkpt>
      <trkpt lat="43.30622" lon="-3.14948">
        <ele>615.4</ele>
        <time>2021-10-28 10:28:29</time>
      </trkpt>
      <trkpt lat="43.30622" lon="-3.14948">
        <ele>615.4</ele>
        <time>2021-10-28 10:28:30</time>
      </trkpt>
      <trkpt lat="43.30622" lon="-3.14948">
        <ele>615.6</ele>
        <time>2021-10-28 10:28:31</time>
      </trkpt>
      <trkpt lat="43.30622" lon="-3.1495">
        <ele>615.6</ele>
        <time>2021-10-28 10:28:32</time>
      </trkpt>
      <trkpt lat="43.30622" lon="-3.14952">
        <ele>615.8</ele>
        <time>2021-10-28 10:28:33</time>
      </trkpt>
      <trkpt lat="43.30621" lon="-3.14954">
        <ele>616</ele>
        <time>2021-10-28 10:28:34</time>
      </trkpt>
      <trkpt lat="43.30624" lon="-3.14957">
        <ele>616.2</ele>
        <time>2021-10-28 10:28:35</time>
      </trkpt>
      <trkpt lat="43.30624" lon="-3.14957">
        <ele>616.4</ele>
        <time>2021-10-28 10:28:36</time>
      </trkpt>
      <trkpt lat="43.30622" lon="-3.14961">
        <ele>616.6</ele>
        <time>2021-10-28 10:28:37</time>
      </trkpt>
      <trkpt lat="43.30622" lon="-3.14961">
        <ele>617</ele>
        <time>2021-10-28 10:28:38</time>
      </trkpt>
      <trkpt lat="43.30622" lon="-3.14967">
        <ele>617.2</ele>
        <time>2021-10-28 10:28:39</time>
      </trkpt>
      <trkpt lat="43.30622" lon="-3.14967">
        <ele>617.4</ele>
        <time>2021-10-28 10:28:40</time>
      </trkpt>
      <trkpt lat="43.30622" lon="-3.14972">
        <ele>617.4</ele>
        <time>2021-10-28 10:28:41</time>
      </trkpt>
      <trkpt lat="43.30622" lon="-3.14972">
        <ele>617.6</ele>
        <time>2021-10-28 10:28:42</time>
      </trkpt>
      <trkpt lat="43.30623" lon="-3.14975">
        <ele>617.8</ele>
        <time>2021-10-28 10:28:43</time>
      </trkpt>
      <trkpt lat="43.30623" lon="-3.14975">
        <ele>618.2</ele>
        <time>2021-10-28 10:28:44</time>
      </trkpt>
      <trkpt lat="43.30624" lon="-3.14978">
        <ele>618.4</ele>
        <time>2021-10-28 10:28:45</time>
      </trkpt>
      <trkpt lat="43.30625" lon="-3.14983">
        <ele>618.6</ele>
        <time>2021-10-28 10:28:46</time>
      </trkpt>
      <trkpt lat="43.30625" lon="-3.14983">
        <ele>618.6</ele>
        <time>2021-10-28 10:28:47</time>
      </trkpt>
      <trkpt lat="43.30626" lon="-3.14987">
        <ele>618.6</ele>
        <time>2021-10-28 10:28:48</time>
      </trkpt>
      <trkpt lat="43.30627" lon="-3.14989">
        <ele>618.6</ele>
        <time>2021-10-28 10:28:49</time>
      </trkpt>
      <trkpt lat="43.30627" lon="-3.14992">
        <ele>618.6</ele>
        <time>2021-10-28 10:28:50</time>
      </trkpt>
      <trkpt lat="43.30627" lon="-3.14994">
        <ele>618.8</ele>
        <time>2021-10-28 10:28:51</time>
      </trkpt>
      <trkpt lat="43.30627" lon="-3.14994">
        <ele>619</ele>
        <time>2021-10-28 10:28:52</time>
      </trkpt>
      <trkpt lat="43.30627" lon="-3.14998">
        <ele>619.4</ele>
        <time>2021-10-28 10:28:53</time>
      </trkpt>
      <trkpt lat="43.30627" lon="-3.14998">
        <ele>619.6</ele>
        <time>2021-10-28 10:28:54</time>
      </trkpt>
      <trkpt lat="43.30628" lon="-3.15002">
        <ele>619.6</ele>
        <time>2021-10-28 10:28:55</time>
      </trkpt>
      <trkpt lat="43.30628" lon="-3.15005">
        <ele>619.6</ele>
        <time>2021-10-28 10:28:56</time>
      </trkpt>
      <trkpt lat="43.30628" lon="-3.15005">
        <ele>619.8</ele>
        <time>2021-10-28 10:28:57</time>
      </trkpt>
      <trkpt lat="43.30627" lon="-3.15008">
        <ele>619.8</ele>
        <time>2021-10-28 10:28:58</time>
      </trkpt>
      <trkpt lat="43.30628" lon="-3.15011">
        <ele>620</ele>
        <time>2021-10-28 10:28:59</time>
      </trkpt>
      <trkpt lat="43.30626" lon="-3.15014">
        <ele>620</ele>
        <time>2021-10-28 10:29:00</time>
      </trkpt>
      <trkpt lat="43.30625" lon="-3.15016">
        <ele>620.2</ele>
        <time>2021-10-28 10:29:01</time>
      </trkpt>
      <trkpt lat="43.30625" lon="-3.15016">
        <ele>620.2</ele>
        <time>2021-10-28 10:29:02</time>
      </trkpt>
      <trkpt lat="43.30624" lon="-3.15017">
        <ele>620.2</ele>
        <time>2021-10-28 10:29:03</time>
      </trkpt>
      <trkpt lat="43.30625" lon="-3.15019">
        <ele>620.6</ele>
        <time>2021-10-28 10:29:04</time>
      </trkpt>
      <trkpt lat="43.30627" lon="-3.15022">
        <ele>621</ele>
        <time>2021-10-28 10:29:05</time>
      </trkpt>
      <trkpt lat="43.30627" lon="-3.15022">
        <ele>621.2</ele>
        <time>2021-10-28 10:29:06</time>
      </trkpt>
      <trkpt lat="43.30626" lon="-3.15029">
        <ele>621.6</ele>
        <time>2021-10-28 10:29:07</time>
      </trkpt>
      <trkpt lat="43.30624" lon="-3.15032">
        <ele>621.6</ele>
        <time>2021-10-28 10:29:08</time>
      </trkpt>
      <trkpt lat="43.30624" lon="-3.15032">
        <ele>621.6</ele>
        <time>2021-10-28 10:29:09</time>
      </trkpt>
      <trkpt lat="43.30624" lon="-3.15034">
        <ele>621.6</ele>
        <time>2021-10-28 10:29:10</time>
      </trkpt>
      <trkpt lat="43.30623" lon="-3.15036">
        <ele>621.6</ele>
        <time>2021-10-28 10:29:11</time>
      </trkpt>
      <trkpt lat="43.30624" lon="-3.15035">
        <ele>621.8</ele>
        <time>2021-10-28 10:29:12</time>
      </trkpt>
      <trkpt lat="43.30627" lon="-3.1504">
        <ele>622.2</ele>
        <time>2021-10-28 10:29:13</time>
      </trkpt>
      <trkpt lat="43.30627" lon="-3.1504">
        <ele>622.6</ele>
        <time>2021-10-28 10:29:14</time>
      </trkpt>
      <trkpt lat="43.3063" lon="-3.15044">
        <ele>623</ele>
        <time>2021-10-28 10:29:15</time>
      </trkpt>
      <trkpt lat="43.30632" lon="-3.15049">
        <ele>623</ele>
        <time>2021-10-28 10:29:16</time>
      </trkpt>
      <trkpt lat="43.30632" lon="-3.15049">
        <ele>623.2</ele>
        <time>2021-10-28 10:29:17</time>
      </trkpt>
      <trkpt lat="43.30632" lon="-3.15049">
        <ele>623.2</ele>
        <time>2021-10-28 10:29:18</time>
      </trkpt>
      <trkpt lat="43.30633" lon="-3.15055">
        <ele>623.4</ele>
        <time>2021-10-28 10:29:19</time>
      </trkpt>
      <trkpt lat="43.30632" lon="-3.15058">
        <ele>623.4</ele>
        <time>2021-10-28 10:29:20</time>
      </trkpt>
      <trkpt lat="43.30635" lon="-3.1506">
        <ele>623.6</ele>
        <time>2021-10-28 10:29:21</time>
      </trkpt>
      <trkpt lat="43.30635" lon="-3.1506">
        <ele>623.6</ele>
        <time>2021-10-28 10:29:22</time>
      </trkpt>
      <trkpt lat="43.30634" lon="-3.15061">
        <ele>623.8</ele>
        <time>2021-10-28 10:29:23</time>
      </trkpt>
      <trkpt lat="43.30635" lon="-3.15064">
        <ele>624</ele>
        <time>2021-10-28 10:29:24</time>
      </trkpt>
      <trkpt lat="43.30635" lon="-3.15064">
        <ele>624.2</ele>
        <time>2021-10-28 10:29:25</time>
      </trkpt>
      <trkpt lat="43.30635" lon="-3.15064">
        <ele>624.2</ele>
        <time>2021-10-28 10:29:26</time>
      </trkpt>
      <trkpt lat="43.30636" lon="-3.1507">
        <ele>624.2</ele>
        <time>2021-10-28 10:29:27</time>
      </trkpt>
      <trkpt lat="43.30636" lon="-3.1507">
        <ele>624.4</ele>
        <time>2021-10-28 10:29:28</time>
      </trkpt>
      <trkpt lat="43.30637" lon="-3.15071">
        <ele>624.4</ele>
        <time>2021-10-28 10:29:29</time>
      </trkpt>
      <trkpt lat="43.30638" lon="-3.15076">
        <ele>624.6</ele>
        <time>2021-10-28 10:29:30</time>
      </trkpt>
      <trkpt lat="43.30638" lon="-3.15076">
        <ele>624.8</ele>
        <time>2021-10-28 10:29:31</time>
      </trkpt>
      <trkpt lat="43.30641" lon="-3.1508">
        <ele>625</ele>
        <time>2021-10-28 10:29:32</time>
      </trkpt>
      <trkpt lat="43.30641" lon="-3.1508">
        <ele>625.2</ele>
        <time>2021-10-28 10:29:33</time>
      </trkpt>
      <trkpt lat="43.3064" lon="-3.15081">
        <ele>625.4</ele>
        <time>2021-10-28 10:29:34</time>
      </trkpt>
      <trkpt lat="43.30638" lon="-3.15085">
        <ele>625.6</ele>
        <time>2021-10-28 10:29:35</time>
      </trkpt>
      <trkpt lat="43.3064" lon="-3.15088">
        <ele>625.8</ele>
        <time>2021-10-28 10:29:36</time>
      </trkpt>
      <trkpt lat="43.3064" lon="-3.15088">
        <ele>625.8</ele>
        <time>2021-10-28 10:29:37</time>
      </trkpt>
      <trkpt lat="43.30639" lon="-3.15089">
        <ele>625.8</ele>
        <time>2021-10-28 10:29:38</time>
      </trkpt>
      <trkpt lat="43.30639" lon="-3.15089">
        <ele>626</ele>
        <time>2021-10-28 10:29:39</time>
      </trkpt>
      <trkpt lat="43.30639" lon="-3.15089">
        <ele>626.4</ele>
        <time>2021-10-28 10:29:40</time>
      </trkpt>
      <trkpt lat="43.3064" lon="-3.15092">
        <ele>626.8</ele>
        <time>2021-10-28 10:29:41</time>
      </trkpt>
      <trkpt lat="43.30641" lon="-3.15098">
        <ele>627.2</ele>
        <time>2021-10-28 10:29:42</time>
      </trkpt>
      <trkpt lat="43.30641" lon="-3.15098">
        <ele>627.4</ele>
        <time>2021-10-28 10:29:43</time>
      </trkpt>
      <trkpt lat="43.30642" lon="-3.15104">
        <ele>627.6</ele>
        <time>2021-10-28 10:29:44</time>
      </trkpt>
      <trkpt lat="43.30642" lon="-3.15104">
        <ele>627.6</ele>
        <time>2021-10-28 10:29:45</time>
      </trkpt>
      <trkpt lat="43.30642" lon="-3.15107">
        <ele>627.6</ele>
        <time>2021-10-28 10:29:46</time>
      </trkpt>
      <trkpt lat="43.30642" lon="-3.15112">
        <ele>627.4</ele>
        <time>2021-10-28 10:29:47</time>
      </trkpt>
      <trkpt lat="43.30642" lon="-3.15114">
        <ele>627.2</ele>
        <time>2021-10-28 10:29:48</time>
      </trkpt>
      <trkpt lat="43.30643" lon="-3.15116">
        <ele>627.2</ele>
        <time>2021-10-28 10:29:49</time>
      </trkpt>
      <trkpt lat="43.30642" lon="-3.15118">
        <ele>627.4</ele>
        <time>2021-10-28 10:29:50</time>
      </trkpt>
      <trkpt lat="43.30643" lon="-3.15123">
        <ele>627.8</ele>
        <time>2021-10-28 10:29:51</time>
      </trkpt>
      <trkpt lat="43.30643" lon="-3.15123">
        <ele>628.2</ele>
        <time>2021-10-28 10:29:52</time>
      </trkpt>
      <trkpt lat="43.30643" lon="-3.15124">
        <ele>628.4</ele>
        <time>2021-10-28 10:29:53</time>
      </trkpt>
      <trkpt lat="43.30643" lon="-3.15127">
        <ele>628.8</ele>
        <time>2021-10-28 10:29:54</time>
      </trkpt>
      <trkpt lat="43.30643" lon="-3.15127">
        <ele>629.4</ele>
        <time>2021-10-28 10:29:55</time>
      </trkpt>
      <trkpt lat="43.30644" lon="-3.1513">
        <ele>629.8</ele>
        <time>2021-10-28 10:29:56</time>
      </trkpt>
      <trkpt lat="43.30644" lon="-3.1513">
        <ele>630</ele>
        <time>2021-10-28 10:29:57</time>
      </trkpt>
      <trkpt lat="43.30644" lon="-3.15133">
        <ele>630.2</ele>
        <time>2021-10-28 10:29:58</time>
      </trkpt>
      <trkpt lat="43.30643" lon="-3.15136">
        <ele>630.2</ele>
        <time>2021-10-28 10:29:59</time>
      </trkpt>
      <trkpt lat="43.30643" lon="-3.15136">
        <ele>630.2</ele>
        <time>2021-10-28 10:30:00</time>
      </trkpt>
      <trkpt lat="43.30643" lon="-3.15139">
        <ele>630.2</ele>
        <time>2021-10-28 10:30:01</time>
      </trkpt>
      <trkpt lat="43.30643" lon="-3.15141">
        <ele>630.4</ele>
        <time>2021-10-28 10:30:02</time>
      </trkpt>
      <trkpt lat="43.30643" lon="-3.15146">
        <ele>630.6</ele>
        <time>2021-10-28 10:30:03</time>
      </trkpt>
      <trkpt lat="43.30643" lon="-3.15146">
        <ele>630.8</ele>
        <time>2021-10-28 10:30:04</time>
      </trkpt>
      <trkpt lat="43.30642" lon="-3.1515">
        <ele>631</ele>
        <time>2021-10-28 10:30:05</time>
      </trkpt>
      <trkpt lat="43.30642" lon="-3.1515">
        <ele>631.4</ele>
        <time>2021-10-28 10:30:06</time>
      </trkpt>
      <trkpt lat="43.30641" lon="-3.15155">
        <ele>631.8</ele>
        <time>2021-10-28 10:30:07</time>
      </trkpt>
      <trkpt lat="43.30641" lon="-3.15155">
        <ele>632.2</ele>
        <time>2021-10-28 10:30:08</time>
      </trkpt>
      <trkpt lat="43.30641" lon="-3.15155">
        <ele>632.6</ele>
        <time>2021-10-28 10:30:09</time>
      </trkpt>
      <trkpt lat="43.30639" lon="-3.15159">
        <ele>632.8</ele>
        <time>2021-10-28 10:30:10</time>
      </trkpt>
      <trkpt lat="43.30639" lon="-3.15159">
        <ele>633</ele>
        <time>2021-10-28 10:30:11</time>
      </trkpt>
      <trkpt lat="43.30636" lon="-3.15162">
        <ele>633.4</ele>
        <time>2021-10-28 10:30:12</time>
      </trkpt>
      <trkpt lat="43.30636" lon="-3.15162">
        <ele>633.6</ele>
        <time>2021-10-28 10:30:13</time>
      </trkpt>
      <trkpt lat="43.30629" lon="-3.15167">
        <ele>633.8</ele>
        <time>2021-10-28 10:30:14</time>
      </trkpt>
      <trkpt lat="43.30627" lon="-3.15166">
        <ele>633.8</ele>
        <time>2021-10-28 10:30:15</time>
      </trkpt>
      <trkpt lat="43.30627" lon="-3.15166">
        <ele>633.8</ele>
        <time>2021-10-28 10:30:16</time>
      </trkpt>
      <trkpt lat="43.30626" lon="-3.15166">
        <ele>633.8</ele>
        <time>2021-10-28 10:30:17</time>
      </trkpt>
      <trkpt lat="43.30626" lon="-3.15167">
        <ele>634</ele>
        <time>2021-10-28 10:30:18</time>
      </trkpt>
      <trkpt lat="43.30624" lon="-3.15167">
        <ele>634.4</ele>
        <time>2021-10-28 10:30:19</time>
      </trkpt>
      <trkpt lat="43.30625" lon="-3.15164">
        <ele>634.8</ele>
        <time>2021-10-28 10:30:20</time>
      </trkpt>
      <trkpt lat="43.30621" lon="-3.15163">
        <ele>635</ele>
        <time>2021-10-28 10:30:21</time>
      </trkpt>
      <trkpt lat="43.30617" lon="-3.15164">
        <ele>635</ele>
        <time>2021-10-28 10:30:22</time>
      </trkpt>
      <trkpt lat="43.30616" lon="-3.15163">
        <ele>635.4</ele>
        <time>2021-10-28 10:30:23</time>
      </trkpt>
      <trkpt lat="43.30616" lon="-3.15163">
        <ele>635.6</ele>
        <time>2021-10-28 10:30:24</time>
      </trkpt>
      <trkpt lat="43.30616" lon="-3.15163">
        <ele>636</ele>
        <time>2021-10-28 10:30:25</time>
      </trkpt>
      <trkpt lat="43.30613" lon="-3.15161">
        <ele>636.4</ele>
        <time>2021-10-28 10:30:26</time>
      </trkpt>
      <trkpt lat="43.30613" lon="-3.1516">
        <ele>636.6</ele>
        <time>2021-10-28 10:30:27</time>
      </trkpt>
      <trkpt lat="43.30613" lon="-3.1516">
        <ele>636.8</ele>
        <time>2021-10-28 10:30:28</time>
      </trkpt>
      <trkpt lat="43.3061" lon="-3.15153">
        <ele>636.8</ele>
        <time>2021-10-28 10:30:29</time>
      </trkpt>
      <trkpt lat="43.3061" lon="-3.15153">
        <ele>637</ele>
        <time>2021-10-28 10:30:30</time>
      </trkpt>
      <trkpt lat="43.3061" lon="-3.15153">
        <ele>637</ele>
        <time>2021-10-28 10:30:31</time>
      </trkpt>
      <trkpt lat="43.30605" lon="-3.1515">
        <ele>637.2</ele>
        <time>2021-10-28 10:30:32</time>
      </trkpt>
      <trkpt lat="43.30604" lon="-3.1514">
        <ele>637.2</ele>
        <time>2021-10-28 10:30:33</time>
      </trkpt>
      <trkpt lat="43.30604" lon="-3.1514">
        <ele>637.2</ele>
        <time>2021-10-28 10:30:34</time>
      </trkpt>
      <trkpt lat="43.30604" lon="-3.1514">
        <ele>637.2</ele>
        <time>2021-10-28 10:30:35</time>
      </trkpt>
      <trkpt lat="43.30604" lon="-3.15137">
        <ele>637.2</ele>
        <time>2021-10-28 10:30:36</time>
      </trkpt>
      <trkpt lat="43.30602" lon="-3.15135">
        <ele>637.2</ele>
        <time>2021-10-28 10:30:37</time>
      </trkpt>
      <trkpt lat="43.30603" lon="-3.15133">
        <ele>637.2</ele>
        <time>2021-10-28 10:30:38</time>
      </trkpt>
      <trkpt lat="43.30604" lon="-3.15133">
        <ele>637.4</ele>
        <time>2021-10-28 10:30:39</time>
      </trkpt>
      <trkpt lat="43.30604" lon="-3.15133">
        <ele>637.4</ele>
        <time>2021-10-28 10:30:40</time>
      </trkpt>
      <trkpt lat="43.30604" lon="-3.15131">
        <ele>637.4</ele>
        <time>2021-10-28 10:30:41</time>
      </trkpt>
      <trkpt lat="43.30604" lon="-3.15131">
        <ele>637.6</ele>
        <time>2021-10-28 10:30:42</time>
      </trkpt>
      <trkpt lat="43.30605" lon="-3.15128">
        <ele>637.8</ele>
        <time>2021-10-28 10:30:43</time>
      </trkpt>
      <trkpt lat="43.30611" lon="-3.15129">
        <ele>637.8</ele>
        <time>2021-10-28 10:30:44</time>
      </trkpt>
      <trkpt lat="43.30611" lon="-3.15129">
        <ele>638.2</ele>
        <time>2021-10-28 10:30:45</time>
      </trkpt>
      <trkpt lat="43.30612" lon="-3.15128">
        <ele>638.2</ele>
        <time>2021-10-28 10:30:46</time>
      </trkpt>
      <trkpt lat="43.30613" lon="-3.15131">
        <ele>638.6</ele>
        <time>2021-10-28 10:30:47</time>
      </trkpt>
      <trkpt lat="43.30614" lon="-3.15134">
        <ele>639.2</ele>
        <time>2021-10-28 10:30:48</time>
      </trkpt>
      <trkpt lat="43.30614" lon="-3.15134">
        <ele>640</ele>
        <time>2021-10-28 10:30:49</time>
      </trkpt>
      <trkpt lat="43.30615" lon="-3.15135">
        <ele>640.8</ele>
        <time>2021-10-28 10:30:50</time>
      </trkpt>
      <trkpt lat="43.30617" lon="-3.15141">
        <ele>641.2</ele>
        <time>2021-10-28 10:30:51</time>
      </trkpt>
      <trkpt lat="43.30619" lon="-3.15142">
        <ele>641.6</ele>
        <time>2021-10-28 10:30:52</time>
      </trkpt>
      <trkpt lat="43.30619" lon="-3.15142">
        <ele>642</ele>
        <time>2021-10-28 10:30:53</time>
      </trkpt>
      <trkpt lat="43.30619" lon="-3.15142">
        <ele>642.4</ele>
        <time>2021-10-28 10:30:54</time>
      </trkpt>
      <trkpt lat="43.30622" lon="-3.15136">
        <ele>642.4</ele>
        <time>2021-10-28 10:30:55</time>
      </trkpt>
      <trkpt lat="43.30621" lon="-3.15139">
        <ele>642</ele>
        <time>2021-10-28 10:30:56</time>
      </trkpt>
      <trkpt lat="43.30621" lon="-3.15139">
        <ele>641.2</ele>
        <time>2021-10-28 10:30:57</time>
      </trkpt>
      <trkpt lat="43.30621" lon="-3.15143">
        <ele>640.4</ele>
        <time>2021-10-28 10:30:58</time>
      </trkpt>
      <trkpt lat="43.30617" lon="-3.15144">
        <ele>640.2</ele>
        <time>2021-10-28 10:30:59</time>
      </trkpt>
      <trkpt lat="43.30617" lon="-3.15144">
        <ele>640.2</ele>
        <time>2021-10-28 10:31:00</time>
      </trkpt>
      <trkpt lat="43.30613" lon="-3.15156">
        <ele>639.8</ele>
        <time>2021-10-28 10:31:01</time>
      </trkpt>
      <trkpt lat="43.30612" lon="-3.15158">
        <ele>639.6</ele>
        <time>2021-10-28 10:31:02</time>
      </trkpt>
      <trkpt lat="43.30611" lon="-3.1516">
        <ele>639.4</ele>
        <time>2021-10-28 10:31:03</time>
      </trkpt>
      <trkpt lat="43.30611" lon="-3.1516">
        <ele>639</ele>
        <time>2021-10-28 10:31:04</time>
      </trkpt>
      <trkpt lat="43.30614" lon="-3.1516">
        <ele>638.6</ele>
        <time>2021-10-28 10:31:05</time>
      </trkpt>
      <trkpt lat="43.30612" lon="-3.15157">
        <ele>638.4</ele>
        <time>2021-10-28 10:31:06</time>
      </trkpt>
      <trkpt lat="43.30613" lon="-3.15161">
        <ele>638.2</ele>
        <time>2021-10-28 10:31:07</time>
      </trkpt>
      <trkpt lat="43.30613" lon="-3.15161">
        <ele>637.8</ele>
        <time>2021-10-28 10:31:08</time>
      </trkpt>
      <trkpt lat="43.30616" lon="-3.1516">
        <ele>637.4</ele>
        <time>2021-10-28 10:31:09</time>
      </trkpt>
      <trkpt lat="43.30616" lon="-3.1516">
        <ele>637</ele>
        <time>2021-10-28 10:31:10</time>
      </trkpt>
      <trkpt lat="43.30614" lon="-3.15166">
        <ele>636.6</ele>
        <time>2021-10-28 10:31:11</time>
      </trkpt>
      <trkpt lat="43.30616" lon="-3.15165">
        <ele>636.4</ele>
        <time>2021-10-28 10:31:12</time>
      </trkpt>
      <trkpt lat="43.30626" lon="-3.15166">
        <ele>635.4</ele>
        <time>2021-10-28 10:31:13</time>
      </trkpt>
      <trkpt lat="43.30626" lon="-3.15166">
        <ele>635.4</ele>
        <time>2021-10-28 10:31:14</time>
      </trkpt>
      <trkpt lat="43.30626" lon="-3.15169">
        <ele>635</ele>
        <time>2021-10-28 10:31:15</time>
      </trkpt>
      <trkpt lat="43.30626" lon="-3.15169">
        <ele>634.6</ele>
        <time>2021-10-28 10:31:16</time>
      </trkpt>
      <trkpt lat="43.30628" lon="-3.15177">
        <ele>634.2</ele>
        <time>2021-10-28 10:31:17</time>
      </trkpt>
      <trkpt lat="43.30626" lon="-3.15189">
        <ele>633</ele>
        <time>2021-10-28 10:31:18</time>
      </trkpt>
      <trkpt lat="43.30627" lon="-3.15191">
        <ele>632.8</ele>
        <time>2021-10-28 10:31:19</time>
      </trkpt>
      <trkpt lat="43.30627" lon="-3.15191">
        <ele>632.8</ele>
        <time>2021-10-28 10:31:20</time>
      </trkpt>
      <trkpt lat="43.30623" lon="-3.15192">
        <ele>633</ele>
        <time>2021-10-28 10:31:21</time>
      </trkpt>
      <trkpt lat="43.30623" lon="-3.15192">
        <ele>633</ele>
        <time>2021-10-28 10:35:42</time>
      </trkpt>
      <trkpt lat="43.30638" lon="-3.15103">
        <ele>628.8</ele>
        <time>2021-10-28 10:35:43</time>
      </trkpt>
      <trkpt lat="43.30637" lon="-3.15099">
        <ele>628.4</ele>
        <time>2021-10-28 10:35:44</time>
      </trkpt>
      <trkpt lat="43.30636" lon="-3.15092">
        <ele>628</ele>
        <time>2021-10-28 10:35:45</time>
      </trkpt>
      <trkpt lat="43.30636" lon="-3.15092">
        <ele>627.6</ele>
        <time>2021-10-28 10:35:46</time>
      </trkpt>
      <trkpt lat="43.30636" lon="-3.15081">
        <ele>627.2</ele>
        <time>2021-10-28 10:35:47</time>
      </trkpt>
      <trkpt lat="43.30636" lon="-3.15081">
        <ele>626.8</ele>
        <time>2021-10-28 10:35:48</time>
      </trkpt>
      <trkpt lat="43.30633" lon="-3.15071">
        <ele>626.2</ele>
        <time>2021-10-28 10:35:49</time>
      </trkpt>
      <trkpt lat="43.30633" lon="-3.15071">
        <ele>625.6</ele>
        <time>2021-10-28 10:35:50</time>
      </trkpt>
      <trkpt lat="43.30634" lon="-3.15065">
        <ele>625</ele>
        <time>2021-10-28 10:35:51</time>
      </trkpt>
      <trkpt lat="43.30636" lon="-3.15054">
        <ele>624.6</ele>
        <time>2021-10-28 10:35:52</time>
      </trkpt>
      <trkpt lat="43.30636" lon="-3.15054">
        <ele>624.2</ele>
        <time>2021-10-28 10:35:53</time>
      </trkpt>
      <trkpt lat="43.30634" lon="-3.15052">
        <ele>623.8</ele>
        <time>2021-10-28 10:36:10</time>
      </trkpt>
      <trkpt lat="43.30631" lon="-3.15039">
        <ele>623.6</ele>
        <time>2021-10-28 10:36:11</time>
      </trkpt>
      <trkpt lat="43.3063" lon="-3.15033">
        <ele>623.4</ele>
        <time>2021-10-28 10:36:12</time>
      </trkpt>
      <trkpt lat="43.30628" lon="-3.15029">
        <ele>623.2</ele>
        <time>2021-10-28 10:36:13</time>
      </trkpt>
      <trkpt lat="43.30628" lon="-3.15029">
        <ele>623</ele>
        <time>2021-10-28 10:36:14</time>
      </trkpt>
      <trkpt lat="43.30627" lon="-3.15017">
        <ele>622.4</ele>
        <time>2021-10-28 10:36:30</time>
      </trkpt>
      <trkpt lat="43.30627" lon="-3.15017">
        <ele>621.6</ele>
        <time>2021-10-28 10:36:31</time>
      </trkpt>
      <trkpt lat="43.30626" lon="-3.15002">
        <ele>621</ele>
        <time>2021-10-28 10:36:32</time>
      </trkpt>
      <trkpt lat="43.30626" lon="-3.15002">
        <ele>620.4</ele>
        <time>2021-10-28 10:36:33</time>
      </trkpt>
      <trkpt lat="43.30626" lon="-3.15002">
        <ele>620</ele>
        <time>2021-10-28 10:36:34</time>
      </trkpt>
      <trkpt lat="43.30625" lon="-3.14985">
        <ele>619.8</ele>
        <time>2021-10-28 10:47:13</time>
      </trkpt>
      <trkpt lat="43.30624" lon="-3.14978">
        <ele>619.6</ele>
        <time>2021-10-28 10:47:14</time>
      </trkpt>
      <trkpt lat="43.30624" lon="-3.14972">
        <ele>619.2</ele>
        <time>2021-10-28 10:47:15</time>
      </trkpt>
      <trkpt lat="43.30622" lon="-3.14956">
        <ele>618.6</ele>
        <time>2021-10-28 10:47:16</time>
      </trkpt>
      <trkpt lat="43.30622" lon="-3.14956">
        <ele>617.8</ele>
        <time>2021-10-28 10:47:17</time>
      </trkpt>
      <trkpt lat="43.30621" lon="-3.1494">
        <ele>617.2</ele>
        <time>2021-10-28 10:47:18</time>
      </trkpt>
      <trkpt lat="43.30621" lon="-3.1494">
        <ele>616.6</ele>
        <time>2021-10-28 10:47:19</time>
      </trkpt>
      <trkpt lat="43.30619" lon="-3.14932">
        <ele>616</ele>
        <time>2021-10-28 10:47:20</time>
      </trkpt>
      <trkpt lat="43.30618" lon="-3.14914">
        <ele>615.2</ele>
        <time>2021-10-28 10:47:21</time>
      </trkpt>
      <trkpt lat="43.30617" lon="-3.14907">
        <ele>614.4</ele>
        <time>2021-10-28 10:47:22</time>
      </trkpt>
      <trkpt lat="43.30617" lon="-3.14907">
        <ele>613.6</ele>
        <time>2021-10-28 10:47:23</time>
      </trkpt>
      <trkpt lat="43.30615" lon="-3.14901">
        <ele>612.8</ele>
        <time>2021-10-28 10:47:24</time>
      </trkpt>
      <trkpt lat="43.30611" lon="-3.14889">
        <ele>612</ele>
        <time>2021-10-28 10:47:25</time>
      </trkpt>
      <trkpt lat="43.30611" lon="-3.14889">
        <ele>611.2</ele>
        <time>2021-10-28 10:47:26</time>
      </trkpt>
      <trkpt lat="43.3061" lon="-3.14881">
        <ele>610.8</ele>
        <time>2021-10-28 10:47:27</time>
      </trkpt>
      <trkpt lat="43.30607" lon="-3.14868">
        <ele>610.4</ele>
        <time>2021-10-28 10:47:28</time>
      </trkpt>
      <trkpt lat="43.30607" lon="-3.14868">
        <ele>610</ele>
        <time>2021-10-28 10:47:29</time>
      </trkpt>
      <trkpt lat="43.30605" lon="-3.14855">
        <ele>609.6</ele>
        <time>2021-10-28 10:47:30</time>
      </trkpt>
      <trkpt lat="43.30605" lon="-3.14855">
        <ele>609.2</ele>
        <time>2021-10-28 10:47:31</time>
      </trkpt>
      <trkpt lat="43.30602" lon="-3.14853">
        <ele>609</ele>
        <time>2021-10-28 10:47:32</time>
      </trkpt>
      <trkpt lat="43.30596" lon="-3.1485">
        <ele>608.6</ele>
        <time>2021-10-28 10:47:34</time>
      </trkpt>
      <trkpt lat="43.3059" lon="-3.14839">
        <ele>608.2</ele>
        <time>2021-10-28 10:47:35</time>
      </trkpt>
      <trkpt lat="43.30586" lon="-3.14834">
        <ele>608</ele>
        <time>2021-10-28 10:47:36</time>
      </trkpt>
      <trkpt lat="43.30586" lon="-3.14834">
        <ele>607.4</ele>
        <time>2021-10-28 10:47:37</time>
      </trkpt>
      <trkpt lat="43.30578" lon="-3.14823">
        <ele>607</ele>
        <time>2021-10-28 10:47:38</time>
      </trkpt>
      <trkpt lat="43.30578" lon="-3.14823">
        <ele>606.2</ele>
        <time>2021-10-28 10:47:39</time>
      </trkpt>
      <trkpt lat="43.30575" lon="-3.14817">
        <ele>606</ele>
        <time>2021-10-28 10:47:40</time>
      </trkpt>
      <trkpt lat="43.30567" lon="-3.1481">
        <ele>605.4</ele>
        <time>2021-10-28 10:47:41</time>
      </trkpt>
      <trkpt lat="43.30567" lon="-3.1481">
        <ele>605</ele>
        <time>2021-10-28 10:47:42</time>
      </trkpt>
      <trkpt lat="43.30565" lon="-3.14806">
        <ele>604.4</ele>
        <time>2021-10-28 10:47:43</time>
      </trkpt>
      <trkpt lat="43.30561" lon="-3.14799">
        <ele>603.6</ele>
        <time>2021-10-28 10:47:44</time>
      </trkpt>
      <trkpt lat="43.30561" lon="-3.14799">
        <ele>602.8</ele>
        <time>2021-10-28 10:47:45</time>
      </trkpt>
      <trkpt lat="43.30561" lon="-3.14799">
        <ele>602</ele>
        <time>2021-10-28 10:47:46</time>
      </trkpt>
      <trkpt lat="43.30556" lon="-3.14792">
        <ele>601.4</ele>
        <time>2021-10-28 10:47:47</time>
      </trkpt>
      <trkpt lat="43.30553" lon="-3.14784">
        <ele>601</ele>
        <time>2021-10-28 10:47:48</time>
      </trkpt>
      <trkpt lat="43.30553" lon="-3.14784">
        <ele>600.8</ele>
        <time>2021-10-28 10:47:49</time>
      </trkpt>
      <trkpt lat="43.30552" lon="-3.14778">
        <ele>600.8</ele>
        <time>2021-10-28 10:47:50</time>
      </trkpt>
      <trkpt lat="43.3055" lon="-3.14774">
        <ele>600.6</ele>
        <time>2021-10-28 10:47:51</time>
      </trkpt>
      <trkpt lat="43.30545" lon="-3.14764">
        <ele>600.6</ele>
        <time>2021-10-28 10:47:52</time>
      </trkpt>
      <trkpt lat="43.30545" lon="-3.14764">
        <ele>600.2</ele>
        <time>2021-10-28 10:47:53</time>
      </trkpt>
      <trkpt lat="43.3054" lon="-3.14754">
        <ele>599.8</ele>
        <time>2021-10-28 10:47:54</time>
      </trkpt>
      <trkpt lat="43.30536" lon="-3.14748">
        <ele>599.4</ele>
        <time>2021-10-28 10:47:55</time>
      </trkpt>
      <trkpt lat="43.30536" lon="-3.14748">
        <ele>598.8</ele>
        <time>2021-10-28 10:47:56</time>
      </trkpt>
      <trkpt lat="43.30532" lon="-3.14736">
        <ele>598.4</ele>
        <time>2021-10-28 10:47:57</time>
      </trkpt>
      <trkpt lat="43.30532" lon="-3.14736">
        <ele>598</ele>
        <time>2021-10-28 10:47:58</time>
      </trkpt>
      <trkpt lat="43.30526" lon="-3.14729">
        <ele>597.8</ele>
        <time>2021-10-28 10:47:59</time>
      </trkpt>
      <trkpt lat="43.30522" lon="-3.14727">
        <ele>597.4</ele>
        <time>2021-10-28 10:48:00</time>
      </trkpt>
      <trkpt lat="43.30522" lon="-3.14727">
        <ele>597</ele>
        <time>2021-10-28 10:48:01</time>
      </trkpt>
      <trkpt lat="43.30516" lon="-3.14721">
        <ele>596.4</ele>
        <time>2021-10-28 10:48:02</time>
      </trkpt>
      <trkpt lat="43.30516" lon="-3.14721">
        <ele>595.6</ele>
        <time>2021-10-28 10:48:03</time>
      </trkpt>
      <trkpt lat="43.30514" lon="-3.14719">
        <ele>595.2</ele>
        <time>2021-10-28 10:48:04</time>
      </trkpt>
      <trkpt lat="43.30504" lon="-3.14715">
        <ele>594.8</ele>
        <time>2021-10-28 10:48:05</time>
      </trkpt>
      <trkpt lat="43.305" lon="-3.14714">
        <ele>594.6</ele>
        <time>2021-10-28 10:48:06</time>
      </trkpt>
      <trkpt lat="43.30495" lon="-3.14716">
        <ele>594.4</ele>
        <time>2021-10-28 10:48:07</time>
      </trkpt>
      <trkpt lat="43.30493" lon="-3.14716">
        <ele>594</ele>
        <time>2021-10-28 10:48:08</time>
      </trkpt>
      <trkpt lat="43.30493" lon="-3.14716">
        <ele>593.8</ele>
        <time>2021-10-28 10:48:09</time>
      </trkpt>
      <trkpt lat="43.30489" lon="-3.14716">
        <ele>593.4</ele>
        <time>2021-10-28 10:48:10</time>
      </trkpt>
      <trkpt lat="43.30484" lon="-3.1472">
        <ele>593</ele>
        <time>2021-10-28 10:48:11</time>
      </trkpt>
      <trkpt lat="43.30479" lon="-3.14723">
        <ele>592.2</ele>
        <time>2021-10-28 10:48:12</time>
      </trkpt>
      <trkpt lat="43.30469" lon="-3.14725">
        <ele>591.4</ele>
        <time>2021-10-28 10:48:13</time>
      </trkpt>
      <trkpt lat="43.30464" lon="-3.14725">
        <ele>590.8</ele>
        <time>2021-10-28 10:48:14</time>
      </trkpt>
      <trkpt lat="43.30464" lon="-3.14725">
        <ele>590.2</ele>
        <time>2021-10-28 10:48:15</time>
      </trkpt>
      <trkpt lat="43.30461" lon="-3.14726">
        <ele>589.8</ele>
        <time>2021-10-28 10:48:16</time>
      </trkpt>
      <trkpt lat="43.30452" lon="-3.14728">
        <ele>589.4</ele>
        <time>2021-10-28 10:48:17</time>
      </trkpt>
      <trkpt lat="43.30448" lon="-3.1473">
        <ele>589</ele>
        <time>2021-10-28 10:48:18</time>
      </trkpt>
      <trkpt lat="43.30444" lon="-3.14734">
        <ele>588.6</ele>
        <time>2021-10-28 10:48:19</time>
      </trkpt>
      <trkpt lat="43.30442" lon="-3.14734">
        <ele>588</ele>
        <time>2021-10-28 10:48:20</time>
      </trkpt>
      <trkpt lat="43.3044" lon="-3.14736">
        <ele>587.4</ele>
        <time>2021-10-28 10:48:21</time>
      </trkpt>
      <trkpt lat="43.30437" lon="-3.14738">
        <ele>587</ele>
        <time>2021-10-28 10:48:22</time>
      </trkpt>
      <trkpt lat="43.30437" lon="-3.14738">
        <ele>586.6</ele>
        <time>2021-10-28 10:48:23</time>
      </trkpt>
      <trkpt lat="43.3043" lon="-3.14744">
        <ele>586.2</ele>
        <time>2021-10-28 10:48:24</time>
      </trkpt>
      <trkpt lat="43.3043" lon="-3.14744">
        <ele>585.8</ele>
        <time>2021-10-28 10:48:25</time>
      </trkpt>
      <trkpt lat="43.30419" lon="-3.14754">
        <ele>585.2</ele>
        <time>2021-10-28 10:48:26</time>
      </trkpt>
      <trkpt lat="43.30419" lon="-3.14754">
        <ele>584.4</ele>
        <time>2021-10-28 10:48:27</time>
      </trkpt>
      <trkpt lat="43.3041" lon="-3.1476">
        <ele>583.8</ele>
        <time>2021-10-28 10:48:28</time>
      </trkpt>
      <trkpt lat="43.3041" lon="-3.1476">
        <ele>583</ele>
        <time>2021-10-28 10:48:29</time>
      </trkpt>
      <trkpt lat="43.30407" lon="-3.14761">
        <ele>582.6</ele>
        <time>2021-10-28 10:48:30</time>
      </trkpt>
      <trkpt lat="43.30397" lon="-3.14771">
        <ele>582.2</ele>
        <time>2021-10-28 10:48:31</time>
      </trkpt>
      <trkpt lat="43.30393" lon="-3.14776">
        <ele>581.8</ele>
        <time>2021-10-28 10:48:32</time>
      </trkpt>
      <trkpt lat="43.30389" lon="-3.1478">
        <ele>581</ele>
        <time>2021-10-28 10:48:33</time>
      </trkpt>
      <trkpt lat="43.30385" lon="-3.14784">
        <ele>580.4</ele>
        <time>2021-10-28 10:48:34</time>
      </trkpt>
      <trkpt lat="43.30381" lon="-3.1479">
        <ele>579.8</ele>
        <time>2021-10-28 10:48:35</time>
      </trkpt>
      <trkpt lat="43.30381" lon="-3.1479">
        <ele>579.4</ele>
        <time>2021-10-28 10:48:36</time>
      </trkpt>
      <trkpt lat="43.30376" lon="-3.148">
        <ele>579</ele>
        <time>2021-10-28 10:48:37</time>
      </trkpt>
      <trkpt lat="43.30376" lon="-3.148">
        <ele>578.2</ele>
        <time>2021-10-28 10:48:38</time>
      </trkpt>
      <trkpt lat="43.30371" lon="-3.14809">
        <ele>577.6</ele>
        <time>2021-10-28 10:48:39</time>
      </trkpt>
      <trkpt lat="43.30368" lon="-3.14814">
        <ele>576.8</ele>
        <time>2021-10-28 10:48:40</time>
      </trkpt>
      <trkpt lat="43.30368" lon="-3.14814">
        <ele>575.6</ele>
        <time>2021-10-28 10:48:41</time>
      </trkpt>
      <trkpt lat="43.30362" lon="-3.14819">
        <ele>574.8</ele>
        <time>2021-10-28 10:48:42</time>
      </trkpt>
      <trkpt lat="43.30357" lon="-3.14825">
        <ele>574.2</ele>
        <time>2021-10-28 10:48:43</time>
      </trkpt>
      <trkpt lat="43.30353" lon="-3.14831">
        <ele>574</ele>
        <time>2021-10-28 10:48:44</time>
      </trkpt>
      <trkpt lat="43.30346" lon="-3.14844">
        <ele>573.6</ele>
        <time>2021-10-28 10:48:45</time>
      </trkpt>
      <trkpt lat="43.30346" lon="-3.14844">
        <ele>573.2</ele>
        <time>2021-10-28 10:48:46</time>
      </trkpt>
      <trkpt lat="43.3034" lon="-3.14855">
        <ele>572.6</ele>
        <time>2021-10-28 10:48:47</time>
      </trkpt>
      <trkpt lat="43.3034" lon="-3.14855">
        <ele>572.2</ele>
        <time>2021-10-28 10:48:48</time>
      </trkpt>
      <trkpt lat="43.3034" lon="-3.14855">
        <ele>571.8</ele>
        <time>2021-10-28 10:48:49</time>
      </trkpt>
      <trkpt lat="43.30334" lon="-3.14866">
        <ele>571.4</ele>
        <time>2021-10-28 10:48:50</time>
      </trkpt>
      <trkpt lat="43.3033" lon="-3.1487">
        <ele>571.2</ele>
        <time>2021-10-28 10:48:51</time>
      </trkpt>
      <trkpt lat="43.30325" lon="-3.14871">
        <ele>571</ele>
        <time>2021-10-28 10:48:52</time>
      </trkpt>
      <trkpt lat="43.30325" lon="-3.14871">
        <ele>570.8</ele>
        <time>2021-10-28 10:48:53</time>
      </trkpt>
      <trkpt lat="43.30324" lon="-3.1487">
        <ele>570.4</ele>
        <time>2021-10-28 10:48:54</time>
      </trkpt>
      <trkpt lat="43.30321" lon="-3.14872">
        <ele>570</ele>
        <time>2021-10-28 10:48:55</time>
      </trkpt>
      <trkpt lat="43.30321" lon="-3.14872">
        <ele>569.8</ele>
        <time>2021-10-28 10:48:56</time>
      </trkpt>
      <trkpt lat="43.30319" lon="-3.14874">
        <ele>569.8</ele>
        <time>2021-10-28 10:48:57</time>
      </trkpt>
      <trkpt lat="43.30317" lon="-3.14875">
        <ele>569.8</ele>
        <time>2021-10-28 10:48:58</time>
      </trkpt>
      <trkpt lat="43.30314" lon="-3.14871">
        <ele>569.8</ele>
        <time>2021-10-28 10:48:59</time>
      </trkpt>
      <trkpt lat="43.30314" lon="-3.14871">
        <ele>569.6</ele>
        <time>2021-10-28 10:49:00</time>
      </trkpt>
      <trkpt lat="43.30309" lon="-3.14871">
        <ele>569.2</ele>
        <time>2021-10-28 10:49:01</time>
      </trkpt>
      <trkpt lat="43.30303" lon="-3.14868">
        <ele>568.6</ele>
        <time>2021-10-28 10:49:02</time>
      </trkpt>
      <trkpt lat="43.30303" lon="-3.14868">
        <ele>568</ele>
        <time>2021-10-28 10:49:03</time>
      </trkpt>
      <trkpt lat="43.3029" lon="-3.14861">
        <ele>567.2</ele>
        <time>2021-10-28 10:49:04</time>
      </trkpt>
      <trkpt lat="43.3029" lon="-3.14861">
        <ele>566.2</ele>
        <time>2021-10-28 10:49:05</time>
      </trkpt>
      <trkpt lat="43.30278" lon="-3.14857">
        <ele>565.6</ele>
        <time>2021-10-28 10:49:06</time>
      </trkpt>
      <trkpt lat="43.30278" lon="-3.14857">
        <ele>564.8</ele>
        <time>2021-10-28 10:49:07</time>
      </trkpt>
      <trkpt lat="43.30268" lon="-3.14852">
        <ele>564.4</ele>
        <time>2021-10-28 10:49:08</time>
      </trkpt>
      <trkpt lat="43.30268" lon="-3.14852">
        <ele>564</ele>
        <time>2021-10-28 10:49:09</time>
      </trkpt>
      <trkpt lat="43.30263" lon="-3.1485">
        <ele>563.8</ele>
        <time>2021-10-28 10:49:10</time>
      </trkpt>
      <trkpt lat="43.30255" lon="-3.14846">
        <ele>563.4</ele>
        <time>2021-10-28 10:49:11</time>
      </trkpt>
      <trkpt lat="43.30254" lon="-3.14846">
        <ele>563.2</ele>
        <time>2021-10-28 10:49:12</time>
      </trkpt>
      <trkpt lat="43.30253" lon="-3.14846">
        <ele>562.8</ele>
        <time>2021-10-28 10:49:13</time>
      </trkpt>
      <trkpt lat="43.30253" lon="-3.14846">
        <ele>562.4</ele>
        <time>2021-10-28 10:49:14</time>
      </trkpt>
      <trkpt lat="43.30254" lon="-3.14844">
        <ele>562.2</ele>
        <time>2021-10-28 10:49:15</time>
      </trkpt>
      <trkpt lat="43.30255" lon="-3.14843">
        <ele>561.8</ele>
        <time>2021-10-28 10:49:16</time>
      </trkpt>
      <trkpt lat="43.30255" lon="-3.14843">
        <ele>561.8</ele>
        <time>2021-10-28 10:49:17</time>
      </trkpt>
      <trkpt lat="43.30253" lon="-3.14843">
        <ele>561.8</ele>
        <time>2021-10-28 10:49:18</time>
      </trkpt>
      <trkpt lat="43.30253" lon="-3.14843">
        <ele>561.6</ele>
        <time>2021-10-28 10:49:19</time>
      </trkpt>
      <trkpt lat="43.30248" lon="-3.1484">
        <ele>561.6</ele>
        <time>2021-10-28 10:49:20</time>
      </trkpt>
      <trkpt lat="43.30248" lon="-3.1484">
        <ele>561.6</ele>
        <time>2021-10-28 10:49:21</time>
      </trkpt>
      <trkpt lat="43.30248" lon="-3.14835">
        <ele>561.6</ele>
        <time>2021-10-28 10:49:22</time>
      </trkpt>
      <trkpt lat="43.30248" lon="-3.14835">
        <ele>561.6</ele>
        <time>2021-10-28 10:49:23</time>
      </trkpt>
      <trkpt lat="43.3024" lon="-3.14815">
        <ele>561.6</ele>
        <time>2021-10-28 10:49:24</time>
      </trkpt>
      <trkpt lat="43.30239" lon="-3.14813">
        <ele>561.6</ele>
        <time>2021-10-28 10:49:25</time>
      </trkpt>
      <trkpt lat="43.30236" lon="-3.14811">
        <ele>561.4</ele>
        <time>2021-10-28 10:49:26</time>
      </trkpt>
      <trkpt lat="43.30236" lon="-3.14811">
        <ele>561.4</ele>
        <time>2021-10-28 10:49:27</time>
      </trkpt>
      <trkpt lat="43.30235" lon="-3.1481">
        <ele>561.4</ele>
        <time>2021-10-28 10:49:28</time>
      </trkpt>
      <trkpt lat="43.30235" lon="-3.14809">
        <ele>561</ele>
        <time>2021-10-28 10:49:29</time>
      </trkpt>
      <trkpt lat="43.30236" lon="-3.14809">
        <ele>560.6</ele>
        <time>2021-10-28 10:49:30</time>
      </trkpt>
      <trkpt lat="43.30236" lon="-3.14809">
        <ele>560.2</ele>
        <time>2021-10-28 10:49:31</time>
      </trkpt>
      <trkpt lat="43.30237" lon="-3.14809">
        <ele>560.2</ele>
        <time>2021-10-28 10:49:32</time>
      </trkpt>
      <trkpt lat="43.30237" lon="-3.14807">
        <ele>560.2</ele>
        <time>2021-10-28 10:49:33</time>
      </trkpt>
      <trkpt lat="43.30237" lon="-3.14807">
        <ele>560.2</ele>
        <time>2021-10-28 10:49:34</time>
      </trkpt>
      <trkpt lat="43.30235" lon="-3.14807">
        <ele>560</ele>
        <time>2021-10-28 10:49:35</time>
      </trkpt>
      <trkpt lat="43.30235" lon="-3.14855">
        <ele>556.2</ele>
        <time>2021-10-28 10:49:36</time>
      </trkpt>
      <trkpt lat="43.3024" lon="-3.14862">
        <ele>556</ele>
        <time>2021-10-28 10:49:37</time>
      </trkpt>
      <trkpt lat="43.3024" lon="-3.14867">
        <ele>555.8</ele>
        <time>2021-10-28 10:49:38</time>
      </trkpt>
      <trkpt lat="43.3024" lon="-3.14867">
        <ele>555.6</ele>
        <time>2021-10-28 10:49:39</time>
      </trkpt>
      <trkpt lat="43.3024" lon="-3.14874">
        <ele>555.4</ele>
        <time>2021-10-28 10:49:40</time>
      </trkpt>
      <trkpt lat="43.30243" lon="-3.14881">
        <ele>555.4</ele>
        <time>2021-10-28 10:49:41</time>
      </trkpt>
      <trkpt lat="43.30243" lon="-3.14881">
        <ele>555.2</ele>
        <time>2021-10-28 10:49:42</time>
      </trkpt>
      <trkpt lat="43.30247" lon="-3.14888">
        <ele>555.2</ele>
        <time>2021-10-28 10:49:43</time>
      </trkpt>
      <trkpt lat="43.30248" lon="-3.14891">
        <ele>555</ele>
        <time>2021-10-28 10:49:44</time>
      </trkpt>
      <trkpt lat="43.30248" lon="-3.14891">
        <ele>555</ele>
        <time>2021-10-28 10:49:49</time>
      </trkpt>
      <trkpt lat="43.3025" lon="-3.14895">
        <ele>554.8</ele>
        <time>2021-10-28 10:49:50</time>
      </trkpt>
      <trkpt lat="43.30253" lon="-3.149">
        <ele>554.6</ele>
        <time>2021-10-28 10:49:51</time>
      </trkpt>
      <trkpt lat="43.3026" lon="-3.14908">
        <ele>554.4</ele>
        <time>2021-10-28 10:49:52</time>
      </trkpt>
      <trkpt lat="43.30263" lon="-3.14912">
        <ele>554.2</ele>
        <time>2021-10-28 10:49:53</time>
      </trkpt>
      <trkpt lat="43.30263" lon="-3.14912">
        <ele>554.2</ele>
        <time>2021-10-28 10:49:54</time>
      </trkpt>
      <trkpt lat="43.30265" lon="-3.14918">
        <ele>554.2</ele>
        <time>2021-10-28 10:49:55</time>
      </trkpt>
      <trkpt lat="43.30267" lon="-3.14924">
        <ele>554</ele>
        <time>2021-10-28 10:49:56</time>
      </trkpt>
      <trkpt lat="43.3027" lon="-3.14927">
        <ele>554</ele>
        <time>2021-10-28 10:49:57</time>
      </trkpt>
      <trkpt lat="43.30276" lon="-3.14934">
        <ele>553.8</ele>
        <time>2021-10-28 10:49:58</time>
      </trkpt>
      <trkpt lat="43.30276" lon="-3.14934">
        <ele>553.6</ele>
        <time>2021-10-28 10:49:59</time>
      </trkpt>
      <trkpt lat="43.30281" lon="-3.14942">
        <ele>553.4</ele>
        <time>2021-10-28 10:50:00</time>
      </trkpt>
      <trkpt lat="43.30281" lon="-3.14942">
        <ele>553.2</ele>
        <time>2021-10-28 10:52:11</time>
      </trkpt>
      <trkpt lat="43.30288" lon="-3.14951">
        <ele>553</ele>
        <time>2021-10-28 10:52:12</time>
      </trkpt>
      <trkpt lat="43.30288" lon="-3.14951">
        <ele>553</ele>
        <time>2021-10-28 10:52:13</time>
      </trkpt>
      <trkpt lat="43.30296" lon="-3.14959">
        <ele>552.8</ele>
        <time>2021-10-28 10:52:14</time>
      </trkpt>
      <trkpt lat="43.303" lon="-3.14962">
        <ele>552.8</ele>
        <time>2021-10-28 10:52:15</time>
      </trkpt>
      <trkpt lat="43.303" lon="-3.14962">
        <ele>552.6</ele>
        <time>2021-10-28 10:52:16</time>
      </trkpt>
      <trkpt lat="43.30306" lon="-3.14968">
        <ele>552.6</ele>
        <time>2021-10-28 10:52:17</time>
      </trkpt>
      <trkpt lat="43.3031" lon="-3.1497">
        <ele>552.4</ele>
        <time>2021-10-28 10:52:18</time>
      </trkpt>
      <trkpt lat="43.3031" lon="-3.1497">
        <ele>552.4</ele>
        <time>2021-10-28 10:52:19</time>
      </trkpt>
      <trkpt lat="43.30312" lon="-3.14973">
        <ele>552.2</ele>
        <time>2021-10-28 10:52:20</time>
      </trkpt>
      <trkpt lat="43.3032" lon="-3.14978">
        <ele>552.2</ele>
        <time>2021-10-28 10:52:21</time>
      </trkpt>
      <trkpt lat="43.30324" lon="-3.14981">
        <ele>552</ele>
        <time>2021-10-28 10:52:22</time>
      </trkpt>
      <trkpt lat="43.30324" lon="-3.14981">
        <ele>552</ele>
        <time>2021-10-28 10:52:23</time>
      </trkpt>
      <trkpt lat="43.30335" lon="-3.14985">
        <ele>552</ele>
        <time>2021-10-28 10:52:24</time>
      </trkpt>
      <trkpt lat="43.30335" lon="-3.14985">
        <ele>551.8</ele>
        <time>2021-10-28 10:52:25</time>
      </trkpt>
      <trkpt lat="43.30339" lon="-3.14989">
        <ele>551.6</ele>
        <time>2021-10-28 10:52:26</time>
      </trkpt>
      <trkpt lat="43.30342" lon="-3.14991">
        <ele>551.6</ele>
        <time>2021-10-28 10:52:27</time>
      </trkpt>
      <trkpt lat="43.30349" lon="-3.14996">
        <ele>551.4</ele>
        <time>2021-10-28 10:52:28</time>
      </trkpt>
      <trkpt lat="43.30353" lon="-3.14999">
        <ele>551.4</ele>
        <time>2021-10-28 10:52:29</time>
      </trkpt>
      <trkpt lat="43.30353" lon="-3.14999">
        <ele>551.2</ele>
        <time>2021-10-28 10:52:30</time>
      </trkpt>
      <trkpt lat="43.30356" lon="-3.15004">
        <ele>551.2</ele>
        <time>2021-10-28 10:52:31</time>
      </trkpt>
      <trkpt lat="43.30356" lon="-3.15004">
        <ele>551.2</ele>
        <time>2021-10-28 10:52:32</time>
      </trkpt>
      <trkpt lat="43.30358" lon="-3.15008">
        <ele>551.2</ele>
        <time>2021-10-28 10:52:33</time>
      </trkpt>
      <trkpt lat="43.30362" lon="-3.15022">
        <ele>551</ele>
        <time>2021-10-28 10:52:34</time>
      </trkpt>
      <trkpt lat="43.30362" lon="-3.15022">
        <ele>550.8</ele>
        <time>2021-10-28 10:52:35</time>
      </trkpt>
      <trkpt lat="43.30367" lon="-3.15036">
        <ele>550.6</ele>
        <time>2021-10-28 10:52:36</time>
      </trkpt>
      <trkpt lat="43.30367" lon="-3.15036">
        <ele>550.4</ele>
        <time>2021-10-28 10:52:37</time>
      </trkpt>
      <trkpt lat="43.30369" lon="-3.15043">
        <ele>550</ele>
        <time>2021-10-28 10:52:38</time>
      </trkpt>
      <trkpt lat="43.30371" lon="-3.15049">
        <ele>549.8</ele>
        <time>2021-10-28 10:52:39</time>
      </trkpt>
      <trkpt lat="43.30373" lon="-3.15054">
        <ele>549.6</ele>
        <time>2021-10-28 10:52:40</time>
      </trkpt>
      <trkpt lat="43.30375" lon="-3.1507">
        <ele>549.4</ele>
        <time>2021-10-28 10:52:41</time>
      </trkpt>
      <trkpt lat="43.30375" lon="-3.1507">
        <ele>549.4</ele>
        <time>2021-10-28 10:52:42</time>
      </trkpt>
      <trkpt lat="43.30378" lon="-3.15086">
        <ele>549.2</ele>
        <time>2021-10-28 10:52:43</time>
      </trkpt>
      <trkpt lat="43.30378" lon="-3.15086">
        <ele>549</ele>
        <time>2021-10-28 10:52:44</time>
      </trkpt>
      <trkpt lat="43.30378" lon="-3.15086">
        <ele>548.8</ele>
        <time>2021-10-28 10:52:45</time>
      </trkpt>
      <trkpt lat="43.30382" lon="-3.15099">
        <ele>548.6</ele>
        <time>2021-10-28 10:52:46</time>
      </trkpt>
      <trkpt lat="43.30385" lon="-3.15111">
        <ele>548.4</ele>
        <time>2021-10-28 10:52:47</time>
      </trkpt>
      <trkpt lat="43.30385" lon="-3.15117">
        <ele>548.4</ele>
        <time>2021-10-28 10:52:48</time>
      </trkpt>
      <trkpt lat="43.30385" lon="-3.15117">
        <ele>548</ele>
        <time>2021-10-28 10:52:49</time>
      </trkpt>
      <trkpt lat="43.30388" lon="-3.15129">
        <ele>547.8</ele>
        <time>2021-10-28 10:52:50</time>
      </trkpt>
      <trkpt lat="43.30388" lon="-3.15129">
        <ele>547.6</ele>
        <time>2021-10-28 10:52:51</time>
      </trkpt>
      <trkpt lat="43.30392" lon="-3.15144">
        <ele>547.4</ele>
        <time>2021-10-28 10:52:52</time>
      </trkpt>
      <trkpt lat="43.30392" lon="-3.15153">
        <ele>547.2</ele>
        <time>2021-10-28 10:52:53</time>
      </trkpt>
      <trkpt lat="43.30394" lon="-3.15158">
        <ele>547</ele>
        <time>2021-10-28 10:52:54</time>
      </trkpt>
      <trkpt lat="43.30394" lon="-3.15158">
        <ele>546.8</ele>
        <time>2021-10-28 10:52:55</time>
      </trkpt>
      <trkpt lat="43.30397" lon="-3.15164">
        <ele>546.8</ele>
        <time>2021-10-28 10:52:56</time>
      </trkpt>
      <trkpt lat="43.30401" lon="-3.15176">
        <ele>546.8</ele>
        <time>2021-10-28 10:52:57</time>
      </trkpt>
      <trkpt lat="43.30401" lon="-3.15176">
        <ele>546.6</ele>
        <time>2021-10-28 10:52:58</time>
      </trkpt>
      <trkpt lat="43.30407" lon="-3.1519">
        <ele>546.6</ele>
        <time>2021-10-28 10:52:59</time>
      </trkpt>
      <trkpt lat="43.3041" lon="-3.15195">
        <ele>546.6</ele>
        <time>2021-10-28 10:53:00</time>
      </trkpt>
      <trkpt lat="43.3041" lon="-3.15195">
        <ele>546.4</ele>
        <time>2021-10-28 10:53:01</time>
      </trkpt>
      <trkpt lat="43.30417" lon="-3.15204">
        <ele>546.4</ele>
        <time>2021-10-28 10:53:02</time>
      </trkpt>
      <trkpt lat="43.30417" lon="-3.15204">
        <ele>546</ele>
        <time>2021-10-28 10:53:03</time>
      </trkpt>
      <trkpt lat="43.30417" lon="-3.15204">
        <ele>545.6</ele>
        <time>2021-10-28 10:53:04</time>
      </trkpt>
      <trkpt lat="43.30428" lon="-3.15213">
        <ele>545.2</ele>
        <time>2021-10-28 10:53:05</time>
      </trkpt>
      <trkpt lat="43.30428" lon="-3.15213">
        <ele>544.8</ele>
        <time>2021-10-28 10:53:06</time>
      </trkpt>
      <trkpt lat="43.30428" lon="-3.15213">
        <ele>544.4</ele>
        <time>2021-10-28 10:53:07</time>
      </trkpt>
      <trkpt lat="43.30429" lon="-3.15223">
        <ele>544</ele>
        <time>2021-10-28 10:53:08</time>
      </trkpt>
      <trkpt lat="43.30427" lon="-3.15231">
        <ele>543.6</ele>
        <time>2021-10-28 10:53:09</time>
      </trkpt>
      <trkpt lat="43.30427" lon="-3.15231">
        <ele>543.4</ele>
        <time>2021-10-28 10:53:10</time>
      </trkpt>
      <trkpt lat="43.30428" lon="-3.15236">
        <ele>543.2</ele>
        <time>2021-10-28 10:53:11</time>
      </trkpt>
      <trkpt lat="43.30421" lon="-3.15248">
        <ele>543</ele>
        <time>2021-10-28 10:53:12</time>
      </trkpt>
      <trkpt lat="43.30421" lon="-3.15248">
        <ele>543</ele>
        <time>2021-10-28 10:53:13</time>
      </trkpt>
      <trkpt lat="43.30417" lon="-3.15253">
        <ele>542.8</ele>
        <time>2021-10-28 10:53:14</time>
      </trkpt>
      <trkpt lat="43.30409" lon="-3.15263">
        <ele>542.8</ele>
        <time>2021-10-28 10:53:15</time>
      </trkpt>
      <trkpt lat="43.30409" lon="-3.15263">
        <ele>542.6</ele>
        <time>2021-10-28 10:53:16</time>
      </trkpt>
      <trkpt lat="43.30409" lon="-3.15263">
        <ele>542.4</ele>
        <time>2021-10-28 10:53:17</time>
      </trkpt>
      <trkpt lat="43.30401" lon="-3.15274">
        <ele>542.2</ele>
        <time>2021-10-28 10:53:18</time>
      </trkpt>
      <trkpt lat="43.30398" lon="-3.15277">
        <ele>542</ele>
        <time>2021-10-28 10:53:19</time>
      </trkpt>
      <trkpt lat="43.30398" lon="-3.15277">
        <ele>541.8</ele>
        <time>2021-10-28 10:53:20</time>
      </trkpt>
      <trkpt lat="43.30393" lon="-3.15281">
        <ele>541.8</ele>
        <time>2021-10-28 10:53:21</time>
      </trkpt>
      <trkpt lat="43.30389" lon="-3.15291">
        <ele>541.8</ele>
        <time>2021-10-28 10:53:22</time>
      </trkpt>
      <trkpt lat="43.30389" lon="-3.15291">
        <ele>541.8</ele>
        <time>2021-10-28 10:53:23</time>
      </trkpt>
      <trkpt lat="43.30386" lon="-3.15301">
        <ele>541.6</ele>
        <time>2021-10-28 10:53:24</time>
      </trkpt>
      <trkpt lat="43.30386" lon="-3.15301">
        <ele>541.6</ele>
        <time>2021-10-28 10:53:25</time>
      </trkpt>
      <trkpt lat="43.30382" lon="-3.15314">
        <ele>541.6</ele>
        <time>2021-10-28 10:53:26</time>
      </trkpt>
      <trkpt lat="43.30382" lon="-3.15314">
        <ele>541.4</ele>
        <time>2021-10-28 10:53:27</time>
      </trkpt>
      <trkpt lat="43.30382" lon="-3.15314">
        <ele>541.4</ele>
        <time>2021-10-28 10:53:28</time>
      </trkpt>
      <trkpt lat="43.30382" lon="-3.15324">
        <ele>541.4</ele>
        <time>2021-10-28 10:53:29</time>
      </trkpt>
      <trkpt lat="43.30383" lon="-3.15338">
        <ele>541.4</ele>
        <time>2021-10-28 10:53:30</time>
      </trkpt>
      <trkpt lat="43.30383" lon="-3.15338">
        <ele>541.4</ele>
        <time>2021-10-28 10:53:31</time>
      </trkpt>
      <trkpt lat="43.30381" lon="-3.15346">
        <ele>541.4</ele>
        <time>2021-10-28 10:53:32</time>
      </trkpt>
      <trkpt lat="43.30382" lon="-3.15354">
        <ele>541.4</ele>
        <time>2021-10-28 10:53:33</time>
      </trkpt>
      <trkpt lat="43.30383" lon="-3.15359">
        <ele>541.2</ele>
        <time>2021-10-28 10:53:34</time>
      </trkpt>
      <trkpt lat="43.30383" lon="-3.15359">
        <ele>541.2</ele>
        <time>2021-10-28 10:53:35</time>
      </trkpt>
      <trkpt lat="43.3038" lon="-3.15363">
        <ele>541</ele>
        <time>2021-10-28 10:53:36</time>
      </trkpt>
      <trkpt lat="43.30376" lon="-3.15374">
        <ele>540.6</ele>
        <time>2021-10-28 10:53:37</time>
      </trkpt>
      <trkpt lat="43.30374" lon="-3.15378">
        <ele>540.4</ele>
        <time>2021-10-28 10:53:38</time>
      </trkpt>
      <trkpt lat="43.30374" lon="-3.15378">
        <ele>540</ele>
        <time>2021-10-28 10:53:39</time>
      </trkpt>
      <trkpt lat="43.30373" lon="-3.15385">
        <ele>539.6</ele>
        <time>2021-10-28 10:53:40</time>
      </trkpt>
      <trkpt lat="43.30368" lon="-3.15395">
        <ele>539.2</ele>
        <time>2021-10-28 10:53:41</time>
      </trkpt>
      <trkpt lat="43.30368" lon="-3.15395">
        <ele>538.6</ele>
        <time>2021-10-28 10:53:42</time>
      </trkpt>
      <trkpt lat="43.30368" lon="-3.15395">
        <ele>538.2</ele>
        <time>2021-10-28 10:53:43</time>
      </trkpt>
      <trkpt lat="43.30364" lon="-3.15401">
        <ele>538</ele>
        <time>2021-10-28 10:53:44</time>
      </trkpt>
      <trkpt lat="43.30362" lon="-3.15404">
        <ele>537.8</ele>
        <time>2021-10-28 10:53:45</time>
      </trkpt>
      <trkpt lat="43.30362" lon="-3.15404">
        <ele>537.6</ele>
        <time>2021-10-28 10:53:46</time>
      </trkpt>
      <trkpt lat="43.30359" lon="-3.15408">
        <ele>537.2</ele>
        <time>2021-10-28 10:53:47</time>
      </trkpt>
      <trkpt lat="43.30359" lon="-3.15408">
        <ele>537.2</ele>
        <time>2021-10-28 10:53:48</time>
      </trkpt>
      <trkpt lat="43.30357" lon="-3.15412">
        <ele>537</ele>
        <time>2021-10-28 10:53:49</time>
      </trkpt>
      <trkpt lat="43.30357" lon="-3.15412">
        <ele>536.8</ele>
        <time>2021-10-28 10:53:50</time>
      </trkpt>
      <trkpt lat="43.30354" lon="-3.15415">
        <ele>536.4</ele>
        <time>2021-10-28 10:53:51</time>
      </trkpt>
      <trkpt lat="43.30353" lon="-3.15416">
        <ele>536.2</ele>
        <time>2021-10-28 10:53:52</time>
      </trkpt>
      <trkpt lat="43.30353" lon="-3.15416">
        <ele>536</ele>
        <time>2021-10-28 10:53:53</time>
      </trkpt>
      <trkpt lat="43.3035" lon="-3.15419">
        <ele>535.8</ele>
        <time>2021-10-28 10:53:54</time>
      </trkpt>
      <trkpt lat="43.3035" lon="-3.15419">
        <ele>535.6</ele>
        <time>2021-10-28 10:53:55</time>
      </trkpt>
      <trkpt lat="43.30351" lon="-3.15422">
        <ele>535.4</ele>
        <time>2021-10-28 10:53:56</time>
      </trkpt>
      <trkpt lat="43.30351" lon="-3.15422">
        <ele>535.2</ele>
        <time>2021-10-28 10:53:57</time>
      </trkpt>
      <trkpt lat="43.30347" lon="-3.1542">
        <ele>535</ele>
        <time>2021-10-28 10:53:58</time>
      </trkpt>
      <trkpt lat="43.30345" lon="-3.15422">
        <ele>534.8</ele>
        <time>2021-10-28 10:53:59</time>
      </trkpt>
      <trkpt lat="43.30345" lon="-3.15422">
        <ele>534.4</ele>
        <time>2021-10-28 10:54:00</time>
      </trkpt>
      <trkpt lat="43.30345" lon="-3.15422">
        <ele>534</ele>
        <time>2021-10-28 10:54:01</time>
      </trkpt>
      <trkpt lat="43.30342" lon="-3.15425">
        <ele>533.8</ele>
        <time>2021-10-28 10:54:02</time>
      </trkpt>
      <trkpt lat="43.30336" lon="-3.15424">
        <ele>533.4</ele>
        <time>2021-10-28 10:54:03</time>
      </trkpt>
      <trkpt lat="43.30336" lon="-3.15424">
        <ele>533.2</ele>
        <time>2021-10-28 10:54:04</time>
      </trkpt>
      <trkpt lat="43.30334" lon="-3.15427">
        <ele>532.8</ele>
        <time>2021-10-28 10:54:05</time>
      </trkpt>
      <trkpt lat="43.30334" lon="-3.15427">
        <ele>532.4</ele>
        <time>2021-10-28 10:54:06</time>
      </trkpt>
      <trkpt lat="43.30328" lon="-3.15427">
        <ele>532</ele>
        <time>2021-10-28 10:54:07</time>
      </trkpt>
      <trkpt lat="43.30328" lon="-3.15427">
        <ele>531.4</ele>
        <time>2021-10-28 10:54:08</time>
      </trkpt>
      <trkpt lat="43.30328" lon="-3.15427">
        <ele>531</ele>
        <time>2021-10-28 10:54:09</time>
      </trkpt>
      <trkpt lat="43.30324" lon="-3.15424">
        <ele>530.6</ele>
        <time>2021-10-28 10:54:10</time>
      </trkpt>
      <trkpt lat="43.30314" lon="-3.15419">
        <ele>530</ele>
        <time>2021-10-28 10:54:11</time>
      </trkpt>
      <trkpt lat="43.30314" lon="-3.15419">
        <ele>529.2</ele>
        <time>2021-10-28 10:54:12</time>
      </trkpt>
      <trkpt lat="43.30309" lon="-3.15415">
        <ele>528.6</ele>
        <time>2021-10-28 10:54:13</time>
      </trkpt>
      <trkpt lat="43.30303" lon="-3.1541">
        <ele>527.8</ele>
        <time>2021-10-28 10:54:14</time>
      </trkpt>
      <trkpt lat="43.30303" lon="-3.1541">
        <ele>527</ele>
        <time>2021-10-28 10:54:15</time>
      </trkpt>
      <trkpt lat="43.30297" lon="-3.15401">
        <ele>526.2</ele>
        <time>2021-10-28 10:54:16</time>
      </trkpt>
      <trkpt lat="43.30297" lon="-3.15401">
        <ele>525.6</ele>
        <time>2021-10-28 10:54:17</time>
      </trkpt>
      <trkpt lat="43.30289" lon="-3.1539">
        <ele>525</ele>
        <time>2021-10-28 10:54:18</time>
      </trkpt>
      <trkpt lat="43.30289" lon="-3.1539">
        <ele>524.4</ele>
        <time>2021-10-28 10:54:19</time>
      </trkpt>
      <trkpt lat="43.30287" lon="-3.15386">
        <ele>523.8</ele>
        <time>2021-10-28 10:54:20</time>
      </trkpt>
      <trkpt lat="43.30287" lon="-3.15386">
        <ele>523.4</ele>
        <time>2021-10-28 10:54:21</time>
      </trkpt>
      <trkpt lat="43.30281" lon="-3.15384">
        <ele>522.8</ele>
        <time>2021-10-28 10:54:22</time>
      </trkpt>
      <trkpt lat="43.30279" lon="-3.15382">
        <ele>522.2</ele>
        <time>2021-10-28 10:54:23</time>
      </trkpt>
      <trkpt lat="43.30279" lon="-3.15382">
        <ele>521.8</ele>
        <time>2021-10-28 10:54:24</time>
      </trkpt>
      <trkpt lat="43.30276" lon="-3.15381">
        <ele>521.2</ele>
        <time>2021-10-28 10:54:25</time>
      </trkpt>
      <trkpt lat="43.30274" lon="-3.15381">
        <ele>520.6</ele>
        <time>2021-10-28 10:54:26</time>
      </trkpt>
      <trkpt lat="43.30268" lon="-3.15382">
        <ele>520</ele>
        <time>2021-10-28 10:54:27</time>
      </trkpt>
      <trkpt lat="43.30264" lon="-3.15377">
        <ele>519.4</ele>
        <time>2021-10-28 10:54:28</time>
      </trkpt>
      <trkpt lat="43.30258" lon="-3.15375">
        <ele>518.8</ele>
        <time>2021-10-28 10:54:29</time>
      </trkpt>
      <trkpt lat="43.30251" lon="-3.15372">
        <ele>518.2</ele>
        <time>2021-10-28 10:54:30</time>
      </trkpt>
      <trkpt lat="43.30241" lon="-3.15374">
        <ele>517.6</ele>
        <time>2021-10-28 10:54:31</time>
      </trkpt>
      <trkpt lat="43.30232" lon="-3.15377">
        <ele>517</ele>
        <time>2021-10-28 10:54:32</time>
      </trkpt>
      <trkpt lat="43.30232" lon="-3.15377">
        <ele>516.2</ele>
        <time>2021-10-28 10:54:33</time>
      </trkpt>
      <trkpt lat="43.3022" lon="-3.15381">
        <ele>515.6</ele>
        <time>2021-10-28 10:54:34</time>
      </trkpt>
      <trkpt lat="43.3022" lon="-3.15381">
        <ele>515</ele>
        <time>2021-10-28 10:54:35</time>
      </trkpt>
      <trkpt lat="43.30209" lon="-3.15385">
        <ele>514.4</ele>
        <time>2021-10-28 10:54:36</time>
      </trkpt>
      <trkpt lat="43.30209" lon="-3.15385">
        <ele>513.8</ele>
        <time>2021-10-28 10:54:37</time>
      </trkpt>
      <trkpt lat="43.30204" lon="-3.15387">
        <ele>513</ele>
        <time>2021-10-28 10:54:38</time>
      </trkpt>
      <trkpt lat="43.30194" lon="-3.15396">
        <ele>512.6</ele>
        <time>2021-10-28 10:54:39</time>
      </trkpt>
      <trkpt lat="43.30194" lon="-3.15396">
        <ele>512.2</ele>
        <time>2021-10-28 10:54:40</time>
      </trkpt>
      <trkpt lat="43.30187" lon="-3.15409">
        <ele>512</ele>
        <time>2021-10-28 10:54:41</time>
      </trkpt>
      <trkpt lat="43.30187" lon="-3.15409">
        <ele>511.8</ele>
        <time>2021-10-28 10:54:42</time>
      </trkpt>
      <trkpt lat="43.30185" lon="-3.15413">
        <ele>511.8</ele>
        <time>2021-10-28 10:54:43</time>
      </trkpt>
      <trkpt lat="43.30183" lon="-3.15416">
        <ele>512</ele>
        <time>2021-10-28 10:54:44</time>
      </trkpt>
      <trkpt lat="43.30182" lon="-3.15421">
        <ele>512</ele>
        <time>2021-10-28 10:54:45</time>
      </trkpt>
      <trkpt lat="43.3018" lon="-3.15424">
        <ele>512</ele>
        <time>2021-10-28 10:54:46</time>
      </trkpt>
      <trkpt lat="43.3018" lon="-3.15424">
        <ele>512</ele>
        <time>2021-10-28 10:54:47</time>
      </trkpt>
      <trkpt lat="43.30174" lon="-3.15434">
        <ele>512</ele>
        <time>2021-10-28 10:54:48</time>
      </trkpt>
      <trkpt lat="43.30171" lon="-3.15438">
        <ele>512</ele>
        <time>2021-10-28 10:54:49</time>
      </trkpt>
      <trkpt lat="43.30155" lon="-3.15446">
        <ele>512</ele>
        <time>2021-10-28 10:54:50</time>
      </trkpt>
      <trkpt lat="43.30149" lon="-3.15449">
        <ele>512</ele>
        <time>2021-10-28 10:54:51</time>
      </trkpt>
      <trkpt lat="43.30149" lon="-3.15449">
        <ele>512</ele>
        <time>2021-10-28 10:54:52</time>
      </trkpt>
      <trkpt lat="43.30143" lon="-3.15452">
        <ele>512</ele>
        <time>2021-10-28 10:54:53</time>
      </trkpt>
      <trkpt lat="43.3013" lon="-3.1546">
        <ele>512</ele>
        <time>2021-10-28 10:54:54</time>
      </trkpt>
      <trkpt lat="43.3013" lon="-3.1546">
        <ele>511.8</ele>
        <time>2021-10-28 10:54:55</time>
      </trkpt>
      <trkpt lat="43.30125" lon="-3.15462">
        <ele>511.8</ele>
        <time>2021-10-28 10:54:56</time>
      </trkpt>
      <trkpt lat="43.30117" lon="-3.15476">
        <ele>511.6</ele>
        <time>2021-10-28 10:54:57</time>
      </trkpt>
      <trkpt lat="43.30113" lon="-3.15485">
        <ele>511.6</ele>
        <time>2021-10-28 10:54:58</time>
      </trkpt>
      <trkpt lat="43.30112" lon="-3.15491">
        <ele>511.6</ele>
        <time>2021-10-28 10:54:59</time>
      </trkpt>
      <trkpt lat="43.30112" lon="-3.15491">
        <ele>511.6</ele>
        <time>2021-10-28 10:55:00</time>
      </trkpt>
      <trkpt lat="43.30109" lon="-3.15501">
        <ele>511.6</ele>
        <time>2021-10-28 10:55:01</time>
      </trkpt>
      <trkpt lat="43.30109" lon="-3.15501">
        <ele>511.6</ele>
        <time>2021-10-28 10:55:02</time>
      </trkpt>
      <trkpt lat="43.30105" lon="-3.15514">
        <ele>511.6</ele>
        <time>2021-10-28 10:55:03</time>
      </trkpt>
      <trkpt lat="43.30105" lon="-3.15514">
        <ele>511.4</ele>
        <time>2021-10-28 10:55:04</time>
      </trkpt>
      <trkpt lat="43.30105" lon="-3.15514">
        <ele>511.4</ele>
        <time>2021-10-28 10:55:05</time>
      </trkpt>
      <trkpt lat="43.30104" lon="-3.15527">
        <ele>511.4</ele>
        <time>2021-10-28 10:55:06</time>
      </trkpt>
      <trkpt lat="43.30104" lon="-3.15539">
        <ele>511.6</ele>
        <time>2021-10-28 10:55:07</time>
      </trkpt>
      <trkpt lat="43.30105" lon="-3.15543">
        <ele>511.8</ele>
        <time>2021-10-28 10:55:08</time>
      </trkpt>
      <trkpt lat="43.30105" lon="-3.15543">
        <ele>512</ele>
        <time>2021-10-28 10:55:09</time>
      </trkpt>
      <trkpt lat="43.30105" lon="-3.15547">
        <ele>512.2</ele>
        <time>2021-10-28 10:55:10</time>
      </trkpt>
      <trkpt lat="43.30105" lon="-3.15551">
        <ele>512.4</ele>
        <time>2021-10-28 10:55:11</time>
      </trkpt>
      <trkpt lat="43.30105" lon="-3.15555">
        <ele>512.6</ele>
        <time>2021-10-28 10:55:12</time>
      </trkpt>
      <trkpt lat="43.30102" lon="-3.1556">
        <ele>512.6</ele>
        <time>2021-10-28 10:55:13</time>
      </trkpt>
      <trkpt lat="43.30102" lon="-3.15566">
        <ele>512.8</ele>
        <time>2021-10-28 10:55:14</time>
      </trkpt>
      <trkpt lat="43.30102" lon="-3.15566">
        <ele>512.8</ele>
        <time>2021-10-28 10:55:15</time>
      </trkpt>
      <trkpt lat="43.30102" lon="-3.15572">
        <ele>513</ele>
        <time>2021-10-28 10:55:16</time>
      </trkpt>
      <trkpt lat="43.30103" lon="-3.15575">
        <ele>513.2</ele>
        <time>2021-10-28 10:55:17</time>
      </trkpt>
      <trkpt lat="43.30103" lon="-3.15575">
        <ele>513.4</ele>
        <time>2021-10-28 10:55:18</time>
      </trkpt>
      <trkpt lat="43.30103" lon="-3.15582">
        <ele>513.6</ele>
        <time>2021-10-28 10:55:19</time>
      </trkpt>
      <trkpt lat="43.30103" lon="-3.15582">
        <ele>513.8</ele>
        <time>2021-10-28 10:55:20</time>
      </trkpt>
      <trkpt lat="43.30103" lon="-3.15582">
        <ele>513.8</ele>
        <time>2021-10-28 10:55:21</time>
      </trkpt>
      <trkpt lat="43.30096" lon="-3.15597">
        <ele>514</ele>
        <time>2021-10-28 10:55:22</time>
      </trkpt>
      <trkpt lat="43.30096" lon="-3.15597">
        <ele>514.2</ele>
        <time>2021-10-28 10:55:23</time>
      </trkpt>
      <trkpt lat="43.30096" lon="-3.15597">
        <ele>514.2</ele>
        <time>2021-10-28 10:55:24</time>
      </trkpt>
      <trkpt lat="43.30084" lon="-3.15602">
        <ele>514.2</ele>
        <time>2021-10-28 10:55:25</time>
      </trkpt>
      <trkpt lat="43.30079" lon="-3.15603">
        <ele>514.2</ele>
        <time>2021-10-28 10:55:26</time>
      </trkpt>
      <trkpt lat="43.30076" lon="-3.15603">
        <ele>514.2</ele>
        <time>2021-10-28 10:55:27</time>
      </trkpt>
      <trkpt lat="43.30076" lon="-3.15603">
        <ele>513.8</ele>
        <time>2021-10-28 10:55:28</time>
      </trkpt>
      <trkpt lat="43.30071" lon="-3.15602">
        <ele>513.6</ele>
        <time>2021-10-28 10:55:29</time>
      </trkpt>
      <trkpt lat="43.30067" lon="-3.15602">
        <ele>513.4</ele>
        <time>2021-10-28 10:55:30</time>
      </trkpt>
      <trkpt lat="43.30057" lon="-3.156">
        <ele>513</ele>
        <time>2021-10-28 10:55:31</time>
      </trkpt>
      <trkpt lat="43.30057" lon="-3.156">
        <ele>512.8</ele>
        <time>2021-10-28 10:55:32</time>
      </trkpt>
      <trkpt lat="43.30053" lon="-3.15598">
        <ele>512.6</ele>
        <time>2021-10-28 10:55:33</time>
      </trkpt>
      <trkpt lat="43.30043" lon="-3.15595">
        <ele>512.4</ele>
        <time>2021-10-28 10:55:34</time>
      </trkpt>
      <trkpt lat="43.30038" lon="-3.15593">
        <ele>512.2</ele>
        <time>2021-10-28 10:55:35</time>
      </trkpt>
      <trkpt lat="43.30038" lon="-3.15593">
        <ele>512</ele>
        <time>2021-10-28 10:55:36</time>
      </trkpt>
      <trkpt lat="43.30028" lon="-3.15589">
        <ele>511.8</ele>
        <time>2021-10-28 10:55:37</time>
      </trkpt>
      <trkpt lat="43.30028" lon="-3.15589">
        <ele>511.6</ele>
        <time>2021-10-28 10:55:38</time>
      </trkpt>
      <trkpt lat="43.30022" lon="-3.15589">
        <ele>511.4</ele>
        <time>2021-10-28 10:55:39</time>
      </trkpt>
      <trkpt lat="43.30012" lon="-3.15586">
        <ele>511.2</ele>
        <time>2021-10-28 10:55:40</time>
      </trkpt>
      <trkpt lat="43.30012" lon="-3.15586">
        <ele>511</ele>
        <time>2021-10-28 10:55:41</time>
      </trkpt>
      <trkpt lat="43.30007" lon="-3.15586">
        <ele>511</ele>
        <time>2021-10-28 10:55:42</time>
      </trkpt>
      <trkpt lat="43.29998" lon="-3.15584">
        <ele>510.8</ele>
        <time>2021-10-28 10:55:43</time>
      </trkpt>
      <trkpt lat="43.29994" lon="-3.15584">
        <ele>510.6</ele>
        <time>2021-10-28 10:55:44</time>
      </trkpt>
      <trkpt lat="43.29994" lon="-3.15584">
        <ele>510.6</ele>
        <time>2021-10-28 10:55:45</time>
      </trkpt>
      <trkpt lat="43.29994" lon="-3.15584">
        <ele>510.4</ele>
        <time>2021-10-28 10:55:46</time>
      </trkpt>
      <trkpt lat="43.29985" lon="-3.15584">
        <ele>510.4</ele>
        <time>2021-10-28 10:55:47</time>
      </trkpt>
      <trkpt lat="43.29977" lon="-3.15584">
        <ele>510.4</ele>
        <time>2021-10-28 10:55:48</time>
      </trkpt>
      <trkpt lat="43.29977" lon="-3.15584">
        <ele>510.4</ele>
        <time>2021-10-28 10:55:49</time>
      </trkpt>
      <trkpt lat="43.29969" lon="-3.15589">
        <ele>510.4</ele>
        <time>2021-10-28 10:55:50</time>
      </trkpt>
      <trkpt lat="43.29969" lon="-3.15589">
        <ele>510.2</ele>
        <time>2021-10-28 10:55:51</time>
      </trkpt>
      <trkpt lat="43.29962" lon="-3.15597">
        <ele>510</ele>
        <time>2021-10-28 10:55:52</time>
      </trkpt>
      <trkpt lat="43.29959" lon="-3.15602">
        <ele>509.8</ele>
        <time>2021-10-28 10:55:53</time>
      </trkpt>
      <trkpt lat="43.29959" lon="-3.15602">
        <ele>509.6</ele>
        <time>2021-10-28 10:55:54</time>
      </trkpt>
      <trkpt lat="43.29956" lon="-3.15608">
        <ele>509.4</ele>
        <time>2021-10-28 10:55:55</time>
      </trkpt>
      <trkpt lat="43.29954" lon="-3.15614">
        <ele>509</ele>
        <time>2021-10-28 10:55:56</time>
      </trkpt>
      <trkpt lat="43.29953" lon="-3.15624">
        <ele>508.6</ele>
        <time>2021-10-28 10:55:57</time>
      </trkpt>
      <trkpt lat="43.29953" lon="-3.15624">
        <ele>508.4</ele>
        <time>2021-10-28 10:55:58</time>
      </trkpt>
      <trkpt lat="43.29954" lon="-3.15639">
        <ele>508</ele>
        <time>2021-10-28 10:55:59</time>
      </trkpt>
      <trkpt lat="43.29954" lon="-3.15639">
        <ele>507.8</ele>
        <time>2021-10-28 10:56:00</time>
      </trkpt>
      <trkpt lat="43.29959" lon="-3.1565">
        <ele>507.6</ele>
        <time>2021-10-28 10:56:01</time>
      </trkpt>
      <trkpt lat="43.29962" lon="-3.15656">
        <ele>507.4</ele>
        <time>2021-10-28 10:56:02</time>
      </trkpt>
      <trkpt lat="43.29962" lon="-3.15656">
        <ele>507.2</ele>
        <time>2021-10-28 10:56:03</time>
      </trkpt>
      <trkpt lat="43.29962" lon="-3.15656">
        <ele>507</ele>
        <time>2021-10-28 10:56:04</time>
      </trkpt>
      <trkpt lat="43.29969" lon="-3.15669">
        <ele>506.8</ele>
        <time>2021-10-28 10:56:05</time>
      </trkpt>
      <trkpt lat="43.29975" lon="-3.15673">
        <ele>506.6</ele>
        <time>2021-10-28 10:56:06</time>
      </trkpt>
      <trkpt lat="43.29979" lon="-3.15677">
        <ele>506.4</ele>
        <time>2021-10-28 10:56:07</time>
      </trkpt>
      <trkpt lat="43.29979" lon="-3.15677">
        <ele>506</ele>
        <time>2021-10-28 10:56:08</time>
      </trkpt>
      <trkpt lat="43.29983" lon="-3.15681">
        <ele>505.6</ele>
        <time>2021-10-28 10:56:09</time>
      </trkpt>
      <trkpt lat="43.2999" lon="-3.15691">
        <ele>505.2</ele>
        <time>2021-10-28 10:56:10</time>
      </trkpt>
      <trkpt lat="43.29996" lon="-3.15695">
        <ele>504.8</ele>
        <time>2021-10-28 10:56:11</time>
      </trkpt>
      <trkpt lat="43.29996" lon="-3.15695">
        <ele>504.6</ele>
        <time>2021-10-28 10:56:12</time>
      </trkpt>
      <trkpt lat="43.29996" lon="-3.15695">
        <ele>504.2</ele>
        <time>2021-10-28 10:56:13</time>
      </trkpt>
      <trkpt lat="43.30006" lon="-3.15712">
        <ele>503.8</ele>
        <time>2021-10-28 10:56:14</time>
      </trkpt>
      <trkpt lat="43.30006" lon="-3.15712">
        <ele>503.6</ele>
        <time>2021-10-28 10:56:15</time>
      </trkpt>
      <trkpt lat="43.30013" lon="-3.15725">
        <ele>503.2</ele>
        <time>2021-10-28 10:56:16</time>
      </trkpt>
      <trkpt lat="43.30013" lon="-3.15725">
        <ele>503</ele>
        <time>2021-10-28 10:56:17</time>
      </trkpt>
      <trkpt lat="43.30021" lon="-3.15735">
        <ele>502.6</ele>
        <time>2021-10-28 10:56:18</time>
      </trkpt>
      <trkpt lat="43.30021" lon="-3.15735">
        <ele>502.2</ele>
        <time>2021-10-28 10:56:19</time>
      </trkpt>
      <trkpt lat="43.30025" lon="-3.15755">
        <ele>502</ele>
        <time>2021-10-28 10:56:20</time>
      </trkpt>
      <trkpt lat="43.30025" lon="-3.15755">
        <ele>501.6</ele>
        <time>2021-10-28 10:56:21</time>
      </trkpt>
      <trkpt lat="43.30031" lon="-3.15767">
        <ele>501.4</ele>
        <time>2021-10-28 10:56:22</time>
      </trkpt>
      <trkpt lat="43.30031" lon="-3.15767">
        <ele>501.2</ele>
        <time>2021-10-28 10:56:23</time>
      </trkpt>
      <trkpt lat="43.30036" lon="-3.15773">
        <ele>500.8</ele>
        <time>2021-10-28 10:56:24</time>
      </trkpt>
      <trkpt lat="43.30039" lon="-3.15779">
        <ele>500.6</ele>
        <time>2021-10-28 10:56:25</time>
      </trkpt>
      <trkpt lat="43.30043" lon="-3.15786">
        <ele>500.4</ele>
        <time>2021-10-28 10:56:26</time>
      </trkpt>
      <trkpt lat="43.30051" lon="-3.15803">
        <ele>500.2</ele>
        <time>2021-10-28 10:56:27</time>
      </trkpt>
      <trkpt lat="43.30051" lon="-3.15803">
        <ele>500</ele>
        <time>2021-10-28 10:56:28</time>
      </trkpt>
      <trkpt lat="43.30054" lon="-3.15809">
        <ele>499.8</ele>
        <time>2021-10-28 10:56:29</time>
      </trkpt>
      <trkpt lat="43.30062" lon="-3.15822">
        <ele>499.6</ele>
        <time>2021-10-28 10:56:30</time>
      </trkpt>
      <trkpt lat="43.30062" lon="-3.15822">
        <ele>499.4</ele>
        <time>2021-10-28 10:56:31</time>
      </trkpt>
      <trkpt lat="43.30067" lon="-3.15836">
        <ele>499</ele>
        <time>2021-10-28 10:56:32</time>
      </trkpt>
      <trkpt lat="43.30067" lon="-3.15836">
        <ele>498.8</ele>
        <time>2021-10-28 10:56:33</time>
      </trkpt>
      <trkpt lat="43.30068" lon="-3.15842">
        <ele>498.8</ele>
        <time>2021-10-28 10:56:34</time>
      </trkpt>
      <trkpt lat="43.30073" lon="-3.15854">
        <ele>498.6</ele>
        <time>2021-10-28 10:56:35</time>
      </trkpt>
      <trkpt lat="43.30074" lon="-3.15858">
        <ele>498.6</ele>
        <time>2021-10-28 10:56:36</time>
      </trkpt>
      <trkpt lat="43.30074" lon="-3.15858">
        <ele>498.4</ele>
        <time>2021-10-28 10:56:37</time>
      </trkpt>
      <trkpt lat="43.30078" lon="-3.15863">
        <ele>498.4</ele>
        <time>2021-10-28 10:56:38</time>
      </trkpt>
      <trkpt lat="43.30084" lon="-3.15878">
        <ele>498.2</ele>
        <time>2021-10-28 10:56:39</time>
      </trkpt>
      <trkpt lat="43.30084" lon="-3.15878">
        <ele>498.2</ele>
        <time>2021-10-28 10:56:40</time>
      </trkpt>
      <trkpt lat="43.30087" lon="-3.15885">
        <ele>498</ele>
        <time>2021-10-28 10:56:41</time>
      </trkpt>
      <trkpt lat="43.30088" lon="-3.15891">
        <ele>498</ele>
        <time>2021-10-28 10:56:42</time>
      </trkpt>
      <trkpt lat="43.30096" lon="-3.15905">
        <ele>497.8</ele>
        <time>2021-10-28 10:56:43</time>
      </trkpt>
      <trkpt lat="43.30096" lon="-3.15905">
        <ele>497.8</ele>
        <time>2021-10-28 10:56:44</time>
      </trkpt>
      <trkpt lat="43.30098" lon="-3.15928">
        <ele>497.6</ele>
        <time>2021-10-28 10:56:45</time>
      </trkpt>
      <trkpt lat="43.30098" lon="-3.15928">
        <ele>497.6</ele>
        <time>2021-10-28 10:56:46</time>
      </trkpt>
      <trkpt lat="43.3009" lon="-3.15948">
        <ele>497.4</ele>
        <time>2021-10-28 10:56:47</time>
      </trkpt>
      <trkpt lat="43.3009" lon="-3.15948">
        <ele>497</ele>
        <time>2021-10-28 10:56:48</time>
      </trkpt>
      <trkpt lat="43.3009" lon="-3.15948">
        <ele>496.8</ele>
        <time>2021-10-28 10:56:49</time>
      </trkpt>
      <trkpt lat="43.30081" lon="-3.15972">
        <ele>496.4</ele>
        <time>2021-10-28 10:56:50</time>
      </trkpt>
      <trkpt lat="43.30081" lon="-3.15972">
        <ele>496.2</ele>
        <time>2021-10-28 10:56:51</time>
      </trkpt>
      <trkpt lat="43.30077" lon="-3.15987">
        <ele>495.8</ele>
        <time>2021-10-28 10:56:52</time>
      </trkpt>
      <trkpt lat="43.30077" lon="-3.15987">
        <ele>495.4</ele>
        <time>2021-10-28 10:56:53</time>
      </trkpt>
      <trkpt lat="43.30077" lon="-3.16">
        <ele>495.2</ele>
        <time>2021-10-28 10:56:54</time>
      </trkpt>
      <trkpt lat="43.30077" lon="-3.16">
        <ele>494.8</ele>
        <time>2021-10-28 10:56:55</time>
      </trkpt>
      <trkpt lat="43.30078" lon="-3.16014">
        <ele>494.4</ele>
        <time>2021-10-28 10:56:56</time>
      </trkpt>
      <trkpt lat="43.30078" lon="-3.16014">
        <ele>493.8</ele>
        <time>2021-10-28 10:56:57</time>
      </trkpt>
      <trkpt lat="43.30076" lon="-3.16023">
        <ele>493.2</ele>
        <time>2021-10-28 10:56:58</time>
      </trkpt>
      <trkpt lat="43.30076" lon="-3.16029">
        <ele>492.6</ele>
        <time>2021-10-28 10:56:59</time>
      </trkpt>
      <trkpt lat="43.30076" lon="-3.16036">
        <ele>492</ele>
        <time>2021-10-28 10:57:00</time>
      </trkpt>
      <trkpt lat="43.30077" lon="-3.16041">
        <ele>491.6</ele>
        <time>2021-10-28 10:57:01</time>
      </trkpt>
      <trkpt lat="43.30077" lon="-3.16047">
        <ele>491</ele>
        <time>2021-10-28 10:57:02</time>
      </trkpt>
      <trkpt lat="43.30073" lon="-3.16059">
        <ele>490.4</ele>
        <time>2021-10-28 10:57:03</time>
      </trkpt>
      <trkpt lat="43.30073" lon="-3.16059">
        <ele>489.8</ele>
        <time>2021-10-28 10:57:04</time>
      </trkpt>
      <trkpt lat="43.30069" lon="-3.1607">
        <ele>489.2</ele>
        <time>2021-10-28 10:57:05</time>
      </trkpt>
      <trkpt lat="43.30068" lon="-3.16076">
        <ele>488.8</ele>
        <time>2021-10-28 10:57:06</time>
      </trkpt>
      <trkpt lat="43.30068" lon="-3.16076">
        <ele>488.4</ele>
        <time>2021-10-28 10:57:07</time>
      </trkpt>
      <trkpt lat="43.30062" lon="-3.16087">
        <ele>487.8</ele>
        <time>2021-10-28 10:57:08</time>
      </trkpt>
      <trkpt lat="43.30059" lon="-3.16092">
        <ele>487.4</ele>
        <time>2021-10-28 10:57:09</time>
      </trkpt>
      <trkpt lat="43.30059" lon="-3.16092">
        <ele>486.8</ele>
        <time>2021-10-28 10:57:10</time>
      </trkpt>
      <trkpt lat="43.30059" lon="-3.16092">
        <ele>486.4</ele>
        <time>2021-10-28 10:57:11</time>
      </trkpt>
      <trkpt lat="43.3005" lon="-3.16099">
        <ele>486</ele>
        <time>2021-10-28 10:57:12</time>
      </trkpt>
      <trkpt lat="43.3005" lon="-3.16099">
        <ele>485.6</ele>
        <time>2021-10-28 10:57:13</time>
      </trkpt>
      <trkpt lat="43.3005" lon="-3.16099">
        <ele>485.2</ele>
        <time>2021-10-28 10:57:14</time>
      </trkpt>
      <trkpt lat="43.30042" lon="-3.16101">
        <ele>484.8</ele>
        <time>2021-10-28 10:57:15</time>
      </trkpt>
      <trkpt lat="43.30034" lon="-3.16103">
        <ele>484.4</ele>
        <time>2021-10-28 10:57:16</time>
      </trkpt>
      <trkpt lat="43.30034" lon="-3.16103">
        <ele>483.8</ele>
        <time>2021-10-28 10:57:17</time>
      </trkpt>
      <trkpt lat="43.30026" lon="-3.16106">
        <ele>483.4</ele>
        <time>2021-10-28 10:57:18</time>
      </trkpt>
      <trkpt lat="43.30026" lon="-3.16106">
        <ele>482.8</ele>
        <time>2021-10-28 10:57:19</time>
      </trkpt>
      <trkpt lat="43.30017" lon="-3.16108">
        <ele>482.4</ele>
        <time>2021-10-28 10:57:20</time>
      </trkpt>
      <trkpt lat="43.30017" lon="-3.16108">
        <ele>482</ele>
        <time>2021-10-28 10:57:21</time>
      </trkpt>
      <trkpt lat="43.30015" lon="-3.1611">
        <ele>481.4</ele>
        <time>2021-10-28 10:57:22</time>
      </trkpt>
      <trkpt lat="43.30008" lon="-3.16112">
        <ele>481</ele>
        <time>2021-10-28 10:57:23</time>
      </trkpt>
      <trkpt lat="43.30008" lon="-3.16112">
        <ele>480.4</ele>
        <time>2021-10-28 10:57:24</time>
      </trkpt>
      <trkpt lat="43.30006" lon="-3.16112">
        <ele>480</ele>
        <time>2021-10-28 10:57:25</time>
      </trkpt>
      <trkpt lat="43.29999" lon="-3.16115">
        <ele>479.6</ele>
        <time>2021-10-28 10:57:26</time>
      </trkpt>
      <trkpt lat="43.29999" lon="-3.16115">
        <ele>479.2</ele>
        <time>2021-10-28 10:57:27</time>
      </trkpt>
      <trkpt lat="43.29994" lon="-3.16116">
        <ele>478.8</ele>
        <time>2021-10-28 10:57:28</time>
      </trkpt>
      <trkpt lat="43.29994" lon="-3.16116">
        <ele>478.4</ele>
        <time>2021-10-28 10:57:29</time>
      </trkpt>
      <trkpt lat="43.29992" lon="-3.16117">
        <ele>478.2</ele>
        <time>2021-10-28 10:57:30</time>
      </trkpt>
      <trkpt lat="43.29988" lon="-3.16117">
        <ele>477.8</ele>
        <time>2021-10-28 10:57:31</time>
      </trkpt>
      <trkpt lat="43.2998" lon="-3.16124">
        <ele>477.4</ele>
        <time>2021-10-28 10:57:32</time>
      </trkpt>
      <trkpt lat="43.29978" lon="-3.16131">
        <ele>477</ele>
        <time>2021-10-28 10:57:33</time>
      </trkpt>
      <trkpt lat="43.29978" lon="-3.16131">
        <ele>476.8</ele>
        <time>2021-10-28 10:57:34</time>
      </trkpt>
      <trkpt lat="43.29978" lon="-3.1614">
        <ele>476.4</ele>
        <time>2021-10-28 10:57:35</time>
      </trkpt>
      <trkpt lat="43.29978" lon="-3.1614">
        <ele>476</ele>
        <time>2021-10-28 10:57:36</time>
      </trkpt>
      <trkpt lat="43.29976" lon="-3.16145">
        <ele>475.4</ele>
        <time>2021-10-28 10:57:37</time>
      </trkpt>
      <trkpt lat="43.29975" lon="-3.16153">
        <ele>475</ele>
        <time>2021-10-28 10:57:38</time>
      </trkpt>
      <trkpt lat="43.29975" lon="-3.16153">
        <ele>474.8</ele>
        <time>2021-10-28 10:57:39</time>
      </trkpt>
      <trkpt lat="43.29974" lon="-3.16159">
        <ele>474.4</ele>
        <time>2021-10-28 10:57:40</time>
      </trkpt>
      <trkpt lat="43.29973" lon="-3.16161">
        <ele>474</ele>
        <time>2021-10-28 10:57:41</time>
      </trkpt>
      <trkpt lat="43.29973" lon="-3.16161">
        <ele>473.8</ele>
        <time>2021-10-28 10:57:42</time>
      </trkpt>
      <trkpt lat="43.29972" lon="-3.16167">
        <ele>473.4</ele>
        <time>2021-10-28 10:57:43</time>
      </trkpt>
      <trkpt lat="43.29972" lon="-3.16167">
        <ele>473.2</ele>
        <time>2021-10-28 10:57:44</time>
      </trkpt>
      <trkpt lat="43.29973" lon="-3.1617">
        <ele>472.8</ele>
        <time>2021-10-28 10:57:45</time>
      </trkpt>
      <trkpt lat="43.29976" lon="-3.16181">
        <ele>472.4</ele>
        <time>2021-10-28 10:57:46</time>
      </trkpt>
      <trkpt lat="43.29976" lon="-3.16184">
        <ele>472</ele>
        <time>2021-10-28 10:57:47</time>
      </trkpt>
      <trkpt lat="43.29976" lon="-3.16184">
        <ele>471.6</ele>
        <time>2021-10-28 10:57:48</time>
      </trkpt>
      <trkpt lat="43.29972" lon="-3.16192">
        <ele>471.2</ele>
        <time>2021-10-28 10:57:49</time>
      </trkpt>
      <trkpt lat="43.29973" lon="-3.16197">
        <ele>470.8</ele>
        <time>2021-10-28 10:57:50</time>
      </trkpt>
      <trkpt lat="43.29973" lon="-3.16197">
        <ele>470.4</ele>
        <time>2021-10-28 10:57:51</time>
      </trkpt>
      <trkpt lat="43.29975" lon="-3.16201">
        <ele>470</ele>
        <time>2021-10-28 10:57:52</time>
      </trkpt>
      <trkpt lat="43.29978" lon="-3.16207">
        <ele>469.4</ele>
        <time>2021-10-28 10:57:53</time>
      </trkpt>
      <trkpt lat="43.2998" lon="-3.16213">
        <ele>469</ele>
        <time>2021-10-28 10:57:54</time>
      </trkpt>
      <trkpt lat="43.29982" lon="-3.16226">
        <ele>468.6</ele>
        <time>2021-10-28 10:57:55</time>
      </trkpt>
      <trkpt lat="43.29982" lon="-3.16226">
        <ele>468.2</ele>
        <time>2021-10-28 10:57:56</time>
      </trkpt>
      <trkpt lat="43.29986" lon="-3.16233">
        <ele>467.8</ele>
        <time>2021-10-28 10:57:57</time>
      </trkpt>
      <trkpt lat="43.29987" lon="-3.1624">
        <ele>467.4</ele>
        <time>2021-10-28 10:57:58</time>
      </trkpt>
      <trkpt lat="43.29989" lon="-3.16249">
        <ele>467</ele>
        <time>2021-10-28 10:57:59</time>
      </trkpt>
      <trkpt lat="43.29989" lon="-3.16249">
        <ele>466.8</ele>
        <time>2021-10-28 10:58:00</time>
      </trkpt>
      <trkpt lat="43.29989" lon="-3.16258">
        <ele>466.4</ele>
        <time>2021-10-28 10:58:01</time>
      </trkpt>
      <trkpt lat="43.29987" lon="-3.16264">
        <ele>466</ele>
        <time>2021-10-28 10:58:02</time>
      </trkpt>
      <trkpt lat="43.29987" lon="-3.16268">
        <ele>465.8</ele>
        <time>2021-10-28 10:58:03</time>
      </trkpt>
      <trkpt lat="43.2999" lon="-3.16277">
        <ele>465.6</ele>
        <time>2021-10-28 10:58:04</time>
      </trkpt>
      <trkpt lat="43.2999" lon="-3.16277">
        <ele>465.2</ele>
        <time>2021-10-28 10:58:05</time>
      </trkpt>
      <trkpt lat="43.29992" lon="-3.16282">
        <ele>465</ele>
        <time>2021-10-28 10:58:06</time>
      </trkpt>
      <trkpt lat="43.29994" lon="-3.16286">
        <ele>464.6</ele>
        <time>2021-10-28 10:58:07</time>
      </trkpt>
      <trkpt lat="43.29994" lon="-3.16298">
        <ele>464.2</ele>
        <time>2021-10-28 10:58:08</time>
      </trkpt>
      <trkpt lat="43.29994" lon="-3.16298">
        <ele>463.8</ele>
        <time>2021-10-28 10:58:09</time>
      </trkpt>
      <trkpt lat="43.29994" lon="-3.16312">
        <ele>463.4</ele>
        <time>2021-10-28 10:58:10</time>
      </trkpt>
      <trkpt lat="43.29994" lon="-3.16312">
        <ele>462.8</ele>
        <time>2021-10-28 10:58:11</time>
      </trkpt>
      <trkpt lat="43.29995" lon="-3.1632">
        <ele>462.4</ele>
        <time>2021-10-28 10:58:12</time>
      </trkpt>
      <trkpt lat="43.29997" lon="-3.16323">
        <ele>462</ele>
        <time>2021-10-28 10:58:13</time>
      </trkpt>
      <trkpt lat="43.30004" lon="-3.16332">
        <ele>461.8</ele>
        <time>2021-10-28 10:58:14</time>
      </trkpt>
      <trkpt lat="43.30007" lon="-3.16336">
        <ele>461.4</ele>
        <time>2021-10-28 10:58:15</time>
      </trkpt>
      <trkpt lat="43.30007" lon="-3.16336">
        <ele>461</ele>
        <time>2021-10-28 10:58:16</time>
      </trkpt>
      <trkpt lat="43.30011" lon="-3.16348">
        <ele>460.6</ele>
        <time>2021-10-28 10:58:17</time>
      </trkpt>
      <trkpt lat="43.30011" lon="-3.16348">
        <ele>460</ele>
        <time>2021-10-28 10:58:18</time>
      </trkpt>
      <trkpt lat="43.30016" lon="-3.16356">
        <ele>459.6</ele>
        <time>2021-10-28 10:58:19</time>
      </trkpt>
      <trkpt lat="43.30016" lon="-3.16356">
        <ele>459</ele>
        <time>2021-10-28 10:58:20</time>
      </trkpt>
      <trkpt lat="43.30018" lon="-3.16362">
        <ele>458.6</ele>
        <time>2021-10-28 10:58:21</time>
      </trkpt>
      <trkpt lat="43.30018" lon="-3.16362">
        <ele>458.2</ele>
        <time>2021-10-28 10:58:22</time>
      </trkpt>
      <trkpt lat="43.30022" lon="-3.16363">
        <ele>457.8</ele>
        <time>2021-10-28 10:58:23</time>
      </trkpt>
      <trkpt lat="43.30023" lon="-3.16367">
        <ele>457.6</ele>
        <time>2021-10-28 10:58:24</time>
      </trkpt>
      <trkpt lat="43.30027" lon="-3.16375">
        <ele>457.2</ele>
        <time>2021-10-28 10:58:25</time>
      </trkpt>
      <trkpt lat="43.30029" lon="-3.16378">
        <ele>456.8</ele>
        <time>2021-10-28 10:58:26</time>
      </trkpt>
      <trkpt lat="43.30031" lon="-3.1638">
        <ele>456.4</ele>
        <time>2021-10-28 10:58:27</time>
      </trkpt>
      <trkpt lat="43.30031" lon="-3.1638">
        <ele>455.8</ele>
        <time>2021-10-28 10:58:28</time>
      </trkpt>
      <trkpt lat="43.30037" lon="-3.16385">
        <ele>455.4</ele>
        <time>2021-10-28 10:58:29</time>
      </trkpt>
      <trkpt lat="43.30043" lon="-3.16393">
        <ele>455</ele>
        <time>2021-10-28 10:58:30</time>
      </trkpt>
      <trkpt lat="43.30043" lon="-3.16393">
        <ele>454.6</ele>
        <time>2021-10-28 10:58:31</time>
      </trkpt>
      <trkpt lat="43.30045" lon="-3.16397">
        <ele>454.2</ele>
        <time>2021-10-28 10:58:32</time>
      </trkpt>
      <trkpt lat="43.30049" lon="-3.16401">
        <ele>454</ele>
        <time>2021-10-28 10:58:33</time>
      </trkpt>
      <trkpt lat="43.30049" lon="-3.16401">
        <ele>453.6</ele>
        <time>2021-10-28 10:58:34</time>
      </trkpt>
      <trkpt lat="43.30057" lon="-3.16404">
        <ele>453.2</ele>
        <time>2021-10-28 10:58:35</time>
      </trkpt>
      <trkpt lat="43.30057" lon="-3.16404">
        <ele>452.8</ele>
        <time>2021-10-28 10:58:36</time>
      </trkpt>
      <trkpt lat="43.30063" lon="-3.16413">
        <ele>452.4</ele>
        <time>2021-10-28 10:58:37</time>
      </trkpt>
      <trkpt lat="43.30063" lon="-3.16413">
        <ele>452</ele>
        <time>2021-10-28 10:58:38</time>
      </trkpt>
      <trkpt lat="43.30064" lon="-3.16424">
        <ele>451.4</ele>
        <time>2021-10-28 10:58:39</time>
      </trkpt>
      <trkpt lat="43.30066" lon="-3.16436">
        <ele>451</ele>
        <time>2021-10-28 10:58:40</time>
      </trkpt>
      <trkpt lat="43.30065" lon="-3.16441">
        <ele>450.6</ele>
        <time>2021-10-28 10:58:41</time>
      </trkpt>
      <trkpt lat="43.30063" lon="-3.16447">
        <ele>450.2</ele>
        <time>2021-10-28 10:58:42</time>
      </trkpt>
      <trkpt lat="43.30063" lon="-3.16447">
        <ele>450</ele>
        <time>2021-10-28 10:58:43</time>
      </trkpt>
      <trkpt lat="43.30063" lon="-3.16447">
        <ele>449.8</ele>
        <time>2021-10-28 10:58:44</time>
      </trkpt>
      <trkpt lat="43.30061" lon="-3.1645">
        <ele>449.6</ele>
        <time>2021-10-28 10:58:45</time>
      </trkpt>
      <trkpt lat="43.30057" lon="-3.16452">
        <ele>449.4</ele>
        <time>2021-10-28 10:58:46</time>
      </trkpt>
      <trkpt lat="43.30057" lon="-3.16452">
        <ele>449.2</ele>
        <time>2021-10-28 10:58:47</time>
      </trkpt>
      <trkpt lat="43.30054" lon="-3.16452">
        <ele>448.8</ele>
        <time>2021-10-28 10:58:48</time>
      </trkpt>
      <trkpt lat="43.30048" lon="-3.16456">
        <ele>448.6</ele>
        <time>2021-10-28 10:58:49</time>
      </trkpt>
      <trkpt lat="43.30048" lon="-3.16456">
        <ele>448.2</ele>
        <time>2021-10-28 10:58:50</time>
      </trkpt>
      <trkpt lat="43.30041" lon="-3.16455">
        <ele>447.6</ele>
        <time>2021-10-28 10:58:51</time>
      </trkpt>
      <trkpt lat="43.30041" lon="-3.16455">
        <ele>447</ele>
        <time>2021-10-28 10:58:52</time>
      </trkpt>
      <trkpt lat="43.30041" lon="-3.16455">
        <ele>446.6</ele>
        <time>2021-10-28 10:58:53</time>
      </trkpt>
      <trkpt lat="43.30033" lon="-3.16458">
        <ele>446</ele>
        <time>2021-10-28 10:58:54</time>
      </trkpt>
      <trkpt lat="43.30031" lon="-3.16459">
        <ele>445.6</ele>
        <time>2021-10-28 10:58:55</time>
      </trkpt>
      <trkpt lat="43.30031" lon="-3.16459">
        <ele>445.2</ele>
        <time>2021-10-28 10:58:56</time>
      </trkpt>
      <trkpt lat="43.30026" lon="-3.16466">
        <ele>445</ele>
        <time>2021-10-28 10:58:57</time>
      </trkpt>
      <trkpt lat="43.30026" lon="-3.16466">
        <ele>444.6</ele>
        <time>2021-10-28 10:58:58</time>
      </trkpt>
      <trkpt lat="43.30024" lon="-3.16471">
        <ele>444.2</ele>
        <time>2021-10-28 10:58:59</time>
      </trkpt>
      <trkpt lat="43.30024" lon="-3.16472">
        <ele>443.8</ele>
        <time>2021-10-28 10:59:00</time>
      </trkpt>
      <trkpt lat="43.30024" lon="-3.16472">
        <ele>443.4</ele>
        <time>2021-10-28 10:59:01</time>
      </trkpt>
      <trkpt lat="43.30023" lon="-3.16478">
        <ele>442.8</ele>
        <time>2021-10-28 10:59:02</time>
      </trkpt>
      <trkpt lat="43.30023" lon="-3.16478">
        <ele>442.4</ele>
        <time>2021-10-28 10:59:03</time>
      </trkpt>
      <trkpt lat="43.30019" lon="-3.16481">
        <ele>442</ele>
        <time>2021-10-28 10:59:04</time>
      </trkpt>
      <trkpt lat="43.3002" lon="-3.16492">
        <ele>441.6</ele>
        <time>2021-10-28 10:59:05</time>
      </trkpt>
      <trkpt lat="43.30021" lon="-3.16496">
        <ele>441.2</ele>
        <time>2021-10-28 10:59:06</time>
      </trkpt>
      <trkpt lat="43.30021" lon="-3.16496">
        <ele>440.6</ele>
        <time>2021-10-28 10:59:07</time>
      </trkpt>
      <trkpt lat="43.30023" lon="-3.16503">
        <ele>440.2</ele>
        <time>2021-10-28 10:59:08</time>
      </trkpt>
      <trkpt lat="43.30024" lon="-3.16508">
        <ele>439.6</ele>
        <time>2021-10-28 10:59:09</time>
      </trkpt>
      <trkpt lat="43.30024" lon="-3.16508">
        <ele>439.2</ele>
        <time>2021-10-28 10:59:10</time>
      </trkpt>
      <trkpt lat="43.30023" lon="-3.1651">
        <ele>438.6</ele>
        <time>2021-10-28 10:59:11</time>
      </trkpt>
      <trkpt lat="43.30021" lon="-3.16515">
        <ele>438</ele>
        <time>2021-10-28 10:59:12</time>
      </trkpt>
      <trkpt lat="43.30021" lon="-3.16517">
        <ele>437.6</ele>
        <time>2021-10-28 10:59:13</time>
      </trkpt>
      <trkpt lat="43.30021" lon="-3.16517">
        <ele>437.2</ele>
        <time>2021-10-28 10:59:14</time>
      </trkpt>
      <trkpt lat="43.3002" lon="-3.16521">
        <ele>437</ele>
        <time>2021-10-28 10:59:15</time>
      </trkpt>
      <trkpt lat="43.30019" lon="-3.16531">
        <ele>436.6</ele>
        <time>2021-10-28 10:59:16</time>
      </trkpt>
      <trkpt lat="43.30019" lon="-3.16531">
        <ele>436.2</ele>
        <time>2021-10-28 10:59:17</time>
      </trkpt>
      <trkpt lat="43.30016" lon="-3.16546">
        <ele>435.2</ele>
        <time>2021-10-28 10:59:18</time>
      </trkpt>
      <trkpt lat="43.30016" lon="-3.16546">
        <ele>434.2</ele>
        <time>2021-10-28 10:59:19</time>
      </trkpt>
      <trkpt lat="43.30013" lon="-3.16559">
        <ele>433</ele>
        <time>2021-10-28 10:59:20</time>
      </trkpt>
      <trkpt lat="43.30013" lon="-3.16559">
        <ele>432</ele>
        <time>2021-10-28 10:59:21</time>
      </trkpt>
      <trkpt lat="43.30012" lon="-3.16566">
        <ele>431</ele>
        <time>2021-10-28 10:59:22</time>
      </trkpt>
      <trkpt lat="43.30006" lon="-3.16575">
        <ele>430.2</ele>
        <time>2021-10-28 10:59:23</time>
      </trkpt>
      <trkpt lat="43.30006" lon="-3.16575">
        <ele>429.8</ele>
        <time>2021-10-28 10:59:24</time>
      </trkpt>
      <trkpt lat="43.30004" lon="-3.1658">
        <ele>429.4</ele>
        <time>2021-10-28 10:59:25</time>
      </trkpt>
      <trkpt lat="43.30002" lon="-3.16584">
        <ele>429.2</ele>
        <time>2021-10-28 10:59:26</time>
      </trkpt>
      <trkpt lat="43.29998" lon="-3.16597">
        <ele>429.2</ele>
        <time>2021-10-28 10:59:27</time>
      </trkpt>
      <trkpt lat="43.29998" lon="-3.16597">
        <ele>429</ele>
        <time>2021-10-28 10:59:28</time>
      </trkpt>
      <trkpt lat="43.29995" lon="-3.16603">
        <ele>428.8</ele>
        <time>2021-10-28 10:59:29</time>
      </trkpt>
      <trkpt lat="43.29989" lon="-3.16612">
        <ele>428.4</ele>
        <time>2021-10-28 10:59:30</time>
      </trkpt>
      <trkpt lat="43.29989" lon="-3.16612">
        <ele>428</ele>
        <time>2021-10-28 10:59:31</time>
      </trkpt>
      <trkpt lat="43.29984" lon="-3.16616">
        <ele>427.6</ele>
        <time>2021-10-28 10:59:32</time>
      </trkpt>
      <trkpt lat="43.29983" lon="-3.16619">
        <ele>427.4</ele>
        <time>2021-10-28 10:59:33</time>
      </trkpt>
      <trkpt lat="43.29983" lon="-3.16619">
        <ele>427</ele>
        <time>2021-10-28 10:59:34</time>
      </trkpt>
      <trkpt lat="43.29978" lon="-3.16622">
        <ele>426.6</ele>
        <time>2021-10-28 10:59:35</time>
      </trkpt>
      <trkpt lat="43.29975" lon="-3.16625">
        <ele>426.2</ele>
        <time>2021-10-28 10:59:36</time>
      </trkpt>
      <trkpt lat="43.29975" lon="-3.16625">
        <ele>425.6</ele>
        <time>2021-10-28 10:59:37</time>
      </trkpt>
      <trkpt lat="43.29972" lon="-3.1663">
        <ele>425.2</ele>
        <time>2021-10-28 10:59:38</time>
      </trkpt>
      <trkpt lat="43.29972" lon="-3.1663">
        <ele>424.8</ele>
        <time>2021-10-28 10:59:39</time>
      </trkpt>
      <trkpt lat="43.29969" lon="-3.16631">
        <ele>424.4</ele>
        <time>2021-10-28 10:59:40</time>
      </trkpt>
      <trkpt lat="43.29966" lon="-3.16632">
        <ele>424</ele>
        <time>2021-10-28 10:59:41</time>
      </trkpt>
      <trkpt lat="43.29966" lon="-3.16636">
        <ele>423.6</ele>
        <time>2021-10-28 10:59:42</time>
      </trkpt>
      <trkpt lat="43.29965" lon="-3.16638">
        <ele>423.2</ele>
        <time>2021-10-28 10:59:43</time>
      </trkpt>
      <trkpt lat="43.29965" lon="-3.1664">
        <ele>423</ele>
        <time>2021-10-28 10:59:44</time>
      </trkpt>
      <trkpt lat="43.29962" lon="-3.16644">
        <ele>422.6</ele>
        <time>2021-10-28 10:59:45</time>
      </trkpt>
      <trkpt lat="43.29962" lon="-3.16644">
        <ele>422.2</ele>
        <time>2021-10-28 10:59:46</time>
      </trkpt>
      <trkpt lat="43.29961" lon="-3.16646">
        <ele>421.8</ele>
        <time>2021-10-28 10:59:47</time>
      </trkpt>
      <trkpt lat="43.2996" lon="-3.16649">
        <ele>421.4</ele>
        <time>2021-10-28 10:59:48</time>
      </trkpt>
      <trkpt lat="43.29959" lon="-3.16651">
        <ele>421</ele>
        <time>2021-10-28 10:59:49</time>
      </trkpt>
      <trkpt lat="43.29958" lon="-3.16652">
        <ele>420.6</ele>
        <time>2021-10-28 10:59:50</time>
      </trkpt>
      <trkpt lat="43.29957" lon="-3.16655">
        <ele>420.2</ele>
        <time>2021-10-28 10:59:51</time>
      </trkpt>
      <trkpt lat="43.29955" lon="-3.16657">
        <ele>419.6</ele>
        <time>2021-10-28 10:59:52</time>
      </trkpt>
      <trkpt lat="43.29952" lon="-3.1666">
        <ele>419.2</ele>
        <time>2021-10-28 10:59:53</time>
      </trkpt>
      <trkpt lat="43.29946" lon="-3.16665">
        <ele>418.8</ele>
        <time>2021-10-28 10:59:54</time>
      </trkpt>
      <trkpt lat="43.29946" lon="-3.16665">
        <ele>418.2</ele>
        <time>2021-10-28 10:59:55</time>
      </trkpt>
      <trkpt lat="43.29942" lon="-3.16667">
        <ele>417.8</ele>
        <time>2021-10-28 10:59:56</time>
      </trkpt>
      <trkpt lat="43.29939" lon="-3.1667">
        <ele>417.4</ele>
        <time>2021-10-28 10:59:57</time>
      </trkpt>
      <trkpt lat="43.29935" lon="-3.16673">
        <ele>417</ele>
        <time>2021-10-28 10:59:58</time>
      </trkpt>
      <trkpt lat="43.29929" lon="-3.16681">
        <ele>416.6</ele>
        <time>2021-10-28 10:59:59</time>
      </trkpt>
      <trkpt lat="43.29929" lon="-3.16681">
        <ele>416.2</ele>
        <time>2021-10-28 11:00:00</time>
      </trkpt>
      <trkpt lat="43.29926" lon="-3.16684">
        <ele>415.8</ele>
        <time>2021-10-28 11:00:01</time>
      </trkpt>
      <trkpt lat="43.29924" lon="-3.16691">
        <ele>415.6</ele>
        <time>2021-10-28 11:00:02</time>
      </trkpt>
      <trkpt lat="43.29923" lon="-3.16694">
        <ele>415.2</ele>
        <time>2021-10-28 11:00:03</time>
      </trkpt>
      <trkpt lat="43.29923" lon="-3.16694">
        <ele>415</ele>
        <time>2021-10-28 11:00:04</time>
      </trkpt>
      <trkpt lat="43.29921" lon="-3.16698">
        <ele>414.8</ele>
        <time>2021-10-28 11:00:05</time>
      </trkpt>
      <trkpt lat="43.2992" lon="-3.16702">
        <ele>414.6</ele>
        <time>2021-10-28 11:00:06</time>
      </trkpt>
      <trkpt lat="43.29919" lon="-3.1671">
        <ele>414.2</ele>
        <time>2021-10-28 11:00:07</time>
      </trkpt>
      <trkpt lat="43.29919" lon="-3.1671">
        <ele>414</ele>
        <time>2021-10-28 11:00:08</time>
      </trkpt>
      <trkpt lat="43.29919" lon="-3.16719">
        <ele>413.6</ele>
        <time>2021-10-28 11:00:09</time>
      </trkpt>
      <trkpt lat="43.29919" lon="-3.16719">
        <ele>413.2</ele>
        <time>2021-10-28 11:00:10</time>
      </trkpt>
      <trkpt lat="43.29919" lon="-3.16719">
        <ele>412.8</ele>
        <time>2021-10-28 11:00:11</time>
      </trkpt>
      <trkpt lat="43.2992" lon="-3.16733">
        <ele>412.4</ele>
        <time>2021-10-28 11:00:12</time>
      </trkpt>
      <trkpt lat="43.2992" lon="-3.16737">
        <ele>412</ele>
        <time>2021-10-28 11:00:13</time>
      </trkpt>
      <trkpt lat="43.2992" lon="-3.16737">
        <ele>411.6</ele>
        <time>2021-10-28 11:00:14</time>
      </trkpt>
      <trkpt lat="43.29921" lon="-3.16742">
        <ele>411.4</ele>
        <time>2021-10-28 11:00:15</time>
      </trkpt>
      <trkpt lat="43.29922" lon="-3.16746">
        <ele>411</ele>
        <time>2021-10-28 11:00:16</time>
      </trkpt>
      <trkpt lat="43.29923" lon="-3.1675">
        <ele>410.6</ele>
        <time>2021-10-28 11:00:17</time>
      </trkpt>
      <trkpt lat="43.29927" lon="-3.16758">
        <ele>410.2</ele>
        <time>2021-10-28 11:00:18</time>
      </trkpt>
      <trkpt lat="43.29927" lon="-3.16758">
        <ele>409.8</ele>
        <time>2021-10-28 11:00:19</time>
      </trkpt>
      <trkpt lat="43.29927" lon="-3.16758">
        <ele>409.6</ele>
        <time>2021-10-28 11:00:20</time>
      </trkpt>
      <trkpt lat="43.29929" lon="-3.16772">
        <ele>409</ele>
        <time>2021-10-28 11:00:21</time>
      </trkpt>
      <trkpt lat="43.29929" lon="-3.16772">
        <ele>408.6</ele>
        <time>2021-10-28 11:00:22</time>
      </trkpt>
      <trkpt lat="43.2993" lon="-3.16775">
        <ele>408.2</ele>
        <time>2021-10-28 11:00:23</time>
      </trkpt>
      <trkpt lat="43.29932" lon="-3.16778">
        <ele>407.8</ele>
        <time>2021-10-28 11:00:24</time>
      </trkpt>
      <trkpt lat="43.29933" lon="-3.16781">
        <ele>407.4</ele>
        <time>2021-10-28 11:00:25</time>
      </trkpt>
      <trkpt lat="43.29933" lon="-3.16789">
        <ele>407</ele>
        <time>2021-10-28 11:00:26</time>
      </trkpt>
      <trkpt lat="43.29933" lon="-3.16789">
        <ele>406.6</ele>
        <time>2021-10-28 11:00:27</time>
      </trkpt>
      <trkpt lat="43.29936" lon="-3.16791">
        <ele>406.4</ele>
        <time>2021-10-28 11:00:28</time>
      </trkpt>
      <trkpt lat="43.29938" lon="-3.16795">
        <ele>406</ele>
        <time>2021-10-28 11:00:29</time>
      </trkpt>
      <trkpt lat="43.29942" lon="-3.16804">
        <ele>405.8</ele>
        <time>2021-10-28 11:00:30</time>
      </trkpt>
      <trkpt lat="43.29942" lon="-3.16804">
        <ele>405.4</ele>
        <time>2021-10-28 11:00:31</time>
      </trkpt>
      <trkpt lat="43.29944" lon="-3.16808">
        <ele>405.2</ele>
        <time>2021-10-28 11:00:32</time>
      </trkpt>
      <trkpt lat="43.29945" lon="-3.16813">
        <ele>404.8</ele>
        <time>2021-10-28 11:00:33</time>
      </trkpt>
      <trkpt lat="43.29945" lon="-3.16813">
        <ele>404.4</ele>
        <time>2021-10-28 11:00:34</time>
      </trkpt>
      <trkpt lat="43.29949" lon="-3.16816">
        <ele>404.2</ele>
        <time>2021-10-28 11:00:35</time>
      </trkpt>
      <trkpt lat="43.29949" lon="-3.16816">
        <ele>403.8</ele>
        <time>2021-10-28 11:00:36</time>
      </trkpt>
      <trkpt lat="43.29954" lon="-3.16818">
        <ele>403.6</ele>
        <time>2021-10-28 11:00:37</time>
      </trkpt>
      <trkpt lat="43.29957" lon="-3.1682">
        <ele>403.2</ele>
        <time>2021-10-28 11:00:38</time>
      </trkpt>
      <trkpt lat="43.29959" lon="-3.16828">
        <ele>402.8</ele>
        <time>2021-10-28 11:00:39</time>
      </trkpt>
      <trkpt lat="43.29959" lon="-3.16828">
        <ele>402.4</ele>
        <time>2021-10-28 11:00:40</time>
      </trkpt>
      <trkpt lat="43.29962" lon="-3.16838">
        <ele>402</ele>
        <time>2021-10-28 11:00:41</time>
      </trkpt>
      <trkpt lat="43.29962" lon="-3.16838">
        <ele>401.4</ele>
        <time>2021-10-28 11:00:42</time>
      </trkpt>
      <trkpt lat="43.29962" lon="-3.16838">
        <ele>401</ele>
        <time>2021-10-28 11:00:43</time>
      </trkpt>
      <trkpt lat="43.29953" lon="-3.16853">
        <ele>400.6</ele>
        <time>2021-10-28 11:00:44</time>
      </trkpt>
      <trkpt lat="43.29953" lon="-3.16856">
        <ele>400.2</ele>
        <time>2021-10-28 11:00:45</time>
      </trkpt>
      <trkpt lat="43.29952" lon="-3.16861">
        <ele>400</ele>
        <time>2021-10-28 11:00:46</time>
      </trkpt>
      <trkpt lat="43.29949" lon="-3.16869">
        <ele>399.6</ele>
        <time>2021-10-28 11:00:47</time>
      </trkpt>
      <trkpt lat="43.29947" lon="-3.16874">
        <ele>399.4</ele>
        <time>2021-10-28 11:00:48</time>
      </trkpt>
      <trkpt lat="43.29947" lon="-3.16874">
        <ele>399.2</ele>
        <time>2021-10-28 11:00:49</time>
      </trkpt>
      <trkpt lat="43.29947" lon="-3.16878">
        <ele>399</ele>
        <time>2021-10-28 11:00:50</time>
      </trkpt>
      <trkpt lat="43.29947" lon="-3.16878">
        <ele>398.6</ele>
        <time>2021-10-28 11:00:51</time>
      </trkpt>
      <trkpt lat="43.29944" lon="-3.16879">
        <ele>398.4</ele>
        <time>2021-10-28 11:00:52</time>
      </trkpt>
      <trkpt lat="43.29943" lon="-3.1688">
        <ele>398.2</ele>
        <time>2021-10-28 11:00:53</time>
      </trkpt>
      <trkpt lat="43.29941" lon="-3.16883">
        <ele>397.8</ele>
        <time>2021-10-28 11:00:54</time>
      </trkpt>
      <trkpt lat="43.29939" lon="-3.16887">
        <ele>397.4</ele>
        <time>2021-10-28 11:00:55</time>
      </trkpt>
      <trkpt lat="43.29939" lon="-3.16887">
        <ele>397</ele>
        <time>2021-10-28 11:00:56</time>
      </trkpt>
      <trkpt lat="43.29941" lon="-3.16894">
        <ele>396.6</ele>
        <time>2021-10-28 11:00:57</time>
      </trkpt>
      <trkpt lat="43.29941" lon="-3.16894">
        <ele>396</ele>
        <time>2021-10-28 11:00:58</time>
      </trkpt>
      <trkpt lat="43.29939" lon="-3.16904">
        <ele>395.6</ele>
        <time>2021-10-28 11:00:59</time>
      </trkpt>
      <trkpt lat="43.29939" lon="-3.16904">
        <ele>395.2</ele>
        <time>2021-10-28 11:01:00</time>
      </trkpt>
      <trkpt lat="43.2994" lon="-3.16909">
        <ele>394.8</ele>
        <time>2021-10-28 11:01:01</time>
      </trkpt>
      <trkpt lat="43.29939" lon="-3.16913">
        <ele>394.2</ele>
        <time>2021-10-28 11:01:02</time>
      </trkpt>
      <trkpt lat="43.29938" lon="-3.16919">
        <ele>393.8</ele>
        <time>2021-10-28 11:01:03</time>
      </trkpt>
      <trkpt lat="43.29939" lon="-3.16929">
        <ele>393.4</ele>
        <time>2021-10-28 11:01:04</time>
      </trkpt>
      <trkpt lat="43.29939" lon="-3.16929">
        <ele>392.8</ele>
        <time>2021-10-28 11:01:05</time>
      </trkpt>
      <trkpt lat="43.2994" lon="-3.16938">
        <ele>392.4</ele>
        <time>2021-10-28 11:01:06</time>
      </trkpt>
      <trkpt lat="43.2994" lon="-3.16938">
        <ele>392</ele>
        <time>2021-10-28 11:01:07</time>
      </trkpt>
      <trkpt lat="43.29942" lon="-3.16944">
        <ele>391.6</ele>
        <time>2021-10-28 11:01:08</time>
      </trkpt>
      <trkpt lat="43.29944" lon="-3.16959">
        <ele>391</ele>
        <time>2021-10-28 11:01:09</time>
      </trkpt>
      <trkpt lat="43.29944" lon="-3.16959">
        <ele>390.2</ele>
        <time>2021-10-28 11:01:10</time>
      </trkpt>
      <trkpt lat="43.29947" lon="-3.16968">
        <ele>389.6</ele>
        <time>2021-10-28 11:01:11</time>
      </trkpt>
      <trkpt lat="43.29947" lon="-3.16968">
        <ele>388.8</ele>
        <time>2021-10-28 11:01:12</time>
      </trkpt>
      <trkpt lat="43.29948" lon="-3.1698">
        <ele>388.2</ele>
        <time>2021-10-28 11:01:13</time>
      </trkpt>
      <trkpt lat="43.29948" lon="-3.1698">
        <ele>387.6</ele>
        <time>2021-10-28 11:01:14</time>
      </trkpt>
      <trkpt lat="43.29955" lon="-3.1699">
        <ele>387</ele>
        <time>2021-10-28 11:01:15</time>
      </trkpt>
      <trkpt lat="43.29955" lon="-3.1699">
        <ele>386.6</ele>
        <time>2021-10-28 11:01:16</time>
      </trkpt>
      <trkpt lat="43.29964" lon="-3.17001">
        <ele>386</ele>
        <time>2021-10-28 11:01:17</time>
      </trkpt>
      <trkpt lat="43.29964" lon="-3.17001">
        <ele>385.4</ele>
        <time>2021-10-28 11:01:18</time>
      </trkpt>
      <trkpt lat="43.29967" lon="-3.17008">
        <ele>384.6</ele>
        <time>2021-10-28 11:01:19</time>
      </trkpt>
      <trkpt lat="43.29971" lon="-3.17024">
        <ele>383.8</ele>
        <time>2021-10-28 11:01:20</time>
      </trkpt>
      <trkpt lat="43.29972" lon="-3.17031">
        <ele>383.2</ele>
        <time>2021-10-28 11:01:21</time>
      </trkpt>
      <trkpt lat="43.29974" lon="-3.17037">
        <ele>382.4</ele>
        <time>2021-10-28 11:01:22</time>
      </trkpt>
      <trkpt lat="43.29974" lon="-3.17037">
        <ele>382.2</ele>
        <time>2021-10-28 11:01:23</time>
      </trkpt>
      <trkpt lat="43.29976" lon="-3.17042">
        <ele>382</ele>
        <time>2021-10-28 11:01:24</time>
      </trkpt>
      <trkpt lat="43.29976" lon="-3.17042">
        <ele>381.6</ele>
        <time>2021-10-28 11:01:25</time>
      </trkpt>
      <trkpt lat="43.29976" lon="-3.17047">
        <ele>381.4</ele>
        <time>2021-10-28 11:01:26</time>
      </trkpt>
      <trkpt lat="43.29979" lon="-3.17048">
        <ele>381.2</ele>
        <time>2021-10-28 11:01:27</time>
      </trkpt>
      <trkpt lat="43.29983" lon="-3.17053">
        <ele>380.8</ele>
        <time>2021-10-28 11:01:28</time>
      </trkpt>
      <trkpt lat="43.29983" lon="-3.17053">
        <ele>380.6</ele>
        <time>2021-10-28 11:01:29</time>
      </trkpt>
      <trkpt lat="43.29985" lon="-3.17053">
        <ele>380.4</ele>
        <time>2021-10-28 11:01:30</time>
      </trkpt>
      <trkpt lat="43.29988" lon="-3.17054">
        <ele>380.4</ele>
        <time>2021-10-28 11:01:31</time>
      </trkpt>
      <trkpt lat="43.29988" lon="-3.17054">
        <ele>380.4</ele>
        <time>2021-10-28 11:01:32</time>
      </trkpt>
      <trkpt lat="43.29993" lon="-3.17056">
        <ele>380.4</ele>
        <time>2021-10-28 11:01:33</time>
      </trkpt>
      <trkpt lat="43.29993" lon="-3.17056">
        <ele>380.4</ele>
        <time>2021-10-28 11:01:34</time>
      </trkpt>
      <trkpt lat="43.29996" lon="-3.17062">
        <ele>380.6</ele>
        <time>2021-10-28 11:01:35</time>
      </trkpt>
      <trkpt lat="43.29996" lon="-3.17062">
        <ele>380.6</ele>
        <time>2021-10-28 11:01:36</time>
      </trkpt>
      <trkpt lat="43.29997" lon="-3.17066">
        <ele>380.6</ele>
        <time>2021-10-28 11:01:37</time>
      </trkpt>
      <trkpt lat="43.29998" lon="-3.17073">
        <ele>380.6</ele>
        <time>2021-10-28 11:01:38</time>
      </trkpt>
      <trkpt lat="43.29998" lon="-3.17073">
        <ele>380.8</ele>
        <time>2021-10-28 11:01:39</time>
      </trkpt>
      <trkpt lat="43.29998" lon="-3.17074">
        <ele>381</ele>
        <time>2021-10-28 11:01:40</time>
      </trkpt>
      <trkpt lat="43.29998" lon="-3.17074">
        <ele>381</ele>
        <time>2021-10-28 11:01:41</time>
      </trkpt>
      <trkpt lat="43.29999" lon="-3.17074">
        <ele>381</ele>
        <time>2021-10-28 11:01:42</time>
      </trkpt>
      <trkpt lat="43.29999" lon="-3.17074">
        <ele>381</ele>
        <time>2021-10-28 11:01:43</time>
      </trkpt>
      <trkpt lat="43.3" lon="-3.17073">
        <ele>381</ele>
        <time>2021-10-28 11:01:44</time>
      </trkpt>
      <trkpt lat="43.3" lon="-3.17074">
        <ele>380.8</ele>
        <time>2021-10-28 11:01:45</time>
      </trkpt>
      <trkpt lat="43.3" lon="-3.17078">
        <ele>380.8</ele>
        <time>2021-10-28 11:01:46</time>
      </trkpt>
      <trkpt lat="43.29999" lon="-3.1708">
        <ele>380.8</ele>
        <time>2021-10-28 11:01:47</time>
      </trkpt>
      <trkpt lat="43.29999" lon="-3.1708">
        <ele>380.8</ele>
        <time>2021-10-28 11:01:48</time>
      </trkpt>
      <trkpt lat="43.29999" lon="-3.17083">
        <ele>381</ele>
        <time>2021-10-28 11:01:49</time>
      </trkpt>
      <trkpt lat="43.30008" lon="-3.17095">
        <ele>382.4</ele>
        <time>2021-10-28 11:01:50</time>
      </trkpt>
      <trkpt lat="43.30008" lon="-3.17103">
        <ele>382.8</ele>
        <time>2021-10-28 11:01:51</time>
      </trkpt>
      <trkpt lat="43.30008" lon="-3.17103">
        <ele>383</ele>
        <time>2021-10-28 11:01:52</time>
      </trkpt>
      <trkpt lat="43.30014" lon="-3.17105">
        <ele>383.2</ele>
        <time>2021-10-28 11:01:53</time>
      </trkpt>
      <trkpt lat="43.30014" lon="-3.17105">
        <ele>383.4</ele>
        <time>2021-10-28 11:01:54</time>
      </trkpt>
      <trkpt lat="43.30016" lon="-3.17104">
        <ele>383.8</ele>
        <time>2021-10-28 11:01:55</time>
      </trkpt>
      <trkpt lat="43.30018" lon="-3.17105">
        <ele>383.8</ele>
        <time>2021-10-28 11:01:56</time>
      </trkpt>
      <trkpt lat="43.30018" lon="-3.17105">
        <ele>384</ele>
        <time>2021-10-28 11:01:57</time>
      </trkpt>
      <trkpt lat="43.3002" lon="-3.17107">
        <ele>384.2</ele>
        <time>2021-10-28 11:01:58</time>
      </trkpt>
      <trkpt lat="43.30025" lon="-3.17108">
        <ele>384.6</ele>
        <time>2021-10-28 11:01:59</time>
      </trkpt>
      <trkpt lat="43.30025" lon="-3.17108">
        <ele>384.8</ele>
        <time>2021-10-28 11:02:00</time>
      </trkpt>
      <trkpt lat="43.30027" lon="-3.17109">
        <ele>385</ele>
        <time>2021-10-28 11:02:01</time>
      </trkpt>
      <trkpt lat="43.30028" lon="-3.17111">
        <ele>385</ele>
        <time>2021-10-28 11:02:02</time>
      </trkpt>
      <trkpt lat="43.30029" lon="-3.17113">
        <ele>385.2</ele>
        <time>2021-10-28 11:02:03</time>
      </trkpt>
      <trkpt lat="43.30033" lon="-3.17115">
        <ele>385.4</ele>
        <time>2021-10-28 11:02:04</time>
      </trkpt>
      <trkpt lat="43.30035" lon="-3.17119">
        <ele>385.4</ele>
        <time>2021-10-28 11:02:05</time>
      </trkpt>
      <trkpt lat="43.30036" lon="-3.17124">
        <ele>385.6</ele>
        <time>2021-10-28 11:02:06</time>
      </trkpt>
      <trkpt lat="43.30036" lon="-3.17124">
        <ele>385.8</ele>
        <time>2021-10-28 11:02:07</time>
      </trkpt>
      <trkpt lat="43.30037" lon="-3.17126">
        <ele>386</ele>
        <time>2021-10-28 11:02:08</time>
      </trkpt>
      <trkpt lat="43.30039" lon="-3.17129">
        <ele>386.2</ele>
        <time>2021-10-28 11:02:09</time>
      </trkpt>
      <trkpt lat="43.30042" lon="-3.17134">
        <ele>386.2</ele>
        <time>2021-10-28 11:02:10</time>
      </trkpt>
      <trkpt lat="43.30042" lon="-3.17134">
        <ele>386.4</ele>
        <time>2021-10-28 11:02:18</time>
      </trkpt>
      <trkpt lat="43.30044" lon="-3.17133">
        <ele>386.4</ele>
        <time>2021-10-28 11:02:19</time>
      </trkpt>
      <trkpt lat="43.30048" lon="-3.17136">
        <ele>386.6</ele>
        <time>2021-10-28 11:02:20</time>
      </trkpt>
      <trkpt lat="43.3005" lon="-3.17138">
        <ele>386.8</ele>
        <time>2021-10-28 11:02:21</time>
      </trkpt>
      <trkpt lat="43.3005" lon="-3.17138">
        <ele>386.8</ele>
        <time>2021-10-28 11:02:22</time>
      </trkpt>
      <trkpt lat="43.30053" lon="-3.17139">
        <ele>387</ele>
        <time>2021-10-28 11:02:23</time>
      </trkpt>
      <trkpt lat="43.30056" lon="-3.17143">
        <ele>387.2</ele>
        <time>2021-10-28 11:02:24</time>
      </trkpt>
      <trkpt lat="43.30056" lon="-3.17143">
        <ele>387.4</ele>
        <time>2021-10-28 11:02:25</time>
      </trkpt>
      <trkpt lat="43.30057" lon="-3.17144">
        <ele>387.6</ele>
        <time>2021-10-28 11:02:26</time>
      </trkpt>
      <trkpt lat="43.3006" lon="-3.1715">
        <ele>387.8</ele>
        <time>2021-10-28 11:02:27</time>
      </trkpt>
      <trkpt lat="43.30059" lon="-3.17154">
        <ele>388</ele>
        <time>2021-10-28 11:02:28</time>
      </trkpt>
      <trkpt lat="43.30059" lon="-3.17154">
        <ele>388.2</ele>
        <time>2021-10-28 11:02:29</time>
      </trkpt>
      <trkpt lat="43.30061" lon="-3.17163">
        <ele>388.4</ele>
        <time>2021-10-28 11:02:30</time>
      </trkpt>
      <trkpt lat="43.30061" lon="-3.17163">
        <ele>388.6</ele>
        <time>2021-10-28 11:02:31</time>
      </trkpt>
      <trkpt lat="43.30063" lon="-3.17166">
        <ele>388.6</ele>
        <time>2021-10-28 11:02:32</time>
      </trkpt>
      <trkpt lat="43.30066" lon="-3.17173">
        <ele>388.6</ele>
        <time>2021-10-28 11:02:33</time>
      </trkpt>
      <trkpt lat="43.30066" lon="-3.17173">
        <ele>388.8</ele>
        <time>2021-10-28 11:02:34</time>
      </trkpt>
      <trkpt lat="43.30067" lon="-3.17178">
        <ele>388.8</ele>
        <time>2021-10-28 11:02:35</time>
      </trkpt>
      <trkpt lat="43.30067" lon="-3.17178">
        <ele>388.8</ele>
        <time>2021-10-28 11:02:36</time>
      </trkpt>
      <trkpt lat="43.30066" lon="-3.17183">
        <ele>389</ele>
        <time>2021-10-28 11:02:37</time>
      </trkpt>
      <trkpt lat="43.30066" lon="-3.17183">
        <ele>389.2</ele>
        <time>2021-10-28 11:02:38</time>
      </trkpt>
      <trkpt lat="43.30067" lon="-3.1719">
        <ele>389.4</ele>
        <time>2021-10-28 11:02:39</time>
      </trkpt>
      <trkpt lat="43.30067" lon="-3.1719">
        <ele>389.4</ele>
        <time>2021-10-28 11:02:40</time>
      </trkpt>
      <trkpt lat="43.30067" lon="-3.17194">
        <ele>389.6</ele>
        <time>2021-10-28 11:02:41</time>
      </trkpt>
      <trkpt lat="43.30067" lon="-3.17194">
        <ele>389.8</ele>
        <time>2021-10-28 11:02:42</time>
      </trkpt>
      <trkpt lat="43.30067" lon="-3.17194">
        <ele>389.8</ele>
        <time>2021-10-28 11:02:43</time>
      </trkpt>
      <trkpt lat="43.30065" lon="-3.172">
        <ele>390</ele>
        <time>2021-10-28 11:02:44</time>
      </trkpt>
      <trkpt lat="43.30065" lon="-3.172">
        <ele>390.2</ele>
        <time>2021-10-28 11:02:45</time>
      </trkpt>
      <trkpt lat="43.30063" lon="-3.17206">
        <ele>390.4</ele>
        <time>2021-10-28 11:02:46</time>
      </trkpt>
      <trkpt lat="43.30063" lon="-3.17206">
        <ele>390.6</ele>
        <time>2021-10-28 11:02:47</time>
      </trkpt>
      <trkpt lat="43.3006" lon="-3.17213">
        <ele>390.8</ele>
        <time>2021-10-28 11:02:48</time>
      </trkpt>
      <trkpt lat="43.3006" lon="-3.17213">
        <ele>391</ele>
        <time>2021-10-28 11:02:49</time>
      </trkpt>
      <trkpt lat="43.30058" lon="-3.17217">
        <ele>391</ele>
        <time>2021-10-28 11:02:50</time>
      </trkpt>
      <trkpt lat="43.30058" lon="-3.17217">
        <ele>391.2</ele>
        <time>2021-10-28 11:02:51</time>
      </trkpt>
      <trkpt lat="43.30057" lon="-3.17223">
        <ele>391.4</ele>
        <time>2021-10-28 11:02:52</time>
      </trkpt>
      <trkpt lat="43.30057" lon="-3.17223">
        <ele>391.6</ele>
        <time>2021-10-28 11:02:53</time>
      </trkpt>
      <trkpt lat="43.30056" lon="-3.17228">
        <ele>391.6</ele>
        <time>2021-10-28 11:02:54</time>
      </trkpt>
      <trkpt lat="43.30055" lon="-3.1723">
        <ele>391.6</ele>
        <time>2021-10-28 11:02:55</time>
      </trkpt>
      <trkpt lat="43.30055" lon="-3.1723">
        <ele>391.8</ele>
        <time>2021-10-28 11:02:56</time>
      </trkpt>
      <trkpt lat="43.30053" lon="-3.17237">
        <ele>392</ele>
        <time>2021-10-28 11:02:57</time>
      </trkpt>
      <trkpt lat="43.30054" lon="-3.17239">
        <ele>392</ele>
        <time>2021-10-28 11:02:58</time>
      </trkpt>
      <trkpt lat="43.30054" lon="-3.17239">
        <ele>392.2</ele>
        <time>2021-10-28 11:02:59</time>
      </trkpt>
      <trkpt lat="43.30056" lon="-3.17243">
        <ele>392.2</ele>
        <time>2021-10-28 11:03:00</time>
      </trkpt>
      <trkpt lat="43.30056" lon="-3.17243">
        <ele>392.4</ele>
        <time>2021-10-28 11:03:01</time>
      </trkpt>
      <trkpt lat="43.30059" lon="-3.17247">
        <ele>392.6</ele>
        <time>2021-10-28 11:03:02</time>
      </trkpt>
      <trkpt lat="43.30059" lon="-3.1725">
        <ele>392.8</ele>
        <time>2021-10-28 11:03:03</time>
      </trkpt>
      <trkpt lat="43.30059" lon="-3.1725">
        <ele>392.8</ele>
        <time>2021-10-28 11:03:04</time>
      </trkpt>
      <trkpt lat="43.30063" lon="-3.17249">
        <ele>393</ele>
        <time>2021-10-28 11:03:05</time>
      </trkpt>
      <trkpt lat="43.30067" lon="-3.17252">
        <ele>393.2</ele>
        <time>2021-10-28 11:03:06</time>
      </trkpt>
      <trkpt lat="43.30067" lon="-3.17252">
        <ele>393.4</ele>
        <time>2021-10-28 11:03:07</time>
      </trkpt>
      <trkpt lat="43.30067" lon="-3.17254">
        <ele>393.6</ele>
        <time>2021-10-28 11:03:08</time>
      </trkpt>
      <trkpt lat="43.30068" lon="-3.17257">
        <ele>393.8</ele>
        <time>2021-10-28 11:03:09</time>
      </trkpt>
      <trkpt lat="43.30068" lon="-3.17257">
        <ele>394</ele>
        <time>2021-10-28 11:03:10</time>
      </trkpt>
      <trkpt lat="43.30067" lon="-3.17262">
        <ele>394.2</ele>
        <time>2021-10-28 11:03:11</time>
      </trkpt>
      <trkpt lat="43.30067" lon="-3.17262">
        <ele>394.4</ele>
        <time>2021-10-28 11:03:12</time>
      </trkpt>
      <trkpt lat="43.30068" lon="-3.17268">
        <ele>394.4</ele>
        <time>2021-10-28 11:03:13</time>
      </trkpt>
      <trkpt lat="43.30068" lon="-3.17268">
        <ele>394.6</ele>
        <time>2021-10-28 11:03:14</time>
      </trkpt>
      <trkpt lat="43.30068" lon="-3.17268">
        <ele>394.6</ele>
        <time>2021-10-28 11:03:15</time>
      </trkpt>
      <trkpt lat="43.30066" lon="-3.17276">
        <ele>394.8</ele>
        <time>2021-10-28 11:03:16</time>
      </trkpt>
      <trkpt lat="43.30067" lon="-3.1728">
        <ele>394.8</ele>
        <time>2021-10-28 11:03:17</time>
      </trkpt>
      <trkpt lat="43.30067" lon="-3.1728">
        <ele>395</ele>
        <time>2021-10-28 11:03:18</time>
      </trkpt>
      <trkpt lat="43.30068" lon="-3.17283">
        <ele>395</ele>
        <time>2021-10-28 11:03:19</time>
      </trkpt>
      <trkpt lat="43.30067" lon="-3.17286">
        <ele>395.2</ele>
        <time>2021-10-28 11:03:20</time>
      </trkpt>
      <trkpt lat="43.30067" lon="-3.17286">
        <ele>395.4</ele>
        <time>2021-10-28 11:03:21</time>
      </trkpt>
      <trkpt lat="43.30067" lon="-3.17286">
        <ele>395.4</ele>
        <time>2021-10-28 11:03:22</time>
      </trkpt>
      <trkpt lat="43.30067" lon="-3.17292">
        <ele>395.6</ele>
        <time>2021-10-28 11:03:23</time>
      </trkpt>
      <trkpt lat="43.30064" lon="-3.17299">
        <ele>395.6</ele>
        <time>2021-10-28 11:03:24</time>
      </trkpt>
      <trkpt lat="43.30063" lon="-3.17302">
        <ele>395.6</ele>
        <time>2021-10-28 11:03:25</time>
      </trkpt>
      <trkpt lat="43.30063" lon="-3.17302">
        <ele>395.8</ele>
        <time>2021-10-28 11:03:26</time>
      </trkpt>
      <trkpt lat="43.30064" lon="-3.17306">
        <ele>395.8</ele>
        <time>2021-10-28 11:03:27</time>
      </trkpt>
      <trkpt lat="43.30064" lon="-3.17306">
        <ele>396</ele>
        <time>2021-10-28 11:03:28</time>
      </trkpt>
      <trkpt lat="43.30069" lon="-3.1731">
        <ele>396</ele>
        <time>2021-10-28 11:03:29</time>
      </trkpt>
      <trkpt lat="43.30069" lon="-3.1731">
        <ele>396.2</ele>
        <time>2021-10-28 11:03:30</time>
      </trkpt>
      <trkpt lat="43.30071" lon="-3.17312">
        <ele>396.4</ele>
        <time>2021-10-28 11:03:31</time>
      </trkpt>
      <trkpt lat="43.30071" lon="-3.17312">
        <ele>396.4</ele>
        <time>2021-10-28 11:03:32</time>
      </trkpt>
      <trkpt lat="43.30072" lon="-3.17317">
        <ele>396.6</ele>
        <time>2021-10-28 11:03:33</time>
      </trkpt>
      <trkpt lat="43.30072" lon="-3.17317">
        <ele>396.8</ele>
        <time>2021-10-28 11:03:34</time>
      </trkpt>
      <trkpt lat="43.30073" lon="-3.17323">
        <ele>397</ele>
        <time>2021-10-28 11:03:35</time>
      </trkpt>
      <trkpt lat="43.30073" lon="-3.17323">
        <ele>397.2</ele>
        <time>2021-10-28 11:03:36</time>
      </trkpt>
      <trkpt lat="43.30071" lon="-3.1733">
        <ele>397.4</ele>
        <time>2021-10-28 11:03:37</time>
      </trkpt>
      <trkpt lat="43.30072" lon="-3.17333">
        <ele>397.6</ele>
        <time>2021-10-28 11:03:38</time>
      </trkpt>
      <trkpt lat="43.30072" lon="-3.17333">
        <ele>398</ele>
        <time>2021-10-28 11:03:39</time>
      </trkpt>
      <trkpt lat="43.30072" lon="-3.17333">
        <ele>398.2</ele>
        <time>2021-10-28 11:03:40</time>
      </trkpt>
      <trkpt lat="43.30073" lon="-3.17337">
        <ele>398.4</ele>
        <time>2021-10-28 11:03:41</time>
      </trkpt>
      <trkpt lat="43.30073" lon="-3.17337">
        <ele>398.6</ele>
        <time>2021-10-28 11:03:42</time>
      </trkpt>
      <trkpt lat="43.30074" lon="-3.17338">
        <ele>398.6</ele>
        <time>2021-10-28 11:03:43</time>
      </trkpt>
      <trkpt lat="43.30072" lon="-3.17339">
        <ele>398.8</ele>
        <time>2021-10-28 11:03:44</time>
      </trkpt>
      <trkpt lat="43.30071" lon="-3.17342">
        <ele>399</ele>
        <time>2021-10-28 11:03:45</time>
      </trkpt>
      <trkpt lat="43.30068" lon="-3.17346">
        <ele>399.2</ele>
        <time>2021-10-28 11:03:46</time>
      </trkpt>
      <trkpt lat="43.30064" lon="-3.17348">
        <ele>399.2</ele>
        <time>2021-10-28 11:03:47</time>
      </trkpt>
      <trkpt lat="43.30064" lon="-3.17348">
        <ele>399.4</ele>
        <time>2021-10-28 11:03:48</time>
      </trkpt>
      <trkpt lat="43.30061" lon="-3.17348">
        <ele>399.4</ele>
        <time>2021-10-28 11:03:49</time>
      </trkpt>
      <trkpt lat="43.30061" lon="-3.17348">
        <ele>399.6</ele>
        <time>2021-10-28 11:03:50</time>
      </trkpt>
      <trkpt lat="43.30059" lon="-3.17349">
        <ele>399.6</ele>
        <time>2021-10-28 11:03:51</time>
      </trkpt>
      <trkpt lat="43.30057" lon="-3.17353">
        <ele>399.8</ele>
        <time>2021-10-28 11:03:52</time>
      </trkpt>
      <trkpt lat="43.30057" lon="-3.17353">
        <ele>399.8</ele>
        <time>2021-10-28 11:03:53</time>
      </trkpt>
      <trkpt lat="43.30052" lon="-3.17354">
        <ele>400</ele>
        <time>2021-10-28 11:03:54</time>
      </trkpt>
      <trkpt lat="43.30052" lon="-3.17354">
        <ele>400.2</ele>
        <time>2021-10-28 11:03:55</time>
      </trkpt>
      <trkpt lat="43.30049" lon="-3.17356">
        <ele>400.4</ele>
        <time>2021-10-28 11:03:56</time>
      </trkpt>
      <trkpt lat="43.30049" lon="-3.17356">
        <ele>400.8</ele>
        <time>2021-10-28 11:03:57</time>
      </trkpt>
      <trkpt lat="43.30045" lon="-3.17359">
        <ele>401.2</ele>
        <time>2021-10-28 11:03:58</time>
      </trkpt>
      <trkpt lat="43.30045" lon="-3.17359">
        <ele>401.4</ele>
        <time>2021-10-28 11:03:59</time>
      </trkpt>
      <trkpt lat="43.30042" lon="-3.17361">
        <ele>401.6</ele>
        <time>2021-10-28 11:04:00</time>
      </trkpt>
      <trkpt lat="43.3004" lon="-3.17363">
        <ele>401.8</ele>
        <time>2021-10-28 11:04:01</time>
      </trkpt>
      <trkpt lat="43.3004" lon="-3.17363">
        <ele>402</ele>
        <time>2021-10-28 11:04:02</time>
      </trkpt>
      <trkpt lat="43.30038" lon="-3.17365">
        <ele>402.2</ele>
        <time>2021-10-28 11:04:03</time>
      </trkpt>
      <trkpt lat="43.30038" lon="-3.17365">
        <ele>402.2</ele>
        <time>2021-10-28 11:04:04</time>
      </trkpt>
      <trkpt lat="43.30036" lon="-3.17368">
        <ele>402.4</ele>
        <time>2021-10-28 11:04:05</time>
      </trkpt>
      <trkpt lat="43.30036" lon="-3.17368">
        <ele>402.4</ele>
        <time>2021-10-28 11:04:06</time>
      </trkpt>
      <trkpt lat="43.30032" lon="-3.17374">
        <ele>402.6</ele>
        <time>2021-10-28 11:04:07</time>
      </trkpt>
      <trkpt lat="43.30032" lon="-3.17374">
        <ele>402.6</ele>
        <time>2021-10-28 11:04:08</time>
      </trkpt>
      <trkpt lat="43.30026" lon="-3.17376">
        <ele>402.8</ele>
        <time>2021-10-28 11:04:09</time>
      </trkpt>
      <trkpt lat="43.30026" lon="-3.17376">
        <ele>402.8</ele>
        <time>2021-10-28 11:04:10</time>
      </trkpt>
      <trkpt lat="43.30025" lon="-3.17379">
        <ele>403</ele>
        <time>2021-10-28 11:04:11</time>
      </trkpt>
      <trkpt lat="43.30025" lon="-3.17379">
        <ele>403.2</ele>
        <time>2021-10-28 11:04:12</time>
      </trkpt>
      <trkpt lat="43.30024" lon="-3.17382">
        <ele>403.4</ele>
        <time>2021-10-28 11:04:13</time>
      </trkpt>
      <trkpt lat="43.30024" lon="-3.17384">
        <ele>403.6</ele>
        <time>2021-10-28 11:04:14</time>
      </trkpt>
      <trkpt lat="43.30024" lon="-3.17384">
        <ele>403.8</ele>
        <time>2021-10-28 11:04:15</time>
      </trkpt>
      <trkpt lat="43.30021" lon="-3.1739">
        <ele>404</ele>
        <time>2021-10-28 11:04:16</time>
      </trkpt>
      <trkpt lat="43.30021" lon="-3.1739">
        <ele>404.2</ele>
        <time>2021-10-28 11:04:17</time>
      </trkpt>
      <trkpt lat="43.30019" lon="-3.17391">
        <ele>404.2</ele>
        <time>2021-10-28 11:04:18</time>
      </trkpt>
      <trkpt lat="43.30018" lon="-3.17393">
        <ele>404.4</ele>
        <time>2021-10-28 11:04:19</time>
      </trkpt>
      <trkpt lat="43.30015" lon="-3.17396">
        <ele>404.6</ele>
        <time>2021-10-28 11:04:20</time>
      </trkpt>
      <trkpt lat="43.30014" lon="-3.17398">
        <ele>404.8</ele>
        <time>2021-10-28 11:04:21</time>
      </trkpt>
      <trkpt lat="43.30014" lon="-3.17401">
        <ele>405</ele>
        <time>2021-10-28 11:04:22</time>
      </trkpt>
      <trkpt lat="43.30014" lon="-3.17405">
        <ele>405.2</ele>
        <time>2021-10-28 11:04:23</time>
      </trkpt>
      <trkpt lat="43.30014" lon="-3.17405">
        <ele>405.6</ele>
        <time>2021-10-28 11:04:24</time>
      </trkpt>
      <trkpt lat="43.30014" lon="-3.17405">
        <ele>405.8</ele>
        <time>2021-10-28 11:04:25</time>
      </trkpt>
      <trkpt lat="43.30013" lon="-3.1741">
        <ele>406</ele>
        <time>2021-10-28 11:04:26</time>
      </trkpt>
      <trkpt lat="43.30012" lon="-3.17414">
        <ele>406</ele>
        <time>2021-10-28 11:04:27</time>
      </trkpt>
      <trkpt lat="43.30012" lon="-3.17414">
        <ele>406.2</ele>
        <time>2021-10-28 11:04:28</time>
      </trkpt>
      <trkpt lat="43.3001" lon="-3.1742">
        <ele>406.4</ele>
        <time>2021-10-28 11:04:29</time>
      </trkpt>
      <trkpt lat="43.30012" lon="-3.17423">
        <ele>406.6</ele>
        <time>2021-10-28 11:04:30</time>
      </trkpt>
      <trkpt lat="43.30012" lon="-3.17423">
        <ele>406.6</ele>
        <time>2021-10-28 11:04:31</time>
      </trkpt>
      <trkpt lat="43.30012" lon="-3.17428">
        <ele>406.8</ele>
        <time>2021-10-28 11:04:32</time>
      </trkpt>
      <trkpt lat="43.30011" lon="-3.17428">
        <ele>407</ele>
        <time>2021-10-28 11:04:33</time>
      </trkpt>
      <trkpt lat="43.30011" lon="-3.17428">
        <ele>407.2</ele>
        <time>2021-10-28 11:04:34</time>
      </trkpt>
      <trkpt lat="43.30009" lon="-3.1743">
        <ele>407.2</ele>
        <time>2021-10-28 11:04:35</time>
      </trkpt>
      <trkpt lat="43.30008" lon="-3.17431">
        <ele>407.4</ele>
        <time>2021-10-28 11:04:36</time>
      </trkpt>
      <trkpt lat="43.30009" lon="-3.17434">
        <ele>407.6</ele>
        <time>2021-10-28 11:04:37</time>
      </trkpt>
      <trkpt lat="43.3001" lon="-3.1744">
        <ele>407.6</ele>
        <time>2021-10-28 11:04:38</time>
      </trkpt>
      <trkpt lat="43.30011" lon="-3.17444">
        <ele>407.8</ele>
        <time>2021-10-28 11:04:39</time>
      </trkpt>
      <trkpt lat="43.30011" lon="-3.17444">
        <ele>408</ele>
        <time>2021-10-28 11:04:40</time>
      </trkpt>
      <trkpt lat="43.30012" lon="-3.17447">
        <ele>408</ele>
        <time>2021-10-28 11:04:41</time>
      </trkpt>
      <trkpt lat="43.30013" lon="-3.17449">
        <ele>408.2</ele>
        <time>2021-10-28 11:04:42</time>
      </trkpt>
      <trkpt lat="43.30011" lon="-3.17454">
        <ele>408.4</ele>
        <time>2021-10-28 11:04:43</time>
      </trkpt>
      <trkpt lat="43.3001" lon="-3.17456">
        <ele>408.4</ele>
        <time>2021-10-28 11:04:44</time>
      </trkpt>
      <trkpt lat="43.30008" lon="-3.17462">
        <ele>408.6</ele>
        <time>2021-10-28 11:04:45</time>
      </trkpt>
      <trkpt lat="43.30008" lon="-3.17462">
        <ele>408.6</ele>
        <time>2021-10-28 11:04:46</time>
      </trkpt>
      <trkpt lat="43.30008" lon="-3.17468">
        <ele>408.6</ele>
        <time>2021-10-28 11:04:47</time>
      </trkpt>
      <trkpt lat="43.30006" lon="-3.17474">
        <ele>408.8</ele>
        <time>2021-10-28 11:04:48</time>
      </trkpt>
      <trkpt lat="43.30006" lon="-3.17474">
        <ele>408.8</ele>
        <time>2021-10-28 11:04:49</time>
      </trkpt>
      <trkpt lat="43.30006" lon="-3.17474">
        <ele>409</ele>
        <time>2021-10-28 11:04:50</time>
      </trkpt>
      <trkpt lat="43.30001" lon="-3.17482">
        <ele>409</ele>
        <time>2021-10-28 11:04:51</time>
      </trkpt>
      <trkpt lat="43.30001" lon="-3.17482">
        <ele>409</ele>
        <time>2021-10-28 11:04:52</time>
      </trkpt>
      <trkpt lat="43.3" lon="-3.17489">
        <ele>409.2</ele>
        <time>2021-10-28 11:04:53</time>
      </trkpt>
      <trkpt lat="43.3" lon="-3.17489">
        <ele>409.4</ele>
        <time>2021-10-28 11:04:54</time>
      </trkpt>
      <trkpt lat="43.29999" lon="-3.17494">
        <ele>409.4</ele>
        <time>2021-10-28 11:04:55</time>
      </trkpt>
      <trkpt lat="43.29999" lon="-3.175">
        <ele>409.6</ele>
        <time>2021-10-28 11:04:56</time>
      </trkpt>
      <trkpt lat="43.29997" lon="-3.17504">
        <ele>409.6</ele>
        <time>2021-10-28 11:04:57</time>
      </trkpt>
      <trkpt lat="43.29997" lon="-3.17504">
        <ele>409.8</ele>
        <time>2021-10-28 11:04:58</time>
      </trkpt>
      <trkpt lat="43.29996" lon="-3.17511">
        <ele>410</ele>
        <time>2021-10-28 11:04:59</time>
      </trkpt>
      <trkpt lat="43.29996" lon="-3.17511">
        <ele>410.2</ele>
        <time>2021-10-28 11:05:00</time>
      </trkpt>
      <trkpt lat="43.29996" lon="-3.17513">
        <ele>410.4</ele>
        <time>2021-10-28 11:05:01</time>
      </trkpt>
      <trkpt lat="43.29997" lon="-3.17515">
        <ele>410.6</ele>
        <time>2021-10-28 11:05:02</time>
      </trkpt>
      <trkpt lat="43.29998" lon="-3.17524">
        <ele>410.6</ele>
        <time>2021-10-28 11:05:03</time>
      </trkpt>
      <trkpt lat="43.29998" lon="-3.17524">
        <ele>410.8</ele>
        <time>2021-10-28 11:05:04</time>
      </trkpt>
      <trkpt lat="43.29997" lon="-3.17532">
        <ele>411</ele>
        <time>2021-10-28 11:05:05</time>
      </trkpt>
      <trkpt lat="43.29997" lon="-3.17536">
        <ele>411.2</ele>
        <time>2021-10-28 11:05:06</time>
      </trkpt>
      <trkpt lat="43.29999" lon="-3.17538">
        <ele>411.4</ele>
        <time>2021-10-28 11:05:07</time>
      </trkpt>
      <trkpt lat="43.29999" lon="-3.17538">
        <ele>411.6</ele>
        <time>2021-10-28 11:05:08</time>
      </trkpt>
      <trkpt lat="43.29999" lon="-3.17545">
        <ele>411.8</ele>
        <time>2021-10-28 11:05:09</time>
      </trkpt>
      <trkpt lat="43.29999" lon="-3.17545">
        <ele>412</ele>
        <time>2021-10-28 11:05:10</time>
      </trkpt>
      <trkpt lat="43.29999" lon="-3.17545">
        <ele>412</ele>
        <time>2021-10-28 11:05:11</time>
      </trkpt>
      <trkpt lat="43.29999" lon="-3.17551">
        <ele>412.2</ele>
        <time>2021-10-28 11:05:12</time>
      </trkpt>
      <trkpt lat="43.29997" lon="-3.17558">
        <ele>412.4</ele>
        <time>2021-10-28 11:05:13</time>
      </trkpt>
      <trkpt lat="43.29997" lon="-3.1756">
        <ele>412.6</ele>
        <time>2021-10-28 11:05:14</time>
      </trkpt>
      <trkpt lat="43.29996" lon="-3.17563">
        <ele>412.6</ele>
        <time>2021-10-28 11:05:15</time>
      </trkpt>
      <trkpt lat="43.29996" lon="-3.17563">
        <ele>412.8</ele>
        <time>2021-10-28 11:05:16</time>
      </trkpt>
      <trkpt lat="43.29997" lon="-3.17567">
        <ele>413</ele>
        <time>2021-10-28 11:05:17</time>
      </trkpt>
      <trkpt lat="43.29997" lon="-3.1757">
        <ele>413</ele>
        <time>2021-10-28 11:05:18</time>
      </trkpt>
      <trkpt lat="43.29997" lon="-3.17575">
        <ele>413.2</ele>
        <time>2021-10-28 11:05:19</time>
      </trkpt>
      <trkpt lat="43.29997" lon="-3.17578">
        <ele>413.2</ele>
        <time>2021-10-28 11:05:20</time>
      </trkpt>
      <trkpt lat="43.29997" lon="-3.17578">
        <ele>413.4</ele>
        <time>2021-10-28 11:05:21</time>
      </trkpt>
      <trkpt lat="43.29997" lon="-3.17578">
        <ele>413.4</ele>
        <time>2021-10-28 11:05:22</time>
      </trkpt>
      <trkpt lat="43.29997" lon="-3.17583">
        <ele>413.6</ele>
        <time>2021-10-28 11:05:23</time>
      </trkpt>
      <trkpt lat="43.29999" lon="-3.17591">
        <ele>413.6</ele>
        <time>2021-10-28 11:05:24</time>
      </trkpt>
      <trkpt lat="43.29999" lon="-3.17591">
        <ele>413.8</ele>
        <time>2021-10-28 11:05:25</time>
      </trkpt>
      <trkpt lat="43.29999" lon="-3.17591">
        <ele>414</ele>
        <time>2021-10-28 11:05:26</time>
      </trkpt>
      <trkpt lat="43.29992" lon="-3.176">
        <ele>414.2</ele>
        <time>2021-10-28 11:05:27</time>
      </trkpt>
      <trkpt lat="43.29992" lon="-3.176">
        <ele>414.2</ele>
        <time>2021-10-28 11:05:28</time>
      </trkpt>
      <trkpt lat="43.29992" lon="-3.17605">
        <ele>414.4</ele>
        <time>2021-10-28 11:05:29</time>
      </trkpt>
      <trkpt lat="43.29992" lon="-3.17608">
        <ele>414.4</ele>
        <time>2021-10-28 11:05:30</time>
      </trkpt>
      <trkpt lat="43.29992" lon="-3.17611">
        <ele>414.4</ele>
        <time>2021-10-28 11:05:31</time>
      </trkpt>
      <trkpt lat="43.2999" lon="-3.1762">
        <ele>414.6</ele>
        <time>2021-10-28 11:05:32</time>
      </trkpt>
      <trkpt lat="43.29991" lon="-3.17624">
        <ele>414.6</ele>
        <time>2021-10-28 11:05:33</time>
      </trkpt>
      <trkpt lat="43.29991" lon="-3.17624">
        <ele>414.8</ele>
        <time>2021-10-28 11:05:34</time>
      </trkpt>
      <trkpt lat="43.2999" lon="-3.17628">
        <ele>414.8</ele>
        <time>2021-10-28 11:05:35</time>
      </trkpt>
      <trkpt lat="43.29991" lon="-3.17633">
        <ele>414.8</ele>
        <time>2021-10-28 11:05:36</time>
      </trkpt>
      <trkpt lat="43.29991" lon="-3.17633">
        <ele>415</ele>
        <time>2021-10-28 11:05:37</time>
      </trkpt>
      <trkpt lat="43.29993" lon="-3.17637">
        <ele>415</ele>
        <time>2021-10-28 11:05:38</time>
      </trkpt>
      <trkpt lat="43.29993" lon="-3.17637">
        <ele>415.2</ele>
        <time>2021-10-28 11:05:39</time>
      </trkpt>
      <trkpt lat="43.29994" lon="-3.17644">
        <ele>415.4</ele>
        <time>2021-10-28 11:05:40</time>
      </trkpt>
      <trkpt lat="43.29994" lon="-3.17644">
        <ele>415.4</ele>
        <time>2021-10-28 11:05:41</time>
      </trkpt>
      <trkpt lat="43.29994" lon="-3.17648">
        <ele>415.6</ele>
        <time>2021-10-28 11:05:42</time>
      </trkpt>
      <trkpt lat="43.29994" lon="-3.17648">
        <ele>415.6</ele>
        <time>2021-10-28 11:05:43</time>
      </trkpt>
      <trkpt lat="43.29997" lon="-3.17654">
        <ele>415.8</ele>
        <time>2021-10-28 11:05:44</time>
      </trkpt>
      <trkpt lat="43.29997" lon="-3.17654">
        <ele>416</ele>
        <time>2021-10-28 11:05:45</time>
      </trkpt>
      <trkpt lat="43.29997" lon="-3.17658">
        <ele>416.2</ele>
        <time>2021-10-28 11:05:46</time>
      </trkpt>
      <trkpt lat="43.29997" lon="-3.17658">
        <ele>416.2</ele>
        <time>2021-10-28 11:05:47</time>
      </trkpt>
      <trkpt lat="43.3" lon="-3.17663">
        <ele>416.4</ele>
        <time>2021-10-28 11:05:48</time>
      </trkpt>
      <trkpt lat="43.3" lon="-3.17666">
        <ele>416.4</ele>
        <time>2021-10-28 11:05:49</time>
      </trkpt>
      <trkpt lat="43.30002" lon="-3.17675">
        <ele>416.6</ele>
        <time>2021-10-28 11:05:50</time>
      </trkpt>
      <trkpt lat="43.30001" lon="-3.17678">
        <ele>416.8</ele>
        <time>2021-10-28 11:05:51</time>
      </trkpt>
      <trkpt lat="43.30001" lon="-3.17678">
        <ele>416.8</ele>
        <time>2021-10-28 11:05:52</time>
      </trkpt>
      <trkpt lat="43.30001" lon="-3.17688">
        <ele>417</ele>
        <time>2021-10-28 11:05:53</time>
      </trkpt>
      <trkpt lat="43.29998" lon="-3.17692">
        <ele>417</ele>
        <time>2021-10-28 11:05:54</time>
      </trkpt>
      <trkpt lat="43.29998" lon="-3.17692">
        <ele>417.2</ele>
        <time>2021-10-28 11:05:55</time>
      </trkpt>
      <trkpt lat="43.29998" lon="-3.17699">
        <ele>417.4</ele>
        <time>2021-10-28 11:05:56</time>
      </trkpt>
      <trkpt lat="43.29998" lon="-3.17699">
        <ele>417.4</ele>
        <time>2021-10-28 11:05:57</time>
      </trkpt>
      <trkpt lat="43.29997" lon="-3.17706">
        <ele>417.4</ele>
        <time>2021-10-28 11:05:58</time>
      </trkpt>
      <trkpt lat="43.29997" lon="-3.17706">
        <ele>417.6</ele>
        <time>2021-10-28 11:05:59</time>
      </trkpt>
      <trkpt lat="43.29998" lon="-3.17711">
        <ele>417.6</ele>
        <time>2021-10-28 11:06:00</time>
      </trkpt>
      <trkpt lat="43.29997" lon="-3.1772">
        <ele>417.8</ele>
        <time>2021-10-28 11:06:01</time>
      </trkpt>
      <trkpt lat="43.29996" lon="-3.17724">
        <ele>417.8</ele>
        <time>2021-10-28 11:06:02</time>
      </trkpt>
      <trkpt lat="43.29996" lon="-3.17724">
        <ele>417.8</ele>
        <time>2021-10-28 11:06:03</time>
      </trkpt>
      <trkpt lat="43.29997" lon="-3.17726">
        <ele>417.6</ele>
        <time>2021-10-28 11:06:04</time>
      </trkpt>
      <trkpt lat="43.29997" lon="-3.17729">
        <ele>417.6</ele>
        <time>2021-10-28 11:06:05</time>
      </trkpt>
      <trkpt lat="43.29998" lon="-3.17732">
        <ele>417.8</ele>
        <time>2021-10-28 11:06:06</time>
      </trkpt>
      <trkpt lat="43.29998" lon="-3.17737">
        <ele>418.2</ele>
        <time>2021-10-28 11:06:07</time>
      </trkpt>
      <trkpt lat="43.29999" lon="-3.17744">
        <ele>418.4</ele>
        <time>2021-10-28 11:06:08</time>
      </trkpt>
      <trkpt lat="43.29999" lon="-3.17744">
        <ele>419</ele>
        <time>2021-10-28 11:06:09</time>
      </trkpt>
      <trkpt lat="43.29998" lon="-3.17751">
        <ele>418.8</ele>
        <time>2021-10-28 11:06:10</time>
      </trkpt>
      <trkpt lat="43.29998" lon="-3.17751">
        <ele>419</ele>
        <time>2021-10-28 11:06:11</time>
      </trkpt>
      <trkpt lat="43.29998" lon="-3.17762">
        <ele>418.8</ele>
        <time>2021-10-28 11:06:12</time>
      </trkpt>
      <trkpt lat="43.29998" lon="-3.17762">
        <ele>418.8</ele>
        <time>2021-10-28 11:06:13</time>
      </trkpt>
      <trkpt lat="43.29997" lon="-3.17767">
        <ele>418.8</ele>
        <time>2021-10-28 11:06:14</time>
      </trkpt>
      <trkpt lat="43.29998" lon="-3.17777">
        <ele>418.6</ele>
        <time>2021-10-28 11:06:15</time>
      </trkpt>
      <trkpt lat="43.29998" lon="-3.17777">
        <ele>418.6</ele>
        <time>2021-10-28 11:06:16</time>
      </trkpt>
      <trkpt lat="43.29998" lon="-3.17777">
        <ele>418.6</ele>
        <time>2021-10-28 11:06:17</time>
      </trkpt>
      <trkpt lat="43.29996" lon="-3.17786">
        <ele>418.6</ele>
        <time>2021-10-28 11:06:18</time>
      </trkpt>
      <trkpt lat="43.29996" lon="-3.17795">
        <ele>418.6</ele>
        <time>2021-10-28 11:06:19</time>
      </trkpt>
      <trkpt lat="43.29996" lon="-3.17795">
        <ele>418.6</ele>
        <time>2021-10-28 11:06:20</time>
      </trkpt>
      <trkpt lat="43.29994" lon="-3.17803">
        <ele>418.6</ele>
        <time>2021-10-28 11:06:21</time>
      </trkpt>
      <trkpt lat="43.29994" lon="-3.17803">
        <ele>418.6</ele>
        <time>2021-10-28 11:06:22</time>
      </trkpt>
      <trkpt lat="43.29992" lon="-3.1781">
        <ele>418.8</ele>
        <time>2021-10-28 11:06:23</time>
      </trkpt>
      <trkpt lat="43.29993" lon="-3.17813">
        <ele>418.8</ele>
        <time>2021-10-28 11:06:24</time>
      </trkpt>
      <trkpt lat="43.29992" lon="-3.17825">
        <ele>418.8</ele>
        <time>2021-10-28 11:06:25</time>
      </trkpt>
      <trkpt lat="43.29992" lon="-3.17825">
        <ele>418.8</ele>
        <time>2021-10-28 11:06:26</time>
      </trkpt>
      <trkpt lat="43.29994" lon="-3.17833">
        <ele>418.8</ele>
        <time>2021-10-28 11:06:27</time>
      </trkpt>
      <trkpt lat="43.29994" lon="-3.17833">
        <ele>419</ele>
        <time>2021-10-28 11:06:28</time>
      </trkpt>
      <trkpt lat="43.29997" lon="-3.17843">
        <ele>419</ele>
        <time>2021-10-28 11:06:29</time>
      </trkpt>
      <trkpt lat="43.29998" lon="-3.17847">
        <ele>419</ele>
        <time>2021-10-28 11:06:30</time>
      </trkpt>
      <trkpt lat="43.29998" lon="-3.17847">
        <ele>419</ele>
        <time>2021-10-28 11:06:31</time>
      </trkpt>
      <trkpt lat="43.29999" lon="-3.17851">
        <ele>419</ele>
        <time>2021-10-28 11:06:32</time>
      </trkpt>
      <trkpt lat="43.30002" lon="-3.17859">
        <ele>418.8</ele>
        <time>2021-10-28 11:06:33</time>
      </trkpt>
      <trkpt lat="43.30002" lon="-3.17859">
        <ele>418.8</ele>
        <time>2021-10-28 11:06:34</time>
      </trkpt>
      <trkpt lat="43.30002" lon="-3.17859">
        <ele>418.8</ele>
        <time>2021-10-28 11:06:35</time>
      </trkpt>
      <trkpt lat="43.30001" lon="-3.17876">
        <ele>418.8</ele>
        <time>2021-10-28 11:06:36</time>
      </trkpt>
      <trkpt lat="43.30003" lon="-3.17879">
        <ele>418.8</ele>
        <time>2021-10-28 11:06:37</time>
      </trkpt>
      <trkpt lat="43.30003" lon="-3.17879">
        <ele>418.8</ele>
        <time>2021-10-28 11:06:38</time>
      </trkpt>
      <trkpt lat="43.30004" lon="-3.17883">
        <ele>418.6</ele>
        <time>2021-10-28 11:06:39</time>
      </trkpt>
      <trkpt lat="43.30004" lon="-3.17888">
        <ele>418.6</ele>
        <time>2021-10-28 11:06:40</time>
      </trkpt>
      <trkpt lat="43.30005" lon="-3.17896">
        <ele>418.6</ele>
        <time>2021-10-28 11:06:41</time>
      </trkpt>
      <trkpt lat="43.30006" lon="-3.17903">
        <ele>418.6</ele>
        <time>2021-10-28 11:06:42</time>
      </trkpt>
      <trkpt lat="43.30006" lon="-3.17903">
        <ele>418.4</ele>
        <time>2021-10-28 11:06:43</time>
      </trkpt>
      <trkpt lat="43.30013" lon="-3.17914">
        <ele>418.4</ele>
        <time>2021-10-28 11:06:44</time>
      </trkpt>
      <trkpt lat="43.30013" lon="-3.17914">
        <ele>418.4</ele>
        <time>2021-10-28 11:06:45</time>
      </trkpt>
      <trkpt lat="43.30015" lon="-3.17918">
        <ele>418.2</ele>
        <time>2021-10-28 11:06:46</time>
      </trkpt>
      <trkpt lat="43.30015" lon="-3.17924">
        <ele>418.2</ele>
        <time>2021-10-28 11:06:47</time>
      </trkpt>
      <trkpt lat="43.30017" lon="-3.17927">
        <ele>418.2</ele>
        <time>2021-10-28 11:06:48</time>
      </trkpt>
      <trkpt lat="43.3002" lon="-3.17931">
        <ele>418.2</ele>
        <time>2021-10-28 11:06:49</time>
      </trkpt>
      <trkpt lat="43.30027" lon="-3.17934">
        <ele>418</ele>
        <time>2021-10-28 11:06:50</time>
      </trkpt>
      <trkpt lat="43.30033" lon="-3.17938">
        <ele>418</ele>
        <time>2021-10-28 11:06:51</time>
      </trkpt>
      <trkpt lat="43.30033" lon="-3.17938">
        <ele>417.8</ele>
        <time>2021-10-28 11:06:52</time>
      </trkpt>
      <trkpt lat="43.30041" lon="-3.17944">
        <ele>417.8</ele>
        <time>2021-10-28 11:06:53</time>
      </trkpt>
      <trkpt lat="43.30041" lon="-3.17944">
        <ele>417.8</ele>
        <time>2021-10-28 11:06:54</time>
      </trkpt>
      <trkpt lat="43.30044" lon="-3.17948">
        <ele>417.6</ele>
        <time>2021-10-28 11:06:55</time>
      </trkpt>
      <trkpt lat="43.30054" lon="-3.17953">
        <ele>417.6</ele>
        <time>2021-10-28 11:06:56</time>
      </trkpt>
      <trkpt lat="43.30054" lon="-3.17953">
        <ele>417.4</ele>
        <time>2021-10-28 11:06:57</time>
      </trkpt>
      <trkpt lat="43.30058" lon="-3.17956">
        <ele>417.2</ele>
        <time>2021-10-28 11:06:58</time>
      </trkpt>
      <trkpt lat="43.30063" lon="-3.17963">
        <ele>417.2</ele>
        <time>2021-10-28 11:06:59</time>
      </trkpt>
      <trkpt lat="43.30063" lon="-3.17963">
        <ele>417</ele>
        <time>2021-10-28 11:07:00</time>
      </trkpt>
      <trkpt lat="43.30072" lon="-3.1797">
        <ele>417</ele>
        <time>2021-10-28 11:07:01</time>
      </trkpt>
      <trkpt lat="43.30072" lon="-3.1797">
        <ele>416.8</ele>
        <time>2021-10-28 11:07:02</time>
      </trkpt>
      <trkpt lat="43.30075" lon="-3.17973">
        <ele>416.8</ele>
        <time>2021-10-28 11:07:03</time>
      </trkpt>
      <trkpt lat="43.30078" lon="-3.17975">
        <ele>416.8</ele>
        <time>2021-10-28 11:07:04</time>
      </trkpt>
      <trkpt lat="43.30083" lon="-3.1798">
        <ele>416.8</ele>
        <time>2021-10-28 11:07:05</time>
      </trkpt>
      <trkpt lat="43.30083" lon="-3.1798">
        <ele>416.6</ele>
        <time>2021-10-28 11:07:06</time>
      </trkpt>
      <trkpt lat="43.30093" lon="-3.17984">
        <ele>416.6</ele>
        <time>2021-10-28 11:07:07</time>
      </trkpt>
      <trkpt lat="43.30093" lon="-3.17984">
        <ele>416.6</ele>
        <time>2021-10-28 11:07:08</time>
      </trkpt>
      <trkpt lat="43.30097" lon="-3.17987">
        <ele>416.4</ele>
        <time>2021-10-28 11:07:09</time>
      </trkpt>
      <trkpt lat="43.30105" lon="-3.1799">
        <ele>416.4</ele>
        <time>2021-10-28 11:07:10</time>
      </trkpt>
      <trkpt lat="43.30105" lon="-3.1799">
        <ele>416.4</ele>
        <time>2021-10-28 11:07:11</time>
      </trkpt>
      <trkpt lat="43.30105" lon="-3.1799">
        <ele>416.4</ele>
        <time>2021-10-28 11:07:12</time>
      </trkpt>
      <trkpt lat="43.30111" lon="-3.17995">
        <ele>416.4</ele>
        <time>2021-10-28 11:07:13</time>
      </trkpt>
      <trkpt lat="43.30124" lon="-3.17994">
        <ele>416.4</ele>
        <time>2021-10-28 11:07:14</time>
      </trkpt>
      <trkpt lat="43.30124" lon="-3.17994">
        <ele>416.6</ele>
        <time>2021-10-28 11:07:15</time>
      </trkpt>
      <trkpt lat="43.30126" lon="-3.17999">
        <ele>416.6</ele>
        <time>2021-10-28 11:07:16</time>
      </trkpt>
      <trkpt lat="43.3013" lon="-3.17998">
        <ele>416.8</ele>
        <time>2021-10-28 11:07:17</time>
      </trkpt>
      <trkpt lat="43.30132" lon="-3.18002">
        <ele>417</ele>
        <time>2021-10-28 11:07:18</time>
      </trkpt>
      <trkpt lat="43.30133" lon="-3.18011">
        <ele>417.2</ele>
        <time>2021-10-28 11:07:19</time>
      </trkpt>
      <trkpt lat="43.3013" lon="-3.18015">
        <ele>417.2</ele>
        <time>2021-10-28 11:07:20</time>
      </trkpt>
      <trkpt lat="43.3013" lon="-3.18019">
        <ele>417.4</ele>
        <time>2021-10-28 11:07:21</time>
      </trkpt>
      <trkpt lat="43.3013" lon="-3.18019">
        <ele>417.6</ele>
        <time>2021-10-28 11:07:22</time>
      </trkpt>
      <trkpt lat="43.30128" lon="-3.18023">
        <ele>417.6</ele>
        <time>2021-10-28 11:07:23</time>
      </trkpt>
      <trkpt lat="43.30127" lon="-3.18026">
        <ele>417.6</ele>
        <time>2021-10-28 11:07:24</time>
      </trkpt>
      <trkpt lat="43.30125" lon="-3.18029">
        <ele>417.6</ele>
        <time>2021-10-28 11:07:25</time>
      </trkpt>
      <trkpt lat="43.3012" lon="-3.18036">
        <ele>417.6</ele>
        <time>2021-10-28 11:07:26</time>
      </trkpt>
      <trkpt lat="43.3012" lon="-3.18036">
        <ele>417.4</ele>
        <time>2021-10-28 11:07:27</time>
      </trkpt>
      <trkpt lat="43.30118" lon="-3.18044">
        <ele>417.4</ele>
        <time>2021-10-28 11:07:28</time>
      </trkpt>
      <trkpt lat="43.30118" lon="-3.18044">
        <ele>417.4</ele>
        <time>2021-10-28 11:07:29</time>
      </trkpt>
      <trkpt lat="43.30113" lon="-3.18053">
        <ele>417.4</ele>
        <time>2021-10-28 11:07:30</time>
      </trkpt>
      <trkpt lat="43.30113" lon="-3.18053">
        <ele>417.6</ele>
        <time>2021-10-28 11:07:31</time>
      </trkpt>
      <trkpt lat="43.3011" lon="-3.18056">
        <ele>417.6</ele>
        <time>2021-10-28 11:07:32</time>
      </trkpt>
      <trkpt lat="43.30107" lon="-3.18058">
        <ele>417.6</ele>
        <time>2021-10-28 11:07:33</time>
      </trkpt>
      <trkpt lat="43.30105" lon="-3.1806">
        <ele>417.8</ele>
        <time>2021-10-28 11:07:34</time>
      </trkpt>
      <trkpt lat="43.30102" lon="-3.18064">
        <ele>417.8</ele>
        <time>2021-10-28 11:07:35</time>
      </trkpt>
      <trkpt lat="43.30093" lon="-3.18071">
        <ele>417.8</ele>
        <time>2021-10-28 11:07:36</time>
      </trkpt>
      <trkpt lat="43.30093" lon="-3.18071">
        <ele>418</ele>
        <time>2021-10-28 11:07:37</time>
      </trkpt>
      <trkpt lat="43.30088" lon="-3.18075">
        <ele>418</ele>
        <time>2021-10-28 11:07:38</time>
      </trkpt>
      <trkpt lat="43.30088" lon="-3.18075">
        <ele>418</ele>
        <time>2021-10-28 11:07:39</time>
      </trkpt>
      <trkpt lat="43.30084" lon="-3.18079">
        <ele>418</ele>
        <time>2021-10-28 11:07:40</time>
      </trkpt>
      <trkpt lat="43.30084" lon="-3.18079">
        <ele>418</ele>
        <time>2021-10-28 11:07:41</time>
      </trkpt>
      <trkpt lat="43.3008" lon="-3.18083">
        <ele>418</ele>
        <time>2021-10-28 11:07:42</time>
      </trkpt>
      <trkpt lat="43.30077" lon="-3.18088">
        <ele>418</ele>
        <time>2021-10-28 11:07:43</time>
      </trkpt>
      <trkpt lat="43.30075" lon="-3.18092">
        <ele>418</ele>
        <time>2021-10-28 11:07:44</time>
      </trkpt>
      <trkpt lat="43.30074" lon="-3.18097">
        <ele>418</ele>
        <time>2021-10-28 11:07:45</time>
      </trkpt>
      <trkpt lat="43.30064" lon="-3.18102">
        <ele>418</ele>
        <time>2021-10-28 11:07:46</time>
      </trkpt>
      <trkpt lat="43.30064" lon="-3.18102">
        <ele>418</ele>
        <time>2021-10-28 11:07:47</time>
      </trkpt>
      <trkpt lat="43.3006" lon="-3.18104">
        <ele>418</ele>
        <time>2021-10-28 11:07:48</time>
      </trkpt>
      <trkpt lat="43.30054" lon="-3.18112">
        <ele>417.8</ele>
        <time>2021-10-28 11:07:49</time>
      </trkpt>
      <trkpt lat="43.30054" lon="-3.18112">
        <ele>417.8</ele>
        <time>2021-10-28 11:07:50</time>
      </trkpt>
      <trkpt lat="43.30054" lon="-3.18112">
        <ele>417.6</ele>
        <time>2021-10-28 11:07:51</time>
      </trkpt>
      <trkpt lat="43.30049" lon="-3.18117">
        <ele>417.6</ele>
        <time>2021-10-28 11:07:52</time>
      </trkpt>
      <trkpt lat="43.30041" lon="-3.18124">
        <ele>417.6</ele>
        <time>2021-10-28 11:07:53</time>
      </trkpt>
      <trkpt lat="43.30041" lon="-3.18124">
        <ele>417.4</ele>
        <time>2021-10-28 11:07:54</time>
      </trkpt>
      <trkpt lat="43.3004" lon="-3.18131">
        <ele>417.4</ele>
        <time>2021-10-28 11:07:55</time>
      </trkpt>
      <trkpt lat="43.3004" lon="-3.18131">
        <ele>417.4</ele>
        <time>2021-10-28 11:07:56</time>
      </trkpt>
      <trkpt lat="43.30034" lon="-3.18139">
        <ele>417.4</ele>
        <time>2021-10-28 11:07:57</time>
      </trkpt>
      <trkpt lat="43.30034" lon="-3.18139">
        <ele>417.4</ele>
        <time>2021-10-28 11:07:58</time>
      </trkpt>
      <trkpt lat="43.30031" lon="-3.18141">
        <ele>417.2</ele>
        <time>2021-10-28 11:07:59</time>
      </trkpt>
      <trkpt lat="43.30029" lon="-3.18143">
        <ele>417.2</ele>
        <time>2021-10-28 11:08:00</time>
      </trkpt>
      <trkpt lat="43.30022" lon="-3.18144">
        <ele>417.2</ele>
        <time>2021-10-28 11:08:01</time>
      </trkpt>
      <trkpt lat="43.30016" lon="-3.1815">
        <ele>417.4</ele>
        <time>2021-10-28 11:08:02</time>
      </trkpt>
      <trkpt lat="43.30016" lon="-3.1815">
        <ele>417.4</ele>
        <time>2021-10-28 11:08:03</time>
      </trkpt>
      <trkpt lat="43.30013" lon="-3.18154">
        <ele>417.4</ele>
        <time>2021-10-28 11:08:04</time>
      </trkpt>
      <trkpt lat="43.3001" lon="-3.18159">
        <ele>417.4</ele>
        <time>2021-10-28 11:08:05</time>
      </trkpt>
      <trkpt lat="43.30009" lon="-3.18162">
        <ele>417.4</ele>
        <time>2021-10-28 11:08:06</time>
      </trkpt>
      <trkpt lat="43.30004" lon="-3.18169">
        <ele>417.6</ele>
        <time>2021-10-28 11:08:07</time>
      </trkpt>
      <trkpt lat="43.30004" lon="-3.18169">
        <ele>417.6</ele>
        <time>2021-10-28 11:08:08</time>
      </trkpt>
      <trkpt lat="43.29999" lon="-3.18172">
        <ele>417.6</ele>
        <time>2021-10-28 11:08:09</time>
      </trkpt>
      <trkpt lat="43.29996" lon="-3.18174">
        <ele>417.6</ele>
        <time>2021-10-28 11:08:10</time>
      </trkpt>
      <trkpt lat="43.29994" lon="-3.18177">
        <ele>417.8</ele>
        <time>2021-10-28 11:08:11</time>
      </trkpt>
      <trkpt lat="43.29991" lon="-3.18179">
        <ele>417.8</ele>
        <time>2021-10-28 11:08:12</time>
      </trkpt>
      <trkpt lat="43.29988" lon="-3.18184">
        <ele>417.8</ele>
        <time>2021-10-28 11:08:13</time>
      </trkpt>
      <trkpt lat="43.2998" lon="-3.18191">
        <ele>417.8</ele>
        <time>2021-10-28 11:08:14</time>
      </trkpt>
      <trkpt lat="43.2998" lon="-3.18191">
        <ele>417.8</ele>
        <time>2021-10-28 11:08:15</time>
      </trkpt>
      <trkpt lat="43.2998" lon="-3.18191">
        <ele>417.8</ele>
        <time>2021-10-28 11:08:16</time>
      </trkpt>
      <trkpt lat="43.29973" lon="-3.18197">
        <ele>417.6</ele>
        <time>2021-10-28 11:08:17</time>
      </trkpt>
      <trkpt lat="43.2997" lon="-3.18201">
        <ele>417.6</ele>
        <time>2021-10-28 11:08:18</time>
      </trkpt>
      <trkpt lat="43.29969" lon="-3.18204">
        <ele>417.4</ele>
        <time>2021-10-28 11:08:19</time>
      </trkpt>
      <trkpt lat="43.29965" lon="-3.18209">
        <ele>417.2</ele>
        <time>2021-10-28 11:08:20</time>
      </trkpt>
      <trkpt lat="43.29965" lon="-3.18209">
        <ele>417.2</ele>
        <time>2021-10-28 11:08:21</time>
      </trkpt>
      <trkpt lat="43.29965" lon="-3.18209">
        <ele>417</ele>
        <time>2021-10-28 11:08:22</time>
      </trkpt>
      <trkpt lat="43.29954" lon="-3.18217">
        <ele>416.8</ele>
        <time>2021-10-28 11:08:23</time>
      </trkpt>
      <trkpt lat="43.29954" lon="-3.18217">
        <ele>416.6</ele>
        <time>2021-10-28 11:08:24</time>
      </trkpt>
      <trkpt lat="43.29946" lon="-3.18222">
        <ele>416.4</ele>
        <time>2021-10-28 11:08:25</time>
      </trkpt>
      <trkpt lat="43.29946" lon="-3.18222">
        <ele>416.4</ele>
        <time>2021-10-28 11:08:26</time>
      </trkpt>
      <trkpt lat="43.29936" lon="-3.18229">
        <ele>416.2</ele>
        <time>2021-10-28 11:08:27</time>
      </trkpt>
      <trkpt lat="43.29936" lon="-3.18229">
        <ele>416</ele>
        <time>2021-10-28 11:08:28</time>
      </trkpt>
      <trkpt lat="43.29927" lon="-3.18234">
        <ele>415.8</ele>
        <time>2021-10-28 11:08:29</time>
      </trkpt>
      <trkpt lat="43.29927" lon="-3.18234">
        <ele>415.4</ele>
        <time>2021-10-28 11:08:30</time>
      </trkpt>
      <trkpt lat="43.2992" lon="-3.18244">
        <ele>415.2</ele>
        <time>2021-10-28 11:08:31</time>
      </trkpt>
      <trkpt lat="43.2992" lon="-3.18244">
        <ele>414.8</ele>
        <time>2021-10-28 11:08:32</time>
      </trkpt>
      <trkpt lat="43.29911" lon="-3.18259">
        <ele>414.2</ele>
        <time>2021-10-28 11:08:33</time>
      </trkpt>
      <trkpt lat="43.29911" lon="-3.18259">
        <ele>413.8</ele>
        <time>2021-10-28 11:08:34</time>
      </trkpt>
      <trkpt lat="43.2991" lon="-3.18267">
        <ele>413.6</ele>
        <time>2021-10-28 11:08:35</time>
      </trkpt>
      <trkpt lat="43.29907" lon="-3.18273">
        <ele>413.4</ele>
        <time>2021-10-28 11:08:36</time>
      </trkpt>
      <trkpt lat="43.29904" lon="-3.18279">
        <ele>413.2</ele>
        <time>2021-10-28 11:08:37</time>
      </trkpt>
      <trkpt lat="43.29902" lon="-3.18288">
        <ele>413</ele>
        <time>2021-10-28 11:08:38</time>
      </trkpt>
      <trkpt lat="43.299" lon="-3.18302">
        <ele>412.8</ele>
        <time>2021-10-28 11:08:39</time>
      </trkpt>
      <trkpt lat="43.299" lon="-3.18302">
        <ele>412.8</ele>
        <time>2021-10-28 11:08:40</time>
      </trkpt>
      <trkpt lat="43.299" lon="-3.18302">
        <ele>412.6</ele>
        <time>2021-10-28 11:08:41</time>
      </trkpt>
      <trkpt lat="43.29894" lon="-3.18323">
        <ele>412.6</ele>
        <time>2021-10-28 11:08:42</time>
      </trkpt>
      <trkpt lat="43.29894" lon="-3.18323">
        <ele>412.6</ele>
        <time>2021-10-28 11:08:43</time>
      </trkpt>
      <trkpt lat="43.29893" lon="-3.18334">
        <ele>412.8</ele>
        <time>2021-10-28 11:08:44</time>
      </trkpt>
      <trkpt lat="43.29893" lon="-3.18334">
        <ele>412.8</ele>
        <time>2021-10-28 11:08:45</time>
      </trkpt>
      <trkpt lat="43.29892" lon="-3.18339">
        <ele>412.8</ele>
        <time>2021-10-28 11:08:46</time>
      </trkpt>
      <trkpt lat="43.29887" lon="-3.18352">
        <ele>412.8</ele>
        <time>2021-10-28 11:08:47</time>
      </trkpt>
      <trkpt lat="43.29887" lon="-3.18352">
        <ele>413</ele>
        <time>2021-10-28 11:08:48</time>
      </trkpt>
      <trkpt lat="43.29887" lon="-3.18358">
        <ele>413</ele>
        <time>2021-10-28 11:08:49</time>
      </trkpt>
      <trkpt lat="43.29886" lon="-3.18365">
        <ele>413</ele>
        <time>2021-10-28 11:08:50</time>
      </trkpt>
      <trkpt lat="43.29882" lon="-3.18379">
        <ele>413.2</ele>
        <time>2021-10-28 11:08:51</time>
      </trkpt>
      <trkpt lat="43.29881" lon="-3.18385">
        <ele>413.2</ele>
        <time>2021-10-28 11:08:52</time>
      </trkpt>
      <trkpt lat="43.29881" lon="-3.18385">
        <ele>413.2</ele>
        <time>2021-10-28 11:08:53</time>
      </trkpt>
      <trkpt lat="43.2988" lon="-3.18392">
        <ele>413.2</ele>
        <time>2021-10-28 11:08:54</time>
      </trkpt>
      <trkpt lat="43.29879" lon="-3.18398">
        <ele>413.2</ele>
        <time>2021-10-28 11:08:55</time>
      </trkpt>
      <trkpt lat="43.29876" lon="-3.18411">
        <ele>413.4</ele>
        <time>2021-10-28 11:08:56</time>
      </trkpt>
      <trkpt lat="43.29876" lon="-3.18411">
        <ele>413.4</ele>
        <time>2021-10-28 11:08:57</time>
      </trkpt>
      <trkpt lat="43.29875" lon="-3.18417">
        <ele>413.6</ele>
        <time>2021-10-28 11:08:58</time>
      </trkpt>
      <trkpt lat="43.29873" lon="-3.18428">
        <ele>413.6</ele>
        <time>2021-10-28 11:08:59</time>
      </trkpt>
      <trkpt lat="43.29874" lon="-3.18433">
        <ele>413.8</ele>
        <time>2021-10-28 11:09:00</time>
      </trkpt>
      <trkpt lat="43.29874" lon="-3.18433">
        <ele>414</ele>
        <time>2021-10-28 11:09:01</time>
      </trkpt>
      <trkpt lat="43.29874" lon="-3.18433">
        <ele>414.2</ele>
        <time>2021-10-28 11:09:02</time>
      </trkpt>
      <trkpt lat="43.29871" lon="-3.18449">
        <ele>414.2</ele>
        <time>2021-10-28 11:09:03</time>
      </trkpt>
      <trkpt lat="43.29871" lon="-3.18449">
        <ele>414.4</ele>
        <time>2021-10-28 11:09:04</time>
      </trkpt>
      <trkpt lat="43.29873" lon="-3.18453">
        <ele>414.4</ele>
        <time>2021-10-28 11:09:05</time>
      </trkpt>
      <trkpt lat="43.29874" lon="-3.18459">
        <ele>414.6</ele>
        <time>2021-10-28 11:09:06</time>
      </trkpt>
      <trkpt lat="43.29875" lon="-3.18463">
        <ele>414.8</ele>
        <time>2021-10-28 11:09:07</time>
      </trkpt>
      <trkpt lat="43.29876" lon="-3.18469">
        <ele>415.2</ele>
        <time>2021-10-28 11:09:08</time>
      </trkpt>
      <trkpt lat="43.2988" lon="-3.18478">
        <ele>415.4</ele>
        <time>2021-10-28 11:09:09</time>
      </trkpt>
      <trkpt lat="43.2988" lon="-3.18478">
        <ele>415.8</ele>
        <time>2021-10-28 11:09:10</time>
      </trkpt>
      <trkpt lat="43.29883" lon="-3.18487">
        <ele>416</ele>
        <time>2021-10-28 11:09:11</time>
      </trkpt>
      <trkpt lat="43.29883" lon="-3.18487">
        <ele>416.2</ele>
        <time>2021-10-28 11:09:12</time>
      </trkpt>
      <trkpt lat="43.29883" lon="-3.18487">
        <ele>416.4</ele>
        <time>2021-10-28 11:09:13</time>
      </trkpt>
      <trkpt lat="43.29889" lon="-3.18498">
        <ele>416.8</ele>
        <time>2021-10-28 11:09:14</time>
      </trkpt>
      <trkpt lat="43.29889" lon="-3.18498">
        <ele>417</ele>
        <time>2021-10-28 11:09:15</time>
      </trkpt>
      <trkpt lat="43.29892" lon="-3.18503">
        <ele>417.2</ele>
        <time>2021-10-28 11:09:16</time>
      </trkpt>
      <trkpt lat="43.29894" lon="-3.18507">
        <ele>417.6</ele>
        <time>2021-10-28 11:09:17</time>
      </trkpt>
      <trkpt lat="43.29897" lon="-3.18514">
        <ele>417.8</ele>
        <time>2021-10-28 11:09:18</time>
      </trkpt>
      <trkpt lat="43.29897" lon="-3.18514">
        <ele>418</ele>
        <time>2021-10-28 11:09:19</time>
      </trkpt>
      <trkpt lat="43.29899" lon="-3.18521">
        <ele>418.4</ele>
        <time>2021-10-28 11:09:20</time>
      </trkpt>
      <trkpt lat="43.29899" lon="-3.18521">
        <ele>418.6</ele>
        <time>2021-10-28 11:09:21</time>
      </trkpt>
      <trkpt lat="43.29899" lon="-3.18521">
        <ele>418.6</ele>
        <time>2021-10-28 11:09:22</time>
      </trkpt>
      <trkpt lat="43.29899" lon="-3.18527">
        <ele>418.6</ele>
        <time>2021-10-28 11:09:23</time>
      </trkpt>
      <trkpt lat="43.29898" lon="-3.18532">
        <ele>419</ele>
        <time>2021-10-28 11:09:24</time>
      </trkpt>
      <trkpt lat="43.29902" lon="-3.18534">
        <ele>418.8</ele>
        <time>2021-10-28 11:09:25</time>
      </trkpt>
      <trkpt lat="43.29902" lon="-3.18537">
        <ele>419.4</ele>
        <time>2021-10-28 11:09:26</time>
      </trkpt>
      <trkpt lat="43.29902" lon="-3.18542">
        <ele>420</ele>
        <time>2021-10-28 11:09:27</time>
      </trkpt>
      <trkpt lat="43.299" lon="-3.1855">
        <ele>420.4</ele>
        <time>2021-10-28 11:09:28</time>
      </trkpt>
      <trkpt lat="43.299" lon="-3.1855">
        <ele>419.6</ele>
        <time>2021-10-28 11:09:29</time>
      </trkpt>
      <trkpt lat="43.29897" lon="-3.18559">
        <ele>419.6</ele>
        <time>2021-10-28 11:09:30</time>
      </trkpt>
      <trkpt lat="43.29897" lon="-3.18559">
        <ele>419.6</ele>
        <time>2021-10-28 11:09:31</time>
      </trkpt>
      <trkpt lat="43.29894" lon="-3.18568">
        <ele>419.8</ele>
        <time>2021-10-28 11:09:32</time>
      </trkpt>
      <trkpt lat="43.29894" lon="-3.18568">
        <ele>421.2</ele>
        <time>2021-10-28 11:09:33</time>
      </trkpt>
      <trkpt lat="43.29894" lon="-3.18568">
        <ele>421.4</ele>
        <time>2021-10-28 11:09:34</time>
      </trkpt>
      <trkpt lat="43.2989" lon="-3.18576">
        <ele>421.4</ele>
        <time>2021-10-28 11:09:35</time>
      </trkpt>
      <trkpt lat="43.29886" lon="-3.18585">
        <ele>421.8</ele>
        <time>2021-10-28 11:09:36</time>
      </trkpt>
      <trkpt lat="43.29886" lon="-3.18585">
        <ele>420.6</ele>
        <time>2021-10-28 11:09:37</time>
      </trkpt>
      <trkpt lat="43.29888" lon="-3.1859">
        <ele>420</ele>
        <time>2021-10-28 11:09:38</time>
      </trkpt>
      <trkpt lat="43.29885" lon="-3.18596">
        <ele>420.2</ele>
        <time>2021-10-28 11:09:39</time>
      </trkpt>
      <trkpt lat="43.29882" lon="-3.18605">
        <ele>420.4</ele>
        <time>2021-10-28 11:09:40</time>
      </trkpt>
      <trkpt lat="43.2988" lon="-3.18609">
        <ele>420.4</ele>
        <time>2021-10-28 11:09:41</time>
      </trkpt>
      <trkpt lat="43.2988" lon="-3.18609">
        <ele>420.4</ele>
        <time>2021-10-28 11:09:42</time>
      </trkpt>
      <trkpt lat="43.29878" lon="-3.18614">
        <ele>420.4</ele>
        <time>2021-10-28 11:09:43</time>
      </trkpt>
      <trkpt lat="43.29876" lon="-3.18623">
        <ele>420.4</ele>
        <time>2021-10-28 11:09:44</time>
      </trkpt>
      <trkpt lat="43.29876" lon="-3.18623">
        <ele>420.6</ele>
        <time>2021-10-28 11:09:45</time>
      </trkpt>
      <trkpt lat="43.29874" lon="-3.1863">
        <ele>420.6</ele>
        <time>2021-10-28 11:09:46</time>
      </trkpt>
      <trkpt lat="43.29874" lon="-3.1863">
        <ele>420.8</ele>
        <time>2021-10-28 11:09:47</time>
      </trkpt>
      <trkpt lat="43.29872" lon="-3.18634">
        <ele>421</ele>
        <time>2021-10-28 11:09:48</time>
      </trkpt>
      <trkpt lat="43.29871" lon="-3.18638">
        <ele>421.2</ele>
        <time>2021-10-28 11:09:49</time>
      </trkpt>
      <trkpt lat="43.29869" lon="-3.18644">
        <ele>421.2</ele>
        <time>2021-10-28 11:09:50</time>
      </trkpt>
      <trkpt lat="43.29869" lon="-3.18644">
        <ele>421.4</ele>
        <time>2021-10-28 11:09:51</time>
      </trkpt>
      <trkpt lat="43.29868" lon="-3.18648">
        <ele>421.4</ele>
        <time>2021-10-28 11:09:52</time>
      </trkpt>
      <trkpt lat="43.29867" lon="-3.18652">
        <ele>421.6</ele>
        <time>2021-10-28 11:09:53</time>
      </trkpt>
      <trkpt lat="43.29865" lon="-3.18657">
        <ele>421.8</ele>
        <time>2021-10-28 11:09:54</time>
      </trkpt>
      <trkpt lat="43.29863" lon="-3.18665">
        <ele>422</ele>
        <time>2021-10-28 11:09:55</time>
      </trkpt>
      <trkpt lat="43.29863" lon="-3.18665">
        <ele>422.2</ele>
        <time>2021-10-28 11:09:56</time>
      </trkpt>
      <trkpt lat="43.29862" lon="-3.18668">
        <ele>422.4</ele>
        <time>2021-10-28 11:09:57</time>
      </trkpt>
      <trkpt lat="43.29862" lon="-3.18675">
        <ele>422.6</ele>
        <time>2021-10-28 11:09:58</time>
      </trkpt>
      <trkpt lat="43.29862" lon="-3.18679">
        <ele>422.8</ele>
        <time>2021-10-28 11:09:59</time>
      </trkpt>
      <trkpt lat="43.29862" lon="-3.18679">
        <ele>423</ele>
        <time>2021-10-28 11:10:00</time>
      </trkpt>
      <trkpt lat="43.29862" lon="-3.18683">
        <ele>423.4</ele>
        <time>2021-10-28 11:10:01</time>
      </trkpt>
      <trkpt lat="43.29862" lon="-3.18687">
        <ele>423.6</ele>
        <time>2021-10-28 11:10:02</time>
      </trkpt>
      <trkpt lat="43.29862" lon="-3.18691">
        <ele>424</ele>
        <time>2021-10-28 11:10:03</time>
      </trkpt>
      <trkpt lat="43.29862" lon="-3.18694">
        <ele>424.2</ele>
        <time>2021-10-28 11:10:04</time>
      </trkpt>
      <trkpt lat="43.29863" lon="-3.18701">
        <ele>424.6</ele>
        <time>2021-10-28 11:10:05</time>
      </trkpt>
      <trkpt lat="43.29863" lon="-3.18701">
        <ele>424.8</ele>
        <time>2021-10-28 11:10:06</time>
      </trkpt>
      <trkpt lat="43.29863" lon="-3.18705">
        <ele>425</ele>
        <time>2021-10-28 11:10:07</time>
      </trkpt>
      <trkpt lat="43.29864" lon="-3.18712">
        <ele>425.2</ele>
        <time>2021-10-28 11:10:08</time>
      </trkpt>
      <trkpt lat="43.29864" lon="-3.18712">
        <ele>425.4</ele>
        <time>2021-10-28 11:10:09</time>
      </trkpt>
      <trkpt lat="43.29864" lon="-3.18712">
        <ele>425.8</ele>
        <time>2021-10-28 11:10:10</time>
      </trkpt>
      <trkpt lat="43.29866" lon="-3.18718">
        <ele>426.2</ele>
        <time>2021-10-28 11:10:11</time>
      </trkpt>
      <trkpt lat="43.2987" lon="-3.18724">
        <ele>426.6</ele>
        <time>2021-10-28 11:10:12</time>
      </trkpt>
      <trkpt lat="43.2987" lon="-3.18724">
        <ele>426.8</ele>
        <time>2021-10-28 11:10:13</time>
      </trkpt>
      <trkpt lat="43.29873" lon="-3.18728">
        <ele>427.2</ele>
        <time>2021-10-28 11:10:14</time>
      </trkpt>
      <trkpt lat="43.29873" lon="-3.18728">
        <ele>427.4</ele>
        <time>2021-10-28 11:10:15</time>
      </trkpt>
      <trkpt lat="43.29873" lon="-3.18731">
        <ele>427.8</ele>
        <time>2021-10-28 11:10:16</time>
      </trkpt>
      <trkpt lat="43.29873" lon="-3.18736">
        <ele>428</ele>
        <time>2021-10-28 11:10:17</time>
      </trkpt>
      <trkpt lat="43.29876" lon="-3.18741">
        <ele>428.4</ele>
        <time>2021-10-28 11:10:18</time>
      </trkpt>
      <trkpt lat="43.29876" lon="-3.18741">
        <ele>428.6</ele>
        <time>2021-10-28 11:10:19</time>
      </trkpt>
      <trkpt lat="43.29874" lon="-3.18749">
        <ele>429</ele>
        <time>2021-10-28 11:10:20</time>
      </trkpt>
      <trkpt lat="43.29874" lon="-3.18749">
        <ele>429.2</ele>
        <time>2021-10-28 11:10:21</time>
      </trkpt>
      <trkpt lat="43.29876" lon="-3.18756">
        <ele>429.6</ele>
        <time>2021-10-28 11:10:22</time>
      </trkpt>
      <trkpt lat="43.29876" lon="-3.18756">
        <ele>429.8</ele>
        <time>2021-10-28 11:10:23</time>
      </trkpt>
      <trkpt lat="43.29877" lon="-3.18758">
        <ele>430.2</ele>
        <time>2021-10-28 11:10:24</time>
      </trkpt>
      <trkpt lat="43.29881" lon="-3.18763">
        <ele>430.6</ele>
        <time>2021-10-28 11:10:25</time>
      </trkpt>
      <trkpt lat="43.29881" lon="-3.18763">
        <ele>430.8</ele>
        <time>2021-10-28 11:10:26</time>
      </trkpt>
      <trkpt lat="43.29886" lon="-3.18766">
        <ele>431.2</ele>
        <time>2021-10-28 11:10:27</time>
      </trkpt>
      <trkpt lat="43.29885" lon="-3.18768">
        <ele>431.4</ele>
        <time>2021-10-28 11:10:28</time>
      </trkpt>
      <trkpt lat="43.29885" lon="-3.18768">
        <ele>431.8</ele>
        <time>2021-10-28 11:10:29</time>
      </trkpt>
      <trkpt lat="43.29887" lon="-3.18772">
        <ele>432</ele>
        <time>2021-10-28 11:10:30</time>
      </trkpt>
      <trkpt lat="43.29887" lon="-3.18772">
        <ele>432.4</ele>
        <time>2021-10-28 11:10:31</time>
      </trkpt>
      <trkpt lat="43.29884" lon="-3.18774">
        <ele>432.6</ele>
        <time>2021-10-28 11:10:32</time>
      </trkpt>
      <trkpt lat="43.29887" lon="-3.18775">
        <ele>432.8</ele>
        <time>2021-10-28 11:10:33</time>
      </trkpt>
      <trkpt lat="43.2989" lon="-3.18778">
        <ele>433</ele>
        <time>2021-10-28 11:10:34</time>
      </trkpt>
      <trkpt lat="43.29891" lon="-3.18781">
        <ele>433</ele>
        <time>2021-10-28 11:10:35</time>
      </trkpt>
      <trkpt lat="43.29891" lon="-3.18781">
        <ele>433.2</ele>
        <time>2021-10-28 11:10:36</time>
      </trkpt>
      <trkpt lat="43.29889" lon="-3.18788">
        <ele>433.4</ele>
        <time>2021-10-28 11:10:37</time>
      </trkpt>
      <trkpt lat="43.29891" lon="-3.1879">
        <ele>433.4</ele>
        <time>2021-10-28 11:10:38</time>
      </trkpt>
      <trkpt lat="43.29891" lon="-3.1879">
        <ele>433.6</ele>
        <time>2021-10-28 11:10:39</time>
      </trkpt>
      <trkpt lat="43.29891" lon="-3.18793">
        <ele>433.6</ele>
        <time>2021-10-28 11:10:40</time>
      </trkpt>
      <trkpt lat="43.29897" lon="-3.18797">
        <ele>433.8</ele>
        <time>2021-10-28 11:10:41</time>
      </trkpt>
      <trkpt lat="43.29897" lon="-3.18797">
        <ele>434</ele>
        <time>2021-10-28 11:10:42</time>
      </trkpt>
      <trkpt lat="43.299" lon="-3.18797">
        <ele>434.2</ele>
        <time>2021-10-28 11:10:43</time>
      </trkpt>
      <trkpt lat="43.29905" lon="-3.188">
        <ele>434.4</ele>
        <time>2021-10-28 11:10:44</time>
      </trkpt>
      <trkpt lat="43.29905" lon="-3.188">
        <ele>434.6</ele>
        <time>2021-10-28 11:10:45</time>
      </trkpt>
      <trkpt lat="43.29908" lon="-3.18803">
        <ele>434.8</ele>
        <time>2021-10-28 11:10:46</time>
      </trkpt>
      <trkpt lat="43.29913" lon="-3.18808">
        <ele>435</ele>
        <time>2021-10-28 11:10:47</time>
      </trkpt>
      <trkpt lat="43.29913" lon="-3.18808">
        <ele>435.2</ele>
        <time>2021-10-28 11:10:48</time>
      </trkpt>
      <trkpt lat="43.29913" lon="-3.18808">
        <ele>435.4</ele>
        <time>2021-10-28 11:10:49</time>
      </trkpt>
      <trkpt lat="43.29913" lon="-3.18811">
        <ele>435.8</ele>
        <time>2021-10-28 11:10:50</time>
      </trkpt>
      <trkpt lat="43.29914" lon="-3.18814">
        <ele>436</ele>
        <time>2021-10-28 11:10:51</time>
      </trkpt>
      <trkpt lat="43.29914" lon="-3.18814">
        <ele>436.2</ele>
        <time>2021-10-28 11:10:52</time>
      </trkpt>
      <trkpt lat="43.29917" lon="-3.18821">
        <ele>436.6</ele>
        <time>2021-10-28 11:10:53</time>
      </trkpt>
      <trkpt lat="43.29917" lon="-3.18821">
        <ele>436.8</ele>
        <time>2021-10-28 11:10:54</time>
      </trkpt>
      <trkpt lat="43.29918" lon="-3.18826">
        <ele>437</ele>
        <time>2021-10-28 11:10:55</time>
      </trkpt>
      <trkpt lat="43.2992" lon="-3.18827">
        <ele>437.4</ele>
        <time>2021-10-28 11:10:56</time>
      </trkpt>
      <trkpt lat="43.2992" lon="-3.18827">
        <ele>437.6</ele>
        <time>2021-10-28 11:10:57</time>
      </trkpt>
      <trkpt lat="43.2992" lon="-3.18827">
        <ele>437.8</ele>
        <time>2021-10-28 11:10:58</time>
      </trkpt>
      <trkpt lat="43.29919" lon="-3.18838">
        <ele>437.8</ele>
        <time>2021-10-28 11:10:59</time>
      </trkpt>
      <trkpt lat="43.29919" lon="-3.18838">
        <ele>438.2</ele>
        <time>2021-10-28 11:11:00</time>
      </trkpt>
      <trkpt lat="43.29923" lon="-3.18838">
        <ele>438.2</ele>
        <time>2021-10-28 11:11:01</time>
      </trkpt>
      <trkpt lat="43.29925" lon="-3.18844">
        <ele>438.6</ele>
        <time>2021-10-28 11:11:02</time>
      </trkpt>
      <trkpt lat="43.29925" lon="-3.18844">
        <ele>438.6</ele>
        <time>2021-10-28 11:11:03</time>
      </trkpt>
      <trkpt lat="43.29925" lon="-3.18844">
        <ele>438.8</ele>
        <time>2021-10-28 11:11:04</time>
      </trkpt>
      <trkpt lat="43.29924" lon="-3.18849">
        <ele>439.2</ele>
        <time>2021-10-28 11:11:05</time>
      </trkpt>
      <trkpt lat="43.29927" lon="-3.18854">
        <ele>439.4</ele>
        <time>2021-10-28 11:11:06</time>
      </trkpt>
      <trkpt lat="43.29927" lon="-3.18854">
        <ele>439.6</ele>
        <time>2021-10-28 11:11:07</time>
      </trkpt>
      <trkpt lat="43.29927" lon="-3.18854">
        <ele>439.8</ele>
        <time>2021-10-28 11:11:08</time>
      </trkpt>
      <trkpt lat="43.29927" lon="-3.1886">
        <ele>440</ele>
        <time>2021-10-28 11:11:09</time>
      </trkpt>
      <trkpt lat="43.29927" lon="-3.18862">
        <ele>440.2</ele>
        <time>2021-10-28 11:11:10</time>
      </trkpt>
      <trkpt lat="43.29927" lon="-3.18866">
        <ele>440.4</ele>
        <time>2021-10-28 11:11:11</time>
      </trkpt>
      <trkpt lat="43.29927" lon="-3.18866">
        <ele>440.6</ele>
        <time>2021-10-28 11:11:12</time>
      </trkpt>
      <trkpt lat="43.29929" lon="-3.18871">
        <ele>440.8</ele>
        <time>2021-10-28 11:11:13</time>
      </trkpt>
      <trkpt lat="43.29929" lon="-3.18871">
        <ele>441</ele>
        <time>2021-10-28 11:11:14</time>
      </trkpt>
      <trkpt lat="43.2993" lon="-3.18873">
        <ele>441.2</ele>
        <time>2021-10-28 11:11:15</time>
      </trkpt>
      <trkpt lat="43.29928" lon="-3.18879">
        <ele>441.4</ele>
        <time>2021-10-28 11:11:16</time>
      </trkpt>
      <trkpt lat="43.29928" lon="-3.18879">
        <ele>441.6</ele>
        <time>2021-10-28 11:11:17</time>
      </trkpt>
      <trkpt lat="43.29926" lon="-3.18886">
        <ele>441.8</ele>
        <time>2021-10-28 11:11:18</time>
      </trkpt>
      <trkpt lat="43.29926" lon="-3.18886">
        <ele>442.2</ele>
        <time>2021-10-28 11:11:19</time>
      </trkpt>
      <trkpt lat="43.29926" lon="-3.18892">
        <ele>442.4</ele>
        <time>2021-10-28 11:11:20</time>
      </trkpt>
      <trkpt lat="43.29926" lon="-3.18892">
        <ele>442.6</ele>
        <time>2021-10-28 11:11:21</time>
      </trkpt>
      <trkpt lat="43.29928" lon="-3.18896">
        <ele>442.8</ele>
        <time>2021-10-28 11:11:22</time>
      </trkpt>
      <trkpt lat="43.29928" lon="-3.18896">
        <ele>443.2</ele>
        <time>2021-10-28 11:11:23</time>
      </trkpt>
      <trkpt lat="43.29925" lon="-3.18899">
        <ele>443.4</ele>
        <time>2021-10-28 11:11:24</time>
      </trkpt>
      <trkpt lat="43.29925" lon="-3.18901">
        <ele>443.6</ele>
        <time>2021-10-28 11:11:25</time>
      </trkpt>
      <trkpt lat="43.29923" lon="-3.18903">
        <ele>443.8</ele>
        <time>2021-10-28 11:11:26</time>
      </trkpt>
      <trkpt lat="43.29921" lon="-3.18906">
        <ele>444.2</ele>
        <time>2021-10-28 11:11:27</time>
      </trkpt>
      <trkpt lat="43.29923" lon="-3.18909">
        <ele>444.4</ele>
        <time>2021-10-28 11:11:28</time>
      </trkpt>
      <trkpt lat="43.29923" lon="-3.18914">
        <ele>444.6</ele>
        <time>2021-10-28 11:11:29</time>
      </trkpt>
      <trkpt lat="43.29923" lon="-3.18914">
        <ele>444.8</ele>
        <time>2021-10-28 11:11:30</time>
      </trkpt>
      <trkpt lat="43.29919" lon="-3.18917">
        <ele>445</ele>
        <time>2021-10-28 11:11:31</time>
      </trkpt>
      <trkpt lat="43.29918" lon="-3.18919">
        <ele>445.2</ele>
        <time>2021-10-28 11:11:32</time>
      </trkpt>
      <trkpt lat="43.29918" lon="-3.18919">
        <ele>445.4</ele>
        <time>2021-10-28 11:11:33</time>
      </trkpt>
      <trkpt lat="43.29917" lon="-3.18921">
        <ele>445.6</ele>
        <time>2021-10-28 11:11:34</time>
      </trkpt>
      <trkpt lat="43.29916" lon="-3.18926">
        <ele>446</ele>
        <time>2021-10-28 11:11:35</time>
      </trkpt>
      <trkpt lat="43.29915" lon="-3.18928">
        <ele>446.2</ele>
        <time>2021-10-28 11:11:36</time>
      </trkpt>
      <trkpt lat="43.29915" lon="-3.18932">
        <ele>446.2</ele>
        <time>2021-10-28 11:11:37</time>
      </trkpt>
      <trkpt lat="43.29915" lon="-3.18932">
        <ele>446.4</ele>
        <time>2021-10-28 11:11:38</time>
      </trkpt>
      <trkpt lat="43.2991" lon="-3.18935">
        <ele>446.6</ele>
        <time>2021-10-28 11:11:39</time>
      </trkpt>
      <trkpt lat="43.29907" lon="-3.18937">
        <ele>446.8</ele>
        <time>2021-10-28 11:11:40</time>
      </trkpt>
      <trkpt lat="43.29907" lon="-3.18937">
        <ele>446.8</ele>
        <time>2021-10-28 11:11:41</time>
      </trkpt>
      <trkpt lat="43.29907" lon="-3.18937">
        <ele>447</ele>
        <time>2021-10-28 11:11:42</time>
      </trkpt>
      <trkpt lat="43.29905" lon="-3.18943">
        <ele>447.2</ele>
        <time>2021-10-28 11:11:43</time>
      </trkpt>
      <trkpt lat="43.29904" lon="-3.18945">
        <ele>447.4</ele>
        <time>2021-10-28 11:11:44</time>
      </trkpt>
      <trkpt lat="43.29904" lon="-3.18949">
        <ele>447.6</ele>
        <time>2021-10-28 11:11:45</time>
      </trkpt>
      <trkpt lat="43.29904" lon="-3.18949">
        <ele>447.8</ele>
        <time>2021-10-28 11:11:46</time>
      </trkpt>
      <trkpt lat="43.29903" lon="-3.18953">
        <ele>448</ele>
        <time>2021-10-28 11:11:47</time>
      </trkpt>
      <trkpt lat="43.29903" lon="-3.18953">
        <ele>448.4</ele>
        <time>2021-10-28 11:11:48</time>
      </trkpt>
      <trkpt lat="43.299" lon="-3.18958">
        <ele>448.6</ele>
        <time>2021-10-28 11:11:49</time>
      </trkpt>
      <trkpt lat="43.299" lon="-3.18958">
        <ele>448.8</ele>
        <time>2021-10-28 11:11:50</time>
      </trkpt>
      <trkpt lat="43.299" lon="-3.18958">
        <ele>449</ele>
        <time>2021-10-28 11:11:51</time>
      </trkpt>
      <trkpt lat="43.29899" lon="-3.18959">
        <ele>449.2</ele>
        <time>2021-10-28 11:11:52</time>
      </trkpt>
      <trkpt lat="43.29899" lon="-3.18961">
        <ele>449.4</ele>
        <time>2021-10-28 11:11:53</time>
      </trkpt>
      <trkpt lat="43.29899" lon="-3.18961">
        <ele>449.6</ele>
        <time>2021-10-28 11:11:54</time>
      </trkpt>
      <trkpt lat="43.29897" lon="-3.18968">
        <ele>450</ele>
        <time>2021-10-28 11:11:55</time>
      </trkpt>
      <trkpt lat="43.29897" lon="-3.18968">
        <ele>450.2</ele>
        <time>2021-10-28 11:11:56</time>
      </trkpt>
      <trkpt lat="43.29892" lon="-3.18974">
        <ele>450.4</ele>
        <time>2021-10-28 11:11:57</time>
      </trkpt>
      <trkpt lat="43.29892" lon="-3.18976">
        <ele>450.6</ele>
        <time>2021-10-28 11:11:58</time>
      </trkpt>
      <trkpt lat="43.29892" lon="-3.18976">
        <ele>450.8</ele>
        <time>2021-10-28 11:11:59</time>
      </trkpt>
      <trkpt lat="43.29891" lon="-3.1898">
        <ele>451.2</ele>
        <time>2021-10-28 11:12:00</time>
      </trkpt>
      <trkpt lat="43.2989" lon="-3.1898">
        <ele>451.2</ele>
        <time>2021-10-28 11:12:01</time>
      </trkpt>
      <trkpt lat="43.2989" lon="-3.18983">
        <ele>451.4</ele>
        <time>2021-10-28 11:12:02</time>
      </trkpt>
      <trkpt lat="43.29886" lon="-3.18989">
        <ele>451.4</ele>
        <time>2021-10-28 11:12:03</time>
      </trkpt>
      <trkpt lat="43.29886" lon="-3.18989">
        <ele>451.4</ele>
        <time>2021-10-28 11:12:04</time>
      </trkpt>
      <trkpt lat="43.29886" lon="-3.18993">
        <ele>451.6</ele>
        <time>2021-10-28 11:12:05</time>
      </trkpt>
      <trkpt lat="43.29886" lon="-3.18993">
        <ele>451.6</ele>
        <time>2021-10-28 11:12:06</time>
      </trkpt>
      <trkpt lat="43.29884" lon="-3.18996">
        <ele>451.8</ele>
        <time>2021-10-28 11:12:07</time>
      </trkpt>
      <trkpt lat="43.29884" lon="-3.18996">
        <ele>452</ele>
        <time>2021-10-28 11:12:08</time>
      </trkpt>
      <trkpt lat="43.29883" lon="-3.18999">
        <ele>452.2</ele>
        <time>2021-10-28 11:12:09</time>
      </trkpt>
      <trkpt lat="43.29883" lon="-3.18999">
        <ele>452.4</ele>
        <time>2021-10-28 11:12:10</time>
      </trkpt>
      <trkpt lat="43.29882" lon="-3.19001">
        <ele>452.6</ele>
        <time>2021-10-28 11:12:11</time>
      </trkpt>
      <trkpt lat="43.29883" lon="-3.19003">
        <ele>452.6</ele>
        <time>2021-10-28 11:12:12</time>
      </trkpt>
      <trkpt lat="43.29883" lon="-3.19006">
        <ele>452.8</ele>
        <time>2021-10-28 11:12:13</time>
      </trkpt>
      <trkpt lat="43.29884" lon="-3.19009">
        <ele>452.8</ele>
        <time>2021-10-28 11:12:14</time>
      </trkpt>
      <trkpt lat="43.29885" lon="-3.19013">
        <ele>453</ele>
        <time>2021-10-28 11:12:15</time>
      </trkpt>
      <trkpt lat="43.29886" lon="-3.19015">
        <ele>453</ele>
        <time>2021-10-28 11:12:16</time>
      </trkpt>
      <trkpt lat="43.29886" lon="-3.19015">
        <ele>453.2</ele>
        <time>2021-10-28 11:12:17</time>
      </trkpt>
      <trkpt lat="43.29886" lon="-3.19019">
        <ele>453.4</ele>
        <time>2021-10-28 11:12:18</time>
      </trkpt>
      <trkpt lat="43.29885" lon="-3.19021">
        <ele>453.8</ele>
        <time>2021-10-28 11:12:19</time>
      </trkpt>
      <trkpt lat="43.29886" lon="-3.19023">
        <ele>454</ele>
        <time>2021-10-28 11:12:20</time>
      </trkpt>
      <trkpt lat="43.29885" lon="-3.19028">
        <ele>454.4</ele>
        <time>2021-10-28 11:12:21</time>
      </trkpt>
      <trkpt lat="43.29885" lon="-3.19028">
        <ele>454.8</ele>
        <time>2021-10-28 11:12:22</time>
      </trkpt>
      <trkpt lat="43.29887" lon="-3.19032">
        <ele>455</ele>
        <time>2021-10-28 11:12:23</time>
      </trkpt>
      <trkpt lat="43.29887" lon="-3.19032">
        <ele>455.2</ele>
        <time>2021-10-28 11:12:24</time>
      </trkpt>
      <trkpt lat="43.29891" lon="-3.19032">
        <ele>455.6</ele>
        <time>2021-10-28 11:12:25</time>
      </trkpt>
      <trkpt lat="43.29891" lon="-3.19036">
        <ele>455.8</ele>
        <time>2021-10-28 11:12:26</time>
      </trkpt>
      <trkpt lat="43.29891" lon="-3.19041">
        <ele>456</ele>
        <time>2021-10-28 11:12:27</time>
      </trkpt>
      <trkpt lat="43.29891" lon="-3.19041">
        <ele>456.2</ele>
        <time>2021-10-28 11:12:28</time>
      </trkpt>
      <trkpt lat="43.2989" lon="-3.19045">
        <ele>456.4</ele>
        <time>2021-10-28 11:12:29</time>
      </trkpt>
      <trkpt lat="43.29891" lon="-3.19048">
        <ele>456.6</ele>
        <time>2021-10-28 11:12:30</time>
      </trkpt>
      <trkpt lat="43.2989" lon="-3.19051">
        <ele>456.6</ele>
        <time>2021-10-28 11:12:31</time>
      </trkpt>
      <trkpt lat="43.29888" lon="-3.19055">
        <ele>456.8</ele>
        <time>2021-10-28 11:12:32</time>
      </trkpt>
      <trkpt lat="43.29888" lon="-3.19055">
        <ele>457</ele>
        <time>2021-10-28 11:12:33</time>
      </trkpt>
      <trkpt lat="43.29889" lon="-3.19056">
        <ele>457.2</ele>
        <time>2021-10-28 11:12:34</time>
      </trkpt>
      <trkpt lat="43.2989" lon="-3.19058">
        <ele>457.4</ele>
        <time>2021-10-28 11:12:35</time>
      </trkpt>
      <trkpt lat="43.29891" lon="-3.19062">
        <ele>457.6</ele>
        <time>2021-10-28 11:12:36</time>
      </trkpt>
      <trkpt lat="43.29891" lon="-3.19062">
        <ele>458</ele>
        <time>2021-10-28 11:12:37</time>
      </trkpt>
      <trkpt lat="43.29891" lon="-3.19065">
        <ele>458.2</ele>
        <time>2021-10-28 11:12:38</time>
      </trkpt>
      <trkpt lat="43.29891" lon="-3.19067">
        <ele>458.6</ele>
        <time>2021-10-28 11:12:39</time>
      </trkpt>
      <trkpt lat="43.29892" lon="-3.19069">
        <ele>458.8</ele>
        <time>2021-10-28 11:12:40</time>
      </trkpt>
      <trkpt lat="43.29892" lon="-3.1907">
        <ele>459.2</ele>
        <time>2021-10-28 11:12:41</time>
      </trkpt>
      <trkpt lat="43.29893" lon="-3.19078">
        <ele>459.4</ele>
        <time>2021-10-28 11:12:42</time>
      </trkpt>
      <trkpt lat="43.29893" lon="-3.19078">
        <ele>459.4</ele>
        <time>2021-10-28 11:12:43</time>
      </trkpt>
      <trkpt lat="43.29897" lon="-3.19077">
        <ele>459.6</ele>
        <time>2021-10-28 11:12:44</time>
      </trkpt>
      <trkpt lat="43.29899" lon="-3.19082">
        <ele>459.8</ele>
        <time>2021-10-28 11:12:45</time>
      </trkpt>
      <trkpt lat="43.29899" lon="-3.19082">
        <ele>460</ele>
        <time>2021-10-28 11:12:46</time>
      </trkpt>
      <trkpt lat="43.29895" lon="-3.19084">
        <ele>460.2</ele>
        <time>2021-10-28 11:12:47</time>
      </trkpt>
      <trkpt lat="43.29895" lon="-3.19088">
        <ele>460.4</ele>
        <time>2021-10-28 11:12:48</time>
      </trkpt>
      <trkpt lat="43.29896" lon="-3.19089">
        <ele>460.6</ele>
        <time>2021-10-28 11:12:49</time>
      </trkpt>
      <trkpt lat="43.29896" lon="-3.19089">
        <ele>460.8</ele>
        <time>2021-10-28 11:12:50</time>
      </trkpt>
      <trkpt lat="43.29896" lon="-3.19092">
        <ele>461</ele>
        <time>2021-10-28 11:12:51</time>
      </trkpt>
      <trkpt lat="43.29897" lon="-3.19094">
        <ele>461.2</ele>
        <time>2021-10-28 11:12:52</time>
      </trkpt>
      <trkpt lat="43.29897" lon="-3.19096">
        <ele>461.4</ele>
        <time>2021-10-28 11:12:53</time>
      </trkpt>
      <trkpt lat="43.29898" lon="-3.19101">
        <ele>461.6</ele>
        <time>2021-10-28 11:12:54</time>
      </trkpt>
      <trkpt lat="43.29898" lon="-3.19101">
        <ele>461.8</ele>
        <time>2021-10-28 11:12:55</time>
      </trkpt>
      <trkpt lat="43.29901" lon="-3.19107">
        <ele>462</ele>
        <time>2021-10-28 11:12:56</time>
      </trkpt>
      <trkpt lat="43.29901" lon="-3.19107">
        <ele>462</ele>
        <time>2021-10-28 11:12:57</time>
      </trkpt>
      <trkpt lat="43.29903" lon="-3.19109">
        <ele>462.2</ele>
        <time>2021-10-28 11:12:58</time>
      </trkpt>
      <trkpt lat="43.29902" lon="-3.1911">
        <ele>462.4</ele>
        <time>2021-10-28 11:12:59</time>
      </trkpt>
      <trkpt lat="43.29902" lon="-3.19116">
        <ele>462.6</ele>
        <time>2021-10-28 11:13:00</time>
      </trkpt>
      <trkpt lat="43.29902" lon="-3.19116">
        <ele>462.8</ele>
        <time>2021-10-28 11:13:01</time>
      </trkpt>
      <trkpt lat="43.29904" lon="-3.19119">
        <ele>463</ele>
        <time>2021-10-28 11:13:02</time>
      </trkpt>
      <trkpt lat="43.29906" lon="-3.19121">
        <ele>463.2</ele>
        <time>2021-10-28 11:13:03</time>
      </trkpt>
      <trkpt lat="43.29906" lon="-3.19121">
        <ele>463.4</ele>
        <time>2021-10-28 11:13:04</time>
      </trkpt>
      <trkpt lat="43.29906" lon="-3.19123">
        <ele>463.4</ele>
        <time>2021-10-28 11:13:05</time>
      </trkpt>
      <trkpt lat="43.29907" lon="-3.19125">
        <ele>463.6</ele>
        <time>2021-10-28 11:13:06</time>
      </trkpt>
      <trkpt lat="43.29908" lon="-3.19126">
        <ele>463.6</ele>
        <time>2021-10-28 11:13:07</time>
      </trkpt>
      <trkpt lat="43.29909" lon="-3.19133">
        <ele>463.8</ele>
        <time>2021-10-28 11:13:08</time>
      </trkpt>
      <trkpt lat="43.29909" lon="-3.19133">
        <ele>464</ele>
        <time>2021-10-28 11:13:09</time>
      </trkpt>
      <trkpt lat="43.29907" lon="-3.19138">
        <ele>464.2</ele>
        <time>2021-10-28 11:13:10</time>
      </trkpt>
      <trkpt lat="43.29907" lon="-3.19138">
        <ele>464.4</ele>
        <time>2021-10-28 11:13:11</time>
      </trkpt>
      <trkpt lat="43.29908" lon="-3.19141">
        <ele>464.6</ele>
        <time>2021-10-28 11:13:12</time>
      </trkpt>
      <trkpt lat="43.29908" lon="-3.19141">
        <ele>464.8</ele>
        <time>2021-10-28 11:13:13</time>
      </trkpt>
      <trkpt lat="43.29908" lon="-3.19145">
        <ele>464.8</ele>
        <time>2021-10-28 11:13:14</time>
      </trkpt>
      <trkpt lat="43.29911" lon="-3.19146">
        <ele>465</ele>
        <time>2021-10-28 11:13:15</time>
      </trkpt>
      <trkpt lat="43.29914" lon="-3.19151">
        <ele>465.2</ele>
        <time>2021-10-28 11:13:16</time>
      </trkpt>
      <trkpt lat="43.29914" lon="-3.19151">
        <ele>465.4</ele>
        <time>2021-10-28 11:13:17</time>
      </trkpt>
      <trkpt lat="43.29915" lon="-3.19153">
        <ele>465.6</ele>
        <time>2021-10-28 11:13:18</time>
      </trkpt>
      <trkpt lat="43.29916" lon="-3.19155">
        <ele>465.8</ele>
        <time>2021-10-28 11:13:19</time>
      </trkpt>
      <trkpt lat="43.29918" lon="-3.19157">
        <ele>466</ele>
        <time>2021-10-28 11:13:20</time>
      </trkpt>
      <trkpt lat="43.29919" lon="-3.19161">
        <ele>466.4</ele>
        <time>2021-10-28 11:13:21</time>
      </trkpt>
      <trkpt lat="43.29919" lon="-3.19164">
        <ele>466.6</ele>
        <time>2021-10-28 11:13:22</time>
      </trkpt>
      <trkpt lat="43.29919" lon="-3.19164">
        <ele>466.8</ele>
        <time>2021-10-28 11:13:23</time>
      </trkpt>
      <trkpt lat="43.29918" lon="-3.19167">
        <ele>467</ele>
        <time>2021-10-28 11:13:24</time>
      </trkpt>
      <trkpt lat="43.2992" lon="-3.19172">
        <ele>467.2</ele>
        <time>2021-10-28 11:13:25</time>
      </trkpt>
      <trkpt lat="43.2992" lon="-3.19172">
        <ele>467.4</ele>
        <time>2021-10-28 11:13:26</time>
      </trkpt>
      <trkpt lat="43.2992" lon="-3.19174">
        <ele>467.6</ele>
        <time>2021-10-28 11:13:27</time>
      </trkpt>
      <trkpt lat="43.29923" lon="-3.1918">
        <ele>467.8</ele>
        <time>2021-10-28 11:13:28</time>
      </trkpt>
      <trkpt lat="43.29923" lon="-3.1918">
        <ele>468</ele>
        <time>2021-10-28 11:13:29</time>
      </trkpt>
      <trkpt lat="43.29926" lon="-3.19184">
        <ele>468.2</ele>
        <time>2021-10-28 11:13:30</time>
      </trkpt>
      <trkpt lat="43.29926" lon="-3.19184">
        <ele>468.4</ele>
        <time>2021-10-28 11:13:31</time>
      </trkpt>
      <trkpt lat="43.29926" lon="-3.19184">
        <ele>468.6</ele>
        <time>2021-10-28 11:13:32</time>
      </trkpt>
      <trkpt lat="43.29927" lon="-3.1919">
        <ele>468.6</ele>
        <time>2021-10-28 11:13:33</time>
      </trkpt>
      <trkpt lat="43.29927" lon="-3.1919">
        <ele>468.8</ele>
        <time>2021-10-28 11:13:34</time>
      </trkpt>
      <trkpt lat="43.29928" lon="-3.19193">
        <ele>469</ele>
        <time>2021-10-28 11:13:35</time>
      </trkpt>
      <trkpt lat="43.29928" lon="-3.19195">
        <ele>469</ele>
        <time>2021-10-28 11:13:36</time>
      </trkpt>
      <trkpt lat="43.29928" lon="-3.19199">
        <ele>469.2</ele>
        <time>2021-10-28 11:13:37</time>
      </trkpt>
      <trkpt lat="43.29931" lon="-3.19199">
        <ele>469.4</ele>
        <time>2021-10-28 11:13:38</time>
      </trkpt>
      <trkpt lat="43.29936" lon="-3.19199">
        <ele>469.6</ele>
        <time>2021-10-28 11:13:39</time>
      </trkpt>
      <trkpt lat="43.29936" lon="-3.19199">
        <ele>469.8</ele>
        <time>2021-10-28 11:13:40</time>
      </trkpt>
      <trkpt lat="43.29939" lon="-3.19201">
        <ele>470</ele>
        <time>2021-10-28 11:13:41</time>
      </trkpt>
      <trkpt lat="43.2994" lon="-3.19202">
        <ele>470.2</ele>
        <time>2021-10-28 11:13:42</time>
      </trkpt>
      <trkpt lat="43.2994" lon="-3.19204">
        <ele>470.4</ele>
        <time>2021-10-28 11:13:43</time>
      </trkpt>
      <trkpt lat="43.29942" lon="-3.19206">
        <ele>470.6</ele>
        <time>2021-10-28 11:13:44</time>
      </trkpt>
      <trkpt lat="43.29944" lon="-3.1921">
        <ele>470.8</ele>
        <time>2021-10-28 11:13:45</time>
      </trkpt>
      <trkpt lat="43.29946" lon="-3.19212">
        <ele>471</ele>
        <time>2021-10-28 11:13:46</time>
      </trkpt>
      <trkpt lat="43.29946" lon="-3.19212">
        <ele>471.2</ele>
        <time>2021-10-28 11:13:47</time>
      </trkpt>
      <trkpt lat="43.29948" lon="-3.19216">
        <ele>471.6</ele>
        <time>2021-10-28 11:13:48</time>
      </trkpt>
      <trkpt lat="43.29948" lon="-3.19216">
        <ele>471.8</ele>
        <time>2021-10-28 11:13:49</time>
      </trkpt>
      <trkpt lat="43.29948" lon="-3.19216">
        <ele>472</ele>
        <time>2021-10-28 11:13:50</time>
      </trkpt>
      <trkpt lat="43.2995" lon="-3.19223">
        <ele>472.2</ele>
        <time>2021-10-28 11:13:51</time>
      </trkpt>
      <trkpt lat="43.29952" lon="-3.19225">
        <ele>472.4</ele>
        <time>2021-10-28 11:13:52</time>
      </trkpt>
      <trkpt lat="43.29952" lon="-3.19225">
        <ele>472.4</ele>
        <time>2021-10-28 11:13:53</time>
      </trkpt>
      <trkpt lat="43.29954" lon="-3.19229">
        <ele>472.6</ele>
        <time>2021-10-28 11:13:54</time>
      </trkpt>
      <trkpt lat="43.29954" lon="-3.19229">
        <ele>473</ele>
        <time>2021-10-28 11:13:55</time>
      </trkpt>
      <trkpt lat="43.29956" lon="-3.19231">
        <ele>473.2</ele>
        <time>2021-10-28 11:13:56</time>
      </trkpt>
      <trkpt lat="43.2996" lon="-3.19235">
        <ele>473.4</ele>
        <time>2021-10-28 11:13:57</time>
      </trkpt>
      <trkpt lat="43.2996" lon="-3.19235">
        <ele>473.8</ele>
        <time>2021-10-28 11:13:58</time>
      </trkpt>
      <trkpt lat="43.2996" lon="-3.19235">
        <ele>474</ele>
        <time>2021-10-28 11:13:59</time>
      </trkpt>
      <trkpt lat="43.29957" lon="-3.1924">
        <ele>474.2</ele>
        <time>2021-10-28 11:14:00</time>
      </trkpt>
      <trkpt lat="43.29963" lon="-3.19241">
        <ele>474.4</ele>
        <time>2021-10-28 11:14:01</time>
      </trkpt>
      <trkpt lat="43.29963" lon="-3.19241">
        <ele>474.4</ele>
        <time>2021-10-28 11:14:02</time>
      </trkpt>
      <trkpt lat="43.29964" lon="-3.19243">
        <ele>474.6</ele>
        <time>2021-10-28 11:14:03</time>
      </trkpt>
      <trkpt lat="43.29964" lon="-3.19243">
        <ele>474.4</ele>
        <time>2021-10-28 11:14:04</time>
      </trkpt>
      <trkpt lat="43.2997" lon="-3.19245">
        <ele>475.6</ele>
        <time>2021-10-28 11:14:05</time>
      </trkpt>
      <trkpt lat="43.2997" lon="-3.19245">
        <ele>476.2</ele>
        <time>2021-10-28 11:14:06</time>
      </trkpt>
      <trkpt lat="43.29971" lon="-3.19246">
        <ele>477</ele>
        <time>2021-10-28 11:14:07</time>
      </trkpt>
      <trkpt lat="43.29973" lon="-3.19248">
        <ele>476.4</ele>
        <time>2021-10-28 11:14:08</time>
      </trkpt>
      <trkpt lat="43.29975" lon="-3.1925">
        <ele>476.6</ele>
        <time>2021-10-28 11:14:09</time>
      </trkpt>
      <trkpt lat="43.29975" lon="-3.1925">
        <ele>476.4</ele>
        <time>2021-10-28 11:14:10</time>
      </trkpt>
      <trkpt lat="43.29976" lon="-3.19254">
        <ele>476.4</ele>
        <time>2021-10-28 11:14:11</time>
      </trkpt>
      <trkpt lat="43.29976" lon="-3.19254">
        <ele>476.6</ele>
        <time>2021-10-28 11:14:12</time>
      </trkpt>
      <trkpt lat="43.29976" lon="-3.19258">
        <ele>476.8</ele>
        <time>2021-10-28 11:14:13</time>
      </trkpt>
      <trkpt lat="43.29978" lon="-3.1926">
        <ele>476.8</ele>
        <time>2021-10-28 11:14:14</time>
      </trkpt>
      <trkpt lat="43.29981" lon="-3.19262">
        <ele>477</ele>
        <time>2021-10-28 11:14:15</time>
      </trkpt>
      <trkpt lat="43.29981" lon="-3.19262">
        <ele>477</ele>
        <time>2021-10-28 11:14:16</time>
      </trkpt>
      <trkpt lat="43.29981" lon="-3.19262">
        <ele>477.2</ele>
        <time>2021-10-28 11:14:17</time>
      </trkpt>
      <trkpt lat="43.29983" lon="-3.1927">
        <ele>477.2</ele>
        <time>2021-10-28 11:14:18</time>
      </trkpt>
      <trkpt lat="43.29983" lon="-3.1927">
        <ele>477.4</ele>
        <time>2021-10-28 11:14:19</time>
      </trkpt>
      <trkpt lat="43.29984" lon="-3.19271">
        <ele>477.6</ele>
        <time>2021-10-28 11:14:20</time>
      </trkpt>
      <trkpt lat="43.29985" lon="-3.19272">
        <ele>477.6</ele>
        <time>2021-10-28 11:14:21</time>
      </trkpt>
      <trkpt lat="43.29988" lon="-3.19276">
        <ele>477.8</ele>
        <time>2021-10-28 11:14:22</time>
      </trkpt>
      <trkpt lat="43.29988" lon="-3.19276">
        <ele>477.8</ele>
        <time>2021-10-28 11:14:23</time>
      </trkpt>
      <trkpt lat="43.29988" lon="-3.19276">
        <ele>478</ele>
        <time>2021-10-28 11:14:24</time>
      </trkpt>
      <trkpt lat="43.29988" lon="-3.19279">
        <ele>478.4</ele>
        <time>2021-10-28 11:14:25</time>
      </trkpt>
      <trkpt lat="43.29989" lon="-3.19282">
        <ele>478.6</ele>
        <time>2021-10-28 11:14:26</time>
      </trkpt>
      <trkpt lat="43.29992" lon="-3.19285">
        <ele>478.8</ele>
        <time>2021-10-28 11:14:27</time>
      </trkpt>
      <trkpt lat="43.29992" lon="-3.19285">
        <ele>479</ele>
        <time>2021-10-28 11:14:28</time>
      </trkpt>
      <trkpt lat="43.29993" lon="-3.19287">
        <ele>479.4</ele>
        <time>2021-10-28 11:14:29</time>
      </trkpt>
      <trkpt lat="43.29993" lon="-3.1929">
        <ele>479.4</ele>
        <time>2021-10-28 11:14:30</time>
      </trkpt>
      <trkpt lat="43.3" lon="-3.19293">
        <ele>479.6</ele>
        <time>2021-10-28 11:14:31</time>
      </trkpt>
      <trkpt lat="43.3" lon="-3.19293">
        <ele>479.6</ele>
        <time>2021-10-28 11:14:32</time>
      </trkpt>
      <trkpt lat="43.29998" lon="-3.193">
        <ele>479.8</ele>
        <time>2021-10-28 11:14:33</time>
      </trkpt>
      <trkpt lat="43.29998" lon="-3.193">
        <ele>480</ele>
        <time>2021-10-28 11:14:34</time>
      </trkpt>
      <trkpt lat="43.29998" lon="-3.19304">
        <ele>480.2</ele>
        <time>2021-10-28 11:14:35</time>
      </trkpt>
      <trkpt lat="43.3" lon="-3.19305">
        <ele>480.4</ele>
        <time>2021-10-28 11:14:36</time>
      </trkpt>
      <trkpt lat="43.30003" lon="-3.19311">
        <ele>480.8</ele>
        <time>2021-10-28 11:14:37</time>
      </trkpt>
      <trkpt lat="43.30003" lon="-3.19311">
        <ele>481</ele>
        <time>2021-10-28 11:14:38</time>
      </trkpt>
      <trkpt lat="43.30005" lon="-3.19316">
        <ele>481.4</ele>
        <time>2021-10-28 11:14:39</time>
      </trkpt>
      <trkpt lat="43.30005" lon="-3.19316">
        <ele>481.6</ele>
        <time>2021-10-28 11:14:40</time>
      </trkpt>
      <trkpt lat="43.30004" lon="-3.19321">
        <ele>482</ele>
        <time>2021-10-28 11:14:41</time>
      </trkpt>
      <trkpt lat="43.30004" lon="-3.19321">
        <ele>482.2</ele>
        <time>2021-10-28 11:14:42</time>
      </trkpt>
      <trkpt lat="43.30004" lon="-3.19323">
        <ele>482.4</ele>
        <time>2021-10-28 11:14:43</time>
      </trkpt>
      <trkpt lat="43.30007" lon="-3.19323">
        <ele>482.8</ele>
        <time>2021-10-28 11:14:44</time>
      </trkpt>
      <trkpt lat="43.30007" lon="-3.19328">
        <ele>482.8</ele>
        <time>2021-10-28 11:14:45</time>
      </trkpt>
      <trkpt lat="43.30007" lon="-3.19328">
        <ele>483</ele>
        <time>2021-10-28 11:14:46</time>
      </trkpt>
      <trkpt lat="43.30008" lon="-3.19329">
        <ele>483.2</ele>
        <time>2021-10-28 11:14:47</time>
      </trkpt>
      <trkpt lat="43.30009" lon="-3.1933">
        <ele>483.4</ele>
        <time>2021-10-28 11:14:48</time>
      </trkpt>
      <trkpt lat="43.30012" lon="-3.19333">
        <ele>483.6</ele>
        <time>2021-10-28 11:14:49</time>
      </trkpt>
      <trkpt lat="43.30012" lon="-3.19333">
        <ele>483.8</ele>
        <time>2021-10-28 11:14:50</time>
      </trkpt>
      <trkpt lat="43.30013" lon="-3.19339">
        <ele>483.8</ele>
        <time>2021-10-28 11:14:51</time>
      </trkpt>
      <trkpt lat="43.30013" lon="-3.19339">
        <ele>484</ele>
        <time>2021-10-28 11:14:52</time>
      </trkpt>
      <trkpt lat="43.30015" lon="-3.19345">
        <ele>484.2</ele>
        <time>2021-10-28 11:14:53</time>
      </trkpt>
      <trkpt lat="43.30015" lon="-3.19345">
        <ele>484.4</ele>
        <time>2021-10-28 11:14:54</time>
      </trkpt>
      <trkpt lat="43.30016" lon="-3.19346">
        <ele>484.6</ele>
        <time>2021-10-28 11:14:55</time>
      </trkpt>
      <trkpt lat="43.30018" lon="-3.19349">
        <ele>484.6</ele>
        <time>2021-10-28 11:14:56</time>
      </trkpt>
      <trkpt lat="43.30018" lon="-3.19349">
        <ele>484.8</ele>
        <time>2021-10-28 11:14:57</time>
      </trkpt>
      <trkpt lat="43.30019" lon="-3.19351">
        <ele>484.8</ele>
        <time>2021-10-28 11:14:58</time>
      </trkpt>
      <trkpt lat="43.30019" lon="-3.19355">
        <ele>485</ele>
        <time>2021-10-28 11:14:59</time>
      </trkpt>
      <trkpt lat="43.30019" lon="-3.19355">
        <ele>485</ele>
        <time>2021-10-28 11:15:00</time>
      </trkpt>
      <trkpt lat="43.30021" lon="-3.19356">
        <ele>485.2</ele>
        <time>2021-10-28 11:15:01</time>
      </trkpt>
      <trkpt lat="43.3002" lon="-3.19361">
        <ele>485.4</ele>
        <time>2021-10-28 11:15:02</time>
      </trkpt>
      <trkpt lat="43.3002" lon="-3.19361">
        <ele>485.4</ele>
        <time>2021-10-28 11:15:03</time>
      </trkpt>
      <trkpt lat="43.30017" lon="-3.19363">
        <ele>485.6</ele>
        <time>2021-10-28 11:15:04</time>
      </trkpt>
      <trkpt lat="43.30017" lon="-3.19363">
        <ele>485.8</ele>
        <time>2021-10-28 11:15:05</time>
      </trkpt>
      <trkpt lat="43.3002" lon="-3.19365">
        <ele>486</ele>
        <time>2021-10-28 11:15:06</time>
      </trkpt>
      <trkpt lat="43.30019" lon="-3.19369">
        <ele>486.2</ele>
        <time>2021-10-28 11:15:07</time>
      </trkpt>
      <trkpt lat="43.30019" lon="-3.1937">
        <ele>486.4</ele>
        <time>2021-10-28 11:15:08</time>
      </trkpt>
      <trkpt lat="43.30018" lon="-3.19374">
        <ele>486.6</ele>
        <time>2021-10-28 11:15:09</time>
      </trkpt>
      <trkpt lat="43.30015" lon="-3.19378">
        <ele>486.8</ele>
        <time>2021-10-28 11:15:10</time>
      </trkpt>
      <trkpt lat="43.30015" lon="-3.19378">
        <ele>487.2</ele>
        <time>2021-10-28 11:15:11</time>
      </trkpt>
      <trkpt lat="43.30011" lon="-3.1938">
        <ele>487.4</ele>
        <time>2021-10-28 11:15:12</time>
      </trkpt>
      <trkpt lat="43.3001" lon="-3.19382">
        <ele>487.6</ele>
        <time>2021-10-28 11:15:13</time>
      </trkpt>
      <trkpt lat="43.30009" lon="-3.19381">
        <ele>488</ele>
        <time>2021-10-28 11:15:14</time>
      </trkpt>
      <trkpt lat="43.30004" lon="-3.19384">
        <ele>488</ele>
        <time>2021-10-28 11:15:15</time>
      </trkpt>
      <trkpt lat="43.30004" lon="-3.19384">
        <ele>488.2</ele>
        <time>2021-10-28 11:15:16</time>
      </trkpt>
      <trkpt lat="43.30004" lon="-3.19384">
        <ele>488.4</ele>
        <time>2021-10-28 11:15:17</time>
      </trkpt>
      <trkpt lat="43.30002" lon="-3.19383">
        <ele>488.6</ele>
        <time>2021-10-28 11:15:18</time>
      </trkpt>
      <trkpt lat="43.29997" lon="-3.19381">
        <ele>488.6</ele>
        <time>2021-10-28 11:15:19</time>
      </trkpt>
      <trkpt lat="43.29996" lon="-3.19382">
        <ele>488.8</ele>
        <time>2021-10-28 11:15:20</time>
      </trkpt>
      <trkpt lat="43.29996" lon="-3.19382">
        <ele>489</ele>
        <time>2021-10-28 11:15:21</time>
      </trkpt>
      <trkpt lat="43.29992" lon="-3.19381">
        <ele>489.4</ele>
        <time>2021-10-28 11:15:22</time>
      </trkpt>
      <trkpt lat="43.29989" lon="-3.19379">
        <ele>490</ele>
        <time>2021-10-28 11:15:23</time>
      </trkpt>
      <trkpt lat="43.29989" lon="-3.19379">
        <ele>490</ele>
        <time>2021-10-28 11:15:24</time>
      </trkpt>
      <trkpt lat="43.29988" lon="-3.1938">
        <ele>489.8</ele>
        <time>2021-10-28 11:15:25</time>
      </trkpt>
      <trkpt lat="43.29985" lon="-3.19381">
        <ele>489.8</ele>
        <time>2021-10-28 11:15:26</time>
      </trkpt>
      <trkpt lat="43.2998" lon="-3.19379">
        <ele>489.4</ele>
        <time>2021-10-28 11:15:27</time>
      </trkpt>
      <trkpt lat="43.29978" lon="-3.19379">
        <ele>489.4</ele>
        <time>2021-10-28 11:15:28</time>
      </trkpt>
      <trkpt lat="43.29978" lon="-3.19379">
        <ele>489.4</ele>
        <time>2021-10-28 11:15:29</time>
      </trkpt>
      <trkpt lat="43.29975" lon="-3.19379">
        <ele>489.4</ele>
        <time>2021-10-28 11:15:30</time>
      </trkpt>
      <trkpt lat="43.29973" lon="-3.1938">
        <ele>489.4</ele>
        <time>2021-10-28 11:15:31</time>
      </trkpt>
      <trkpt lat="43.2997" lon="-3.19378">
        <ele>489.4</ele>
        <time>2021-10-28 11:15:32</time>
      </trkpt>
      <trkpt lat="43.2997" lon="-3.19378">
        <ele>489.2</ele>
        <time>2021-10-28 11:15:33</time>
      </trkpt>
      <trkpt lat="43.29968" lon="-3.19376">
        <ele>489.2</ele>
        <time>2021-10-28 11:15:34</time>
      </trkpt>
      <trkpt lat="43.29964" lon="-3.19377">
        <ele>489.2</ele>
        <time>2021-10-28 11:15:35</time>
      </trkpt>
      <trkpt lat="43.29964" lon="-3.19377">
        <ele>489.2</ele>
        <time>2021-10-28 11:15:36</time>
      </trkpt>
      <trkpt lat="43.29959" lon="-3.19379">
        <ele>489.2</ele>
        <time>2021-10-28 11:15:37</time>
      </trkpt>
      <trkpt lat="43.29959" lon="-3.19379">
        <ele>489.2</ele>
        <time>2021-10-28 11:15:38</time>
      </trkpt>
      <trkpt lat="43.29956" lon="-3.1938">
        <ele>489.4</ele>
        <time>2021-10-28 11:15:39</time>
      </trkpt>
      <trkpt lat="43.29956" lon="-3.1938">
        <ele>489.4</ele>
        <time>2021-10-28 11:15:40</time>
      </trkpt>
      <trkpt lat="43.29953" lon="-3.19382">
        <ele>489.2</ele>
        <time>2021-10-28 11:15:41</time>
      </trkpt>
      <trkpt lat="43.29951" lon="-3.19384">
        <ele>489.2</ele>
        <time>2021-10-28 11:15:42</time>
      </trkpt>
      <trkpt lat="43.29949" lon="-3.19384">
        <ele>489.2</ele>
        <time>2021-10-28 11:15:43</time>
      </trkpt>
      <trkpt lat="43.29946" lon="-3.19386">
        <ele>489.2</ele>
        <time>2021-10-28 11:15:44</time>
      </trkpt>
      <trkpt lat="43.29946" lon="-3.19386">
        <ele>489.2</ele>
        <time>2021-10-28 11:15:45</time>
      </trkpt>
      <trkpt lat="43.29943" lon="-3.19389">
        <ele>489.2</ele>
        <time>2021-10-28 11:15:46</time>
      </trkpt>
      <trkpt lat="43.29943" lon="-3.19389">
        <ele>489.2</ele>
        <time>2021-10-28 11:15:47</time>
      </trkpt>
      <trkpt lat="43.29938" lon="-3.1939">
        <ele>489.4</ele>
        <time>2021-10-28 11:15:48</time>
      </trkpt>
      <trkpt lat="43.29938" lon="-3.1939">
        <ele>489.4</ele>
        <time>2021-10-28 11:15:49</time>
      </trkpt>
      <trkpt lat="43.29933" lon="-3.19393">
        <ele>489.4</ele>
        <time>2021-10-28 11:15:50</time>
      </trkpt>
      <trkpt lat="43.29933" lon="-3.19393">
        <ele>489.4</ele>
        <time>2021-10-28 11:15:51</time>
      </trkpt>
      <trkpt lat="43.29929" lon="-3.19395">
        <ele>489.4</ele>
        <time>2021-10-28 11:15:52</time>
      </trkpt>
      <trkpt lat="43.29929" lon="-3.19395">
        <ele>489.4</ele>
        <time>2021-10-28 11:15:53</time>
      </trkpt>
      <trkpt lat="43.29926" lon="-3.19394">
        <ele>489.6</ele>
        <time>2021-10-28 11:15:54</time>
      </trkpt>
      <trkpt lat="43.29926" lon="-3.19394">
        <ele>489.6</ele>
        <time>2021-10-28 11:15:55</time>
      </trkpt>
      <trkpt lat="43.29924" lon="-3.19396">
        <ele>489.8</ele>
        <time>2021-10-28 11:15:56</time>
      </trkpt>
      <trkpt lat="43.29918" lon="-3.19397">
        <ele>489.8</ele>
        <time>2021-10-28 11:15:57</time>
      </trkpt>
      <trkpt lat="43.29918" lon="-3.19397">
        <ele>490</ele>
        <time>2021-10-28 11:15:58</time>
      </trkpt>
      <trkpt lat="43.29913" lon="-3.19395">
        <ele>490.2</ele>
        <time>2021-10-28 11:15:59</time>
      </trkpt>
      <trkpt lat="43.29913" lon="-3.19395">
        <ele>490.4</ele>
        <time>2021-10-28 11:16:00</time>
      </trkpt>
      <trkpt lat="43.29906" lon="-3.19394">
        <ele>490.6</ele>
        <time>2021-10-28 11:16:01</time>
      </trkpt>
      <trkpt lat="43.29906" lon="-3.19394">
        <ele>490.6</ele>
        <time>2021-10-28 11:16:02</time>
      </trkpt>
      <trkpt lat="43.29903" lon="-3.19393">
        <ele>490.8</ele>
        <time>2021-10-28 11:16:03</time>
      </trkpt>
      <trkpt lat="43.29898" lon="-3.19395">
        <ele>490.8</ele>
        <time>2021-10-28 11:16:04</time>
      </trkpt>
      <trkpt lat="43.29898" lon="-3.19395">
        <ele>490.6</ele>
        <time>2021-10-28 11:16:05</time>
      </trkpt>
      <trkpt lat="43.29891" lon="-3.19393">
        <ele>490.6</ele>
        <time>2021-10-28 11:16:06</time>
      </trkpt>
      <trkpt lat="43.29891" lon="-3.19393">
        <ele>490.4</ele>
        <time>2021-10-28 11:16:07</time>
      </trkpt>
      <trkpt lat="43.29888" lon="-3.19393">
        <ele>490.4</ele>
        <time>2021-10-28 11:16:08</time>
      </trkpt>
      <trkpt lat="43.29881" lon="-3.19392">
        <ele>490.2</ele>
        <time>2021-10-28 11:16:09</time>
      </trkpt>
      <trkpt lat="43.29881" lon="-3.19392">
        <ele>490.2</ele>
        <time>2021-10-28 11:16:10</time>
      </trkpt>
      <trkpt lat="43.29878" lon="-3.19391">
        <ele>490.2</ele>
        <time>2021-10-28 11:16:11</time>
      </trkpt>
      <trkpt lat="43.29876" lon="-3.19392">
        <ele>490.2</ele>
        <time>2021-10-28 11:16:12</time>
      </trkpt>
      <trkpt lat="43.2987" lon="-3.19396">
        <ele>490.4</ele>
        <time>2021-10-28 11:16:13</time>
      </trkpt>
      <trkpt lat="43.2987" lon="-3.19396">
        <ele>490.4</ele>
        <time>2021-10-28 11:16:14</time>
      </trkpt>
      <trkpt lat="43.29865" lon="-3.19397">
        <ele>490.6</ele>
        <time>2021-10-28 11:16:15</time>
      </trkpt>
      <trkpt lat="43.29865" lon="-3.19397">
        <ele>490.8</ele>
        <time>2021-10-28 11:16:16</time>
      </trkpt>
      <trkpt lat="43.29863" lon="-3.19398">
        <ele>490.8</ele>
        <time>2021-10-28 11:16:17</time>
      </trkpt>
      <trkpt lat="43.29861" lon="-3.19398">
        <ele>491</ele>
        <time>2021-10-28 11:16:18</time>
      </trkpt>
      <trkpt lat="43.29855" lon="-3.19397">
        <ele>491</ele>
        <time>2021-10-28 11:16:19</time>
      </trkpt>
      <trkpt lat="43.29855" lon="-3.19397">
        <ele>491</ele>
        <time>2021-10-28 11:16:20</time>
      </trkpt>
      <trkpt lat="43.29847" lon="-3.19396">
        <ele>491</ele>
        <time>2021-10-28 11:16:21</time>
      </trkpt>
      <trkpt lat="43.29847" lon="-3.19396">
        <ele>491.2</ele>
        <time>2021-10-28 11:16:22</time>
      </trkpt>
      <trkpt lat="43.29841" lon="-3.194">
        <ele>491.2</ele>
        <time>2021-10-28 11:16:23</time>
      </trkpt>
      <trkpt lat="43.29841" lon="-3.194">
        <ele>491.4</ele>
        <time>2021-10-28 11:16:24</time>
      </trkpt>
      <trkpt lat="43.29841" lon="-3.194">
        <ele>491.4</ele>
        <time>2021-10-28 11:16:25</time>
      </trkpt>
      <trkpt lat="43.29837" lon="-3.19406">
        <ele>491.6</ele>
        <time>2021-10-28 11:16:26</time>
      </trkpt>
      <trkpt lat="43.29837" lon="-3.19406">
        <ele>491.8</ele>
        <time>2021-10-28 11:16:27</time>
      </trkpt>
      <trkpt lat="43.29837" lon="-3.19406">
        <ele>492</ele>
        <time>2021-10-28 11:16:28</time>
      </trkpt>
      <trkpt lat="43.29834" lon="-3.19411">
        <ele>492.2</ele>
        <time>2021-10-28 11:16:29</time>
      </trkpt>
      <trkpt lat="43.2983" lon="-3.19412">
        <ele>492.2</ele>
        <time>2021-10-28 11:16:30</time>
      </trkpt>
      <trkpt lat="43.29827" lon="-3.19414">
        <ele>492.4</ele>
        <time>2021-10-28 11:16:31</time>
      </trkpt>
      <trkpt lat="43.29825" lon="-3.19419">
        <ele>492.4</ele>
        <time>2021-10-28 11:16:32</time>
      </trkpt>
      <trkpt lat="43.29822" lon="-3.1942">
        <ele>492.6</ele>
        <time>2021-10-28 11:16:33</time>
      </trkpt>
      <trkpt lat="43.29822" lon="-3.1943">
        <ele>492.6</ele>
        <time>2021-10-28 11:16:34</time>
      </trkpt>
      <trkpt lat="43.29822" lon="-3.19434">
        <ele>492.6</ele>
        <time>2021-10-28 11:16:35</time>
      </trkpt>
      <trkpt lat="43.29822" lon="-3.19434">
        <ele>492.6</ele>
        <time>2021-10-28 11:16:36</time>
      </trkpt>
      <trkpt lat="43.29822" lon="-3.19438">
        <ele>492.6</ele>
        <time>2021-10-28 11:16:37</time>
      </trkpt>
      <trkpt lat="43.29821" lon="-3.19443">
        <ele>492.6</ele>
        <time>2021-10-28 11:16:38</time>
      </trkpt>
      <trkpt lat="43.29821" lon="-3.19443">
        <ele>492.6</ele>
        <time>2021-10-28 11:16:39</time>
      </trkpt>
      <trkpt lat="43.29821" lon="-3.19448">
        <ele>492.6</ele>
        <time>2021-10-28 11:16:40</time>
      </trkpt>
      <trkpt lat="43.29821" lon="-3.19448">
        <ele>492.6</ele>
        <time>2021-10-28 11:16:41</time>
      </trkpt>
      <trkpt lat="43.29822" lon="-3.19451">
        <ele>492.6</ele>
        <time>2021-10-28 11:16:42</time>
      </trkpt>
      <trkpt lat="43.29822" lon="-3.19451">
        <ele>492.6</ele>
        <time>2021-10-28 11:16:43</time>
      </trkpt>
      <trkpt lat="43.29823" lon="-3.19458">
        <ele>492.6</ele>
        <time>2021-10-28 11:16:44</time>
      </trkpt>
      <trkpt lat="43.29823" lon="-3.19458">
        <ele>492.6</ele>
        <time>2021-10-28 11:16:45</time>
      </trkpt>
      <trkpt lat="43.29823" lon="-3.19458">
        <ele>492.4</ele>
        <time>2021-10-28 11:16:46</time>
      </trkpt>
      <trkpt lat="43.29823" lon="-3.19461">
        <ele>492.4</ele>
        <time>2021-10-28 11:16:47</time>
      </trkpt>
      <trkpt lat="43.29821" lon="-3.19467">
        <ele>492.4</ele>
        <time>2021-10-28 11:16:48</time>
      </trkpt>
      <trkpt lat="43.29821" lon="-3.19467">
        <ele>492.2</ele>
        <time>2021-10-28 11:16:49</time>
      </trkpt>
      <trkpt lat="43.2982" lon="-3.1947">
        <ele>492.2</ele>
        <time>2021-10-28 11:16:50</time>
      </trkpt>
      <trkpt lat="43.29821" lon="-3.19478">
        <ele>492</ele>
        <time>2021-10-28 11:16:51</time>
      </trkpt>
      <trkpt lat="43.29821" lon="-3.19478">
        <ele>492</ele>
        <time>2021-10-28 11:16:52</time>
      </trkpt>
      <trkpt lat="43.29823" lon="-3.19485">
        <ele>492</ele>
        <time>2021-10-28 11:16:53</time>
      </trkpt>
      <trkpt lat="43.29823" lon="-3.19485">
        <ele>492</ele>
        <time>2021-10-28 11:16:54</time>
      </trkpt>
      <trkpt lat="43.2982" lon="-3.19489">
        <ele>492</ele>
        <time>2021-10-28 11:16:55</time>
      </trkpt>
      <trkpt lat="43.2982" lon="-3.19489">
        <ele>492</ele>
        <time>2021-10-28 11:16:56</time>
      </trkpt>
      <trkpt lat="43.29817" lon="-3.19494">
        <ele>491.8</ele>
        <time>2021-10-28 11:16:57</time>
      </trkpt>
      <trkpt lat="43.29817" lon="-3.19494">
        <ele>491.8</ele>
        <time>2021-10-28 11:16:58</time>
      </trkpt>
      <trkpt lat="43.29814" lon="-3.19499">
        <ele>492</ele>
        <time>2021-10-28 11:16:59</time>
      </trkpt>
      <trkpt lat="43.29814" lon="-3.19499">
        <ele>492</ele>
        <time>2021-10-28 11:17:00</time>
      </trkpt>
      <trkpt lat="43.29812" lon="-3.19503">
        <ele>492</ele>
        <time>2021-10-28 11:17:01</time>
      </trkpt>
      <trkpt lat="43.29812" lon="-3.19507">
        <ele>492</ele>
        <time>2021-10-28 11:17:02</time>
      </trkpt>
      <trkpt lat="43.29814" lon="-3.19514">
        <ele>492</ele>
        <time>2021-10-28 11:17:03</time>
      </trkpt>
      <trkpt lat="43.29811" lon="-3.19517">
        <ele>492</ele>
        <time>2021-10-28 11:17:04</time>
      </trkpt>
      <trkpt lat="43.29811" lon="-3.19517">
        <ele>492.2</ele>
        <time>2021-10-28 11:17:05</time>
      </trkpt>
      <trkpt lat="43.2981" lon="-3.19524">
        <ele>492.2</ele>
        <time>2021-10-28 11:17:06</time>
      </trkpt>
      <trkpt lat="43.2981" lon="-3.19524">
        <ele>492.2</ele>
        <time>2021-10-28 11:17:07</time>
      </trkpt>
      <trkpt lat="43.29809" lon="-3.19527">
        <ele>492.4</ele>
        <time>2021-10-28 11:17:08</time>
      </trkpt>
      <trkpt lat="43.29808" lon="-3.19531">
        <ele>492.4</ele>
        <time>2021-10-28 11:17:09</time>
      </trkpt>
      <trkpt lat="43.29809" lon="-3.19532">
        <ele>492.6</ele>
        <time>2021-10-28 11:17:10</time>
      </trkpt>
      <trkpt lat="43.29808" lon="-3.19535">
        <ele>492.6</ele>
        <time>2021-10-28 11:17:11</time>
      </trkpt>
      <trkpt lat="43.29807" lon="-3.19541">
        <ele>492.8</ele>
        <time>2021-10-28 11:17:12</time>
      </trkpt>
      <trkpt lat="43.29806" lon="-3.19545">
        <ele>492.8</ele>
        <time>2021-10-28 11:17:13</time>
      </trkpt>
      <trkpt lat="43.29806" lon="-3.19545">
        <ele>492.8</ele>
        <time>2021-10-28 11:17:14</time>
      </trkpt>
      <trkpt lat="43.29806" lon="-3.19547">
        <ele>492.8</ele>
        <time>2021-10-28 11:17:15</time>
      </trkpt>
      <trkpt lat="43.29806" lon="-3.19549">
        <ele>492.8</ele>
        <time>2021-10-28 11:17:16</time>
      </trkpt>
      <trkpt lat="43.29804" lon="-3.19553">
        <ele>492.8</ele>
        <time>2021-10-28 11:17:17</time>
      </trkpt>
      <trkpt lat="43.29803" lon="-3.19556">
        <ele>492.6</ele>
        <time>2021-10-28 11:17:18</time>
      </trkpt>
      <trkpt lat="43.298" lon="-3.19564">
        <ele>492.6</ele>
        <time>2021-10-28 11:17:19</time>
      </trkpt>
      <trkpt lat="43.298" lon="-3.19564">
        <ele>492.8</ele>
        <time>2021-10-28 11:17:20</time>
      </trkpt>
      <trkpt lat="43.29797" lon="-3.19566">
        <ele>492.8</ele>
        <time>2021-10-28 11:17:21</time>
      </trkpt>
      <trkpt lat="43.29795" lon="-3.19569">
        <ele>492.8</ele>
        <time>2021-10-28 11:17:22</time>
      </trkpt>
      <trkpt lat="43.29795" lon="-3.19569">
        <ele>492.8</ele>
        <time>2021-10-28 11:17:23</time>
      </trkpt>
      <trkpt lat="43.29795" lon="-3.19569">
        <ele>493</ele>
        <time>2021-10-28 11:17:24</time>
      </trkpt>
      <trkpt lat="43.298" lon="-3.19581">
        <ele>493</ele>
        <time>2021-10-28 11:17:25</time>
      </trkpt>
      <trkpt lat="43.298" lon="-3.19581">
        <ele>493.2</ele>
        <time>2021-10-28 11:17:26</time>
      </trkpt>
      <trkpt lat="43.29799" lon="-3.19582">
        <ele>493.2</ele>
        <time>2021-10-28 11:17:27</time>
      </trkpt>
      <trkpt lat="43.29798" lon="-3.19585">
        <ele>493.2</ele>
        <time>2021-10-28 11:17:28</time>
      </trkpt>
      <trkpt lat="43.29793" lon="-3.19593">
        <ele>493.2</ele>
        <time>2021-10-28 11:17:29</time>
      </trkpt>
      <trkpt lat="43.29793" lon="-3.19593">
        <ele>493.4</ele>
        <time>2021-10-28 11:17:30</time>
      </trkpt>
      <trkpt lat="43.29791" lon="-3.19596">
        <ele>493.4</ele>
        <time>2021-10-28 11:17:31</time>
      </trkpt>
      <trkpt lat="43.29791" lon="-3.19596">
        <ele>493.4</ele>
        <time>2021-10-28 11:17:32</time>
      </trkpt>
      <trkpt lat="43.2979" lon="-3.19598">
        <ele>493.6</ele>
        <time>2021-10-28 11:17:33</time>
      </trkpt>
      <trkpt lat="43.29789" lon="-3.19605">
        <ele>493.6</ele>
        <time>2021-10-28 11:17:34</time>
      </trkpt>
      <trkpt lat="43.29789" lon="-3.19605">
        <ele>493.6</ele>
        <time>2021-10-28 11:17:35</time>
      </trkpt>
      <trkpt lat="43.29789" lon="-3.19605">
        <ele>493.8</ele>
        <time>2021-10-28 11:17:36</time>
      </trkpt>
      <trkpt lat="43.29786" lon="-3.1961">
        <ele>493.8</ele>
        <time>2021-10-28 11:17:37</time>
      </trkpt>
      <trkpt lat="43.29783" lon="-3.19612">
        <ele>493.8</ele>
        <time>2021-10-28 11:17:38</time>
      </trkpt>
      <trkpt lat="43.2978" lon="-3.19617">
        <ele>493.8</ele>
        <time>2021-10-28 11:17:39</time>
      </trkpt>
      <trkpt lat="43.29781" lon="-3.19621">
        <ele>493.8</ele>
        <time>2021-10-28 11:17:40</time>
      </trkpt>
      <trkpt lat="43.29781" lon="-3.19621">
        <ele>493.8</ele>
        <time>2021-10-28 11:17:41</time>
      </trkpt>
      <trkpt lat="43.2978" lon="-3.1963">
        <ele>493.8</ele>
        <time>2021-10-28 11:17:42</time>
      </trkpt>
      <trkpt lat="43.2978" lon="-3.1963">
        <ele>494</ele>
        <time>2021-10-28 11:17:43</time>
      </trkpt>
      <trkpt lat="43.29775" lon="-3.19639">
        <ele>494</ele>
        <time>2021-10-28 11:17:44</time>
      </trkpt>
      <trkpt lat="43.29775" lon="-3.19639">
        <ele>494</ele>
        <time>2021-10-28 11:17:45</time>
      </trkpt>
      <trkpt lat="43.29773" lon="-3.19641">
        <ele>494</ele>
        <time>2021-10-28 11:17:46</time>
      </trkpt>
      <trkpt lat="43.29771" lon="-3.19645">
        <ele>494</ele>
        <time>2021-10-28 11:17:47</time>
      </trkpt>
      <trkpt lat="43.29771" lon="-3.19653">
        <ele>494</ele>
        <time>2021-10-28 11:17:48</time>
      </trkpt>
      <trkpt lat="43.29772" lon="-3.19656">
        <ele>494</ele>
        <time>2021-10-28 11:17:49</time>
      </trkpt>
      <trkpt lat="43.29772" lon="-3.19656">
        <ele>494</ele>
        <time>2021-10-28 11:17:50</time>
      </trkpt>
      <trkpt lat="43.29768" lon="-3.19667">
        <ele>494</ele>
        <time>2021-10-28 11:17:51</time>
      </trkpt>
      <trkpt lat="43.29768" lon="-3.19667">
        <ele>494</ele>
        <time>2021-10-28 11:17:52</time>
      </trkpt>
      <trkpt lat="43.29765" lon="-3.19671">
        <ele>494</ele>
        <time>2021-10-28 11:17:53</time>
      </trkpt>
      <trkpt lat="43.29761" lon="-3.19678">
        <ele>494</ele>
        <time>2021-10-28 11:17:54</time>
      </trkpt>
      <trkpt lat="43.29762" lon="-3.1968">
        <ele>494</ele>
        <time>2021-10-28 11:17:55</time>
      </trkpt>
      <trkpt lat="43.2976" lon="-3.19681">
        <ele>494</ele>
        <time>2021-10-28 11:17:56</time>
      </trkpt>
      <trkpt lat="43.2976" lon="-3.19681">
        <ele>494</ele>
        <time>2021-10-28 11:17:57</time>
      </trkpt>
      <trkpt lat="43.29757" lon="-3.19682">
        <ele>494</ele>
        <time>2021-10-28 11:17:58</time>
      </trkpt>
      <trkpt lat="43.2976" lon="-3.1969">
        <ele>494</ele>
        <time>2021-10-28 11:17:59</time>
      </trkpt>
      <trkpt lat="43.2976" lon="-3.19694">
        <ele>494</ele>
        <time>2021-10-28 11:18:00</time>
      </trkpt>
      <trkpt lat="43.2976" lon="-3.19694">
        <ele>494</ele>
        <time>2021-10-28 11:18:01</time>
      </trkpt>
      <trkpt lat="43.29757" lon="-3.19701">
        <ele>494.2</ele>
        <time>2021-10-28 11:18:02</time>
      </trkpt>
      <trkpt lat="43.29757" lon="-3.19701">
        <ele>494.2</ele>
        <time>2021-10-28 11:18:03</time>
      </trkpt>
      <trkpt lat="43.29757" lon="-3.19701">
        <ele>494.2</ele>
        <time>2021-10-28 11:18:04</time>
      </trkpt>
      <trkpt lat="43.29752" lon="-3.19712">
        <ele>494.2</ele>
        <time>2021-10-28 11:18:05</time>
      </trkpt>
      <trkpt lat="43.29752" lon="-3.19712">
        <ele>494.2</ele>
        <time>2021-10-28 11:18:06</time>
      </trkpt>
      <trkpt lat="43.29751" lon="-3.1972">
        <ele>494.2</ele>
        <time>2021-10-28 11:18:07</time>
      </trkpt>
      <trkpt lat="43.29751" lon="-3.1972">
        <ele>494.4</ele>
        <time>2021-10-28 11:18:08</time>
      </trkpt>
      <trkpt lat="43.29749" lon="-3.19728">
        <ele>494.4</ele>
        <time>2021-10-28 11:18:09</time>
      </trkpt>
      <trkpt lat="43.29749" lon="-3.19728">
        <ele>494.8</ele>
        <time>2021-10-28 11:18:10</time>
      </trkpt>
      <trkpt lat="43.29748" lon="-3.19733">
        <ele>495</ele>
        <time>2021-10-28 11:18:11</time>
      </trkpt>
      <trkpt lat="43.29748" lon="-3.19735">
        <ele>495.2</ele>
        <time>2021-10-28 11:18:12</time>
      </trkpt>
      <trkpt lat="43.29744" lon="-3.19741">
        <ele>495.4</ele>
        <time>2021-10-28 11:18:13</time>
      </trkpt>
      <trkpt lat="43.29744" lon="-3.19741">
        <ele>495.4</ele>
        <time>2021-10-28 11:18:14</time>
      </trkpt>
      <trkpt lat="43.29742" lon="-3.19743">
        <ele>495.4</ele>
        <time>2021-10-28 11:18:15</time>
      </trkpt>
      <trkpt lat="43.2974" lon="-3.19746">
        <ele>495.4</ele>
        <time>2021-10-28 11:18:16</time>
      </trkpt>
      <trkpt lat="43.29738" lon="-3.19747">
        <ele>495.4</ele>
        <time>2021-10-28 11:18:17</time>
      </trkpt>
      <trkpt lat="43.29732" lon="-3.1975">
        <ele>495.4</ele>
        <time>2021-10-28 11:18:18</time>
      </trkpt>
      <trkpt lat="43.29732" lon="-3.1975">
        <ele>495.4</ele>
        <time>2021-10-28 11:18:19</time>
      </trkpt>
      <trkpt lat="43.29726" lon="-3.19751">
        <ele>495.4</ele>
        <time>2021-10-28 11:18:20</time>
      </trkpt>
      <trkpt lat="43.29726" lon="-3.19751">
        <ele>495.4</ele>
        <time>2021-10-28 11:18:21</time>
      </trkpt>
      <trkpt lat="43.29721" lon="-3.19752">
        <ele>495.4</ele>
        <time>2021-10-28 11:18:22</time>
      </trkpt>
      <trkpt lat="43.29721" lon="-3.19752">
        <ele>495.4</ele>
        <time>2021-10-28 11:18:23</time>
      </trkpt>
      <trkpt lat="43.29714" lon="-3.19753">
        <ele>495.4</ele>
        <time>2021-10-28 11:18:24</time>
      </trkpt>
      <trkpt lat="43.29714" lon="-3.19753">
        <ele>495.4</ele>
        <time>2021-10-28 11:18:25</time>
      </trkpt>
      <trkpt lat="43.29714" lon="-3.19753">
        <ele>495.4</ele>
        <time>2021-10-28 11:18:26</time>
      </trkpt>
      <trkpt lat="43.29704" lon="-3.19757">
        <ele>495.6</ele>
        <time>2021-10-28 11:18:27</time>
      </trkpt>
      <trkpt lat="43.29704" lon="-3.19757">
        <ele>495.4</ele>
        <time>2021-10-28 11:18:28</time>
      </trkpt>
      <trkpt lat="43.297" lon="-3.19759">
        <ele>495.4</ele>
        <time>2021-10-28 11:18:29</time>
      </trkpt>
      <trkpt lat="43.297" lon="-3.19759">
        <ele>495.4</ele>
        <time>2021-10-28 11:18:30</time>
      </trkpt>
      <trkpt lat="43.29697" lon="-3.1976">
        <ele>495.4</ele>
        <time>2021-10-28 11:18:31</time>
      </trkpt>
      <trkpt lat="43.29692" lon="-3.19762">
        <ele>495.4</ele>
        <time>2021-10-28 11:18:32</time>
      </trkpt>
      <trkpt lat="43.29688" lon="-3.19763">
        <ele>495.4</ele>
        <time>2021-10-28 11:18:33</time>
      </trkpt>
      <trkpt lat="43.29688" lon="-3.19763">
        <ele>495.6</ele>
        <time>2021-10-28 11:18:34</time>
      </trkpt>
      <trkpt lat="43.2968" lon="-3.19763">
        <ele>495.6</ele>
        <time>2021-10-28 11:18:35</time>
      </trkpt>
      <trkpt lat="43.2968" lon="-3.19763">
        <ele>495.6</ele>
        <time>2021-10-28 11:18:36</time>
      </trkpt>
      <trkpt lat="43.29677" lon="-3.19765">
        <ele>495.8</ele>
        <time>2021-10-28 11:18:37</time>
      </trkpt>
      <trkpt lat="43.29674" lon="-3.19766">
        <ele>495.8</ele>
        <time>2021-10-28 11:18:38</time>
      </trkpt>
      <trkpt lat="43.29669" lon="-3.19765">
        <ele>496</ele>
        <time>2021-10-28 11:18:39</time>
      </trkpt>
      <trkpt lat="43.29664" lon="-3.19767">
        <ele>496</ele>
        <time>2021-10-28 11:18:40</time>
      </trkpt>
      <trkpt lat="43.29664" lon="-3.19767">
        <ele>496</ele>
        <time>2021-10-28 11:18:41</time>
      </trkpt>
      <trkpt lat="43.29653" lon="-3.19772">
        <ele>496</ele>
        <time>2021-10-28 11:18:42</time>
      </trkpt>
      <trkpt lat="43.29653" lon="-3.19772">
        <ele>496</ele>
        <time>2021-10-28 11:18:43</time>
      </trkpt>
      <trkpt lat="43.29653" lon="-3.19772">
        <ele>496</ele>
        <time>2021-10-28 11:18:44</time>
      </trkpt>
      <trkpt lat="43.29649" lon="-3.19779">
        <ele>496</ele>
        <time>2021-10-28 11:18:45</time>
      </trkpt>
      <trkpt lat="43.29647" lon="-3.19783">
        <ele>496</ele>
        <time>2021-10-28 11:18:46</time>
      </trkpt>
      <trkpt lat="43.29647" lon="-3.19783">
        <ele>495.8</ele>
        <time>2021-10-28 11:18:47</time>
      </trkpt>
      <trkpt lat="43.29643" lon="-3.19785">
        <ele>495.8</ele>
        <time>2021-10-28 11:18:48</time>
      </trkpt>
      <trkpt lat="43.29637" lon="-3.19793">
        <ele>495.8</ele>
        <time>2021-10-28 11:18:49</time>
      </trkpt>
      <trkpt lat="43.29634" lon="-3.19798">
        <ele>495.6</ele>
        <time>2021-10-28 11:18:50</time>
      </trkpt>
      <trkpt lat="43.29631" lon="-3.19802">
        <ele>495.6</ele>
        <time>2021-10-28 11:18:51</time>
      </trkpt>
      <trkpt lat="43.29631" lon="-3.19802">
        <ele>495.6</ele>
        <time>2021-10-28 11:18:52</time>
      </trkpt>
      <trkpt lat="43.29626" lon="-3.19809">
        <ele>495.6</ele>
        <time>2021-10-28 11:18:53</time>
      </trkpt>
      <trkpt lat="43.29626" lon="-3.19809">
        <ele>495.6</ele>
        <time>2021-10-28 11:18:54</time>
      </trkpt>
      <trkpt lat="43.29622" lon="-3.19812">
        <ele>495.6</ele>
        <time>2021-10-28 11:18:55</time>
      </trkpt>
      <trkpt lat="43.29618" lon="-3.19816">
        <ele>495.8</ele>
        <time>2021-10-28 11:18:56</time>
      </trkpt>
      <trkpt lat="43.29618" lon="-3.19816">
        <ele>495.8</ele>
        <time>2021-10-28 11:18:57</time>
      </trkpt>
      <trkpt lat="43.29613" lon="-3.19817">
        <ele>495.8</ele>
        <time>2021-10-28 11:18:58</time>
      </trkpt>
      <trkpt lat="43.29611" lon="-3.19818">
        <ele>496</ele>
        <time>2021-10-28 11:18:59</time>
      </trkpt>
      <trkpt lat="43.2961" lon="-3.19822">
        <ele>496</ele>
        <time>2021-10-28 11:19:00</time>
      </trkpt>
      <trkpt lat="43.29607" lon="-3.19825">
        <ele>496.2</ele>
        <time>2021-10-28 11:19:01</time>
      </trkpt>
      <trkpt lat="43.29602" lon="-3.19829">
        <ele>496.2</ele>
        <time>2021-10-28 11:19:02</time>
      </trkpt>
      <trkpt lat="43.29602" lon="-3.19829">
        <ele>496.4</ele>
        <time>2021-10-28 11:19:03</time>
      </trkpt>
      <trkpt lat="43.29599" lon="-3.19831">
        <ele>496.4</ele>
        <time>2021-10-28 11:19:04</time>
      </trkpt>
      <trkpt lat="43.29595" lon="-3.19834">
        <ele>496.4</ele>
        <time>2021-10-28 11:19:05</time>
      </trkpt>
      <trkpt lat="43.29595" lon="-3.19834">
        <ele>496.4</ele>
        <time>2021-10-28 11:19:06</time>
      </trkpt>
      <trkpt lat="43.29589" lon="-3.19836">
        <ele>496.4</ele>
        <time>2021-10-28 11:19:07</time>
      </trkpt>
      <trkpt lat="43.29589" lon="-3.19836">
        <ele>496.4</ele>
        <time>2021-10-28 11:19:08</time>
      </trkpt>
      <trkpt lat="43.29588" lon="-3.19835">
        <ele>496.4</ele>
        <time>2021-10-28 11:19:09</time>
      </trkpt>
      <trkpt lat="43.29585" lon="-3.19837">
        <ele>496.6</ele>
        <time>2021-10-28 11:19:10</time>
      </trkpt>
      <trkpt lat="43.2958" lon="-3.19839">
        <ele>496.6</ele>
        <time>2021-10-28 11:19:11</time>
      </trkpt>
      <trkpt lat="43.2958" lon="-3.19839">
        <ele>496.6</ele>
        <time>2021-10-28 11:19:12</time>
      </trkpt>
      <trkpt lat="43.29573" lon="-3.19839">
        <ele>496.6</ele>
        <time>2021-10-28 11:19:13</time>
      </trkpt>
      <trkpt lat="43.29568" lon="-3.1984">
        <ele>496.6</ele>
        <time>2021-10-28 11:19:14</time>
      </trkpt>
      <trkpt lat="43.29563" lon="-3.1984">
        <ele>496.6</ele>
        <time>2021-10-28 11:19:15</time>
      </trkpt>
      <trkpt lat="43.29563" lon="-3.1984">
        <ele>496.6</ele>
        <time>2021-10-28 11:19:16</time>
      </trkpt>
      <trkpt lat="43.29559" lon="-3.1984">
        <ele>496.6</ele>
        <time>2021-10-28 11:19:17</time>
      </trkpt>
      <trkpt lat="43.29555" lon="-3.1984">
        <ele>496.6</ele>
        <time>2021-10-28 11:19:18</time>
      </trkpt>
      <trkpt lat="43.29549" lon="-3.19841">
        <ele>496.6</ele>
        <time>2021-10-28 11:19:19</time>
      </trkpt>
      <trkpt lat="43.29543" lon="-3.1984">
        <ele>496.6</ele>
        <time>2021-10-28 11:19:20</time>
      </trkpt>
      <trkpt lat="43.29543" lon="-3.1984">
        <ele>496.8</ele>
        <time>2021-10-28 11:19:21</time>
      </trkpt>
      <trkpt lat="43.29543" lon="-3.1984">
        <ele>496.8</ele>
        <time>2021-10-28 11:19:22</time>
      </trkpt>
      <trkpt lat="43.29537" lon="-3.19844">
        <ele>496.8</ele>
        <time>2021-10-28 11:19:23</time>
      </trkpt>
      <trkpt lat="43.29533" lon="-3.19844">
        <ele>497</ele>
        <time>2021-10-28 11:19:24</time>
      </trkpt>
      <trkpt lat="43.29531" lon="-3.19844">
        <ele>497</ele>
        <time>2021-10-28 11:19:25</time>
      </trkpt>
      <trkpt lat="43.29528" lon="-3.19844">
        <ele>497.2</ele>
        <time>2021-10-28 11:19:26</time>
      </trkpt>
      <trkpt lat="43.29523" lon="-3.19845">
        <ele>497.2</ele>
        <time>2021-10-28 11:19:27</time>
      </trkpt>
      <trkpt lat="43.29523" lon="-3.19845">
        <ele>497.2</ele>
        <time>2021-10-28 11:19:28</time>
      </trkpt>
      <trkpt lat="43.29518" lon="-3.19847">
        <ele>497.4</ele>
        <time>2021-10-28 11:19:29</time>
      </trkpt>
      <trkpt lat="43.29518" lon="-3.19847">
        <ele>497.4</ele>
        <time>2021-10-28 11:19:30</time>
      </trkpt>
      <trkpt lat="43.29515" lon="-3.19847">
        <ele>497.6</ele>
        <time>2021-10-28 11:19:31</time>
      </trkpt>
      <trkpt lat="43.29511" lon="-3.19851">
        <ele>497.8</ele>
        <time>2021-10-28 11:19:32</time>
      </trkpt>
      <trkpt lat="43.29506" lon="-3.19853">
        <ele>498</ele>
        <time>2021-10-28 11:19:33</time>
      </trkpt>
      <trkpt lat="43.29506" lon="-3.19853">
        <ele>498.2</ele>
        <time>2021-10-28 11:19:34</time>
      </trkpt>
      <trkpt lat="43.29499" lon="-3.19853">
        <ele>498.4</ele>
        <time>2021-10-28 11:19:35</time>
      </trkpt>
      <trkpt lat="43.29499" lon="-3.19853">
        <ele>498.4</ele>
        <time>2021-10-28 11:19:36</time>
      </trkpt>
      <trkpt lat="43.29497" lon="-3.19855">
        <ele>498.6</ele>
        <time>2021-10-28 11:19:37</time>
      </trkpt>
      <trkpt lat="43.29497" lon="-3.19855">
        <ele>498.6</ele>
        <time>2021-10-28 11:19:38</time>
      </trkpt>
      <trkpt lat="43.29493" lon="-3.19855">
        <ele>498.8</ele>
        <time>2021-10-28 11:19:39</time>
      </trkpt>
      <trkpt lat="43.29484" lon="-3.19859">
        <ele>499</ele>
        <time>2021-10-28 11:19:40</time>
      </trkpt>
      <trkpt lat="43.29484" lon="-3.19859">
        <ele>499.2</ele>
        <time>2021-10-28 11:19:41</time>
      </trkpt>
      <trkpt lat="43.29483" lon="-3.19862">
        <ele>499.2</ele>
        <time>2021-10-28 11:19:42</time>
      </trkpt>
      <trkpt lat="43.29481" lon="-3.19862">
        <ele>499.2</ele>
        <time>2021-10-28 11:19:43</time>
      </trkpt>
      <trkpt lat="43.29476" lon="-3.19862">
        <ele>499.4</ele>
        <time>2021-10-28 11:19:44</time>
      </trkpt>
      <trkpt lat="43.29476" lon="-3.19862">
        <ele>499.4</ele>
        <time>2021-10-28 11:19:45</time>
      </trkpt>
      <trkpt lat="43.29474" lon="-3.19862">
        <ele>499.4</ele>
        <time>2021-10-28 11:19:46</time>
      </trkpt>
      <trkpt lat="43.29466" lon="-3.19863">
        <ele>499.6</ele>
        <time>2021-10-28 11:19:47</time>
      </trkpt>
      <trkpt lat="43.29462" lon="-3.19864">
        <ele>499.6</ele>
        <time>2021-10-28 11:19:48</time>
      </trkpt>
      <trkpt lat="43.29462" lon="-3.19864">
        <ele>499.8</ele>
        <time>2021-10-28 11:19:49</time>
      </trkpt>
      <trkpt lat="43.29458" lon="-3.19865">
        <ele>499.8</ele>
        <time>2021-10-28 11:19:50</time>
      </trkpt>
      <trkpt lat="43.29449" lon="-3.19866">
        <ele>500</ele>
        <time>2021-10-28 11:19:51</time>
      </trkpt>
      <trkpt lat="43.29449" lon="-3.19866">
        <ele>500.2</ele>
        <time>2021-10-28 11:19:52</time>
      </trkpt>
      <trkpt lat="43.29445" lon="-3.19866">
        <ele>500.2</ele>
        <time>2021-10-28 11:19:53</time>
      </trkpt>
      <trkpt lat="43.29442" lon="-3.19866">
        <ele>500.4</ele>
        <time>2021-10-28 11:19:54</time>
      </trkpt>
      <trkpt lat="43.29436" lon="-3.19868">
        <ele>500.6</ele>
        <time>2021-10-28 11:19:55</time>
      </trkpt>
      <trkpt lat="43.29436" lon="-3.19868">
        <ele>500.8</ele>
        <time>2021-10-28 11:19:56</time>
      </trkpt>
      <trkpt lat="43.29434" lon="-3.19868">
        <ele>500.8</ele>
        <time>2021-10-28 11:19:57</time>
      </trkpt>
      <trkpt lat="43.29431" lon="-3.19868">
        <ele>501</ele>
        <time>2021-10-28 11:19:58</time>
      </trkpt>
      <trkpt lat="43.29431" lon="-3.19868">
        <ele>501</ele>
        <time>2021-10-28 11:19:59</time>
      </trkpt>
      <trkpt lat="43.29428" lon="-3.19868">
        <ele>501.2</ele>
        <time>2021-10-28 11:20:00</time>
      </trkpt>
      <trkpt lat="43.29426" lon="-3.19869">
        <ele>501.4</ele>
        <time>2021-10-28 11:20:01</time>
      </trkpt>
      <trkpt lat="43.29423" lon="-3.19869">
        <ele>501.6</ele>
        <time>2021-10-28 11:20:02</time>
      </trkpt>
      <trkpt lat="43.2942" lon="-3.19869">
        <ele>501.8</ele>
        <time>2021-10-28 11:20:03</time>
      </trkpt>
      <trkpt lat="43.29417" lon="-3.19869">
        <ele>502</ele>
        <time>2021-10-28 11:20:04</time>
      </trkpt>
      <trkpt lat="43.29414" lon="-3.1987">
        <ele>502.2</ele>
        <time>2021-10-28 11:20:05</time>
      </trkpt>
      <trkpt lat="43.29407" lon="-3.19872">
        <ele>502.2</ele>
        <time>2021-10-28 11:20:06</time>
      </trkpt>
      <trkpt lat="43.29407" lon="-3.19872">
        <ele>502.2</ele>
        <time>2021-10-28 11:20:07</time>
      </trkpt>
      <trkpt lat="43.29403" lon="-3.19873">
        <ele>502.2</ele>
        <time>2021-10-28 11:20:08</time>
      </trkpt>
      <trkpt lat="43.29395" lon="-3.19875">
        <ele>502</ele>
        <time>2021-10-28 11:20:09</time>
      </trkpt>
      <trkpt lat="43.29395" lon="-3.19875">
        <ele>502</ele>
        <time>2021-10-28 11:20:10</time>
      </trkpt>
      <trkpt lat="43.29392" lon="-3.19875">
        <ele>502</ele>
        <time>2021-10-28 11:20:11</time>
      </trkpt>
      <trkpt lat="43.29389" lon="-3.19877">
        <ele>502.2</ele>
        <time>2021-10-28 11:20:12</time>
      </trkpt>
      <trkpt lat="43.29381" lon="-3.19876">
        <ele>502.4</ele>
        <time>2021-10-28 11:20:13</time>
      </trkpt>
      <trkpt lat="43.29381" lon="-3.19876">
        <ele>502.4</ele>
        <time>2021-10-28 11:20:14</time>
      </trkpt>
      <trkpt lat="43.29373" lon="-3.19878">
        <ele>502.6</ele>
        <time>2021-10-28 11:20:15</time>
      </trkpt>
      <trkpt lat="43.29373" lon="-3.19878">
        <ele>502.6</ele>
        <time>2021-10-28 11:20:16</time>
      </trkpt>
      <trkpt lat="43.2937" lon="-3.19878">
        <ele>502.8</ele>
        <time>2021-10-28 11:20:17</time>
      </trkpt>
      <trkpt lat="43.29366" lon="-3.19879">
        <ele>502.8</ele>
        <time>2021-10-28 11:20:18</time>
      </trkpt>
      <trkpt lat="43.29357" lon="-3.19885">
        <ele>503</ele>
        <time>2021-10-28 11:20:19</time>
      </trkpt>
      <trkpt lat="43.29357" lon="-3.19885">
        <ele>503.2</ele>
        <time>2021-10-28 11:20:20</time>
      </trkpt>
      <trkpt lat="43.2935" lon="-3.19887">
        <ele>503.2</ele>
        <time>2021-10-28 11:20:21</time>
      </trkpt>
      <trkpt lat="43.2935" lon="-3.19887">
        <ele>503.4</ele>
        <time>2021-10-28 11:20:22</time>
      </trkpt>
      <trkpt lat="43.29347" lon="-3.19887">
        <ele>503.4</ele>
        <time>2021-10-28 11:20:23</time>
      </trkpt>
      <trkpt lat="43.29343" lon="-3.19887">
        <ele>503.6</ele>
        <time>2021-10-28 11:20:24</time>
      </trkpt>
      <trkpt lat="43.29339" lon="-3.19888">
        <ele>503.8</ele>
        <time>2021-10-28 11:20:25</time>
      </trkpt>
      <trkpt lat="43.29337" lon="-3.19888">
        <ele>504</ele>
        <time>2021-10-28 11:20:26</time>
      </trkpt>
      <trkpt lat="43.29337" lon="-3.19888">
        <ele>504.2</ele>
        <time>2021-10-28 11:20:27</time>
      </trkpt>
      <trkpt lat="43.29331" lon="-3.19889">
        <ele>504.4</ele>
        <time>2021-10-28 11:20:28</time>
      </trkpt>
      <trkpt lat="43.29331" lon="-3.19889">
        <ele>504.6</ele>
        <time>2021-10-28 11:20:29</time>
      </trkpt>
      <trkpt lat="43.29325" lon="-3.1989">
        <ele>504.6</ele>
        <time>2021-10-28 11:20:30</time>
      </trkpt>
      <trkpt lat="43.29325" lon="-3.1989">
        <ele>504.8</ele>
        <time>2021-10-28 11:20:31</time>
      </trkpt>
      <trkpt lat="43.29325" lon="-3.1989">
        <ele>505</ele>
        <time>2021-10-28 11:20:32</time>
      </trkpt>
      <trkpt lat="43.29316" lon="-3.19888">
        <ele>505</ele>
        <time>2021-10-28 11:20:33</time>
      </trkpt>
      <trkpt lat="43.29316" lon="-3.19888">
        <ele>505</ele>
        <time>2021-10-28 11:20:34</time>
      </trkpt>
      <trkpt lat="43.29309" lon="-3.19888">
        <ele>505.2</ele>
        <time>2021-10-28 11:20:35</time>
      </trkpt>
      <trkpt lat="43.29306" lon="-3.1989">
        <ele>505.2</ele>
        <time>2021-10-28 11:20:36</time>
      </trkpt>
      <trkpt lat="43.29306" lon="-3.1989">
        <ele>505.2</ele>
        <time>2021-10-28 11:20:37</time>
      </trkpt>
      <trkpt lat="43.29298" lon="-3.19891">
        <ele>505.4</ele>
        <time>2021-10-28 11:20:38</time>
      </trkpt>
      <trkpt lat="43.29294" lon="-3.19892">
        <ele>505.4</ele>
        <time>2021-10-28 11:20:39</time>
      </trkpt>
      <trkpt lat="43.29294" lon="-3.19892">
        <ele>505.6</ele>
        <time>2021-10-28 11:20:40</time>
      </trkpt>
      <trkpt lat="43.29286" lon="-3.19894">
        <ele>505.6</ele>
        <time>2021-10-28 11:20:41</time>
      </trkpt>
      <trkpt lat="43.29286" lon="-3.19894">
        <ele>505.8</ele>
        <time>2021-10-28 11:20:42</time>
      </trkpt>
      <trkpt lat="43.2928" lon="-3.199">
        <ele>506</ele>
        <time>2021-10-28 11:20:43</time>
      </trkpt>
      <trkpt lat="43.2928" lon="-3.199">
        <ele>506.2</ele>
        <time>2021-10-28 11:20:44</time>
      </trkpt>
      <trkpt lat="43.29277" lon="-3.19903">
        <ele>506.2</ele>
        <time>2021-10-28 11:20:45</time>
      </trkpt>
      <trkpt lat="43.29274" lon="-3.19908">
        <ele>506.4</ele>
        <time>2021-10-28 11:20:46</time>
      </trkpt>
      <trkpt lat="43.29274" lon="-3.19908">
        <ele>506.4</ele>
        <time>2021-10-28 11:20:47</time>
      </trkpt>
      <trkpt lat="43.29269" lon="-3.19915">
        <ele>506.4</ele>
        <time>2021-10-28 11:20:48</time>
      </trkpt>
      <trkpt lat="43.29269" lon="-3.19915">
        <ele>506.6</ele>
        <time>2021-10-28 11:20:49</time>
      </trkpt>
      <trkpt lat="43.29269" lon="-3.19915">
        <ele>506.6</ele>
        <time>2021-10-28 11:20:50</time>
      </trkpt>
      <trkpt lat="43.29268" lon="-3.19924">
        <ele>506.6</ele>
        <time>2021-10-28 11:20:51</time>
      </trkpt>
      <trkpt lat="43.29266" lon="-3.19928">
        <ele>506.6</ele>
        <time>2021-10-28 11:20:52</time>
      </trkpt>
      <trkpt lat="43.29265" lon="-3.19932">
        <ele>506.6</ele>
        <time>2021-10-28 11:20:53</time>
      </trkpt>
      <trkpt lat="43.29263" lon="-3.19939">
        <ele>506.6</ele>
        <time>2021-10-28 11:20:54</time>
      </trkpt>
      <trkpt lat="43.29262" lon="-3.19945">
        <ele>506.6</ele>
        <time>2021-10-28 11:20:55</time>
      </trkpt>
      <trkpt lat="43.29261" lon="-3.19951">
        <ele>506.6</ele>
        <time>2021-10-28 11:20:56</time>
      </trkpt>
      <trkpt lat="43.29261" lon="-3.19951">
        <ele>506.6</ele>
        <time>2021-10-28 11:20:57</time>
      </trkpt>
      <trkpt lat="43.2926" lon="-3.19955">
        <ele>506.8</ele>
        <time>2021-10-28 11:20:58</time>
      </trkpt>
      <trkpt lat="43.2926" lon="-3.1996">
        <ele>506.8</ele>
        <time>2021-10-28 11:20:59</time>
      </trkpt>
      <trkpt lat="43.2926" lon="-3.19969">
        <ele>506.8</ele>
        <time>2021-10-28 11:21:00</time>
      </trkpt>
      <trkpt lat="43.29258" lon="-3.19974">
        <ele>506.8</ele>
        <time>2021-10-28 11:21:01</time>
      </trkpt>
      <trkpt lat="43.29258" lon="-3.19974">
        <ele>506.8</ele>
        <time>2021-10-28 11:21:02</time>
      </trkpt>
      <trkpt lat="43.29256" lon="-3.19978">
        <ele>507</ele>
        <time>2021-10-28 11:21:03</time>
      </trkpt>
      <trkpt lat="43.29254" lon="-3.19987">
        <ele>507.2</ele>
        <time>2021-10-28 11:21:04</time>
      </trkpt>
      <trkpt lat="43.29253" lon="-3.19992">
        <ele>507.2</ele>
        <time>2021-10-28 11:21:05</time>
      </trkpt>
      <trkpt lat="43.29253" lon="-3.19992">
        <ele>507.4</ele>
        <time>2021-10-28 11:21:06</time>
      </trkpt>
      <trkpt lat="43.29253" lon="-3.19995">
        <ele>507.6</ele>
        <time>2021-10-28 11:21:07</time>
      </trkpt>
      <trkpt lat="43.29252" lon="-3.19999">
        <ele>507.8</ele>
        <time>2021-10-28 11:21:08</time>
      </trkpt>
      <trkpt lat="43.2925" lon="-3.20007">
        <ele>508</ele>
        <time>2021-10-28 11:21:09</time>
      </trkpt>
      <trkpt lat="43.2925" lon="-3.20007">
        <ele>508.2</ele>
        <time>2021-10-28 11:21:10</time>
      </trkpt>
      <trkpt lat="43.29249" lon="-3.20014">
        <ele>508.4</ele>
        <time>2021-10-28 11:21:11</time>
      </trkpt>
      <trkpt lat="43.29246" lon="-3.20017">
        <ele>508.6</ele>
        <time>2021-10-28 11:21:12</time>
      </trkpt>
      <trkpt lat="43.29246" lon="-3.20017">
        <ele>508.6</ele>
        <time>2021-10-28 11:21:13</time>
      </trkpt>
      <trkpt lat="43.29243" lon="-3.20021">
        <ele>508.6</ele>
        <time>2021-10-28 11:21:14</time>
      </trkpt>
      <trkpt lat="43.2924" lon="-3.20025">
        <ele>508.8</ele>
        <time>2021-10-28 11:21:15</time>
      </trkpt>
      <trkpt lat="43.2924" lon="-3.20025">
        <ele>508.8</ele>
        <time>2021-10-28 11:21:16</time>
      </trkpt>
      <trkpt lat="43.29238" lon="-3.20027">
        <ele>509</ele>
        <time>2021-10-28 11:21:17</time>
      </trkpt>
      <trkpt lat="43.29234" lon="-3.20031">
        <ele>509</ele>
        <time>2021-10-28 11:21:18</time>
      </trkpt>
      <trkpt lat="43.29233" lon="-3.20031">
        <ele>509.2</ele>
        <time>2021-10-28 11:21:19</time>
      </trkpt>
      <trkpt lat="43.29233" lon="-3.20031">
        <ele>509.2</ele>
        <time>2021-10-28 11:21:20</time>
      </trkpt>
      <trkpt lat="43.29226" lon="-3.20038">
        <ele>509.4</ele>
        <time>2021-10-28 11:21:21</time>
      </trkpt>
      <trkpt lat="43.29226" lon="-3.20038">
        <ele>509.4</ele>
        <time>2021-10-28 11:21:22</time>
      </trkpt>
      <trkpt lat="43.29223" lon="-3.20042">
        <ele>509.4</ele>
        <time>2021-10-28 11:21:23</time>
      </trkpt>
      <trkpt lat="43.29223" lon="-3.20042">
        <ele>509.4</ele>
        <time>2021-10-28 11:21:24</time>
      </trkpt>
      <trkpt lat="43.29219" lon="-3.20046">
        <ele>509.4</ele>
        <time>2021-10-28 11:21:25</time>
      </trkpt>
      <trkpt lat="43.29219" lon="-3.20046">
        <ele>509.4</ele>
        <time>2021-10-28 11:21:26</time>
      </trkpt>
      <trkpt lat="43.29217" lon="-3.20048">
        <ele>509.4</ele>
        <time>2021-10-28 11:21:27</time>
      </trkpt>
      <trkpt lat="43.29216" lon="-3.20049">
        <ele>509.2</ele>
        <time>2021-10-28 11:21:28</time>
      </trkpt>
      <trkpt lat="43.29211" lon="-3.20052">
        <ele>509.2</ele>
        <time>2021-10-28 11:21:29</time>
      </trkpt>
      <trkpt lat="43.29211" lon="-3.20052">
        <ele>509.2</ele>
        <time>2021-10-28 11:21:30</time>
      </trkpt>
      <trkpt lat="43.2921" lon="-3.20054">
        <ele>509.2</ele>
        <time>2021-10-28 11:21:31</time>
      </trkpt>
      <trkpt lat="43.29208" lon="-3.20055">
        <ele>509.2</ele>
        <time>2021-10-28 11:21:32</time>
      </trkpt>
      <trkpt lat="43.29208" lon="-3.20056">
        <ele>509.2</ele>
        <time>2021-10-28 11:21:33</time>
      </trkpt>
      <trkpt lat="43.29204" lon="-3.2006">
        <ele>509.2</ele>
        <time>2021-10-28 11:21:34</time>
      </trkpt>
      <trkpt lat="43.29204" lon="-3.2006">
        <ele>509.2</ele>
        <time>2021-10-28 11:21:35</time>
      </trkpt>
      <trkpt lat="43.292" lon="-3.20062">
        <ele>509.4</ele>
        <time>2021-10-28 11:21:36</time>
      </trkpt>
      <trkpt lat="43.29194" lon="-3.20064">
        <ele>509.4</ele>
        <time>2021-10-28 11:21:37</time>
      </trkpt>
      <trkpt lat="43.29194" lon="-3.20064">
        <ele>509.4</ele>
        <time>2021-10-28 11:21:38</time>
      </trkpt>
      <trkpt lat="43.29194" lon="-3.20064">
        <ele>509.6</ele>
        <time>2021-10-28 11:21:39</time>
      </trkpt>
      <trkpt lat="43.29185" lon="-3.20063">
        <ele>509.6</ele>
        <time>2021-10-28 11:21:40</time>
      </trkpt>
      <trkpt lat="43.29185" lon="-3.20063">
        <ele>509.8</ele>
        <time>2021-10-28 11:21:41</time>
      </trkpt>
      <trkpt lat="43.29181" lon="-3.20063">
        <ele>510</ele>
        <time>2021-10-28 11:21:42</time>
      </trkpt>
      <trkpt lat="43.2918" lon="-3.20065">
        <ele>510</ele>
        <time>2021-10-28 11:21:43</time>
      </trkpt>
      <trkpt lat="43.29176" lon="-3.20063">
        <ele>510</ele>
        <time>2021-10-28 11:21:44</time>
      </trkpt>
      <trkpt lat="43.29172" lon="-3.20062">
        <ele>510.2</ele>
        <time>2021-10-28 11:21:45</time>
      </trkpt>
      <trkpt lat="43.29172" lon="-3.20062">
        <ele>510.2</ele>
        <time>2021-10-28 11:21:46</time>
      </trkpt>
      <trkpt lat="43.29169" lon="-3.20061">
        <ele>510.4</ele>
        <time>2021-10-28 11:21:47</time>
      </trkpt>
      <trkpt lat="43.29168" lon="-3.20061">
        <ele>510.4</ele>
        <time>2021-10-28 11:21:48</time>
      </trkpt>
      <trkpt lat="43.29167" lon="-3.20061">
        <ele>510.4</ele>
        <time>2021-10-28 11:21:49</time>
      </trkpt>
      <trkpt lat="43.29167" lon="-3.20061">
        <ele>510.4</ele>
        <time>2021-10-28 11:21:50</time>
      </trkpt>
      <trkpt lat="43.29162" lon="-3.20062">
        <ele>510.4</ele>
        <time>2021-10-28 11:21:51</time>
      </trkpt>
      <trkpt lat="43.29157" lon="-3.20065">
        <ele>510.4</ele>
        <time>2021-10-28 11:21:52</time>
      </trkpt>
      <trkpt lat="43.29151" lon="-3.20061">
        <ele>510.6</ele>
        <time>2021-10-28 11:21:53</time>
      </trkpt>
      <trkpt lat="43.29151" lon="-3.20061">
        <ele>510.6</ele>
        <time>2021-10-28 11:21:54</time>
      </trkpt>
      <trkpt lat="43.29144" lon="-3.20062">
        <ele>510.6</ele>
        <time>2021-10-28 11:21:55</time>
      </trkpt>
      <trkpt lat="43.29141" lon="-3.20062">
        <ele>510.4</ele>
        <time>2021-10-28 11:21:56</time>
      </trkpt>
      <trkpt lat="43.29141" lon="-3.20062">
        <ele>510.4</ele>
        <time>2021-10-28 11:21:57</time>
      </trkpt>
      <trkpt lat="43.29141" lon="-3.20062">
        <ele>510.4</ele>
        <time>2021-10-28 11:21:58</time>
      </trkpt>
      <trkpt lat="43.29132" lon="-3.20062">
        <ele>510.4</ele>
        <time>2021-10-28 11:21:59</time>
      </trkpt>
      <trkpt lat="43.29132" lon="-3.20062">
        <ele>510.6</ele>
        <time>2021-10-28 11:22:00</time>
      </trkpt>
      <trkpt lat="43.29129" lon="-3.20063">
        <ele>510.6</ele>
        <time>2021-10-28 11:22:01</time>
      </trkpt>
      <trkpt lat="43.29129" lon="-3.20063">
        <ele>510.6</ele>
        <time>2021-10-28 11:22:02</time>
      </trkpt>
      <trkpt lat="43.29125" lon="-3.20062">
        <ele>510.6</ele>
        <time>2021-10-28 11:22:03</time>
      </trkpt>
      <trkpt lat="43.29125" lon="-3.20062">
        <ele>510.6</ele>
        <time>2021-10-28 11:22:04</time>
      </trkpt>
      <trkpt lat="43.29122" lon="-3.20064">
        <ele>510.6</ele>
        <time>2021-10-28 11:22:05</time>
      </trkpt>
      <trkpt lat="43.29118" lon="-3.20066">
        <ele>510.6</ele>
        <time>2021-10-28 11:22:06</time>
      </trkpt>
      <trkpt lat="43.29116" lon="-3.20065">
        <ele>510.6</ele>
        <time>2021-10-28 11:22:07</time>
      </trkpt>
      <trkpt lat="43.29116" lon="-3.20065">
        <ele>510.6</ele>
        <time>2021-10-28 11:22:08</time>
      </trkpt>
      <trkpt lat="43.29112" lon="-3.20065">
        <ele>510.6</ele>
        <time>2021-10-28 11:22:09</time>
      </trkpt>
      <trkpt lat="43.29109" lon="-3.20066">
        <ele>510.6</ele>
        <time>2021-10-28 11:22:10</time>
      </trkpt>
      <trkpt lat="43.29106" lon="-3.20068">
        <ele>510.8</ele>
        <time>2021-10-28 11:22:11</time>
      </trkpt>
      <trkpt lat="43.29103" lon="-3.20068">
        <ele>510.8</ele>
        <time>2021-10-28 11:22:12</time>
      </trkpt>
      <trkpt lat="43.29101" lon="-3.20069">
        <ele>510.8</ele>
        <time>2021-10-28 11:22:13</time>
      </trkpt>
      <trkpt lat="43.29096" lon="-3.2007">
        <ele>510.8</ele>
        <time>2021-10-28 11:22:14</time>
      </trkpt>
      <trkpt lat="43.29096" lon="-3.2007">
        <ele>511</ele>
        <time>2021-10-28 11:22:15</time>
      </trkpt>
      <trkpt lat="43.29089" lon="-3.20072">
        <ele>511</ele>
        <time>2021-10-28 11:22:16</time>
      </trkpt>
      <trkpt lat="43.29089" lon="-3.20072">
        <ele>511</ele>
        <time>2021-10-28 11:22:17</time>
      </trkpt>
      <trkpt lat="43.29084" lon="-3.20071">
        <ele>511</ele>
        <time>2021-10-28 11:22:18</time>
      </trkpt>
      <trkpt lat="43.29084" lon="-3.20071">
        <ele>511</ele>
        <time>2021-10-28 11:22:19</time>
      </trkpt>
      <trkpt lat="43.29076" lon="-3.20068">
        <ele>511</ele>
        <time>2021-10-28 11:22:20</time>
      </trkpt>
      <trkpt lat="43.29076" lon="-3.20068">
        <ele>511</ele>
        <time>2021-10-28 11:22:21</time>
      </trkpt>
      <trkpt lat="43.29066" lon="-3.20068">
        <ele>511.2</ele>
        <time>2021-10-28 11:22:22</time>
      </trkpt>
      <trkpt lat="43.29066" lon="-3.20068">
        <ele>511.2</ele>
        <time>2021-10-28 11:22:23</time>
      </trkpt>
      <trkpt lat="43.29064" lon="-3.20069">
        <ele>511.2</ele>
        <time>2021-10-28 11:22:24</time>
      </trkpt>
      <trkpt lat="43.29059" lon="-3.20067">
        <ele>511.4</ele>
        <time>2021-10-28 11:22:25</time>
      </trkpt>
      <trkpt lat="43.29056" lon="-3.20065">
        <ele>511.4</ele>
        <time>2021-10-28 11:22:26</time>
      </trkpt>
      <trkpt lat="43.29056" lon="-3.20065">
        <ele>511.6</ele>
        <time>2021-10-28 11:22:27</time>
      </trkpt>
      <trkpt lat="43.29043" lon="-3.20068">
        <ele>511.6</ele>
        <time>2021-10-28 11:22:28</time>
      </trkpt>
      <trkpt lat="43.2904" lon="-3.20068">
        <ele>511.6</ele>
        <time>2021-10-28 11:22:29</time>
      </trkpt>
      <trkpt lat="43.2904" lon="-3.20068">
        <ele>511.6</ele>
        <time>2021-10-28 11:22:30</time>
      </trkpt>
      <trkpt lat="43.29039" lon="-3.20069">
        <ele>511.6</ele>
        <time>2021-10-28 11:22:31</time>
      </trkpt>
      <trkpt lat="43.29039" lon="-3.20069">
        <ele>511.6</ele>
        <time>2021-10-28 11:22:32</time>
      </trkpt>
      <trkpt lat="43.29034" lon="-3.20068">
        <ele>511.8</ele>
        <time>2021-10-28 11:22:33</time>
      </trkpt>
      <trkpt lat="43.29028" lon="-3.20066">
        <ele>511.8</ele>
        <time>2021-10-28 11:22:34</time>
      </trkpt>
      <trkpt lat="43.29028" lon="-3.20066">
        <ele>511.8</ele>
        <time>2021-10-28 11:22:35</time>
      </trkpt>
      <trkpt lat="43.29025" lon="-3.20068">
        <ele>511.8</ele>
        <time>2021-10-28 11:22:36</time>
      </trkpt>
      <trkpt lat="43.29025" lon="-3.20068">
        <ele>511.8</ele>
        <time>2021-10-28 11:22:37</time>
      </trkpt>
      <trkpt lat="43.2902" lon="-3.20067">
        <ele>511.8</ele>
        <time>2021-10-28 11:22:38</time>
      </trkpt>
      <trkpt lat="43.2902" lon="-3.20067">
        <ele>511.8</ele>
        <time>2021-10-28 11:22:39</time>
      </trkpt>
      <trkpt lat="43.29013" lon="-3.2007">
        <ele>511.8</ele>
        <time>2021-10-28 11:22:40</time>
      </trkpt>
      <trkpt lat="43.29013" lon="-3.2007">
        <ele>511.8</ele>
        <time>2021-10-28 11:22:41</time>
      </trkpt>
      <trkpt lat="43.2901" lon="-3.20072">
        <ele>511.8</ele>
        <time>2021-10-28 11:22:42</time>
      </trkpt>
      <trkpt lat="43.29007" lon="-3.20077">
        <ele>511.8</ele>
        <time>2021-10-28 11:22:43</time>
      </trkpt>
      <trkpt lat="43.29007" lon="-3.20077">
        <ele>512</ele>
        <time>2021-10-28 11:22:44</time>
      </trkpt>
      <trkpt lat="43.28996" lon="-3.20077">
        <ele>512</ele>
        <time>2021-10-28 11:22:45</time>
      </trkpt>
      <trkpt lat="43.28996" lon="-3.20077">
        <ele>512</ele>
        <time>2021-10-28 11:22:46</time>
      </trkpt>
      <trkpt lat="43.28993" lon="-3.20076">
        <ele>512</ele>
        <time>2021-10-28 11:22:47</time>
      </trkpt>
      <trkpt lat="43.28993" lon="-3.20075">
        <ele>512.2</ele>
        <time>2021-10-28 11:22:48</time>
      </trkpt>
      <trkpt lat="43.28984" lon="-3.20075">
        <ele>512.2</ele>
        <time>2021-10-28 11:22:49</time>
      </trkpt>
      <trkpt lat="43.28984" lon="-3.20075">
        <ele>512.4</ele>
        <time>2021-10-28 11:22:50</time>
      </trkpt>
      <trkpt lat="43.28979" lon="-3.20074">
        <ele>512.4</ele>
        <time>2021-10-28 11:22:51</time>
      </trkpt>
      <trkpt lat="43.28977" lon="-3.20073">
        <ele>512.6</ele>
        <time>2021-10-28 11:22:52</time>
      </trkpt>
      <trkpt lat="43.28977" lon="-3.20073">
        <ele>512.6</ele>
        <time>2021-10-28 11:22:53</time>
      </trkpt>
      <trkpt lat="43.28974" lon="-3.20074">
        <ele>512.6</ele>
        <time>2021-10-28 11:22:54</time>
      </trkpt>
      <trkpt lat="43.28974" lon="-3.20074">
        <ele>512.8</ele>
        <time>2021-10-28 11:22:55</time>
      </trkpt>
      <trkpt lat="43.2897" lon="-3.20074">
        <ele>512.8</ele>
        <time>2021-10-28 11:22:56</time>
      </trkpt>
      <trkpt lat="43.28966" lon="-3.20074">
        <ele>512.8</ele>
        <time>2021-10-28 11:22:57</time>
      </trkpt>
      <trkpt lat="43.28959" lon="-3.20073">
        <ele>512.8</ele>
        <time>2021-10-28 11:22:58</time>
      </trkpt>
      <trkpt lat="43.28953" lon="-3.20074">
        <ele>512.8</ele>
        <time>2021-10-28 11:22:59</time>
      </trkpt>
      <trkpt lat="43.28953" lon="-3.20074">
        <ele>512.8</ele>
        <time>2021-10-28 11:23:00</time>
      </trkpt>
      <trkpt lat="43.28951" lon="-3.20074">
        <ele>513</ele>
        <time>2021-10-28 11:23:01</time>
      </trkpt>
      <trkpt lat="43.28944" lon="-3.20071">
        <ele>513</ele>
        <time>2021-10-28 11:23:02</time>
      </trkpt>
      <trkpt lat="43.28944" lon="-3.20071">
        <ele>513.2</ele>
        <time>2021-10-28 11:23:03</time>
      </trkpt>
      <trkpt lat="43.28937" lon="-3.20066">
        <ele>513.2</ele>
        <time>2021-10-28 11:23:04</time>
      </trkpt>
      <trkpt lat="43.28937" lon="-3.20066">
        <ele>513.2</ele>
        <time>2021-10-28 11:23:05</time>
      </trkpt>
      <trkpt lat="43.28935" lon="-3.20062">
        <ele>513.2</ele>
        <time>2021-10-28 11:23:06</time>
      </trkpt>
      <trkpt lat="43.28933" lon="-3.20059">
        <ele>513.2</ele>
        <time>2021-10-28 11:23:07</time>
      </trkpt>
      <trkpt lat="43.28928" lon="-3.2005">
        <ele>513.4</ele>
        <time>2021-10-28 11:23:08</time>
      </trkpt>
      <trkpt lat="43.28928" lon="-3.2005">
        <ele>513.4</ele>
        <time>2021-10-28 11:23:09</time>
      </trkpt>
      <trkpt lat="43.28921" lon="-3.20044">
        <ele>513.6</ele>
        <time>2021-10-28 11:23:10</time>
      </trkpt>
      <trkpt lat="43.28921" lon="-3.20044">
        <ele>513.6</ele>
        <time>2021-10-28 11:23:11</time>
      </trkpt>
      <trkpt lat="43.28919" lon="-3.20039">
        <ele>513.8</ele>
        <time>2021-10-28 11:23:12</time>
      </trkpt>
      <trkpt lat="43.28915" lon="-3.20033">
        <ele>513.8</ele>
        <time>2021-10-28 11:23:13</time>
      </trkpt>
      <trkpt lat="43.28915" lon="-3.20033">
        <ele>513.8</ele>
        <time>2021-10-28 11:23:14</time>
      </trkpt>
      <trkpt lat="43.28912" lon="-3.20026">
        <ele>514</ele>
        <time>2021-10-28 11:23:15</time>
      </trkpt>
      <trkpt lat="43.28912" lon="-3.20026">
        <ele>514</ele>
        <time>2021-10-28 11:23:16</time>
      </trkpt>
      <trkpt lat="43.28908" lon="-3.20018">
        <ele>514.2</ele>
        <time>2021-10-28 11:23:17</time>
      </trkpt>
      <trkpt lat="43.28908" lon="-3.20018">
        <ele>514.2</ele>
        <time>2021-10-28 11:23:18</time>
      </trkpt>
      <trkpt lat="43.28904" lon="-3.20011">
        <ele>514.2</ele>
        <time>2021-10-28 11:23:19</time>
      </trkpt>
      <trkpt lat="43.28901" lon="-3.20008">
        <ele>514.2</ele>
        <time>2021-10-28 11:23:20</time>
      </trkpt>
      <trkpt lat="43.28901" lon="-3.20008">
        <ele>514.2</ele>
        <time>2021-10-28 11:23:21</time>
      </trkpt>
      <trkpt lat="43.28893" lon="-3.20002">
        <ele>514.2</ele>
        <time>2021-10-28 11:23:22</time>
      </trkpt>
      <trkpt lat="43.28893" lon="-3.20002">
        <ele>514.2</ele>
        <time>2021-10-28 11:23:23</time>
      </trkpt>
      <trkpt lat="43.28893" lon="-3.20002">
        <ele>514.2</ele>
        <time>2021-10-28 11:23:24</time>
      </trkpt>
      <trkpt lat="43.28888" lon="-3.19994">
        <ele>514.2</ele>
        <time>2021-10-28 11:23:25</time>
      </trkpt>
      <trkpt lat="43.28883" lon="-3.19986">
        <ele>514.2</ele>
        <time>2021-10-28 11:23:26</time>
      </trkpt>
      <trkpt lat="43.28883" lon="-3.19986">
        <ele>514.2</ele>
        <time>2021-10-28 11:23:27</time>
      </trkpt>
      <trkpt lat="43.28882" lon="-3.19982">
        <ele>514.2</ele>
        <time>2021-10-28 11:23:28</time>
      </trkpt>
      <trkpt lat="43.28878" lon="-3.19974">
        <ele>514.4</ele>
        <time>2021-10-28 11:23:29</time>
      </trkpt>
      <trkpt lat="43.28875" lon="-3.19971">
        <ele>514.6</ele>
        <time>2021-10-28 11:23:30</time>
      </trkpt>
      <trkpt lat="43.28875" lon="-3.19971">
        <ele>514.8</ele>
        <time>2021-10-28 11:23:31</time>
      </trkpt>
      <trkpt lat="43.28871" lon="-3.19965">
        <ele>514.8</ele>
        <time>2021-10-28 11:23:32</time>
      </trkpt>
      <trkpt lat="43.28871" lon="-3.1996">
        <ele>514.8</ele>
        <time>2021-10-28 11:23:33</time>
      </trkpt>
      <trkpt lat="43.28871" lon="-3.1996">
        <ele>514.8</ele>
        <time>2021-10-28 11:23:34</time>
      </trkpt>
      <trkpt lat="43.28868" lon="-3.19954">
        <ele>515</ele>
        <time>2021-10-28 11:23:35</time>
      </trkpt>
      <trkpt lat="43.28868" lon="-3.19954">
        <ele>515</ele>
        <time>2021-10-28 11:23:36</time>
      </trkpt>
      <trkpt lat="43.28862" lon="-3.19948">
        <ele>515</ele>
        <time>2021-10-28 11:23:37</time>
      </trkpt>
      <trkpt lat="43.28862" lon="-3.19948">
        <ele>515.2</ele>
        <time>2021-10-28 11:23:38</time>
      </trkpt>
      <trkpt lat="43.28862" lon="-3.19948">
        <ele>515.2</ele>
        <time>2021-10-28 11:23:39</time>
      </trkpt>
      <trkpt lat="43.28854" lon="-3.19942">
        <ele>515.4</ele>
        <time>2021-10-28 11:23:40</time>
      </trkpt>
      <trkpt lat="43.28852" lon="-3.19935">
        <ele>515.8</ele>
        <time>2021-10-28 11:23:41</time>
      </trkpt>
      <trkpt lat="43.28848" lon="-3.19932">
        <ele>515.8</ele>
        <time>2021-10-28 11:23:42</time>
      </trkpt>
      <trkpt lat="43.28848" lon="-3.19932">
        <ele>516</ele>
        <time>2021-10-28 11:23:43</time>
      </trkpt>
      <trkpt lat="43.28844" lon="-3.19924">
        <ele>516.2</ele>
        <time>2021-10-28 11:23:44</time>
      </trkpt>
      <trkpt lat="43.28844" lon="-3.19924">
        <ele>516.4</ele>
        <time>2021-10-28 11:23:45</time>
      </trkpt>
      <trkpt lat="43.28843" lon="-3.19921">
        <ele>516.4</ele>
        <time>2021-10-28 11:23:46</time>
      </trkpt>
      <trkpt lat="43.28839" lon="-3.19917">
        <ele>516.4</ele>
        <time>2021-10-28 11:23:47</time>
      </trkpt>
      <trkpt lat="43.28838" lon="-3.19913">
        <ele>516.4</ele>
        <time>2021-10-28 11:23:48</time>
      </trkpt>
      <trkpt lat="43.28834" lon="-3.19912">
        <ele>516.4</ele>
        <time>2021-10-28 11:23:49</time>
      </trkpt>
      <trkpt lat="43.28831" lon="-3.19906">
        <ele>516.4</ele>
        <time>2021-10-28 11:23:50</time>
      </trkpt>
      <trkpt lat="43.28831" lon="-3.19906">
        <ele>516.4</ele>
        <time>2021-10-28 11:23:51</time>
      </trkpt>
      <trkpt lat="43.28827" lon="-3.19902">
        <ele>516.6</ele>
        <time>2021-10-28 11:23:52</time>
      </trkpt>
      <trkpt lat="43.28825" lon="-3.19898">
        <ele>516.6</ele>
        <time>2021-10-28 11:23:53</time>
      </trkpt>
      <trkpt lat="43.28825" lon="-3.19898">
        <ele>516.8</ele>
        <time>2021-10-28 11:23:54</time>
      </trkpt>
      <trkpt lat="43.28819" lon="-3.19892">
        <ele>516.8</ele>
        <time>2021-10-28 11:23:55</time>
      </trkpt>
      <trkpt lat="43.28819" lon="-3.19892">
        <ele>516.8</ele>
        <time>2021-10-28 11:23:56</time>
      </trkpt>
      <trkpt lat="43.28815" lon="-3.19891">
        <ele>516.8</ele>
        <time>2021-10-28 11:23:57</time>
      </trkpt>
      <trkpt lat="43.28814" lon="-3.19889">
        <ele>516.8</ele>
        <time>2021-10-28 11:23:58</time>
      </trkpt>
      <trkpt lat="43.28809" lon="-3.19885">
        <ele>516.8</ele>
        <time>2021-10-28 11:23:59</time>
      </trkpt>
      <trkpt lat="43.28809" lon="-3.19885">
        <ele>516.8</ele>
        <time>2021-10-28 11:24:00</time>
      </trkpt>
      <trkpt lat="43.28805" lon="-3.19881">
        <ele>516.8</ele>
        <time>2021-10-28 11:24:01</time>
      </trkpt>
      <trkpt lat="43.28799" lon="-3.19879">
        <ele>516.8</ele>
        <time>2021-10-28 11:24:02</time>
      </trkpt>
      <trkpt lat="43.28799" lon="-3.19879">
        <ele>516.8</ele>
        <time>2021-10-28 11:24:03</time>
      </trkpt>
      <trkpt lat="43.28799" lon="-3.19879">
        <ele>516.8</ele>
        <time>2021-10-28 11:24:04</time>
      </trkpt>
      <trkpt lat="43.28788" lon="-3.19876">
        <ele>516.8</ele>
        <time>2021-10-28 11:24:05</time>
      </trkpt>
      <trkpt lat="43.28788" lon="-3.19876">
        <ele>517</ele>
        <time>2021-10-28 11:24:06</time>
      </trkpt>
      <trkpt lat="43.2878" lon="-3.19876">
        <ele>517</ele>
        <time>2021-10-28 11:24:07</time>
      </trkpt>
      <trkpt lat="43.2878" lon="-3.19876">
        <ele>517</ele>
        <time>2021-10-28 11:24:08</time>
      </trkpt>
      <trkpt lat="43.28778" lon="-3.19876">
        <ele>517</ele>
        <time>2021-10-28 11:24:09</time>
      </trkpt>
      <trkpt lat="43.28778" lon="-3.19876">
        <ele>517.2</ele>
        <time>2021-10-28 11:24:10</time>
      </trkpt>
      <trkpt lat="43.28774" lon="-3.19876">
        <ele>517.2</ele>
        <time>2021-10-28 11:24:11</time>
      </trkpt>
      <trkpt lat="43.28774" lon="-3.19876">
        <ele>517.2</ele>
        <time>2021-10-28 11:24:12</time>
      </trkpt>
      <trkpt lat="43.28767" lon="-3.19874">
        <ele>517.2</ele>
        <time>2021-10-28 11:24:13</time>
      </trkpt>
      <trkpt lat="43.28767" lon="-3.19874">
        <ele>517.2</ele>
        <time>2021-10-28 11:24:14</time>
      </trkpt>
      <trkpt lat="43.28765" lon="-3.19873">
        <ele>517.2</ele>
        <time>2021-10-28 11:24:15</time>
      </trkpt>
      <trkpt lat="43.28765" lon="-3.19873">
        <ele>517.2</ele>
        <time>2021-10-28 11:24:16</time>
      </trkpt>
      <trkpt lat="43.28762" lon="-3.19872">
        <ele>517.4</ele>
        <time>2021-10-28 11:24:17</time>
      </trkpt>
      <trkpt lat="43.28759" lon="-3.19876">
        <ele>517.4</ele>
        <time>2021-10-28 11:24:18</time>
      </trkpt>
      <trkpt lat="43.28759" lon="-3.19876">
        <ele>517.4</ele>
        <time>2021-10-28 11:24:19</time>
      </trkpt>
      <trkpt lat="43.28757" lon="-3.19876">
        <ele>517.4</ele>
        <time>2021-10-28 11:24:20</time>
      </trkpt>
      <trkpt lat="43.28754" lon="-3.19877">
        <ele>517.6</ele>
        <time>2021-10-28 11:24:21</time>
      </trkpt>
      <trkpt lat="43.28752" lon="-3.19878">
        <ele>517.6</ele>
        <time>2021-10-28 11:24:22</time>
      </trkpt>
      <trkpt lat="43.2875" lon="-3.19879">
        <ele>517.6</ele>
        <time>2021-10-28 11:24:23</time>
      </trkpt>
      <trkpt lat="43.28746" lon="-3.19882">
        <ele>517.6</ele>
        <time>2021-10-28 11:24:24</time>
      </trkpt>
      <trkpt lat="43.28743" lon="-3.19883">
        <ele>517.8</ele>
        <time>2021-10-28 11:24:25</time>
      </trkpt>
      <trkpt lat="43.28738" lon="-3.19883">
        <ele>517.8</ele>
        <time>2021-10-28 11:24:26</time>
      </trkpt>
      <trkpt lat="43.28738" lon="-3.19883">
        <ele>518</ele>
        <time>2021-10-28 11:24:27</time>
      </trkpt>
      <trkpt lat="43.28735" lon="-3.19885">
        <ele>518</ele>
        <time>2021-10-28 11:24:28</time>
      </trkpt>
      <trkpt lat="43.28735" lon="-3.19885">
        <ele>518.2</ele>
        <time>2021-10-28 11:24:29</time>
      </trkpt>
      <trkpt lat="43.2873" lon="-3.19887">
        <ele>518.4</ele>
        <time>2021-10-28 11:24:30</time>
      </trkpt>
      <trkpt lat="43.2873" lon="-3.19887">
        <ele>518.6</ele>
        <time>2021-10-28 11:24:31</time>
      </trkpt>
      <trkpt lat="43.28726" lon="-3.1989">
        <ele>518.8</ele>
        <time>2021-10-28 11:24:32</time>
      </trkpt>
      <trkpt lat="43.28722" lon="-3.19891">
        <ele>518.8</ele>
        <time>2021-10-28 11:24:33</time>
      </trkpt>
      <trkpt lat="43.28722" lon="-3.19891">
        <ele>519</ele>
        <time>2021-10-28 11:24:34</time>
      </trkpt>
      <trkpt lat="43.28723" lon="-3.19894">
        <ele>519</ele>
        <time>2021-10-28 11:24:35</time>
      </trkpt>
      <trkpt lat="43.28716" lon="-3.19898">
        <ele>519</ele>
        <time>2021-10-28 11:24:36</time>
      </trkpt>
      <trkpt lat="43.28716" lon="-3.19898">
        <ele>519.2</ele>
        <time>2021-10-28 11:24:37</time>
      </trkpt>
      <trkpt lat="43.28714" lon="-3.199">
        <ele>519.4</ele>
        <time>2021-10-28 11:24:38</time>
      </trkpt>
      <trkpt lat="43.28712" lon="-3.19905">
        <ele>519.4</ele>
        <time>2021-10-28 11:24:39</time>
      </trkpt>
      <trkpt lat="43.28712" lon="-3.19905">
        <ele>519.6</ele>
        <time>2021-10-28 11:24:40</time>
      </trkpt>
      <trkpt lat="43.28708" lon="-3.19905">
        <ele>519.6</ele>
        <time>2021-10-28 11:24:41</time>
      </trkpt>
      <trkpt lat="43.28708" lon="-3.19905">
        <ele>519.6</ele>
        <time>2021-10-28 11:24:42</time>
      </trkpt>
      <trkpt lat="43.28698" lon="-3.19905">
        <ele>519.6</ele>
        <time>2021-10-28 11:24:43</time>
      </trkpt>
      <trkpt lat="43.28693" lon="-3.19909">
        <ele>519.4</ele>
        <time>2021-10-28 11:24:44</time>
      </trkpt>
      <trkpt lat="43.28693" lon="-3.19909">
        <ele>519.4</ele>
        <time>2021-10-28 11:24:45</time>
      </trkpt>
      <trkpt lat="43.28693" lon="-3.19914">
        <ele>519.2</ele>
        <time>2021-10-28 11:24:46</time>
      </trkpt>
      <trkpt lat="43.28689" lon="-3.19917">
        <ele>519.2</ele>
        <time>2021-10-28 11:24:47</time>
      </trkpt>
      <trkpt lat="43.28687" lon="-3.19922">
        <ele>519.2</ele>
        <time>2021-10-28 11:24:48</time>
      </trkpt>
      <trkpt lat="43.2868" lon="-3.19933">
        <ele>519</ele>
        <time>2021-10-28 11:24:49</time>
      </trkpt>
      <trkpt lat="43.2868" lon="-3.19933">
        <ele>519</ele>
        <time>2021-10-28 11:24:50</time>
      </trkpt>
      <trkpt lat="43.28676" lon="-3.19937">
        <ele>519</ele>
        <time>2021-10-28 11:24:51</time>
      </trkpt>
      <trkpt lat="43.28676" lon="-3.19937">
        <ele>519</ele>
        <time>2021-10-28 11:24:52</time>
      </trkpt>
      <trkpt lat="43.28672" lon="-3.1994">
        <ele>519</ele>
        <time>2021-10-28 11:24:53</time>
      </trkpt>
      <trkpt lat="43.28672" lon="-3.1994">
        <ele>519</ele>
        <time>2021-10-28 11:24:54</time>
      </trkpt>
      <trkpt lat="43.28665" lon="-3.19948">
        <ele>519</ele>
        <time>2021-10-28 11:24:55</time>
      </trkpt>
      <trkpt lat="43.28665" lon="-3.19948">
        <ele>519</ele>
        <time>2021-10-28 11:24:56</time>
      </trkpt>
      <trkpt lat="43.28665" lon="-3.19948">
        <ele>519</ele>
        <time>2021-10-28 11:24:57</time>
      </trkpt>
      <trkpt lat="43.28661" lon="-3.19954">
        <ele>519.2</ele>
        <time>2021-10-28 11:24:58</time>
      </trkpt>
      <trkpt lat="43.28659" lon="-3.19956">
        <ele>519.2</ele>
        <time>2021-10-28 11:24:59</time>
      </trkpt>
      <trkpt lat="43.28654" lon="-3.19961">
        <ele>519.2</ele>
        <time>2021-10-28 11:25:00</time>
      </trkpt>
      <trkpt lat="43.28654" lon="-3.19961">
        <ele>519.2</ele>
        <time>2021-10-28 11:25:01</time>
      </trkpt>
      <trkpt lat="43.2865" lon="-3.19962">
        <ele>519.4</ele>
        <time>2021-10-28 11:25:02</time>
      </trkpt>
      <trkpt lat="43.2865" lon="-3.19964">
        <ele>519.4</ele>
        <time>2021-10-28 11:25:03</time>
      </trkpt>
      <trkpt lat="43.28645" lon="-3.1997">
        <ele>519.6</ele>
        <time>2021-10-28 11:25:04</time>
      </trkpt>
      <trkpt lat="43.28645" lon="-3.1997">
        <ele>519.6</ele>
        <time>2021-10-28 11:25:05</time>
      </trkpt>
      <trkpt lat="43.28641" lon="-3.19973">
        <ele>519.6</ele>
        <time>2021-10-28 11:25:06</time>
      </trkpt>
      <trkpt lat="43.2864" lon="-3.19975">
        <ele>519.6</ele>
        <time>2021-10-28 11:25:07</time>
      </trkpt>
      <trkpt lat="43.28637" lon="-3.19978">
        <ele>519.8</ele>
        <time>2021-10-28 11:25:08</time>
      </trkpt>
      <trkpt lat="43.28637" lon="-3.19978">
        <ele>519.8</ele>
        <time>2021-10-28 11:25:09</time>
      </trkpt>
      <trkpt lat="43.28629" lon="-3.19983">
        <ele>519.8</ele>
        <time>2021-10-28 11:25:10</time>
      </trkpt>
      <trkpt lat="43.28629" lon="-3.19983">
        <ele>520</ele>
        <time>2021-10-28 11:25:11</time>
      </trkpt>
      <trkpt lat="43.28622" lon="-3.19988">
        <ele>520</ele>
        <time>2021-10-28 11:25:12</time>
      </trkpt>
      <trkpt lat="43.28622" lon="-3.19988">
        <ele>520</ele>
        <time>2021-10-28 11:25:13</time>
      </trkpt>
      <trkpt lat="43.28617" lon="-3.19993">
        <ele>520.2</ele>
        <time>2021-10-28 11:25:14</time>
      </trkpt>
      <trkpt lat="43.28613" lon="-3.19998">
        <ele>520.2</ele>
        <time>2021-10-28 11:25:15</time>
      </trkpt>
      <trkpt lat="43.28613" lon="-3.19998">
        <ele>520.4</ele>
        <time>2021-10-28 11:25:16</time>
      </trkpt>
      <trkpt lat="43.2861" lon="-3.20002">
        <ele>520.4</ele>
        <time>2021-10-28 11:25:17</time>
      </trkpt>
      <trkpt lat="43.28607" lon="-3.20004">
        <ele>520.4</ele>
        <time>2021-10-28 11:25:18</time>
      </trkpt>
      <trkpt lat="43.28607" lon="-3.20004">
        <ele>520.6</ele>
        <time>2021-10-28 11:25:19</time>
      </trkpt>
      <trkpt lat="43.286" lon="-3.20011">
        <ele>520.6</ele>
        <time>2021-10-28 11:25:20</time>
      </trkpt>
      <trkpt lat="43.28597" lon="-3.20013">
        <ele>520.8</ele>
        <time>2021-10-28 11:25:21</time>
      </trkpt>
      <trkpt lat="43.28597" lon="-3.20013">
        <ele>520.8</ele>
        <time>2021-10-28 11:25:22</time>
      </trkpt>
      <trkpt lat="43.28594" lon="-3.20017">
        <ele>520.8</ele>
        <time>2021-10-28 11:25:23</time>
      </trkpt>
      <trkpt lat="43.28592" lon="-3.20019">
        <ele>521</ele>
        <time>2021-10-28 11:25:24</time>
      </trkpt>
      <trkpt lat="43.28588" lon="-3.20024">
        <ele>521</ele>
        <time>2021-10-28 11:25:25</time>
      </trkpt>
      <trkpt lat="43.28588" lon="-3.20024">
        <ele>521.2</ele>
        <time>2021-10-28 11:25:26</time>
      </trkpt>
      <trkpt lat="43.28586" lon="-3.20033">
        <ele>521.2</ele>
        <time>2021-10-28 11:25:27</time>
      </trkpt>
      <trkpt lat="43.28586" lon="-3.20036">
        <ele>521.2</ele>
        <time>2021-10-28 11:25:28</time>
      </trkpt>
      <trkpt lat="43.28585" lon="-3.20039">
        <ele>521.2</ele>
        <time>2021-10-28 11:25:29</time>
      </trkpt>
      <trkpt lat="43.28585" lon="-3.20039">
        <ele>521.4</ele>
        <time>2021-10-28 11:25:30</time>
      </trkpt>
      <trkpt lat="43.28584" lon="-3.20049">
        <ele>521.4</ele>
        <time>2021-10-28 11:25:31</time>
      </trkpt>
      <trkpt lat="43.28583" lon="-3.20052">
        <ele>521.2</ele>
        <time>2021-10-28 11:25:32</time>
      </trkpt>
      <trkpt lat="43.28581" lon="-3.20059">
        <ele>521.2</ele>
        <time>2021-10-28 11:25:33</time>
      </trkpt>
      <trkpt lat="43.28581" lon="-3.20059">
        <ele>521.2</ele>
        <time>2021-10-28 11:25:34</time>
      </trkpt>
      <trkpt lat="43.28577" lon="-3.20067">
        <ele>521.2</ele>
        <time>2021-10-28 11:25:35</time>
      </trkpt>
      <trkpt lat="43.28577" lon="-3.20067">
        <ele>521.4</ele>
        <time>2021-10-28 11:25:36</time>
      </trkpt>
      <trkpt lat="43.28577" lon="-3.20069">
        <ele>521.4</ele>
        <time>2021-10-28 11:25:37</time>
      </trkpt>
      <trkpt lat="43.28577" lon="-3.20072">
        <ele>521.4</ele>
        <time>2021-10-28 11:25:38</time>
      </trkpt>
      <trkpt lat="43.28575" lon="-3.20074">
        <ele>521.4</ele>
        <time>2021-10-28 11:25:39</time>
      </trkpt>
      <trkpt lat="43.28575" lon="-3.20074">
        <ele>521.4</ele>
        <time>2021-10-28 11:25:40</time>
      </trkpt>
      <trkpt lat="43.28576" lon="-3.20077">
        <ele>521.4</ele>
        <time>2021-10-28 11:25:41</time>
      </trkpt>
      <trkpt lat="43.28576" lon="-3.20078">
        <ele>521.4</ele>
        <time>2021-10-28 11:25:42</time>
      </trkpt>
      <trkpt lat="43.28575" lon="-3.2008">
        <ele>521.4</ele>
        <time>2021-10-28 11:25:43</time>
      </trkpt>
      <trkpt lat="43.28574" lon="-3.20084">
        <ele>521.4</ele>
        <time>2021-10-28 11:25:44</time>
      </trkpt>
      <trkpt lat="43.28574" lon="-3.20084">
        <ele>521.4</ele>
        <time>2021-10-28 11:25:45</time>
      </trkpt>
      <trkpt lat="43.28568" lon="-3.20089">
        <ele>521.4</ele>
        <time>2021-10-28 11:25:46</time>
      </trkpt>
      <trkpt lat="43.28568" lon="-3.20089">
        <ele>521.6</ele>
        <time>2021-10-28 11:25:47</time>
      </trkpt>
      <trkpt lat="43.28568" lon="-3.2009">
        <ele>521.6</ele>
        <time>2021-10-28 11:25:48</time>
      </trkpt>
      <trkpt lat="43.28568" lon="-3.20091">
        <ele>521.6</ele>
        <time>2021-10-28 11:25:49</time>
      </trkpt>
      <trkpt lat="43.28568" lon="-3.20091">
        <ele>521.6</ele>
        <time>2021-10-28 11:25:50</time>
      </trkpt>
      <trkpt lat="43.28569" lon="-3.20092">
        <ele>521.6</ele>
        <time>2021-10-28 11:25:51</time>
      </trkpt>
      <trkpt lat="43.28569" lon="-3.20095">
        <ele>521.6</ele>
        <time>2021-10-28 11:25:52</time>
      </trkpt>
      <trkpt lat="43.28569" lon="-3.20095">
        <ele>521.6</ele>
        <time>2021-10-28 11:25:53</time>
      </trkpt>
      <trkpt lat="43.28584" lon="-3.20091">
        <ele>522</ele>
        <time>2021-10-28 11:25:54</time>
      </trkpt>
      <trkpt lat="43.28584" lon="-3.20091">
        <ele>522.2</ele>
        <time>2021-10-28 11:25:55</time>
      </trkpt>
      <trkpt lat="43.28585" lon="-3.20089">
        <ele>522.4</ele>
        <time>2021-10-28 11:25:56</time>
      </trkpt>
      <trkpt lat="43.28586" lon="-3.20087">
        <ele>522.8</ele>
        <time>2021-10-28 11:25:57</time>
      </trkpt>
      <trkpt lat="43.28589" lon="-3.20087">
        <ele>523</ele>
        <time>2021-10-28 11:25:58</time>
      </trkpt>
      <trkpt lat="43.2859" lon="-3.20082">
        <ele>523.2</ele>
        <time>2021-10-28 11:25:59</time>
      </trkpt>
      <trkpt lat="43.2859" lon="-3.20082">
        <ele>523.4</ele>
        <time>2021-10-28 11:26:00</time>
      </trkpt>
      <trkpt lat="43.2859" lon="-3.2008">
        <ele>523.8</ele>
        <time>2021-10-28 11:26:01</time>
      </trkpt>
      <trkpt lat="43.2859" lon="-3.2008">
        <ele>524</ele>
        <time>2021-10-28 11:26:02</time>
      </trkpt>
      <trkpt lat="43.2859" lon="-3.2008">
        <ele>524.2</ele>
        <time>2021-10-28 11:26:03</time>
      </trkpt>
      <trkpt lat="43.28591" lon="-3.20075">
        <ele>524.4</ele>
        <time>2021-10-28 11:26:04</time>
      </trkpt>
      <trkpt lat="43.28593" lon="-3.20073">
        <ele>524.6</ele>
        <time>2021-10-28 11:26:05</time>
      </trkpt>
      <trkpt lat="43.28593" lon="-3.20073">
        <ele>524.8</ele>
        <time>2021-10-28 11:26:06</time>
      </trkpt>
      <trkpt lat="43.28599" lon="-3.20069">
        <ele>525</ele>
        <time>2021-10-28 11:26:07</time>
      </trkpt>
      <trkpt lat="43.28599" lon="-3.20069">
        <ele>525.2</ele>
        <time>2021-10-28 11:26:08</time>
      </trkpt>
      <trkpt lat="43.28603" lon="-3.20066">
        <ele>525.2</ele>
        <time>2021-10-28 11:26:09</time>
      </trkpt>
      <trkpt lat="43.28606" lon="-3.20064">
        <ele>525.4</ele>
        <time>2021-10-28 11:26:10</time>
      </trkpt>
      <trkpt lat="43.28606" lon="-3.20064">
        <ele>525.6</ele>
        <time>2021-10-28 11:26:11</time>
      </trkpt>
      <trkpt lat="43.28606" lon="-3.20064">
        <ele>525.8</ele>
        <time>2021-10-28 11:26:12</time>
      </trkpt>
      <trkpt lat="43.2861" lon="-3.20063">
        <ele>526</ele>
        <time>2021-10-28 11:26:13</time>
      </trkpt>
      <trkpt lat="43.2861" lon="-3.20063">
        <ele>526.2</ele>
        <time>2021-10-28 11:26:14</time>
      </trkpt>
      <trkpt lat="43.28612" lon="-3.20064">
        <ele>526.4</ele>
        <time>2021-10-28 11:26:22</time>
      </trkpt>
      <trkpt lat="43.28612" lon="-3.20065">
        <ele>526.4</ele>
        <time>2021-10-28 11:26:23</time>
      </trkpt>
      <trkpt lat="43.28614" lon="-3.20065">
        <ele>526.6</ele>
        <time>2021-10-28 11:26:24</time>
      </trkpt>
      <trkpt lat="43.28614" lon="-3.20065">
        <ele>526.8</ele>
        <time>2021-10-28 11:26:25</time>
      </trkpt>
      <trkpt lat="43.28616" lon="-3.20066">
        <ele>526.8</ele>
        <time>2021-10-28 11:26:26</time>
      </trkpt>
      <trkpt lat="43.28616" lon="-3.20066">
        <ele>527</ele>
        <time>2021-10-28 11:26:27</time>
      </trkpt>
      <trkpt lat="43.28617" lon="-3.20067">
        <ele>527.2</ele>
        <time>2021-10-28 11:26:28</time>
      </trkpt>
      <trkpt lat="43.28617" lon="-3.20067">
        <ele>527.4</ele>
        <time>2021-10-28 11:26:29</time>
      </trkpt>
      <trkpt lat="43.28621" lon="-3.20068">
        <ele>527.6</ele>
        <time>2021-10-28 11:26:30</time>
      </trkpt>
      <trkpt lat="43.28621" lon="-3.20068">
        <ele>527.8</ele>
        <time>2021-10-28 11:26:31</time>
      </trkpt>
      <trkpt lat="43.28626" lon="-3.20071">
        <ele>527.8</ele>
        <time>2021-10-28 11:26:32</time>
      </trkpt>
      <trkpt lat="43.28629" lon="-3.2007">
        <ele>528</ele>
        <time>2021-10-28 11:26:33</time>
      </trkpt>
      <trkpt lat="43.28629" lon="-3.2007">
        <ele>528.2</ele>
        <time>2021-10-28 11:26:34</time>
      </trkpt>
      <trkpt lat="43.28632" lon="-3.20072">
        <ele>528.2</ele>
        <time>2021-10-28 11:26:35</time>
      </trkpt>
      <trkpt lat="43.28632" lon="-3.20072">
        <ele>528.4</ele>
        <time>2021-10-28 11:26:36</time>
      </trkpt>
      <trkpt lat="43.28637" lon="-3.20076">
        <ele>528.4</ele>
        <time>2021-10-28 11:26:37</time>
      </trkpt>
      <trkpt lat="43.28637" lon="-3.20076">
        <ele>528.6</ele>
        <time>2021-10-28 11:26:38</time>
      </trkpt>
      <trkpt lat="43.28637" lon="-3.20076">
        <ele>528.6</ele>
        <time>2021-10-28 11:26:39</time>
      </trkpt>
      <trkpt lat="43.28641" lon="-3.20075">
        <ele>528.8</ele>
        <time>2021-10-28 11:26:40</time>
      </trkpt>
      <trkpt lat="43.28641" lon="-3.20075">
        <ele>528.8</ele>
        <time>2021-10-28 11:26:41</time>
      </trkpt>
      <trkpt lat="43.28644" lon="-3.20077">
        <ele>528.8</ele>
        <time>2021-10-28 11:26:42</time>
      </trkpt>
      <trkpt lat="43.28644" lon="-3.20077">
        <ele>529</ele>
        <time>2021-10-28 11:26:43</time>
      </trkpt>
      <trkpt lat="43.28647" lon="-3.20077">
        <ele>529</ele>
        <time>2021-10-28 11:26:44</time>
      </trkpt>
      <trkpt lat="43.28647" lon="-3.20077">
        <ele>529.2</ele>
        <time>2021-10-28 11:26:45</time>
      </trkpt>
      <trkpt lat="43.28653" lon="-3.20078">
        <ele>529.2</ele>
        <time>2021-10-28 11:26:46</time>
      </trkpt>
      <trkpt lat="43.28653" lon="-3.20078">
        <ele>529.4</ele>
        <time>2021-10-28 11:26:47</time>
      </trkpt>
      <trkpt lat="43.28654" lon="-3.20079">
        <ele>529.4</ele>
        <time>2021-10-28 11:26:48</time>
      </trkpt>
      <trkpt lat="43.28654" lon="-3.20079">
        <ele>529.6</ele>
        <time>2021-10-28 11:26:49</time>
      </trkpt>
      <trkpt lat="43.28657" lon="-3.20078">
        <ele>529.8</ele>
        <time>2021-10-28 11:26:50</time>
      </trkpt>
      <trkpt lat="43.28657" lon="-3.20078">
        <ele>530</ele>
        <time>2021-10-28 11:26:51</time>
      </trkpt>
      <trkpt lat="43.28661" lon="-3.20077">
        <ele>530</ele>
        <time>2021-10-28 11:26:52</time>
      </trkpt>
      <trkpt lat="43.28661" lon="-3.20077">
        <ele>530.2</ele>
        <time>2021-10-28 11:26:53</time>
      </trkpt>
      <trkpt lat="43.28664" lon="-3.20074">
        <ele>530.2</ele>
        <time>2021-10-28 11:26:54</time>
      </trkpt>
      <trkpt lat="43.28664" lon="-3.20074">
        <ele>530.4</ele>
        <time>2021-10-28 11:26:55</time>
      </trkpt>
      <trkpt lat="43.28666" lon="-3.2007">
        <ele>530.6</ele>
        <time>2021-10-28 11:26:56</time>
      </trkpt>
      <trkpt lat="43.28666" lon="-3.20065">
        <ele>530.8</ele>
        <time>2021-10-28 11:26:57</time>
      </trkpt>
      <trkpt lat="43.28666" lon="-3.20065">
        <ele>530.8</ele>
        <time>2021-10-28 11:26:58</time>
      </trkpt>
      <trkpt lat="43.28666" lon="-3.20065">
        <ele>531</ele>
        <time>2021-10-28 11:26:59</time>
      </trkpt>
      <trkpt lat="43.28667" lon="-3.20059">
        <ele>531.2</ele>
        <time>2021-10-28 11:27:00</time>
      </trkpt>
      <trkpt lat="43.28667" lon="-3.20057">
        <ele>531.6</ele>
        <time>2021-10-28 11:27:01</time>
      </trkpt>
      <trkpt lat="43.28667" lon="-3.20057">
        <ele>531.8</ele>
        <time>2021-10-28 11:27:02</time>
      </trkpt>
      <trkpt lat="43.28665" lon="-3.20054">
        <ele>532</ele>
        <time>2021-10-28 11:27:03</time>
      </trkpt>
      <trkpt lat="43.28666" lon="-3.20053">
        <ele>532.2</ele>
        <time>2021-10-28 11:27:04</time>
      </trkpt>
      <trkpt lat="43.28666" lon="-3.20051">
        <ele>532.2</ele>
        <time>2021-10-28 11:27:05</time>
      </trkpt>
      <trkpt lat="43.28666" lon="-3.20045">
        <ele>532.4</ele>
        <time>2021-10-28 11:27:06</time>
      </trkpt>
      <trkpt lat="43.28666" lon="-3.20045">
        <ele>532.6</ele>
        <time>2021-10-28 11:27:07</time>
      </trkpt>
      <trkpt lat="43.28668" lon="-3.20042">
        <ele>532.8</ele>
        <time>2021-10-28 11:27:08</time>
      </trkpt>
      <trkpt lat="43.28668" lon="-3.2004">
        <ele>532.8</ele>
        <time>2021-10-28 11:27:09</time>
      </trkpt>
      <trkpt lat="43.2867" lon="-3.20036">
        <ele>533</ele>
        <time>2021-10-28 11:27:10</time>
      </trkpt>
      <trkpt lat="43.2867" lon="-3.20036">
        <ele>533</ele>
        <time>2021-10-28 11:27:11</time>
      </trkpt>
      <trkpt lat="43.28672" lon="-3.20032">
        <ele>533.2</ele>
        <time>2021-10-28 11:27:12</time>
      </trkpt>
      <trkpt lat="43.28672" lon="-3.20032">
        <ele>533.2</ele>
        <time>2021-10-28 11:27:13</time>
      </trkpt>
      <trkpt lat="43.28674" lon="-3.20028">
        <ele>533.2</ele>
        <time>2021-10-28 11:27:14</time>
      </trkpt>
      <trkpt lat="43.28674" lon="-3.20028">
        <ele>533.4</ele>
        <time>2021-10-28 11:27:15</time>
      </trkpt>
      <trkpt lat="43.28674" lon="-3.20023">
        <ele>533.6</ele>
        <time>2021-10-28 11:27:16</time>
      </trkpt>
      <trkpt lat="43.28676" lon="-3.20019">
        <ele>533.8</ele>
        <time>2021-10-28 11:27:17</time>
      </trkpt>
      <trkpt lat="43.28676" lon="-3.20019">
        <ele>534</ele>
        <time>2021-10-28 11:27:18</time>
      </trkpt>
      <trkpt lat="43.28679" lon="-3.20014">
        <ele>534.2</ele>
        <time>2021-10-28 11:27:19</time>
      </trkpt>
      <trkpt lat="43.28679" lon="-3.20014">
        <ele>534.4</ele>
        <time>2021-10-28 11:27:20</time>
      </trkpt>
      <trkpt lat="43.28682" lon="-3.20011">
        <ele>534.6</ele>
        <time>2021-10-28 11:27:21</time>
      </trkpt>
      <trkpt lat="43.28682" lon="-3.20011">
        <ele>534.8</ele>
        <time>2021-10-28 11:27:22</time>
      </trkpt>
      <trkpt lat="43.28686" lon="-3.20008">
        <ele>534.8</ele>
        <time>2021-10-28 11:27:23</time>
      </trkpt>
      <trkpt lat="43.28689" lon="-3.20008">
        <ele>535</ele>
        <time>2021-10-28 11:27:24</time>
      </trkpt>
      <trkpt lat="43.28689" lon="-3.20008">
        <ele>535.2</ele>
        <time>2021-10-28 11:27:25</time>
      </trkpt>
      <trkpt lat="43.28693" lon="-3.20005">
        <ele>535.2</ele>
        <time>2021-10-28 11:27:26</time>
      </trkpt>
      <trkpt lat="43.28693" lon="-3.20005">
        <ele>535.4</ele>
        <time>2021-10-28 11:27:27</time>
      </trkpt>
      <trkpt lat="43.28695" lon="-3.20004">
        <ele>535.4</ele>
        <time>2021-10-28 11:27:28</time>
      </trkpt>
      <trkpt lat="43.28695" lon="-3.20004">
        <ele>535.4</ele>
        <time>2021-10-28 11:27:29</time>
      </trkpt>
      <trkpt lat="43.28698" lon="-3.20003">
        <ele>535.4</ele>
        <time>2021-10-28 11:27:30</time>
      </trkpt>
      <trkpt lat="43.287" lon="-3.20002">
        <ele>535.4</ele>
        <time>2021-10-28 11:27:31</time>
      </trkpt>
      <trkpt lat="43.287" lon="-3.20002">
        <ele>535.4</ele>
        <time>2021-10-28 11:27:32</time>
      </trkpt>
      <trkpt lat="43.28704" lon="-3.19999">
        <ele>535.4</ele>
        <time>2021-10-28 11:27:33</time>
      </trkpt>
      <trkpt lat="43.28705" lon="-3.19999">
        <ele>535.6</ele>
        <time>2021-10-28 11:27:34</time>
      </trkpt>
      <trkpt lat="43.28705" lon="-3.19999">
        <ele>535.6</ele>
        <time>2021-10-28 11:27:35</time>
      </trkpt>
      <trkpt lat="43.28708" lon="-3.19998">
        <ele>535.6</ele>
        <time>2021-10-28 11:27:36</time>
      </trkpt>
      <trkpt lat="43.2871" lon="-3.19995">
        <ele>535.6</ele>
        <time>2021-10-28 11:27:37</time>
      </trkpt>
      <trkpt lat="43.2871" lon="-3.19995">
        <ele>535.8</ele>
        <time>2021-10-28 11:27:38</time>
      </trkpt>
      <trkpt lat="43.2871" lon="-3.19995">
        <ele>536</ele>
        <time>2021-10-28 11:27:39</time>
      </trkpt>
      <trkpt lat="43.2871" lon="-3.19995">
        <ele>536.2</ele>
        <time>2021-10-28 11:27:40</time>
      </trkpt>
      <trkpt lat="43.28713" lon="-3.19994">
        <ele>536.4</ele>
        <time>2021-10-28 11:27:41</time>
      </trkpt>
      <trkpt lat="43.28716" lon="-3.19994">
        <ele>536.6</ele>
        <time>2021-10-28 11:27:42</time>
      </trkpt>
      <trkpt lat="43.28717" lon="-3.19992">
        <ele>536.8</ele>
        <time>2021-10-28 11:27:43</time>
      </trkpt>
      <trkpt lat="43.28717" lon="-3.19992">
        <ele>537.2</ele>
        <time>2021-10-28 11:27:44</time>
      </trkpt>
      <trkpt lat="43.28721" lon="-3.19988">
        <ele>537.6</ele>
        <time>2021-10-28 11:27:45</time>
      </trkpt>
      <trkpt lat="43.28721" lon="-3.19988">
        <ele>537.8</ele>
        <time>2021-10-28 11:27:46</time>
      </trkpt>
      <trkpt lat="43.28725" lon="-3.19986">
        <ele>538.2</ele>
        <time>2021-10-28 11:27:47</time>
      </trkpt>
      <trkpt lat="43.28725" lon="-3.19986">
        <ele>538.4</ele>
        <time>2021-10-28 11:27:48</time>
      </trkpt>
      <trkpt lat="43.28728" lon="-3.19984">
        <ele>538.6</ele>
        <time>2021-10-28 11:27:49</time>
      </trkpt>
      <trkpt lat="43.28728" lon="-3.19984">
        <ele>539</ele>
        <time>2021-10-28 11:27:50</time>
      </trkpt>
      <trkpt lat="43.28733" lon="-3.19983">
        <ele>539.2</ele>
        <time>2021-10-28 11:27:51</time>
      </trkpt>
      <trkpt lat="43.28733" lon="-3.19983">
        <ele>539.6</ele>
        <time>2021-10-28 11:27:52</time>
      </trkpt>
      <trkpt lat="43.28737" lon="-3.19983">
        <ele>539.8</ele>
        <time>2021-10-28 11:27:53</time>
      </trkpt>
      <trkpt lat="43.28737" lon="-3.19983">
        <ele>539.8</ele>
        <time>2021-10-28 11:27:54</time>
      </trkpt>
      <trkpt lat="43.28742" lon="-3.19984">
        <ele>540</ele>
        <time>2021-10-28 11:27:55</time>
      </trkpt>
      <trkpt lat="43.28742" lon="-3.19984">
        <ele>540.2</ele>
        <time>2021-10-28 11:27:56</time>
      </trkpt>
      <trkpt lat="43.28748" lon="-3.19988">
        <ele>540.4</ele>
        <time>2021-10-28 11:27:57</time>
      </trkpt>
      <trkpt lat="43.28748" lon="-3.19988">
        <ele>540.8</ele>
        <time>2021-10-28 11:27:58</time>
      </trkpt>
      <trkpt lat="43.28748" lon="-3.19988">
        <ele>540.8</ele>
        <time>2021-10-28 11:27:59</time>
      </trkpt>
      <trkpt lat="43.2875" lon="-3.19992">
        <ele>541</ele>
        <time>2021-10-28 11:28:00</time>
      </trkpt>
      <trkpt lat="43.28751" lon="-3.19992">
        <ele>541</ele>
        <time>2021-10-28 11:28:01</time>
      </trkpt>
      <trkpt lat="43.28751" lon="-3.19992">
        <ele>541</ele>
        <time>2021-10-28 11:28:02</time>
      </trkpt>
      <trkpt lat="43.28754" lon="-3.19992">
        <ele>541</ele>
        <time>2021-10-28 11:28:03</time>
      </trkpt>
      <trkpt lat="43.28756" lon="-3.19993">
        <ele>541.4</ele>
        <time>2021-10-28 11:28:04</time>
      </trkpt>
      <trkpt lat="43.28761" lon="-3.19994">
        <ele>541.6</ele>
        <time>2021-10-28 11:28:05</time>
      </trkpt>
      <trkpt lat="43.28761" lon="-3.19994">
        <ele>541.8</ele>
        <time>2021-10-28 11:28:06</time>
      </trkpt>
      <trkpt lat="43.28762" lon="-3.19994">
        <ele>542</ele>
        <time>2021-10-28 11:28:07</time>
      </trkpt>
      <trkpt lat="43.28768" lon="-3.2">
        <ele>542.2</ele>
        <time>2021-10-28 11:28:08</time>
      </trkpt>
      <trkpt lat="43.28768" lon="-3.2">
        <ele>542.2</ele>
        <time>2021-10-28 11:28:09</time>
      </trkpt>
      <trkpt lat="43.28768" lon="-3.2">
        <ele>542.4</ele>
        <time>2021-10-28 11:28:10</time>
      </trkpt>
      <trkpt lat="43.28773" lon="-3.20003">
        <ele>542.4</ele>
        <time>2021-10-28 11:28:11</time>
      </trkpt>
      <trkpt lat="43.28773" lon="-3.20003">
        <ele>542.6</ele>
        <time>2021-10-28 11:28:12</time>
      </trkpt>
      <trkpt lat="43.28775" lon="-3.20006">
        <ele>542.6</ele>
        <time>2021-10-28 11:28:13</time>
      </trkpt>
      <trkpt lat="43.28775" lon="-3.20006">
        <ele>542.8</ele>
        <time>2021-10-28 11:28:14</time>
      </trkpt>
      <trkpt lat="43.28778" lon="-3.20008">
        <ele>542.8</ele>
        <time>2021-10-28 11:28:15</time>
      </trkpt>
      <trkpt lat="43.28778" lon="-3.20008">
        <ele>543</ele>
        <time>2021-10-28 11:28:16</time>
      </trkpt>
      <trkpt lat="43.28782" lon="-3.2001">
        <ele>543.2</ele>
        <time>2021-10-28 11:28:17</time>
      </trkpt>
      <trkpt lat="43.28782" lon="-3.2001">
        <ele>543.6</ele>
        <time>2021-10-28 11:28:18</time>
      </trkpt>
      <trkpt lat="43.28785" lon="-3.20009">
        <ele>544</ele>
        <time>2021-10-28 11:28:19</time>
      </trkpt>
      <trkpt lat="43.28785" lon="-3.20009">
        <ele>544.2</ele>
        <time>2021-10-28 11:28:20</time>
      </trkpt>
      <trkpt lat="43.28785" lon="-3.20012">
        <ele>544.6</ele>
        <time>2021-10-28 11:28:21</time>
      </trkpt>
      <trkpt lat="43.28787" lon="-3.20013">
        <ele>544.8</ele>
        <time>2021-10-28 11:28:22</time>
      </trkpt>
      <trkpt lat="43.28787" lon="-3.20013">
        <ele>545</ele>
        <time>2021-10-28 11:28:23</time>
      </trkpt>
      <trkpt lat="43.28791" lon="-3.20016">
        <ele>545.2</ele>
        <time>2021-10-28 11:28:24</time>
      </trkpt>
      <trkpt lat="43.28791" lon="-3.20016">
        <ele>545.4</ele>
        <time>2021-10-28 11:28:25</time>
      </trkpt>
      <trkpt lat="43.28794" lon="-3.20018">
        <ele>545.4</ele>
        <time>2021-10-28 11:28:26</time>
      </trkpt>
      <trkpt lat="43.28794" lon="-3.20018">
        <ele>545.6</ele>
        <time>2021-10-28 11:28:27</time>
      </trkpt>
      <trkpt lat="43.28798" lon="-3.20022">
        <ele>545.6</ele>
        <time>2021-10-28 11:28:28</time>
      </trkpt>
      <trkpt lat="43.28798" lon="-3.20022">
        <ele>545.8</ele>
        <time>2021-10-28 11:28:29</time>
      </trkpt>
      <trkpt lat="43.288" lon="-3.20026">
        <ele>546</ele>
        <time>2021-10-28 11:28:30</time>
      </trkpt>
      <trkpt lat="43.288" lon="-3.20026">
        <ele>546</ele>
        <time>2021-10-28 11:28:31</time>
      </trkpt>
      <trkpt lat="43.288" lon="-3.20026">
        <ele>546.2</ele>
        <time>2021-10-28 11:28:32</time>
      </trkpt>
      <trkpt lat="43.28803" lon="-3.20029">
        <ele>546.2</ele>
        <time>2021-10-28 11:28:33</time>
      </trkpt>
      <trkpt lat="43.28805" lon="-3.20032">
        <ele>546.4</ele>
        <time>2021-10-28 11:28:34</time>
      </trkpt>
      <trkpt lat="43.28805" lon="-3.20032">
        <ele>546.6</ele>
        <time>2021-10-28 11:28:35</time>
      </trkpt>
      <trkpt lat="43.28808" lon="-3.20036">
        <ele>546.8</ele>
        <time>2021-10-28 11:28:36</time>
      </trkpt>
      <trkpt lat="43.28811" lon="-3.20037">
        <ele>547</ele>
        <time>2021-10-28 11:28:37</time>
      </trkpt>
      <trkpt lat="43.28811" lon="-3.20037">
        <ele>547.2</ele>
        <time>2021-10-28 11:28:38</time>
      </trkpt>
      <trkpt lat="43.28811" lon="-3.20037">
        <ele>547.2</ele>
        <time>2021-10-28 11:28:39</time>
      </trkpt>
      <trkpt lat="43.28813" lon="-3.20045">
        <ele>547.4</ele>
        <time>2021-10-28 11:28:40</time>
      </trkpt>
      <trkpt lat="43.28813" lon="-3.20045">
        <ele>547.4</ele>
        <time>2021-10-28 11:28:41</time>
      </trkpt>
      <trkpt lat="43.28815" lon="-3.2005">
        <ele>547.4</ele>
        <time>2021-10-28 11:28:42</time>
      </trkpt>
      <trkpt lat="43.28815" lon="-3.2005">
        <ele>547.4</ele>
        <time>2021-10-28 11:28:43</time>
      </trkpt>
      <trkpt lat="43.28814" lon="-3.20055">
        <ele>547.6</ele>
        <time>2021-10-28 11:28:44</time>
      </trkpt>
      <trkpt lat="43.28815" lon="-3.20056">
        <ele>547.6</ele>
        <time>2021-10-28 11:28:45</time>
      </trkpt>
      <trkpt lat="43.28817" lon="-3.20059">
        <ele>547.8</ele>
        <time>2021-10-28 11:28:46</time>
      </trkpt>
      <trkpt lat="43.28817" lon="-3.20059">
        <ele>548</ele>
        <time>2021-10-28 11:28:47</time>
      </trkpt>
      <trkpt lat="43.28818" lon="-3.20061">
        <ele>548.2</ele>
        <time>2021-10-28 11:28:48</time>
      </trkpt>
      <trkpt lat="43.28818" lon="-3.20061">
        <ele>548.4</ele>
        <time>2021-10-28 11:28:49</time>
      </trkpt>
      <trkpt lat="43.28819" lon="-3.20065">
        <ele>548.6</ele>
        <time>2021-10-28 11:28:50</time>
      </trkpt>
      <trkpt lat="43.28819" lon="-3.20065">
        <ele>549</ele>
        <time>2021-10-28 11:28:51</time>
      </trkpt>
      <trkpt lat="43.28819" lon="-3.20065">
        <ele>549</ele>
        <time>2021-10-28 11:28:52</time>
      </trkpt>
      <trkpt lat="43.28821" lon="-3.20069">
        <ele>549</ele>
        <time>2021-10-28 11:28:53</time>
      </trkpt>
      <trkpt lat="43.28822" lon="-3.20073">
        <ele>549</ele>
        <time>2021-10-28 11:28:54</time>
      </trkpt>
      <trkpt lat="43.28822" lon="-3.20073">
        <ele>549</ele>
        <time>2021-10-28 11:28:55</time>
      </trkpt>
      <trkpt lat="43.28822" lon="-3.20073">
        <ele>549</ele>
        <time>2021-10-28 11:28:56</time>
      </trkpt>
      <trkpt lat="43.28829" lon="-3.20081">
        <ele>549.2</ele>
        <time>2021-10-28 11:28:57</time>
      </trkpt>
      <trkpt lat="43.28829" lon="-3.20081">
        <ele>549.4</ele>
        <time>2021-10-28 11:28:58</time>
      </trkpt>
      <trkpt lat="43.28829" lon="-3.20083">
        <ele>549.4</ele>
        <time>2021-10-28 11:28:59</time>
      </trkpt>
      <trkpt lat="43.28829" lon="-3.20083">
        <ele>549.4</ele>
        <time>2021-10-28 11:29:00</time>
      </trkpt>
      <trkpt lat="43.28829" lon="-3.20087">
        <ele>549.4</ele>
        <time>2021-10-28 11:29:01</time>
      </trkpt>
      <trkpt lat="43.28829" lon="-3.20087">
        <ele>549.6</ele>
        <time>2021-10-28 11:29:02</time>
      </trkpt>
      <trkpt lat="43.28829" lon="-3.20089">
        <ele>549.6</ele>
        <time>2021-10-28 11:29:03</time>
      </trkpt>
      <trkpt lat="43.28831" lon="-3.20093">
        <ele>549.8</ele>
        <time>2021-10-28 11:29:04</time>
      </trkpt>
      <trkpt lat="43.28832" lon="-3.20097">
        <ele>550</ele>
        <time>2021-10-28 11:29:05</time>
      </trkpt>
      <trkpt lat="43.28834" lon="-3.20101">
        <ele>550</ele>
        <time>2021-10-28 11:29:06</time>
      </trkpt>
      <trkpt lat="43.28834" lon="-3.20101">
        <ele>550</ele>
        <time>2021-10-28 11:29:07</time>
      </trkpt>
      <trkpt lat="43.28834" lon="-3.20101">
        <ele>550.2</ele>
        <time>2021-10-28 11:29:08</time>
      </trkpt>
      <trkpt lat="43.28836" lon="-3.20107">
        <ele>550.2</ele>
        <time>2021-10-28 11:29:09</time>
      </trkpt>
      <trkpt lat="43.28836" lon="-3.20108">
        <ele>550.4</ele>
        <time>2021-10-28 11:29:10</time>
      </trkpt>
      <trkpt lat="43.28836" lon="-3.20108">
        <ele>550.4</ele>
        <time>2021-10-28 11:29:11</time>
      </trkpt>
      <trkpt lat="43.28836" lon="-3.2011">
        <ele>550.6</ele>
        <time>2021-10-28 11:29:12</time>
      </trkpt>
      <trkpt lat="43.28837" lon="-3.20115">
        <ele>550.8</ele>
        <time>2021-10-28 11:29:13</time>
      </trkpt>
      <trkpt lat="43.28837" lon="-3.20115">
        <ele>551</ele>
        <time>2021-10-28 11:29:14</time>
      </trkpt>
      <trkpt lat="43.28839" lon="-3.20117">
        <ele>551.4</ele>
        <time>2021-10-28 11:29:15</time>
      </trkpt>
      <trkpt lat="43.2884" lon="-3.20122">
        <ele>551.6</ele>
        <time>2021-10-28 11:29:16</time>
      </trkpt>
      <trkpt lat="43.2884" lon="-3.20122">
        <ele>551.8</ele>
        <time>2021-10-28 11:29:17</time>
      </trkpt>
      <trkpt lat="43.28841" lon="-3.20128">
        <ele>552</ele>
        <time>2021-10-28 11:29:18</time>
      </trkpt>
      <trkpt lat="43.28841" lon="-3.20128">
        <ele>552.4</ele>
        <time>2021-10-28 11:29:19</time>
      </trkpt>
      <trkpt lat="43.28842" lon="-3.2013">
        <ele>552.6</ele>
        <time>2021-10-28 11:29:20</time>
      </trkpt>
      <trkpt lat="43.28841" lon="-3.20133">
        <ele>552.8</ele>
        <time>2021-10-28 11:29:21</time>
      </trkpt>
      <trkpt lat="43.28841" lon="-3.20135">
        <ele>552.8</ele>
        <time>2021-10-28 11:29:22</time>
      </trkpt>
      <trkpt lat="43.28844" lon="-3.20138">
        <ele>553</ele>
        <time>2021-10-28 11:29:23</time>
      </trkpt>
      <trkpt lat="43.28844" lon="-3.20138">
        <ele>553</ele>
        <time>2021-10-28 11:29:24</time>
      </trkpt>
      <trkpt lat="43.28845" lon="-3.20142">
        <ele>553.2</ele>
        <time>2021-10-28 11:29:25</time>
      </trkpt>
      <trkpt lat="43.28846" lon="-3.2015">
        <ele>553.2</ele>
        <time>2021-10-28 11:29:26</time>
      </trkpt>
      <trkpt lat="43.28846" lon="-3.2015">
        <ele>553.4</ele>
        <time>2021-10-28 11:29:27</time>
      </trkpt>
      <trkpt lat="43.28846" lon="-3.20152">
        <ele>553.4</ele>
        <time>2021-10-28 11:29:28</time>
      </trkpt>
      <trkpt lat="43.28846" lon="-3.20152">
        <ele>553.6</ele>
        <time>2021-10-28 11:29:29</time>
      </trkpt>
      <trkpt lat="43.28847" lon="-3.20154">
        <ele>553.6</ele>
        <time>2021-10-28 11:29:30</time>
      </trkpt>
      <trkpt lat="43.28848" lon="-3.20158">
        <ele>553.6</ele>
        <time>2021-10-28 11:29:31</time>
      </trkpt>
      <trkpt lat="43.28848" lon="-3.20158">
        <ele>553.8</ele>
        <time>2021-10-28 11:29:32</time>
      </trkpt>
      <trkpt lat="43.2885" lon="-3.20162">
        <ele>553.8</ele>
        <time>2021-10-28 11:29:33</time>
      </trkpt>
      <trkpt lat="43.2885" lon="-3.20162">
        <ele>554</ele>
        <time>2021-10-28 11:29:34</time>
      </trkpt>
      <trkpt lat="43.28852" lon="-3.20168">
        <ele>554.2</ele>
        <time>2021-10-28 11:29:35</time>
      </trkpt>
      <trkpt lat="43.28852" lon="-3.20168">
        <ele>554.4</ele>
        <time>2021-10-28 11:29:36</time>
      </trkpt>
      <trkpt lat="43.28852" lon="-3.20168">
        <ele>554.6</ele>
        <time>2021-10-28 11:29:37</time>
      </trkpt>
      <trkpt lat="43.28852" lon="-3.2017">
        <ele>554.8</ele>
        <time>2021-10-28 11:29:38</time>
      </trkpt>
      <trkpt lat="43.28853" lon="-3.20173">
        <ele>555</ele>
        <time>2021-10-28 11:29:39</time>
      </trkpt>
      <trkpt lat="43.28853" lon="-3.20177">
        <ele>555.4</ele>
        <time>2021-10-28 11:29:40</time>
      </trkpt>
      <trkpt lat="43.28853" lon="-3.20177">
        <ele>555.4</ele>
        <time>2021-10-28 11:29:41</time>
      </trkpt>
      <trkpt lat="43.28853" lon="-3.20183">
        <ele>555.6</ele>
        <time>2021-10-28 11:29:42</time>
      </trkpt>
      <trkpt lat="43.28853" lon="-3.20183">
        <ele>555.6</ele>
        <time>2021-10-28 11:29:43</time>
      </trkpt>
      <trkpt lat="43.28854" lon="-3.20185">
        <ele>555.8</ele>
        <time>2021-10-28 11:29:44</time>
      </trkpt>
      <trkpt lat="43.28855" lon="-3.20187">
        <ele>556.2</ele>
        <time>2021-10-28 11:29:45</time>
      </trkpt>
      <trkpt lat="43.28856" lon="-3.20192">
        <ele>556.2</ele>
        <time>2021-10-28 11:29:46</time>
      </trkpt>
      <trkpt lat="43.28856" lon="-3.20192">
        <ele>556.4</ele>
        <time>2021-10-28 11:29:47</time>
      </trkpt>
      <trkpt lat="43.28856" lon="-3.20192">
        <ele>556.6</ele>
        <time>2021-10-28 11:29:48</time>
      </trkpt>
      <trkpt lat="43.28856" lon="-3.20195">
        <ele>556.8</ele>
        <time>2021-10-28 11:29:49</time>
      </trkpt>
      <trkpt lat="43.28856" lon="-3.20197">
        <ele>557</ele>
        <time>2021-10-28 11:29:50</time>
      </trkpt>
      <trkpt lat="43.28857" lon="-3.20199">
        <ele>557.2</ele>
        <time>2021-10-28 11:29:51</time>
      </trkpt>
      <trkpt lat="43.28857" lon="-3.20201">
        <ele>557.4</ele>
        <time>2021-10-28 11:29:52</time>
      </trkpt>
      <trkpt lat="43.28858" lon="-3.20206">
        <ele>557.4</ele>
        <time>2021-10-28 11:29:53</time>
      </trkpt>
      <trkpt lat="43.28858" lon="-3.20206">
        <ele>557.6</ele>
        <time>2021-10-28 11:29:54</time>
      </trkpt>
      <trkpt lat="43.28859" lon="-3.20213">
        <ele>557.6</ele>
        <time>2021-10-28 11:29:55</time>
      </trkpt>
      <trkpt lat="43.28859" lon="-3.20213">
        <ele>557.8</ele>
        <time>2021-10-28 11:29:56</time>
      </trkpt>
      <trkpt lat="43.28859" lon="-3.20213">
        <ele>557.8</ele>
        <time>2021-10-28 11:29:57</time>
      </trkpt>
      <trkpt lat="43.2886" lon="-3.20215">
        <ele>557.8</ele>
        <time>2021-10-28 11:29:58</time>
      </trkpt>
      <trkpt lat="43.2886" lon="-3.20219">
        <ele>558</ele>
        <time>2021-10-28 11:29:59</time>
      </trkpt>
      <trkpt lat="43.2886" lon="-3.20219">
        <ele>558</ele>
        <time>2021-10-28 11:30:00</time>
      </trkpt>
      <trkpt lat="43.28862" lon="-3.20224">
        <ele>558.2</ele>
        <time>2021-10-28 11:30:01</time>
      </trkpt>
      <trkpt lat="43.28862" lon="-3.20224">
        <ele>558.2</ele>
        <time>2021-10-28 11:30:02</time>
      </trkpt>
      <trkpt lat="43.28862" lon="-3.20226">
        <ele>558.4</ele>
        <time>2021-10-28 11:30:03</time>
      </trkpt>
      <trkpt lat="43.28863" lon="-3.20228">
        <ele>558.6</ele>
        <time>2021-10-28 11:30:04</time>
      </trkpt>
      <trkpt lat="43.28866" lon="-3.20231">
        <ele>558.6</ele>
        <time>2021-10-28 11:30:05</time>
      </trkpt>
      <trkpt lat="43.28868" lon="-3.20234">
        <ele>558.8</ele>
        <time>2021-10-28 11:30:06</time>
      </trkpt>
      <trkpt lat="43.28868" lon="-3.20234">
        <ele>558.8</ele>
        <time>2021-10-28 11:30:07</time>
      </trkpt>
      <trkpt lat="43.28868" lon="-3.20234">
        <ele>559</ele>
        <time>2021-10-28 11:30:08</time>
      </trkpt>
      <trkpt lat="43.28869" lon="-3.20236">
        <ele>559</ele>
        <time>2021-10-28 11:30:09</time>
      </trkpt>
      <trkpt lat="43.28872" lon="-3.20238">
        <ele>559.2</ele>
        <time>2021-10-28 11:30:10</time>
      </trkpt>
      <trkpt lat="43.28872" lon="-3.20238">
        <ele>559.4</ele>
        <time>2021-10-28 11:30:11</time>
      </trkpt>
      <trkpt lat="43.28876" lon="-3.2024">
        <ele>559.4</ele>
        <time>2021-10-28 11:30:12</time>
      </trkpt>
      <trkpt lat="43.28876" lon="-3.2024">
        <ele>559.4</ele>
        <time>2021-10-28 11:30:13</time>
      </trkpt>
      <trkpt lat="43.28878" lon="-3.2024">
        <ele>559.6</ele>
        <time>2021-10-28 11:30:14</time>
      </trkpt>
      <trkpt lat="43.28883" lon="-3.20241">
        <ele>559.8</ele>
        <time>2021-10-28 11:30:15</time>
      </trkpt>
      <trkpt lat="43.28883" lon="-3.20241">
        <ele>559.8</ele>
        <time>2021-10-28 11:30:16</time>
      </trkpt>
      <trkpt lat="43.28883" lon="-3.20241">
        <ele>560</ele>
        <time>2021-10-28 11:30:17</time>
      </trkpt>
      <trkpt lat="43.28887" lon="-3.2024">
        <ele>560</ele>
        <time>2021-10-28 11:30:18</time>
      </trkpt>
      <trkpt lat="43.2889" lon="-3.2024">
        <ele>560.2</ele>
        <time>2021-10-28 11:30:19</time>
      </trkpt>
      <trkpt lat="43.2889" lon="-3.2024">
        <ele>560.4</ele>
        <time>2021-10-28 11:30:20</time>
      </trkpt>
      <trkpt lat="43.28895" lon="-3.20237">
        <ele>560.6</ele>
        <time>2021-10-28 11:30:21</time>
      </trkpt>
      <trkpt lat="43.28895" lon="-3.20237">
        <ele>560.6</ele>
        <time>2021-10-28 11:30:22</time>
      </trkpt>
      <trkpt lat="43.28895" lon="-3.20237">
        <ele>560.6</ele>
        <time>2021-10-28 11:30:23</time>
      </trkpt>
      <trkpt lat="43.28899" lon="-3.20238">
        <ele>560.6</ele>
        <time>2021-10-28 11:30:24</time>
      </trkpt>
      <trkpt lat="43.28902" lon="-3.20239">
        <ele>560.8</ele>
        <time>2021-10-28 11:30:25</time>
      </trkpt>
      <trkpt lat="43.28907" lon="-3.20239">
        <ele>560.8</ele>
        <time>2021-10-28 11:30:26</time>
      </trkpt>
      <trkpt lat="43.28907" lon="-3.20239">
        <ele>560.8</ele>
        <time>2021-10-28 11:30:27</time>
      </trkpt>
      <trkpt lat="43.28907" lon="-3.20239">
        <ele>561</ele>
        <time>2021-10-28 11:30:28</time>
      </trkpt>
      <trkpt lat="43.2891" lon="-3.2024">
        <ele>561</ele>
        <time>2021-10-28 11:30:29</time>
      </trkpt>
      <trkpt lat="43.2891" lon="-3.2024">
        <ele>561.4</ele>
        <time>2021-10-28 11:30:30</time>
      </trkpt>
      <trkpt lat="43.28914" lon="-3.2024">
        <ele>561.4</ele>
        <time>2021-10-28 11:30:31</time>
      </trkpt>
      <trkpt lat="43.28914" lon="-3.2024">
        <ele>561.6</ele>
        <time>2021-10-28 11:30:32</time>
      </trkpt>
      <trkpt lat="43.28916" lon="-3.20239">
        <ele>562</ele>
        <time>2021-10-28 11:30:33</time>
      </trkpt>
      <trkpt lat="43.28919" lon="-3.20237">
        <ele>562.2</ele>
        <time>2021-10-28 11:30:34</time>
      </trkpt>
      <trkpt lat="43.28919" lon="-3.20237">
        <ele>562.6</ele>
        <time>2021-10-28 11:30:35</time>
      </trkpt>
      <trkpt lat="43.28921" lon="-3.20236">
        <ele>562.8</ele>
        <time>2021-10-28 11:30:36</time>
      </trkpt>
      <trkpt lat="43.28928" lon="-3.20236">
        <ele>563</ele>
        <time>2021-10-28 11:30:37</time>
      </trkpt>
      <trkpt lat="43.28928" lon="-3.20236">
        <ele>563.2</ele>
        <time>2021-10-28 11:30:38</time>
      </trkpt>
      <trkpt lat="43.28928" lon="-3.20236">
        <ele>563.4</ele>
        <time>2021-10-28 11:30:39</time>
      </trkpt>
      <trkpt lat="43.28931" lon="-3.20234">
        <ele>563.8</ele>
        <time>2021-10-28 11:30:40</time>
      </trkpt>
      <trkpt lat="43.28933" lon="-3.20235">
        <ele>564</ele>
        <time>2021-10-28 11:30:41</time>
      </trkpt>
      <trkpt lat="43.28936" lon="-3.20234">
        <ele>564.2</ele>
        <time>2021-10-28 11:30:42</time>
      </trkpt>
      <trkpt lat="43.28938" lon="-3.20234">
        <ele>564.2</ele>
        <time>2021-10-28 11:30:43</time>
      </trkpt>
      <trkpt lat="43.28941" lon="-3.20235">
        <ele>564.4</ele>
        <time>2021-10-28 11:30:44</time>
      </trkpt>
      <trkpt lat="43.28941" lon="-3.20235">
        <ele>564.4</ele>
        <time>2021-10-28 11:30:45</time>
      </trkpt>
      <trkpt lat="43.28945" lon="-3.20238">
        <ele>564.4</ele>
        <time>2021-10-28 11:30:46</time>
      </trkpt>
      <trkpt lat="43.28945" lon="-3.20238">
        <ele>564.4</ele>
        <time>2021-10-28 11:30:47</time>
      </trkpt>
      <trkpt lat="43.28945" lon="-3.20238">
        <ele>564.6</ele>
        <time>2021-10-28 11:30:48</time>
      </trkpt>
      <trkpt lat="43.28947" lon="-3.20239">
        <ele>565</ele>
        <time>2021-10-28 11:30:49</time>
      </trkpt>
      <trkpt lat="43.28949" lon="-3.2024">
        <ele>565.2</ele>
        <time>2021-10-28 11:30:50</time>
      </trkpt>
      <trkpt lat="43.28948" lon="-3.20242">
        <ele>565.6</ele>
        <time>2021-10-28 11:30:51</time>
      </trkpt>
      <trkpt lat="43.28949" lon="-3.20244">
        <ele>565.8</ele>
        <time>2021-10-28 11:30:52</time>
      </trkpt>
      <trkpt lat="43.28949" lon="-3.20248">
        <ele>565.8</ele>
        <time>2021-10-28 11:30:53</time>
      </trkpt>
      <trkpt lat="43.2895" lon="-3.2025">
        <ele>565.8</ele>
        <time>2021-10-28 11:30:54</time>
      </trkpt>
      <trkpt lat="43.28951" lon="-3.20254">
        <ele>565.8</ele>
        <time>2021-10-28 11:30:55</time>
      </trkpt>
      <trkpt lat="43.28951" lon="-3.20254">
        <ele>566</ele>
        <time>2021-10-28 11:30:56</time>
      </trkpt>
      <trkpt lat="43.28951" lon="-3.20262">
        <ele>566</ele>
        <time>2021-10-28 11:30:57</time>
      </trkpt>
      <trkpt lat="43.28951" lon="-3.20262">
        <ele>566.2</ele>
        <time>2021-10-28 11:30:58</time>
      </trkpt>
      <trkpt lat="43.28951" lon="-3.20262">
        <ele>566.4</ele>
        <time>2021-10-28 11:30:59</time>
      </trkpt>
      <trkpt lat="43.2895" lon="-3.20265">
        <ele>566.4</ele>
        <time>2021-10-28 11:31:00</time>
      </trkpt>
      <trkpt lat="43.28951" lon="-3.20268">
        <ele>566.6</ele>
        <time>2021-10-28 11:31:01</time>
      </trkpt>
      <trkpt lat="43.28952" lon="-3.20271">
        <ele>566.6</ele>
        <time>2021-10-28 11:31:02</time>
      </trkpt>
      <trkpt lat="43.28952" lon="-3.20271">
        <ele>566.6</ele>
        <time>2021-10-28 11:31:03</time>
      </trkpt>
      <trkpt lat="43.28954" lon="-3.20276">
        <ele>566.6</ele>
        <time>2021-10-28 11:31:04</time>
      </trkpt>
      <trkpt lat="43.28956" lon="-3.20279">
        <ele>566.6</ele>
        <time>2021-10-28 11:31:05</time>
      </trkpt>
      <trkpt lat="43.2896" lon="-3.20283">
        <ele>566.8</ele>
        <time>2021-10-28 11:31:06</time>
      </trkpt>
      <trkpt lat="43.2896" lon="-3.20283">
        <ele>567</ele>
        <time>2021-10-28 11:31:07</time>
      </trkpt>
      <trkpt lat="43.2896" lon="-3.20283">
        <ele>567</ele>
        <time>2021-10-28 11:31:08</time>
      </trkpt>
      <trkpt lat="43.28962" lon="-3.20285">
        <ele>567.2</ele>
        <time>2021-10-28 11:31:09</time>
      </trkpt>
      <trkpt lat="43.28963" lon="-3.20287">
        <ele>567</ele>
        <time>2021-10-28 11:31:10</time>
      </trkpt>
      <trkpt lat="43.28966" lon="-3.20287">
        <ele>567.2</ele>
        <time>2021-10-28 11:31:11</time>
      </trkpt>
      <trkpt lat="43.2897" lon="-3.20288">
        <ele>567.2</ele>
        <time>2021-10-28 11:31:12</time>
      </trkpt>
      <trkpt lat="43.2897" lon="-3.20288">
        <ele>567.2</ele>
        <time>2021-10-28 11:31:13</time>
      </trkpt>
      <trkpt lat="43.28971" lon="-3.20289">
        <ele>567.4</ele>
        <time>2021-10-28 11:31:14</time>
      </trkpt>
      <trkpt lat="43.28975" lon="-3.20287">
        <ele>567.6</ele>
        <time>2021-10-28 11:31:15</time>
      </trkpt>
      <trkpt lat="43.28975" lon="-3.20287">
        <ele>567.6</ele>
        <time>2021-10-28 11:31:16</time>
      </trkpt>
      <trkpt lat="43.28979" lon="-3.20287">
        <ele>567.8</ele>
        <time>2021-10-28 11:31:17</time>
      </trkpt>
      <trkpt lat="43.28979" lon="-3.20287">
        <ele>568</ele>
        <time>2021-10-28 11:31:18</time>
      </trkpt>
      <trkpt lat="43.28979" lon="-3.20287">
        <ele>568.2</ele>
        <time>2021-10-28 11:31:19</time>
      </trkpt>
      <trkpt lat="43.2898" lon="-3.2029">
        <ele>568.2</ele>
        <time>2021-10-28 11:31:20</time>
      </trkpt>
      <trkpt lat="43.28983" lon="-3.20289">
        <ele>568.4</ele>
        <time>2021-10-28 11:31:21</time>
      </trkpt>
      <trkpt lat="43.28986" lon="-3.20288">
        <ele>568.6</ele>
        <time>2021-10-28 11:31:22</time>
      </trkpt>
      <trkpt lat="43.28987" lon="-3.20288">
        <ele>568.8</ele>
        <time>2021-10-28 11:31:23</time>
      </trkpt>
      <trkpt lat="43.28987" lon="-3.20288">
        <ele>569</ele>
        <time>2021-10-28 11:31:24</time>
      </trkpt>
      <trkpt lat="43.28991" lon="-3.2029">
        <ele>569.2</ele>
        <time>2021-10-28 11:31:25</time>
      </trkpt>
      <trkpt lat="43.28994" lon="-3.20293">
        <ele>569.4</ele>
        <time>2021-10-28 11:31:26</time>
      </trkpt>
      <trkpt lat="43.28994" lon="-3.20293">
        <ele>569.8</ele>
        <time>2021-10-28 11:31:27</time>
      </trkpt>
      <trkpt lat="43.28999" lon="-3.20295">
        <ele>570</ele>
        <time>2021-10-28 11:31:28</time>
      </trkpt>
      <trkpt lat="43.28999" lon="-3.20295">
        <ele>570.2</ele>
        <time>2021-10-28 11:31:29</time>
      </trkpt>
      <trkpt lat="43.28999" lon="-3.20295">
        <ele>570.4</ele>
        <time>2021-10-28 11:31:30</time>
      </trkpt>
      <trkpt lat="43.29004" lon="-3.20296">
        <ele>570.6</ele>
        <time>2021-10-28 11:31:31</time>
      </trkpt>
      <trkpt lat="43.29004" lon="-3.20296">
        <ele>570.8</ele>
        <time>2021-10-28 11:31:32</time>
      </trkpt>
      <trkpt lat="43.29008" lon="-3.20299">
        <ele>571</ele>
        <time>2021-10-28 11:31:33</time>
      </trkpt>
      <trkpt lat="43.29008" lon="-3.20299">
        <ele>571.2</ele>
        <time>2021-10-28 11:31:34</time>
      </trkpt>
      <trkpt lat="43.2901" lon="-3.203">
        <ele>571.4</ele>
        <time>2021-10-28 11:31:35</time>
      </trkpt>
      <trkpt lat="43.29012" lon="-3.20301">
        <ele>571.4</ele>
        <time>2021-10-28 11:31:36</time>
      </trkpt>
      <trkpt lat="43.29015" lon="-3.20308">
        <ele>571.4</ele>
        <time>2021-10-28 11:31:37</time>
      </trkpt>
      <trkpt lat="43.29015" lon="-3.20308">
        <ele>571.4</ele>
        <time>2021-10-28 11:31:38</time>
      </trkpt>
      <trkpt lat="43.29015" lon="-3.20308">
        <ele>571.2</ele>
        <time>2021-10-28 11:31:39</time>
      </trkpt>
      <trkpt lat="43.29015" lon="-3.20311">
        <ele>571.2</ele>
        <time>2021-10-28 11:31:40</time>
      </trkpt>
      <trkpt lat="43.29016" lon="-3.20313">
        <ele>571.2</ele>
        <time>2021-10-28 11:31:41</time>
      </trkpt>
      <trkpt lat="43.29018" lon="-3.20315">
        <ele>571.4</ele>
        <time>2021-10-28 11:31:42</time>
      </trkpt>
      <trkpt lat="43.29021" lon="-3.20321">
        <ele>571.6</ele>
        <time>2021-10-28 11:31:43</time>
      </trkpt>
      <trkpt lat="43.29021" lon="-3.20321">
        <ele>571.8</ele>
        <time>2021-10-28 11:31:44</time>
      </trkpt>
      <trkpt lat="43.29023" lon="-3.20323">
        <ele>572.2</ele>
        <time>2021-10-28 11:31:45</time>
      </trkpt>
      <trkpt lat="43.29026" lon="-3.20327">
        <ele>572.6</ele>
        <time>2021-10-28 11:31:46</time>
      </trkpt>
      <trkpt lat="43.29026" lon="-3.20327">
        <ele>573</ele>
        <time>2021-10-28 11:31:47</time>
      </trkpt>
      <trkpt lat="43.29029" lon="-3.20332">
        <ele>573</ele>
        <time>2021-10-28 11:31:48</time>
      </trkpt>
      <trkpt lat="43.29029" lon="-3.20332">
        <ele>573.2</ele>
        <time>2021-10-28 11:31:49</time>
      </trkpt>
      <trkpt lat="43.29029" lon="-3.20332">
        <ele>573.4</ele>
        <time>2021-10-28 11:31:50</time>
      </trkpt>
      <trkpt lat="43.29031" lon="-3.20333">
        <ele>573.6</ele>
        <time>2021-10-28 11:31:51</time>
      </trkpt>
      <trkpt lat="43.29032" lon="-3.20335">
        <ele>573.8</ele>
        <time>2021-10-28 11:31:52</time>
      </trkpt>
      <trkpt lat="43.29034" lon="-3.20337">
        <ele>574</ele>
        <time>2021-10-28 11:31:53</time>
      </trkpt>
      <trkpt lat="43.29035" lon="-3.20339">
        <ele>574.2</ele>
        <time>2021-10-28 11:31:54</time>
      </trkpt>
      <trkpt lat="43.29035" lon="-3.20341">
        <ele>574.4</ele>
        <time>2021-10-28 11:31:55</time>
      </trkpt>
      <trkpt lat="43.29035" lon="-3.20345">
        <ele>574.8</ele>
        <time>2021-10-28 11:31:56</time>
      </trkpt>
      <trkpt lat="43.29035" lon="-3.20345">
        <ele>575</ele>
        <time>2021-10-28 11:31:57</time>
      </trkpt>
      <trkpt lat="43.29039" lon="-3.20348">
        <ele>575.2</ele>
        <time>2021-10-28 11:31:58</time>
      </trkpt>
      <trkpt lat="43.29041" lon="-3.20353">
        <ele>575.6</ele>
        <time>2021-10-28 11:31:59</time>
      </trkpt>
      <trkpt lat="43.29041" lon="-3.20353">
        <ele>576</ele>
        <time>2021-10-28 11:32:00</time>
      </trkpt>
      <trkpt lat="43.29041" lon="-3.20353">
        <ele>576.2</ele>
        <time>2021-10-28 11:32:01</time>
      </trkpt>
      <trkpt lat="43.29041" lon="-3.20357">
        <ele>576.6</ele>
        <time>2021-10-28 11:32:02</time>
      </trkpt>
      <trkpt lat="43.29045" lon="-3.20361">
        <ele>576.8</ele>
        <time>2021-10-28 11:32:03</time>
      </trkpt>
      <trkpt lat="43.29048" lon="-3.20362">
        <ele>577</ele>
        <time>2021-10-28 11:32:04</time>
      </trkpt>
      <trkpt lat="43.29048" lon="-3.20362">
        <ele>577.2</ele>
        <time>2021-10-28 11:32:05</time>
      </trkpt>
      <trkpt lat="43.29048" lon="-3.20363">
        <ele>577.6</ele>
        <time>2021-10-28 11:32:06</time>
      </trkpt>
      <trkpt lat="43.2905" lon="-3.20364">
        <ele>577.8</ele>
        <time>2021-10-28 11:32:07</time>
      </trkpt>
      <trkpt lat="43.29054" lon="-3.20365">
        <ele>578.2</ele>
        <time>2021-10-28 11:32:08</time>
      </trkpt>
      <trkpt lat="43.29054" lon="-3.20365">
        <ele>578.4</ele>
        <time>2021-10-28 11:32:09</time>
      </trkpt>
      <trkpt lat="43.29059" lon="-3.20369">
        <ele>578.6</ele>
        <time>2021-10-28 11:32:10</time>
      </trkpt>
      <trkpt lat="43.29059" lon="-3.20369">
        <ele>578.6</ele>
        <time>2021-10-28 11:32:11</time>
      </trkpt>
      <trkpt lat="43.29059" lon="-3.20369">
        <ele>578.6</ele>
        <time>2021-10-28 11:32:12</time>
      </trkpt>
      <trkpt lat="43.29062" lon="-3.2037">
        <ele>578.8</ele>
        <time>2021-10-28 11:32:13</time>
      </trkpt>
      <trkpt lat="43.29062" lon="-3.2037">
        <ele>579</ele>
        <time>2021-10-28 11:32:14</time>
      </trkpt>
      <trkpt lat="43.29063" lon="-3.20372">
        <ele>579.4</ele>
        <time>2021-10-28 11:32:15</time>
      </trkpt>
      <trkpt lat="43.29064" lon="-3.20373">
        <ele>580</ele>
        <time>2021-10-28 11:32:16</time>
      </trkpt>
      <trkpt lat="43.29066" lon="-3.20374">
        <ele>580.4</ele>
        <time>2021-10-28 11:32:17</time>
      </trkpt>
      <trkpt lat="43.29066" lon="-3.20376">
        <ele>580.8</ele>
        <time>2021-10-28 11:32:18</time>
      </trkpt>
      <trkpt lat="43.29064" lon="-3.20382">
        <ele>581.2</ele>
        <time>2021-10-28 11:32:19</time>
      </trkpt>
      <trkpt lat="43.29064" lon="-3.20382">
        <ele>581.4</ele>
        <time>2021-10-28 11:32:20</time>
      </trkpt>
      <trkpt lat="43.29062" lon="-3.20386">
        <ele>581.6</ele>
        <time>2021-10-28 11:32:21</time>
      </trkpt>
      <trkpt lat="43.29062" lon="-3.20386">
        <ele>581.6</ele>
        <time>2021-10-28 11:32:22</time>
      </trkpt>
      <trkpt lat="43.29062" lon="-3.20386">
        <ele>581.8</ele>
        <time>2021-10-28 11:32:23</time>
      </trkpt>
      <trkpt lat="43.29062" lon="-3.20386">
        <ele>581.8</ele>
        <time>2021-10-28 11:32:24</time>
      </trkpt>
      <trkpt lat="43.2906" lon="-3.20387">
        <ele>582</ele>
        <time>2021-10-28 11:32:25</time>
      </trkpt>
      <trkpt lat="43.29057" lon="-3.20388">
        <ele>582.2</ele>
        <time>2021-10-28 11:32:26</time>
      </trkpt>
      <trkpt lat="43.29054" lon="-3.20387">
        <ele>582.4</ele>
        <time>2021-10-28 11:32:27</time>
      </trkpt>
      <trkpt lat="43.29054" lon="-3.20387">
        <ele>582.6</ele>
        <time>2021-10-28 11:32:28</time>
      </trkpt>
      <trkpt lat="43.29049" lon="-3.20384">
        <ele>582.6</ele>
        <time>2021-10-28 11:32:29</time>
      </trkpt>
      <trkpt lat="43.29047" lon="-3.20383">
        <ele>582.8</ele>
        <time>2021-10-28 11:32:30</time>
      </trkpt>
      <trkpt lat="43.29045" lon="-3.20382">
        <ele>583</ele>
        <time>2021-10-28 11:32:31</time>
      </trkpt>
      <trkpt lat="43.29043" lon="-3.20383">
        <ele>583.2</ele>
        <time>2021-10-28 11:32:32</time>
      </trkpt>
      <trkpt lat="43.29043" lon="-3.20383">
        <ele>583.4</ele>
        <time>2021-10-28 11:32:33</time>
      </trkpt>
      <trkpt lat="43.29043" lon="-3.20383">
        <ele>583.6</ele>
        <time>2021-10-28 11:32:34</time>
      </trkpt>
      <trkpt lat="43.29042" lon="-3.20381">
        <ele>583.6</ele>
        <time>2021-10-28 11:32:35</time>
      </trkpt>
      <trkpt lat="43.29039" lon="-3.20381">
        <ele>583.8</ele>
        <time>2021-10-28 11:32:36</time>
      </trkpt>
      <trkpt lat="43.29039" lon="-3.20381">
        <ele>584</ele>
        <time>2021-10-28 11:32:37</time>
      </trkpt>
      <trkpt lat="43.29036" lon="-3.2038">
        <ele>584.2</ele>
        <time>2021-10-28 11:32:38</time>
      </trkpt>
      <trkpt lat="43.29036" lon="-3.2038">
        <ele>584.4</ele>
        <time>2021-10-28 11:32:39</time>
      </trkpt>
      <trkpt lat="43.29036" lon="-3.2038">
        <ele>584.6</ele>
        <time>2021-10-28 11:32:40</time>
      </trkpt>
      <trkpt lat="43.29033" lon="-3.20381">
        <ele>584.6</ele>
        <time>2021-10-28 11:32:41</time>
      </trkpt>
      <trkpt lat="43.29033" lon="-3.20381">
        <ele>584.8</ele>
        <time>2021-10-28 11:32:42</time>
      </trkpt>
      <trkpt lat="43.2903" lon="-3.20382">
        <ele>585</ele>
        <time>2021-10-28 11:32:43</time>
      </trkpt>
      <trkpt lat="43.2903" lon="-3.20382">
        <ele>585.4</ele>
        <time>2021-10-28 11:32:44</time>
      </trkpt>
      <trkpt lat="43.2903" lon="-3.20382">
        <ele>585.6</ele>
        <time>2021-10-28 11:32:45</time>
      </trkpt>
      <trkpt lat="43.29029" lon="-3.20381">
        <ele>585.8</ele>
        <time>2021-10-28 11:32:46</time>
      </trkpt>
      <trkpt lat="43.29027" lon="-3.20381">
        <ele>586.2</ele>
        <time>2021-10-28 11:32:47</time>
      </trkpt>
      <trkpt lat="43.29023" lon="-3.20381">
        <ele>586.4</ele>
        <time>2021-10-28 11:32:48</time>
      </trkpt>
      <trkpt lat="43.29023" lon="-3.20381">
        <ele>586.6</ele>
        <time>2021-10-28 11:32:49</time>
      </trkpt>
      <trkpt lat="43.2902" lon="-3.20381">
        <ele>586.6</ele>
        <time>2021-10-28 11:32:50</time>
      </trkpt>
      <trkpt lat="43.2902" lon="-3.20381">
        <ele>586.8</ele>
        <time>2021-10-28 11:32:51</time>
      </trkpt>
      <trkpt lat="43.2902" lon="-3.20381">
        <ele>586.8</ele>
        <time>2021-10-28 11:32:52</time>
      </trkpt>
      <trkpt lat="43.29018" lon="-3.20381">
        <ele>587</ele>
        <time>2021-10-28 11:32:53</time>
      </trkpt>
      <trkpt lat="43.29012" lon="-3.20381">
        <ele>587.2</ele>
        <time>2021-10-28 11:32:54</time>
      </trkpt>
      <trkpt lat="43.29012" lon="-3.20381">
        <ele>587.4</ele>
        <time>2021-10-28 11:32:55</time>
      </trkpt>
      <trkpt lat="43.29012" lon="-3.20381">
        <ele>587.6</ele>
        <time>2021-10-28 11:32:56</time>
      </trkpt>
      <trkpt lat="43.29012" lon="-3.20381">
        <ele>587.8</ele>
        <time>2021-10-28 11:32:57</time>
      </trkpt>
      <trkpt lat="43.29009" lon="-3.20382">
        <ele>588</ele>
        <time>2021-10-28 11:32:58</time>
      </trkpt>
      <trkpt lat="43.29006" lon="-3.2038">
        <ele>588.2</ele>
        <time>2021-10-28 11:32:59</time>
      </trkpt>
      <trkpt lat="43.29006" lon="-3.2038">
        <ele>588.2</ele>
        <time>2021-10-28 11:33:00</time>
      </trkpt>
      <trkpt lat="43.29004" lon="-3.20381">
        <ele>588.4</ele>
        <time>2021-10-28 11:33:01</time>
      </trkpt>
      <trkpt lat="43.29003" lon="-3.20381">
        <ele>588.4</ele>
        <time>2021-10-28 11:33:02</time>
      </trkpt>
      <trkpt lat="43.28999" lon="-3.2038">
        <ele>588.6</ele>
        <time>2021-10-28 11:33:03</time>
      </trkpt>
      <trkpt lat="43.28995" lon="-3.20381">
        <ele>588.6</ele>
        <time>2021-10-28 11:33:04</time>
      </trkpt>
      <trkpt lat="43.2899" lon="-3.20381">
        <ele>588.8</ele>
        <time>2021-10-28 11:33:05</time>
      </trkpt>
      <trkpt lat="43.2899" lon="-3.20381">
        <ele>589</ele>
        <time>2021-10-28 11:33:06</time>
      </trkpt>
      <trkpt lat="43.2899" lon="-3.20381">
        <ele>589.2</ele>
        <time>2021-10-28 11:33:07</time>
      </trkpt>
      <trkpt lat="43.2899" lon="-3.20381">
        <ele>589.4</ele>
        <time>2021-10-28 11:33:08</time>
      </trkpt>
      <trkpt lat="43.28986" lon="-3.2038">
        <ele>589.4</ele>
        <time>2021-10-28 11:33:09</time>
      </trkpt>
      <trkpt lat="43.28984" lon="-3.20381">
        <ele>589.6</ele>
        <time>2021-10-28 11:33:10</time>
      </trkpt>
      <trkpt lat="43.28984" lon="-3.20381">
        <ele>589.8</ele>
        <time>2021-10-28 11:33:11</time>
      </trkpt>
      <trkpt lat="43.28984" lon="-3.20381">
        <ele>590.2</ele>
        <time>2021-10-28 11:33:12</time>
      </trkpt>
      <trkpt lat="43.28977" lon="-3.20379">
        <ele>590.4</ele>
        <time>2021-10-28 11:33:13</time>
      </trkpt>
      <trkpt lat="43.28977" lon="-3.20379">
        <ele>590.6</ele>
        <time>2021-10-28 11:33:14</time>
      </trkpt>
      <trkpt lat="43.28974" lon="-3.20378">
        <ele>591</ele>
        <time>2021-10-28 11:33:15</time>
      </trkpt>
      <trkpt lat="43.28968" lon="-3.20374">
        <ele>591.2</ele>
        <time>2021-10-28 11:33:16</time>
      </trkpt>
      <trkpt lat="43.28968" lon="-3.20374">
        <ele>591.6</ele>
        <time>2021-10-28 11:33:17</time>
      </trkpt>
      <trkpt lat="43.28965" lon="-3.20374">
        <ele>591.8</ele>
        <time>2021-10-28 11:33:18</time>
      </trkpt>
      <trkpt lat="43.28963" lon="-3.20373">
        <ele>592</ele>
        <time>2021-10-28 11:33:19</time>
      </trkpt>
      <trkpt lat="43.28963" lon="-3.20373">
        <ele>592.2</ele>
        <time>2021-10-28 11:33:20</time>
      </trkpt>
      <trkpt lat="43.28959" lon="-3.20372">
        <ele>592.4</ele>
        <time>2021-10-28 11:33:21</time>
      </trkpt>
      <trkpt lat="43.28959" lon="-3.20372">
        <ele>592.8</ele>
        <time>2021-10-28 11:33:22</time>
      </trkpt>
      <trkpt lat="43.28954" lon="-3.20372">
        <ele>593.2</ele>
        <time>2021-10-28 11:33:23</time>
      </trkpt>
      <trkpt lat="43.28954" lon="-3.20372">
        <ele>593.6</ele>
        <time>2021-10-28 11:33:24</time>
      </trkpt>
      <trkpt lat="43.28954" lon="-3.20372">
        <ele>593.8</ele>
        <time>2021-10-28 11:33:25</time>
      </trkpt>
      <trkpt lat="43.28946" lon="-3.20374">
        <ele>594</ele>
        <time>2021-10-28 11:33:26</time>
      </trkpt>
      <trkpt lat="43.28939" lon="-3.20373">
        <ele>594</ele>
        <time>2021-10-28 11:33:27</time>
      </trkpt>
      <trkpt lat="43.28939" lon="-3.20373">
        <ele>594.2</ele>
        <time>2021-10-28 11:33:28</time>
      </trkpt>
      <trkpt lat="43.28939" lon="-3.20373">
        <ele>594.2</ele>
        <time>2021-10-28 11:33:29</time>
      </trkpt>
      <trkpt lat="43.28939" lon="-3.20374">
        <ele>594.2</ele>
        <time>2021-10-28 11:33:30</time>
      </trkpt>
      <trkpt lat="43.28936" lon="-3.20377">
        <ele>594.4</ele>
        <time>2021-10-28 11:33:31</time>
      </trkpt>
      <trkpt lat="43.28936" lon="-3.20377">
        <ele>594.4</ele>
        <time>2021-10-28 11:33:32</time>
      </trkpt>
      <trkpt lat="43.28934" lon="-3.2038">
        <ele>594.6</ele>
        <time>2021-10-28 11:33:33</time>
      </trkpt>
      <trkpt lat="43.28934" lon="-3.2038">
        <ele>594.6</ele>
        <time>2021-10-28 11:33:34</time>
      </trkpt>
      <trkpt lat="43.28928" lon="-3.20382">
        <ele>594.8</ele>
        <time>2021-10-28 11:33:35</time>
      </trkpt>
      <trkpt lat="43.28928" lon="-3.20382">
        <ele>595</ele>
        <time>2021-10-28 11:33:36</time>
      </trkpt>
      <trkpt lat="43.28923" lon="-3.20386">
        <ele>595</ele>
        <time>2021-10-28 11:33:37</time>
      </trkpt>
      <trkpt lat="43.28919" lon="-3.20388">
        <ele>595.2</ele>
        <time>2021-10-28 11:33:38</time>
      </trkpt>
      <trkpt lat="43.28919" lon="-3.20388">
        <ele>595.4</ele>
        <time>2021-10-28 11:33:39</time>
      </trkpt>
      <trkpt lat="43.28919" lon="-3.20388">
        <ele>595.6</ele>
        <time>2021-10-28 11:33:40</time>
      </trkpt>
      <trkpt lat="43.28919" lon="-3.20388">
        <ele>595.6</ele>
        <time>2021-10-28 11:33:41</time>
      </trkpt>
      <trkpt lat="43.28914" lon="-3.2039">
        <ele>595.8</ele>
        <time>2021-10-28 11:33:42</time>
      </trkpt>
      <trkpt lat="43.28914" lon="-3.2039">
        <ele>595.8</ele>
        <time>2021-10-28 11:33:43</time>
      </trkpt>
      <trkpt lat="43.28908" lon="-3.20389">
        <ele>595.8</ele>
        <time>2021-10-28 11:33:44</time>
      </trkpt>
      <trkpt lat="43.28908" lon="-3.20389">
        <ele>596</ele>
        <time>2021-10-28 11:33:45</time>
      </trkpt>
      <trkpt lat="43.28904" lon="-3.20387">
        <ele>596</ele>
        <time>2021-10-28 11:33:46</time>
      </trkpt>
      <trkpt lat="43.28904" lon="-3.20387">
        <ele>596.2</ele>
        <time>2021-10-28 11:33:47</time>
      </trkpt>
      <trkpt lat="43.28902" lon="-3.20384">
        <ele>596.4</ele>
        <time>2021-10-28 11:33:48</time>
      </trkpt>
      <trkpt lat="43.28893" lon="-3.2038">
        <ele>596.6</ele>
        <time>2021-10-28 11:33:49</time>
      </trkpt>
      <trkpt lat="43.28893" lon="-3.2038">
        <ele>596.6</ele>
        <time>2021-10-28 11:33:50</time>
      </trkpt>
      <trkpt lat="43.28893" lon="-3.2038">
        <ele>596.8</ele>
        <time>2021-10-28 11:33:51</time>
      </trkpt>
      <trkpt lat="43.28889" lon="-3.20377">
        <ele>597</ele>
        <time>2021-10-28 11:33:52</time>
      </trkpt>
      <trkpt lat="43.28889" lon="-3.20377">
        <ele>597</ele>
        <time>2021-10-28 11:33:53</time>
      </trkpt>
      <trkpt lat="43.28884" lon="-3.20372">
        <ele>597.2</ele>
        <time>2021-10-28 11:33:54</time>
      </trkpt>
      <trkpt lat="43.28884" lon="-3.20372">
        <ele>597.2</ele>
        <time>2021-10-28 11:33:55</time>
      </trkpt>
      <trkpt lat="43.2888" lon="-3.20369">
        <ele>597.2</ele>
        <time>2021-10-28 11:33:56</time>
      </trkpt>
      <trkpt lat="43.2888" lon="-3.20369">
        <ele>597.4</ele>
        <time>2021-10-28 11:33:57</time>
      </trkpt>
      <trkpt lat="43.28876" lon="-3.20368">
        <ele>597.6</ele>
        <time>2021-10-28 11:33:58</time>
      </trkpt>
      <trkpt lat="43.28873" lon="-3.20366">
        <ele>597.8</ele>
        <time>2021-10-28 11:33:59</time>
      </trkpt>
      <trkpt lat="43.28873" lon="-3.20366">
        <ele>598</ele>
        <time>2021-10-28 11:34:00</time>
      </trkpt>
      <trkpt lat="43.28867" lon="-3.20361">
        <ele>598.2</ele>
        <time>2021-10-28 11:34:01</time>
      </trkpt>
      <trkpt lat="43.28867" lon="-3.20361">
        <ele>598.2</ele>
        <time>2021-10-28 11:34:02</time>
      </trkpt>
      <trkpt lat="43.28865" lon="-3.2036">
        <ele>598.4</ele>
        <time>2021-10-28 11:34:03</time>
      </trkpt>
      <trkpt lat="43.2886" lon="-3.20355">
        <ele>598.4</ele>
        <time>2021-10-28 11:34:04</time>
      </trkpt>
      <trkpt lat="43.28858" lon="-3.20354">
        <ele>598.4</ele>
        <time>2021-10-28 11:34:05</time>
      </trkpt>
      <trkpt lat="43.28858" lon="-3.20354">
        <ele>598.6</ele>
        <time>2021-10-28 11:34:06</time>
      </trkpt>
      <trkpt lat="43.28853" lon="-3.20352">
        <ele>598.8</ele>
        <time>2021-10-28 11:34:07</time>
      </trkpt>
      <trkpt lat="43.28853" lon="-3.20352">
        <ele>599</ele>
        <time>2021-10-28 11:34:08</time>
      </trkpt>
      <trkpt lat="43.28846" lon="-3.20347">
        <ele>599.2</ele>
        <time>2021-10-28 11:34:09</time>
      </trkpt>
      <trkpt lat="43.28846" lon="-3.20347">
        <ele>599.4</ele>
        <time>2021-10-28 11:34:10</time>
      </trkpt>
      <trkpt lat="43.28846" lon="-3.20347">
        <ele>599.6</ele>
        <time>2021-10-28 11:34:11</time>
      </trkpt>
      <trkpt lat="43.28843" lon="-3.20347">
        <ele>599.8</ele>
        <time>2021-10-28 11:34:12</time>
      </trkpt>
      <trkpt lat="43.2884" lon="-3.20345">
        <ele>600</ele>
        <time>2021-10-28 11:34:13</time>
      </trkpt>
      <trkpt lat="43.28835" lon="-3.20342">
        <ele>600.2</ele>
        <time>2021-10-28 11:34:14</time>
      </trkpt>
      <trkpt lat="43.28835" lon="-3.20342">
        <ele>600.4</ele>
        <time>2021-10-28 11:34:15</time>
      </trkpt>
      <trkpt lat="43.28832" lon="-3.20339">
        <ele>600.6</ele>
        <time>2021-10-28 11:34:16</time>
      </trkpt>
      <trkpt lat="43.28832" lon="-3.20339">
        <ele>600.8</ele>
        <time>2021-10-28 11:34:17</time>
      </trkpt>
      <trkpt lat="43.28828" lon="-3.20335">
        <ele>601</ele>
        <time>2021-10-28 11:34:18</time>
      </trkpt>
      <trkpt lat="43.28825" lon="-3.20336">
        <ele>601.4</ele>
        <time>2021-10-28 11:34:19</time>
      </trkpt>
      <trkpt lat="43.28822" lon="-3.20335">
        <ele>601.6</ele>
        <time>2021-10-28 11:34:20</time>
      </trkpt>
      <trkpt lat="43.28822" lon="-3.20335">
        <ele>601.8</ele>
        <time>2021-10-28 11:34:21</time>
      </trkpt>
      <trkpt lat="43.28822" lon="-3.20335">
        <ele>602</ele>
        <time>2021-10-28 11:34:22</time>
      </trkpt>
      <trkpt lat="43.28821" lon="-3.20332">
        <ele>602</ele>
        <time>2021-10-28 11:34:23</time>
      </trkpt>
      <trkpt lat="43.2882" lon="-3.20331">
        <ele>602.2</ele>
        <time>2021-10-28 11:34:24</time>
      </trkpt>
      <trkpt lat="43.28817" lon="-3.20331">
        <ele>602.4</ele>
        <time>2021-10-28 11:34:25</time>
      </trkpt>
      <trkpt lat="43.28815" lon="-3.20329">
        <ele>602.6</ele>
        <time>2021-10-28 11:34:26</time>
      </trkpt>
      <trkpt lat="43.28815" lon="-3.20329">
        <ele>602.6</ele>
        <time>2021-10-28 11:34:27</time>
      </trkpt>
      <trkpt lat="43.28815" lon="-3.20329">
        <ele>602.8</ele>
        <time>2021-10-28 11:34:28</time>
      </trkpt>
      <trkpt lat="43.28811" lon="-3.20327">
        <ele>602.8</ele>
        <time>2021-10-28 11:34:29</time>
      </trkpt>
      <trkpt lat="43.28811" lon="-3.20327">
        <ele>603</ele>
        <time>2021-10-28 11:34:30</time>
      </trkpt>
      <trkpt lat="43.28807" lon="-3.20326">
        <ele>603.2</ele>
        <time>2021-10-28 11:34:31</time>
      </trkpt>
      <trkpt lat="43.28807" lon="-3.20326">
        <ele>603.4</ele>
        <time>2021-10-28 11:34:32</time>
      </trkpt>
      <trkpt lat="43.28807" lon="-3.20326">
        <ele>603.6</ele>
        <time>2021-10-28 11:34:33</time>
      </trkpt>
      <trkpt lat="43.28805" lon="-3.20325">
        <ele>603.8</ele>
        <time>2021-10-28 11:34:34</time>
      </trkpt>
      <trkpt lat="43.28801" lon="-3.20322">
        <ele>604</ele>
        <time>2021-10-28 11:34:35</time>
      </trkpt>
      <trkpt lat="43.28801" lon="-3.20322">
        <ele>604</ele>
        <time>2021-10-28 11:34:36</time>
      </trkpt>
      <trkpt lat="43.28801" lon="-3.20322">
        <ele>604.4</ele>
        <time>2021-10-28 11:34:37</time>
      </trkpt>
      <trkpt lat="43.28796" lon="-3.20319">
        <ele>604.6</ele>
        <time>2021-10-28 11:34:38</time>
      </trkpt>
      <trkpt lat="43.28796" lon="-3.20319">
        <ele>604.8</ele>
        <time>2021-10-28 11:34:39</time>
      </trkpt>
      <trkpt lat="43.2879" lon="-3.20313">
        <ele>605</ele>
        <time>2021-10-28 11:34:40</time>
      </trkpt>
      <trkpt lat="43.2879" lon="-3.20313">
        <ele>605</ele>
        <time>2021-10-28 11:34:41</time>
      </trkpt>
      <trkpt lat="43.2879" lon="-3.20313">
        <ele>605.2</ele>
        <time>2021-10-28 11:34:42</time>
      </trkpt>
      <trkpt lat="43.28787" lon="-3.20309">
        <ele>605.4</ele>
        <time>2021-10-28 11:34:43</time>
      </trkpt>
      <trkpt lat="43.28787" lon="-3.20309">
        <ele>605.8</ele>
        <time>2021-10-28 11:34:44</time>
      </trkpt>
      <trkpt lat="43.28784" lon="-3.20308">
        <ele>606.2</ele>
        <time>2021-10-28 11:34:45</time>
      </trkpt>
      <trkpt lat="43.28781" lon="-3.20307">
        <ele>606.4</ele>
        <time>2021-10-28 11:34:46</time>
      </trkpt>
      <trkpt lat="43.28777" lon="-3.20303">
        <ele>606.6</ele>
        <time>2021-10-28 11:34:47</time>
      </trkpt>
      <trkpt lat="43.28777" lon="-3.20303">
        <ele>606.8</ele>
        <time>2021-10-28 11:34:48</time>
      </trkpt>
      <trkpt lat="43.28774" lon="-3.20299">
        <ele>606.8</ele>
        <time>2021-10-28 11:34:49</time>
      </trkpt>
      <trkpt lat="43.28774" lon="-3.20299">
        <ele>606.8</ele>
        <time>2021-10-28 11:34:50</time>
      </trkpt>
      <trkpt lat="43.28768" lon="-3.20296">
        <ele>606.8</ele>
        <time>2021-10-28 11:34:51</time>
      </trkpt>
      <trkpt lat="43.28768" lon="-3.20296">
        <ele>607</ele>
        <time>2021-10-28 11:34:52</time>
      </trkpt>
      <trkpt lat="43.28768" lon="-3.20296">
        <ele>607.2</ele>
        <time>2021-10-28 11:34:53</time>
      </trkpt>
      <trkpt lat="43.28766" lon="-3.20293">
        <ele>607.6</ele>
        <time>2021-10-28 11:34:54</time>
      </trkpt>
      <trkpt lat="43.28766" lon="-3.20293">
        <ele>607.8</ele>
        <time>2021-10-28 11:34:55</time>
      </trkpt>
      <trkpt lat="43.28762" lon="-3.20289">
        <ele>608.2</ele>
        <time>2021-10-28 11:34:56</time>
      </trkpt>
      <trkpt lat="43.28762" lon="-3.20289">
        <ele>608.4</ele>
        <time>2021-10-28 11:34:57</time>
      </trkpt>
      <trkpt lat="43.2876" lon="-3.20288">
        <ele>608.8</ele>
        <time>2021-10-28 11:34:58</time>
      </trkpt>
      <trkpt lat="43.2876" lon="-3.20288">
        <ele>609</ele>
        <time>2021-10-28 11:34:59</time>
      </trkpt>
      <trkpt lat="43.28754" lon="-3.20288">
        <ele>609.2</ele>
        <time>2021-10-28 11:35:00</time>
      </trkpt>
      <trkpt lat="43.28754" lon="-3.20288">
        <ele>609.4</ele>
        <time>2021-10-28 11:35:01</time>
      </trkpt>
      <trkpt lat="43.28754" lon="-3.20288">
        <ele>609.6</ele>
        <time>2021-10-28 11:35:02</time>
      </trkpt>
      <trkpt lat="43.28753" lon="-3.20287">
        <ele>609.8</ele>
        <time>2021-10-28 11:35:03</time>
      </trkpt>
      <trkpt lat="43.2875" lon="-3.20285">
        <ele>610</ele>
        <time>2021-10-28 11:35:04</time>
      </trkpt>
      <trkpt lat="43.28747" lon="-3.20286">
        <ele>610.2</ele>
        <time>2021-10-28 11:35:05</time>
      </trkpt>
      <trkpt lat="43.28741" lon="-3.20288">
        <ele>610.4</ele>
        <time>2021-10-28 11:35:06</time>
      </trkpt>
      <trkpt lat="43.28741" lon="-3.20288">
        <ele>610.4</ele>
        <time>2021-10-28 11:35:07</time>
      </trkpt>
      <trkpt lat="43.28737" lon="-3.20288">
        <ele>610.6</ele>
        <time>2021-10-28 11:35:08</time>
      </trkpt>
      <trkpt lat="43.28737" lon="-3.20288">
        <ele>610.8</ele>
        <time>2021-10-28 11:35:09</time>
      </trkpt>
      <trkpt lat="43.28735" lon="-3.20291">
        <ele>611</ele>
        <time>2021-10-28 11:35:10</time>
      </trkpt>
      <trkpt lat="43.28733" lon="-3.20296">
        <ele>611.2</ele>
        <time>2021-10-28 11:35:11</time>
      </trkpt>
      <trkpt lat="43.28733" lon="-3.20296">
        <ele>611.4</ele>
        <time>2021-10-28 11:35:12</time>
      </trkpt>
      <trkpt lat="43.28733" lon="-3.20296">
        <ele>611.6</ele>
        <time>2021-10-28 11:35:13</time>
      </trkpt>
      <trkpt lat="43.2873" lon="-3.20298">
        <ele>611.8</ele>
        <time>2021-10-28 11:35:14</time>
      </trkpt>
      <trkpt lat="43.2873" lon="-3.20299">
        <ele>612.2</ele>
        <time>2021-10-28 11:35:15</time>
      </trkpt>
      <trkpt lat="43.28727" lon="-3.203">
        <ele>612.4</ele>
        <time>2021-10-28 11:35:16</time>
      </trkpt>
      <trkpt lat="43.28727" lon="-3.203">
        <ele>612.6</ele>
        <time>2021-10-28 11:35:17</time>
      </trkpt>
      <trkpt lat="43.28723" lon="-3.20304">
        <ele>612.8</ele>
        <time>2021-10-28 11:35:18</time>
      </trkpt>
      <trkpt lat="43.28723" lon="-3.20304">
        <ele>613</ele>
        <time>2021-10-28 11:35:19</time>
      </trkpt>
      <trkpt lat="43.28723" lon="-3.20304">
        <ele>613.2</ele>
        <time>2021-10-28 11:35:20</time>
      </trkpt>
      <trkpt lat="43.2872" lon="-3.20306">
        <ele>613.2</ele>
        <time>2021-10-28 11:35:21</time>
      </trkpt>
      <trkpt lat="43.28714" lon="-3.2031">
        <ele>613.4</ele>
        <time>2021-10-28 11:35:22</time>
      </trkpt>
      <trkpt lat="43.28714" lon="-3.2031">
        <ele>613.4</ele>
        <time>2021-10-28 11:35:23</time>
      </trkpt>
      <trkpt lat="43.28714" lon="-3.2031">
        <ele>613.6</ele>
        <time>2021-10-28 11:35:24</time>
      </trkpt>
      <trkpt lat="43.28711" lon="-3.20312">
        <ele>613.8</ele>
        <time>2021-10-28 11:35:25</time>
      </trkpt>
      <trkpt lat="43.28711" lon="-3.20312">
        <ele>613.8</ele>
        <time>2021-10-28 11:35:26</time>
      </trkpt>
      <trkpt lat="43.2871" lon="-3.20313">
        <ele>614</ele>
        <time>2021-10-28 11:35:27</time>
      </trkpt>
      <trkpt lat="43.28708" lon="-3.20315">
        <ele>614.2</ele>
        <time>2021-10-28 11:35:28</time>
      </trkpt>
      <trkpt lat="43.28705" lon="-3.20319">
        <ele>614.4</ele>
        <time>2021-10-28 11:35:29</time>
      </trkpt>
      <trkpt lat="43.28705" lon="-3.20319">
        <ele>614.6</ele>
        <time>2021-10-28 11:35:30</time>
      </trkpt>
      <trkpt lat="43.28703" lon="-3.20323">
        <ele>614.8</ele>
        <time>2021-10-28 11:35:31</time>
      </trkpt>
      <trkpt lat="43.28703" lon="-3.20323">
        <ele>615</ele>
        <time>2021-10-28 11:35:32</time>
      </trkpt>
      <trkpt lat="43.28701" lon="-3.20325">
        <ele>615.2</ele>
        <time>2021-10-28 11:35:33</time>
      </trkpt>
      <trkpt lat="43.28699" lon="-3.20329">
        <ele>615.2</ele>
        <time>2021-10-28 11:35:34</time>
      </trkpt>
      <trkpt lat="43.28699" lon="-3.20329">
        <ele>615.4</ele>
        <time>2021-10-28 11:35:35</time>
      </trkpt>
      <trkpt lat="43.28696" lon="-3.20332">
        <ele>615.6</ele>
        <time>2021-10-28 11:35:36</time>
      </trkpt>
      <trkpt lat="43.28696" lon="-3.20332">
        <ele>615.8</ele>
        <time>2021-10-28 11:35:37</time>
      </trkpt>
      <trkpt lat="43.28694" lon="-3.20335">
        <ele>616</ele>
        <time>2021-10-28 11:35:38</time>
      </trkpt>
      <trkpt lat="43.28694" lon="-3.20335">
        <ele>616</ele>
        <time>2021-10-28 11:35:39</time>
      </trkpt>
      <trkpt lat="43.28695" lon="-3.2034">
        <ele>616.2</ele>
        <time>2021-10-28 11:35:40</time>
      </trkpt>
      <trkpt lat="43.28695" lon="-3.2034">
        <ele>616.6</ele>
        <time>2021-10-28 11:35:41</time>
      </trkpt>
      <trkpt lat="43.28694" lon="-3.20345">
        <ele>616.8</ele>
        <time>2021-10-28 11:35:42</time>
      </trkpt>
      <trkpt lat="43.28694" lon="-3.20345">
        <ele>617</ele>
        <time>2021-10-28 11:35:43</time>
      </trkpt>
      <trkpt lat="43.28694" lon="-3.20345">
        <ele>617.4</ele>
        <time>2021-10-28 11:35:44</time>
      </trkpt>
      <trkpt lat="43.28694" lon="-3.20345">
        <ele>617.6</ele>
        <time>2021-10-28 11:35:45</time>
      </trkpt>
      <trkpt lat="43.28695" lon="-3.20352">
        <ele>617.8</ele>
        <time>2021-10-28 11:35:46</time>
      </trkpt>
      <trkpt lat="43.28695" lon="-3.20352">
        <ele>617.8</ele>
        <time>2021-10-28 11:35:47</time>
      </trkpt>
      <trkpt lat="43.28697" lon="-3.20357">
        <ele>618</ele>
        <time>2021-10-28 11:35:48</time>
      </trkpt>
      <trkpt lat="43.28697" lon="-3.20357">
        <ele>618.2</ele>
        <time>2021-10-28 11:35:49</time>
      </trkpt>
      <trkpt lat="43.28698" lon="-3.20361">
        <ele>618.4</ele>
        <time>2021-10-28 11:35:50</time>
      </trkpt>
      <trkpt lat="43.287" lon="-3.20363">
        <ele>618.6</ele>
        <time>2021-10-28 11:35:51</time>
      </trkpt>
      <trkpt lat="43.28701" lon="-3.20369">
        <ele>618.8</ele>
        <time>2021-10-28 11:35:52</time>
      </trkpt>
      <trkpt lat="43.28703" lon="-3.20373">
        <ele>619</ele>
        <time>2021-10-28 11:35:53</time>
      </trkpt>
      <trkpt lat="43.28703" lon="-3.20373">
        <ele>619</ele>
        <time>2021-10-28 11:35:54</time>
      </trkpt>
      <trkpt lat="43.28703" lon="-3.20373">
        <ele>619</ele>
        <time>2021-10-28 11:35:55</time>
      </trkpt>
      <trkpt lat="43.28705" lon="-3.20378">
        <ele>619.2</ele>
        <time>2021-10-28 11:35:56</time>
      </trkpt>
      <trkpt lat="43.28705" lon="-3.20378">
        <ele>619.2</ele>
        <time>2021-10-28 11:35:57</time>
      </trkpt>
      <trkpt lat="43.28706" lon="-3.20381">
        <ele>619.2</ele>
        <time>2021-10-28 11:35:58</time>
      </trkpt>
      <trkpt lat="43.28706" lon="-3.20381">
        <ele>619.4</ele>
        <time>2021-10-28 11:35:59</time>
      </trkpt>
      <trkpt lat="43.28707" lon="-3.20382">
        <ele>619.4</ele>
        <time>2021-10-28 11:36:00</time>
      </trkpt>
      <trkpt lat="43.28709" lon="-3.20384">
        <ele>619.6</ele>
        <time>2021-10-28 11:36:01</time>
      </trkpt>
      <trkpt lat="43.28709" lon="-3.20386">
        <ele>619.8</ele>
        <time>2021-10-28 11:36:02</time>
      </trkpt>
      <trkpt lat="43.28712" lon="-3.20387">
        <ele>620</ele>
        <time>2021-10-28 11:36:03</time>
      </trkpt>
      <trkpt lat="43.28714" lon="-3.20393">
        <ele>620.2</ele>
        <time>2021-10-28 11:36:04</time>
      </trkpt>
      <trkpt lat="43.28714" lon="-3.20393">
        <ele>620.6</ele>
        <time>2021-10-28 11:36:05</time>
      </trkpt>
      <trkpt lat="43.28714" lon="-3.20393">
        <ele>620.8</ele>
        <time>2021-10-28 11:36:06</time>
      </trkpt>
      <trkpt lat="43.28714" lon="-3.20394">
        <ele>621.2</ele>
        <time>2021-10-28 11:36:07</time>
      </trkpt>
      <trkpt lat="43.28715" lon="-3.20399">
        <ele>621.6</ele>
        <time>2021-10-28 11:36:08</time>
      </trkpt>
      <trkpt lat="43.28715" lon="-3.20399">
        <ele>621.8</ele>
        <time>2021-10-28 11:36:09</time>
      </trkpt>
      <trkpt lat="43.28715" lon="-3.20399">
        <ele>622</ele>
        <time>2021-10-28 11:36:10</time>
      </trkpt>
      <trkpt lat="43.28718" lon="-3.20403">
        <ele>622.2</ele>
        <time>2021-10-28 11:36:11</time>
      </trkpt>
      <trkpt lat="43.28718" lon="-3.20406">
        <ele>622.6</ele>
        <time>2021-10-28 11:36:12</time>
      </trkpt>
      <trkpt lat="43.2872" lon="-3.20412">
        <ele>623</ele>
        <time>2021-10-28 11:36:13</time>
      </trkpt>
      <trkpt lat="43.2872" lon="-3.20412">
        <ele>623.2</ele>
        <time>2021-10-28 11:36:14</time>
      </trkpt>
      <trkpt lat="43.2872" lon="-3.20412">
        <ele>623.2</ele>
        <time>2021-10-28 11:36:15</time>
      </trkpt>
      <trkpt lat="43.28722" lon="-3.20416">
        <ele>623.4</ele>
        <time>2021-10-28 11:36:16</time>
      </trkpt>
      <trkpt lat="43.28722" lon="-3.20416">
        <ele>623.4</ele>
        <time>2021-10-28 11:36:17</time>
      </trkpt>
      <trkpt lat="43.28725" lon="-3.20417">
        <ele>623.4</ele>
        <time>2021-10-28 11:36:18</time>
      </trkpt>
      <trkpt lat="43.28726" lon="-3.2042">
        <ele>623.6</ele>
        <time>2021-10-28 11:36:19</time>
      </trkpt>
      <trkpt lat="43.28726" lon="-3.2042">
        <ele>623.8</ele>
        <time>2021-10-28 11:36:20</time>
      </trkpt>
      <trkpt lat="43.28729" lon="-3.20421">
        <ele>623.8</ele>
        <time>2021-10-28 11:36:21</time>
      </trkpt>
      <trkpt lat="43.2873" lon="-3.20422">
        <ele>624</ele>
        <time>2021-10-28 11:36:22</time>
      </trkpt>
      <trkpt lat="43.28732" lon="-3.20423">
        <ele>624.2</ele>
        <time>2021-10-28 11:36:23</time>
      </trkpt>
      <trkpt lat="43.28736" lon="-3.20429">
        <ele>624.4</ele>
        <time>2021-10-28 11:36:24</time>
      </trkpt>
      <trkpt lat="43.28736" lon="-3.20429">
        <ele>624.4</ele>
        <time>2021-10-28 11:36:25</time>
      </trkpt>
      <trkpt lat="43.28736" lon="-3.20429">
        <ele>624.6</ele>
        <time>2021-10-28 11:36:26</time>
      </trkpt>
      <trkpt lat="43.28736" lon="-3.20434">
        <ele>624.8</ele>
        <time>2021-10-28 11:36:27</time>
      </trkpt>
      <trkpt lat="43.28736" lon="-3.20434">
        <ele>625</ele>
        <time>2021-10-28 11:36:28</time>
      </trkpt>
      <trkpt lat="43.28736" lon="-3.20436">
        <ele>625.2</ele>
        <time>2021-10-28 11:36:29</time>
      </trkpt>
      <trkpt lat="43.28736" lon="-3.20436">
        <ele>625.4</ele>
        <time>2021-10-28 11:36:30</time>
      </trkpt>
      <trkpt lat="43.28736" lon="-3.20438">
        <ele>625.6</ele>
        <time>2021-10-28 11:36:31</time>
      </trkpt>
      <trkpt lat="43.28736" lon="-3.20438">
        <ele>625.8</ele>
        <time>2021-10-28 11:36:32</time>
      </trkpt>
      <trkpt lat="43.28738" lon="-3.20439">
        <ele>625.8</ele>
        <time>2021-10-28 11:36:33</time>
      </trkpt>
      <trkpt lat="43.28738" lon="-3.20438">
        <ele>625.8</ele>
        <time>2021-10-28 11:36:34</time>
      </trkpt>
      <trkpt lat="43.28737" lon="-3.2044">
        <ele>625.8</ele>
        <time>2021-10-28 11:36:35</time>
      </trkpt>
      <trkpt lat="43.28737" lon="-3.2044">
        <ele>625.8</ele>
        <time>2021-10-28 11:36:36</time>
      </trkpt>
      <trkpt lat="43.28737" lon="-3.2044">
        <ele>625.8</ele>
        <time>2021-10-28 11:36:37</time>
      </trkpt>
      <trkpt lat="43.28737" lon="-3.20441">
        <ele>625.8</ele>
        <time>2021-10-28 11:36:38</time>
      </trkpt>
      <trkpt lat="43.28737" lon="-3.20441">
        <ele>626</ele>
        <time>2021-10-28 11:36:39</time>
      </trkpt>
      <trkpt lat="43.28736" lon="-3.20443">
        <ele>626.2</ele>
        <time>2021-10-28 11:36:40</time>
      </trkpt>
      <trkpt lat="43.28731" lon="-3.20458">
        <ele>626.8</ele>
        <time>2021-10-28 11:36:41</time>
      </trkpt>
      <trkpt lat="43.28731" lon="-3.2046">
        <ele>626.8</ele>
        <time>2021-10-28 11:36:42</time>
      </trkpt>
      <trkpt lat="43.2873" lon="-3.20463">
        <ele>627</ele>
        <time>2021-10-28 11:36:43</time>
      </trkpt>
      <trkpt lat="43.28728" lon="-3.20468">
        <ele>627.2</ele>
        <time>2021-10-28 11:36:44</time>
      </trkpt>
      <trkpt lat="43.28728" lon="-3.20468">
        <ele>627.4</ele>
        <time>2021-10-28 11:36:45</time>
      </trkpt>
      <trkpt lat="43.28729" lon="-3.20471">
        <ele>627.6</ele>
        <time>2021-10-28 11:36:46</time>
      </trkpt>
      <trkpt lat="43.28728" lon="-3.20474">
        <ele>627.6</ele>
        <time>2021-10-28 11:36:47</time>
      </trkpt>
      <trkpt lat="43.28724" lon="-3.20484">
        <ele>627.8</ele>
        <time>2021-10-28 11:36:48</time>
      </trkpt>
      <trkpt lat="43.28724" lon="-3.20484">
        <ele>627.8</ele>
        <time>2021-10-28 11:36:49</time>
      </trkpt>
      <trkpt lat="43.28724" lon="-3.20484">
        <ele>628</ele>
        <time>2021-10-28 11:36:50</time>
      </trkpt>
      <trkpt lat="43.28723" lon="-3.2049">
        <ele>628</ele>
        <time>2021-10-28 11:36:51</time>
      </trkpt>
      <trkpt lat="43.28723" lon="-3.2049">
        <ele>628.2</ele>
        <time>2021-10-28 11:36:52</time>
      </trkpt>
      <trkpt lat="43.28724" lon="-3.20491">
        <ele>628.4</ele>
        <time>2021-10-28 11:36:53</time>
      </trkpt>
      <trkpt lat="43.28724" lon="-3.20492">
        <ele>628.6</ele>
        <time>2021-10-28 11:36:54</time>
      </trkpt>
      <trkpt lat="43.28724" lon="-3.20494">
        <ele>628.8</ele>
        <time>2021-10-28 11:36:55</time>
      </trkpt>
      <trkpt lat="43.28725" lon="-3.205">
        <ele>629</ele>
        <time>2021-10-28 11:36:56</time>
      </trkpt>
      <trkpt lat="43.28725" lon="-3.205">
        <ele>629.2</ele>
        <time>2021-10-28 11:36:57</time>
      </trkpt>
      <trkpt lat="43.28723" lon="-3.20503">
        <ele>629.4</ele>
        <time>2021-10-28 11:36:58</time>
      </trkpt>
      <trkpt lat="43.28724" lon="-3.20509">
        <ele>629.4</ele>
        <time>2021-10-28 11:36:59</time>
      </trkpt>
      <trkpt lat="43.28724" lon="-3.20509">
        <ele>629.6</ele>
        <time>2021-10-28 11:37:00</time>
      </trkpt>
      <trkpt lat="43.28724" lon="-3.20509">
        <ele>630</ele>
        <time>2021-10-28 11:37:01</time>
      </trkpt>
      <trkpt lat="43.28724" lon="-3.20511">
        <ele>630.2</ele>
        <time>2021-10-28 11:37:09</time>
      </trkpt>
      <trkpt lat="43.28723" lon="-3.20518">
        <ele>630.6</ele>
        <time>2021-10-28 11:37:10</time>
      </trkpt>
      <trkpt lat="43.28723" lon="-3.20518">
        <ele>630.8</ele>
        <time>2021-10-28 11:37:11</time>
      </trkpt>
      <trkpt lat="43.28722" lon="-3.2052">
        <ele>631</ele>
        <time>2021-10-28 11:37:12</time>
      </trkpt>
      <trkpt lat="43.28721" lon="-3.20525">
        <ele>631.2</ele>
        <time>2021-10-28 11:37:13</time>
      </trkpt>
      <trkpt lat="43.28721" lon="-3.20525">
        <ele>631.4</ele>
        <time>2021-10-28 11:37:14</time>
      </trkpt>
      <trkpt lat="43.2872" lon="-3.20529">
        <ele>631.6</ele>
        <time>2021-10-28 11:37:15</time>
      </trkpt>
      <trkpt lat="43.2872" lon="-3.20529">
        <ele>631.8</ele>
        <time>2021-10-28 11:37:16</time>
      </trkpt>
      <trkpt lat="43.28719" lon="-3.20531">
        <ele>632</ele>
        <time>2021-10-28 11:37:17</time>
      </trkpt>
      <trkpt lat="43.28715" lon="-3.20534">
        <ele>632.2</ele>
        <time>2021-10-28 11:37:18</time>
      </trkpt>
      <trkpt lat="43.28715" lon="-3.20534">
        <ele>632.4</ele>
        <time>2021-10-28 11:37:19</time>
      </trkpt>
      <trkpt lat="43.28714" lon="-3.20534">
        <ele>632.4</ele>
        <time>2021-10-28 11:37:20</time>
      </trkpt>
      <trkpt lat="43.28712" lon="-3.20535">
        <ele>632.6</ele>
        <time>2021-10-28 11:37:21</time>
      </trkpt>
      <trkpt lat="43.28709" lon="-3.20538">
        <ele>632.8</ele>
        <time>2021-10-28 11:37:22</time>
      </trkpt>
      <trkpt lat="43.28709" lon="-3.20538">
        <ele>633</ele>
        <time>2021-10-28 11:37:23</time>
      </trkpt>
      <trkpt lat="43.28706" lon="-3.20539">
        <ele>633.4</ele>
        <time>2021-10-28 11:37:24</time>
      </trkpt>
      <trkpt lat="43.28701" lon="-3.20541">
        <ele>633.6</ele>
        <time>2021-10-28 11:37:25</time>
      </trkpt>
      <trkpt lat="43.28698" lon="-3.20545">
        <ele>633.8</ele>
        <time>2021-10-28 11:37:26</time>
      </trkpt>
      <trkpt lat="43.28698" lon="-3.20545">
        <ele>634.2</ele>
        <time>2021-10-28 11:37:27</time>
      </trkpt>
      <trkpt lat="43.28698" lon="-3.20545">
        <ele>634.4</ele>
        <time>2021-10-28 11:37:28</time>
      </trkpt>
      <trkpt lat="43.28697" lon="-3.20546">
        <ele>634.6</ele>
        <time>2021-10-28 11:37:29</time>
      </trkpt>
      <trkpt lat="43.28695" lon="-3.20547">
        <ele>634.8</ele>
        <time>2021-10-28 11:37:30</time>
      </trkpt>
      <trkpt lat="43.28694" lon="-3.20549">
        <ele>635</ele>
        <time>2021-10-28 11:37:31</time>
      </trkpt>
      <trkpt lat="43.28692" lon="-3.20551">
        <ele>635.2</ele>
        <time>2021-10-28 11:37:32</time>
      </trkpt>
      <trkpt lat="43.28692" lon="-3.20551">
        <ele>635.4</ele>
        <time>2021-10-28 11:37:33</time>
      </trkpt>
      <trkpt lat="43.28692" lon="-3.20551">
        <ele>635.6</ele>
        <time>2021-10-28 11:37:34</time>
      </trkpt>
      <trkpt lat="43.28687" lon="-3.20554">
        <ele>635.8</ele>
        <time>2021-10-28 11:37:35</time>
      </trkpt>
      <trkpt lat="43.28685" lon="-3.20556">
        <ele>636</ele>
        <time>2021-10-28 11:37:36</time>
      </trkpt>
      <trkpt lat="43.28685" lon="-3.20556">
        <ele>636</ele>
        <time>2021-10-28 11:37:37</time>
      </trkpt>
      <trkpt lat="43.28683" lon="-3.20561">
        <ele>636.2</ele>
        <time>2021-10-28 11:37:38</time>
      </trkpt>
      <trkpt lat="43.28683" lon="-3.20561">
        <ele>636.2</ele>
        <time>2021-10-28 11:37:39</time>
      </trkpt>
      <trkpt lat="43.28683" lon="-3.20561">
        <ele>636.4</ele>
        <time>2021-10-28 11:37:40</time>
      </trkpt>
      <trkpt lat="43.28681" lon="-3.20562">
        <ele>636.6</ele>
        <time>2021-10-28 11:37:41</time>
      </trkpt>
      <trkpt lat="43.2868" lon="-3.20563">
        <ele>636.8</ele>
        <time>2021-10-28 11:37:42</time>
      </trkpt>
      <trkpt lat="43.28677" lon="-3.20566">
        <ele>637</ele>
        <time>2021-10-28 11:37:43</time>
      </trkpt>
      <trkpt lat="43.28677" lon="-3.20568">
        <ele>637</ele>
        <time>2021-10-28 11:37:44</time>
      </trkpt>
      <trkpt lat="43.28675" lon="-3.20569">
        <ele>637.2</ele>
        <time>2021-10-28 11:37:45</time>
      </trkpt>
      <trkpt lat="43.28673" lon="-3.20574">
        <ele>637.2</ele>
        <time>2021-10-28 11:37:46</time>
      </trkpt>
      <trkpt lat="43.28673" lon="-3.20574">
        <ele>637.4</ele>
        <time>2021-10-28 11:37:47</time>
      </trkpt>
      <trkpt lat="43.28673" lon="-3.20574">
        <ele>637.4</ele>
        <time>2021-10-28 11:37:48</time>
      </trkpt>
      <trkpt lat="43.28673" lon="-3.20577">
        <ele>637.6</ele>
        <time>2021-10-28 11:37:49</time>
      </trkpt>
      <trkpt lat="43.2867" lon="-3.2058">
        <ele>637.6</ele>
        <time>2021-10-28 11:37:50</time>
      </trkpt>
      <trkpt lat="43.2867" lon="-3.2058">
        <ele>637.6</ele>
        <time>2021-10-28 11:37:51</time>
      </trkpt>
      <trkpt lat="43.28666" lon="-3.20583">
        <ele>637.8</ele>
        <time>2021-10-28 11:37:52</time>
      </trkpt>
      <trkpt lat="43.28666" lon="-3.20583">
        <ele>637.8</ele>
        <time>2021-10-28 11:37:53</time>
      </trkpt>
      <trkpt lat="43.28666" lon="-3.20583">
        <ele>638</ele>
        <time>2021-10-28 11:37:54</time>
      </trkpt>
      <trkpt lat="43.28662" lon="-3.20584">
        <ele>638.2</ele>
        <time>2021-10-28 11:37:55</time>
      </trkpt>
      <trkpt lat="43.2866" lon="-3.20586">
        <ele>638.4</ele>
        <time>2021-10-28 11:37:56</time>
      </trkpt>
      <trkpt lat="43.28658" lon="-3.20589">
        <ele>638.6</ele>
        <time>2021-10-28 11:37:57</time>
      </trkpt>
      <trkpt lat="43.28658" lon="-3.20591">
        <ele>639</ele>
        <time>2021-10-28 11:37:58</time>
      </trkpt>
      <trkpt lat="43.28658" lon="-3.20591">
        <ele>639.2</ele>
        <time>2021-10-28 11:37:59</time>
      </trkpt>
      <trkpt lat="43.28657" lon="-3.20591">
        <ele>639.4</ele>
        <time>2021-10-28 11:38:00</time>
      </trkpt>
      <trkpt lat="43.28654" lon="-3.20593">
        <ele>639.6</ele>
        <time>2021-10-28 11:38:01</time>
      </trkpt>
      <trkpt lat="43.28654" lon="-3.20593">
        <ele>640</ele>
        <time>2021-10-28 11:38:02</time>
      </trkpt>
      <trkpt lat="43.28652" lon="-3.20594">
        <ele>640</ele>
        <time>2021-10-28 11:38:03</time>
      </trkpt>
      <trkpt lat="43.28651" lon="-3.20597">
        <ele>640.2</ele>
        <time>2021-10-28 11:38:04</time>
      </trkpt>
      <trkpt lat="43.2865" lon="-3.20598">
        <ele>640.2</ele>
        <time>2021-10-28 11:38:05</time>
      </trkpt>
      <trkpt lat="43.28648" lon="-3.20604">
        <ele>640.6</ele>
        <time>2021-10-28 11:38:06</time>
      </trkpt>
      <trkpt lat="43.28648" lon="-3.20604">
        <ele>640.8</ele>
        <time>2021-10-28 11:38:07</time>
      </trkpt>
      <trkpt lat="43.28648" lon="-3.20604">
        <ele>641.2</ele>
        <time>2021-10-28 11:38:08</time>
      </trkpt>
      <trkpt lat="43.28648" lon="-3.20607">
        <ele>641.4</ele>
        <time>2021-10-28 11:38:09</time>
      </trkpt>
      <trkpt lat="43.28647" lon="-3.20608">
        <ele>641.8</ele>
        <time>2021-10-28 11:38:10</time>
      </trkpt>
      <trkpt lat="43.28647" lon="-3.20611">
        <ele>642</ele>
        <time>2021-10-28 11:38:11</time>
      </trkpt>
      <trkpt lat="43.28646" lon="-3.20614">
        <ele>642.2</ele>
        <time>2021-10-28 11:38:12</time>
      </trkpt>
      <trkpt lat="43.28646" lon="-3.20614">
        <ele>642.4</ele>
        <time>2021-10-28 11:38:13</time>
      </trkpt>
      <trkpt lat="43.28647" lon="-3.20617">
        <ele>642.6</ele>
        <time>2021-10-28 11:38:14</time>
      </trkpt>
      <trkpt lat="43.28647" lon="-3.20625">
        <ele>642.6</ele>
        <time>2021-10-28 11:38:15</time>
      </trkpt>
      <trkpt lat="43.28647" lon="-3.20625">
        <ele>642.8</ele>
        <time>2021-10-28 11:38:16</time>
      </trkpt>
      <trkpt lat="43.28647" lon="-3.20625">
        <ele>642.8</ele>
        <time>2021-10-28 11:38:17</time>
      </trkpt>
      <trkpt lat="43.28646" lon="-3.20627">
        <ele>643</ele>
        <time>2021-10-28 11:38:18</time>
      </trkpt>
      <trkpt lat="43.28646" lon="-3.20631">
        <ele>643.2</ele>
        <time>2021-10-28 11:38:19</time>
      </trkpt>
      <trkpt lat="43.28646" lon="-3.20631">
        <ele>643.2</ele>
        <time>2021-10-28 11:38:20</time>
      </trkpt>
      <trkpt lat="43.28644" lon="-3.20632">
        <ele>643.4</ele>
        <time>2021-10-28 11:38:21</time>
      </trkpt>
      <trkpt lat="43.28644" lon="-3.20633">
        <ele>643.6</ele>
        <time>2021-10-28 11:38:22</time>
      </trkpt>
      <trkpt lat="43.28643" lon="-3.20634">
        <ele>643.8</ele>
        <time>2021-10-28 11:38:23</time>
      </trkpt>
      <trkpt lat="43.28642" lon="-3.20635">
        <ele>644</ele>
        <time>2021-10-28 11:38:24</time>
      </trkpt>
      <trkpt lat="43.28641" lon="-3.20641">
        <ele>644.2</ele>
        <time>2021-10-28 11:38:25</time>
      </trkpt>
      <trkpt lat="43.2864" lon="-3.20646">
        <ele>644.2</ele>
        <time>2021-10-28 11:38:26</time>
      </trkpt>
      <trkpt lat="43.2864" lon="-3.20646">
        <ele>644.6</ele>
        <time>2021-10-28 11:38:27</time>
      </trkpt>
      <trkpt lat="43.2864" lon="-3.20646">
        <ele>644.8</ele>
        <time>2021-10-28 11:38:28</time>
      </trkpt>
      <trkpt lat="43.28638" lon="-3.20649">
        <ele>645.2</ele>
        <time>2021-10-28 11:38:29</time>
      </trkpt>
      <trkpt lat="43.28638" lon="-3.20651">
        <ele>645.6</ele>
        <time>2021-10-28 11:38:30</time>
      </trkpt>
      <trkpt lat="43.28636" lon="-3.20655">
        <ele>646.2</ele>
        <time>2021-10-28 11:38:31</time>
      </trkpt>
      <trkpt lat="43.28636" lon="-3.20655">
        <ele>646.6</ele>
        <time>2021-10-28 11:38:32</time>
      </trkpt>
      <trkpt lat="43.28636" lon="-3.20658">
        <ele>647.2</ele>
        <time>2021-10-28 11:38:33</time>
      </trkpt>
      <trkpt lat="43.28635" lon="-3.20661">
        <ele>647.6</ele>
        <time>2021-10-28 11:38:34</time>
      </trkpt>
      <trkpt lat="43.28633" lon="-3.20664">
        <ele>647.8</ele>
        <time>2021-10-28 11:38:35</time>
      </trkpt>
      <trkpt lat="43.28633" lon="-3.20664">
        <ele>647.8</ele>
        <time>2021-10-28 11:38:36</time>
      </trkpt>
      <trkpt lat="43.28633" lon="-3.20664">
        <ele>648</ele>
        <time>2021-10-28 11:38:37</time>
      </trkpt>
      <trkpt lat="43.28631" lon="-3.20669">
        <ele>648</ele>
        <time>2021-10-28 11:38:38</time>
      </trkpt>
      <trkpt lat="43.28631" lon="-3.20669">
        <ele>648.2</ele>
        <time>2021-10-28 11:38:39</time>
      </trkpt>
      <trkpt lat="43.2863" lon="-3.2067">
        <ele>648.2</ele>
        <time>2021-10-28 11:38:40</time>
      </trkpt>
      <trkpt lat="43.28629" lon="-3.20673">
        <ele>648.4</ele>
        <time>2021-10-28 11:38:41</time>
      </trkpt>
      <trkpt lat="43.28628" lon="-3.20676">
        <ele>648.4</ele>
        <time>2021-10-28 11:38:42</time>
      </trkpt>
      <trkpt lat="43.28628" lon="-3.20676">
        <ele>648.6</ele>
        <time>2021-10-28 11:38:43</time>
      </trkpt>
      <trkpt lat="43.28625" lon="-3.20677">
        <ele>648.8</ele>
        <time>2021-10-28 11:38:44</time>
      </trkpt>
      <trkpt lat="43.28623" lon="-3.20679">
        <ele>649</ele>
        <time>2021-10-28 11:38:45</time>
      </trkpt>
      <trkpt lat="43.28623" lon="-3.20679">
        <ele>649</ele>
        <time>2021-10-28 11:38:46</time>
      </trkpt>
      <trkpt lat="43.28621" lon="-3.20683">
        <ele>649.4</ele>
        <time>2021-10-28 11:38:47</time>
      </trkpt>
      <trkpt lat="43.28621" lon="-3.20683">
        <ele>649.6</ele>
        <time>2021-10-28 11:38:48</time>
      </trkpt>
      <trkpt lat="43.2862" lon="-3.20684">
        <ele>650</ele>
        <time>2021-10-28 11:38:49</time>
      </trkpt>
      <trkpt lat="43.2862" lon="-3.20685">
        <ele>650.2</ele>
        <time>2021-10-28 11:38:50</time>
      </trkpt>
      <trkpt lat="43.28618" lon="-3.20688">
        <ele>650.4</ele>
        <time>2021-10-28 11:38:51</time>
      </trkpt>
      <trkpt lat="43.28615" lon="-3.20691">
        <ele>650.6</ele>
        <time>2021-10-28 11:38:52</time>
      </trkpt>
      <trkpt lat="43.28615" lon="-3.20691">
        <ele>650.8</ele>
        <time>2021-10-28 11:38:53</time>
      </trkpt>
      <trkpt lat="43.28613" lon="-3.20694">
        <ele>650.8</ele>
        <time>2021-10-28 11:38:54</time>
      </trkpt>
      <trkpt lat="43.2861" lon="-3.20697">
        <ele>651</ele>
        <time>2021-10-28 11:38:55</time>
      </trkpt>
      <trkpt lat="43.2861" lon="-3.20697">
        <ele>651.4</ele>
        <time>2021-10-28 11:38:56</time>
      </trkpt>
      <trkpt lat="43.28609" lon="-3.207">
        <ele>651.6</ele>
        <time>2021-10-28 11:38:57</time>
      </trkpt>
      <trkpt lat="43.28609" lon="-3.207">
        <ele>652</ele>
        <time>2021-10-28 11:38:58</time>
      </trkpt>
      <trkpt lat="43.28609" lon="-3.207">
        <ele>652</ele>
        <time>2021-10-28 11:38:59</time>
      </trkpt>
      <trkpt lat="43.28608" lon="-3.20702">
        <ele>652.2</ele>
        <time>2021-10-28 11:39:00</time>
      </trkpt>
      <trkpt lat="43.28606" lon="-3.20703">
        <ele>652.4</ele>
        <time>2021-10-28 11:39:01</time>
      </trkpt>
      <trkpt lat="43.28605" lon="-3.20707">
        <ele>652.6</ele>
        <time>2021-10-28 11:39:02</time>
      </trkpt>
      <trkpt lat="43.28605" lon="-3.20707">
        <ele>653</ele>
        <time>2021-10-28 11:39:03</time>
      </trkpt>
      <trkpt lat="43.28605" lon="-3.20707">
        <ele>653.2</ele>
        <time>2021-10-28 11:39:04</time>
      </trkpt>
      <trkpt lat="43.28605" lon="-3.20708">
        <ele>653.6</ele>
        <time>2021-10-28 11:39:05</time>
      </trkpt>
      <trkpt lat="43.28604" lon="-3.20712">
        <ele>653.6</ele>
        <time>2021-10-28 11:39:06</time>
      </trkpt>
      <trkpt lat="43.28604" lon="-3.20713">
        <ele>654</ele>
        <time>2021-10-28 11:39:07</time>
      </trkpt>
      <trkpt lat="43.28603" lon="-3.20713">
        <ele>654.4</ele>
        <time>2021-10-28 11:39:08</time>
      </trkpt>
      <trkpt lat="43.28603" lon="-3.20713">
        <ele>654.8</ele>
        <time>2021-10-28 11:39:09</time>
      </trkpt>
      <trkpt lat="43.28603" lon="-3.20713">
        <ele>655</ele>
        <time>2021-10-28 11:39:10</time>
      </trkpt>
      <trkpt lat="43.28598" lon="-3.20718">
        <ele>655.4</ele>
        <time>2021-10-28 11:39:11</time>
      </trkpt>
      <trkpt lat="43.28598" lon="-3.20718">
        <ele>655.6</ele>
        <time>2021-10-28 11:39:12</time>
      </trkpt>
      <trkpt lat="43.28598" lon="-3.20718">
        <ele>655.8</ele>
        <time>2021-10-28 11:39:13</time>
      </trkpt>
      <trkpt lat="43.28597" lon="-3.20722">
        <ele>656</ele>
        <time>2021-10-28 11:39:14</time>
      </trkpt>
      <trkpt lat="43.28597" lon="-3.20722">
        <ele>656</ele>
        <time>2021-10-28 11:39:15</time>
      </trkpt>
      <trkpt lat="43.28594" lon="-3.20724">
        <ele>656.2</ele>
        <time>2021-10-28 11:39:16</time>
      </trkpt>
      <trkpt lat="43.28593" lon="-3.20726">
        <ele>656.4</ele>
        <time>2021-10-28 11:39:17</time>
      </trkpt>
      <trkpt lat="43.28593" lon="-3.20726">
        <ele>656.6</ele>
        <time>2021-10-28 11:39:18</time>
      </trkpt>
      <trkpt lat="43.28592" lon="-3.20729">
        <ele>656.8</ele>
        <time>2021-10-28 11:39:19</time>
      </trkpt>
      <trkpt lat="43.28592" lon="-3.20729">
        <ele>657.2</ele>
        <time>2021-10-28 11:39:20</time>
      </trkpt>
      <trkpt lat="43.2859" lon="-3.2073">
        <ele>657.4</ele>
        <time>2021-10-28 11:39:21</time>
      </trkpt>
      <trkpt lat="43.28587" lon="-3.20731">
        <ele>657.8</ele>
        <time>2021-10-28 11:39:22</time>
      </trkpt>
      <trkpt lat="43.28587" lon="-3.20733">
        <ele>658.2</ele>
        <time>2021-10-28 11:39:23</time>
      </trkpt>
      <trkpt lat="43.28587" lon="-3.20733">
        <ele>658.4</ele>
        <time>2021-10-28 11:39:24</time>
      </trkpt>
      <trkpt lat="43.28584" lon="-3.20737">
        <ele>658.6</ele>
        <time>2021-10-28 11:39:25</time>
      </trkpt>
      <trkpt lat="43.28584" lon="-3.20737">
        <ele>659</ele>
        <time>2021-10-28 11:39:26</time>
      </trkpt>
      <trkpt lat="43.28584" lon="-3.20737">
        <ele>659.2</ele>
        <time>2021-10-28 11:39:27</time>
      </trkpt>
      <trkpt lat="43.28581" lon="-3.20741">
        <ele>659.4</ele>
        <time>2021-10-28 11:39:28</time>
      </trkpt>
      <trkpt lat="43.28581" lon="-3.20741">
        <ele>659.6</ele>
        <time>2021-10-28 11:39:29</time>
      </trkpt>
      <trkpt lat="43.28581" lon="-3.20741">
        <ele>659.6</ele>
        <time>2021-10-28 11:39:30</time>
      </trkpt>
      <trkpt lat="43.28582" lon="-3.20743">
        <ele>659.6</ele>
        <time>2021-10-28 11:39:31</time>
      </trkpt>
      <trkpt lat="43.28582" lon="-3.20743">
        <ele>659.6</ele>
        <time>2021-10-28 11:39:32</time>
      </trkpt>
      <trkpt lat="43.28582" lon="-3.20743">
        <ele>659.6</ele>
        <time>2021-10-28 11:39:33</time>
      </trkpt>
      <trkpt lat="43.28582" lon="-3.20745">
        <ele>659.4</ele>
        <time>2021-10-28 11:39:34</time>
      </trkpt>
      <trkpt lat="43.2858" lon="-3.20747">
        <ele>659.4</ele>
        <time>2021-10-28 11:39:35</time>
      </trkpt>
      <trkpt lat="43.28581" lon="-3.20749">
        <ele>659.6</ele>
        <time>2021-10-28 11:39:36</time>
      </trkpt>
      <trkpt lat="43.28581" lon="-3.20749">
        <ele>659.8</ele>
        <time>2021-10-28 11:39:37</time>
      </trkpt>
      <trkpt lat="43.28593" lon="-3.2072">
        <ele>658.8</ele>
        <time>2021-10-28 11:39:38</time>
      </trkpt>
      <trkpt lat="43.28596" lon="-3.20717">
        <ele>658.6</ele>
        <time>2021-10-28 11:39:39</time>
      </trkpt>
      <trkpt lat="43.28596" lon="-3.20717">
        <ele>658.4</ele>
        <time>2021-10-28 11:39:40</time>
      </trkpt>
      <trkpt lat="43.28596" lon="-3.20717">
        <ele>658.2</ele>
        <time>2021-10-28 11:39:41</time>
      </trkpt>
      <trkpt lat="43.28596" lon="-3.20717">
        <ele>658</ele>
        <time>2021-10-28 11:39:42</time>
      </trkpt>
      <trkpt lat="43.28599" lon="-3.20711">
        <ele>657.8</ele>
        <time>2021-10-28 11:39:43</time>
      </trkpt>
      <trkpt lat="43.28599" lon="-3.20711">
        <ele>657.4</ele>
        <time>2021-10-28 11:39:44</time>
      </trkpt>
      <trkpt lat="43.28601" lon="-3.20709">
        <ele>657</ele>
        <time>2021-10-28 11:39:45</time>
      </trkpt>
      <trkpt lat="43.28604" lon="-3.20703">
        <ele>656.4</ele>
        <time>2021-10-28 11:39:46</time>
      </trkpt>
      <trkpt lat="43.28604" lon="-3.20703">
        <ele>655.6</ele>
        <time>2021-10-28 11:39:47</time>
      </trkpt>
      <trkpt lat="43.28612" lon="-3.20694">
        <ele>654.8</ele>
        <time>2021-10-28 11:39:48</time>
      </trkpt>
      <trkpt lat="43.28612" lon="-3.20694">
        <ele>654.2</ele>
        <time>2021-10-28 11:39:49</time>
      </trkpt>
      <trkpt lat="43.28615" lon="-3.20691">
        <ele>653.8</ele>
        <time>2021-10-28 11:39:50</time>
      </trkpt>
      <trkpt lat="43.28615" lon="-3.20691">
        <ele>653.4</ele>
        <time>2021-10-28 11:39:51</time>
      </trkpt>
      <trkpt lat="43.28617" lon="-3.20688">
        <ele>652.8</ele>
        <time>2021-10-28 11:39:52</time>
      </trkpt>
      <trkpt lat="43.2862" lon="-3.20685">
        <ele>652.4</ele>
        <time>2021-10-28 11:39:53</time>
      </trkpt>
      <trkpt lat="43.28621" lon="-3.20681">
        <ele>652</ele>
        <time>2021-10-28 11:39:54</time>
      </trkpt>
      <trkpt lat="43.28623" lon="-3.20679">
        <ele>651.6</ele>
        <time>2021-10-28 11:39:55</time>
      </trkpt>
      <trkpt lat="43.28629" lon="-3.20671">
        <ele>651.2</ele>
        <time>2021-10-28 11:39:56</time>
      </trkpt>
      <trkpt lat="43.28629" lon="-3.20671">
        <ele>650.8</ele>
        <time>2021-10-28 11:39:57</time>
      </trkpt>
      <trkpt lat="43.28631" lon="-3.20668">
        <ele>650.4</ele>
        <time>2021-10-28 11:39:58</time>
      </trkpt>
      <trkpt lat="43.28635" lon="-3.20657">
        <ele>650.2</ele>
        <time>2021-10-28 11:52:17</time>
      </trkpt>
      <trkpt lat="43.28635" lon="-3.20657">
        <ele>649.8</ele>
        <time>2021-10-28 11:52:18</time>
      </trkpt>
      <trkpt lat="43.28635" lon="-3.20657">
        <ele>649.6</ele>
        <time>2021-10-28 11:52:19</time>
      </trkpt>
      <trkpt lat="43.28636" lon="-3.20654">
        <ele>649.2</ele>
        <time>2021-10-28 11:52:20</time>
      </trkpt>
      <trkpt lat="43.28639" lon="-3.2065">
        <ele>648.8</ele>
        <time>2021-10-28 11:52:21</time>
      </trkpt>
      <trkpt lat="43.28639" lon="-3.20644">
        <ele>648.4</ele>
        <time>2021-10-28 11:52:22</time>
      </trkpt>
      <trkpt lat="43.28639" lon="-3.20644">
        <ele>648</ele>
        <time>2021-10-28 11:52:23</time>
      </trkpt>
      <trkpt lat="43.28641" lon="-3.20643">
        <ele>647.6</ele>
        <time>2021-10-28 11:52:24</time>
      </trkpt>
      <trkpt lat="43.28641" lon="-3.20639">
        <ele>647.4</ele>
        <time>2021-10-28 11:52:25</time>
      </trkpt>
      <trkpt lat="43.28641" lon="-3.20639">
        <ele>647</ele>
        <time>2021-10-28 11:52:26</time>
      </trkpt>
      <trkpt lat="43.28642" lon="-3.20634">
        <ele>646.6</ele>
        <time>2021-10-28 11:52:27</time>
      </trkpt>
      <trkpt lat="43.28642" lon="-3.20634">
        <ele>646.2</ele>
        <time>2021-10-28 11:52:28</time>
      </trkpt>
      <trkpt lat="43.28641" lon="-3.20634">
        <ele>646</ele>
        <time>2021-10-28 11:52:29</time>
      </trkpt>
      <trkpt lat="43.28641" lon="-3.20634">
        <ele>646</ele>
        <time>2021-10-28 11:52:30</time>
      </trkpt>
      <trkpt lat="43.28641" lon="-3.20633">
        <ele>646</ele>
        <time>2021-10-28 11:52:31</time>
      </trkpt>
      <trkpt lat="43.28641" lon="-3.20634">
        <ele>645.8</ele>
        <time>2021-10-28 11:52:32</time>
      </trkpt>
      <trkpt lat="43.28641" lon="-3.20634">
        <ele>645.8</ele>
        <time>2021-10-28 11:52:33</time>
      </trkpt>
      <trkpt lat="43.28642" lon="-3.20631">
        <ele>645.8</ele>
        <time>2021-10-28 11:52:34</time>
      </trkpt>
      <trkpt lat="43.28643" lon="-3.20628">
        <ele>645.6</ele>
        <time>2021-10-28 11:52:35</time>
      </trkpt>
      <trkpt lat="43.28643" lon="-3.20628">
        <ele>645.2</ele>
        <time>2021-10-28 11:52:36</time>
      </trkpt>
      <trkpt lat="43.28644" lon="-3.20624">
        <ele>645</ele>
        <time>2021-10-28 11:52:37</time>
      </trkpt>
      <trkpt lat="43.28644" lon="-3.20624">
        <ele>644.8</ele>
        <time>2021-10-28 11:52:38</time>
      </trkpt>
      <trkpt lat="43.2865" lon="-3.20603">
        <ele>643.2</ele>
        <time>2021-10-28 11:52:39</time>
      </trkpt>
      <trkpt lat="43.2865" lon="-3.20603">
        <ele>642.8</ele>
        <time>2021-10-28 11:52:40</time>
      </trkpt>
      <trkpt lat="43.28653" lon="-3.20598">
        <ele>642.2</ele>
        <time>2021-10-28 11:52:41</time>
      </trkpt>
      <trkpt lat="43.28655" lon="-3.20594">
        <ele>641.6</ele>
        <time>2021-10-28 11:52:42</time>
      </trkpt>
      <trkpt lat="43.28663" lon="-3.20585">
        <ele>641</ele>
        <time>2021-10-28 11:52:43</time>
      </trkpt>
      <trkpt lat="43.28663" lon="-3.20585">
        <ele>640.6</ele>
        <time>2021-10-28 11:52:44</time>
      </trkpt>
      <trkpt lat="43.28663" lon="-3.20585">
        <ele>640.2</ele>
        <time>2021-10-28 11:52:45</time>
      </trkpt>
      <trkpt lat="43.28665" lon="-3.20582">
        <ele>639.8</ele>
        <time>2021-10-28 11:52:46</time>
      </trkpt>
      <trkpt lat="43.28668" lon="-3.20579">
        <ele>639.4</ele>
        <time>2021-10-28 11:52:47</time>
      </trkpt>
      <trkpt lat="43.28671" lon="-3.20577">
        <ele>639.2</ele>
        <time>2021-10-28 11:52:48</time>
      </trkpt>
      <trkpt lat="43.28673" lon="-3.20575">
        <ele>638.8</ele>
        <time>2021-10-28 11:52:49</time>
      </trkpt>
      <trkpt lat="43.28675" lon="-3.20573">
        <ele>638.4</ele>
        <time>2021-10-28 11:52:50</time>
      </trkpt>
      <trkpt lat="43.28677" lon="-3.20569">
        <ele>638</ele>
        <time>2021-10-28 11:52:51</time>
      </trkpt>
      <trkpt lat="43.28677" lon="-3.20569">
        <ele>637.8</ele>
        <time>2021-10-28 11:52:52</time>
      </trkpt>
      <trkpt lat="43.28679" lon="-3.20567">
        <ele>637.8</ele>
        <time>2021-10-28 11:52:53</time>
      </trkpt>
      <trkpt lat="43.28681" lon="-3.20565">
        <ele>637.6</ele>
        <time>2021-10-28 11:52:54</time>
      </trkpt>
      <trkpt lat="43.28682" lon="-3.20565">
        <ele>637.6</ele>
        <time>2021-10-28 11:52:55</time>
      </trkpt>
      <trkpt lat="43.28682" lon="-3.20565">
        <ele>637.6</ele>
        <time>2021-10-28 11:52:56</time>
      </trkpt>
      <trkpt lat="43.28683" lon="-3.20563">
        <ele>637.4</ele>
        <time>2021-10-28 11:52:57</time>
      </trkpt>
      <trkpt lat="43.28683" lon="-3.20563">
        <ele>637.4</ele>
        <time>2021-10-28 11:52:58</time>
      </trkpt>
      <trkpt lat="43.28682" lon="-3.20562">
        <ele>637.4</ele>
        <time>2021-10-28 11:52:59</time>
      </trkpt>
      <trkpt lat="43.28682" lon="-3.20562">
        <ele>637.4</ele>
        <time>2021-10-28 11:53:05</time>
      </trkpt>
      <trkpt lat="43.28682" lon="-3.20562">
        <ele>637.4</ele>
        <time>2021-10-28 11:53:06</time>
      </trkpt>
      <trkpt lat="43.28683" lon="-3.20561">
        <ele>637.6</ele>
        <time>2021-10-28 11:53:07</time>
      </trkpt>
      <trkpt lat="43.28683" lon="-3.20561">
        <ele>637.6</ele>
        <time>2021-10-28 11:53:08</time>
      </trkpt>
      <trkpt lat="43.2864" lon="-3.20555">
        <ele>633</ele>
        <time>2021-10-28 11:53:09</time>
      </trkpt>
      <trkpt lat="43.2864" lon="-3.20555">
        <ele>633</ele>
        <time>2021-10-28 11:53:10</time>
      </trkpt>
      <trkpt lat="43.2864" lon="-3.20555">
        <ele>633</ele>
        <time>2021-10-28 11:53:11</time>
      </trkpt>
      <trkpt lat="43.28635" lon="-3.20557">
        <ele>632.6</ele>
        <time>2021-10-28 11:53:12</time>
      </trkpt>
      <trkpt lat="43.28634" lon="-3.20557">
        <ele>632.2</ele>
        <time>2021-10-28 11:53:13</time>
      </trkpt>
      <trkpt lat="43.28633" lon="-3.20555">
        <ele>631.8</ele>
        <time>2021-10-28 11:53:14</time>
      </trkpt>
      <trkpt lat="43.28636" lon="-3.20558">
        <ele>631.6</ele>
        <time>2021-10-28 11:53:15</time>
      </trkpt>
      <trkpt lat="43.28636" lon="-3.20558">
        <ele>631.6</ele>
        <time>2021-10-28 11:53:16</time>
      </trkpt>
      <trkpt lat="43.28636" lon="-3.20558">
        <ele>631.4</ele>
        <time>2021-10-28 11:53:17</time>
      </trkpt>
      <trkpt lat="43.28635" lon="-3.20556">
        <ele>631.4</ele>
        <time>2021-10-28 11:53:18</time>
      </trkpt>
      <trkpt lat="43.28635" lon="-3.20556">
        <ele>631.4</ele>
        <time>2021-10-28 11:53:19</time>
      </trkpt>
      <trkpt lat="43.28635" lon="-3.20556">
        <ele>631.4</ele>
        <time>2021-10-28 11:53:20</time>
      </trkpt>
      <trkpt lat="43.28635" lon="-3.20556">
        <ele>631.4</ele>
        <time>2021-10-28 11:53:21</time>
      </trkpt>
      <trkpt lat="43.28634" lon="-3.20556">
        <ele>631.4</ele>
        <time>2021-10-28 11:53:22</time>
      </trkpt>
      <trkpt lat="43.28635" lon="-3.20556">
        <ele>631.6</ele>
        <time>2021-10-28 11:53:23</time>
      </trkpt>
      <trkpt lat="43.28612" lon="-3.20593">
        <ele>629</ele>
        <time>2021-10-28 11:53:24</time>
      </trkpt>
      <trkpt lat="43.28612" lon="-3.20593">
        <ele>629</ele>
        <time>2021-10-28 11:53:25</time>
      </trkpt>
      <trkpt lat="43.28611" lon="-3.20598">
        <ele>629</ele>
        <time>2021-10-28 11:53:26</time>
      </trkpt>
      <trkpt lat="43.28611" lon="-3.20598">
        <ele>629</ele>
        <time>2021-10-28 11:53:27</time>
      </trkpt>
      <trkpt lat="43.2861" lon="-3.20604">
        <ele>629.2</ele>
        <time>2021-10-28 11:53:28</time>
      </trkpt>
      <trkpt lat="43.2861" lon="-3.20604">
        <ele>629.2</ele>
        <time>2021-10-28 11:53:29</time>
      </trkpt>
      <trkpt lat="43.28609" lon="-3.20611">
        <ele>629.2</ele>
        <time>2021-10-28 11:53:45</time>
      </trkpt>
      <trkpt lat="43.28609" lon="-3.20611">
        <ele>629.2</ele>
        <time>2021-10-28 11:53:46</time>
      </trkpt>
      <trkpt lat="43.28607" lon="-3.20612">
        <ele>629.2</ele>
        <time>2021-10-28 11:53:47</time>
      </trkpt>
      <trkpt lat="43.28606" lon="-3.20616">
        <ele>629.2</ele>
        <time>2021-10-28 11:53:48</time>
      </trkpt>
      <trkpt lat="43.28604" lon="-3.2062">
        <ele>629.2</ele>
        <time>2021-10-28 11:53:49</time>
      </trkpt>
      <trkpt lat="43.28604" lon="-3.2062">
        <ele>629.4</ele>
        <time>2021-10-28 11:53:50</time>
      </trkpt>
      <trkpt lat="43.28604" lon="-3.2062">
        <ele>629.4</ele>
        <time>2021-10-28 11:53:51</time>
      </trkpt>
      <trkpt lat="43.28603" lon="-3.20626">
        <ele>629.6</ele>
        <time>2021-10-28 11:53:52</time>
      </trkpt>
      <trkpt lat="43.28603" lon="-3.20626">
        <ele>629.8</ele>
        <time>2021-10-28 11:53:53</time>
      </trkpt>
      <trkpt lat="43.28601" lon="-3.20628">
        <ele>629.8</ele>
        <time>2021-10-28 11:53:54</time>
      </trkpt>
      <trkpt lat="43.28599" lon="-3.2063">
        <ele>630</ele>
        <time>2021-10-28 11:53:55</time>
      </trkpt>
      <trkpt lat="43.28599" lon="-3.2063">
        <ele>630.2</ele>
        <time>2021-10-28 11:53:56</time>
      </trkpt>
      <trkpt lat="43.28598" lon="-3.20631">
        <ele>630.2</ele>
        <time>2021-10-28 11:53:57</time>
      </trkpt>
      <trkpt lat="43.28597" lon="-3.20635">
        <ele>630.4</ele>
        <time>2021-10-28 11:53:58</time>
      </trkpt>
      <trkpt lat="43.28595" lon="-3.20637">
        <ele>630.4</ele>
        <time>2021-10-28 11:53:59</time>
      </trkpt>
      <trkpt lat="43.28595" lon="-3.20637">
        <ele>630.4</ele>
        <time>2021-10-28 11:55:03</time>
      </trkpt>
      <trkpt lat="43.28593" lon="-3.2064">
        <ele>630.6</ele>
        <time>2021-10-28 11:55:04</time>
      </trkpt>
      <trkpt lat="43.28593" lon="-3.2064">
        <ele>630.8</ele>
        <time>2021-10-28 11:55:05</time>
      </trkpt>
      <trkpt lat="43.28591" lon="-3.20642">
        <ele>631</ele>
        <time>2021-10-28 11:55:06</time>
      </trkpt>
      <trkpt lat="43.28588" lon="-3.20644">
        <ele>631.2</ele>
        <time>2021-10-28 11:55:07</time>
      </trkpt>
      <trkpt lat="43.28588" lon="-3.20644">
        <ele>631.4</ele>
        <time>2021-10-28 11:55:08</time>
      </trkpt>
      <trkpt lat="43.28589" lon="-3.20645">
        <ele>631.6</ele>
        <time>2021-10-28 11:55:09</time>
      </trkpt>
      <trkpt lat="43.28588" lon="-3.20648">
        <ele>631.8</ele>
        <time>2021-10-28 11:55:10</time>
      </trkpt>
      <trkpt lat="43.28588" lon="-3.20648">
        <ele>632</ele>
        <time>2021-10-28 11:55:11</time>
      </trkpt>
      <trkpt lat="43.28584" lon="-3.2065">
        <ele>632.2</ele>
        <time>2021-10-28 11:55:12</time>
      </trkpt>
      <trkpt lat="43.28584" lon="-3.2065">
        <ele>632.6</ele>
        <time>2021-10-28 11:55:13</time>
      </trkpt>
      <trkpt lat="43.28584" lon="-3.2065">
        <ele>633</ele>
        <time>2021-10-28 11:55:14</time>
      </trkpt>
      <trkpt lat="43.28583" lon="-3.20651">
        <ele>633.2</ele>
        <time>2021-10-28 11:55:15</time>
      </trkpt>
      <trkpt lat="43.28579" lon="-3.2065">
        <ele>633.4</ele>
        <time>2021-10-28 11:55:16</time>
      </trkpt>
      <trkpt lat="43.28579" lon="-3.2065">
        <ele>633.6</ele>
        <time>2021-10-28 11:55:17</time>
      </trkpt>
      <trkpt lat="43.28579" lon="-3.2065">
        <ele>634</ele>
        <time>2021-10-28 11:55:18</time>
      </trkpt>
      <trkpt lat="43.28577" lon="-3.20654">
        <ele>634.2</ele>
        <time>2021-10-28 11:55:19</time>
      </trkpt>
      <trkpt lat="43.28576" lon="-3.20656">
        <ele>634.2</ele>
        <time>2021-10-28 11:55:20</time>
      </trkpt>
      <trkpt lat="43.28576" lon="-3.20656">
        <ele>634.2</ele>
        <time>2021-10-28 11:55:21</time>
      </trkpt>
      <trkpt lat="43.28572" lon="-3.20656">
        <ele>634.4</ele>
        <time>2021-10-28 11:55:22</time>
      </trkpt>
      <trkpt lat="43.28572" lon="-3.20656">
        <ele>634.6</ele>
        <time>2021-10-28 11:55:23</time>
      </trkpt>
      <trkpt lat="43.28569" lon="-3.20658">
        <ele>634.8</ele>
        <time>2021-10-28 11:55:24</time>
      </trkpt>
      <trkpt lat="43.28569" lon="-3.20658">
        <ele>635.2</ele>
        <time>2021-10-28 11:55:25</time>
      </trkpt>
      <trkpt lat="43.28567" lon="-3.20657">
        <ele>635.4</ele>
        <time>2021-10-28 11:55:26</time>
      </trkpt>
      <trkpt lat="43.28564" lon="-3.20658">
        <ele>635.6</ele>
        <time>2021-10-28 11:55:27</time>
      </trkpt>
      <trkpt lat="43.28564" lon="-3.20658">
        <ele>635.8</ele>
        <time>2021-10-28 11:55:28</time>
      </trkpt>
      <trkpt lat="43.28563" lon="-3.20659">
        <ele>636</ele>
        <time>2021-10-28 11:55:29</time>
      </trkpt>
      <trkpt lat="43.2856" lon="-3.2066">
        <ele>636.2</ele>
        <time>2021-10-28 11:55:30</time>
      </trkpt>
      <trkpt lat="43.28557" lon="-3.20659">
        <ele>636.4</ele>
        <time>2021-10-28 11:55:31</time>
      </trkpt>
      <trkpt lat="43.28553" lon="-3.2066">
        <ele>636.6</ele>
        <time>2021-10-28 11:55:32</time>
      </trkpt>
      <trkpt lat="43.28553" lon="-3.2066">
        <ele>636.6</ele>
        <time>2021-10-28 11:55:33</time>
      </trkpt>
      <trkpt lat="43.28553" lon="-3.2066">
        <ele>636.8</ele>
        <time>2021-10-28 11:55:34</time>
      </trkpt>
      <trkpt lat="43.28552" lon="-3.20661">
        <ele>637</ele>
        <time>2021-10-28 11:55:35</time>
      </trkpt>
      <trkpt lat="43.2855" lon="-3.20662">
        <ele>637</ele>
        <time>2021-10-28 11:55:36</time>
      </trkpt>
      <trkpt lat="43.2855" lon="-3.20662">
        <ele>637.2</ele>
        <time>2021-10-28 11:55:37</time>
      </trkpt>
      <trkpt lat="43.28547" lon="-3.20661">
        <ele>637.4</ele>
        <time>2021-10-28 11:55:38</time>
      </trkpt>
      <trkpt lat="43.28547" lon="-3.20661">
        <ele>637.4</ele>
        <time>2021-10-28 11:55:39</time>
      </trkpt>
      <trkpt lat="43.28545" lon="-3.20661">
        <ele>637.4</ele>
        <time>2021-10-28 11:55:40</time>
      </trkpt>
      <trkpt lat="43.2854" lon="-3.20659">
        <ele>637.6</ele>
        <time>2021-10-28 11:55:41</time>
      </trkpt>
      <trkpt lat="43.2854" lon="-3.20659">
        <ele>637.6</ele>
        <time>2021-10-28 11:55:42</time>
      </trkpt>
      <trkpt lat="43.2854" lon="-3.20659">
        <ele>637.6</ele>
        <time>2021-10-28 11:55:43</time>
      </trkpt>
      <trkpt lat="43.28538" lon="-3.20658">
        <ele>637.8</ele>
        <time>2021-10-28 11:55:44</time>
      </trkpt>
      <trkpt lat="43.28535" lon="-3.20659">
        <ele>637.8</ele>
        <time>2021-10-28 11:55:45</time>
      </trkpt>
      <trkpt lat="43.28535" lon="-3.20659">
        <ele>637.8</ele>
        <time>2021-10-28 11:55:46</time>
      </trkpt>
      <trkpt lat="43.28533" lon="-3.20657">
        <ele>637.8</ele>
        <time>2021-10-28 11:55:47</time>
      </trkpt>
      <trkpt lat="43.28529" lon="-3.20657">
        <ele>638</ele>
        <time>2021-10-28 11:55:48</time>
      </trkpt>
      <trkpt lat="43.28529" lon="-3.20657">
        <ele>638</ele>
        <time>2021-10-28 11:55:49</time>
      </trkpt>
      <trkpt lat="43.28528" lon="-3.20656">
        <ele>638.2</ele>
        <time>2021-10-28 11:55:50</time>
      </trkpt>
      <trkpt lat="43.28526" lon="-3.20653">
        <ele>638.4</ele>
        <time>2021-10-28 11:55:51</time>
      </trkpt>
      <trkpt lat="43.28526" lon="-3.20653">
        <ele>638.4</ele>
        <time>2021-10-28 11:55:52</time>
      </trkpt>
      <trkpt lat="43.28524" lon="-3.20651">
        <ele>638.4</ele>
        <time>2021-10-28 11:55:53</time>
      </trkpt>
      <trkpt lat="43.28524" lon="-3.20651">
        <ele>638.6</ele>
        <time>2021-10-28 11:55:54</time>
      </trkpt>
      <trkpt lat="43.28523" lon="-3.20651">
        <ele>638.6</ele>
        <time>2021-10-28 11:55:55</time>
      </trkpt>
      <trkpt lat="43.28519" lon="-3.20648">
        <ele>638.6</ele>
        <time>2021-10-28 11:55:56</time>
      </trkpt>
      <trkpt lat="43.28519" lon="-3.20648">
        <ele>638.8</ele>
        <time>2021-10-28 11:55:57</time>
      </trkpt>
      <trkpt lat="43.28519" lon="-3.20648">
        <ele>638.8</ele>
        <time>2021-10-28 11:55:58</time>
      </trkpt>
      <trkpt lat="43.28513" lon="-3.20645">
        <ele>639</ele>
        <time>2021-10-28 11:55:59</time>
      </trkpt>
      <trkpt lat="43.28513" lon="-3.20645">
        <ele>639</ele>
        <time>2021-10-28 11:56:00</time>
      </trkpt>
      <trkpt lat="43.28513" lon="-3.20645">
        <ele>639.2</ele>
        <time>2021-10-28 11:56:01</time>
      </trkpt>
      <trkpt lat="43.2851" lon="-3.20645">
        <ele>639.2</ele>
        <time>2021-10-28 11:56:02</time>
      </trkpt>
      <trkpt lat="43.2851" lon="-3.20645">
        <ele>639.4</ele>
        <time>2021-10-28 11:56:03</time>
      </trkpt>
      <trkpt lat="43.28507" lon="-3.20645">
        <ele>639.6</ele>
        <time>2021-10-28 11:56:04</time>
      </trkpt>
      <trkpt lat="43.28507" lon="-3.20645">
        <ele>639.6</ele>
        <time>2021-10-28 11:56:05</time>
      </trkpt>
      <trkpt lat="43.28504" lon="-3.20644">
        <ele>639.8</ele>
        <time>2021-10-28 11:56:06</time>
      </trkpt>
      <trkpt lat="43.28501" lon="-3.20645">
        <ele>640</ele>
        <time>2021-10-28 11:56:07</time>
      </trkpt>
      <trkpt lat="43.28498" lon="-3.20647">
        <ele>640.2</ele>
        <time>2021-10-28 11:56:08</time>
      </trkpt>
      <trkpt lat="43.28498" lon="-3.20647">
        <ele>640.4</ele>
        <time>2021-10-28 11:56:09</time>
      </trkpt>
      <trkpt lat="43.28498" lon="-3.20647">
        <ele>640.6</ele>
        <time>2021-10-28 11:56:10</time>
      </trkpt>
      <trkpt lat="43.28495" lon="-3.20646">
        <ele>640.6</ele>
        <time>2021-10-28 11:56:11</time>
      </trkpt>
      <trkpt lat="43.28495" lon="-3.20646">
        <ele>640.6</ele>
        <time>2021-10-28 11:56:12</time>
      </trkpt>
      <trkpt lat="43.28492" lon="-3.20648">
        <ele>640.8</ele>
        <time>2021-10-28 11:56:13</time>
      </trkpt>
      <trkpt lat="43.28492" lon="-3.20648">
        <ele>640.8</ele>
        <time>2021-10-28 11:56:14</time>
      </trkpt>
      <trkpt lat="43.28491" lon="-3.20649">
        <ele>641</ele>
        <time>2021-10-28 11:56:15</time>
      </trkpt>
      <trkpt lat="43.28491" lon="-3.2065">
        <ele>641</ele>
        <time>2021-10-28 11:56:16</time>
      </trkpt>
      <trkpt lat="43.28489" lon="-3.20649">
        <ele>641.2</ele>
        <time>2021-10-28 11:56:17</time>
      </trkpt>
      <trkpt lat="43.28489" lon="-3.20649">
        <ele>641.4</ele>
        <time>2021-10-28 11:56:18</time>
      </trkpt>
      <trkpt lat="43.28489" lon="-3.20649">
        <ele>641.4</ele>
        <time>2021-10-28 11:56:19</time>
      </trkpt>
      <trkpt lat="43.28487" lon="-3.20653">
        <ele>641.6</ele>
        <time>2021-10-28 11:56:20</time>
      </trkpt>
      <trkpt lat="43.28487" lon="-3.20653">
        <ele>641.6</ele>
        <time>2021-10-28 11:56:21</time>
      </trkpt>
      <trkpt lat="43.28487" lon="-3.20653">
        <ele>641.8</ele>
        <time>2021-10-28 11:56:22</time>
      </trkpt>
      <trkpt lat="43.28484" lon="-3.20652">
        <ele>642</ele>
        <time>2021-10-28 11:56:23</time>
      </trkpt>
      <trkpt lat="43.28482" lon="-3.20652">
        <ele>642.2</ele>
        <time>2021-10-28 11:56:24</time>
      </trkpt>
      <trkpt lat="43.28481" lon="-3.20653">
        <ele>642.4</ele>
        <time>2021-10-28 11:56:25</time>
      </trkpt>
      <trkpt lat="43.28478" lon="-3.20656">
        <ele>642.6</ele>
        <time>2021-10-28 11:56:26</time>
      </trkpt>
      <trkpt lat="43.28478" lon="-3.20656">
        <ele>642.8</ele>
        <time>2021-10-28 11:56:27</time>
      </trkpt>
      <trkpt lat="43.28478" lon="-3.20656">
        <ele>642.8</ele>
        <time>2021-10-28 11:56:28</time>
      </trkpt>
      <trkpt lat="43.28473" lon="-3.20655">
        <ele>643</ele>
        <time>2021-10-28 11:56:29</time>
      </trkpt>
      <trkpt lat="43.28473" lon="-3.20655">
        <ele>643.2</ele>
        <time>2021-10-28 11:56:30</time>
      </trkpt>
      <trkpt lat="43.28472" lon="-3.20654">
        <ele>643.4</ele>
        <time>2021-10-28 11:56:31</time>
      </trkpt>
      <trkpt lat="43.28468" lon="-3.20654">
        <ele>643.4</ele>
        <time>2021-10-28 11:56:32</time>
      </trkpt>
      <trkpt lat="43.28468" lon="-3.20654">
        <ele>643.6</ele>
        <time>2021-10-28 11:56:33</time>
      </trkpt>
      <trkpt lat="43.28464" lon="-3.20656">
        <ele>643.8</ele>
        <time>2021-10-28 11:56:34</time>
      </trkpt>
      <trkpt lat="43.28462" lon="-3.20654">
        <ele>643.8</ele>
        <time>2021-10-28 11:56:35</time>
      </trkpt>
      <trkpt lat="43.28462" lon="-3.20654">
        <ele>644</ele>
        <time>2021-10-28 11:56:36</time>
      </trkpt>
      <trkpt lat="43.28462" lon="-3.20654">
        <ele>644.2</ele>
        <time>2021-10-28 11:56:37</time>
      </trkpt>
      <trkpt lat="43.28461" lon="-3.20654">
        <ele>644.4</ele>
        <time>2021-10-28 11:56:38</time>
      </trkpt>
      <trkpt lat="43.2846" lon="-3.20655">
        <ele>644.4</ele>
        <time>2021-10-28 11:56:39</time>
      </trkpt>
      <trkpt lat="43.28458" lon="-3.20654">
        <ele>644.6</ele>
        <time>2021-10-28 11:56:40</time>
      </trkpt>
      <trkpt lat="43.28457" lon="-3.20655">
        <ele>644.6</ele>
        <time>2021-10-28 11:56:41</time>
      </trkpt>
      <trkpt lat="43.28456" lon="-3.20655">
        <ele>644.8</ele>
        <time>2021-10-28 11:56:42</time>
      </trkpt>
      <trkpt lat="43.28451" lon="-3.20659">
        <ele>644.8</ele>
        <time>2021-10-28 11:56:43</time>
      </trkpt>
      <trkpt lat="43.28448" lon="-3.20661">
        <ele>644.8</ele>
        <time>2021-10-28 11:56:44</time>
      </trkpt>
      <trkpt lat="43.28448" lon="-3.20661">
        <ele>645</ele>
        <time>2021-10-28 11:56:45</time>
      </trkpt>
      <trkpt lat="43.28448" lon="-3.20661">
        <ele>645.2</ele>
        <time>2021-10-28 11:56:46</time>
      </trkpt>
      <trkpt lat="43.28448" lon="-3.20661">
        <ele>645.2</ele>
        <time>2021-10-28 11:56:47</time>
      </trkpt>
      <trkpt lat="43.28445" lon="-3.20661">
        <ele>645.4</ele>
        <time>2021-10-28 11:56:48</time>
      </trkpt>
      <trkpt lat="43.28442" lon="-3.20661">
        <ele>645.4</ele>
        <time>2021-10-28 11:56:49</time>
      </trkpt>
      <trkpt lat="43.28442" lon="-3.20661">
        <ele>645.6</ele>
        <time>2021-10-28 11:56:50</time>
      </trkpt>
      <trkpt lat="43.28439" lon="-3.2066">
        <ele>645.6</ele>
        <time>2021-10-28 11:56:51</time>
      </trkpt>
      <trkpt lat="43.28439" lon="-3.2066">
        <ele>645.8</ele>
        <time>2021-10-28 11:56:52</time>
      </trkpt>
      <trkpt lat="43.28432" lon="-3.20661">
        <ele>645.8</ele>
        <time>2021-10-28 11:56:53</time>
      </trkpt>
      <trkpt lat="43.28432" lon="-3.20661">
        <ele>646</ele>
        <time>2021-10-28 11:56:54</time>
      </trkpt>
      <trkpt lat="43.28432" lon="-3.20661">
        <ele>646</ele>
        <time>2021-10-28 11:56:55</time>
      </trkpt>
      <trkpt lat="43.2843" lon="-3.2066">
        <ele>646.2</ele>
        <time>2021-10-28 11:56:56</time>
      </trkpt>
      <trkpt lat="43.28428" lon="-3.2066">
        <ele>646.4</ele>
        <time>2021-10-28 11:56:57</time>
      </trkpt>
      <trkpt lat="43.28427" lon="-3.20659">
        <ele>646.4</ele>
        <time>2021-10-28 11:56:58</time>
      </trkpt>
      <trkpt lat="43.28425" lon="-3.20659">
        <ele>646.4</ele>
        <time>2021-10-28 11:56:59</time>
      </trkpt>
      <trkpt lat="43.28425" lon="-3.20659">
        <ele>646.6</ele>
        <time>2021-10-28 11:57:00</time>
      </trkpt>
      <trkpt lat="43.28422" lon="-3.20659">
        <ele>646.6</ele>
        <time>2021-10-28 11:57:01</time>
      </trkpt>
      <trkpt lat="43.28421" lon="-3.20657">
        <ele>646.6</ele>
        <time>2021-10-28 11:57:02</time>
      </trkpt>
      <trkpt lat="43.28421" lon="-3.20657">
        <ele>646.8</ele>
        <time>2021-10-28 11:57:03</time>
      </trkpt>
      <trkpt lat="43.28421" lon="-3.20657">
        <ele>647</ele>
        <time>2021-10-28 11:57:04</time>
      </trkpt>
      <trkpt lat="43.28417" lon="-3.20657">
        <ele>647.2</ele>
        <time>2021-10-28 11:57:05</time>
      </trkpt>
      <trkpt lat="43.28417" lon="-3.20657">
        <ele>647.6</ele>
        <time>2021-10-28 11:57:06</time>
      </trkpt>
      <trkpt lat="43.28417" lon="-3.20657">
        <ele>647.8</ele>
        <time>2021-10-28 11:57:07</time>
      </trkpt>
      <trkpt lat="43.28416" lon="-3.20658">
        <ele>648</ele>
        <time>2021-10-28 11:57:08</time>
      </trkpt>
      <trkpt lat="43.28411" lon="-3.20657">
        <ele>648.2</ele>
        <time>2021-10-28 11:57:09</time>
      </trkpt>
      <trkpt lat="43.28411" lon="-3.20657">
        <ele>648.2</ele>
        <time>2021-10-28 11:57:10</time>
      </trkpt>
      <trkpt lat="43.28407" lon="-3.20654">
        <ele>648.2</ele>
        <time>2021-10-28 11:57:11</time>
      </trkpt>
      <trkpt lat="43.28407" lon="-3.20654">
        <ele>648.2</ele>
        <time>2021-10-28 11:57:12</time>
      </trkpt>
      <trkpt lat="43.28405" lon="-3.20656">
        <ele>648.2</ele>
        <time>2021-10-28 11:57:13</time>
      </trkpt>
      <trkpt lat="43.28404" lon="-3.20654">
        <ele>648.4</ele>
        <time>2021-10-28 11:57:14</time>
      </trkpt>
      <trkpt lat="43.28404" lon="-3.20654">
        <ele>648.4</ele>
        <time>2021-10-28 11:57:15</time>
      </trkpt>
      <trkpt lat="43.28403" lon="-3.2065">
        <ele>648.4</ele>
        <time>2021-10-28 11:57:16</time>
      </trkpt>
      <trkpt lat="43.28402" lon="-3.2065">
        <ele>648.4</ele>
        <time>2021-10-28 11:57:17</time>
      </trkpt>
      <trkpt lat="43.28399" lon="-3.20651">
        <ele>648.4</ele>
        <time>2021-10-28 11:57:18</time>
      </trkpt>
      <trkpt lat="43.28397" lon="-3.20651">
        <ele>648.6</ele>
        <time>2021-10-28 11:57:19</time>
      </trkpt>
      <trkpt lat="43.28393" lon="-3.20648">
        <ele>648.8</ele>
        <time>2021-10-28 11:57:20</time>
      </trkpt>
      <trkpt lat="43.28389" lon="-3.20653">
        <ele>648.8</ele>
        <time>2021-10-28 11:57:21</time>
      </trkpt>
      <trkpt lat="43.28385" lon="-3.20653">
        <ele>649</ele>
        <time>2021-10-28 11:57:22</time>
      </trkpt>
      <trkpt lat="43.28385" lon="-3.20653">
        <ele>649</ele>
        <time>2021-10-28 11:57:23</time>
      </trkpt>
      <trkpt lat="43.28385" lon="-3.20653">
        <ele>649</ele>
        <time>2021-10-28 11:57:24</time>
      </trkpt>
      <trkpt lat="43.28383" lon="-3.20656">
        <ele>649.2</ele>
        <time>2021-10-28 11:57:25</time>
      </trkpt>
      <trkpt lat="43.28383" lon="-3.20656">
        <ele>649.2</ele>
        <time>2021-10-28 11:57:26</time>
      </trkpt>
      <trkpt lat="43.2838" lon="-3.20657">
        <ele>649.2</ele>
        <time>2021-10-28 11:57:27</time>
      </trkpt>
      <trkpt lat="43.28376" lon="-3.20658">
        <ele>649.4</ele>
        <time>2021-10-28 11:57:28</time>
      </trkpt>
      <trkpt lat="43.28376" lon="-3.20658">
        <ele>649.4</ele>
        <time>2021-10-28 11:57:29</time>
      </trkpt>
      <trkpt lat="43.28373" lon="-3.20661">
        <ele>649.6</ele>
        <time>2021-10-28 11:57:30</time>
      </trkpt>
      <trkpt lat="43.2837" lon="-3.20664">
        <ele>649.8</ele>
        <time>2021-10-28 11:57:31</time>
      </trkpt>
      <trkpt lat="43.2837" lon="-3.20664">
        <ele>650</ele>
        <time>2021-10-28 11:57:32</time>
      </trkpt>
      <trkpt lat="43.2837" lon="-3.20664">
        <ele>650</ele>
        <time>2021-10-28 11:57:33</time>
      </trkpt>
      <trkpt lat="43.2837" lon="-3.20667">
        <ele>650.2</ele>
        <time>2021-10-28 11:57:34</time>
      </trkpt>
      <trkpt lat="43.28368" lon="-3.20668">
        <ele>650.2</ele>
        <time>2021-10-28 11:57:35</time>
      </trkpt>
      <trkpt lat="43.28365" lon="-3.20666">
        <ele>650.4</ele>
        <time>2021-10-28 11:57:36</time>
      </trkpt>
      <trkpt lat="43.28362" lon="-3.20668">
        <ele>650.6</ele>
        <time>2021-10-28 11:57:37</time>
      </trkpt>
      <trkpt lat="43.28362" lon="-3.20668">
        <ele>650.8</ele>
        <time>2021-10-28 11:57:38</time>
      </trkpt>
      <trkpt lat="43.28362" lon="-3.20668">
        <ele>651</ele>
        <time>2021-10-28 11:57:39</time>
      </trkpt>
      <trkpt lat="43.28357" lon="-3.20671">
        <ele>651</ele>
        <time>2021-10-28 11:57:40</time>
      </trkpt>
      <trkpt lat="43.28357" lon="-3.20671">
        <ele>651.2</ele>
        <time>2021-10-28 11:57:41</time>
      </trkpt>
      <trkpt lat="43.28357" lon="-3.20671">
        <ele>651.4</ele>
        <time>2021-10-28 11:57:42</time>
      </trkpt>
      <trkpt lat="43.28353" lon="-3.20673">
        <ele>651.6</ele>
        <time>2021-10-28 11:57:43</time>
      </trkpt>
      <trkpt lat="43.28353" lon="-3.20673">
        <ele>651.8</ele>
        <time>2021-10-28 11:57:44</time>
      </trkpt>
      <trkpt lat="43.2835" lon="-3.20674">
        <ele>652</ele>
        <time>2021-10-28 11:57:45</time>
      </trkpt>
      <trkpt lat="43.2835" lon="-3.20674">
        <ele>652.2</ele>
        <time>2021-10-28 11:57:46</time>
      </trkpt>
      <trkpt lat="43.2835" lon="-3.20674">
        <ele>652.2</ele>
        <time>2021-10-28 11:57:47</time>
      </trkpt>
      <trkpt lat="43.28347" lon="-3.20678">
        <ele>652.4</ele>
        <time>2021-10-28 11:57:48</time>
      </trkpt>
      <trkpt lat="43.28342" lon="-3.2068">
        <ele>652.4</ele>
        <time>2021-10-28 11:57:49</time>
      </trkpt>
      <trkpt lat="43.28342" lon="-3.2068">
        <ele>652.6</ele>
        <time>2021-10-28 11:57:50</time>
      </trkpt>
      <trkpt lat="43.28342" lon="-3.2068">
        <ele>652.6</ele>
        <time>2021-10-28 11:57:51</time>
      </trkpt>
      <trkpt lat="43.28342" lon="-3.2068">
        <ele>652.8</ele>
        <time>2021-10-28 11:57:52</time>
      </trkpt>
      <trkpt lat="43.28337" lon="-3.20682">
        <ele>652.8</ele>
        <time>2021-10-28 11:57:53</time>
      </trkpt>
      <trkpt lat="43.28336" lon="-3.20683">
        <ele>653</ele>
        <time>2021-10-28 11:57:54</time>
      </trkpt>
      <trkpt lat="43.28336" lon="-3.20683">
        <ele>653.2</ele>
        <time>2021-10-28 11:57:55</time>
      </trkpt>
      <trkpt lat="43.28335" lon="-3.20684">
        <ele>653.2</ele>
        <time>2021-10-28 11:57:56</time>
      </trkpt>
      <trkpt lat="43.28335" lon="-3.20686">
        <ele>653.4</ele>
        <time>2021-10-28 11:57:57</time>
      </trkpt>
      <trkpt lat="43.28329" lon="-3.20687">
        <ele>653.4</ele>
        <time>2021-10-28 11:57:58</time>
      </trkpt>
      <trkpt lat="43.28329" lon="-3.20687">
        <ele>653.6</ele>
        <time>2021-10-28 11:57:59</time>
      </trkpt>
      <trkpt lat="43.28329" lon="-3.20687">
        <ele>653.8</ele>
        <time>2021-10-28 11:58:00</time>
      </trkpt>
      <trkpt lat="43.28327" lon="-3.20688">
        <ele>654</ele>
        <time>2021-10-28 11:58:01</time>
      </trkpt>
      <trkpt lat="43.28327" lon="-3.20688">
        <ele>654</ele>
        <time>2021-10-28 11:58:02</time>
      </trkpt>
      <trkpt lat="43.28325" lon="-3.20688">
        <ele>654</ele>
        <time>2021-10-28 11:58:03</time>
      </trkpt>
      <trkpt lat="43.28322" lon="-3.20691">
        <ele>654.2</ele>
        <time>2021-10-28 11:58:04</time>
      </trkpt>
      <trkpt lat="43.28322" lon="-3.20691">
        <ele>654.4</ele>
        <time>2021-10-28 11:58:05</time>
      </trkpt>
      <trkpt lat="43.28321" lon="-3.20692">
        <ele>654.4</ele>
        <time>2021-10-28 11:58:06</time>
      </trkpt>
      <trkpt lat="43.28318" lon="-3.20694">
        <ele>654.6</ele>
        <time>2021-10-28 11:58:07</time>
      </trkpt>
      <trkpt lat="43.28318" lon="-3.20694">
        <ele>654.8</ele>
        <time>2021-10-28 11:58:08</time>
      </trkpt>
      <trkpt lat="43.28315" lon="-3.20695">
        <ele>654.8</ele>
        <time>2021-10-28 11:58:09</time>
      </trkpt>
      <trkpt lat="43.28314" lon="-3.20693">
        <ele>655</ele>
        <time>2021-10-28 11:58:10</time>
      </trkpt>
      <trkpt lat="43.28314" lon="-3.20693">
        <ele>655</ele>
        <time>2021-10-28 11:58:11</time>
      </trkpt>
      <trkpt lat="43.28312" lon="-3.20694">
        <ele>655.2</ele>
        <time>2021-10-28 11:58:12</time>
      </trkpt>
      <trkpt lat="43.2831" lon="-3.20694">
        <ele>655.4</ele>
        <time>2021-10-28 11:58:13</time>
      </trkpt>
      <trkpt lat="43.28309" lon="-3.20692">
        <ele>655.6</ele>
        <time>2021-10-28 11:58:14</time>
      </trkpt>
      <trkpt lat="43.28306" lon="-3.20692">
        <ele>655.8</ele>
        <time>2021-10-28 11:58:15</time>
      </trkpt>
      <trkpt lat="43.28306" lon="-3.20692">
        <ele>656</ele>
        <time>2021-10-28 11:58:16</time>
      </trkpt>
      <trkpt lat="43.28304" lon="-3.2069">
        <ele>656.2</ele>
        <time>2021-10-28 11:58:17</time>
      </trkpt>
      <trkpt lat="43.28303" lon="-3.20687">
        <ele>656.2</ele>
        <time>2021-10-28 11:58:18</time>
      </trkpt>
      <trkpt lat="43.28301" lon="-3.20687">
        <ele>656.2</ele>
        <time>2021-10-28 11:58:19</time>
      </trkpt>
      <trkpt lat="43.28301" lon="-3.20687">
        <ele>656.2</ele>
        <time>2021-10-28 11:58:20</time>
      </trkpt>
      <trkpt lat="43.283" lon="-3.20687">
        <ele>656.4</ele>
        <time>2021-10-28 11:58:21</time>
      </trkpt>
      <trkpt lat="43.28298" lon="-3.20685">
        <ele>656.4</ele>
        <time>2021-10-28 11:58:22</time>
      </trkpt>
      <trkpt lat="43.28298" lon="-3.20685">
        <ele>656.4</ele>
        <time>2021-10-28 11:58:23</time>
      </trkpt>
      <trkpt lat="43.28298" lon="-3.20683">
        <ele>656.4</ele>
        <time>2021-10-28 11:58:24</time>
      </trkpt>
      <trkpt lat="43.28298" lon="-3.20683">
        <ele>656.4</ele>
        <time>2021-10-28 11:58:25</time>
      </trkpt>
      <trkpt lat="43.28298" lon="-3.20682">
        <ele>656.4</ele>
        <time>2021-10-28 11:58:26</time>
      </trkpt>
      <trkpt lat="43.283" lon="-3.20682">
        <ele>656.4</ele>
        <time>2021-10-28 11:58:27</time>
      </trkpt>
      <trkpt lat="43.283" lon="-3.20682">
        <ele>656.6</ele>
        <time>2021-10-28 11:58:28</time>
      </trkpt>
      <trkpt lat="43.283" lon="-3.20682">
        <ele>656.6</ele>
        <time>2021-10-28 11:58:29</time>
      </trkpt>
      <trkpt lat="43.283" lon="-3.20684">
        <ele>656.6</ele>
        <time>2021-10-28 11:58:30</time>
      </trkpt>
      <trkpt lat="43.283" lon="-3.20684">
        <ele>656.6</ele>
        <time>2021-10-28 11:58:31</time>
      </trkpt>
      <trkpt lat="43.28286" lon="-3.20676">
        <ele>656.8</ele>
        <time>2021-10-28 11:58:32</time>
      </trkpt>
      <trkpt lat="43.28286" lon="-3.20676">
        <ele>657</ele>
        <time>2021-10-28 11:58:33</time>
      </trkpt>
      <trkpt lat="43.28282" lon="-3.20673">
        <ele>657.2</ele>
        <time>2021-10-28 11:58:34</time>
      </trkpt>
      <trkpt lat="43.28282" lon="-3.20673">
        <ele>657.2</ele>
        <time>2021-10-28 11:58:35</time>
      </trkpt>
      <trkpt lat="43.28275" lon="-3.20671">
        <ele>657.4</ele>
        <time>2021-10-28 11:58:36</time>
      </trkpt>
      <trkpt lat="43.28275" lon="-3.20671">
        <ele>657.4</ele>
        <time>2021-10-28 11:58:37</time>
      </trkpt>
      <trkpt lat="43.28275" lon="-3.20671">
        <ele>657.4</ele>
        <time>2021-10-28 11:58:38</time>
      </trkpt>
      <trkpt lat="43.28275" lon="-3.20671">
        <ele>657.6</ele>
        <time>2021-10-28 11:58:39</time>
      </trkpt>
      <trkpt lat="43.28273" lon="-3.2067">
        <ele>657.6</ele>
        <time>2021-10-28 11:58:40</time>
      </trkpt>
      <trkpt lat="43.28273" lon="-3.20671">
        <ele>657.6</ele>
        <time>2021-10-28 11:58:41</time>
      </trkpt>
      <trkpt lat="43.28272" lon="-3.2067">
        <ele>657.8</ele>
        <time>2021-10-28 11:58:42</time>
      </trkpt>
      <trkpt lat="43.28272" lon="-3.2067">
        <ele>657.8</ele>
        <time>2021-10-28 11:58:43</time>
      </trkpt>
      <trkpt lat="43.28272" lon="-3.2067">
        <ele>658</ele>
        <time>2021-10-28 11:58:44</time>
      </trkpt>
      <trkpt lat="43.2827" lon="-3.20666">
        <ele>658.2</ele>
        <time>2021-10-28 11:58:45</time>
      </trkpt>
      <trkpt lat="43.2827" lon="-3.20665">
        <ele>658.2</ele>
        <time>2021-10-28 11:58:46</time>
      </trkpt>
      <trkpt lat="43.2827" lon="-3.20663">
        <ele>658.2</ele>
        <time>2021-10-28 11:58:47</time>
      </trkpt>
      <trkpt lat="43.28267" lon="-3.20661">
        <ele>658.2</ele>
        <time>2021-10-28 11:58:48</time>
      </trkpt>
      <trkpt lat="43.28269" lon="-3.20659">
        <ele>658.2</ele>
        <time>2021-10-28 11:58:49</time>
      </trkpt>
      <trkpt lat="43.2826" lon="-3.20655">
        <ele>659.8</ele>
        <time>2021-10-28 11:58:50</time>
      </trkpt>
      <trkpt lat="43.28258" lon="-3.20655">
        <ele>660</ele>
        <time>2021-10-28 11:58:51</time>
      </trkpt>
      <trkpt lat="43.28255" lon="-3.20658">
        <ele>660.2</ele>
        <time>2021-10-28 11:58:52</time>
      </trkpt>
      <trkpt lat="43.28255" lon="-3.20658">
        <ele>660.4</ele>
        <time>2021-10-28 12:00:41</time>
      </trkpt>
      <trkpt lat="43.28255" lon="-3.20658">
        <ele>660.4</ele>
        <time>2021-10-28 12:00:42</time>
      </trkpt>
      <trkpt lat="43.28248" lon="-3.20661">
        <ele>660.6</ele>
        <time>2021-10-28 12:00:43</time>
      </trkpt>
      <trkpt lat="43.28248" lon="-3.20661">
        <ele>660.8</ele>
        <time>2021-10-28 12:00:44</time>
      </trkpt>
      <trkpt lat="43.28246" lon="-3.20658">
        <ele>661</ele>
        <time>2021-10-28 12:00:45</time>
      </trkpt>
      <trkpt lat="43.28246" lon="-3.20658">
        <ele>661.2</ele>
        <time>2021-10-28 12:00:46</time>
      </trkpt>
      <trkpt lat="43.28247" lon="-3.20661">
        <ele>661.4</ele>
        <time>2021-10-28 12:00:47</time>
      </trkpt>
      <trkpt lat="43.28246" lon="-3.20662">
        <ele>661.6</ele>
        <time>2021-10-28 12:00:48</time>
      </trkpt>
      <trkpt lat="43.28246" lon="-3.20662">
        <ele>661.8</ele>
        <time>2021-10-28 12:00:49</time>
      </trkpt>
      <trkpt lat="43.28245" lon="-3.20662">
        <ele>662</ele>
        <time>2021-10-28 12:00:50</time>
      </trkpt>
      <trkpt lat="43.28245" lon="-3.20662">
        <ele>662</ele>
        <time>2021-10-28 12:00:51</time>
      </trkpt>
      <trkpt lat="43.28243" lon="-3.20664">
        <ele>662.2</ele>
        <time>2021-10-28 12:00:52</time>
      </trkpt>
      <trkpt lat="43.28241" lon="-3.20665">
        <ele>662.2</ele>
        <time>2021-10-28 12:00:53</time>
      </trkpt>
      <trkpt lat="43.28241" lon="-3.20665">
        <ele>662.2</ele>
        <time>2021-10-28 12:00:54</time>
      </trkpt>
      <trkpt lat="43.28241" lon="-3.20668">
        <ele>662.4</ele>
        <time>2021-10-28 12:00:55</time>
      </trkpt>
      <trkpt lat="43.2824" lon="-3.20669">
        <ele>662.4</ele>
        <time>2021-10-28 12:00:56</time>
      </trkpt>
      <trkpt lat="43.28238" lon="-3.20673">
        <ele>662.6</ele>
        <time>2021-10-28 12:00:57</time>
      </trkpt>
      <trkpt lat="43.28238" lon="-3.20673">
        <ele>662.6</ele>
        <time>2021-10-28 12:00:58</time>
      </trkpt>
      <trkpt lat="43.28236" lon="-3.20674">
        <ele>662.8</ele>
        <time>2021-10-28 12:01:12</time>
      </trkpt>
      <trkpt lat="43.28232" lon="-3.20674">
        <ele>662.8</ele>
        <time>2021-10-28 12:01:13</time>
      </trkpt>
      <trkpt lat="43.28232" lon="-3.20674">
        <ele>663</ele>
        <time>2021-10-28 12:01:14</time>
      </trkpt>
      <trkpt lat="43.28232" lon="-3.20675">
        <ele>663.2</ele>
        <time>2021-10-28 12:01:15</time>
      </trkpt>
      <trkpt lat="43.28232" lon="-3.20675">
        <ele>663.4</ele>
        <time>2021-10-28 12:01:16</time>
      </trkpt>
      <trkpt lat="43.28232" lon="-3.20675">
        <ele>663.4</ele>
        <time>2021-10-28 12:01:17</time>
      </trkpt>
      <trkpt lat="43.28232" lon="-3.20677">
        <ele>663.4</ele>
        <time>2021-10-28 12:01:18</time>
      </trkpt>
      <trkpt lat="43.28231" lon="-3.20681">
        <ele>663.4</ele>
        <time>2021-10-28 12:01:19</time>
      </trkpt>
      <trkpt lat="43.28231" lon="-3.20681">
        <ele>663.4</ele>
        <time>2021-10-28 12:01:20</time>
      </trkpt>
      <trkpt lat="43.28231" lon="-3.2068">
        <ele>663.4</ele>
        <time>2021-10-28 12:01:21</time>
      </trkpt>
      <trkpt lat="43.2823" lon="-3.20683">
        <ele>663.6</ele>
        <time>2021-10-28 12:01:22</time>
      </trkpt>
      <trkpt lat="43.2823" lon="-3.20683">
        <ele>663.6</ele>
        <time>2021-10-28 12:01:23</time>
      </trkpt>
      <trkpt lat="43.28225" lon="-3.20699">
        <ele>664.6</ele>
        <time>2021-10-28 12:01:24</time>
      </trkpt>
      <trkpt lat="43.28225" lon="-3.20699">
        <ele>664.8</ele>
        <time>2021-10-28 12:01:25</time>
      </trkpt>
      <trkpt lat="43.28223" lon="-3.20699">
        <ele>664.8</ele>
        <time>2021-10-28 12:01:26</time>
      </trkpt>
      <trkpt lat="43.28224" lon="-3.20703">
        <ele>665</ele>
        <time>2021-10-28 12:01:27</time>
      </trkpt>
      <trkpt lat="43.28224" lon="-3.20703">
        <ele>665.2</ele>
        <time>2021-10-28 12:01:28</time>
      </trkpt>
      <trkpt lat="43.28222" lon="-3.20704">
        <ele>665.4</ele>
        <time>2021-10-28 12:01:29</time>
      </trkpt>
      <trkpt lat="43.28222" lon="-3.20704">
        <ele>665.6</ele>
        <time>2021-10-28 12:01:30</time>
      </trkpt>
      <trkpt lat="43.28218" lon="-3.20707">
        <ele>665.8</ele>
        <time>2021-10-28 12:01:31</time>
      </trkpt>
      <trkpt lat="43.28218" lon="-3.20707">
        <ele>665.8</ele>
        <time>2021-10-28 12:01:32</time>
      </trkpt>
      <trkpt lat="43.28215" lon="-3.20708">
        <ele>666</ele>
        <time>2021-10-28 12:01:33</time>
      </trkpt>
      <trkpt lat="43.28215" lon="-3.20708">
        <ele>666</ele>
        <time>2021-10-28 12:01:34</time>
      </trkpt>
      <trkpt lat="43.28215" lon="-3.20708">
        <ele>666</ele>
        <time>2021-10-28 12:01:35</time>
      </trkpt>
      <trkpt lat="43.28214" lon="-3.2071">
        <ele>666</ele>
        <time>2021-10-28 12:01:36</time>
      </trkpt>
      <trkpt lat="43.28214" lon="-3.2071">
        <ele>666</ele>
        <time>2021-10-28 12:01:37</time>
      </trkpt>
      <trkpt lat="43.28212" lon="-3.2071">
        <ele>666</ele>
        <time>2021-10-28 12:01:38</time>
      </trkpt>
      <trkpt lat="43.28212" lon="-3.20709">
        <ele>666</ele>
        <time>2021-10-28 12:01:39</time>
      </trkpt>
      <trkpt lat="43.28212" lon="-3.20709">
        <ele>666</ele>
        <time>2021-10-28 12:01:40</time>
      </trkpt>
      <trkpt lat="43.2821" lon="-3.20711">
        <ele>666</ele>
        <time>2021-10-28 12:01:41</time>
      </trkpt>
      <trkpt lat="43.2821" lon="-3.20711">
        <ele>666</ele>
        <time>2021-10-28 12:01:42</time>
      </trkpt>
      <trkpt lat="43.28206" lon="-3.20716">
        <ele>666.2</ele>
        <time>2021-10-28 12:01:43</time>
      </trkpt>
      <trkpt lat="43.28206" lon="-3.20716">
        <ele>666.4</ele>
        <time>2021-10-28 12:01:44</time>
      </trkpt>
      <trkpt lat="43.28202" lon="-3.20718">
        <ele>666.6</ele>
        <time>2021-10-28 12:01:53</time>
      </trkpt>
      <trkpt lat="43.28191" lon="-3.20717">
        <ele>667.2</ele>
        <time>2021-10-28 12:01:54</time>
      </trkpt>
      <trkpt lat="43.28189" lon="-3.20718">
        <ele>667.2</ele>
        <time>2021-10-28 12:01:55</time>
      </trkpt>
      <trkpt lat="43.28189" lon="-3.20718">
        <ele>667.4</ele>
        <time>2021-10-28 12:01:56</time>
      </trkpt>
      <trkpt lat="43.28185" lon="-3.20718">
        <ele>667.6</ele>
        <time>2021-10-28 12:01:57</time>
      </trkpt>
      <trkpt lat="43.28185" lon="-3.20718">
        <ele>667.6</ele>
        <time>2021-10-28 12:01:58</time>
      </trkpt>
      <trkpt lat="43.28183" lon="-3.20721">
        <ele>667.8</ele>
        <time>2021-10-28 12:01:59</time>
      </trkpt>
      <trkpt lat="43.28181" lon="-3.20722">
        <ele>668</ele>
        <time>2021-10-28 12:02:00</time>
      </trkpt>
      <trkpt lat="43.28179" lon="-3.20722">
        <ele>668</ele>
        <time>2021-10-28 12:02:01</time>
      </trkpt>
      <trkpt lat="43.28175" lon="-3.20723">
        <ele>668.2</ele>
        <time>2021-10-28 12:02:02</time>
      </trkpt>
      <trkpt lat="43.28175" lon="-3.20723">
        <ele>668.2</ele>
        <time>2021-10-28 12:02:03</time>
      </trkpt>
      <trkpt lat="43.28173" lon="-3.20723">
        <ele>668.2</ele>
        <time>2021-10-28 12:02:04</time>
      </trkpt>
      <trkpt lat="43.28169" lon="-3.20727">
        <ele>668.2</ele>
        <time>2021-10-28 12:02:05</time>
      </trkpt>
      <trkpt lat="43.28169" lon="-3.20727">
        <ele>668.2</ele>
        <time>2021-10-28 12:02:06</time>
      </trkpt>
      <trkpt lat="43.28165" lon="-3.20727">
        <ele>668.2</ele>
        <time>2021-10-28 12:02:07</time>
      </trkpt>
      <trkpt lat="43.28162" lon="-3.20727">
        <ele>668.2</ele>
        <time>2021-10-28 12:02:08</time>
      </trkpt>
      <trkpt lat="43.28157" lon="-3.20725">
        <ele>668.2</ele>
        <time>2021-10-28 12:02:09</time>
      </trkpt>
      <trkpt lat="43.28156" lon="-3.20723">
        <ele>668.2</ele>
        <time>2021-10-28 12:02:10</time>
      </trkpt>
      <trkpt lat="43.28154" lon="-3.20722">
        <ele>668.4</ele>
        <time>2021-10-28 12:02:11</time>
      </trkpt>
      <trkpt lat="43.28154" lon="-3.20722">
        <ele>668.4</ele>
        <time>2021-10-28 12:02:12</time>
      </trkpt>
      <trkpt lat="43.28153" lon="-3.20721">
        <ele>668.6</ele>
        <time>2021-10-28 12:02:13</time>
      </trkpt>
      <trkpt lat="43.28149" lon="-3.20719">
        <ele>668.8</ele>
        <time>2021-10-28 12:02:14</time>
      </trkpt>
      <trkpt lat="43.28149" lon="-3.20719">
        <ele>669</ele>
        <time>2021-10-28 12:02:20</time>
      </trkpt>
      <trkpt lat="43.28149" lon="-3.20719">
        <ele>669.4</ele>
        <time>2021-10-28 12:02:21</time>
      </trkpt>
      <trkpt lat="43.28142" lon="-3.20715">
        <ele>669.8</ele>
        <time>2021-10-28 12:02:22</time>
      </trkpt>
      <trkpt lat="43.28142" lon="-3.20715">
        <ele>670</ele>
        <time>2021-10-28 12:02:23</time>
      </trkpt>
      <trkpt lat="43.28142" lon="-3.20715">
        <ele>670.4</ele>
        <time>2021-10-28 12:02:24</time>
      </trkpt>
      <trkpt lat="43.28137" lon="-3.20711">
        <ele>670.8</ele>
        <time>2021-10-28 12:02:25</time>
      </trkpt>
      <trkpt lat="43.28136" lon="-3.2071">
        <ele>671</ele>
        <time>2021-10-28 12:02:26</time>
      </trkpt>
      <trkpt lat="43.28133" lon="-3.20708">
        <ele>671.2</ele>
        <time>2021-10-28 12:02:27</time>
      </trkpt>
      <trkpt lat="43.28133" lon="-3.20708">
        <ele>671.4</ele>
        <time>2021-10-28 12:02:28</time>
      </trkpt>
      <trkpt lat="43.2813" lon="-3.20707">
        <ele>671.4</ele>
        <time>2021-10-28 12:02:29</time>
      </trkpt>
      <trkpt lat="43.28126" lon="-3.20707">
        <ele>671.6</ele>
        <time>2021-10-28 12:02:30</time>
      </trkpt>
      <trkpt lat="43.28126" lon="-3.20707">
        <ele>671.8</ele>
        <time>2021-10-28 12:02:31</time>
      </trkpt>
      <trkpt lat="43.28123" lon="-3.20706">
        <ele>672</ele>
        <time>2021-10-28 12:02:32</time>
      </trkpt>
      <trkpt lat="43.28123" lon="-3.20706">
        <ele>672.2</ele>
        <time>2021-10-28 12:02:33</time>
      </trkpt>
      <trkpt lat="43.28119" lon="-3.20705">
        <ele>672.6</ele>
        <time>2021-10-28 12:02:34</time>
      </trkpt>
      <trkpt lat="43.28117" lon="-3.20704">
        <ele>672.8</ele>
        <time>2021-10-28 12:02:35</time>
      </trkpt>
      <trkpt lat="43.28117" lon="-3.20704">
        <ele>673.2</ele>
        <time>2021-10-28 12:02:36</time>
      </trkpt>
      <trkpt lat="43.28114" lon="-3.20705">
        <ele>673.4</ele>
        <time>2021-10-28 12:02:37</time>
      </trkpt>
      <trkpt lat="43.28109" lon="-3.20705">
        <ele>673.6</ele>
        <time>2021-10-28 12:02:38</time>
      </trkpt>
      <trkpt lat="43.28107" lon="-3.20704">
        <ele>673.8</ele>
        <time>2021-10-28 12:02:39</time>
      </trkpt>
      <trkpt lat="43.28107" lon="-3.20704">
        <ele>674</ele>
        <time>2021-10-28 12:02:40</time>
      </trkpt>
      <trkpt lat="43.28107" lon="-3.20704">
        <ele>674.2</ele>
        <time>2021-10-28 12:02:41</time>
      </trkpt>
      <trkpt lat="43.28104" lon="-3.20706">
        <ele>674.2</ele>
        <time>2021-10-28 12:02:42</time>
      </trkpt>
      <trkpt lat="43.28104" lon="-3.20706">
        <ele>674.4</ele>
        <time>2021-10-28 12:02:43</time>
      </trkpt>
      <trkpt lat="43.28102" lon="-3.20704">
        <ele>674.4</ele>
        <time>2021-10-28 12:02:44</time>
      </trkpt>
      <trkpt lat="43.28098" lon="-3.20704">
        <ele>674.6</ele>
        <time>2021-10-28 12:02:45</time>
      </trkpt>
      <trkpt lat="43.28098" lon="-3.20704">
        <ele>674.6</ele>
        <time>2021-10-28 12:02:46</time>
      </trkpt>
      <trkpt lat="43.28098" lon="-3.20704">
        <ele>674.6</ele>
        <time>2021-10-28 12:02:47</time>
      </trkpt>
      <trkpt lat="43.28097" lon="-3.20704">
        <ele>674.8</ele>
        <time>2021-10-28 12:02:48</time>
      </trkpt>
      <trkpt lat="43.28092" lon="-3.20705">
        <ele>674.8</ele>
        <time>2021-10-28 12:02:49</time>
      </trkpt>
      <trkpt lat="43.28092" lon="-3.20705">
        <ele>675</ele>
        <time>2021-10-28 12:02:50</time>
      </trkpt>
      <trkpt lat="43.28092" lon="-3.20705">
        <ele>675</ele>
        <time>2021-10-28 12:02:51</time>
      </trkpt>
      <trkpt lat="43.28088" lon="-3.20707">
        <ele>675.2</ele>
        <time>2021-10-28 12:02:52</time>
      </trkpt>
      <trkpt lat="43.28088" lon="-3.20707">
        <ele>675.4</ele>
        <time>2021-10-28 12:02:53</time>
      </trkpt>
      <trkpt lat="43.28086" lon="-3.20706">
        <ele>675.6</ele>
        <time>2021-10-28 12:02:54</time>
      </trkpt>
      <trkpt lat="43.28083" lon="-3.20703">
        <ele>675.6</ele>
        <time>2021-10-28 12:02:55</time>
      </trkpt>
      <trkpt lat="43.2808" lon="-3.20705">
        <ele>675.6</ele>
        <time>2021-10-28 12:02:56</time>
      </trkpt>
      <trkpt lat="43.2808" lon="-3.20705">
        <ele>675.8</ele>
        <time>2021-10-28 12:02:57</time>
      </trkpt>
      <trkpt lat="43.28078" lon="-3.20706">
        <ele>676</ele>
        <time>2021-10-28 12:02:58</time>
      </trkpt>
      <trkpt lat="43.28078" lon="-3.20706">
        <ele>676.2</ele>
        <time>2021-10-28 12:02:59</time>
      </trkpt>
      <trkpt lat="43.28077" lon="-3.20705">
        <ele>676.4</ele>
        <time>2021-10-28 12:03:00</time>
      </trkpt>
      <trkpt lat="43.28071" lon="-3.20703">
        <ele>676.4</ele>
        <time>2021-10-28 12:03:01</time>
      </trkpt>
      <trkpt lat="43.28068" lon="-3.20702">
        <ele>676.6</ele>
        <time>2021-10-28 12:03:02</time>
      </trkpt>
      <trkpt lat="43.28068" lon="-3.20702">
        <ele>676.6</ele>
        <time>2021-10-28 12:03:03</time>
      </trkpt>
      <trkpt lat="43.28068" lon="-3.20702">
        <ele>676.8</ele>
        <time>2021-10-28 12:03:04</time>
      </trkpt>
      <trkpt lat="43.28065" lon="-3.20699">
        <ele>676.8</ele>
        <time>2021-10-28 12:03:05</time>
      </trkpt>
      <trkpt lat="43.28064" lon="-3.207">
        <ele>677</ele>
        <time>2021-10-28 12:03:06</time>
      </trkpt>
      <trkpt lat="43.28064" lon="-3.207">
        <ele>677</ele>
        <time>2021-10-28 12:03:07</time>
      </trkpt>
      <trkpt lat="43.28062" lon="-3.20701">
        <ele>677</ele>
        <time>2021-10-28 12:03:08</time>
      </trkpt>
      <trkpt lat="43.28062" lon="-3.20701">
        <ele>677</ele>
        <time>2021-10-28 12:03:09</time>
      </trkpt>
      <trkpt lat="43.28061" lon="-3.20702">
        <ele>677</ele>
        <time>2021-10-28 12:03:10</time>
      </trkpt>
      <trkpt lat="43.2806" lon="-3.20704">
        <ele>677</ele>
        <time>2021-10-28 12:03:11</time>
      </trkpt>
      <trkpt lat="43.28055" lon="-3.20704">
        <ele>677.2</ele>
        <time>2021-10-28 12:03:12</time>
      </trkpt>
      <trkpt lat="43.28049" lon="-3.20705">
        <ele>677.4</ele>
        <time>2021-10-28 12:03:13</time>
      </trkpt>
      <trkpt lat="43.28049" lon="-3.20705">
        <ele>677.6</ele>
        <time>2021-10-28 12:03:14</time>
      </trkpt>
      <trkpt lat="43.28048" lon="-3.20706">
        <ele>677.8</ele>
        <time>2021-10-28 12:03:15</time>
      </trkpt>
      <trkpt lat="43.28042" lon="-3.20704">
        <ele>678</ele>
        <time>2021-10-28 12:03:16</time>
      </trkpt>
      <trkpt lat="43.28042" lon="-3.20704">
        <ele>678.2</ele>
        <time>2021-10-28 12:03:17</time>
      </trkpt>
      <trkpt lat="43.2804" lon="-3.20705">
        <ele>678.4</ele>
        <time>2021-10-28 12:03:18</time>
      </trkpt>
      <trkpt lat="43.28036" lon="-3.20702">
        <ele>678.4</ele>
        <time>2021-10-28 12:03:19</time>
      </trkpt>
      <trkpt lat="43.28036" lon="-3.20702">
        <ele>678.6</ele>
        <time>2021-10-28 12:03:20</time>
      </trkpt>
      <trkpt lat="43.28036" lon="-3.20702">
        <ele>678.6</ele>
        <time>2021-10-28 12:03:21</time>
      </trkpt>
      <trkpt lat="43.28031" lon="-3.20703">
        <ele>678.8</ele>
        <time>2021-10-28 12:03:22</time>
      </trkpt>
      <trkpt lat="43.28031" lon="-3.20703">
        <ele>679</ele>
        <time>2021-10-28 12:03:23</time>
      </trkpt>
      <trkpt lat="43.28029" lon="-3.20704">
        <ele>679.2</ele>
        <time>2021-10-28 12:03:24</time>
      </trkpt>
      <trkpt lat="43.28027" lon="-3.20703">
        <ele>679.4</ele>
        <time>2021-10-28 12:03:25</time>
      </trkpt>
      <trkpt lat="43.28022" lon="-3.20701">
        <ele>679.6</ele>
        <time>2021-10-28 12:03:26</time>
      </trkpt>
      <trkpt lat="43.28022" lon="-3.20703">
        <ele>679.8</ele>
        <time>2021-10-28 12:03:27</time>
      </trkpt>
      <trkpt lat="43.28022" lon="-3.20703">
        <ele>679.8</ele>
        <time>2021-10-28 12:03:28</time>
      </trkpt>
      <trkpt lat="43.28014" lon="-3.20702">
        <ele>679.8</ele>
        <time>2021-10-28 12:03:29</time>
      </trkpt>
      <trkpt lat="43.28014" lon="-3.20702">
        <ele>680</ele>
        <time>2021-10-28 12:03:30</time>
      </trkpt>
      <trkpt lat="43.28015" lon="-3.20704">
        <ele>680</ele>
        <time>2021-10-28 12:03:31</time>
      </trkpt>
      <trkpt lat="43.28013" lon="-3.20704">
        <ele>680.2</ele>
        <time>2021-10-28 12:03:32</time>
      </trkpt>
      <trkpt lat="43.28013" lon="-3.20704">
        <ele>680.2</ele>
        <time>2021-10-28 12:03:33</time>
      </trkpt>
      <trkpt lat="43.28011" lon="-3.20703">
        <ele>680.2</ele>
        <time>2021-10-28 12:03:34</time>
      </trkpt>
      <trkpt lat="43.28012" lon="-3.20702">
        <ele>680.2</ele>
        <time>2021-10-28 12:03:35</time>
      </trkpt>
      <trkpt lat="43.28013" lon="-3.20702">
        <ele>680.4</ele>
        <time>2021-10-28 12:03:36</time>
      </trkpt>
      <trkpt lat="43.28009" lon="-3.20703">
        <ele>680.6</ele>
        <time>2021-10-28 12:03:37</time>
      </trkpt>
      <trkpt lat="43.28009" lon="-3.20703">
        <ele>680.6</ele>
        <time>2021-10-28 12:03:38</time>
      </trkpt>
      <trkpt lat="43.28009" lon="-3.20703">
        <ele>680.6</ele>
        <time>2021-10-28 12:03:39</time>
      </trkpt>
      <trkpt lat="43.28009" lon="-3.20703">
        <ele>680.8</ele>
        <time>2021-10-28 12:03:40</time>
      </trkpt>
      <trkpt lat="43.28004" lon="-3.20704">
        <ele>680.8</ele>
        <time>2021-10-28 12:03:41</time>
      </trkpt>
      <trkpt lat="43.28005" lon="-3.20705">
        <ele>680.8</ele>
        <time>2021-10-28 12:03:42</time>
      </trkpt>
      <trkpt lat="43.28006" lon="-3.20705">
        <ele>681</ele>
        <time>2021-10-28 12:03:43</time>
      </trkpt>
      <trkpt lat="43.27999" lon="-3.20703">
        <ele>681</ele>
        <time>2021-10-28 12:03:44</time>
      </trkpt>
      <trkpt lat="43.27999" lon="-3.20703">
        <ele>681.2</ele>
        <time>2021-10-28 12:03:45</time>
      </trkpt>
      <trkpt lat="43.27997" lon="-3.20703">
        <ele>681.2</ele>
        <time>2021-10-28 12:03:46</time>
      </trkpt>
      <trkpt lat="43.27996" lon="-3.20703">
        <ele>681.4</ele>
        <time>2021-10-28 12:03:47</time>
      </trkpt>
      <trkpt lat="43.27992" lon="-3.20701">
        <ele>681.4</ele>
        <time>2021-10-28 12:03:48</time>
      </trkpt>
      <trkpt lat="43.27989" lon="-3.20701">
        <ele>681.6</ele>
        <time>2021-10-28 12:03:49</time>
      </trkpt>
      <trkpt lat="43.27989" lon="-3.20701">
        <ele>681.6</ele>
        <time>2021-10-28 12:03:50</time>
      </trkpt>
      <trkpt lat="43.27984" lon="-3.20703">
        <ele>681.8</ele>
        <time>2021-10-28 12:03:51</time>
      </trkpt>
      <trkpt lat="43.27984" lon="-3.20703">
        <ele>682</ele>
        <time>2021-10-28 12:03:52</time>
      </trkpt>
      <trkpt lat="43.27985" lon="-3.20705">
        <ele>682.2</ele>
        <time>2021-10-28 12:03:53</time>
      </trkpt>
      <trkpt lat="43.27982" lon="-3.20705">
        <ele>682.6</ele>
        <time>2021-10-28 12:03:54</time>
      </trkpt>
      <trkpt lat="43.27979" lon="-3.20703">
        <ele>682.8</ele>
        <time>2021-10-28 12:03:55</time>
      </trkpt>
      <trkpt lat="43.27979" lon="-3.20703">
        <ele>683</ele>
        <time>2021-10-28 12:03:56</time>
      </trkpt>
      <trkpt lat="43.27976" lon="-3.20702">
        <ele>683.2</ele>
        <time>2021-10-28 12:03:57</time>
      </trkpt>
      <trkpt lat="43.27976" lon="-3.20702">
        <ele>683.4</ele>
        <time>2021-10-28 12:03:58</time>
      </trkpt>
      <trkpt lat="43.27971" lon="-3.20702">
        <ele>683.6</ele>
        <time>2021-10-28 12:03:59</time>
      </trkpt>
      <trkpt lat="43.27971" lon="-3.20702">
        <ele>683.6</ele>
        <time>2021-10-28 12:04:00</time>
      </trkpt>
      <trkpt lat="43.27969" lon="-3.20702">
        <ele>683.6</ele>
        <time>2021-10-28 12:04:01</time>
      </trkpt>
      <trkpt lat="43.27968" lon="-3.20703">
        <ele>683.6</ele>
        <time>2021-10-28 12:04:02</time>
      </trkpt>
      <trkpt lat="43.27968" lon="-3.20703">
        <ele>683.6</ele>
        <time>2021-10-28 12:04:03</time>
      </trkpt>
      <trkpt lat="43.27967" lon="-3.20703">
        <ele>683.6</ele>
        <time>2021-10-28 12:04:04</time>
      </trkpt>
      <trkpt lat="43.27964" lon="-3.20703">
        <ele>683.6</ele>
        <time>2021-10-28 12:04:05</time>
      </trkpt>
      <trkpt lat="43.27964" lon="-3.20703">
        <ele>683.6</ele>
        <time>2021-10-28 12:04:06</time>
      </trkpt>
      <trkpt lat="43.27962" lon="-3.20703">
        <ele>683.6</ele>
        <time>2021-10-28 12:04:07</time>
      </trkpt>
      <trkpt lat="43.2796" lon="-3.20702">
        <ele>683.6</ele>
        <time>2021-10-28 12:04:08</time>
      </trkpt>
      <trkpt lat="43.27959" lon="-3.20703">
        <ele>683.6</ele>
        <time>2021-10-28 12:04:09</time>
      </trkpt>
      <trkpt lat="43.27957" lon="-3.20705">
        <ele>683.8</ele>
        <time>2021-10-28 12:04:10</time>
      </trkpt>
      <trkpt lat="43.27955" lon="-3.20704">
        <ele>683.8</ele>
        <time>2021-10-28 12:04:11</time>
      </trkpt>
      <trkpt lat="43.27952" lon="-3.20703">
        <ele>684</ele>
        <time>2021-10-28 12:04:12</time>
      </trkpt>
      <trkpt lat="43.27952" lon="-3.20703">
        <ele>684</ele>
        <time>2021-10-28 12:04:13</time>
      </trkpt>
      <trkpt lat="43.27952" lon="-3.20703">
        <ele>684</ele>
        <time>2021-10-28 12:04:14</time>
      </trkpt>
      <trkpt lat="43.27946" lon="-3.20705">
        <ele>684.2</ele>
        <time>2021-10-28 12:04:15</time>
      </trkpt>
      <trkpt lat="43.27946" lon="-3.20705">
        <ele>684.2</ele>
        <time>2021-10-28 12:04:16</time>
      </trkpt>
      <trkpt lat="43.27943" lon="-3.20704">
        <ele>684.2</ele>
        <time>2021-10-28 12:04:17</time>
      </trkpt>
      <trkpt lat="43.27941" lon="-3.20706">
        <ele>684.4</ele>
        <time>2021-10-28 12:04:18</time>
      </trkpt>
      <trkpt lat="43.27937" lon="-3.20705">
        <ele>684.4</ele>
        <time>2021-10-28 12:04:19</time>
      </trkpt>
      <trkpt lat="43.27937" lon="-3.20705">
        <ele>684.6</ele>
        <time>2021-10-28 12:04:20</time>
      </trkpt>
      <trkpt lat="43.27935" lon="-3.20704">
        <ele>684.6</ele>
        <time>2021-10-28 12:04:21</time>
      </trkpt>
      <trkpt lat="43.27933" lon="-3.20705">
        <ele>684.8</ele>
        <time>2021-10-28 12:04:22</time>
      </trkpt>
      <trkpt lat="43.2793" lon="-3.20705">
        <ele>684.8</ele>
        <time>2021-10-28 12:04:23</time>
      </trkpt>
      <trkpt lat="43.27928" lon="-3.20705">
        <ele>685</ele>
        <time>2021-10-28 12:04:24</time>
      </trkpt>
      <trkpt lat="43.27926" lon="-3.20705">
        <ele>685.2</ele>
        <time>2021-10-28 12:04:25</time>
      </trkpt>
      <trkpt lat="43.27923" lon="-3.20705">
        <ele>685.4</ele>
        <time>2021-10-28 12:04:26</time>
      </trkpt>
      <trkpt lat="43.27923" lon="-3.20705">
        <ele>685.4</ele>
        <time>2021-10-28 12:04:27</time>
      </trkpt>
      <trkpt lat="43.27922" lon="-3.20704">
        <ele>685.4</ele>
        <time>2021-10-28 12:04:28</time>
      </trkpt>
      <trkpt lat="43.2792" lon="-3.20704">
        <ele>685.6</ele>
        <time>2021-10-28 12:04:29</time>
      </trkpt>
      <trkpt lat="43.27912" lon="-3.20701">
        <ele>685.6</ele>
        <time>2021-10-28 12:04:30</time>
      </trkpt>
      <trkpt lat="43.27912" lon="-3.20701">
        <ele>685.8</ele>
        <time>2021-10-28 12:04:31</time>
      </trkpt>
      <trkpt lat="43.27909" lon="-3.20701">
        <ele>686</ele>
        <time>2021-10-28 12:04:32</time>
      </trkpt>
      <trkpt lat="43.27906" lon="-3.20704">
        <ele>686</ele>
        <time>2021-10-28 12:04:33</time>
      </trkpt>
      <trkpt lat="43.27906" lon="-3.20704">
        <ele>686.2</ele>
        <time>2021-10-28 12:04:34</time>
      </trkpt>
      <trkpt lat="43.27907" lon="-3.20706">
        <ele>686.4</ele>
        <time>2021-10-28 12:04:35</time>
      </trkpt>
      <trkpt lat="43.27907" lon="-3.20706">
        <ele>686.6</ele>
        <time>2021-10-28 12:04:36</time>
      </trkpt>
      <trkpt lat="43.27902" lon="-3.20707">
        <ele>686.8</ele>
        <time>2021-10-28 12:04:37</time>
      </trkpt>
      <trkpt lat="43.27902" lon="-3.20707">
        <ele>686.8</ele>
        <time>2021-10-28 12:04:38</time>
      </trkpt>
      <trkpt lat="43.27898" lon="-3.20708">
        <ele>687</ele>
        <time>2021-10-28 12:04:39</time>
      </trkpt>
      <trkpt lat="43.27898" lon="-3.20708">
        <ele>687</ele>
        <time>2021-10-28 12:04:40</time>
      </trkpt>
      <trkpt lat="43.27898" lon="-3.20709">
        <ele>687</ele>
        <time>2021-10-28 12:04:41</time>
      </trkpt>
      <trkpt lat="43.27895" lon="-3.20709">
        <ele>687</ele>
        <time>2021-10-28 12:04:42</time>
      </trkpt>
      <trkpt lat="43.27892" lon="-3.20709">
        <ele>687</ele>
        <time>2021-10-28 12:04:43</time>
      </trkpt>
      <trkpt lat="43.2789" lon="-3.2071">
        <ele>687</ele>
        <time>2021-10-28 12:04:44</time>
      </trkpt>
      <trkpt lat="43.27887" lon="-3.2071">
        <ele>687.2</ele>
        <time>2021-10-28 12:04:45</time>
      </trkpt>
      <trkpt lat="43.27887" lon="-3.2071">
        <ele>687.2</ele>
        <time>2021-10-28 12:04:46</time>
      </trkpt>
      <trkpt lat="43.27885" lon="-3.2071">
        <ele>687.2</ele>
        <time>2021-10-28 12:04:47</time>
      </trkpt>
      <trkpt lat="43.27883" lon="-3.2071">
        <ele>687.2</ele>
        <time>2021-10-28 12:04:48</time>
      </trkpt>
      <trkpt lat="43.27883" lon="-3.2071">
        <ele>687.2</ele>
        <time>2021-10-28 12:04:49</time>
      </trkpt>
      <trkpt lat="43.27882" lon="-3.20707">
        <ele>687.4</ele>
        <time>2021-10-28 12:04:50</time>
      </trkpt>
      <trkpt lat="43.27882" lon="-3.20707">
        <ele>687.6</ele>
        <time>2021-10-28 12:04:51</time>
      </trkpt>
      <trkpt lat="43.27877" lon="-3.20704">
        <ele>687.8</ele>
        <time>2021-10-28 12:04:52</time>
      </trkpt>
      <trkpt lat="43.27877" lon="-3.20704">
        <ele>688</ele>
        <time>2021-10-28 12:04:53</time>
      </trkpt>
      <trkpt lat="43.27872" lon="-3.207">
        <ele>688.2</ele>
        <time>2021-10-28 12:04:54</time>
      </trkpt>
      <trkpt lat="43.27872" lon="-3.207">
        <ele>688.2</ele>
        <time>2021-10-28 12:04:55</time>
      </trkpt>
      <trkpt lat="43.27866" lon="-3.20698">
        <ele>688.4</ele>
        <time>2021-10-28 12:04:56</time>
      </trkpt>
      <trkpt lat="43.27866" lon="-3.20698">
        <ele>688.6</ele>
        <time>2021-10-28 12:04:57</time>
      </trkpt>
      <trkpt lat="43.27865" lon="-3.20696">
        <ele>688.6</ele>
        <time>2021-10-28 12:04:58</time>
      </trkpt>
      <trkpt lat="43.27861" lon="-3.20696">
        <ele>688.8</ele>
        <time>2021-10-28 12:04:59</time>
      </trkpt>
      <trkpt lat="43.27861" lon="-3.20696">
        <ele>689</ele>
        <time>2021-10-28 12:05:00</time>
      </trkpt>
      <trkpt lat="43.27859" lon="-3.20696">
        <ele>689</ele>
        <time>2021-10-28 12:05:01</time>
      </trkpt>
      <trkpt lat="43.27857" lon="-3.20695">
        <ele>689.2</ele>
        <time>2021-10-28 12:05:02</time>
      </trkpt>
      <trkpt lat="43.27856" lon="-3.20695">
        <ele>689.2</ele>
        <time>2021-10-28 12:05:03</time>
      </trkpt>
      <trkpt lat="43.27854" lon="-3.20693">
        <ele>689.4</ele>
        <time>2021-10-28 12:05:04</time>
      </trkpt>
      <trkpt lat="43.27852" lon="-3.20696">
        <ele>689.4</ele>
        <time>2021-10-28 12:05:05</time>
      </trkpt>
      <trkpt lat="43.27852" lon="-3.20696">
        <ele>689.6</ele>
        <time>2021-10-28 12:05:06</time>
      </trkpt>
      <trkpt lat="43.27851" lon="-3.20698">
        <ele>689.6</ele>
        <time>2021-10-28 12:05:07</time>
      </trkpt>
      <trkpt lat="43.27852" lon="-3.20698">
        <ele>690</ele>
        <time>2021-10-28 12:05:08</time>
      </trkpt>
      <trkpt lat="43.2785" lon="-3.20699">
        <ele>690.2</ele>
        <time>2021-10-28 12:05:09</time>
      </trkpt>
      <trkpt lat="43.27849" lon="-3.20697">
        <ele>690.2</ele>
        <time>2021-10-28 12:05:10</time>
      </trkpt>
      <trkpt lat="43.27847" lon="-3.20698">
        <ele>690.2</ele>
        <time>2021-10-28 12:05:11</time>
      </trkpt>
      <trkpt lat="43.27847" lon="-3.20698">
        <ele>690.4</ele>
        <time>2021-10-28 12:05:12</time>
      </trkpt>
      <trkpt lat="43.27847" lon="-3.20699">
        <ele>690.4</ele>
        <time>2021-10-28 12:05:13</time>
      </trkpt>
      <trkpt lat="43.27845" lon="-3.20699">
        <ele>690.4</ele>
        <time>2021-10-28 12:05:14</time>
      </trkpt>
      <trkpt lat="43.27845" lon="-3.20699">
        <ele>690.6</ele>
        <time>2021-10-28 12:05:15</time>
      </trkpt>
      <trkpt lat="43.27842" lon="-3.207">
        <ele>690.8</ele>
        <time>2021-10-28 12:05:16</time>
      </trkpt>
      <trkpt lat="43.27838" lon="-3.20698">
        <ele>690.8</ele>
        <time>2021-10-28 12:05:17</time>
      </trkpt>
      <trkpt lat="43.27837" lon="-3.20699">
        <ele>691</ele>
        <time>2021-10-28 12:05:18</time>
      </trkpt>
      <trkpt lat="43.27837" lon="-3.20699">
        <ele>691</ele>
        <time>2021-10-28 12:05:19</time>
      </trkpt>
      <trkpt lat="43.27833" lon="-3.20699">
        <ele>691.2</ele>
        <time>2021-10-28 12:05:20</time>
      </trkpt>
      <trkpt lat="43.27833" lon="-3.20699">
        <ele>691.2</ele>
        <time>2021-10-28 12:05:21</time>
      </trkpt>
      <trkpt lat="43.27832" lon="-3.20699">
        <ele>691.4</ele>
        <time>2021-10-28 12:05:22</time>
      </trkpt>
      <trkpt lat="43.27831" lon="-3.20699">
        <ele>691.6</ele>
        <time>2021-10-28 12:05:23</time>
      </trkpt>
      <trkpt lat="43.27832" lon="-3.20699">
        <ele>691.8</ele>
        <time>2021-10-28 12:05:24</time>
      </trkpt>
      <trkpt lat="43.27827" lon="-3.20699">
        <ele>692</ele>
        <time>2021-10-28 12:05:25</time>
      </trkpt>
      <trkpt lat="43.27827" lon="-3.20699">
        <ele>692.2</ele>
        <time>2021-10-28 12:05:26</time>
      </trkpt>
      <trkpt lat="43.27827" lon="-3.207">
        <ele>692.4</ele>
        <time>2021-10-28 12:05:27</time>
      </trkpt>
      <trkpt lat="43.27826" lon="-3.20697">
        <ele>692.6</ele>
        <time>2021-10-28 12:05:28</time>
      </trkpt>
      <trkpt lat="43.27826" lon="-3.20697">
        <ele>692.8</ele>
        <time>2021-10-28 12:05:29</time>
      </trkpt>
      <trkpt lat="43.27826" lon="-3.20697">
        <ele>693</ele>
        <time>2021-10-28 12:05:30</time>
      </trkpt>
      <trkpt lat="43.27823" lon="-3.20694">
        <ele>693</ele>
        <time>2021-10-28 12:05:31</time>
      </trkpt>
      <trkpt lat="43.27823" lon="-3.20691">
        <ele>693</ele>
        <time>2021-10-28 12:05:32</time>
      </trkpt>
      <trkpt lat="43.27822" lon="-3.2069">
        <ele>693.2</ele>
        <time>2021-10-28 12:05:33</time>
      </trkpt>
      <trkpt lat="43.27822" lon="-3.20689">
        <ele>693.2</ele>
        <time>2021-10-28 12:05:34</time>
      </trkpt>
      <trkpt lat="43.27822" lon="-3.20687">
        <ele>693.4</ele>
        <time>2021-10-28 12:05:35</time>
      </trkpt>
      <trkpt lat="43.27816" lon="-3.20681">
        <ele>693.4</ele>
        <time>2021-10-28 12:05:36</time>
      </trkpt>
      <trkpt lat="43.27816" lon="-3.20681">
        <ele>693.6</ele>
        <time>2021-10-28 12:05:37</time>
      </trkpt>
      <trkpt lat="43.27816" lon="-3.20681">
        <ele>693.6</ele>
        <time>2021-10-28 12:05:38</time>
      </trkpt>
      <trkpt lat="43.27815" lon="-3.20679">
        <ele>693.8</ele>
        <time>2021-10-28 12:05:39</time>
      </trkpt>
      <trkpt lat="43.27815" lon="-3.20679">
        <ele>694</ele>
        <time>2021-10-28 12:05:40</time>
      </trkpt>
      <trkpt lat="43.27812" lon="-3.20673">
        <ele>694.2</ele>
        <time>2021-10-28 12:05:41</time>
      </trkpt>
      <trkpt lat="43.27812" lon="-3.20673">
        <ele>694.2</ele>
        <time>2021-10-28 12:05:42</time>
      </trkpt>
      <trkpt lat="43.27811" lon="-3.20673">
        <ele>694.2</ele>
        <time>2021-10-28 12:05:43</time>
      </trkpt>
      <trkpt lat="43.2781" lon="-3.20672">
        <ele>694.4</ele>
        <time>2021-10-28 12:05:44</time>
      </trkpt>
      <trkpt lat="43.2781" lon="-3.20672">
        <ele>694.4</ele>
        <time>2021-10-28 12:05:45</time>
      </trkpt>
      <trkpt lat="43.27808" lon="-3.2067">
        <ele>694.4</ele>
        <time>2021-10-28 12:05:46</time>
      </trkpt>
      <trkpt lat="43.27806" lon="-3.2067">
        <ele>694.6</ele>
        <time>2021-10-28 12:05:47</time>
      </trkpt>
      <trkpt lat="43.27805" lon="-3.20669">
        <ele>694.6</ele>
        <time>2021-10-28 12:05:48</time>
      </trkpt>
      <trkpt lat="43.27801" lon="-3.20668">
        <ele>694.8</ele>
        <time>2021-10-28 12:05:49</time>
      </trkpt>
      <trkpt lat="43.27801" lon="-3.20668">
        <ele>694.8</ele>
        <time>2021-10-28 12:05:50</time>
      </trkpt>
      <trkpt lat="43.27801" lon="-3.20668">
        <ele>695</ele>
        <time>2021-10-28 12:05:51</time>
      </trkpt>
      <trkpt lat="43.27798" lon="-3.20665">
        <ele>695.2</ele>
        <time>2021-10-28 12:05:52</time>
      </trkpt>
      <trkpt lat="43.27798" lon="-3.20664">
        <ele>695.4</ele>
        <time>2021-10-28 12:05:53</time>
      </trkpt>
      <trkpt lat="43.27798" lon="-3.20664">
        <ele>695.8</ele>
        <time>2021-10-28 12:05:54</time>
      </trkpt>
      <trkpt lat="43.27798" lon="-3.20664">
        <ele>696</ele>
        <time>2021-10-28 12:05:55</time>
      </trkpt>
      <trkpt lat="43.27798" lon="-3.20664">
        <ele>696.2</ele>
        <time>2021-10-28 12:05:56</time>
      </trkpt>
      <trkpt lat="43.27795" lon="-3.20662">
        <ele>696.4</ele>
        <time>2021-10-28 12:05:57</time>
      </trkpt>
      <trkpt lat="43.27794" lon="-3.20659">
        <ele>696.6</ele>
        <time>2021-10-28 12:05:58</time>
      </trkpt>
      <trkpt lat="43.27794" lon="-3.20659">
        <ele>696.8</ele>
        <time>2021-10-28 12:05:59</time>
      </trkpt>
      <trkpt lat="43.2779" lon="-3.20658">
        <ele>696.8</ele>
        <time>2021-10-28 12:06:00</time>
      </trkpt>
      <trkpt lat="43.2779" lon="-3.20658">
        <ele>697</ele>
        <time>2021-10-28 12:06:01</time>
      </trkpt>
      <trkpt lat="43.2779" lon="-3.20658">
        <ele>697.2</ele>
        <time>2021-10-28 12:06:02</time>
      </trkpt>
      <trkpt lat="43.27789" lon="-3.20658">
        <ele>697.2</ele>
        <time>2021-10-28 12:06:03</time>
      </trkpt>
      <trkpt lat="43.27787" lon="-3.20657">
        <ele>697.4</ele>
        <time>2021-10-28 12:06:04</time>
      </trkpt>
      <trkpt lat="43.27788" lon="-3.20657">
        <ele>697.4</ele>
        <time>2021-10-28 12:06:05</time>
      </trkpt>
      <trkpt lat="43.27785" lon="-3.20654">
        <ele>697.6</ele>
        <time>2021-10-28 12:06:06</time>
      </trkpt>
      <trkpt lat="43.27785" lon="-3.20654">
        <ele>697.8</ele>
        <time>2021-10-28 12:06:07</time>
      </trkpt>
      <trkpt lat="43.27785" lon="-3.20652">
        <ele>697.8</ele>
        <time>2021-10-28 12:06:08</time>
      </trkpt>
      <trkpt lat="43.27785" lon="-3.20652">
        <ele>698</ele>
        <time>2021-10-28 12:06:09</time>
      </trkpt>
      <trkpt lat="43.27783" lon="-3.2065">
        <ele>698</ele>
        <time>2021-10-28 12:06:10</time>
      </trkpt>
      <trkpt lat="43.27781" lon="-3.2065">
        <ele>698.2</ele>
        <time>2021-10-28 12:06:11</time>
      </trkpt>
      <trkpt lat="43.27779" lon="-3.20648">
        <ele>698.4</ele>
        <time>2021-10-28 12:06:12</time>
      </trkpt>
      <trkpt lat="43.27779" lon="-3.20648">
        <ele>698.6</ele>
        <time>2021-10-28 12:06:13</time>
      </trkpt>
      <trkpt lat="43.27777" lon="-3.20649">
        <ele>698.6</ele>
        <time>2021-10-28 12:06:14</time>
      </trkpt>
      <trkpt lat="43.27777" lon="-3.20649">
        <ele>698.8</ele>
        <time>2021-10-28 12:06:15</time>
      </trkpt>
      <trkpt lat="43.27775" lon="-3.20649">
        <ele>699</ele>
        <time>2021-10-28 12:06:16</time>
      </trkpt>
      <trkpt lat="43.27771" lon="-3.20649">
        <ele>699.2</ele>
        <time>2021-10-28 12:06:17</time>
      </trkpt>
      <trkpt lat="43.27771" lon="-3.20649">
        <ele>699.2</ele>
        <time>2021-10-28 12:06:18</time>
      </trkpt>
      <trkpt lat="43.27769" lon="-3.20646">
        <ele>699.4</ele>
        <time>2021-10-28 12:06:19</time>
      </trkpt>
      <trkpt lat="43.27769" lon="-3.20646">
        <ele>699.4</ele>
        <time>2021-10-28 12:06:20</time>
      </trkpt>
      <trkpt lat="43.27767" lon="-3.20645">
        <ele>699.6</ele>
        <time>2021-10-28 12:06:21</time>
      </trkpt>
      <trkpt lat="43.27767" lon="-3.20645">
        <ele>699.8</ele>
        <time>2021-10-28 12:06:22</time>
      </trkpt>
      <trkpt lat="43.27764" lon="-3.20646">
        <ele>700</ele>
        <time>2021-10-28 12:06:23</time>
      </trkpt>
      <trkpt lat="43.27762" lon="-3.20646">
        <ele>700</ele>
        <time>2021-10-28 12:06:24</time>
      </trkpt>
      <trkpt lat="43.2776" lon="-3.20643">
        <ele>700.2</ele>
        <time>2021-10-28 12:06:25</time>
      </trkpt>
      <trkpt lat="43.27758" lon="-3.20643">
        <ele>700.4</ele>
        <time>2021-10-28 12:06:26</time>
      </trkpt>
      <trkpt lat="43.27757" lon="-3.20642">
        <ele>700.6</ele>
        <time>2021-10-28 12:06:27</time>
      </trkpt>
      <trkpt lat="43.27755" lon="-3.2064">
        <ele>700.8</ele>
        <time>2021-10-28 12:06:28</time>
      </trkpt>
      <trkpt lat="43.27755" lon="-3.20639">
        <ele>700.8</ele>
        <time>2021-10-28 12:06:29</time>
      </trkpt>
      <trkpt lat="43.27756" lon="-3.20638">
        <ele>701</ele>
        <time>2021-10-28 12:06:30</time>
      </trkpt>
      <trkpt lat="43.27755" lon="-3.20637">
        <ele>701.2</ele>
        <time>2021-10-28 12:06:31</time>
      </trkpt>
      <trkpt lat="43.27755" lon="-3.20637">
        <ele>701.2</ele>
        <time>2021-10-28 12:06:32</time>
      </trkpt>
      <trkpt lat="43.27752" lon="-3.20637">
        <ele>701.4</ele>
        <time>2021-10-28 12:06:33</time>
      </trkpt>
      <trkpt lat="43.27749" lon="-3.20635">
        <ele>701.4</ele>
        <time>2021-10-28 12:06:34</time>
      </trkpt>
      <trkpt lat="43.27748" lon="-3.20635">
        <ele>701.6</ele>
        <time>2021-10-28 12:06:35</time>
      </trkpt>
      <trkpt lat="43.27748" lon="-3.20635">
        <ele>701.8</ele>
        <time>2021-10-28 12:06:36</time>
      </trkpt>
      <trkpt lat="43.27747" lon="-3.20633">
        <ele>701.8</ele>
        <time>2021-10-28 12:06:37</time>
      </trkpt>
      <trkpt lat="43.27747" lon="-3.20633">
        <ele>702</ele>
        <time>2021-10-28 12:06:38</time>
      </trkpt>
      <trkpt lat="43.27747" lon="-3.20633">
        <ele>702.2</ele>
        <time>2021-10-28 12:06:39</time>
      </trkpt>
      <trkpt lat="43.2774" lon="-3.20632">
        <ele>702.4</ele>
        <time>2021-10-28 12:06:40</time>
      </trkpt>
      <trkpt lat="43.2774" lon="-3.20632">
        <ele>702.4</ele>
        <time>2021-10-28 12:06:41</time>
      </trkpt>
      <trkpt lat="43.2774" lon="-3.20632">
        <ele>702.6</ele>
        <time>2021-10-28 12:06:42</time>
      </trkpt>
      <trkpt lat="43.2774" lon="-3.20632">
        <ele>702.8</ele>
        <time>2021-10-28 12:06:43</time>
      </trkpt>
      <trkpt lat="43.27736" lon="-3.20627">
        <ele>703</ele>
        <time>2021-10-28 12:06:44</time>
      </trkpt>
      <trkpt lat="43.27736" lon="-3.20627">
        <ele>703.2</ele>
        <time>2021-10-28 12:06:45</time>
      </trkpt>
      <trkpt lat="43.27734" lon="-3.20627">
        <ele>703.4</ele>
        <time>2021-10-28 12:06:46</time>
      </trkpt>
      <trkpt lat="43.27734" lon="-3.20623">
        <ele>703.4</ele>
        <time>2021-10-28 12:06:47</time>
      </trkpt>
      <trkpt lat="43.27734" lon="-3.20623">
        <ele>703.6</ele>
        <time>2021-10-28 12:06:48</time>
      </trkpt>
      <trkpt lat="43.27734" lon="-3.20623">
        <ele>703.6</ele>
        <time>2021-10-28 12:06:49</time>
      </trkpt>
      <trkpt lat="43.27734" lon="-3.20623">
        <ele>703.8</ele>
        <time>2021-10-28 12:06:50</time>
      </trkpt>
      <trkpt lat="43.27732" lon="-3.20622">
        <ele>703.8</ele>
        <time>2021-10-28 12:06:51</time>
      </trkpt>
      <trkpt lat="43.27731" lon="-3.20622">
        <ele>703.8</ele>
        <time>2021-10-28 12:06:52</time>
      </trkpt>
      <trkpt lat="43.27729" lon="-3.20622">
        <ele>703.8</ele>
        <time>2021-10-28 12:06:53</time>
      </trkpt>
      <trkpt lat="43.27729" lon="-3.20622">
        <ele>703.8</ele>
        <time>2021-10-28 12:06:54</time>
      </trkpt>
      <trkpt lat="43.27725" lon="-3.20622">
        <ele>704</ele>
        <time>2021-10-28 12:06:55</time>
      </trkpt>
      <trkpt lat="43.27725" lon="-3.20622">
        <ele>704</ele>
        <time>2021-10-28 12:06:56</time>
      </trkpt>
      <trkpt lat="43.2772" lon="-3.20622">
        <ele>704.2</ele>
        <time>2021-10-28 12:06:57</time>
      </trkpt>
      <trkpt lat="43.2772" lon="-3.20621">
        <ele>704.4</ele>
        <time>2021-10-28 12:06:58</time>
      </trkpt>
      <trkpt lat="43.27719" lon="-3.20621">
        <ele>704.6</ele>
        <time>2021-10-28 12:06:59</time>
      </trkpt>
      <trkpt lat="43.27718" lon="-3.20621">
        <ele>704.8</ele>
        <time>2021-10-28 12:07:00</time>
      </trkpt>
      <trkpt lat="43.27718" lon="-3.20621">
        <ele>705</ele>
        <time>2021-10-28 12:07:01</time>
      </trkpt>
      <trkpt lat="43.27716" lon="-3.20621">
        <ele>705.2</ele>
        <time>2021-10-28 12:07:02</time>
      </trkpt>
      <trkpt lat="43.27716" lon="-3.20621">
        <ele>705.4</ele>
        <time>2021-10-28 12:07:03</time>
      </trkpt>
      <trkpt lat="43.27716" lon="-3.2062">
        <ele>705.4</ele>
        <time>2021-10-28 12:07:04</time>
      </trkpt>
      <trkpt lat="43.27715" lon="-3.20619">
        <ele>705.6</ele>
        <time>2021-10-28 12:07:05</time>
      </trkpt>
      <trkpt lat="43.27715" lon="-3.20619">
        <ele>705.6</ele>
        <time>2021-10-28 12:07:06</time>
      </trkpt>
      <trkpt lat="43.27713" lon="-3.20619">
        <ele>705.6</ele>
        <time>2021-10-28 12:07:07</time>
      </trkpt>
      <trkpt lat="43.27709" lon="-3.20615">
        <ele>705.6</ele>
        <time>2021-10-28 12:07:08</time>
      </trkpt>
      <trkpt lat="43.27709" lon="-3.20615">
        <ele>705.6</ele>
        <time>2021-10-28 12:07:09</time>
      </trkpt>
      <trkpt lat="43.27709" lon="-3.20615">
        <ele>705.6</ele>
        <time>2021-10-28 12:07:10</time>
      </trkpt>
      <trkpt lat="43.27708" lon="-3.20613">
        <ele>705.4</ele>
        <time>2021-10-28 12:07:11</time>
      </trkpt>
      <trkpt lat="43.27708" lon="-3.20613">
        <ele>705.4</ele>
        <time>2021-10-28 12:07:12</time>
      </trkpt>
      <trkpt lat="43.27709" lon="-3.20613">
        <ele>705.4</ele>
        <time>2021-10-28 12:07:13</time>
      </trkpt>
      <trkpt lat="43.27708" lon="-3.2061">
        <ele>705.6</ele>
        <time>2021-10-28 12:07:14</time>
      </trkpt>
      <trkpt lat="43.27704" lon="-3.20611">
        <ele>705.6</ele>
        <time>2021-10-28 12:07:15</time>
      </trkpt>
      <trkpt lat="43.27691" lon="-3.20613">
        <ele>707.2</ele>
        <time>2021-10-28 12:07:16</time>
      </trkpt>
      <trkpt lat="43.2769" lon="-3.2061">
        <ele>707.4</ele>
        <time>2021-10-28 12:07:17</time>
      </trkpt>
      <trkpt lat="43.2769" lon="-3.2061">
        <ele>707.4</ele>
        <time>2021-10-28 12:07:18</time>
      </trkpt>
      <trkpt lat="43.27688" lon="-3.20607">
        <ele>707.6</ele>
        <time>2021-10-28 12:07:19</time>
      </trkpt>
      <trkpt lat="43.27686" lon="-3.20605">
        <ele>707.6</ele>
        <time>2021-10-28 12:07:20</time>
      </trkpt>
      <trkpt lat="43.27685" lon="-3.20604">
        <ele>707.8</ele>
        <time>2021-10-28 12:07:21</time>
      </trkpt>
      <trkpt lat="43.27681" lon="-3.206">
        <ele>708</ele>
        <time>2021-10-28 12:07:22</time>
      </trkpt>
      <trkpt lat="43.27681" lon="-3.206">
        <ele>708.2</ele>
        <time>2021-10-28 12:07:23</time>
      </trkpt>
      <trkpt lat="43.27681" lon="-3.20599">
        <ele>708.4</ele>
        <time>2021-10-28 12:07:24</time>
      </trkpt>
      <trkpt lat="43.2768" lon="-3.20599">
        <ele>708.6</ele>
        <time>2021-10-28 12:07:25</time>
      </trkpt>
      <trkpt lat="43.27679" lon="-3.20601">
        <ele>708.8</ele>
        <time>2021-10-28 12:07:26</time>
      </trkpt>
      <trkpt lat="43.27679" lon="-3.20601">
        <ele>709</ele>
        <time>2021-10-28 12:07:27</time>
      </trkpt>
      <trkpt lat="43.27678" lon="-3.20599">
        <ele>709.2</ele>
        <time>2021-10-28 12:07:28</time>
      </trkpt>
      <trkpt lat="43.27676" lon="-3.20599">
        <ele>709.4</ele>
        <time>2021-10-28 12:07:29</time>
      </trkpt>
      <trkpt lat="43.27673" lon="-3.20596">
        <ele>709.6</ele>
        <time>2021-10-28 12:07:30</time>
      </trkpt>
      <trkpt lat="43.27673" lon="-3.20596">
        <ele>709.8</ele>
        <time>2021-10-28 12:07:31</time>
      </trkpt>
      <trkpt lat="43.27673" lon="-3.20596">
        <ele>709.8</ele>
        <time>2021-10-28 12:07:32</time>
      </trkpt>
      <trkpt lat="43.27668" lon="-3.20595">
        <ele>710</ele>
        <time>2021-10-28 12:07:33</time>
      </trkpt>
      <trkpt lat="43.27656" lon="-3.2059">
        <ele>710.8</ele>
        <time>2021-10-28 12:07:34</time>
      </trkpt>
      <trkpt lat="43.27651" lon="-3.20586">
        <ele>711</ele>
        <time>2021-10-28 12:07:35</time>
      </trkpt>
      <trkpt lat="43.2765" lon="-3.20584">
        <ele>711.4</ele>
        <time>2021-10-28 12:07:36</time>
      </trkpt>
      <trkpt lat="43.2765" lon="-3.20584">
        <ele>711.8</ele>
        <time>2021-10-28 12:07:42</time>
      </trkpt>
      <trkpt lat="43.27642" lon="-3.20585">
        <ele>712.2</ele>
        <time>2021-10-28 12:07:43</time>
      </trkpt>
      <trkpt lat="43.2764" lon="-3.20584">
        <ele>712.6</ele>
        <time>2021-10-28 12:07:44</time>
      </trkpt>
      <trkpt lat="43.2764" lon="-3.20584">
        <ele>712.8</ele>
        <time>2021-10-28 12:07:45</time>
      </trkpt>
      <trkpt lat="43.27635" lon="-3.20581">
        <ele>713</ele>
        <time>2021-10-28 12:07:46</time>
      </trkpt>
      <trkpt lat="43.27635" lon="-3.20581">
        <ele>713.2</ele>
        <time>2021-10-28 12:07:47</time>
      </trkpt>
      <trkpt lat="43.27632" lon="-3.20578">
        <ele>713.4</ele>
        <time>2021-10-28 12:07:48</time>
      </trkpt>
      <trkpt lat="43.27629" lon="-3.20577">
        <ele>713.6</ele>
        <time>2021-10-28 12:07:49</time>
      </trkpt>
      <trkpt lat="43.27629" lon="-3.20577">
        <ele>713.8</ele>
        <time>2021-10-28 12:07:50</time>
      </trkpt>
      <trkpt lat="43.27629" lon="-3.20577">
        <ele>714</ele>
        <time>2021-10-28 12:07:51</time>
      </trkpt>
      <trkpt lat="43.27627" lon="-3.20578">
        <ele>714</ele>
        <time>2021-10-28 12:07:52</time>
      </trkpt>
      <trkpt lat="43.27623" lon="-3.20578">
        <ele>714.2</ele>
        <time>2021-10-28 12:07:53</time>
      </trkpt>
      <trkpt lat="43.27623" lon="-3.20579">
        <ele>714.4</ele>
        <time>2021-10-28 12:07:54</time>
      </trkpt>
      <trkpt lat="43.27623" lon="-3.20579">
        <ele>714.6</ele>
        <time>2021-10-28 12:07:55</time>
      </trkpt>
      <trkpt lat="43.27622" lon="-3.20578">
        <ele>714.8</ele>
        <time>2021-10-28 12:07:56</time>
      </trkpt>
      <trkpt lat="43.27622" lon="-3.20578">
        <ele>715</ele>
        <time>2021-10-28 12:07:57</time>
      </trkpt>
      <trkpt lat="43.27615" lon="-3.20576">
        <ele>715.2</ele>
        <time>2021-10-28 12:07:58</time>
      </trkpt>
      <trkpt lat="43.27615" lon="-3.20576">
        <ele>715.4</ele>
        <time>2021-10-28 12:07:59</time>
      </trkpt>
      <trkpt lat="43.27614" lon="-3.20576">
        <ele>715.6</ele>
        <time>2021-10-28 12:08:04</time>
      </trkpt>
      <trkpt lat="43.27609" lon="-3.20577">
        <ele>715.8</ele>
        <time>2021-10-28 12:08:05</time>
      </trkpt>
      <trkpt lat="43.27609" lon="-3.20577">
        <ele>716</ele>
        <time>2021-10-28 12:08:06</time>
      </trkpt>
      <trkpt lat="43.27605" lon="-3.20573">
        <ele>716.2</ele>
        <time>2021-10-28 12:08:07</time>
      </trkpt>
      <trkpt lat="43.27602" lon="-3.20577">
        <ele>716.4</ele>
        <time>2021-10-28 12:08:08</time>
      </trkpt>
      <trkpt lat="43.27602" lon="-3.20577">
        <ele>716.8</ele>
        <time>2021-10-28 12:08:09</time>
      </trkpt>
      <trkpt lat="43.27602" lon="-3.20577">
        <ele>717</ele>
        <time>2021-10-28 12:08:10</time>
      </trkpt>
      <trkpt lat="43.27599" lon="-3.20581">
        <ele>717.2</ele>
        <time>2021-10-28 12:08:11</time>
      </trkpt>
      <trkpt lat="43.27597" lon="-3.20582">
        <ele>717.2</ele>
        <time>2021-10-28 12:08:12</time>
      </trkpt>
      <trkpt lat="43.27597" lon="-3.20582">
        <ele>717.2</ele>
        <time>2021-10-28 12:08:13</time>
      </trkpt>
      <trkpt lat="43.27595" lon="-3.20584">
        <ele>717.4</ele>
        <time>2021-10-28 12:08:14</time>
      </trkpt>
      <trkpt lat="43.2759" lon="-3.2059">
        <ele>717.6</ele>
        <time>2021-10-28 12:08:15</time>
      </trkpt>
      <trkpt lat="43.2759" lon="-3.2059">
        <ele>717.6</ele>
        <time>2021-10-28 12:08:16</time>
      </trkpt>
      <trkpt lat="43.27586" lon="-3.20588">
        <ele>717.6</ele>
        <time>2021-10-28 12:08:17</time>
      </trkpt>
      <trkpt lat="43.27586" lon="-3.20588">
        <ele>717.8</ele>
        <time>2021-10-28 12:08:18</time>
      </trkpt>
      <trkpt lat="43.27586" lon="-3.20589">
        <ele>717.8</ele>
        <time>2021-10-28 12:08:19</time>
      </trkpt>
      <trkpt lat="43.27586" lon="-3.20589">
        <ele>718</ele>
        <time>2021-10-28 12:08:20</time>
      </trkpt>
      <trkpt lat="43.27584" lon="-3.20593">
        <ele>718.2</ele>
        <time>2021-10-28 12:08:21</time>
      </trkpt>
      <trkpt lat="43.27584" lon="-3.20593">
        <ele>718.4</ele>
        <time>2021-10-28 12:08:22</time>
      </trkpt>
      <trkpt lat="43.27583" lon="-3.20595">
        <ele>718.6</ele>
        <time>2021-10-28 12:08:23</time>
      </trkpt>
      <trkpt lat="43.27578" lon="-3.20595">
        <ele>718.8</ele>
        <time>2021-10-28 12:08:24</time>
      </trkpt>
      <trkpt lat="43.27578" lon="-3.20595">
        <ele>719</ele>
        <time>2021-10-28 12:08:25</time>
      </trkpt>
      <trkpt lat="43.27578" lon="-3.20595">
        <ele>719.2</ele>
        <time>2021-10-28 12:08:26</time>
      </trkpt>
      <trkpt lat="43.27576" lon="-3.20599">
        <ele>719.4</ele>
        <time>2021-10-28 12:08:27</time>
      </trkpt>
      <trkpt lat="43.27573" lon="-3.20601">
        <ele>719.4</ele>
        <time>2021-10-28 12:08:28</time>
      </trkpt>
      <trkpt lat="43.27573" lon="-3.20601">
        <ele>719.6</ele>
        <time>2021-10-28 12:08:29</time>
      </trkpt>
      <trkpt lat="43.27574" lon="-3.20605">
        <ele>719.6</ele>
        <time>2021-10-28 12:08:30</time>
      </trkpt>
      <trkpt lat="43.27574" lon="-3.20605">
        <ele>719.8</ele>
        <time>2021-10-28 12:08:31</time>
      </trkpt>
      <trkpt lat="43.27576" lon="-3.20609">
        <ele>720</ele>
        <time>2021-10-28 12:08:32</time>
      </trkpt>
      <trkpt lat="43.27576" lon="-3.20609">
        <ele>720</ele>
        <time>2021-10-28 12:08:33</time>
      </trkpt>
      <trkpt lat="43.27575" lon="-3.20613">
        <ele>720.2</ele>
        <time>2021-10-28 12:08:34</time>
      </trkpt>
      <trkpt lat="43.27575" lon="-3.20613">
        <ele>720.4</ele>
        <time>2021-10-28 12:08:35</time>
      </trkpt>
      <trkpt lat="43.27576" lon="-3.20616">
        <ele>720.4</ele>
        <time>2021-10-28 12:08:36</time>
      </trkpt>
      <trkpt lat="43.27576" lon="-3.20616">
        <ele>720.6</ele>
        <time>2021-10-28 12:08:37</time>
      </trkpt>
      <trkpt lat="43.27576" lon="-3.20616">
        <ele>720.6</ele>
        <time>2021-10-28 12:08:38</time>
      </trkpt>
      <trkpt lat="43.27577" lon="-3.20621">
        <ele>720.8</ele>
        <time>2021-10-28 12:08:39</time>
      </trkpt>
      <trkpt lat="43.2758" lon="-3.20624">
        <ele>721</ele>
        <time>2021-10-28 12:08:40</time>
      </trkpt>
      <trkpt lat="43.2758" lon="-3.20624">
        <ele>721.2</ele>
        <time>2021-10-28 12:08:41</time>
      </trkpt>
      <trkpt lat="43.27581" lon="-3.20628">
        <ele>721.4</ele>
        <time>2021-10-28 12:08:42</time>
      </trkpt>
      <trkpt lat="43.27581" lon="-3.20628">
        <ele>721.6</ele>
        <time>2021-10-28 12:08:43</time>
      </trkpt>
      <trkpt lat="43.27582" lon="-3.20631">
        <ele>721.8</ele>
        <time>2021-10-28 12:08:44</time>
      </trkpt>
      <trkpt lat="43.27582" lon="-3.20631">
        <ele>721.8</ele>
        <time>2021-10-28 12:08:45</time>
      </trkpt>
      <trkpt lat="43.27584" lon="-3.20632">
        <ele>721.8</ele>
        <time>2021-10-28 12:08:46</time>
      </trkpt>
      <trkpt lat="43.27584" lon="-3.20633">
        <ele>722</ele>
        <time>2021-10-28 12:08:47</time>
      </trkpt>
      <trkpt lat="43.27587" lon="-3.20637">
        <ele>722.2</ele>
        <time>2021-10-28 12:08:48</time>
      </trkpt>
      <trkpt lat="43.27587" lon="-3.20637">
        <ele>722.4</ele>
        <time>2021-10-28 12:08:49</time>
      </trkpt>
      <trkpt lat="43.27586" lon="-3.20638">
        <ele>722.6</ele>
        <time>2021-10-28 12:08:50</time>
      </trkpt>
      <trkpt lat="43.27588" lon="-3.20638">
        <ele>722.6</ele>
        <time>2021-10-28 12:08:51</time>
      </trkpt>
      <trkpt lat="43.27591" lon="-3.20641">
        <ele>722.8</ele>
        <time>2021-10-28 12:08:52</time>
      </trkpt>
      <trkpt lat="43.27592" lon="-3.20644">
        <ele>722.8</ele>
        <time>2021-10-28 12:08:53</time>
      </trkpt>
      <trkpt lat="43.27592" lon="-3.20644">
        <ele>723</ele>
        <time>2021-10-28 12:08:54</time>
      </trkpt>
      <trkpt lat="43.27602" lon="-3.20688">
        <ele>725.8</ele>
        <time>2021-10-28 12:08:55</time>
      </trkpt>
      <trkpt lat="43.27602" lon="-3.20688">
        <ele>726</ele>
        <time>2021-10-28 12:08:56</time>
      </trkpt>
      <trkpt lat="43.27601" lon="-3.2069">
        <ele>726.2</ele>
        <time>2021-10-28 12:08:57</time>
      </trkpt>
      <trkpt lat="43.27601" lon="-3.20692">
        <ele>726.4</ele>
        <time>2021-10-28 12:08:58</time>
      </trkpt>
      <trkpt lat="43.27601" lon="-3.20692">
        <ele>726.6</ele>
        <time>2021-10-28 12:08:59</time>
      </trkpt>
      <trkpt lat="43.27601" lon="-3.20692">
        <ele>726.6</ele>
        <time>2021-10-28 12:09:00</time>
      </trkpt>
      <trkpt lat="43.276" lon="-3.20699">
        <ele>726.8</ele>
        <time>2021-10-28 12:09:01</time>
      </trkpt>
      <trkpt lat="43.27601" lon="-3.20701">
        <ele>727</ele>
        <time>2021-10-28 12:09:02</time>
      </trkpt>
      <trkpt lat="43.27601" lon="-3.20701">
        <ele>727</ele>
        <time>2021-10-28 12:09:03</time>
      </trkpt>
      <trkpt lat="43.27601" lon="-3.20706">
        <ele>727.2</ele>
        <time>2021-10-28 12:09:04</time>
      </trkpt>
      <trkpt lat="43.27601" lon="-3.20706">
        <ele>727.4</ele>
        <time>2021-10-28 12:09:05</time>
      </trkpt>
      <trkpt lat="43.27601" lon="-3.20706">
        <ele>727.4</ele>
        <time>2021-10-28 12:09:06</time>
      </trkpt>
      <trkpt lat="43.27598" lon="-3.2071">
        <ele>727.6</ele>
        <time>2021-10-28 12:09:07</time>
      </trkpt>
      <trkpt lat="43.27598" lon="-3.2071">
        <ele>727.8</ele>
        <time>2021-10-28 12:09:08</time>
      </trkpt>
      <trkpt lat="43.27597" lon="-3.20711">
        <ele>727.8</ele>
        <time>2021-10-28 12:09:09</time>
      </trkpt>
      <trkpt lat="43.27599" lon="-3.2071">
        <ele>727.8</ele>
        <time>2021-10-28 12:09:10</time>
      </trkpt>
      <trkpt lat="43.27599" lon="-3.2071">
        <ele>727.8</ele>
        <time>2021-10-28 12:09:11</time>
      </trkpt>
      <trkpt lat="43.27599" lon="-3.20708">
        <ele>727.8</ele>
        <time>2021-10-28 12:09:12</time>
      </trkpt>
      <trkpt lat="43.276" lon="-3.20708">
        <ele>727.8</ele>
        <time>2021-10-28 12:09:13</time>
      </trkpt>
      <trkpt lat="43.276" lon="-3.20708">
        <ele>727.8</ele>
        <time>2021-10-28 12:09:14</time>
      </trkpt>
      <trkpt lat="43.276" lon="-3.20709">
        <ele>727.8</ele>
        <time>2021-10-28 12:09:15</time>
      </trkpt>
      <trkpt lat="43.276" lon="-3.20709">
        <ele>727.8</ele>
        <time>2021-10-28 12:09:33</time>
      </trkpt>
      <trkpt lat="43.27601" lon="-3.20706">
        <ele>728.8</ele>
        <time>2021-10-28 12:09:34</time>
      </trkpt>
      <trkpt lat="43.27601" lon="-3.20706">
        <ele>728.8</ele>
        <time>2021-10-28 12:09:35</time>
      </trkpt>
      <trkpt lat="43.27603" lon="-3.20703">
        <ele>728.8</ele>
        <time>2021-10-28 12:09:36</time>
      </trkpt>
      <trkpt lat="43.27604" lon="-3.20702">
        <ele>728.8</ele>
        <time>2021-10-28 12:09:37</time>
      </trkpt>
      <trkpt lat="43.27606" lon="-3.20697">
        <ele>728.8</ele>
        <time>2021-10-28 12:09:38</time>
      </trkpt>
      <trkpt lat="43.27606" lon="-3.20697">
        <ele>729</ele>
        <time>2021-10-28 12:09:39</time>
      </trkpt>
      <trkpt lat="43.27607" lon="-3.20693">
        <ele>729.2</ele>
        <time>2021-10-28 12:09:40</time>
      </trkpt>
      <trkpt lat="43.27607" lon="-3.20693">
        <ele>729.4</ele>
        <time>2021-10-28 12:09:41</time>
      </trkpt>
      <trkpt lat="43.27608" lon="-3.2069">
        <ele>729.6</ele>
        <time>2021-10-28 12:09:42</time>
      </trkpt>
      <trkpt lat="43.2761" lon="-3.20686">
        <ele>729.6</ele>
        <time>2021-10-28 12:09:43</time>
      </trkpt>
      <trkpt lat="43.2761" lon="-3.20686">
        <ele>729.6</ele>
        <time>2021-10-28 12:09:44</time>
      </trkpt>
      <trkpt lat="43.2761" lon="-3.20681">
        <ele>729.8</ele>
        <time>2021-10-28 12:09:45</time>
      </trkpt>
      <trkpt lat="43.2761" lon="-3.20681">
        <ele>730</ele>
        <time>2021-10-28 12:09:46</time>
      </trkpt>
      <trkpt lat="43.27611" lon="-3.20677">
        <ele>730.2</ele>
        <time>2021-10-28 12:09:47</time>
      </trkpt>
      <trkpt lat="43.27611" lon="-3.20677">
        <ele>730.6</ele>
        <time>2021-10-28 12:09:48</time>
      </trkpt>
      <trkpt lat="43.27612" lon="-3.20671">
        <ele>730.8</ele>
        <time>2021-10-28 12:09:49</time>
      </trkpt>
      <trkpt lat="43.27612" lon="-3.20671">
        <ele>731</ele>
        <time>2021-10-28 12:09:50</time>
      </trkpt>
      <trkpt lat="43.27612" lon="-3.2067">
        <ele>731.2</ele>
        <time>2021-10-28 12:09:51</time>
      </trkpt>
      <trkpt lat="43.27611" lon="-3.20667">
        <ele>731.4</ele>
        <time>2021-10-28 12:09:52</time>
      </trkpt>
      <trkpt lat="43.27611" lon="-3.20667">
        <ele>731.6</ele>
        <time>2021-10-28 12:09:53</time>
      </trkpt>
      <trkpt lat="43.27616" lon="-3.20662">
        <ele>732</ele>
        <time>2021-10-28 12:09:54</time>
      </trkpt>
      <trkpt lat="43.27616" lon="-3.20662">
        <ele>732.2</ele>
        <time>2021-10-28 12:10:23</time>
      </trkpt>
      <trkpt lat="43.27616" lon="-3.20658">
        <ele>732.6</ele>
        <time>2021-10-28 12:10:24</time>
      </trkpt>
      <trkpt lat="43.27616" lon="-3.20658">
        <ele>732.8</ele>
        <time>2021-10-28 12:10:25</time>
      </trkpt>
      <trkpt lat="43.27617" lon="-3.20653">
        <ele>733</ele>
        <time>2021-10-28 12:10:26</time>
      </trkpt>
      <trkpt lat="43.27617" lon="-3.20653">
        <ele>733.2</ele>
        <time>2021-10-28 12:10:27</time>
      </trkpt>
      <trkpt lat="43.27619" lon="-3.20652">
        <ele>733.4</ele>
        <time>2021-10-28 12:10:28</time>
      </trkpt>
      <trkpt lat="43.27619" lon="-3.20652">
        <ele>733.6</ele>
        <time>2021-10-28 12:10:29</time>
      </trkpt>
      <trkpt lat="43.27625" lon="-3.2065">
        <ele>733.8</ele>
        <time>2021-10-28 12:10:30</time>
      </trkpt>
      <trkpt lat="43.27625" lon="-3.2065">
        <ele>734.2</ele>
        <time>2021-10-28 12:10:31</time>
      </trkpt>
      <trkpt lat="43.27629" lon="-3.20649">
        <ele>734.4</ele>
        <time>2021-10-28 12:10:32</time>
      </trkpt>
      <trkpt lat="43.27629" lon="-3.20648">
        <ele>734.6</ele>
        <time>2021-10-28 12:10:33</time>
      </trkpt>
      <trkpt lat="43.2763" lon="-3.20646">
        <ele>734.8</ele>
        <time>2021-10-28 12:10:34</time>
      </trkpt>
      <trkpt lat="43.27629" lon="-3.20644">
        <ele>735</ele>
        <time>2021-10-28 12:10:35</time>
      </trkpt>
      <trkpt lat="43.27631" lon="-3.20642">
        <ele>735</ele>
        <time>2021-10-28 12:10:36</time>
      </trkpt>
      <trkpt lat="43.27636" lon="-3.20643">
        <ele>735</ele>
        <time>2021-10-28 12:10:37</time>
      </trkpt>
      <trkpt lat="43.27636" lon="-3.20643">
        <ele>735.2</ele>
        <time>2021-10-28 12:10:38</time>
      </trkpt>
      <trkpt lat="43.27638" lon="-3.20643">
        <ele>735.4</ele>
        <time>2021-10-28 12:10:39</time>
      </trkpt>
      <trkpt lat="43.27639" lon="-3.20648">
        <ele>735.8</ele>
        <time>2021-10-28 12:10:40</time>
      </trkpt>
      <trkpt lat="43.27639" lon="-3.20648">
        <ele>735.8</ele>
        <time>2021-10-28 12:10:41</time>
      </trkpt>
      <trkpt lat="43.27641" lon="-3.20649">
        <ele>736</ele>
        <time>2021-10-28 12:10:42</time>
      </trkpt>
      <trkpt lat="43.27641" lon="-3.20649">
        <ele>736.2</ele>
        <time>2021-10-28 12:10:43</time>
      </trkpt>
      <trkpt lat="43.27642" lon="-3.20649">
        <ele>736.4</ele>
        <time>2021-10-28 12:10:44</time>
      </trkpt>
      <trkpt lat="43.27643" lon="-3.20649">
        <ele>736.6</ele>
        <time>2021-10-28 12:10:45</time>
      </trkpt>
      <trkpt lat="43.27646" lon="-3.20649">
        <ele>736.8</ele>
        <time>2021-10-28 12:10:46</time>
      </trkpt>
      <trkpt lat="43.27645" lon="-3.2065">
        <ele>737.2</ele>
        <time>2021-10-28 12:10:47</time>
      </trkpt>
      <trkpt lat="43.27646" lon="-3.2065">
        <ele>737.4</ele>
        <time>2021-10-28 12:10:48</time>
      </trkpt>
      <trkpt lat="43.27648" lon="-3.2065">
        <ele>737.6</ele>
        <time>2021-10-28 12:10:49</time>
      </trkpt>
      <trkpt lat="43.2765" lon="-3.20652">
        <ele>737.8</ele>
        <time>2021-10-28 12:10:50</time>
      </trkpt>
      <trkpt lat="43.27651" lon="-3.20653">
        <ele>737.8</ele>
        <time>2021-10-28 12:10:51</time>
      </trkpt>
      <trkpt lat="43.27653" lon="-3.20655">
        <ele>737.8</ele>
        <time>2021-10-28 12:10:52</time>
      </trkpt>
      <trkpt lat="43.27653" lon="-3.20655">
        <ele>738</ele>
        <time>2021-10-28 12:10:53</time>
      </trkpt>
      <trkpt lat="43.27654" lon="-3.20655">
        <ele>738</ele>
        <time>2021-10-28 12:10:54</time>
      </trkpt>
      <trkpt lat="43.27654" lon="-3.20655">
        <ele>738</ele>
        <time>2021-10-28 12:10:55</time>
      </trkpt>
      <trkpt lat="43.27658" lon="-3.20657">
        <ele>738.2</ele>
        <time>2021-10-28 12:10:56</time>
      </trkpt>
      <trkpt lat="43.27657" lon="-3.20658">
        <ele>738.2</ele>
        <time>2021-10-28 12:10:57</time>
      </trkpt>
      <trkpt lat="43.27657" lon="-3.20658">
        <ele>738.4</ele>
        <time>2021-10-28 12:10:58</time>
      </trkpt>
      <trkpt lat="43.27657" lon="-3.2066">
        <ele>738.6</ele>
        <time>2021-10-28 12:10:59</time>
      </trkpt>
      <trkpt lat="43.27656" lon="-3.2066">
        <ele>738.8</ele>
        <time>2021-10-28 12:11:00</time>
      </trkpt>
      <trkpt lat="43.27656" lon="-3.2066">
        <ele>739.2</ele>
        <time>2021-10-28 12:11:01</time>
      </trkpt>
      <trkpt lat="43.27655" lon="-3.20663">
        <ele>739.4</ele>
        <time>2021-10-28 12:11:02</time>
      </trkpt>
      <trkpt lat="43.27656" lon="-3.20665">
        <ele>739.6</ele>
        <time>2021-10-28 12:11:03</time>
      </trkpt>
      <trkpt lat="43.2766" lon="-3.20666">
        <ele>739.8</ele>
        <time>2021-10-28 12:11:04</time>
      </trkpt>
      <trkpt lat="43.27662" lon="-3.20667">
        <ele>740</ele>
        <time>2021-10-28 12:11:05</time>
      </trkpt>
      <trkpt lat="43.27663" lon="-3.20666">
        <ele>740.2</ele>
        <time>2021-10-28 12:11:06</time>
      </trkpt>
      <trkpt lat="43.27666" lon="-3.20669">
        <ele>740.4</ele>
        <time>2021-10-28 12:11:07</time>
      </trkpt>
      <trkpt lat="43.27671" lon="-3.20672">
        <ele>740.6</ele>
        <time>2021-10-28 12:11:08</time>
      </trkpt>
      <trkpt lat="43.27673" lon="-3.20675">
        <ele>740.8</ele>
        <time>2021-10-28 12:11:09</time>
      </trkpt>
      <trkpt lat="43.27673" lon="-3.20675">
        <ele>741</ele>
        <time>2021-10-28 12:11:10</time>
      </trkpt>
      <trkpt lat="43.27672" lon="-3.20673">
        <ele>741.2</ele>
        <time>2021-10-28 12:11:11</time>
      </trkpt>
      <trkpt lat="43.27672" lon="-3.20673">
        <ele>741.4</ele>
        <time>2021-10-28 12:11:12</time>
      </trkpt>
      <trkpt lat="43.27674" lon="-3.20675">
        <ele>741.4</ele>
        <time>2021-10-28 12:11:13</time>
      </trkpt>
      <trkpt lat="43.27674" lon="-3.20677">
        <ele>741.6</ele>
        <time>2021-10-28 12:11:14</time>
      </trkpt>
      <trkpt lat="43.27675" lon="-3.20678">
        <ele>741.8</ele>
        <time>2021-10-28 12:11:15</time>
      </trkpt>
      <trkpt lat="43.27678" lon="-3.2068">
        <ele>741.8</ele>
        <time>2021-10-28 12:11:16</time>
      </trkpt>
      <trkpt lat="43.27681" lon="-3.20684">
        <ele>742</ele>
        <time>2021-10-28 12:11:17</time>
      </trkpt>
      <trkpt lat="43.27681" lon="-3.20684">
        <ele>742.2</ele>
        <time>2021-10-28 12:11:18</time>
      </trkpt>
      <trkpt lat="43.27683" lon="-3.20686">
        <ele>742.4</ele>
        <time>2021-10-28 12:11:19</time>
      </trkpt>
      <trkpt lat="43.27683" lon="-3.20686">
        <ele>742.4</ele>
        <time>2021-10-28 12:11:20</time>
      </trkpt>
      <trkpt lat="43.27684" lon="-3.20685">
        <ele>742.6</ele>
        <time>2021-10-28 12:11:21</time>
      </trkpt>
      <trkpt lat="43.27686" lon="-3.20689">
        <ele>742.6</ele>
        <time>2021-10-28 12:11:22</time>
      </trkpt>
      <trkpt lat="43.27686" lon="-3.20689">
        <ele>742.8</ele>
        <time>2021-10-28 12:11:23</time>
      </trkpt>
      <trkpt lat="43.27687" lon="-3.20691">
        <ele>742.8</ele>
        <time>2021-10-28 12:11:24</time>
      </trkpt>
      <trkpt lat="43.27687" lon="-3.20691">
        <ele>743</ele>
        <time>2021-10-28 12:11:25</time>
      </trkpt>
      <trkpt lat="43.27689" lon="-3.20693">
        <ele>743.2</ele>
        <time>2021-10-28 12:11:26</time>
      </trkpt>
      <trkpt lat="43.27689" lon="-3.20693">
        <ele>743.2</ele>
        <time>2021-10-28 12:11:27</time>
      </trkpt>
      <trkpt lat="43.27691" lon="-3.20694">
        <ele>743.2</ele>
        <time>2021-10-28 12:11:28</time>
      </trkpt>
      <trkpt lat="43.27693" lon="-3.20696">
        <ele>743.2</ele>
        <time>2021-10-28 12:11:29</time>
      </trkpt>
      <trkpt lat="43.27693" lon="-3.20696">
        <ele>743.4</ele>
        <time>2021-10-28 12:11:30</time>
      </trkpt>
      <trkpt lat="43.27694" lon="-3.20698">
        <ele>743.6</ele>
        <time>2021-10-28 12:11:31</time>
      </trkpt>
      <trkpt lat="43.27696" lon="-3.20699">
        <ele>743.6</ele>
        <time>2021-10-28 12:11:32</time>
      </trkpt>
      <trkpt lat="43.27696" lon="-3.20699">
        <ele>743.8</ele>
        <time>2021-10-28 12:11:33</time>
      </trkpt>
      <trkpt lat="43.27699" lon="-3.20699">
        <ele>743.8</ele>
        <time>2021-10-28 12:11:34</time>
      </trkpt>
      <trkpt lat="43.277" lon="-3.20702">
        <ele>743.8</ele>
        <time>2021-10-28 12:11:35</time>
      </trkpt>
      <trkpt lat="43.277" lon="-3.20702">
        <ele>744</ele>
        <time>2021-10-28 12:11:36</time>
      </trkpt>
      <trkpt lat="43.27697" lon="-3.20703">
        <ele>744.2</ele>
        <time>2021-10-28 12:11:37</time>
      </trkpt>
      <trkpt lat="43.27697" lon="-3.20703">
        <ele>744.2</ele>
        <time>2021-10-28 12:11:38</time>
      </trkpt>
      <trkpt lat="43.27698" lon="-3.20704">
        <ele>744.4</ele>
        <time>2021-10-28 12:11:39</time>
      </trkpt>
      <trkpt lat="43.27701" lon="-3.20704">
        <ele>744.6</ele>
        <time>2021-10-28 12:11:40</time>
      </trkpt>
      <trkpt lat="43.27712" lon="-3.20704">
        <ele>746</ele>
        <time>2021-10-28 12:11:41</time>
      </trkpt>
      <trkpt lat="43.27712" lon="-3.20704">
        <ele>746.2</ele>
        <time>2021-10-28 12:11:42</time>
      </trkpt>
      <trkpt lat="43.27712" lon="-3.20706">
        <ele>746.2</ele>
        <time>2021-10-28 12:11:43</time>
      </trkpt>
      <trkpt lat="43.27714" lon="-3.20706">
        <ele>746.4</ele>
        <time>2021-10-28 12:11:44</time>
      </trkpt>
      <trkpt lat="43.27713" lon="-3.20709">
        <ele>746.4</ele>
        <time>2021-10-28 12:11:45</time>
      </trkpt>
      <trkpt lat="43.27714" lon="-3.20709">
        <ele>746.4</ele>
        <time>2021-10-28 12:11:46</time>
      </trkpt>
      <trkpt lat="43.27713" lon="-3.20709">
        <ele>746.4</ele>
        <time>2021-10-28 12:11:47</time>
      </trkpt>
      <trkpt lat="43.27716" lon="-3.2071">
        <ele>746.4</ele>
        <time>2021-10-28 12:11:48</time>
      </trkpt>
      <trkpt lat="43.27717" lon="-3.2071">
        <ele>746.4</ele>
        <time>2021-10-28 12:11:49</time>
      </trkpt>
      <trkpt lat="43.27718" lon="-3.20711">
        <ele>746.6</ele>
        <time>2021-10-28 12:11:50</time>
      </trkpt>
      <trkpt lat="43.27721" lon="-3.20712">
        <ele>746.8</ele>
        <time>2021-10-28 12:11:51</time>
      </trkpt>
      <trkpt lat="43.27722" lon="-3.20713">
        <ele>747</ele>
        <time>2021-10-28 12:11:52</time>
      </trkpt>
      <trkpt lat="43.27723" lon="-3.20715">
        <ele>747</ele>
        <time>2021-10-28 12:11:53</time>
      </trkpt>
      <trkpt lat="43.27727" lon="-3.20725">
        <ele>747.6</ele>
        <time>2021-10-28 12:11:54</time>
      </trkpt>
      <trkpt lat="43.27727" lon="-3.20725">
        <ele>747.8</ele>
        <time>2021-10-28 12:11:55</time>
      </trkpt>
      <trkpt lat="43.27727" lon="-3.20726">
        <ele>748</ele>
        <time>2021-10-28 12:11:56</time>
      </trkpt>
      <trkpt lat="43.2773" lon="-3.20727">
        <ele>748.4</ele>
        <time>2021-10-28 12:11:57</time>
      </trkpt>
      <trkpt lat="43.2773" lon="-3.20727">
        <ele>748.6</ele>
        <time>2021-10-28 12:11:58</time>
      </trkpt>
      <trkpt lat="43.27732" lon="-3.20733">
        <ele>748.8</ele>
        <time>2021-10-28 12:11:59</time>
      </trkpt>
      <trkpt lat="43.27732" lon="-3.20733">
        <ele>749</ele>
        <time>2021-10-28 12:12:00</time>
      </trkpt>
      <trkpt lat="43.27733" lon="-3.20734">
        <ele>749.2</ele>
        <time>2021-10-28 12:12:01</time>
      </trkpt>
      <trkpt lat="43.27735" lon="-3.20738">
        <ele>749.4</ele>
        <time>2021-10-28 12:12:08</time>
      </trkpt>
      <trkpt lat="43.27735" lon="-3.20738">
        <ele>749.6</ele>
        <time>2021-10-28 12:12:09</time>
      </trkpt>
      <trkpt lat="43.27737" lon="-3.20739">
        <ele>749.8</ele>
        <time>2021-10-28 12:12:10</time>
      </trkpt>
      <trkpt lat="43.27737" lon="-3.20739">
        <ele>750</ele>
        <time>2021-10-28 12:12:11</time>
      </trkpt>
      <trkpt lat="43.27737" lon="-3.20741">
        <ele>750.2</ele>
        <time>2021-10-28 12:12:12</time>
      </trkpt>
      <trkpt lat="43.27737" lon="-3.20741">
        <ele>750.4</ele>
        <time>2021-10-28 12:12:13</time>
      </trkpt>
      <trkpt lat="43.27738" lon="-3.20743">
        <ele>750.6</ele>
        <time>2021-10-28 12:12:14</time>
      </trkpt>
      <trkpt lat="43.27738" lon="-3.20744">
        <ele>750.8</ele>
        <time>2021-10-28 12:12:15</time>
      </trkpt>
      <trkpt lat="43.27743" lon="-3.20743">
        <ele>751</ele>
        <time>2021-10-28 12:12:16</time>
      </trkpt>
      <trkpt lat="43.27743" lon="-3.20743">
        <ele>751.2</ele>
        <time>2021-10-28 12:12:17</time>
      </trkpt>
      <trkpt lat="43.27743" lon="-3.20746">
        <ele>751.4</ele>
        <time>2021-10-28 12:12:18</time>
      </trkpt>
      <trkpt lat="43.27745" lon="-3.20748">
        <ele>751.6</ele>
        <time>2021-10-28 12:12:19</time>
      </trkpt>
      <trkpt lat="43.27745" lon="-3.20749">
        <ele>751.8</ele>
        <time>2021-10-28 12:12:20</time>
      </trkpt>
      <trkpt lat="43.27745" lon="-3.20752">
        <ele>751.8</ele>
        <time>2021-10-28 12:12:25</time>
      </trkpt>
      <trkpt lat="43.27747" lon="-3.20755">
        <ele>752</ele>
        <time>2021-10-28 12:12:26</time>
      </trkpt>
      <trkpt lat="43.27747" lon="-3.20755">
        <ele>752</ele>
        <time>2021-10-28 12:12:27</time>
      </trkpt>
      <trkpt lat="43.27748" lon="-3.20758">
        <ele>752.2</ele>
        <time>2021-10-28 12:12:28</time>
      </trkpt>
      <trkpt lat="43.27748" lon="-3.20758">
        <ele>752.2</ele>
        <time>2021-10-28 12:12:29</time>
      </trkpt>
      <trkpt lat="43.27748" lon="-3.20758">
        <ele>752.4</ele>
        <time>2021-10-28 12:12:30</time>
      </trkpt>
      <trkpt lat="43.2775" lon="-3.2076">
        <ele>752.6</ele>
        <time>2021-10-28 12:12:31</time>
      </trkpt>
      <trkpt lat="43.2775" lon="-3.2076">
        <ele>752.6</ele>
        <time>2021-10-28 12:12:32</time>
      </trkpt>
      <trkpt lat="43.2775" lon="-3.20762">
        <ele>752.8</ele>
        <time>2021-10-28 12:12:33</time>
      </trkpt>
      <trkpt lat="43.27751" lon="-3.20765">
        <ele>753</ele>
        <time>2021-10-28 12:12:34</time>
      </trkpt>
      <trkpt lat="43.27752" lon="-3.20769">
        <ele>753.4</ele>
        <time>2021-10-28 12:12:35</time>
      </trkpt>
      <trkpt lat="43.27752" lon="-3.20769">
        <ele>753.6</ele>
        <time>2021-10-28 12:12:36</time>
      </trkpt>
      <trkpt lat="43.27753" lon="-3.2077">
        <ele>754</ele>
        <time>2021-10-28 12:12:37</time>
      </trkpt>
      <trkpt lat="43.27753" lon="-3.2077">
        <ele>754.2</ele>
        <time>2021-10-28 12:12:38</time>
      </trkpt>
      <trkpt lat="43.27752" lon="-3.20771">
        <ele>754.4</ele>
        <time>2021-10-28 12:12:39</time>
      </trkpt>
      <trkpt lat="43.27754" lon="-3.20773">
        <ele>754.4</ele>
        <time>2021-10-28 12:12:40</time>
      </trkpt>
      <trkpt lat="43.27754" lon="-3.20774">
        <ele>754.6</ele>
        <time>2021-10-28 12:12:41</time>
      </trkpt>
      <trkpt lat="43.27756" lon="-3.20778">
        <ele>754.8</ele>
        <time>2021-10-28 12:12:42</time>
      </trkpt>
      <trkpt lat="43.27756" lon="-3.20778">
        <ele>754.8</ele>
        <time>2021-10-28 12:12:43</time>
      </trkpt>
      <trkpt lat="43.27757" lon="-3.20778">
        <ele>755</ele>
        <time>2021-10-28 12:12:44</time>
      </trkpt>
      <trkpt lat="43.27759" lon="-3.20781">
        <ele>755</ele>
        <time>2021-10-28 12:12:45</time>
      </trkpt>
      <trkpt lat="43.27759" lon="-3.20781">
        <ele>755.2</ele>
        <time>2021-10-28 12:12:46</time>
      </trkpt>
      <trkpt lat="43.2776" lon="-3.20781">
        <ele>755.4</ele>
        <time>2021-10-28 12:12:47</time>
      </trkpt>
      <trkpt lat="43.2776" lon="-3.20781">
        <ele>755.6</ele>
        <time>2021-10-28 12:12:48</time>
      </trkpt>
      <trkpt lat="43.2776" lon="-3.20781">
        <ele>755.8</ele>
        <time>2021-10-28 12:12:49</time>
      </trkpt>
      <trkpt lat="43.27759" lon="-3.20784">
        <ele>756</ele>
        <time>2021-10-28 12:12:50</time>
      </trkpt>
      <trkpt lat="43.27759" lon="-3.20785">
        <ele>756.2</ele>
        <time>2021-10-28 12:12:51</time>
      </trkpt>
      <trkpt lat="43.27761" lon="-3.20785">
        <ele>756.4</ele>
        <time>2021-10-28 12:12:52</time>
      </trkpt>
      <trkpt lat="43.27761" lon="-3.20785">
        <ele>756.6</ele>
        <time>2021-10-28 12:12:53</time>
      </trkpt>
      <trkpt lat="43.27762" lon="-3.20786">
        <ele>756.6</ele>
        <time>2021-10-28 12:12:54</time>
      </trkpt>
      <trkpt lat="43.27763" lon="-3.20789">
        <ele>756.6</ele>
        <time>2021-10-28 12:12:55</time>
      </trkpt>
      <trkpt lat="43.27763" lon="-3.20789">
        <ele>756.6</ele>
        <time>2021-10-28 12:12:56</time>
      </trkpt>
      <trkpt lat="43.27765" lon="-3.2079">
        <ele>756.6</ele>
        <time>2021-10-28 12:12:57</time>
      </trkpt>
      <trkpt lat="43.27785" lon="-3.20809">
        <ele>759.2</ele>
        <time>2021-10-28 12:12:58</time>
      </trkpt>
      <trkpt lat="43.27788" lon="-3.20811">
        <ele>759.2</ele>
        <time>2021-10-28 12:12:59</time>
      </trkpt>
      <trkpt lat="43.27788" lon="-3.20811">
        <ele>759.4</ele>
        <time>2021-10-28 12:13:00</time>
      </trkpt>
      <trkpt lat="43.27789" lon="-3.20812">
        <ele>759.6</ele>
        <time>2021-10-28 12:13:01</time>
      </trkpt>
      <trkpt lat="43.2779" lon="-3.20813">
        <ele>759.8</ele>
        <time>2021-10-28 12:13:02</time>
      </trkpt>
      <trkpt lat="43.27791" lon="-3.20814">
        <ele>759.8</ele>
        <time>2021-10-28 12:13:03</time>
      </trkpt>
      <trkpt lat="43.27791" lon="-3.20814">
        <ele>760</ele>
        <time>2021-10-28 12:13:04</time>
      </trkpt>
      <trkpt lat="43.27791" lon="-3.20815">
        <ele>760.2</ele>
        <time>2021-10-28 12:13:05</time>
      </trkpt>
      <trkpt lat="43.27791" lon="-3.20817">
        <ele>760.4</ele>
        <time>2021-10-28 12:13:06</time>
      </trkpt>
      <trkpt lat="43.27795" lon="-3.20819">
        <ele>760.6</ele>
        <time>2021-10-28 12:13:07</time>
      </trkpt>
      <trkpt lat="43.27796" lon="-3.2082">
        <ele>760.6</ele>
        <time>2021-10-28 12:13:08</time>
      </trkpt>
      <trkpt lat="43.27797" lon="-3.20822">
        <ele>760.8</ele>
        <time>2021-10-28 12:13:09</time>
      </trkpt>
      <trkpt lat="43.27797" lon="-3.20822">
        <ele>761</ele>
        <time>2021-10-28 12:13:10</time>
      </trkpt>
      <trkpt lat="43.278" lon="-3.20825">
        <ele>761.2</ele>
        <time>2021-10-28 12:13:11</time>
      </trkpt>
      <trkpt lat="43.27801" lon="-3.20824">
        <ele>761.2</ele>
        <time>2021-10-28 12:13:12</time>
      </trkpt>
      <trkpt lat="43.27801" lon="-3.20824">
        <ele>761.4</ele>
        <time>2021-10-28 12:13:13</time>
      </trkpt>
      <trkpt lat="43.27804" lon="-3.20824">
        <ele>761.4</ele>
        <time>2021-10-28 12:13:14</time>
      </trkpt>
      <trkpt lat="43.27804" lon="-3.20824">
        <ele>761.6</ele>
        <time>2021-10-28 12:13:15</time>
      </trkpt>
      <trkpt lat="43.27808" lon="-3.20827">
        <ele>761.6</ele>
        <time>2021-10-28 12:13:16</time>
      </trkpt>
      <trkpt lat="43.27808" lon="-3.20827">
        <ele>761.8</ele>
        <time>2021-10-28 12:13:17</time>
      </trkpt>
      <trkpt lat="43.27809" lon="-3.20829">
        <ele>762</ele>
        <time>2021-10-28 12:13:18</time>
      </trkpt>
      <trkpt lat="43.2781" lon="-3.20831">
        <ele>762.2</ele>
        <time>2021-10-28 12:13:37</time>
      </trkpt>
      <trkpt lat="43.27812" lon="-3.20831">
        <ele>762.2</ele>
        <time>2021-10-28 12:13:38</time>
      </trkpt>
      <trkpt lat="43.27813" lon="-3.20834">
        <ele>762.2</ele>
        <time>2021-10-28 12:13:39</time>
      </trkpt>
      <trkpt lat="43.27815" lon="-3.20836">
        <ele>762.4</ele>
        <time>2021-10-28 12:13:40</time>
      </trkpt>
      <trkpt lat="43.27815" lon="-3.20836">
        <ele>762.4</ele>
        <time>2021-10-28 12:13:41</time>
      </trkpt>
      <trkpt lat="43.27818" lon="-3.20837">
        <ele>762.4</ele>
        <time>2021-10-28 12:13:42</time>
      </trkpt>
      <trkpt lat="43.2782" lon="-3.20841">
        <ele>762.4</ele>
        <time>2021-10-28 12:13:43</time>
      </trkpt>
      <trkpt lat="43.2782" lon="-3.20841">
        <ele>762.6</ele>
        <time>2021-10-28 12:13:44</time>
      </trkpt>
      <trkpt lat="43.2782" lon="-3.20841">
        <ele>762.6</ele>
        <time>2021-10-28 12:13:45</time>
      </trkpt>
      <trkpt lat="43.27827" lon="-3.20846">
        <ele>762.8</ele>
        <time>2021-10-28 12:13:46</time>
      </trkpt>
      <trkpt lat="43.27827" lon="-3.20846">
        <ele>762.8</ele>
        <time>2021-10-28 12:13:47</time>
      </trkpt>
      <trkpt lat="43.27827" lon="-3.20846">
        <ele>763</ele>
        <time>2021-10-28 12:13:48</time>
      </trkpt>
      <trkpt lat="43.27827" lon="-3.20846">
        <ele>763</ele>
        <time>2021-10-28 12:13:49</time>
      </trkpt>
      <trkpt lat="43.27829" lon="-3.20848">
        <ele>763</ele>
        <time>2021-10-28 12:13:50</time>
      </trkpt>
      <trkpt lat="43.27833" lon="-3.20849">
        <ele>763</ele>
        <time>2021-10-28 12:13:51</time>
      </trkpt>
      <trkpt lat="43.27833" lon="-3.20849">
        <ele>763</ele>
        <time>2021-10-28 12:13:52</time>
      </trkpt>
      <trkpt lat="43.27835" lon="-3.20851">
        <ele>763</ele>
        <time>2021-10-28 12:13:53</time>
      </trkpt>
      <trkpt lat="43.27835" lon="-3.20851">
        <ele>763.2</ele>
        <time>2021-10-28 12:13:54</time>
      </trkpt>
      <trkpt lat="43.27839" lon="-3.20855">
        <ele>763.2</ele>
        <time>2021-10-28 12:13:55</time>
      </trkpt>
      <trkpt lat="43.27839" lon="-3.20855">
        <ele>763.2</ele>
        <time>2021-10-28 12:13:56</time>
      </trkpt>
      <trkpt lat="43.27841" lon="-3.20857">
        <ele>763.2</ele>
        <time>2021-10-28 12:13:57</time>
      </trkpt>
      <trkpt lat="43.27846" lon="-3.20859">
        <ele>763.2</ele>
        <time>2021-10-28 12:13:58</time>
      </trkpt>
      <trkpt lat="43.27846" lon="-3.20859">
        <ele>763.2</ele>
        <time>2021-10-28 12:13:59</time>
      </trkpt>
      <trkpt lat="43.27846" lon="-3.20861">
        <ele>763.2</ele>
        <time>2021-10-28 12:14:00</time>
      </trkpt>
      <trkpt lat="43.27848" lon="-3.20861">
        <ele>763.4</ele>
        <time>2021-10-28 12:14:01</time>
      </trkpt>
      <trkpt lat="43.27851" lon="-3.20863">
        <ele>763.4</ele>
        <time>2021-10-28 12:14:02</time>
      </trkpt>
      <trkpt lat="43.27851" lon="-3.20863">
        <ele>763.6</ele>
        <time>2021-10-28 12:14:03</time>
      </trkpt>
      <trkpt lat="43.27852" lon="-3.20863">
        <ele>763.6</ele>
        <time>2021-10-28 12:14:04</time>
      </trkpt>
      <trkpt lat="43.27853" lon="-3.20863">
        <ele>763.6</ele>
        <time>2021-10-28 12:14:05</time>
      </trkpt>
      <trkpt lat="43.27857" lon="-3.20866">
        <ele>763.8</ele>
        <time>2021-10-28 12:14:06</time>
      </trkpt>
      <trkpt lat="43.27857" lon="-3.20866">
        <ele>763.8</ele>
        <time>2021-10-28 12:14:07</time>
      </trkpt>
      <trkpt lat="43.27859" lon="-3.20866">
        <ele>764.2</ele>
        <time>2021-10-28 12:14:08</time>
      </trkpt>
      <trkpt lat="43.2786" lon="-3.20867">
        <ele>764.4</ele>
        <time>2021-10-28 12:14:09</time>
      </trkpt>
      <trkpt lat="43.27862" lon="-3.20868">
        <ele>764.4</ele>
        <time>2021-10-28 12:14:10</time>
      </trkpt>
      <trkpt lat="43.27862" lon="-3.20868">
        <ele>764.4</ele>
        <time>2021-10-28 12:14:11</time>
      </trkpt>
      <trkpt lat="43.27863" lon="-3.20869">
        <ele>764.4</ele>
        <time>2021-10-28 12:14:12</time>
      </trkpt>
      <trkpt lat="43.27864" lon="-3.20872">
        <ele>764.4</ele>
        <time>2021-10-28 12:14:13</time>
      </trkpt>
      <trkpt lat="43.27864" lon="-3.20872">
        <ele>764.2</ele>
        <time>2021-10-28 12:14:14</time>
      </trkpt>
      <trkpt lat="43.27866" lon="-3.20875">
        <ele>764.2</ele>
        <time>2021-10-28 12:14:15</time>
      </trkpt>
      <trkpt lat="43.27866" lon="-3.20875">
        <ele>764</ele>
        <time>2021-10-28 12:14:16</time>
      </trkpt>
      <trkpt lat="43.27864" lon="-3.20877">
        <ele>764</ele>
        <time>2021-10-28 12:14:17</time>
      </trkpt>
      <trkpt lat="43.27864" lon="-3.20877">
        <ele>763.8</ele>
        <time>2021-10-28 12:14:18</time>
      </trkpt>
      <trkpt lat="43.27864" lon="-3.20876">
        <ele>763.8</ele>
        <time>2021-10-28 12:14:19</time>
      </trkpt>
      <trkpt lat="43.27864" lon="-3.20877">
        <ele>764</ele>
        <time>2021-10-28 12:14:20</time>
      </trkpt>
      <trkpt lat="43.27864" lon="-3.20877">
        <ele>764.2</ele>
        <time>2021-10-28 12:14:21</time>
      </trkpt>
      <trkpt lat="43.27864" lon="-3.20877">
        <ele>764.2</ele>
        <time>2021-10-28 12:14:22</time>
      </trkpt>
      <trkpt lat="43.27862" lon="-3.20878">
        <ele>764.2</ele>
        <time>2021-10-28 12:14:23</time>
      </trkpt>
      <trkpt lat="43.27859" lon="-3.20879">
        <ele>764</ele>
        <time>2021-10-28 12:14:24</time>
      </trkpt>
      <trkpt lat="43.27859" lon="-3.20879">
        <ele>764</ele>
        <time>2021-10-28 12:14:25</time>
      </trkpt>
      <trkpt lat="43.27846" lon="-3.20876">
        <ele>766</ele>
        <time>2021-10-28 12:14:26</time>
      </trkpt>
      <trkpt lat="43.27846" lon="-3.20877">
        <ele>766.2</ele>
        <time>2021-10-28 12:14:27</time>
      </trkpt>
      <trkpt lat="43.27846" lon="-3.20877">
        <ele>766.2</ele>
        <time>2021-10-28 12:14:28</time>
      </trkpt>
      <trkpt lat="43.27844" lon="-3.20877">
        <ele>766.4</ele>
        <time>2021-10-28 12:14:29</time>
      </trkpt>
      <trkpt lat="43.27844" lon="-3.20877">
        <ele>766.4</ele>
        <time>2021-10-28 12:14:30</time>
      </trkpt>
      <trkpt lat="43.27844" lon="-3.20876">
        <ele>766.6</ele>
        <time>2021-10-28 12:14:31</time>
      </trkpt>
      <trkpt lat="43.27841" lon="-3.20875">
        <ele>766.8</ele>
        <time>2021-10-28 12:14:32</time>
      </trkpt>
      <trkpt lat="43.27776" lon="-3.20895">
        <ele>786</ele>
        <time>2021-10-28 12:14:33</time>
      </trkpt>
      <trkpt lat="43.27776" lon="-3.20897">
        <ele>785.8</ele>
        <time>2021-10-28 12:14:34</time>
      </trkpt>
      <trkpt lat="43.27775" lon="-3.20899">
        <ele>784.8</ele>
        <time>2021-10-28 12:14:35</time>
      </trkpt>
      <trkpt lat="43.27776" lon="-3.209">
        <ele>786</ele>
        <time>2021-10-28 12:14:36</time>
      </trkpt>
      <trkpt lat="43.27775" lon="-3.20901">
        <ele>787</ele>
        <time>2021-10-28 12:14:37</time>
      </trkpt>
      <trkpt lat="43.27775" lon="-3.20901">
        <ele>786.2</ele>
        <time>2021-10-28 12:14:38</time>
      </trkpt>
      <trkpt lat="43.27775" lon="-3.209">
        <ele>787.6</ele>
        <time>2021-10-28 12:14:39</time>
      </trkpt>
      <trkpt lat="43.27705" lon="-3.20887">
        <ele>812.4</ele>
        <time>2021-10-28 12:14:40</time>
      </trkpt>
      <trkpt lat="43.27704" lon="-3.20887">
        <ele>813.4</ele>
        <time>2021-10-28 12:14:41</time>
      </trkpt>
      <trkpt lat="43.27703" lon="-3.20889">
        <ele>813.6</ele>
        <time>2021-10-28 12:14:42</time>
      </trkpt>
      <trkpt lat="43.27703" lon="-3.20889">
        <ele>813.4</ele>
        <time>2021-10-28 12:14:43</time>
      </trkpt>
      <trkpt lat="43.27702" lon="-3.20889">
        <ele>814.4</ele>
        <time>2021-10-28 12:14:44</time>
      </trkpt>
      <trkpt lat="43.27688" lon="-3.20894">
        <ele>813.2</ele>
        <time>2021-10-28 12:14:45</time>
      </trkpt>
      <trkpt lat="43.27688" lon="-3.20894">
        <ele>812.8</ele>
        <time>2021-10-28 12:14:46</time>
      </trkpt>
      <trkpt lat="43.27688" lon="-3.20894">
        <ele>812.6</ele>
        <time>2021-10-28 12:15:26</time>
      </trkpt>
      <trkpt lat="43.27688" lon="-3.20894">
        <ele>812.4</ele>
        <time>2021-10-28 12:15:27</time>
      </trkpt>
      <trkpt lat="43.27687" lon="-3.20894">
        <ele>812.4</ele>
        <time>2021-10-28 12:15:28</time>
      </trkpt>
      <trkpt lat="43.27687" lon="-3.20894">
        <ele>812.4</ele>
        <time>2021-10-28 12:15:29</time>
      </trkpt>
      <trkpt lat="43.27853" lon="-3.20881">
        <ele>766.8</ele>
        <time>2021-10-28 12:15:30</time>
      </trkpt>
      <trkpt lat="43.27854" lon="-3.20883">
        <ele>766.6</ele>
        <time>2021-10-28 12:15:31</time>
      </trkpt>
      <trkpt lat="43.27854" lon="-3.20883">
        <ele>766.4</ele>
        <time>2021-10-28 12:15:32</time>
      </trkpt>
      <trkpt lat="43.27855" lon="-3.20883">
        <ele>766.2</ele>
        <time>2021-10-28 12:18:16</time>
      </trkpt>
      <trkpt lat="43.27856" lon="-3.20883">
        <ele>766.2</ele>
        <time>2021-10-28 12:18:17</time>
      </trkpt>
      <trkpt lat="43.27856" lon="-3.20883">
        <ele>766.2</ele>
        <time>2021-10-28 12:18:18</time>
      </trkpt>
      <trkpt lat="43.27857" lon="-3.20883">
        <ele>766.2</ele>
        <time>2021-10-28 12:18:19</time>
      </trkpt>
      <trkpt lat="43.27857" lon="-3.20884">
        <ele>766.2</ele>
        <time>2021-10-28 12:18:20</time>
      </trkpt>
      <trkpt lat="43.27859" lon="-3.20886">
        <ele>766.6</ele>
        <time>2021-10-28 12:18:21</time>
      </trkpt>
      <trkpt lat="43.27859" lon="-3.20886">
        <ele>766.8</ele>
        <time>2021-10-28 12:18:22</time>
      </trkpt>
      <trkpt lat="43.2786" lon="-3.20887">
        <ele>767</ele>
        <time>2021-10-28 12:21:33</time>
      </trkpt>
      <trkpt lat="43.27861" lon="-3.20889">
        <ele>767</ele>
        <time>2021-10-28 12:21:34</time>
      </trkpt>
      <trkpt lat="43.27862" lon="-3.2089">
        <ele>766.8</ele>
        <time>2021-10-28 12:21:35</time>
      </trkpt>
      <trkpt lat="43.27862" lon="-3.2089">
        <ele>766.2</ele>
        <time>2021-10-28 12:21:36</time>
      </trkpt>
      <trkpt lat="43.27862" lon="-3.20893">
        <ele>765.6</ele>
        <time>2021-10-28 12:21:37</time>
      </trkpt>
      <trkpt lat="43.27862" lon="-3.20893">
        <ele>765.2</ele>
        <time>2021-10-28 12:21:57</time>
      </trkpt>
      <trkpt lat="43.27864" lon="-3.20895">
        <ele>765</ele>
        <time>2021-10-28 12:21:58</time>
      </trkpt>
      <trkpt lat="43.27864" lon="-3.20895">
        <ele>764.6</ele>
        <time>2021-10-28 12:21:59</time>
      </trkpt>
      <trkpt lat="43.27864" lon="-3.20895">
        <ele>764.4</ele>
        <time>2021-10-28 12:22:00</time>
      </trkpt>
      <trkpt lat="43.27865" lon="-3.20897">
        <ele>764.2</ele>
        <time>2021-10-28 12:22:01</time>
      </trkpt>
      <trkpt lat="43.27865" lon="-3.20898">
        <ele>763.8</ele>
        <time>2021-10-28 12:22:02</time>
      </trkpt>
      <trkpt lat="43.27865" lon="-3.20898">
        <ele>763.4</ele>
        <time>2021-10-28 12:36:36</time>
      </trkpt>
      <trkpt lat="43.27865" lon="-3.20898">
        <ele>763.2</ele>
        <time>2021-10-28 12:36:37</time>
      </trkpt>
      <trkpt lat="43.27865" lon="-3.20899">
        <ele>763</ele>
        <time>2021-10-28 12:36:38</time>
      </trkpt>
      <trkpt lat="43.27865" lon="-3.20899">
        <ele>763</ele>
        <time>2021-10-28 12:36:39</time>
      </trkpt>
      <trkpt lat="43.27865" lon="-3.20899">
        <ele>762.8</ele>
        <time>2021-10-28 12:36:40</time>
      </trkpt>
      <trkpt lat="43.27865" lon="-3.20899">
        <ele>762.8</ele>
        <time>2021-10-28 12:36:41</time>
      </trkpt>
      <trkpt lat="43.27865" lon="-3.20899">
        <ele>762.8</ele>
        <time>2021-10-28 12:36:42</time>
      </trkpt>
      <trkpt lat="43.27865" lon="-3.20899">
        <ele>762.8</ele>
        <time>2021-10-28 12:36:43</time>
      </trkpt>
      <trkpt lat="43.27865" lon="-3.20898">
        <ele>762.6</ele>
        <time>2021-10-28 12:36:44</time>
      </trkpt>
      <trkpt lat="43.27865" lon="-3.20898">
        <ele>762.6</ele>
        <time>2021-10-28 12:36:45</time>
      </trkpt>
      <trkpt lat="43.27867" lon="-3.20898">
        <ele>763.6</ele>
        <time>2021-10-28 12:36:46</time>
      </trkpt>
      <trkpt lat="43.27867" lon="-3.20898">
        <ele>763.6</ele>
        <time>2021-10-28 12:36:47</time>
      </trkpt>
      <trkpt lat="43.27869" lon="-3.20898">
        <ele>763.4</ele>
        <time>2021-10-28 12:36:48</time>
      </trkpt>
      <trkpt lat="43.27869" lon="-3.20897">
        <ele>763.2</ele>
        <time>2021-10-28 12:36:49</time>
      </trkpt>
      <trkpt lat="43.27869" lon="-3.20897">
        <ele>763.2</ele>
        <time>2021-10-28 12:36:50</time>
      </trkpt>
      <trkpt lat="43.27869" lon="-3.20897">
        <ele>763</ele>
        <time>2021-10-28 12:36:51</time>
      </trkpt>
      <trkpt lat="43.27839" lon="-3.20851">
        <ele>765.8</ele>
        <time>2021-10-28 12:36:52</time>
      </trkpt>
      <trkpt lat="43.27834" lon="-3.20848">
        <ele>765.8</ele>
        <time>2021-10-28 12:36:53</time>
      </trkpt>
      <trkpt lat="43.27834" lon="-3.20848">
        <ele>765.6</ele>
        <time>2021-10-28 12:36:54</time>
      </trkpt>
      <trkpt lat="43.27831" lon="-3.20846">
        <ele>765.4</ele>
        <time>2021-10-28 12:36:55</time>
      </trkpt>
      <trkpt lat="43.27826" lon="-3.20845">
        <ele>765.2</ele>
        <time>2021-10-28 12:36:56</time>
      </trkpt>
      <trkpt lat="43.27824" lon="-3.20844">
        <ele>765</ele>
        <time>2021-10-28 12:36:57</time>
      </trkpt>
      <trkpt lat="43.27824" lon="-3.20844">
        <ele>765</ele>
        <time>2021-10-28 12:36:58</time>
      </trkpt>
      <trkpt lat="43.27821" lon="-3.20843">
        <ele>764.8</ele>
        <time>2021-10-28 12:36:59</time>
      </trkpt>
      <trkpt lat="43.27819" lon="-3.20841">
        <ele>764.8</ele>
        <time>2021-10-28 12:37:00</time>
      </trkpt>
      <trkpt lat="43.27816" lon="-3.20837">
        <ele>764.8</ele>
        <time>2021-10-28 12:37:01</time>
      </trkpt>
      <trkpt lat="43.27809" lon="-3.20831">
        <ele>764.6</ele>
        <time>2021-10-28 12:37:02</time>
      </trkpt>
      <trkpt lat="43.27809" lon="-3.20831">
        <ele>764.4</ele>
        <time>2021-10-28 12:37:03</time>
      </trkpt>
      <trkpt lat="43.27809" lon="-3.20831">
        <ele>764.2</ele>
        <time>2021-10-28 12:37:04</time>
      </trkpt>
      <trkpt lat="43.27805" lon="-3.20828">
        <ele>764</ele>
        <time>2021-10-28 12:37:05</time>
      </trkpt>
      <trkpt lat="43.27798" lon="-3.20824">
        <ele>763.6</ele>
        <time>2021-10-28 12:37:06</time>
      </trkpt>
      <trkpt lat="43.27796" lon="-3.2082">
        <ele>763.4</ele>
        <time>2021-10-28 12:38:31</time>
      </trkpt>
      <trkpt lat="43.27796" lon="-3.2082">
        <ele>763</ele>
        <time>2021-10-28 12:38:32</time>
      </trkpt>
      <trkpt lat="43.27792" lon="-3.20816">
        <ele>762.8</ele>
        <time>2021-10-28 12:38:33</time>
      </trkpt>
      <trkpt lat="43.27792" lon="-3.20816">
        <ele>762.6</ele>
        <time>2021-10-28 12:38:34</time>
      </trkpt>
      <trkpt lat="43.27789" lon="-3.20811">
        <ele>762.4</ele>
        <time>2021-10-28 12:38:35</time>
      </trkpt>
      <trkpt lat="43.27789" lon="-3.20811">
        <ele>762.2</ele>
        <time>2021-10-28 12:38:36</time>
      </trkpt>
      <trkpt lat="43.27787" lon="-3.20808">
        <ele>762</ele>
        <time>2021-10-28 12:41:12</time>
      </trkpt>
      <trkpt lat="43.27784" lon="-3.20806">
        <ele>761.6</ele>
        <time>2021-10-28 12:41:13</time>
      </trkpt>
      <trkpt lat="43.27779" lon="-3.20802">
        <ele>761.4</ele>
        <time>2021-10-28 12:41:14</time>
      </trkpt>
      <trkpt lat="43.27779" lon="-3.20802">
        <ele>761</ele>
        <time>2021-10-28 12:41:15</time>
      </trkpt>
      <trkpt lat="43.27774" lon="-3.208">
        <ele>760.8</ele>
        <time>2021-10-28 12:41:16</time>
      </trkpt>
      <trkpt lat="43.27771" lon="-3.20799">
        <ele>760.6</ele>
        <time>2021-10-28 12:41:17</time>
      </trkpt>
      <trkpt lat="43.27771" lon="-3.20799">
        <ele>760.2</ele>
        <time>2021-10-28 12:41:18</time>
      </trkpt>
      <trkpt lat="43.27767" lon="-3.20792">
        <ele>759.8</ele>
        <time>2021-10-28 12:41:19</time>
      </trkpt>
      <trkpt lat="43.27767" lon="-3.20792">
        <ele>759.6</ele>
        <time>2021-10-28 12:41:20</time>
      </trkpt>
      <trkpt lat="43.27767" lon="-3.20792">
        <ele>759.4</ele>
        <time>2021-10-28 12:41:21</time>
      </trkpt>
      <trkpt lat="43.27761" lon="-3.20787">
        <ele>759.2</ele>
        <time>2021-10-28 12:41:22</time>
      </trkpt>
      <trkpt lat="43.2776" lon="-3.20785">
        <ele>758.8</ele>
        <time>2021-10-28 12:41:23</time>
      </trkpt>
      <trkpt lat="43.27758" lon="-3.20784">
        <ele>758.4</ele>
        <time>2021-10-28 12:41:24</time>
      </trkpt>
      <trkpt lat="43.27755" lon="-3.20777">
        <ele>758.2</ele>
        <time>2021-10-28 12:41:25</time>
      </trkpt>
      <trkpt lat="43.27755" lon="-3.20777">
        <ele>757.8</ele>
        <time>2021-10-28 12:41:26</time>
      </trkpt>
      <trkpt lat="43.27755" lon="-3.20774">
        <ele>757.6</ele>
        <time>2021-10-28 12:41:27</time>
      </trkpt>
      <trkpt lat="43.27752" lon="-3.20769">
        <ele>757.2</ele>
        <time>2021-10-28 12:41:28</time>
      </trkpt>
      <trkpt lat="43.27752" lon="-3.20769">
        <ele>757</ele>
        <time>2021-10-28 12:41:29</time>
      </trkpt>
      <trkpt lat="43.2775" lon="-3.20764">
        <ele>756.6</ele>
        <time>2021-10-28 12:41:30</time>
      </trkpt>
      <trkpt lat="43.2775" lon="-3.20764">
        <ele>756.2</ele>
        <time>2021-10-28 12:41:31</time>
      </trkpt>
      <trkpt lat="43.27747" lon="-3.20759">
        <ele>755.8</ele>
        <time>2021-10-28 12:41:32</time>
      </trkpt>
      <trkpt lat="43.27747" lon="-3.20759">
        <ele>755.6</ele>
        <time>2021-10-28 12:41:33</time>
      </trkpt>
      <trkpt lat="43.27745" lon="-3.20755">
        <ele>755.2</ele>
        <time>2021-10-28 12:41:34</time>
      </trkpt>
      <trkpt lat="43.27745" lon="-3.20755">
        <ele>755</ele>
        <time>2021-10-28 12:41:35</time>
      </trkpt>
      <trkpt lat="43.27745" lon="-3.20755">
        <ele>754.8</ele>
        <time>2021-10-28 12:41:36</time>
      </trkpt>
      <trkpt lat="43.27742" lon="-3.20748">
        <ele>754.4</ele>
        <time>2021-10-28 12:41:37</time>
      </trkpt>
      <trkpt lat="43.27742" lon="-3.20748">
        <ele>754.2</ele>
        <time>2021-10-28 12:41:38</time>
      </trkpt>
      <trkpt lat="43.27742" lon="-3.20746">
        <ele>753.8</ele>
        <time>2021-10-28 12:41:39</time>
      </trkpt>
      <trkpt lat="43.27742" lon="-3.20746">
        <ele>753.6</ele>
        <time>2021-10-28 12:41:40</time>
      </trkpt>
      <trkpt lat="43.27742" lon="-3.20746">
        <ele>753.4</ele>
        <time>2021-10-28 12:41:41</time>
      </trkpt>
      <trkpt lat="43.2774" lon="-3.20741">
        <ele>753.4</ele>
        <time>2021-10-28 12:41:42</time>
      </trkpt>
      <trkpt lat="43.27738" lon="-3.20738">
        <ele>753.2</ele>
        <time>2021-10-28 12:41:43</time>
      </trkpt>
      <trkpt lat="43.27738" lon="-3.20738">
        <ele>752.8</ele>
        <time>2021-10-28 12:41:44</time>
      </trkpt>
      <trkpt lat="43.27738" lon="-3.20738">
        <ele>752.4</ele>
        <time>2021-10-28 12:41:45</time>
      </trkpt>
      <trkpt lat="43.27732" lon="-3.20733">
        <ele>751.8</ele>
        <time>2021-10-28 12:41:46</time>
      </trkpt>
      <trkpt lat="43.27732" lon="-3.20733">
        <ele>751.4</ele>
        <time>2021-10-28 12:41:47</time>
      </trkpt>
      <trkpt lat="43.27729" lon="-3.2073">
        <ele>751.2</ele>
        <time>2021-10-28 12:41:48</time>
      </trkpt>
      <trkpt lat="43.27724" lon="-3.20721">
        <ele>750.8</ele>
        <time>2021-10-28 12:41:49</time>
      </trkpt>
      <trkpt lat="43.27724" lon="-3.20721">
        <ele>750.6</ele>
        <time>2021-10-28 12:41:50</time>
      </trkpt>
      <trkpt lat="43.27717" lon="-3.20712">
        <ele>750.2</ele>
        <time>2021-10-28 12:41:51</time>
      </trkpt>
      <trkpt lat="43.27717" lon="-3.20712">
        <ele>749.8</ele>
        <time>2021-10-28 12:41:52</time>
      </trkpt>
      <trkpt lat="43.27712" lon="-3.20705">
        <ele>749.2</ele>
        <time>2021-10-28 12:41:53</time>
      </trkpt>
      <trkpt lat="43.27712" lon="-3.20705">
        <ele>749</ele>
        <time>2021-10-28 12:41:54</time>
      </trkpt>
      <trkpt lat="43.27706" lon="-3.20702">
        <ele>748.6</ele>
        <time>2021-10-28 12:41:55</time>
      </trkpt>
      <trkpt lat="43.27703" lon="-3.20701">
        <ele>748.2</ele>
        <time>2021-10-28 12:41:56</time>
      </trkpt>
      <trkpt lat="43.27703" lon="-3.20701">
        <ele>748</ele>
        <time>2021-10-28 12:41:57</time>
      </trkpt>
      <trkpt lat="43.277" lon="-3.20698">
        <ele>747.6</ele>
        <time>2021-10-28 12:41:58</time>
      </trkpt>
      <trkpt lat="43.277" lon="-3.20698">
        <ele>747.2</ele>
        <time>2021-10-28 12:41:59</time>
      </trkpt>
      <trkpt lat="43.27697" lon="-3.20695">
        <ele>747</ele>
        <time>2021-10-28 12:42:00</time>
      </trkpt>
      <trkpt lat="43.27697" lon="-3.20695">
        <ele>746.6</ele>
        <time>2021-10-28 12:42:01</time>
      </trkpt>
      <trkpt lat="43.27695" lon="-3.20695">
        <ele>746.6</ele>
        <time>2021-10-28 12:42:02</time>
      </trkpt>
      <trkpt lat="43.27693" lon="-3.20693">
        <ele>746.2</ele>
        <time>2021-10-28 12:42:03</time>
      </trkpt>
      <trkpt lat="43.27689" lon="-3.20693">
        <ele>745.8</ele>
        <time>2021-10-28 12:42:04</time>
      </trkpt>
      <trkpt lat="43.27689" lon="-3.20693">
        <ele>745.4</ele>
        <time>2021-10-28 12:42:05</time>
      </trkpt>
      <trkpt lat="43.27687" lon="-3.20691">
        <ele>745.2</ele>
        <time>2021-10-28 12:42:06</time>
      </trkpt>
      <trkpt lat="43.27685" lon="-3.20691">
        <ele>745</ele>
        <time>2021-10-28 12:42:07</time>
      </trkpt>
      <trkpt lat="43.27679" lon="-3.20683">
        <ele>745</ele>
        <time>2021-10-28 12:42:08</time>
      </trkpt>
      <trkpt lat="43.27679" lon="-3.20683">
        <ele>744.6</ele>
        <time>2021-10-28 12:42:09</time>
      </trkpt>
      <trkpt lat="43.27674" lon="-3.2068">
        <ele>744.4</ele>
        <time>2021-10-28 12:42:10</time>
      </trkpt>
      <trkpt lat="43.27672" lon="-3.20679">
        <ele>744</ele>
        <time>2021-10-28 12:42:11</time>
      </trkpt>
      <trkpt lat="43.27665" lon="-3.20671">
        <ele>743.6</ele>
        <time>2021-10-28 12:42:12</time>
      </trkpt>
      <trkpt lat="43.27661" lon="-3.20668">
        <ele>743.2</ele>
        <time>2021-10-28 12:42:13</time>
      </trkpt>
      <trkpt lat="43.27661" lon="-3.20668">
        <ele>742.8</ele>
        <time>2021-10-28 12:42:14</time>
      </trkpt>
      <trkpt lat="43.27656" lon="-3.20663">
        <ele>742.2</ele>
        <time>2021-10-28 12:42:15</time>
      </trkpt>
      <trkpt lat="43.27656" lon="-3.20663">
        <ele>741.8</ele>
        <time>2021-10-28 12:42:16</time>
      </trkpt>
      <trkpt lat="43.2765" lon="-3.20655">
        <ele>741.2</ele>
        <time>2021-10-28 12:42:17</time>
      </trkpt>
      <trkpt lat="43.2765" lon="-3.20655">
        <ele>741</ele>
        <time>2021-10-28 12:42:18</time>
      </trkpt>
      <trkpt lat="43.27644" lon="-3.20651">
        <ele>740.4</ele>
        <time>2021-10-28 12:42:19</time>
      </trkpt>
      <trkpt lat="43.27644" lon="-3.20651">
        <ele>740</ele>
        <time>2021-10-28 12:42:20</time>
      </trkpt>
      <trkpt lat="43.27641" lon="-3.20649">
        <ele>739.6</ele>
        <time>2021-10-28 12:42:21</time>
      </trkpt>
      <trkpt lat="43.27638" lon="-3.20646">
        <ele>739.2</ele>
        <time>2021-10-28 12:42:22</time>
      </trkpt>
      <trkpt lat="43.27634" lon="-3.20642">
        <ele>738.8</ele>
        <time>2021-10-28 12:42:23</time>
      </trkpt>
      <trkpt lat="43.27633" lon="-3.20641">
        <ele>738.2</ele>
        <time>2021-10-28 12:42:24</time>
      </trkpt>
      <trkpt lat="43.27633" lon="-3.20641">
        <ele>738</ele>
        <time>2021-10-28 12:42:25</time>
      </trkpt>
      <trkpt lat="43.2763" lon="-3.20641">
        <ele>737.6</ele>
        <time>2021-10-28 12:42:26</time>
      </trkpt>
      <trkpt lat="43.27624" lon="-3.20644">
        <ele>737.4</ele>
        <time>2021-10-28 12:42:27</time>
      </trkpt>
      <trkpt lat="43.27624" lon="-3.20644">
        <ele>737</ele>
        <time>2021-10-28 12:42:28</time>
      </trkpt>
      <trkpt lat="43.27622" lon="-3.20645">
        <ele>736.8</ele>
        <time>2021-10-28 12:42:29</time>
      </trkpt>
      <trkpt lat="43.27618" lon="-3.20649">
        <ele>736.6</ele>
        <time>2021-10-28 12:42:30</time>
      </trkpt>
      <trkpt lat="43.27618" lon="-3.20649">
        <ele>736.2</ele>
        <time>2021-10-28 12:42:31</time>
      </trkpt>
      <trkpt lat="43.27618" lon="-3.20649">
        <ele>736</ele>
        <time>2021-10-28 12:42:32</time>
      </trkpt>
      <trkpt lat="43.27615" lon="-3.20659">
        <ele>735.8</ele>
        <time>2021-10-28 12:42:33</time>
      </trkpt>
      <trkpt lat="43.27615" lon="-3.20659">
        <ele>735.4</ele>
        <time>2021-10-28 12:42:34</time>
      </trkpt>
      <trkpt lat="43.27614" lon="-3.20665">
        <ele>735</ele>
        <time>2021-10-28 12:42:35</time>
      </trkpt>
      <trkpt lat="43.2761" lon="-3.2068">
        <ele>734.6</ele>
        <time>2021-10-28 12:42:36</time>
      </trkpt>
      <trkpt lat="43.27607" lon="-3.20688">
        <ele>734.4</ele>
        <time>2021-10-28 12:42:37</time>
      </trkpt>
      <trkpt lat="43.27607" lon="-3.20688">
        <ele>734</ele>
        <time>2021-10-28 12:42:38</time>
      </trkpt>
      <trkpt lat="43.27606" lon="-3.20693">
        <ele>733.8</ele>
        <time>2021-10-28 12:42:39</time>
      </trkpt>
      <trkpt lat="43.27601" lon="-3.20702">
        <ele>733.4</ele>
        <time>2021-10-28 12:42:40</time>
      </trkpt>
      <trkpt lat="43.27601" lon="-3.20702">
        <ele>733</ele>
        <time>2021-10-28 12:42:41</time>
      </trkpt>
      <trkpt lat="43.27601" lon="-3.20702">
        <ele>732.6</ele>
        <time>2021-10-28 12:42:42</time>
      </trkpt>
      <trkpt lat="43.27599" lon="-3.20706">
        <ele>732</ele>
        <time>2021-10-28 12:42:43</time>
      </trkpt>
      <trkpt lat="43.27596" lon="-3.20708">
        <ele>731.6</ele>
        <time>2021-10-28 12:42:44</time>
      </trkpt>
      <trkpt lat="43.27597" lon="-3.2071">
        <ele>731.2</ele>
        <time>2021-10-28 12:42:45</time>
      </trkpt>
      <trkpt lat="43.27597" lon="-3.2071">
        <ele>730.8</ele>
        <time>2021-10-28 12:42:46</time>
      </trkpt>
      <trkpt lat="43.27597" lon="-3.2071">
        <ele>730.8</ele>
        <time>2021-10-28 12:42:47</time>
      </trkpt>
      <trkpt lat="43.27597" lon="-3.20709">
        <ele>730.6</ele>
        <time>2021-10-28 12:42:48</time>
      </trkpt>
      <trkpt lat="43.27596" lon="-3.20709">
        <ele>730.6</ele>
        <time>2021-10-28 12:42:49</time>
      </trkpt>
      <trkpt lat="43.27595" lon="-3.20707">
        <ele>730.6</ele>
        <time>2021-10-28 12:42:50</time>
      </trkpt>
      <trkpt lat="43.27594" lon="-3.20707">
        <ele>730.6</ele>
        <time>2021-10-28 12:42:51</time>
      </trkpt>
      <trkpt lat="43.27594" lon="-3.20709">
        <ele>730.6</ele>
        <time>2021-10-28 12:42:52</time>
      </trkpt>
      <trkpt lat="43.27594" lon="-3.20707">
        <ele>730.6</ele>
        <time>2021-10-28 12:42:53</time>
      </trkpt>
      <trkpt lat="43.27586" lon="-3.20723">
        <ele>730.4</ele>
        <time>2021-10-28 12:42:54</time>
      </trkpt>
      <trkpt lat="43.27586" lon="-3.20723">
        <ele>730.4</ele>
        <time>2021-10-28 12:42:55</time>
      </trkpt>
      <trkpt lat="43.27586" lon="-3.20723">
        <ele>730.4</ele>
        <time>2021-10-28 12:42:56</time>
      </trkpt>
      <trkpt lat="43.27586" lon="-3.20723">
        <ele>730.4</ele>
        <time>2021-10-28 12:42:57</time>
      </trkpt>
      <trkpt lat="43.27586" lon="-3.20723">
        <ele>730.4</ele>
        <time>2021-10-28 12:42:58</time>
      </trkpt>
      <trkpt lat="43.27593" lon="-3.20686">
        <ele>729</ele>
        <time>2021-10-28 12:42:59</time>
      </trkpt>
      <trkpt lat="43.27593" lon="-3.20684">
        <ele>728.8</ele>
        <time>2021-10-28 12:43:00</time>
      </trkpt>
      <trkpt lat="43.27593" lon="-3.20684">
        <ele>728.6</ele>
        <time>2021-10-28 12:43:01</time>
      </trkpt>
      <trkpt lat="43.27593" lon="-3.20684">
        <ele>728.4</ele>
        <time>2021-10-28 12:43:02</time>
      </trkpt>
      <trkpt lat="43.27594" lon="-3.20683">
        <ele>728.4</ele>
        <time>2021-10-28 12:43:03</time>
      </trkpt>
      <trkpt lat="43.27596" lon="-3.20682">
        <ele>728.4</ele>
        <time>2021-10-28 12:43:04</time>
      </trkpt>
      <trkpt lat="43.27597" lon="-3.20683">
        <ele>728.4</ele>
        <time>2021-10-28 12:43:05</time>
      </trkpt>
      <trkpt lat="43.276" lon="-3.20685">
        <ele>728.2</ele>
        <time>2021-10-28 12:43:06</time>
      </trkpt>
      <trkpt lat="43.27602" lon="-3.20686">
        <ele>723.8</ele>
        <time>2021-10-28 12:43:07</time>
      </trkpt>
      <trkpt lat="43.27604" lon="-3.20688">
        <ele>723.8</ele>
        <time>2021-10-28 12:43:08</time>
      </trkpt>
      <trkpt lat="43.27604" lon="-3.20688">
        <ele>724.2</ele>
        <time>2021-10-28 12:43:09</time>
      </trkpt>
      <trkpt lat="43.27604" lon="-3.20688">
        <ele>724.4</ele>
        <time>2021-10-28 12:43:10</time>
      </trkpt>
      <trkpt lat="43.27605" lon="-3.20691">
        <ele>727.6</ele>
        <time>2021-10-28 12:43:11</time>
      </trkpt>
      <trkpt lat="43.27591" lon="-3.2065">
        <ele>725.8</ele>
        <time>2021-10-28 12:43:12</time>
      </trkpt>
      <trkpt lat="43.27591" lon="-3.2065">
        <ele>725.6</ele>
        <time>2021-10-28 12:43:13</time>
      </trkpt>
      <trkpt lat="43.27589" lon="-3.20645">
        <ele>725.4</ele>
        <time>2021-10-28 12:43:14</time>
      </trkpt>
      <trkpt lat="43.27589" lon="-3.20645">
        <ele>725.2</ele>
        <time>2021-10-28 12:44:07</time>
      </trkpt>
      <trkpt lat="43.27588" lon="-3.20642">
        <ele>724.8</ele>
        <time>2021-10-28 12:44:08</time>
      </trkpt>
      <trkpt lat="43.27587" lon="-3.20639">
        <ele>724.6</ele>
        <time>2021-10-28 12:44:09</time>
      </trkpt>
      <trkpt lat="43.27587" lon="-3.20638">
        <ele>724.2</ele>
        <time>2021-10-28 12:44:10</time>
      </trkpt>
      <trkpt lat="43.27588" lon="-3.20635">
        <ele>724</ele>
        <time>2021-10-28 12:44:11</time>
      </trkpt>
      <trkpt lat="43.27584" lon="-3.20629">
        <ele>723.8</ele>
        <time>2021-10-28 12:45:35</time>
      </trkpt>
      <trkpt lat="43.27583" lon="-3.20627">
        <ele>723.6</ele>
        <time>2021-10-28 12:45:36</time>
      </trkpt>
      <trkpt lat="43.27583" lon="-3.20627">
        <ele>723.4</ele>
        <time>2021-10-28 12:45:37</time>
      </trkpt>
      <trkpt lat="43.27582" lon="-3.20619">
        <ele>723.4</ele>
        <time>2021-10-28 12:45:38</time>
      </trkpt>
      <trkpt lat="43.27582" lon="-3.20619">
        <ele>723.2</ele>
        <time>2021-10-28 12:45:39</time>
      </trkpt>
      <trkpt lat="43.27582" lon="-3.20615">
        <ele>723</ele>
        <time>2021-10-28 12:45:40</time>
      </trkpt>
      <trkpt lat="43.27579" lon="-3.20607">
        <ele>722.6</ele>
        <time>2021-10-28 12:45:41</time>
      </trkpt>
      <trkpt lat="43.27579" lon="-3.20607">
        <ele>722.2</ele>
        <time>2021-10-28 12:45:42</time>
      </trkpt>
      <trkpt lat="43.27579" lon="-3.20605">
        <ele>722</ele>
        <time>2021-10-28 12:45:43</time>
      </trkpt>
      <trkpt lat="43.27579" lon="-3.20601">
        <ele>721.8</ele>
        <time>2021-10-28 12:45:44</time>
      </trkpt>
      <trkpt lat="43.27579" lon="-3.20601">
        <ele>721.6</ele>
        <time>2021-10-28 12:45:45</time>
      </trkpt>
      <trkpt lat="43.27578" lon="-3.206">
        <ele>721.6</ele>
        <time>2021-10-28 12:45:46</time>
      </trkpt>
      <trkpt lat="43.2758" lon="-3.20603">
        <ele>721.6</ele>
        <time>2021-10-28 12:45:47</time>
      </trkpt>
      <trkpt lat="43.2758" lon="-3.20603">
        <ele>721.6</ele>
        <time>2021-10-28 12:46:18</time>
      </trkpt>
      <trkpt lat="43.2758" lon="-3.206">
        <ele>721.6</ele>
        <time>2021-10-28 12:46:19</time>
      </trkpt>
      <trkpt lat="43.2758" lon="-3.206">
        <ele>721.8</ele>
        <time>2021-10-28 12:46:20</time>
      </trkpt>
      <trkpt lat="43.2758" lon="-3.20598">
        <ele>721.8</ele>
        <time>2021-10-28 12:46:21</time>
      </trkpt>
      <trkpt lat="43.2758" lon="-3.20595">
        <ele>721.8</ele>
        <time>2021-10-28 12:46:22</time>
      </trkpt>
      <trkpt lat="43.27579" lon="-3.20593">
        <ele>721.6</ele>
        <time>2021-10-28 12:46:23</time>
      </trkpt>
      <trkpt lat="43.27577" lon="-3.20592">
        <ele>721.6</ele>
        <time>2021-10-28 12:46:24</time>
      </trkpt>
      <trkpt lat="43.27577" lon="-3.20592">
        <ele>721.4</ele>
        <time>2021-10-28 12:46:25</time>
      </trkpt>
      <trkpt lat="43.27584" lon="-3.20582">
        <ele>720.4</ele>
        <time>2021-10-28 12:46:26</time>
      </trkpt>
      <trkpt lat="43.27583" lon="-3.20583">
        <ele>720.4</ele>
        <time>2021-10-28 12:46:27</time>
      </trkpt>
      <trkpt lat="43.27583" lon="-3.20583">
        <ele>720.4</ele>
        <time>2021-10-28 12:46:28</time>
      </trkpt>
      <trkpt lat="43.27585" lon="-3.20585">
        <ele>720.2</ele>
        <time>2021-10-28 12:46:29</time>
      </trkpt>
      <trkpt lat="43.27585" lon="-3.20585">
        <ele>720</ele>
        <time>2021-10-28 12:46:30</time>
      </trkpt>
      <trkpt lat="43.27589" lon="-3.20585">
        <ele>719.8</ele>
        <time>2021-10-28 12:46:31</time>
      </trkpt>
      <trkpt lat="43.27613" lon="-3.20585">
        <ele>717.8</ele>
        <time>2021-10-28 12:46:32</time>
      </trkpt>
      <trkpt lat="43.27618" lon="-3.20586">
        <ele>717.6</ele>
        <time>2021-10-28 12:46:33</time>
      </trkpt>
      <trkpt lat="43.27618" lon="-3.20586">
        <ele>717.2</ele>
        <time>2021-10-28 12:46:34</time>
      </trkpt>
      <trkpt lat="43.27619" lon="-3.20587">
        <ele>717</ele>
        <time>2021-10-28 12:46:35</time>
      </trkpt>
      <trkpt lat="43.27619" lon="-3.20587">
        <ele>716.6</ele>
        <time>2021-10-28 12:46:36</time>
      </trkpt>
      <trkpt lat="43.27622" lon="-3.20588">
        <ele>716.4</ele>
        <time>2021-10-28 12:46:37</time>
      </trkpt>
      <trkpt lat="43.27625" lon="-3.20592">
        <ele>716</ele>
        <time>2021-10-28 12:46:38</time>
      </trkpt>
      <trkpt lat="43.27627" lon="-3.20588">
        <ele>715.8</ele>
        <time>2021-10-28 12:46:39</time>
      </trkpt>
      <trkpt lat="43.27633" lon="-3.20592">
        <ele>715.4</ele>
        <time>2021-10-28 12:46:40</time>
      </trkpt>
      <trkpt lat="43.27633" lon="-3.20592">
        <ele>715</ele>
        <time>2021-10-28 12:46:41</time>
      </trkpt>
      <trkpt lat="43.27641" lon="-3.20595">
        <ele>714.6</ele>
        <time>2021-10-28 12:46:42</time>
      </trkpt>
      <trkpt lat="43.27641" lon="-3.20595">
        <ele>714.2</ele>
        <time>2021-10-28 12:46:43</time>
      </trkpt>
      <trkpt lat="43.27654" lon="-3.20588">
        <ele>713.8</ele>
        <time>2021-10-28 12:46:44</time>
      </trkpt>
      <trkpt lat="43.27654" lon="-3.20588">
        <ele>713.4</ele>
        <time>2021-10-28 12:46:45</time>
      </trkpt>
      <trkpt lat="43.2766" lon="-3.20591">
        <ele>713.2</ele>
        <time>2021-10-28 12:46:46</time>
      </trkpt>
      <trkpt lat="43.2766" lon="-3.20591">
        <ele>713.2</ele>
        <time>2021-10-28 12:46:55</time>
      </trkpt>
      <trkpt lat="43.2766" lon="-3.20591">
        <ele>712.8</ele>
        <time>2021-10-28 12:46:56</time>
      </trkpt>
      <trkpt lat="43.27676" lon="-3.20599">
        <ele>712.6</ele>
        <time>2021-10-28 12:46:57</time>
      </trkpt>
      <trkpt lat="43.27676" lon="-3.20599">
        <ele>712.2</ele>
        <time>2021-10-28 12:46:58</time>
      </trkpt>
      <trkpt lat="43.2768" lon="-3.20598">
        <ele>711.8</ele>
        <time>2021-10-28 12:46:59</time>
      </trkpt>
      <trkpt lat="43.27687" lon="-3.206">
        <ele>711.4</ele>
        <time>2021-10-28 12:47:00</time>
      </trkpt>
      <trkpt lat="43.27696" lon="-3.20599">
        <ele>711.2</ele>
        <time>2021-10-28 12:47:08</time>
      </trkpt>
      <trkpt lat="43.27696" lon="-3.20599">
        <ele>710.8</ele>
        <time>2021-10-28 12:47:09</time>
      </trkpt>
      <trkpt lat="43.27698" lon="-3.20604">
        <ele>710.6</ele>
        <time>2021-10-28 12:47:10</time>
      </trkpt>
      <trkpt lat="43.27704" lon="-3.20606">
        <ele>710.2</ele>
        <time>2021-10-28 12:47:11</time>
      </trkpt>
      <trkpt lat="43.2771" lon="-3.20609">
        <ele>710</ele>
        <time>2021-10-28 12:47:12</time>
      </trkpt>
      <trkpt lat="43.27715" lon="-3.20613">
        <ele>709.6</ele>
        <time>2021-10-28 12:47:13</time>
      </trkpt>
      <trkpt lat="43.27715" lon="-3.20613">
        <ele>709.4</ele>
        <time>2021-10-28 12:47:14</time>
      </trkpt>
      <trkpt lat="43.27719" lon="-3.20618">
        <ele>709</ele>
        <time>2021-10-28 12:47:15</time>
      </trkpt>
      <trkpt lat="43.2772" lon="-3.20621">
        <ele>708.8</ele>
        <time>2021-10-28 12:47:16</time>
      </trkpt>
      <trkpt lat="43.2772" lon="-3.20621">
        <ele>708.4</ele>
        <time>2021-10-28 12:47:17</time>
      </trkpt>
      <trkpt lat="43.27728" lon="-3.20626">
        <ele>708</ele>
        <time>2021-10-28 12:47:18</time>
      </trkpt>
      <trkpt lat="43.27728" lon="-3.20626">
        <ele>707.6</ele>
        <time>2021-10-28 12:47:19</time>
      </trkpt>
      <trkpt lat="43.27729" lon="-3.20626">
        <ele>707.4</ele>
        <time>2021-10-28 12:47:20</time>
      </trkpt>
      <trkpt lat="43.27732" lon="-3.20626">
        <ele>707</ele>
        <time>2021-10-28 12:47:21</time>
      </trkpt>
      <trkpt lat="43.27739" lon="-3.20628">
        <ele>706.6</ele>
        <time>2021-10-28 12:47:22</time>
      </trkpt>
      <trkpt lat="43.27739" lon="-3.20628">
        <ele>706.2</ele>
        <time>2021-10-28 12:47:23</time>
      </trkpt>
      <trkpt lat="43.27743" lon="-3.20627">
        <ele>706</ele>
        <time>2021-10-28 12:47:24</time>
      </trkpt>
      <trkpt lat="43.27746" lon="-3.20632">
        <ele>705.6</ele>
        <time>2021-10-28 12:47:25</time>
      </trkpt>
      <trkpt lat="43.27757" lon="-3.20637">
        <ele>705.2</ele>
        <time>2021-10-28 12:47:26</time>
      </trkpt>
      <trkpt lat="43.27757" lon="-3.20637">
        <ele>704.6</ele>
        <time>2021-10-28 12:47:27</time>
      </trkpt>
      <trkpt lat="43.2776" lon="-3.20641">
        <ele>704.2</ele>
        <time>2021-10-28 12:47:28</time>
      </trkpt>
      <trkpt lat="43.27767" lon="-3.20644">
        <ele>704</ele>
        <time>2021-10-28 12:47:29</time>
      </trkpt>
      <trkpt lat="43.27767" lon="-3.20644">
        <ele>703.6</ele>
        <time>2021-10-28 12:47:30</time>
      </trkpt>
      <trkpt lat="43.27771" lon="-3.20647">
        <ele>703.2</ele>
        <time>2021-10-28 12:47:31</time>
      </trkpt>
      <trkpt lat="43.27771" lon="-3.20647">
        <ele>702.8</ele>
        <time>2021-10-28 12:47:32</time>
      </trkpt>
      <trkpt lat="43.2778" lon="-3.20651">
        <ele>702.4</ele>
        <time>2021-10-28 12:47:33</time>
      </trkpt>
      <trkpt lat="43.2778" lon="-3.20651">
        <ele>702</ele>
        <time>2021-10-28 12:47:34</time>
      </trkpt>
      <trkpt lat="43.27786" lon="-3.20655">
        <ele>701.6</ele>
        <time>2021-10-28 12:47:35</time>
      </trkpt>
      <trkpt lat="43.27789" lon="-3.20658">
        <ele>701.2</ele>
        <time>2021-10-28 12:47:36</time>
      </trkpt>
      <trkpt lat="43.27797" lon="-3.20665">
        <ele>700.8</ele>
        <time>2021-10-28 12:47:37</time>
      </trkpt>
      <trkpt lat="43.27797" lon="-3.20665">
        <ele>700.4</ele>
        <time>2021-10-28 12:47:38</time>
      </trkpt>
      <trkpt lat="43.27799" lon="-3.20668">
        <ele>700.2</ele>
        <time>2021-10-28 12:47:39</time>
      </trkpt>
      <trkpt lat="43.27804" lon="-3.20673">
        <ele>699.8</ele>
        <time>2021-10-28 12:47:40</time>
      </trkpt>
      <trkpt lat="43.27804" lon="-3.20673">
        <ele>699.4</ele>
        <time>2021-10-28 12:47:41</time>
      </trkpt>
      <trkpt lat="43.27804" lon="-3.20673">
        <ele>699.2</ele>
        <time>2021-10-28 12:47:42</time>
      </trkpt>
      <trkpt lat="43.2781" lon="-3.20681">
        <ele>699</ele>
        <time>2021-10-28 12:47:43</time>
      </trkpt>
      <trkpt lat="43.27814" lon="-3.20682">
        <ele>698.6</ele>
        <time>2021-10-28 12:47:44</time>
      </trkpt>
      <trkpt lat="43.27816" lon="-3.20686">
        <ele>698.2</ele>
        <time>2021-10-28 12:47:45</time>
      </trkpt>
      <trkpt lat="43.27819" lon="-3.20689">
        <ele>697.8</ele>
        <time>2021-10-28 12:47:46</time>
      </trkpt>
      <trkpt lat="43.27824" lon="-3.20695">
        <ele>697.2</ele>
        <time>2021-10-28 12:47:47</time>
      </trkpt>
      <trkpt lat="43.27824" lon="-3.20695">
        <ele>697</ele>
        <time>2021-10-28 12:47:48</time>
      </trkpt>
      <trkpt lat="43.27832" lon="-3.20696">
        <ele>696.6</ele>
        <time>2021-10-28 12:47:49</time>
      </trkpt>
      <trkpt lat="43.27832" lon="-3.20696">
        <ele>696.4</ele>
        <time>2021-10-28 12:47:50</time>
      </trkpt>
      <trkpt lat="43.27837" lon="-3.20695">
        <ele>696</ele>
        <time>2021-10-28 12:47:51</time>
      </trkpt>
      <trkpt lat="43.27846" lon="-3.20694">
        <ele>695.8</ele>
        <time>2021-10-28 12:47:52</time>
      </trkpt>
      <trkpt lat="43.27846" lon="-3.20694">
        <ele>695.4</ele>
        <time>2021-10-28 12:47:53</time>
      </trkpt>
      <trkpt lat="43.27852" lon="-3.20691">
        <ele>695</ele>
        <time>2021-10-28 12:47:54</time>
      </trkpt>
      <trkpt lat="43.27852" lon="-3.20691">
        <ele>694.8</ele>
        <time>2021-10-28 12:47:55</time>
      </trkpt>
      <trkpt lat="43.27852" lon="-3.20691">
        <ele>694.4</ele>
        <time>2021-10-28 12:47:56</time>
      </trkpt>
      <trkpt lat="43.2786" lon="-3.20691">
        <ele>694</ele>
        <time>2021-10-28 12:47:57</time>
      </trkpt>
      <trkpt lat="43.2786" lon="-3.20691">
        <ele>693.8</ele>
        <time>2021-10-28 12:47:58</time>
      </trkpt>
      <trkpt lat="43.2786" lon="-3.20691">
        <ele>693.6</ele>
        <time>2021-10-28 12:47:59</time>
      </trkpt>
      <trkpt lat="43.27866" lon="-3.20692">
        <ele>693.4</ele>
        <time>2021-10-28 12:48:00</time>
      </trkpt>
      <trkpt lat="43.27869" lon="-3.20692">
        <ele>693.2</ele>
        <time>2021-10-28 12:48:01</time>
      </trkpt>
      <trkpt lat="43.2787" lon="-3.20692">
        <ele>693</ele>
        <time>2021-10-28 12:48:02</time>
      </trkpt>
      <trkpt lat="43.27872" lon="-3.20695">
        <ele>692.8</ele>
        <time>2021-10-28 12:48:03</time>
      </trkpt>
      <trkpt lat="43.27876" lon="-3.207">
        <ele>692.6</ele>
        <time>2021-10-28 12:48:04</time>
      </trkpt>
      <trkpt lat="43.27876" lon="-3.207">
        <ele>692.2</ele>
        <time>2021-10-28 12:48:05</time>
      </trkpt>
      <trkpt lat="43.27881" lon="-3.20703">
        <ele>692</ele>
        <time>2021-10-28 12:48:06</time>
      </trkpt>
      <trkpt lat="43.27881" lon="-3.20703">
        <ele>691.8</ele>
        <time>2021-10-28 12:48:07</time>
      </trkpt>
      <trkpt lat="43.27887" lon="-3.20703">
        <ele>691.6</ele>
        <time>2021-10-28 12:48:08</time>
      </trkpt>
      <trkpt lat="43.27894" lon="-3.20704">
        <ele>691.4</ele>
        <time>2021-10-28 12:48:09</time>
      </trkpt>
      <trkpt lat="43.27894" lon="-3.20704">
        <ele>691.2</ele>
        <time>2021-10-28 12:48:10</time>
      </trkpt>
      <trkpt lat="43.27898" lon="-3.20703">
        <ele>691</ele>
        <time>2021-10-28 12:48:11</time>
      </trkpt>
      <trkpt lat="43.27901" lon="-3.20703">
        <ele>690.8</ele>
        <time>2021-10-28 12:48:12</time>
      </trkpt>
      <trkpt lat="43.27908" lon="-3.20702">
        <ele>690.8</ele>
        <time>2021-10-28 12:48:13</time>
      </trkpt>
      <trkpt lat="43.27908" lon="-3.20702">
        <ele>690.6</ele>
        <time>2021-10-28 12:48:14</time>
      </trkpt>
      <trkpt lat="43.2791" lon="-3.20703">
        <ele>690.4</ele>
        <time>2021-10-28 12:48:15</time>
      </trkpt>
      <trkpt lat="43.27914" lon="-3.20704">
        <ele>690.2</ele>
        <time>2021-10-28 12:48:16</time>
      </trkpt>
      <trkpt lat="43.27926" lon="-3.20703">
        <ele>690</ele>
        <time>2021-10-28 12:48:17</time>
      </trkpt>
      <trkpt lat="43.2793" lon="-3.20704">
        <ele>689.8</ele>
        <time>2021-10-28 12:48:18</time>
      </trkpt>
      <trkpt lat="43.2793" lon="-3.20704">
        <ele>689.4</ele>
        <time>2021-10-28 12:48:19</time>
      </trkpt>
      <trkpt lat="43.27934" lon="-3.20703">
        <ele>689</ele>
        <time>2021-10-28 12:48:20</time>
      </trkpt>
      <trkpt lat="43.27943" lon="-3.20702">
        <ele>688.6</ele>
        <time>2021-10-28 12:48:21</time>
      </trkpt>
      <trkpt lat="43.27943" lon="-3.20702">
        <ele>688.4</ele>
        <time>2021-10-28 12:48:22</time>
      </trkpt>
      <trkpt lat="43.27951" lon="-3.20704">
        <ele>688.2</ele>
        <time>2021-10-28 12:48:23</time>
      </trkpt>
      <trkpt lat="43.27951" lon="-3.20704">
        <ele>687.8</ele>
        <time>2021-10-28 12:48:24</time>
      </trkpt>
      <trkpt lat="43.27954" lon="-3.20705">
        <ele>687.8</ele>
        <time>2021-10-28 12:48:25</time>
      </trkpt>
      <trkpt lat="43.27958" lon="-3.20705">
        <ele>687.6</ele>
        <time>2021-10-28 12:48:26</time>
      </trkpt>
      <trkpt lat="43.27964" lon="-3.20706">
        <ele>687.4</ele>
        <time>2021-10-28 12:48:27</time>
      </trkpt>
      <trkpt lat="43.27967" lon="-3.20708">
        <ele>687.2</ele>
        <time>2021-10-28 12:48:28</time>
      </trkpt>
      <trkpt lat="43.27969" lon="-3.20707">
        <ele>687</ele>
        <time>2021-10-28 12:48:29</time>
      </trkpt>
      <trkpt lat="43.27969" lon="-3.20707">
        <ele>686.8</ele>
        <time>2021-10-28 12:48:30</time>
      </trkpt>
      <trkpt lat="43.27973" lon="-3.20706">
        <ele>686.8</ele>
        <time>2021-10-28 12:48:31</time>
      </trkpt>
      <trkpt lat="43.27978" lon="-3.20706">
        <ele>686.6</ele>
        <time>2021-10-28 12:48:32</time>
      </trkpt>
      <trkpt lat="43.27978" lon="-3.20706">
        <ele>686.4</ele>
        <time>2021-10-28 12:48:33</time>
      </trkpt>
      <trkpt lat="43.27986" lon="-3.20708">
        <ele>686.2</ele>
        <time>2021-10-28 12:48:34</time>
      </trkpt>
      <trkpt lat="43.27986" lon="-3.20708">
        <ele>686</ele>
        <time>2021-10-28 12:48:35</time>
      </trkpt>
      <trkpt lat="43.27996" lon="-3.20708">
        <ele>685.8</ele>
        <time>2021-10-28 12:48:36</time>
      </trkpt>
      <trkpt lat="43.27996" lon="-3.20708">
        <ele>685.6</ele>
        <time>2021-10-28 12:48:37</time>
      </trkpt>
      <trkpt lat="43.28004" lon="-3.20711">
        <ele>685.2</ele>
        <time>2021-10-28 12:48:38</time>
      </trkpt>
      <trkpt lat="43.28004" lon="-3.20711">
        <ele>684.8</ele>
        <time>2021-10-28 12:48:39</time>
      </trkpt>
      <trkpt lat="43.28009" lon="-3.20713">
        <ele>684.4</ele>
        <time>2021-10-28 12:48:40</time>
      </trkpt>
      <trkpt lat="43.28014" lon="-3.20712">
        <ele>684</ele>
        <time>2021-10-28 12:48:41</time>
      </trkpt>
      <trkpt lat="43.28026" lon="-3.20712">
        <ele>683.8</ele>
        <time>2021-10-28 12:48:42</time>
      </trkpt>
      <trkpt lat="43.28026" lon="-3.20712">
        <ele>683.4</ele>
        <time>2021-10-28 12:48:43</time>
      </trkpt>
      <trkpt lat="43.28026" lon="-3.20712">
        <ele>683</ele>
        <time>2021-10-28 12:48:44</time>
      </trkpt>
      <trkpt lat="43.28043" lon="-3.20713">
        <ele>682.6</ele>
        <time>2021-10-28 12:48:45</time>
      </trkpt>
      <trkpt lat="43.28043" lon="-3.20713">
        <ele>682.2</ele>
        <time>2021-10-28 12:48:46</time>
      </trkpt>
      <trkpt lat="43.28052" lon="-3.20715">
        <ele>682</ele>
        <time>2021-10-28 12:48:47</time>
      </trkpt>
      <trkpt lat="43.28052" lon="-3.20715">
        <ele>681.8</ele>
        <time>2021-10-28 12:48:48</time>
      </trkpt>
      <trkpt lat="43.28052" lon="-3.20715">
        <ele>681.6</ele>
        <time>2021-10-28 12:48:49</time>
      </trkpt>
      <trkpt lat="43.28062" lon="-3.20711">
        <ele>681.2</ele>
        <time>2021-10-28 12:48:50</time>
      </trkpt>
      <trkpt lat="43.28062" lon="-3.20711">
        <ele>681.2</ele>
        <time>2021-10-28 12:48:51</time>
      </trkpt>
      <trkpt lat="43.28066" lon="-3.20711">
        <ele>681.2</ele>
        <time>2021-10-28 12:48:52</time>
      </trkpt>
      <trkpt lat="43.28066" lon="-3.20711">
        <ele>681</ele>
        <time>2021-10-28 12:48:53</time>
      </trkpt>
      <trkpt lat="43.28071" lon="-3.20713">
        <ele>680.8</ele>
        <time>2021-10-28 12:48:54</time>
      </trkpt>
      <trkpt lat="43.28071" lon="-3.20713">
        <ele>680.6</ele>
        <time>2021-10-28 12:48:55</time>
      </trkpt>
      <trkpt lat="43.28074" lon="-3.20716">
        <ele>680.4</ele>
        <time>2021-10-28 12:48:56</time>
      </trkpt>
      <trkpt lat="43.28078" lon="-3.20712">
        <ele>680.2</ele>
        <time>2021-10-28 12:48:57</time>
      </trkpt>
      <trkpt lat="43.28082" lon="-3.20712">
        <ele>680</ele>
        <time>2021-10-28 12:48:58</time>
      </trkpt>
      <trkpt lat="43.28086" lon="-3.20718">
        <ele>679.4</ele>
        <time>2021-10-28 12:48:59</time>
      </trkpt>
      <trkpt lat="43.28086" lon="-3.20718">
        <ele>679</ele>
        <time>2021-10-28 12:49:00</time>
      </trkpt>
      <trkpt lat="43.28091" lon="-3.20719">
        <ele>678.6</ele>
        <time>2021-10-28 12:49:01</time>
      </trkpt>
      <trkpt lat="43.28095" lon="-3.20719">
        <ele>678.4</ele>
        <time>2021-10-28 12:49:02</time>
      </trkpt>
      <trkpt lat="43.281" lon="-3.20717">
        <ele>678.2</ele>
        <time>2021-10-28 12:49:03</time>
      </trkpt>
      <trkpt lat="43.28103" lon="-3.20715">
        <ele>678</ele>
        <time>2021-10-28 12:49:04</time>
      </trkpt>
      <trkpt lat="43.28107" lon="-3.20713">
        <ele>678</ele>
        <time>2021-10-28 12:49:05</time>
      </trkpt>
      <trkpt lat="43.28113" lon="-3.2071">
        <ele>677.8</ele>
        <time>2021-10-28 12:49:06</time>
      </trkpt>
      <trkpt lat="43.28113" lon="-3.2071">
        <ele>677.4</ele>
        <time>2021-10-28 12:49:07</time>
      </trkpt>
      <trkpt lat="43.28118" lon="-3.2071">
        <ele>677.2</ele>
        <time>2021-10-28 12:49:08</time>
      </trkpt>
      <trkpt lat="43.28126" lon="-3.20709">
        <ele>676.8</ele>
        <time>2021-10-28 12:49:09</time>
      </trkpt>
      <trkpt lat="43.28126" lon="-3.20709">
        <ele>676.4</ele>
        <time>2021-10-28 12:49:10</time>
      </trkpt>
      <trkpt lat="43.28129" lon="-3.20709">
        <ele>676</ele>
        <time>2021-10-28 12:49:11</time>
      </trkpt>
      <trkpt lat="43.28131" lon="-3.20709">
        <ele>675.6</ele>
        <time>2021-10-28 12:49:12</time>
      </trkpt>
      <trkpt lat="43.28134" lon="-3.20712">
        <ele>675.2</ele>
        <time>2021-10-28 12:49:13</time>
      </trkpt>
      <trkpt lat="43.2814" lon="-3.2071">
        <ele>675</ele>
        <time>2021-10-28 12:49:14</time>
      </trkpt>
      <trkpt lat="43.2814" lon="-3.2071">
        <ele>674.6</ele>
        <time>2021-10-28 12:49:15</time>
      </trkpt>
      <trkpt lat="43.28145" lon="-3.20712">
        <ele>674.4</ele>
        <time>2021-10-28 12:49:16</time>
      </trkpt>
      <trkpt lat="43.28145" lon="-3.20712">
        <ele>674.2</ele>
        <time>2021-10-28 12:49:17</time>
      </trkpt>
      <trkpt lat="43.28149" lon="-3.20716">
        <ele>673.8</ele>
        <time>2021-10-28 12:49:18</time>
      </trkpt>
      <trkpt lat="43.28149" lon="-3.20716">
        <ele>673.2</ele>
        <time>2021-10-28 12:49:19</time>
      </trkpt>
      <trkpt lat="43.28151" lon="-3.20718">
        <ele>672.6</ele>
        <time>2021-10-28 12:49:20</time>
      </trkpt>
      <trkpt lat="43.2816" lon="-3.20719">
        <ele>672.4</ele>
        <time>2021-10-28 12:49:21</time>
      </trkpt>
      <trkpt lat="43.2816" lon="-3.20719">
        <ele>672.2</ele>
        <time>2021-10-28 12:49:22</time>
      </trkpt>
      <trkpt lat="43.28162" lon="-3.20722">
        <ele>672</ele>
        <time>2021-10-28 12:49:23</time>
      </trkpt>
      <trkpt lat="43.28162" lon="-3.20722">
        <ele>672</ele>
        <time>2021-10-28 12:49:24</time>
      </trkpt>
      <trkpt lat="43.2817" lon="-3.20717">
        <ele>672</ele>
        <time>2021-10-28 12:49:25</time>
      </trkpt>
      <trkpt lat="43.2817" lon="-3.20717">
        <ele>672</ele>
        <time>2021-10-28 12:49:26</time>
      </trkpt>
      <trkpt lat="43.28172" lon="-3.20714">
        <ele>671.8</ele>
        <time>2021-10-28 12:49:27</time>
      </trkpt>
      <trkpt lat="43.28173" lon="-3.20712">
        <ele>671.8</ele>
        <time>2021-10-28 12:49:28</time>
      </trkpt>
      <trkpt lat="43.28173" lon="-3.20712">
        <ele>671.8</ele>
        <time>2021-10-28 12:49:29</time>
      </trkpt>
      <trkpt lat="43.28177" lon="-3.20712">
        <ele>671.6</ele>
        <time>2021-10-28 12:49:30</time>
      </trkpt>
      <trkpt lat="43.2818" lon="-3.20712">
        <ele>671.4</ele>
        <time>2021-10-28 12:49:31</time>
      </trkpt>
      <trkpt lat="43.28184" lon="-3.20711">
        <ele>671.2</ele>
        <time>2021-10-28 12:49:32</time>
      </trkpt>
      <trkpt lat="43.28192" lon="-3.20715">
        <ele>671</ele>
        <time>2021-10-28 12:49:33</time>
      </trkpt>
      <trkpt lat="43.28194" lon="-3.20715">
        <ele>670.8</ele>
        <time>2021-10-28 12:49:34</time>
      </trkpt>
      <trkpt lat="43.28194" lon="-3.20715">
        <ele>670.6</ele>
        <time>2021-10-28 12:49:35</time>
      </trkpt>
      <trkpt lat="43.28202" lon="-3.20718">
        <ele>670.6</ele>
        <time>2021-10-28 12:49:36</time>
      </trkpt>
      <trkpt lat="43.28202" lon="-3.20718">
        <ele>670.6</ele>
        <time>2021-10-28 12:49:37</time>
      </trkpt>
      <trkpt lat="43.28206" lon="-3.20718">
        <ele>670.6</ele>
        <time>2021-10-28 12:49:38</time>
      </trkpt>
      <trkpt lat="43.28211" lon="-3.20712">
        <ele>670.4</ele>
        <time>2021-10-28 12:49:39</time>
      </trkpt>
      <trkpt lat="43.28211" lon="-3.20712">
        <ele>670.2</ele>
        <time>2021-10-28 12:49:40</time>
      </trkpt>
      <trkpt lat="43.28211" lon="-3.20712">
        <ele>670.2</ele>
        <time>2021-10-28 12:49:41</time>
      </trkpt>
      <trkpt lat="43.28218" lon="-3.20708">
        <ele>670</ele>
        <time>2021-10-28 12:49:42</time>
      </trkpt>
      <trkpt lat="43.28225" lon="-3.20704">
        <ele>669.8</ele>
        <time>2021-10-28 12:49:43</time>
      </trkpt>
      <trkpt lat="43.28225" lon="-3.20704">
        <ele>669.4</ele>
        <time>2021-10-28 12:49:44</time>
      </trkpt>
      <trkpt lat="43.2823" lon="-3.2069">
        <ele>669</ele>
        <time>2021-10-28 12:49:45</time>
      </trkpt>
      <trkpt lat="43.2823" lon="-3.2069">
        <ele>668.4</ele>
        <time>2021-10-28 12:49:46</time>
      </trkpt>
      <trkpt lat="43.28235" lon="-3.2068">
        <ele>668</ele>
        <time>2021-10-28 12:49:47</time>
      </trkpt>
      <trkpt lat="43.28235" lon="-3.2068">
        <ele>667.6</ele>
        <time>2021-10-28 12:49:48</time>
      </trkpt>
      <trkpt lat="43.28241" lon="-3.20672">
        <ele>667.2</ele>
        <time>2021-10-28 12:49:49</time>
      </trkpt>
      <trkpt lat="43.28241" lon="-3.20672">
        <ele>666.8</ele>
        <time>2021-10-28 12:49:50</time>
      </trkpt>
      <trkpt lat="43.28241" lon="-3.20672">
        <ele>666.2</ele>
        <time>2021-10-28 12:49:51</time>
      </trkpt>
      <trkpt lat="43.28253" lon="-3.20665">
        <ele>665.8</ele>
        <time>2021-10-28 12:49:52</time>
      </trkpt>
      <trkpt lat="43.28253" lon="-3.20665">
        <ele>665.4</ele>
        <time>2021-10-28 12:49:53</time>
      </trkpt>
      <trkpt lat="43.28256" lon="-3.20664">
        <ele>665</ele>
        <time>2021-10-28 12:49:54</time>
      </trkpt>
      <trkpt lat="43.2826" lon="-3.20663">
        <ele>664.4</ele>
        <time>2021-10-28 12:49:55</time>
      </trkpt>
      <trkpt lat="43.28264" lon="-3.20664">
        <ele>663.8</ele>
        <time>2021-10-28 12:49:56</time>
      </trkpt>
      <trkpt lat="43.28271" lon="-3.20668">
        <ele>663.4</ele>
        <time>2021-10-28 12:49:57</time>
      </trkpt>
      <trkpt lat="43.28271" lon="-3.20668">
        <ele>663</ele>
        <time>2021-10-28 12:49:58</time>
      </trkpt>
      <trkpt lat="43.28274" lon="-3.2067">
        <ele>662.8</ele>
        <time>2021-10-28 12:49:59</time>
      </trkpt>
      <trkpt lat="43.28279" lon="-3.20673">
        <ele>662.4</ele>
        <time>2021-10-28 12:50:00</time>
      </trkpt>
      <trkpt lat="43.28283" lon="-3.20677">
        <ele>662</ele>
        <time>2021-10-28 12:50:01</time>
      </trkpt>
      <trkpt lat="43.28287" lon="-3.2068">
        <ele>661.8</ele>
        <time>2021-10-28 12:50:02</time>
      </trkpt>
      <trkpt lat="43.28294" lon="-3.20686">
        <ele>661.6</ele>
        <time>2021-10-28 12:50:03</time>
      </trkpt>
      <trkpt lat="43.28294" lon="-3.20686">
        <ele>661.6</ele>
        <time>2021-10-28 12:50:04</time>
      </trkpt>
      <trkpt lat="43.283" lon="-3.20691">
        <ele>661.4</ele>
        <time>2021-10-28 12:50:05</time>
      </trkpt>
      <trkpt lat="43.283" lon="-3.20691">
        <ele>661.4</ele>
        <time>2021-10-28 12:50:06</time>
      </trkpt>
      <trkpt lat="43.28303" lon="-3.20694">
        <ele>661.2</ele>
        <time>2021-10-28 12:50:07</time>
      </trkpt>
      <trkpt lat="43.28306" lon="-3.20695">
        <ele>661</ele>
        <time>2021-10-28 12:50:08</time>
      </trkpt>
      <trkpt lat="43.28313" lon="-3.20695">
        <ele>660.6</ele>
        <time>2021-10-28 12:50:09</time>
      </trkpt>
      <trkpt lat="43.28318" lon="-3.20694">
        <ele>660.4</ele>
        <time>2021-10-28 12:50:10</time>
      </trkpt>
      <trkpt lat="43.28327" lon="-3.20688">
        <ele>660</ele>
        <time>2021-10-28 12:50:11</time>
      </trkpt>
      <trkpt lat="43.28331" lon="-3.20685">
        <ele>659.6</ele>
        <time>2021-10-28 12:50:12</time>
      </trkpt>
      <trkpt lat="43.28331" lon="-3.20685">
        <ele>659.2</ele>
        <time>2021-10-28 12:50:13</time>
      </trkpt>
      <trkpt lat="43.28343" lon="-3.20681">
        <ele>658.8</ele>
        <time>2021-10-28 12:50:14</time>
      </trkpt>
      <trkpt lat="43.28343" lon="-3.20681">
        <ele>658.4</ele>
        <time>2021-10-28 12:50:15</time>
      </trkpt>
      <trkpt lat="43.28351" lon="-3.20675">
        <ele>658</ele>
        <time>2021-10-28 12:50:16</time>
      </trkpt>
      <trkpt lat="43.28351" lon="-3.20675">
        <ele>657.8</ele>
        <time>2021-10-28 12:50:17</time>
      </trkpt>
      <trkpt lat="43.28356" lon="-3.20673">
        <ele>657.6</ele>
        <time>2021-10-28 12:50:18</time>
      </trkpt>
      <trkpt lat="43.2836" lon="-3.20672">
        <ele>657.2</ele>
        <time>2021-10-28 12:50:19</time>
      </trkpt>
      <trkpt lat="43.28366" lon="-3.2067">
        <ele>656.6</ele>
        <time>2021-10-28 12:50:20</time>
      </trkpt>
      <trkpt lat="43.28376" lon="-3.20663">
        <ele>656</ele>
        <time>2021-10-28 12:50:21</time>
      </trkpt>
      <trkpt lat="43.28376" lon="-3.20663">
        <ele>655.4</ele>
        <time>2021-10-28 12:50:22</time>
      </trkpt>
      <trkpt lat="43.28381" lon="-3.20659">
        <ele>654.8</ele>
        <time>2021-10-28 12:50:23</time>
      </trkpt>
      <trkpt lat="43.28392" lon="-3.20655">
        <ele>654.4</ele>
        <time>2021-10-28 12:50:24</time>
      </trkpt>
      <trkpt lat="43.28397" lon="-3.20657">
        <ele>654.2</ele>
        <time>2021-10-28 12:50:25</time>
      </trkpt>
      <trkpt lat="43.28397" lon="-3.20657">
        <ele>653.8</ele>
        <time>2021-10-28 12:50:26</time>
      </trkpt>
      <trkpt lat="43.28397" lon="-3.20657">
        <ele>653.6</ele>
        <time>2021-10-28 12:50:27</time>
      </trkpt>
      <trkpt lat="43.28406" lon="-3.20658">
        <ele>653.4</ele>
        <time>2021-10-28 12:50:28</time>
      </trkpt>
      <trkpt lat="43.28413" lon="-3.20661">
        <ele>653</ele>
        <time>2021-10-28 12:50:29</time>
      </trkpt>
      <trkpt lat="43.28427" lon="-3.20666">
        <ele>652.6</ele>
        <time>2021-10-28 12:50:30</time>
      </trkpt>
      <trkpt lat="43.28427" lon="-3.20666">
        <ele>652.2</ele>
        <time>2021-10-28 12:50:31</time>
      </trkpt>
      <trkpt lat="43.28434" lon="-3.20665">
        <ele>651.8</ele>
        <time>2021-10-28 12:50:32</time>
      </trkpt>
      <trkpt lat="43.28434" lon="-3.20665">
        <ele>651.6</ele>
        <time>2021-10-28 12:50:33</time>
      </trkpt>
      <trkpt lat="43.28438" lon="-3.20666">
        <ele>651.4</ele>
        <time>2021-10-28 12:50:34</time>
      </trkpt>
      <trkpt lat="43.28442" lon="-3.20661">
        <ele>651.2</ele>
        <time>2021-10-28 12:50:35</time>
      </trkpt>
      <trkpt lat="43.28442" lon="-3.20661">
        <ele>651</ele>
        <time>2021-10-28 12:50:36</time>
      </trkpt>
      <trkpt lat="43.28454" lon="-3.20661">
        <ele>650.8</ele>
        <time>2021-10-28 12:50:37</time>
      </trkpt>
      <trkpt lat="43.28454" lon="-3.20661">
        <ele>650.6</ele>
        <time>2021-10-28 12:50:38</time>
      </trkpt>
      <trkpt lat="43.28465" lon="-3.20655">
        <ele>650.4</ele>
        <time>2021-10-28 12:50:39</time>
      </trkpt>
      <trkpt lat="43.28465" lon="-3.20655">
        <ele>650.2</ele>
        <time>2021-10-28 12:50:40</time>
      </trkpt>
      <trkpt lat="43.28476" lon="-3.20655">
        <ele>649.8</ele>
        <time>2021-10-28 12:50:41</time>
      </trkpt>
      <trkpt lat="43.28476" lon="-3.20655">
        <ele>649.6</ele>
        <time>2021-10-28 12:50:42</time>
      </trkpt>
      <trkpt lat="43.28488" lon="-3.20655">
        <ele>649</ele>
        <time>2021-10-28 12:50:43</time>
      </trkpt>
      <trkpt lat="43.28488" lon="-3.20655">
        <ele>648.6</ele>
        <time>2021-10-28 12:50:44</time>
      </trkpt>
      <trkpt lat="43.28488" lon="-3.20655">
        <ele>648</ele>
        <time>2021-10-28 12:50:45</time>
      </trkpt>
      <trkpt lat="43.285" lon="-3.20651">
        <ele>647.4</ele>
        <time>2021-10-28 12:50:46</time>
      </trkpt>
      <trkpt lat="43.28505" lon="-3.20653">
        <ele>646.8</ele>
        <time>2021-10-28 12:50:47</time>
      </trkpt>
      <trkpt lat="43.28518" lon="-3.20652">
        <ele>646.4</ele>
        <time>2021-10-28 12:50:48</time>
      </trkpt>
      <trkpt lat="43.28518" lon="-3.20652">
        <ele>645.8</ele>
        <time>2021-10-28 12:50:49</time>
      </trkpt>
      <trkpt lat="43.28525" lon="-3.20651">
        <ele>645.4</ele>
        <time>2021-10-28 12:50:50</time>
      </trkpt>
      <trkpt lat="43.28535" lon="-3.20653">
        <ele>645</ele>
        <time>2021-10-28 12:50:51</time>
      </trkpt>
      <trkpt lat="43.28535" lon="-3.20653">
        <ele>644.4</ele>
        <time>2021-10-28 12:50:52</time>
      </trkpt>
      <trkpt lat="43.28535" lon="-3.20653">
        <ele>644.2</ele>
        <time>2021-10-28 12:50:53</time>
      </trkpt>
      <trkpt lat="43.2855" lon="-3.20658">
        <ele>643.6</ele>
        <time>2021-10-28 12:50:54</time>
      </trkpt>
      <trkpt lat="43.2855" lon="-3.20658">
        <ele>643.2</ele>
        <time>2021-10-28 12:50:55</time>
      </trkpt>
      <trkpt lat="43.2856" lon="-3.20659">
        <ele>642.8</ele>
        <time>2021-10-28 12:50:56</time>
      </trkpt>
      <trkpt lat="43.28564" lon="-3.20658">
        <ele>642.4</ele>
        <time>2021-10-28 12:50:57</time>
      </trkpt>
      <trkpt lat="43.28564" lon="-3.20658">
        <ele>642.2</ele>
        <time>2021-10-28 12:50:58</time>
      </trkpt>
      <trkpt lat="43.28568" lon="-3.20658">
        <ele>641.8</ele>
        <time>2021-10-28 12:50:59</time>
      </trkpt>
      <trkpt lat="43.28574" lon="-3.20654">
        <ele>641.2</ele>
        <time>2021-10-28 12:51:00</time>
      </trkpt>
      <trkpt lat="43.28583" lon="-3.2065">
        <ele>640.6</ele>
        <time>2021-10-28 12:51:01</time>
      </trkpt>
      <trkpt lat="43.28583" lon="-3.2065">
        <ele>640</ele>
        <time>2021-10-28 12:51:02</time>
      </trkpt>
      <trkpt lat="43.28587" lon="-3.20645">
        <ele>639.4</ele>
        <time>2021-10-28 12:51:03</time>
      </trkpt>
      <trkpt lat="43.28592" lon="-3.20641">
        <ele>638.6</ele>
        <time>2021-10-28 12:51:04</time>
      </trkpt>
      <trkpt lat="43.28602" lon="-3.20628">
        <ele>638</ele>
        <time>2021-10-28 12:51:05</time>
      </trkpt>
      <trkpt lat="43.28607" lon="-3.20621">
        <ele>637.2</ele>
        <time>2021-10-28 12:51:06</time>
      </trkpt>
      <trkpt lat="43.28607" lon="-3.20621">
        <ele>636.6</ele>
        <time>2021-10-28 12:51:07</time>
      </trkpt>
      <trkpt lat="43.28611" lon="-3.20612">
        <ele>636</ele>
        <time>2021-10-28 12:51:08</time>
      </trkpt>
      <trkpt lat="43.28615" lon="-3.20596">
        <ele>635.6</ele>
        <time>2021-10-28 12:51:09</time>
      </trkpt>
      <trkpt lat="43.28615" lon="-3.20596">
        <ele>635.4</ele>
        <time>2021-10-28 12:51:10</time>
      </trkpt>
      <trkpt lat="43.28618" lon="-3.20589">
        <ele>635.2</ele>
        <time>2021-10-28 12:51:11</time>
      </trkpt>
      <trkpt lat="43.28623" lon="-3.2058">
        <ele>634.8</ele>
        <time>2021-10-28 12:51:12</time>
      </trkpt>
      <trkpt lat="43.28623" lon="-3.2058">
        <ele>634.6</ele>
        <time>2021-10-28 12:51:13</time>
      </trkpt>
      <trkpt lat="43.28622" lon="-3.20573">
        <ele>634.4</ele>
        <time>2021-10-28 12:51:14</time>
      </trkpt>
      <trkpt lat="43.28622" lon="-3.20573">
        <ele>634.2</ele>
        <time>2021-10-28 12:51:15</time>
      </trkpt>
      <trkpt lat="43.28622" lon="-3.20573">
        <ele>634.2</ele>
        <time>2021-10-28 12:51:16</time>
      </trkpt>
      <trkpt lat="43.28622" lon="-3.2057">
        <ele>634</ele>
        <time>2021-10-28 12:51:17</time>
      </trkpt>
      <trkpt lat="43.28622" lon="-3.2057">
        <ele>634</ele>
        <time>2021-10-28 12:51:18</time>
      </trkpt>
      <trkpt lat="43.28618" lon="-3.20571">
        <ele>633.8</ele>
        <time>2021-10-28 12:51:19</time>
      </trkpt>
      <trkpt lat="43.28618" lon="-3.20571">
        <ele>633.6</ele>
        <time>2021-10-28 12:51:20</time>
      </trkpt>
      <trkpt lat="43.28618" lon="-3.20573">
        <ele>633.2</ele>
        <time>2021-10-28 12:51:21</time>
      </trkpt>
      <trkpt lat="43.28617" lon="-3.20575">
        <ele>632.8</ele>
        <time>2021-10-28 12:51:22</time>
      </trkpt>
      <trkpt lat="43.28614" lon="-3.20576">
        <ele>632.6</ele>
        <time>2021-10-28 12:51:23</time>
      </trkpt>
      <trkpt lat="43.28609" lon="-3.20578">
        <ele>632.2</ele>
        <time>2021-10-28 12:51:24</time>
      </trkpt>
      <trkpt lat="43.28609" lon="-3.20578">
        <ele>631.8</ele>
        <time>2021-10-28 12:51:25</time>
      </trkpt>
      <trkpt lat="43.28607" lon="-3.2058">
        <ele>631.6</ele>
        <time>2021-10-28 12:51:26</time>
      </trkpt>
      <trkpt lat="43.28607" lon="-3.2058">
        <ele>631.2</ele>
        <time>2021-10-28 12:51:27</time>
      </trkpt>
      <trkpt lat="43.28606" lon="-3.20581">
        <ele>631</ele>
        <time>2021-10-28 12:51:28</time>
      </trkpt>
      <trkpt lat="43.28606" lon="-3.20582">
        <ele>630.8</ele>
        <time>2021-10-28 12:51:29</time>
      </trkpt>
      <trkpt lat="43.28602" lon="-3.20586">
        <ele>630.6</ele>
        <time>2021-10-28 12:51:30</time>
      </trkpt>
      <trkpt lat="43.28602" lon="-3.20586">
        <ele>630.4</ele>
        <time>2021-10-28 12:51:31</time>
      </trkpt>
      <trkpt lat="43.286" lon="-3.20588">
        <ele>630.2</ele>
        <time>2021-10-28 12:51:32</time>
      </trkpt>
      <trkpt lat="43.286" lon="-3.20591">
        <ele>629.8</ele>
        <time>2021-10-28 12:51:33</time>
      </trkpt>
      <trkpt lat="43.28596" lon="-3.20594">
        <ele>629.4</ele>
        <time>2021-10-28 12:51:34</time>
      </trkpt>
      <trkpt lat="43.28596" lon="-3.20594">
        <ele>629</ele>
        <time>2021-10-28 12:51:35</time>
      </trkpt>
      <trkpt lat="43.28592" lon="-3.20598">
        <ele>628.4</ele>
        <time>2021-10-28 12:51:36</time>
      </trkpt>
      <trkpt lat="43.28585" lon="-3.20601">
        <ele>628</ele>
        <time>2021-10-28 12:51:37</time>
      </trkpt>
      <trkpt lat="43.28585" lon="-3.20601">
        <ele>627.8</ele>
        <time>2021-10-28 12:51:38</time>
      </trkpt>
      <trkpt lat="43.28579" lon="-3.20601">
        <ele>627.2</ele>
        <time>2021-10-28 12:51:39</time>
      </trkpt>
      <trkpt lat="43.28579" lon="-3.20601">
        <ele>626.8</ele>
        <time>2021-10-28 12:51:40</time>
      </trkpt>
      <trkpt lat="43.28575" lon="-3.20603">
        <ele>626.6</ele>
        <time>2021-10-28 12:51:41</time>
      </trkpt>
      <trkpt lat="43.28575" lon="-3.20603">
        <ele>626.4</ele>
        <time>2021-10-28 12:51:42</time>
      </trkpt>
      <trkpt lat="43.28572" lon="-3.20603">
        <ele>626.2</ele>
        <time>2021-10-28 12:51:43</time>
      </trkpt>
      <trkpt lat="43.2857" lon="-3.20603">
        <ele>625.8</ele>
        <time>2021-10-28 12:51:44</time>
      </trkpt>
      <trkpt lat="43.28568" lon="-3.20601">
        <ele>625.4</ele>
        <time>2021-10-28 12:51:45</time>
      </trkpt>
      <trkpt lat="43.28565" lon="-3.206">
        <ele>625</ele>
        <time>2021-10-28 12:51:46</time>
      </trkpt>
      <trkpt lat="43.28565" lon="-3.206">
        <ele>624.8</ele>
        <time>2021-10-28 12:51:47</time>
      </trkpt>
      <trkpt lat="43.28564" lon="-3.20599">
        <ele>624.4</ele>
        <time>2021-10-28 12:51:48</time>
      </trkpt>
      <trkpt lat="43.28562" lon="-3.20599">
        <ele>624.2</ele>
        <time>2021-10-28 12:51:49</time>
      </trkpt>
      <trkpt lat="43.28561" lon="-3.206">
        <ele>623.8</ele>
        <time>2021-10-28 12:51:50</time>
      </trkpt>
      <trkpt lat="43.28559" lon="-3.20599">
        <ele>623.6</ele>
        <time>2021-10-28 12:51:51</time>
      </trkpt>
      <trkpt lat="43.28559" lon="-3.20599">
        <ele>623.2</ele>
        <time>2021-10-28 12:51:52</time>
      </trkpt>
      <trkpt lat="43.28559" lon="-3.20599">
        <ele>622.8</ele>
        <time>2021-10-28 12:51:53</time>
      </trkpt>
      <trkpt lat="43.28557" lon="-3.20597">
        <ele>622.6</ele>
        <time>2021-10-28 12:51:54</time>
      </trkpt>
      <trkpt lat="43.28557" lon="-3.20597">
        <ele>622.2</ele>
        <time>2021-10-28 12:51:55</time>
      </trkpt>
      <trkpt lat="43.28555" lon="-3.20596">
        <ele>621.8</ele>
        <time>2021-10-28 12:51:56</time>
      </trkpt>
      <trkpt lat="43.28553" lon="-3.20594">
        <ele>621.6</ele>
        <time>2021-10-28 12:51:57</time>
      </trkpt>
      <trkpt lat="43.28553" lon="-3.20594">
        <ele>621.4</ele>
        <time>2021-10-28 12:51:58</time>
      </trkpt>
      <trkpt lat="43.28549" lon="-3.20594">
        <ele>621.2</ele>
        <time>2021-10-28 12:51:59</time>
      </trkpt>
      <trkpt lat="43.28549" lon="-3.20594">
        <ele>620.8</ele>
        <time>2021-10-28 12:52:00</time>
      </trkpt>
      <trkpt lat="43.28548" lon="-3.20594">
        <ele>620.6</ele>
        <time>2021-10-28 12:52:01</time>
      </trkpt>
      <trkpt lat="43.28546" lon="-3.20592">
        <ele>620.6</ele>
        <time>2021-10-28 12:52:02</time>
      </trkpt>
      <trkpt lat="43.28546" lon="-3.20592">
        <ele>620.2</ele>
        <time>2021-10-28 12:52:03</time>
      </trkpt>
      <trkpt lat="43.28543" lon="-3.20589">
        <ele>619.8</ele>
        <time>2021-10-28 12:52:04</time>
      </trkpt>
      <trkpt lat="43.28543" lon="-3.20589">
        <ele>619.6</ele>
        <time>2021-10-28 12:52:05</time>
      </trkpt>
      <trkpt lat="43.28539" lon="-3.20588">
        <ele>619.2</ele>
        <time>2021-10-28 12:52:06</time>
      </trkpt>
      <trkpt lat="43.28539" lon="-3.20588">
        <ele>619</ele>
        <time>2021-10-28 12:52:07</time>
      </trkpt>
      <trkpt lat="43.28537" lon="-3.20587">
        <ele>618.6</ele>
        <time>2021-10-28 12:52:08</time>
      </trkpt>
      <trkpt lat="43.28535" lon="-3.20584">
        <ele>618.4</ele>
        <time>2021-10-28 12:52:09</time>
      </trkpt>
      <trkpt lat="43.28531" lon="-3.20582">
        <ele>618.2</ele>
        <time>2021-10-28 12:52:10</time>
      </trkpt>
      <trkpt lat="43.28531" lon="-3.20582">
        <ele>617.8</ele>
        <time>2021-10-28 12:52:11</time>
      </trkpt>
      <trkpt lat="43.28529" lon="-3.20581">
        <ele>617.6</ele>
        <time>2021-10-28 12:52:12</time>
      </trkpt>
      <trkpt lat="43.28528" lon="-3.20581">
        <ele>617.2</ele>
        <time>2021-10-28 12:52:13</time>
      </trkpt>
      <trkpt lat="43.28527" lon="-3.2058">
        <ele>616.8</ele>
        <time>2021-10-28 12:52:14</time>
      </trkpt>
      <trkpt lat="43.28525" lon="-3.20579">
        <ele>616.4</ele>
        <time>2021-10-28 12:52:15</time>
      </trkpt>
      <trkpt lat="43.28525" lon="-3.20579">
        <ele>616</ele>
        <time>2021-10-28 12:52:16</time>
      </trkpt>
      <trkpt lat="43.28522" lon="-3.20577">
        <ele>615.8</ele>
        <time>2021-10-28 12:52:17</time>
      </trkpt>
      <trkpt lat="43.28522" lon="-3.20577">
        <ele>615.6</ele>
        <time>2021-10-28 12:52:18</time>
      </trkpt>
      <trkpt lat="43.28521" lon="-3.20576">
        <ele>615.4</ele>
        <time>2021-10-28 12:52:19</time>
      </trkpt>
      <trkpt lat="43.28518" lon="-3.20576">
        <ele>615</ele>
        <time>2021-10-28 12:52:20</time>
      </trkpt>
      <trkpt lat="43.28517" lon="-3.20574">
        <ele>614.6</ele>
        <time>2021-10-28 12:52:21</time>
      </trkpt>
      <trkpt lat="43.28515" lon="-3.20573">
        <ele>614.4</ele>
        <time>2021-10-28 12:52:22</time>
      </trkpt>
      <trkpt lat="43.28514" lon="-3.20569">
        <ele>614.2</ele>
        <time>2021-10-28 12:52:23</time>
      </trkpt>
      <trkpt lat="43.28514" lon="-3.20569">
        <ele>613.8</ele>
        <time>2021-10-28 12:52:24</time>
      </trkpt>
      <trkpt lat="43.2851" lon="-3.20568">
        <ele>613.4</ele>
        <time>2021-10-28 12:52:25</time>
      </trkpt>
      <trkpt lat="43.28508" lon="-3.20567">
        <ele>613.2</ele>
        <time>2021-10-28 12:52:26</time>
      </trkpt>
      <trkpt lat="43.28508" lon="-3.20567">
        <ele>613</ele>
        <time>2021-10-28 12:52:27</time>
      </trkpt>
      <trkpt lat="43.28508" lon="-3.20566">
        <ele>612.8</ele>
        <time>2021-10-28 12:52:28</time>
      </trkpt>
      <trkpt lat="43.28505" lon="-3.20566">
        <ele>612.6</ele>
        <time>2021-10-28 12:52:29</time>
      </trkpt>
      <trkpt lat="43.28505" lon="-3.20564">
        <ele>612.4</ele>
        <time>2021-10-28 12:52:30</time>
      </trkpt>
      <trkpt lat="43.28503" lon="-3.20562">
        <ele>612</ele>
        <time>2021-10-28 12:52:31</time>
      </trkpt>
      <trkpt lat="43.28502" lon="-3.2056">
        <ele>611.6</ele>
        <time>2021-10-28 12:52:32</time>
      </trkpt>
      <trkpt lat="43.28499" lon="-3.20557">
        <ele>610.8</ele>
        <time>2021-10-28 12:52:33</time>
      </trkpt>
      <trkpt lat="43.28497" lon="-3.20557">
        <ele>610.4</ele>
        <time>2021-10-28 12:52:34</time>
      </trkpt>
      <trkpt lat="43.28495" lon="-3.20556">
        <ele>610</ele>
        <time>2021-10-28 12:52:35</time>
      </trkpt>
      <trkpt lat="43.28493" lon="-3.20557">
        <ele>609.8</ele>
        <time>2021-10-28 12:52:36</time>
      </trkpt>
      <trkpt lat="43.28492" lon="-3.20556">
        <ele>609.6</ele>
        <time>2021-10-28 12:52:37</time>
      </trkpt>
      <trkpt lat="43.28492" lon="-3.20556">
        <ele>609.4</ele>
        <time>2021-10-28 12:52:38</time>
      </trkpt>
      <trkpt lat="43.28488" lon="-3.20557">
        <ele>609</ele>
        <time>2021-10-28 12:52:39</time>
      </trkpt>
      <trkpt lat="43.28488" lon="-3.20557">
        <ele>608.6</ele>
        <time>2021-10-28 12:52:40</time>
      </trkpt>
      <trkpt lat="43.28489" lon="-3.20551">
        <ele>608.2</ele>
        <time>2021-10-28 12:52:41</time>
      </trkpt>
      <trkpt lat="43.28488" lon="-3.20551">
        <ele>608</ele>
        <time>2021-10-28 12:52:42</time>
      </trkpt>
      <trkpt lat="43.28488" lon="-3.20551">
        <ele>607.8</ele>
        <time>2021-10-28 12:52:43</time>
      </trkpt>
      <trkpt lat="43.28485" lon="-3.2055">
        <ele>607.8</ele>
        <time>2021-10-28 12:52:44</time>
      </trkpt>
      <trkpt lat="43.28485" lon="-3.2055">
        <ele>607.6</ele>
        <time>2021-10-28 12:52:45</time>
      </trkpt>
      <trkpt lat="43.28482" lon="-3.20552">
        <ele>607.4</ele>
        <time>2021-10-28 12:52:46</time>
      </trkpt>
      <trkpt lat="43.28482" lon="-3.20552">
        <ele>607</ele>
        <time>2021-10-28 12:52:47</time>
      </trkpt>
      <trkpt lat="43.28481" lon="-3.2055">
        <ele>606.8</ele>
        <time>2021-10-28 12:52:48</time>
      </trkpt>
      <trkpt lat="43.2848" lon="-3.20549">
        <ele>606.6</ele>
        <time>2021-10-28 12:52:49</time>
      </trkpt>
      <trkpt lat="43.28478" lon="-3.2055">
        <ele>606.4</ele>
        <time>2021-10-28 12:52:50</time>
      </trkpt>
      <trkpt lat="43.28478" lon="-3.2055">
        <ele>606.2</ele>
        <time>2021-10-28 12:52:51</time>
      </trkpt>
      <trkpt lat="43.28476" lon="-3.20551">
        <ele>605.8</ele>
        <time>2021-10-28 12:52:52</time>
      </trkpt>
      <trkpt lat="43.28475" lon="-3.20551">
        <ele>605.6</ele>
        <time>2021-10-28 12:52:53</time>
      </trkpt>
      <trkpt lat="43.28474" lon="-3.20551">
        <ele>605.4</ele>
        <time>2021-10-28 12:52:54</time>
      </trkpt>
      <trkpt lat="43.28474" lon="-3.20551">
        <ele>605</ele>
        <time>2021-10-28 12:52:55</time>
      </trkpt>
      <trkpt lat="43.2847" lon="-3.2055">
        <ele>604.8</ele>
        <time>2021-10-28 12:52:56</time>
      </trkpt>
      <trkpt lat="43.2847" lon="-3.2055">
        <ele>604.4</ele>
        <time>2021-10-28 12:52:57</time>
      </trkpt>
      <trkpt lat="43.2847" lon="-3.2055">
        <ele>604</ele>
        <time>2021-10-28 12:52:58</time>
      </trkpt>
      <trkpt lat="43.28466" lon="-3.20548">
        <ele>603.6</ele>
        <time>2021-10-28 12:52:59</time>
      </trkpt>
      <trkpt lat="43.28462" lon="-3.20547">
        <ele>603.4</ele>
        <time>2021-10-28 12:53:00</time>
      </trkpt>
      <trkpt lat="43.28462" lon="-3.20547">
        <ele>603.2</ele>
        <time>2021-10-28 12:53:01</time>
      </trkpt>
      <trkpt lat="43.28459" lon="-3.20541">
        <ele>602.8</ele>
        <time>2021-10-28 12:53:02</time>
      </trkpt>
      <trkpt lat="43.28459" lon="-3.20541">
        <ele>602.6</ele>
        <time>2021-10-28 12:53:03</time>
      </trkpt>
      <trkpt lat="43.28457" lon="-3.2054">
        <ele>602.2</ele>
        <time>2021-10-28 12:53:04</time>
      </trkpt>
      <trkpt lat="43.28454" lon="-3.20539">
        <ele>601.8</ele>
        <time>2021-10-28 12:53:05</time>
      </trkpt>
      <trkpt lat="43.28451" lon="-3.20537">
        <ele>601.2</ele>
        <time>2021-10-28 12:53:06</time>
      </trkpt>
      <trkpt lat="43.28449" lon="-3.20535">
        <ele>600.8</ele>
        <time>2021-10-28 12:53:07</time>
      </trkpt>
      <trkpt lat="43.28446" lon="-3.20534">
        <ele>600.4</ele>
        <time>2021-10-28 12:53:08</time>
      </trkpt>
      <trkpt lat="43.28444" lon="-3.20533">
        <ele>600</ele>
        <time>2021-10-28 12:53:09</time>
      </trkpt>
      <trkpt lat="43.28443" lon="-3.20531">
        <ele>599.8</ele>
        <time>2021-10-28 12:53:10</time>
      </trkpt>
      <trkpt lat="43.2844" lon="-3.20527">
        <ele>599.6</ele>
        <time>2021-10-28 12:53:11</time>
      </trkpt>
      <trkpt lat="43.2844" lon="-3.20527">
        <ele>599.2</ele>
        <time>2021-10-28 12:53:12</time>
      </trkpt>
      <trkpt lat="43.28438" lon="-3.20523">
        <ele>599</ele>
        <time>2021-10-28 12:53:13</time>
      </trkpt>
      <trkpt lat="43.28437" lon="-3.20521">
        <ele>598.6</ele>
        <time>2021-10-28 12:53:14</time>
      </trkpt>
      <trkpt lat="43.28435" lon="-3.20518">
        <ele>598.2</ele>
        <time>2021-10-28 12:53:15</time>
      </trkpt>
      <trkpt lat="43.28435" lon="-3.20518">
        <ele>598</ele>
        <time>2021-10-28 12:53:16</time>
      </trkpt>
      <trkpt lat="43.28434" lon="-3.20517">
        <ele>597.6</ele>
        <time>2021-10-28 12:53:17</time>
      </trkpt>
      <trkpt lat="43.28433" lon="-3.20515">
        <ele>597.2</ele>
        <time>2021-10-28 12:53:18</time>
      </trkpt>
      <trkpt lat="43.28432" lon="-3.20515">
        <ele>596.8</ele>
        <time>2021-10-28 12:53:19</time>
      </trkpt>
      <trkpt lat="43.28432" lon="-3.20515">
        <ele>596.4</ele>
        <time>2021-10-28 12:53:20</time>
      </trkpt>
      <trkpt lat="43.28432" lon="-3.20515">
        <ele>596.2</ele>
        <time>2021-10-28 12:53:21</time>
      </trkpt>
      <trkpt lat="43.28432" lon="-3.20516">
        <ele>596.2</ele>
        <time>2021-10-28 12:53:22</time>
      </trkpt>
      <trkpt lat="43.28432" lon="-3.20516">
        <ele>596.2</ele>
        <time>2021-10-28 12:53:23</time>
      </trkpt>
      <trkpt lat="43.28433" lon="-3.20515">
        <ele>596.2</ele>
        <time>2021-10-28 12:53:24</time>
      </trkpt>
      <trkpt lat="43.28434" lon="-3.20515">
        <ele>596.2</ele>
        <time>2021-10-28 12:53:25</time>
      </trkpt>
      <trkpt lat="43.28434" lon="-3.20514">
        <ele>596.2</ele>
        <time>2021-10-28 12:53:26</time>
      </trkpt>
      <trkpt lat="43.28434" lon="-3.20514">
        <ele>596.2</ele>
        <time>2021-10-28 12:53:27</time>
      </trkpt>
      <trkpt lat="43.28435" lon="-3.20514">
        <ele>596.2</ele>
        <time>2021-10-28 12:53:28</time>
      </trkpt>
      <trkpt lat="43.28413" lon="-3.20494">
        <ele>592.6</ele>
        <time>2021-10-28 12:53:29</time>
      </trkpt>
      <trkpt lat="43.28413" lon="-3.20494">
        <ele>592.4</ele>
        <time>2021-10-28 12:53:30</time>
      </trkpt>
      <trkpt lat="43.28412" lon="-3.20493">
        <ele>592.2</ele>
        <time>2021-10-28 12:53:31</time>
      </trkpt>
      <trkpt lat="43.2841" lon="-3.20492">
        <ele>591.6</ele>
        <time>2021-10-28 12:53:32</time>
      </trkpt>
      <trkpt lat="43.28408" lon="-3.20491">
        <ele>591.2</ele>
        <time>2021-10-28 12:53:33</time>
      </trkpt>
      <trkpt lat="43.28403" lon="-3.20488">
        <ele>590.8</ele>
        <time>2021-10-28 12:53:34</time>
      </trkpt>
      <trkpt lat="43.28403" lon="-3.20488">
        <ele>590.6</ele>
        <time>2021-10-28 12:53:35</time>
      </trkpt>
      <trkpt lat="43.28399" lon="-3.20486">
        <ele>590.4</ele>
        <time>2021-10-28 12:53:36</time>
      </trkpt>
      <trkpt lat="43.28399" lon="-3.20486">
        <ele>590</ele>
        <time>2021-10-28 12:53:37</time>
      </trkpt>
      <trkpt lat="43.28399" lon="-3.20485">
        <ele>589.8</ele>
        <time>2021-10-28 12:53:38</time>
      </trkpt>
      <trkpt lat="43.28399" lon="-3.20484">
        <ele>589.6</ele>
        <time>2021-10-28 12:53:39</time>
      </trkpt>
      <trkpt lat="43.28398" lon="-3.20484">
        <ele>589.6</ele>
        <time>2021-10-28 12:53:40</time>
      </trkpt>
      <trkpt lat="43.28398" lon="-3.20484">
        <ele>589.4</ele>
        <time>2021-10-28 12:53:41</time>
      </trkpt>
      <trkpt lat="43.28397" lon="-3.20482">
        <ele>589.4</ele>
        <time>2021-10-28 12:53:42</time>
      </trkpt>
      <trkpt lat="43.28397" lon="-3.20481">
        <ele>589.4</ele>
        <time>2021-10-28 12:53:43</time>
      </trkpt>
      <trkpt lat="43.28397" lon="-3.20481">
        <ele>589.4</ele>
        <time>2021-10-28 12:53:44</time>
      </trkpt>
      <trkpt lat="43.28396" lon="-3.20479">
        <ele>589.4</ele>
        <time>2021-10-28 12:53:45</time>
      </trkpt>
      <trkpt lat="43.28396" lon="-3.20477">
        <ele>589.4</ele>
        <time>2021-10-28 12:53:46</time>
      </trkpt>
      <trkpt lat="43.28414" lon="-3.20461">
        <ele>584.8</ele>
        <time>2021-10-28 12:53:47</time>
      </trkpt>
      <trkpt lat="43.28414" lon="-3.20461">
        <ele>584.6</ele>
        <time>2021-10-28 12:53:48</time>
      </trkpt>
      <trkpt lat="43.28417" lon="-3.2046">
        <ele>584.6</ele>
        <time>2021-10-28 12:53:49</time>
      </trkpt>
      <trkpt lat="43.2842" lon="-3.20459">
        <ele>584.4</ele>
        <time>2021-10-28 12:54:14</time>
      </trkpt>
      <trkpt lat="43.28422" lon="-3.20459">
        <ele>584</ele>
        <time>2021-10-28 12:54:15</time>
      </trkpt>
      <trkpt lat="43.28427" lon="-3.20459">
        <ele>583.8</ele>
        <time>2021-10-28 12:54:16</time>
      </trkpt>
      <trkpt lat="43.28427" lon="-3.20459">
        <ele>583.4</ele>
        <time>2021-10-28 12:54:17</time>
      </trkpt>
      <trkpt lat="43.28435" lon="-3.20459">
        <ele>583</ele>
        <time>2021-10-28 12:54:18</time>
      </trkpt>
      <trkpt lat="43.28435" lon="-3.20459">
        <ele>582.4</ele>
        <time>2021-10-28 12:54:19</time>
      </trkpt>
      <trkpt lat="43.28441" lon="-3.20458">
        <ele>582</ele>
        <time>2021-10-28 12:54:20</time>
      </trkpt>
      <trkpt lat="43.28445" lon="-3.20457">
        <ele>581.6</ele>
        <time>2021-10-28 12:54:21</time>
      </trkpt>
      <trkpt lat="43.28445" lon="-3.20457">
        <ele>581.2</ele>
        <time>2021-10-28 12:54:22</time>
      </trkpt>
      <trkpt lat="43.28451" lon="-3.20452">
        <ele>580.8</ele>
        <time>2021-10-28 12:54:23</time>
      </trkpt>
      <trkpt lat="43.28451" lon="-3.20452">
        <ele>580.4</ele>
        <time>2021-10-28 12:54:24</time>
      </trkpt>
      <trkpt lat="43.28451" lon="-3.20452">
        <ele>579.8</ele>
        <time>2021-10-28 12:54:25</time>
      </trkpt>
      <trkpt lat="43.28451" lon="-3.20452">
        <ele>579</ele>
        <time>2021-10-28 12:54:26</time>
      </trkpt>
      <trkpt lat="43.28457" lon="-3.20444">
        <ele>578.6</ele>
        <time>2021-10-28 12:54:27</time>
      </trkpt>
      <trkpt lat="43.28457" lon="-3.20441">
        <ele>578.2</ele>
        <time>2021-10-28 12:54:28</time>
      </trkpt>
      <trkpt lat="43.28459" lon="-3.20434">
        <ele>578</ele>
        <time>2021-10-28 12:54:29</time>
      </trkpt>
      <trkpt lat="43.28459" lon="-3.20434">
        <ele>577.8</ele>
        <time>2021-10-28 12:54:30</time>
      </trkpt>
      <trkpt lat="43.28461" lon="-3.20427">
        <ele>577.6</ele>
        <time>2021-10-28 12:54:31</time>
      </trkpt>
      <trkpt lat="43.28461" lon="-3.20427">
        <ele>577.4</ele>
        <time>2021-10-28 12:55:06</time>
      </trkpt>
      <trkpt lat="43.28461" lon="-3.20421">
        <ele>577.2</ele>
        <time>2021-10-28 12:55:07</time>
      </trkpt>
      <trkpt lat="43.28461" lon="-3.20421">
        <ele>576.8</ele>
        <time>2021-10-28 12:55:08</time>
      </trkpt>
      <trkpt lat="43.2846" lon="-3.20419">
        <ele>576.2</ele>
        <time>2021-10-28 12:55:09</time>
      </trkpt>
      <trkpt lat="43.28459" lon="-3.20415">
        <ele>575.8</ele>
        <time>2021-10-28 12:55:10</time>
      </trkpt>
      <trkpt lat="43.28459" lon="-3.20415">
        <ele>575.4</ele>
        <time>2021-10-28 12:55:11</time>
      </trkpt>
      <trkpt lat="43.28458" lon="-3.20412">
        <ele>575</ele>
        <time>2021-10-28 12:55:12</time>
      </trkpt>
      <trkpt lat="43.28458" lon="-3.20412">
        <ele>574.6</ele>
        <time>2021-10-28 12:55:13</time>
      </trkpt>
      <trkpt lat="43.28455" lon="-3.20409">
        <ele>574.2</ele>
        <time>2021-10-28 12:55:14</time>
      </trkpt>
      <trkpt lat="43.28451" lon="-3.20408">
        <ele>573.8</ele>
        <time>2021-10-28 12:55:15</time>
      </trkpt>
      <trkpt lat="43.28451" lon="-3.20408">
        <ele>573.4</ele>
        <time>2021-10-28 12:55:16</time>
      </trkpt>
      <trkpt lat="43.28451" lon="-3.20408">
        <ele>573</ele>
        <time>2021-10-28 12:55:17</time>
      </trkpt>
      <trkpt lat="43.28446" lon="-3.20404">
        <ele>572.6</ele>
        <time>2021-10-28 12:55:18</time>
      </trkpt>
      <trkpt lat="43.2844" lon="-3.20401">
        <ele>572</ele>
        <time>2021-10-28 12:55:19</time>
      </trkpt>
      <trkpt lat="43.28439" lon="-3.20399">
        <ele>571.6</ele>
        <time>2021-10-28 12:55:20</time>
      </trkpt>
      <trkpt lat="43.28439" lon="-3.20399">
        <ele>571.4</ele>
        <time>2021-10-28 12:55:21</time>
      </trkpt>
      <trkpt lat="43.28436" lon="-3.20396">
        <ele>571</ele>
        <time>2021-10-28 12:55:22</time>
      </trkpt>
      <trkpt lat="43.2843" lon="-3.20394">
        <ele>570.8</ele>
        <time>2021-10-28 12:55:23</time>
      </trkpt>
      <trkpt lat="43.2843" lon="-3.20394">
        <ele>570.6</ele>
        <time>2021-10-28 12:55:24</time>
      </trkpt>
      <trkpt lat="43.28428" lon="-3.20392">
        <ele>570.2</ele>
        <time>2021-10-28 12:55:25</time>
      </trkpt>
      <trkpt lat="43.28426" lon="-3.20391">
        <ele>569.8</ele>
        <time>2021-10-28 12:55:26</time>
      </trkpt>
      <trkpt lat="43.28423" lon="-3.2039">
        <ele>569.4</ele>
        <time>2021-10-28 12:55:27</time>
      </trkpt>
      <trkpt lat="43.2842" lon="-3.20388">
        <ele>569.2</ele>
        <time>2021-10-28 12:55:28</time>
      </trkpt>
      <trkpt lat="43.2842" lon="-3.20388">
        <ele>569</ele>
        <time>2021-10-28 12:55:29</time>
      </trkpt>
      <trkpt lat="43.28419" lon="-3.20387">
        <ele>568.8</ele>
        <time>2021-10-28 12:55:30</time>
      </trkpt>
      <trkpt lat="43.28417" lon="-3.20386">
        <ele>568.8</ele>
        <time>2021-10-28 12:55:31</time>
      </trkpt>
      <trkpt lat="43.28415" lon="-3.20384">
        <ele>568.8</ele>
        <time>2021-10-28 12:55:32</time>
      </trkpt>
      <trkpt lat="43.28415" lon="-3.20384">
        <ele>568.8</ele>
        <time>2021-10-28 12:55:33</time>
      </trkpt>
      <trkpt lat="43.28414" lon="-3.20384">
        <ele>568.8</ele>
        <time>2021-10-28 12:55:34</time>
      </trkpt>
      <trkpt lat="43.28414" lon="-3.20384">
        <ele>568.6</ele>
        <time>2021-10-28 12:55:35</time>
      </trkpt>
      <trkpt lat="43.28414" lon="-3.20384">
        <ele>568.4</ele>
        <time>2021-10-28 12:55:36</time>
      </trkpt>
      <trkpt lat="43.2841" lon="-3.20384">
        <ele>568.2</ele>
        <time>2021-10-28 12:55:37</time>
      </trkpt>
      <trkpt lat="43.28407" lon="-3.20384">
        <ele>567.8</ele>
        <time>2021-10-28 12:55:38</time>
      </trkpt>
      <trkpt lat="43.28407" lon="-3.20384">
        <ele>567.4</ele>
        <time>2021-10-28 12:55:39</time>
      </trkpt>
      <trkpt lat="43.28404" lon="-3.20383">
        <ele>566.8</ele>
        <time>2021-10-28 12:55:40</time>
      </trkpt>
      <trkpt lat="43.28404" lon="-3.20383">
        <ele>566.4</ele>
        <time>2021-10-28 12:55:41</time>
      </trkpt>
      <trkpt lat="43.28402" lon="-3.20382">
        <ele>566</ele>
        <time>2021-10-28 12:55:42</time>
      </trkpt>
      <trkpt lat="43.28401" lon="-3.2038">
        <ele>565.6</ele>
        <time>2021-10-28 12:55:43</time>
      </trkpt>
      <trkpt lat="43.28401" lon="-3.2038">
        <ele>565.2</ele>
        <time>2021-10-28 12:55:44</time>
      </trkpt>
      <trkpt lat="43.28398" lon="-3.20379">
        <ele>564.8</ele>
        <time>2021-10-28 12:55:45</time>
      </trkpt>
      <trkpt lat="43.28395" lon="-3.20377">
        <ele>564.6</ele>
        <time>2021-10-28 12:55:46</time>
      </trkpt>
      <trkpt lat="43.28395" lon="-3.20377">
        <ele>564</ele>
        <time>2021-10-28 12:55:47</time>
      </trkpt>
      <trkpt lat="43.28393" lon="-3.20377">
        <ele>563.6</ele>
        <time>2021-10-28 12:55:48</time>
      </trkpt>
      <trkpt lat="43.2839" lon="-3.20378">
        <ele>563.4</ele>
        <time>2021-10-28 12:55:49</time>
      </trkpt>
      <trkpt lat="43.2839" lon="-3.20378">
        <ele>563</ele>
        <time>2021-10-28 12:55:50</time>
      </trkpt>
      <trkpt lat="43.28387" lon="-3.2038">
        <ele>562.8</ele>
        <time>2021-10-28 12:55:51</time>
      </trkpt>
      <trkpt lat="43.28386" lon="-3.2038">
        <ele>562.6</ele>
        <time>2021-10-28 12:55:52</time>
      </trkpt>
      <trkpt lat="43.28386" lon="-3.2038">
        <ele>562.4</ele>
        <time>2021-10-28 12:55:53</time>
      </trkpt>
      <trkpt lat="43.28382" lon="-3.2038">
        <ele>562</ele>
        <time>2021-10-28 12:55:54</time>
      </trkpt>
      <trkpt lat="43.28382" lon="-3.2038">
        <ele>561.6</ele>
        <time>2021-10-28 12:55:55</time>
      </trkpt>
      <trkpt lat="43.28379" lon="-3.2038">
        <ele>561.2</ele>
        <time>2021-10-28 12:55:56</time>
      </trkpt>
      <trkpt lat="43.28379" lon="-3.2038">
        <ele>560.8</ele>
        <time>2021-10-28 12:55:57</time>
      </trkpt>
      <trkpt lat="43.28376" lon="-3.20381">
        <ele>560.4</ele>
        <time>2021-10-28 12:55:58</time>
      </trkpt>
      <trkpt lat="43.28376" lon="-3.20381">
        <ele>560.2</ele>
        <time>2021-10-28 12:55:59</time>
      </trkpt>
      <trkpt lat="43.28374" lon="-3.20383">
        <ele>559.8</ele>
        <time>2021-10-28 12:56:00</time>
      </trkpt>
      <trkpt lat="43.28372" lon="-3.20384">
        <ele>559.4</ele>
        <time>2021-10-28 12:56:01</time>
      </trkpt>
      <trkpt lat="43.28371" lon="-3.20384">
        <ele>559.2</ele>
        <time>2021-10-28 12:56:02</time>
      </trkpt>
      <trkpt lat="43.28371" lon="-3.20384">
        <ele>558.8</ele>
        <time>2021-10-28 12:56:03</time>
      </trkpt>
      <trkpt lat="43.28368" lon="-3.20386">
        <ele>558.4</ele>
        <time>2021-10-28 12:56:04</time>
      </trkpt>
      <trkpt lat="43.28368" lon="-3.20386">
        <ele>558</ele>
        <time>2021-10-28 12:56:05</time>
      </trkpt>
      <trkpt lat="43.28364" lon="-3.20385">
        <ele>557.6</ele>
        <time>2021-10-28 12:56:06</time>
      </trkpt>
      <trkpt lat="43.28364" lon="-3.20385">
        <ele>557.2</ele>
        <time>2021-10-28 12:56:07</time>
      </trkpt>
      <trkpt lat="43.28364" lon="-3.20385">
        <ele>556.8</ele>
        <time>2021-10-28 12:56:08</time>
      </trkpt>
      <trkpt lat="43.28362" lon="-3.20387">
        <ele>556.4</ele>
        <time>2021-10-28 12:56:09</time>
      </trkpt>
      <trkpt lat="43.2836" lon="-3.20389">
        <ele>556</ele>
        <time>2021-10-28 12:56:10</time>
      </trkpt>
      <trkpt lat="43.2836" lon="-3.20389">
        <ele>555.6</ele>
        <time>2021-10-28 12:56:11</time>
      </trkpt>
      <trkpt lat="43.28358" lon="-3.20391">
        <ele>555.4</ele>
        <time>2021-10-28 12:56:12</time>
      </trkpt>
      <trkpt lat="43.28358" lon="-3.20391">
        <ele>555.4</ele>
        <time>2021-10-28 12:56:13</time>
      </trkpt>
      <trkpt lat="43.28357" lon="-3.20391">
        <ele>555</ele>
        <time>2021-10-28 12:56:14</time>
      </trkpt>
      <trkpt lat="43.28356" lon="-3.20391">
        <ele>554.6</ele>
        <time>2021-10-28 12:56:15</time>
      </trkpt>
      <trkpt lat="43.28353" lon="-3.20394">
        <ele>554.2</ele>
        <time>2021-10-28 12:56:16</time>
      </trkpt>
      <trkpt lat="43.28353" lon="-3.20394">
        <ele>553.8</ele>
        <time>2021-10-28 12:56:17</time>
      </trkpt>
      <trkpt lat="43.2835" lon="-3.20395">
        <ele>553.4</ele>
        <time>2021-10-28 12:56:18</time>
      </trkpt>
      <trkpt lat="43.2835" lon="-3.20395">
        <ele>553</ele>
        <time>2021-10-28 12:56:19</time>
      </trkpt>
      <trkpt lat="43.28348" lon="-3.20398">
        <ele>552.6</ele>
        <time>2021-10-28 12:56:20</time>
      </trkpt>
      <trkpt lat="43.28348" lon="-3.20402">
        <ele>552.2</ele>
        <time>2021-10-28 12:56:21</time>
      </trkpt>
      <trkpt lat="43.28346" lon="-3.20404">
        <ele>552</ele>
        <time>2021-10-28 12:56:22</time>
      </trkpt>
      <trkpt lat="43.28346" lon="-3.20404">
        <ele>551.8</ele>
        <time>2021-10-28 12:56:23</time>
      </trkpt>
      <trkpt lat="43.28343" lon="-3.20408">
        <ele>551.4</ele>
        <time>2021-10-28 12:56:24</time>
      </trkpt>
      <trkpt lat="43.28343" lon="-3.20408">
        <ele>551</ele>
        <time>2021-10-28 12:56:25</time>
      </trkpt>
      <trkpt lat="43.28341" lon="-3.2041">
        <ele>550.6</ele>
        <time>2021-10-28 12:56:26</time>
      </trkpt>
      <trkpt lat="43.28341" lon="-3.2041">
        <ele>550.4</ele>
        <time>2021-10-28 12:56:27</time>
      </trkpt>
      <trkpt lat="43.28335" lon="-3.20413">
        <ele>550</ele>
        <time>2021-10-28 12:56:28</time>
      </trkpt>
      <trkpt lat="43.28332" lon="-3.20413">
        <ele>549.8</ele>
        <time>2021-10-28 12:56:29</time>
      </trkpt>
      <trkpt lat="43.28332" lon="-3.20413">
        <ele>549.6</ele>
        <time>2021-10-28 12:56:30</time>
      </trkpt>
      <trkpt lat="43.28331" lon="-3.20411">
        <ele>549.4</ele>
        <time>2021-10-28 12:56:31</time>
      </trkpt>
      <trkpt lat="43.28331" lon="-3.20411">
        <ele>549.4</ele>
        <time>2021-10-28 12:56:32</time>
      </trkpt>
      <trkpt lat="43.28326" lon="-3.2041">
        <ele>549.2</ele>
        <time>2021-10-28 12:56:33</time>
      </trkpt>
      <trkpt lat="43.28327" lon="-3.20407">
        <ele>549.2</ele>
        <time>2021-10-28 12:56:34</time>
      </trkpt>
      <trkpt lat="43.28327" lon="-3.20407">
        <ele>549.2</ele>
        <time>2021-10-28 12:56:35</time>
      </trkpt>
      <trkpt lat="43.2833" lon="-3.20407">
        <ele>549</ele>
        <time>2021-10-28 12:56:36</time>
      </trkpt>
      <trkpt lat="43.2833" lon="-3.20407">
        <ele>548.8</ele>
        <time>2021-10-28 12:56:37</time>
      </trkpt>
      <trkpt lat="43.2833" lon="-3.20405">
        <ele>548.8</ele>
        <time>2021-10-28 12:56:38</time>
      </trkpt>
      <trkpt lat="43.2833" lon="-3.20404">
        <ele>548.4</ele>
        <time>2021-10-28 12:56:39</time>
      </trkpt>
      <trkpt lat="43.28331" lon="-3.20401">
        <ele>548.2</ele>
        <time>2021-10-28 12:56:40</time>
      </trkpt>
      <trkpt lat="43.28334" lon="-3.20395">
        <ele>548</ele>
        <time>2021-10-28 12:56:41</time>
      </trkpt>
      <trkpt lat="43.28334" lon="-3.20395">
        <ele>547.6</ele>
        <time>2021-10-28 12:56:42</time>
      </trkpt>
      <trkpt lat="43.28333" lon="-3.20389">
        <ele>547.2</ele>
        <time>2021-10-28 12:56:43</time>
      </trkpt>
      <trkpt lat="43.28333" lon="-3.20389">
        <ele>546.8</ele>
        <time>2021-10-28 12:56:44</time>
      </trkpt>
      <trkpt lat="43.28334" lon="-3.20385">
        <ele>546.4</ele>
        <time>2021-10-28 12:56:45</time>
      </trkpt>
      <trkpt lat="43.28333" lon="-3.20384">
        <ele>546.2</ele>
        <time>2021-10-28 12:56:46</time>
      </trkpt>
      <trkpt lat="43.28335" lon="-3.20379">
        <ele>545.8</ele>
        <time>2021-10-28 12:56:47</time>
      </trkpt>
      <trkpt lat="43.28337" lon="-3.20375">
        <ele>545.6</ele>
        <time>2021-10-28 12:56:48</time>
      </trkpt>
      <trkpt lat="43.28337" lon="-3.20375">
        <ele>545.2</ele>
        <time>2021-10-28 12:56:49</time>
      </trkpt>
      <trkpt lat="43.28339" lon="-3.20376">
        <ele>545</ele>
        <time>2021-10-28 12:56:50</time>
      </trkpt>
      <trkpt lat="43.28339" lon="-3.20376">
        <ele>544.6</ele>
        <time>2021-10-28 12:56:51</time>
      </trkpt>
      <trkpt lat="43.28339" lon="-3.20376">
        <ele>544.2</ele>
        <time>2021-10-28 12:56:52</time>
      </trkpt>
      <trkpt lat="43.28338" lon="-3.20373">
        <ele>544</ele>
        <time>2021-10-28 12:56:53</time>
      </trkpt>
      <trkpt lat="43.28338" lon="-3.20372">
        <ele>543.8</ele>
        <time>2021-10-28 12:56:54</time>
      </trkpt>
      <trkpt lat="43.28338" lon="-3.20372">
        <ele>543.4</ele>
        <time>2021-10-28 12:56:55</time>
      </trkpt>
      <trkpt lat="43.28338" lon="-3.20366">
        <ele>543</ele>
        <time>2021-10-28 12:56:56</time>
      </trkpt>
      <trkpt lat="43.28338" lon="-3.20366">
        <ele>542.4</ele>
        <time>2021-10-28 12:56:57</time>
      </trkpt>
      <trkpt lat="43.2834" lon="-3.20361">
        <ele>542</ele>
        <time>2021-10-28 12:56:58</time>
      </trkpt>
      <trkpt lat="43.28339" lon="-3.20359">
        <ele>541.4</ele>
        <time>2021-10-28 12:56:59</time>
      </trkpt>
      <trkpt lat="43.2834" lon="-3.20357">
        <ele>540.8</ele>
        <time>2021-10-28 12:57:00</time>
      </trkpt>
      <trkpt lat="43.28341" lon="-3.20353">
        <ele>540.4</ele>
        <time>2021-10-28 12:57:01</time>
      </trkpt>
      <trkpt lat="43.28341" lon="-3.20353">
        <ele>540</ele>
        <time>2021-10-28 12:57:02</time>
      </trkpt>
      <trkpt lat="43.28342" lon="-3.20349">
        <ele>539.6</ele>
        <time>2021-10-28 12:57:03</time>
      </trkpt>
      <trkpt lat="43.28342" lon="-3.20349">
        <ele>539.2</ele>
        <time>2021-10-28 12:57:04</time>
      </trkpt>
      <trkpt lat="43.28342" lon="-3.20342">
        <ele>538.6</ele>
        <time>2021-10-28 12:57:05</time>
      </trkpt>
      <trkpt lat="43.28342" lon="-3.2034">
        <ele>538.2</ele>
        <time>2021-10-28 12:57:06</time>
      </trkpt>
      <trkpt lat="43.28342" lon="-3.2034">
        <ele>538</ele>
        <time>2021-10-28 12:57:07</time>
      </trkpt>
      <trkpt lat="43.28343" lon="-3.20337">
        <ele>537.6</ele>
        <time>2021-10-28 12:57:08</time>
      </trkpt>
      <trkpt lat="43.28344" lon="-3.20335">
        <ele>537.2</ele>
        <time>2021-10-28 12:57:09</time>
      </trkpt>
      <trkpt lat="43.28348" lon="-3.20333">
        <ele>536.8</ele>
        <time>2021-10-28 12:57:10</time>
      </trkpt>
      <trkpt lat="43.28348" lon="-3.20333">
        <ele>536.4</ele>
        <time>2021-10-28 12:57:11</time>
      </trkpt>
      <trkpt lat="43.2835" lon="-3.2033">
        <ele>536</ele>
        <time>2021-10-28 12:57:12</time>
      </trkpt>
      <trkpt lat="43.2835" lon="-3.2033">
        <ele>535.8</ele>
        <time>2021-10-28 12:57:13</time>
      </trkpt>
      <trkpt lat="43.28351" lon="-3.20328">
        <ele>535.6</ele>
        <time>2021-10-28 12:57:14</time>
      </trkpt>
      <trkpt lat="43.28351" lon="-3.20328">
        <ele>535.6</ele>
        <time>2021-10-28 12:57:15</time>
      </trkpt>
      <trkpt lat="43.28349" lon="-3.20324">
        <ele>535.4</ele>
        <time>2021-10-28 12:57:16</time>
      </trkpt>
      <trkpt lat="43.28345" lon="-3.20319">
        <ele>535.4</ele>
        <time>2021-10-28 12:57:17</time>
      </trkpt>
      <trkpt lat="43.28345" lon="-3.20319">
        <ele>535.4</ele>
        <time>2021-10-28 12:57:18</time>
      </trkpt>
      <trkpt lat="43.28347" lon="-3.20322">
        <ele>535.4</ele>
        <time>2021-10-28 12:57:19</time>
      </trkpt>
      <trkpt lat="43.28347" lon="-3.20324">
        <ele>535.4</ele>
        <time>2021-10-28 12:57:20</time>
      </trkpt>
      <trkpt lat="43.28347" lon="-3.20326">
        <ele>535.4</ele>
        <time>2021-10-28 12:57:21</time>
      </trkpt>
      <trkpt lat="43.28347" lon="-3.20326">
        <ele>535.4</ele>
        <time>2021-10-28 12:57:22</time>
      </trkpt>
      <trkpt lat="43.28346" lon="-3.20325">
        <ele>535.4</ele>
        <time>2021-10-28 12:57:23</time>
      </trkpt>
      <trkpt lat="43.28346" lon="-3.20325">
        <ele>535.4</ele>
        <time>2021-10-28 12:57:24</time>
      </trkpt>
      <trkpt lat="43.28345" lon="-3.20326">
        <ele>535.4</ele>
        <time>2021-10-28 12:57:25</time>
      </trkpt>
      <trkpt lat="43.28343" lon="-3.2033">
        <ele>535.4</ele>
        <time>2021-10-28 12:57:26</time>
      </trkpt>
      <trkpt lat="43.28342" lon="-3.20333">
        <ele>535.4</ele>
        <time>2021-10-28 12:57:27</time>
      </trkpt>
      <trkpt lat="43.28328" lon="-3.20356">
        <ele>535.6</ele>
        <time>2021-10-28 12:57:28</time>
      </trkpt>
      <trkpt lat="43.28328" lon="-3.20356">
        <ele>535.6</ele>
        <time>2021-10-28 12:57:29</time>
      </trkpt>
      <trkpt lat="43.28326" lon="-3.20357">
        <ele>535.8</ele>
        <time>2021-10-28 12:57:30</time>
      </trkpt>
      <trkpt lat="43.28324" lon="-3.2036">
        <ele>535.8</ele>
        <time>2021-10-28 12:57:31</time>
      </trkpt>
      <trkpt lat="43.28322" lon="-3.20365">
        <ele>536</ele>
        <time>2021-10-28 12:57:32</time>
      </trkpt>
      <trkpt lat="43.28322" lon="-3.20365">
        <ele>536</ele>
        <time>2021-10-28 12:57:33</time>
      </trkpt>
      <trkpt lat="43.28315" lon="-3.20365">
        <ele>536</ele>
        <time>2021-10-28 12:57:34</time>
      </trkpt>
      <trkpt lat="43.28315" lon="-3.20365">
        <ele>536</ele>
        <time>2021-10-28 12:57:35</time>
      </trkpt>
      <trkpt lat="43.28315" lon="-3.20366">
        <ele>536.2</ele>
        <time>2021-10-28 12:57:36</time>
      </trkpt>
      <trkpt lat="43.28316" lon="-3.20369">
        <ele>536.2</ele>
        <time>2021-10-28 12:57:37</time>
      </trkpt>
      <trkpt lat="43.28311" lon="-3.20374">
        <ele>536.4</ele>
        <time>2021-10-28 12:57:38</time>
      </trkpt>
      <trkpt lat="43.28311" lon="-3.20374">
        <ele>536.4</ele>
        <time>2021-10-28 12:57:39</time>
      </trkpt>
      <trkpt lat="43.2831" lon="-3.20374">
        <ele>536.4</ele>
        <time>2021-10-28 12:57:40</time>
      </trkpt>
      <trkpt lat="43.2831" lon="-3.20377">
        <ele>536.6</ele>
        <time>2021-10-28 12:57:41</time>
      </trkpt>
      <trkpt lat="43.2831" lon="-3.20377">
        <ele>536.6</ele>
        <time>2021-10-28 12:57:42</time>
      </trkpt>
      <trkpt lat="43.28307" lon="-3.20382">
        <ele>536.8</ele>
        <time>2021-10-28 12:57:43</time>
      </trkpt>
      <trkpt lat="43.28307" lon="-3.20382">
        <ele>536.8</ele>
        <time>2021-10-28 12:57:44</time>
      </trkpt>
      <trkpt lat="43.28301" lon="-3.20388">
        <ele>536.8</ele>
        <time>2021-10-28 12:57:45</time>
      </trkpt>
      <trkpt lat="43.28301" lon="-3.20388">
        <ele>537</ele>
        <time>2021-10-28 12:57:46</time>
      </trkpt>
      <trkpt lat="43.28297" lon="-3.20391">
        <ele>537</ele>
        <time>2021-10-28 12:57:47</time>
      </trkpt>
      <trkpt lat="43.28291" lon="-3.20396">
        <ele>537.2</ele>
        <time>2021-10-28 12:57:48</time>
      </trkpt>
      <trkpt lat="43.28291" lon="-3.20396">
        <ele>537.4</ele>
        <time>2021-10-28 12:57:56</time>
      </trkpt>
      <trkpt lat="43.28291" lon="-3.20396">
        <ele>537.4</ele>
        <time>2021-10-28 12:57:57</time>
      </trkpt>
      <trkpt lat="43.28282" lon="-3.20397">
        <ele>537.4</ele>
        <time>2021-10-28 12:57:58</time>
      </trkpt>
      <trkpt lat="43.28282" lon="-3.20397">
        <ele>537.4</ele>
        <time>2021-10-28 12:57:59</time>
      </trkpt>
      <trkpt lat="43.2828" lon="-3.20397">
        <ele>537.6</ele>
        <time>2021-10-28 12:58:00</time>
      </trkpt>
      <trkpt lat="43.28271" lon="-3.20396">
        <ele>537.6</ele>
        <time>2021-10-28 12:58:01</time>
      </trkpt>
      <trkpt lat="43.28271" lon="-3.20396">
        <ele>537.8</ele>
        <time>2021-10-28 12:58:02</time>
      </trkpt>
      <trkpt lat="43.28271" lon="-3.20396">
        <ele>537.8</ele>
        <time>2021-10-28 12:58:03</time>
      </trkpt>
      <trkpt lat="43.28262" lon="-3.20391">
        <ele>538</ele>
        <time>2021-10-28 12:58:04</time>
      </trkpt>
      <trkpt lat="43.28257" lon="-3.20393">
        <ele>538</ele>
        <time>2021-10-28 12:58:05</time>
      </trkpt>
      <trkpt lat="43.28257" lon="-3.20393">
        <ele>538.2</ele>
        <time>2021-10-28 12:58:06</time>
      </trkpt>
      <trkpt lat="43.28257" lon="-3.20393">
        <ele>538.2</ele>
        <time>2021-10-28 12:58:07</time>
      </trkpt>
      <trkpt lat="43.2825" lon="-3.20388">
        <ele>538.4</ele>
        <time>2021-10-28 12:58:08</time>
      </trkpt>
      <trkpt lat="43.28246" lon="-3.20385">
        <ele>538.4</ele>
        <time>2021-10-28 12:58:09</time>
      </trkpt>
      <trkpt lat="43.28245" lon="-3.20384">
        <ele>538.4</ele>
        <time>2021-10-28 12:58:10</time>
      </trkpt>
      <trkpt lat="43.28241" lon="-3.20388">
        <ele>538.4</ele>
        <time>2021-10-28 12:58:11</time>
      </trkpt>
      <trkpt lat="43.28241" lon="-3.20388">
        <ele>538.6</ele>
        <time>2021-10-28 12:58:12</time>
      </trkpt>
      <trkpt lat="43.28238" lon="-3.20386">
        <ele>538.6</ele>
        <time>2021-10-28 12:58:13</time>
      </trkpt>
      <trkpt lat="43.28241" lon="-3.20384">
        <ele>538.8</ele>
        <time>2021-10-28 12:58:14</time>
      </trkpt>
      <trkpt lat="43.28237" lon="-3.20383">
        <ele>538.8</ele>
        <time>2021-10-28 12:58:15</time>
      </trkpt>
      <trkpt lat="43.28233" lon="-3.20381">
        <ele>538.8</ele>
        <time>2021-10-28 12:58:16</time>
      </trkpt>
      <trkpt lat="43.28233" lon="-3.20381">
        <ele>538.8</ele>
        <time>2021-10-28 12:58:17</time>
      </trkpt>
      <trkpt lat="43.28227" lon="-3.20384">
        <ele>538.8</ele>
        <time>2021-10-28 12:58:18</time>
      </trkpt>
      <trkpt lat="43.28225" lon="-3.20384">
        <ele>538.8</ele>
        <time>2021-10-28 12:58:19</time>
      </trkpt>
      <trkpt lat="43.28225" lon="-3.20384">
        <ele>539</ele>
        <time>2021-10-28 12:58:20</time>
      </trkpt>
      <trkpt lat="43.28216" lon="-3.20383">
        <ele>539</ele>
        <time>2021-10-28 12:58:21</time>
      </trkpt>
      <trkpt lat="43.28212" lon="-3.20381">
        <ele>539</ele>
        <time>2021-10-28 12:58:22</time>
      </trkpt>
      <trkpt lat="43.28212" lon="-3.20381">
        <ele>539</ele>
        <time>2021-10-28 12:58:23</time>
      </trkpt>
      <trkpt lat="43.28211" lon="-3.20377">
        <ele>539</ele>
        <time>2021-10-28 12:58:24</time>
      </trkpt>
      <trkpt lat="43.28203" lon="-3.20376">
        <ele>539</ele>
        <time>2021-10-28 12:58:25</time>
      </trkpt>
      <trkpt lat="43.28203" lon="-3.20376">
        <ele>539</ele>
        <time>2021-10-28 12:58:26</time>
      </trkpt>
      <trkpt lat="43.28198" lon="-3.20375">
        <ele>539</ele>
        <time>2021-10-28 12:58:27</time>
      </trkpt>
      <trkpt lat="43.28198" lon="-3.20375">
        <ele>539.2</ele>
        <time>2021-10-28 12:58:28</time>
      </trkpt>
      <trkpt lat="43.28198" lon="-3.20375">
        <ele>539.4</ele>
        <time>2021-10-28 12:58:29</time>
      </trkpt>
      <trkpt lat="43.28188" lon="-3.2037">
        <ele>539.6</ele>
        <time>2021-10-28 12:58:30</time>
      </trkpt>
      <trkpt lat="43.28188" lon="-3.2037">
        <ele>539.6</ele>
        <time>2021-10-28 12:58:31</time>
      </trkpt>
      <trkpt lat="43.28179" lon="-3.20364">
        <ele>539.6</ele>
        <time>2021-10-28 12:58:32</time>
      </trkpt>
      <trkpt lat="43.28179" lon="-3.20364">
        <ele>539.8</ele>
        <time>2021-10-28 12:58:33</time>
      </trkpt>
      <trkpt lat="43.28173" lon="-3.20356">
        <ele>539.8</ele>
        <time>2021-10-28 12:58:34</time>
      </trkpt>
      <trkpt lat="43.28173" lon="-3.20356">
        <ele>540</ele>
        <time>2021-10-28 12:58:35</time>
      </trkpt>
      <trkpt lat="43.28165" lon="-3.20353">
        <ele>540</ele>
        <time>2021-10-28 12:58:36</time>
      </trkpt>
      <trkpt lat="43.28165" lon="-3.20353">
        <ele>540.2</ele>
        <time>2021-10-28 12:58:37</time>
      </trkpt>
      <trkpt lat="43.28162" lon="-3.2035">
        <ele>540.4</ele>
        <time>2021-10-28 12:58:38</time>
      </trkpt>
      <trkpt lat="43.28162" lon="-3.20345">
        <ele>540.4</ele>
        <time>2021-10-28 12:58:39</time>
      </trkpt>
      <trkpt lat="43.28157" lon="-3.2034">
        <ele>540.6</ele>
        <time>2021-10-28 12:58:40</time>
      </trkpt>
      <trkpt lat="43.28155" lon="-3.20339">
        <ele>540.6</ele>
        <time>2021-10-28 12:58:41</time>
      </trkpt>
      <trkpt lat="43.28152" lon="-3.2034">
        <ele>540.8</ele>
        <time>2021-10-28 12:58:42</time>
      </trkpt>
      <trkpt lat="43.28152" lon="-3.2034">
        <ele>540.8</ele>
        <time>2021-10-28 12:58:43</time>
      </trkpt>
      <trkpt lat="43.28149" lon="-3.2034">
        <ele>541</ele>
        <time>2021-10-28 12:58:44</time>
      </trkpt>
      <trkpt lat="43.28145" lon="-3.20338">
        <ele>541.2</ele>
        <time>2021-10-28 12:58:45</time>
      </trkpt>
      <trkpt lat="43.2814" lon="-3.20334">
        <ele>541.4</ele>
        <time>2021-10-28 12:58:46</time>
      </trkpt>
      <trkpt lat="43.2814" lon="-3.20334">
        <ele>541.4</ele>
        <time>2021-10-28 12:58:47</time>
      </trkpt>
      <trkpt lat="43.28137" lon="-3.20332">
        <ele>541.6</ele>
        <time>2021-10-28 12:58:48</time>
      </trkpt>
      <trkpt lat="43.28133" lon="-3.20331">
        <ele>541.6</ele>
        <time>2021-10-28 12:58:49</time>
      </trkpt>
      <trkpt lat="43.2813" lon="-3.20333">
        <ele>541.6</ele>
        <time>2021-10-28 12:58:50</time>
      </trkpt>
      <trkpt lat="43.28124" lon="-3.20333">
        <ele>541.6</ele>
        <time>2021-10-28 12:58:51</time>
      </trkpt>
      <trkpt lat="43.28121" lon="-3.20332">
        <ele>541.8</ele>
        <time>2021-10-28 12:58:52</time>
      </trkpt>
      <trkpt lat="43.28121" lon="-3.20332">
        <ele>541.8</ele>
        <time>2021-10-28 12:58:53</time>
      </trkpt>
      <trkpt lat="43.28119" lon="-3.2033">
        <ele>542</ele>
        <time>2021-10-28 12:58:54</time>
      </trkpt>
      <trkpt lat="43.28114" lon="-3.20328">
        <ele>542</ele>
        <time>2021-10-28 12:58:55</time>
      </trkpt>
      <trkpt lat="43.28114" lon="-3.20328">
        <ele>542</ele>
        <time>2021-10-28 12:58:56</time>
      </trkpt>
      <trkpt lat="43.2811" lon="-3.20328">
        <ele>542.2</ele>
        <time>2021-10-28 12:58:57</time>
      </trkpt>
      <trkpt lat="43.2811" lon="-3.20328">
        <ele>542.2</ele>
        <time>2021-10-28 12:58:58</time>
      </trkpt>
      <trkpt lat="43.28107" lon="-3.20327">
        <ele>542.2</ele>
        <time>2021-10-28 12:58:59</time>
      </trkpt>
      <trkpt lat="43.28096" lon="-3.20327">
        <ele>542.4</ele>
        <time>2021-10-28 12:59:00</time>
      </trkpt>
      <trkpt lat="43.28095" lon="-3.20326">
        <ele>542.4</ele>
        <time>2021-10-28 12:59:01</time>
      </trkpt>
      <trkpt lat="43.28095" lon="-3.20326">
        <ele>542.6</ele>
        <time>2021-10-28 12:59:02</time>
      </trkpt>
      <trkpt lat="43.28095" lon="-3.20326">
        <ele>542.6</ele>
        <time>2021-10-28 12:59:03</time>
      </trkpt>
      <trkpt lat="43.28086" lon="-3.20321">
        <ele>542.6</ele>
        <time>2021-10-28 12:59:04</time>
      </trkpt>
      <trkpt lat="43.28086" lon="-3.20321">
        <ele>542.8</ele>
        <time>2021-10-28 12:59:05</time>
      </trkpt>
      <trkpt lat="43.28079" lon="-3.20318">
        <ele>542.8</ele>
        <time>2021-10-28 12:59:06</time>
      </trkpt>
      <trkpt lat="43.28079" lon="-3.20318">
        <ele>542.8</ele>
        <time>2021-10-28 12:59:07</time>
      </trkpt>
      <trkpt lat="43.28074" lon="-3.20319">
        <ele>543</ele>
        <time>2021-10-28 12:59:08</time>
      </trkpt>
      <trkpt lat="43.28072" lon="-3.20319">
        <ele>543</ele>
        <time>2021-10-28 12:59:09</time>
      </trkpt>
      <trkpt lat="43.28069" lon="-3.20317">
        <ele>543</ele>
        <time>2021-10-28 12:59:10</time>
      </trkpt>
      <trkpt lat="43.28063" lon="-3.20311">
        <ele>543.2</ele>
        <time>2021-10-28 12:59:11</time>
      </trkpt>
      <trkpt lat="43.28057" lon="-3.20307">
        <ele>543.2</ele>
        <time>2021-10-28 12:59:12</time>
      </trkpt>
      <trkpt lat="43.28057" lon="-3.20307">
        <ele>543.2</ele>
        <time>2021-10-28 12:59:13</time>
      </trkpt>
      <trkpt lat="43.28055" lon="-3.20306">
        <ele>543.2</ele>
        <time>2021-10-28 12:59:14</time>
      </trkpt>
      <trkpt lat="43.28054" lon="-3.20305">
        <ele>543.4</ele>
        <time>2021-10-28 12:59:15</time>
      </trkpt>
      <trkpt lat="43.28049" lon="-3.20302">
        <ele>543.4</ele>
        <time>2021-10-28 12:59:16</time>
      </trkpt>
      <trkpt lat="43.2804" lon="-3.203">
        <ele>543.4</ele>
        <time>2021-10-28 12:59:17</time>
      </trkpt>
      <trkpt lat="43.28035" lon="-3.203">
        <ele>543.4</ele>
        <time>2021-10-28 12:59:18</time>
      </trkpt>
      <trkpt lat="43.28035" lon="-3.203">
        <ele>543.6</ele>
        <time>2021-10-28 12:59:19</time>
      </trkpt>
      <trkpt lat="43.28035" lon="-3.203">
        <ele>543.6</ele>
        <time>2021-10-28 12:59:20</time>
      </trkpt>
      <trkpt lat="43.28026" lon="-3.2029">
        <ele>543.6</ele>
        <time>2021-10-28 12:59:21</time>
      </trkpt>
      <trkpt lat="43.28026" lon="-3.2029">
        <ele>543.8</ele>
        <time>2021-10-28 12:59:22</time>
      </trkpt>
      <trkpt lat="43.28026" lon="-3.2029">
        <ele>543.8</ele>
        <time>2021-10-28 12:59:23</time>
      </trkpt>
      <trkpt lat="43.2802" lon="-3.20281">
        <ele>544</ele>
        <time>2021-10-28 12:59:24</time>
      </trkpt>
      <trkpt lat="43.28018" lon="-3.2028">
        <ele>544</ele>
        <time>2021-10-28 12:59:25</time>
      </trkpt>
      <trkpt lat="43.28018" lon="-3.2028">
        <ele>544</ele>
        <time>2021-10-28 12:59:26</time>
      </trkpt>
      <trkpt lat="43.28013" lon="-3.20271">
        <ele>544.2</ele>
        <time>2021-10-28 12:59:27</time>
      </trkpt>
      <trkpt lat="43.28013" lon="-3.20271">
        <ele>544.4</ele>
        <time>2021-10-28 12:59:28</time>
      </trkpt>
      <trkpt lat="43.28008" lon="-3.20272">
        <ele>544.4</ele>
        <time>2021-10-28 12:59:29</time>
      </trkpt>
      <trkpt lat="43.28004" lon="-3.20271">
        <ele>544.6</ele>
        <time>2021-10-28 12:59:30</time>
      </trkpt>
      <trkpt lat="43.27998" lon="-3.2027">
        <ele>544.6</ele>
        <time>2021-10-28 12:59:31</time>
      </trkpt>
      <trkpt lat="43.27995" lon="-3.20268">
        <ele>544.8</ele>
        <time>2021-10-28 12:59:32</time>
      </trkpt>
      <trkpt lat="43.27995" lon="-3.20268">
        <ele>544.8</ele>
        <time>2021-10-28 12:59:33</time>
      </trkpt>
      <trkpt lat="43.27994" lon="-3.20267">
        <ele>544.8</ele>
        <time>2021-10-28 12:59:34</time>
      </trkpt>
      <trkpt lat="43.27986" lon="-3.20266">
        <ele>545</ele>
        <time>2021-10-28 12:59:35</time>
      </trkpt>
      <trkpt lat="43.27986" lon="-3.20266">
        <ele>545</ele>
        <time>2021-10-28 12:59:36</time>
      </trkpt>
      <trkpt lat="43.27976" lon="-3.20266">
        <ele>545</ele>
        <time>2021-10-28 12:59:37</time>
      </trkpt>
      <trkpt lat="43.27976" lon="-3.20266">
        <ele>545.2</ele>
        <time>2021-10-28 12:59:38</time>
      </trkpt>
      <trkpt lat="43.27971" lon="-3.20265">
        <ele>545.2</ele>
        <time>2021-10-28 12:59:39</time>
      </trkpt>
      <trkpt lat="43.27971" lon="-3.20265">
        <ele>545.4</ele>
        <time>2021-10-28 12:59:40</time>
      </trkpt>
      <trkpt lat="43.27969" lon="-3.20266">
        <ele>545.4</ele>
        <time>2021-10-28 12:59:41</time>
      </trkpt>
      <trkpt lat="43.27962" lon="-3.20264">
        <ele>545.4</ele>
        <time>2021-10-28 12:59:42</time>
      </trkpt>
      <trkpt lat="43.2796" lon="-3.20263">
        <ele>545.6</ele>
        <time>2021-10-28 12:59:43</time>
      </trkpt>
      <trkpt lat="43.2796" lon="-3.20263">
        <ele>545.6</ele>
        <time>2021-10-28 12:59:44</time>
      </trkpt>
      <trkpt lat="43.27957" lon="-3.20264">
        <ele>545.8</ele>
        <time>2021-10-28 12:59:45</time>
      </trkpt>
      <trkpt lat="43.27956" lon="-3.20264">
        <ele>546</ele>
        <time>2021-10-28 12:59:46</time>
      </trkpt>
      <trkpt lat="43.27954" lon="-3.20265">
        <ele>546.4</ele>
        <time>2021-10-28 12:59:47</time>
      </trkpt>
      <trkpt lat="43.27951" lon="-3.20265">
        <ele>546.4</ele>
        <time>2021-10-28 12:59:48</time>
      </trkpt>
      <trkpt lat="43.27946" lon="-3.20267">
        <ele>546.6</ele>
        <time>2021-10-28 12:59:49</time>
      </trkpt>
      <trkpt lat="43.27946" lon="-3.20267">
        <ele>546.8</ele>
        <time>2021-10-28 12:59:50</time>
      </trkpt>
      <trkpt lat="43.27946" lon="-3.20267">
        <ele>546.8</ele>
        <time>2021-10-28 12:59:51</time>
      </trkpt>
      <trkpt lat="43.2794" lon="-3.20271">
        <ele>546.8</ele>
        <time>2021-10-28 12:59:52</time>
      </trkpt>
      <trkpt lat="43.2794" lon="-3.20271">
        <ele>547</ele>
        <time>2021-10-28 12:59:53</time>
      </trkpt>
      <trkpt lat="43.27939" lon="-3.20272">
        <ele>547</ele>
        <time>2021-10-28 12:59:54</time>
      </trkpt>
      <trkpt lat="43.27937" lon="-3.20275">
        <ele>547.2</ele>
        <time>2021-10-28 12:59:55</time>
      </trkpt>
      <trkpt lat="43.27933" lon="-3.20282">
        <ele>547.2</ele>
        <time>2021-10-28 12:59:56</time>
      </trkpt>
      <trkpt lat="43.27933" lon="-3.20282">
        <ele>547.2</ele>
        <time>2021-10-28 12:59:57</time>
      </trkpt>
      <trkpt lat="43.2793" lon="-3.20287">
        <ele>547.4</ele>
        <time>2021-10-28 12:59:58</time>
      </trkpt>
      <trkpt lat="43.27927" lon="-3.20293">
        <ele>547.4</ele>
        <time>2021-10-28 12:59:59</time>
      </trkpt>
      <trkpt lat="43.27922" lon="-3.20302">
        <ele>547.4</ele>
        <time>2021-10-28 13:00:00</time>
      </trkpt>
      <trkpt lat="43.27922" lon="-3.20302">
        <ele>547.4</ele>
        <time>2021-10-28 13:00:01</time>
      </trkpt>
      <trkpt lat="43.27919" lon="-3.2031">
        <ele>547.4</ele>
        <time>2021-10-28 13:00:02</time>
      </trkpt>
      <trkpt lat="43.27918" lon="-3.20316">
        <ele>547.4</ele>
        <time>2021-10-28 13:00:03</time>
      </trkpt>
      <trkpt lat="43.27918" lon="-3.20316">
        <ele>547.4</ele>
        <time>2021-10-28 13:00:04</time>
      </trkpt>
      <trkpt lat="43.27917" lon="-3.20318">
        <ele>547.4</ele>
        <time>2021-10-28 13:00:05</time>
      </trkpt>
      <trkpt lat="43.27915" lon="-3.20318">
        <ele>547.4</ele>
        <time>2021-10-28 13:00:06</time>
      </trkpt>
      <trkpt lat="43.27913" lon="-3.20321">
        <ele>547.4</ele>
        <time>2021-10-28 13:00:07</time>
      </trkpt>
      <trkpt lat="43.27912" lon="-3.20324">
        <ele>547.4</ele>
        <time>2021-10-28 13:00:08</time>
      </trkpt>
      <trkpt lat="43.27911" lon="-3.20327">
        <ele>547.4</ele>
        <time>2021-10-28 13:00:09</time>
      </trkpt>
      <trkpt lat="43.27909" lon="-3.20332">
        <ele>547.6</ele>
        <time>2021-10-28 13:00:10</time>
      </trkpt>
      <trkpt lat="43.27906" lon="-3.20337">
        <ele>547.6</ele>
        <time>2021-10-28 13:00:11</time>
      </trkpt>
      <trkpt lat="43.27901" lon="-3.20341">
        <ele>547.6</ele>
        <time>2021-10-28 13:00:12</time>
      </trkpt>
      <trkpt lat="43.27901" lon="-3.20341">
        <ele>547.6</ele>
        <time>2021-10-28 13:00:13</time>
      </trkpt>
      <trkpt lat="43.27896" lon="-3.20346">
        <ele>547.8</ele>
        <time>2021-10-28 13:00:14</time>
      </trkpt>
      <trkpt lat="43.27892" lon="-3.2035">
        <ele>547.8</ele>
        <time>2021-10-28 13:00:15</time>
      </trkpt>
      <trkpt lat="43.27889" lon="-3.20351">
        <ele>547.8</ele>
        <time>2021-10-28 13:00:16</time>
      </trkpt>
      <trkpt lat="43.27883" lon="-3.20359">
        <ele>548</ele>
        <time>2021-10-28 13:00:17</time>
      </trkpt>
      <trkpt lat="43.27883" lon="-3.20358">
        <ele>548.2</ele>
        <time>2021-10-28 13:00:18</time>
      </trkpt>
      <trkpt lat="43.27878" lon="-3.20363">
        <ele>548.2</ele>
        <time>2021-10-28 13:00:19</time>
      </trkpt>
      <trkpt lat="43.27878" lon="-3.20363">
        <ele>548.2</ele>
        <time>2021-10-28 13:00:20</time>
      </trkpt>
      <trkpt lat="43.27871" lon="-3.20365">
        <ele>548.4</ele>
        <time>2021-10-28 13:00:21</time>
      </trkpt>
      <trkpt lat="43.27871" lon="-3.20365">
        <ele>548.4</ele>
        <time>2021-10-28 13:00:22</time>
      </trkpt>
      <trkpt lat="43.27871" lon="-3.20365">
        <ele>548.4</ele>
        <time>2021-10-28 13:00:23</time>
      </trkpt>
      <trkpt lat="43.27871" lon="-3.20365">
        <ele>548.6</ele>
        <time>2021-10-28 13:00:24</time>
      </trkpt>
      <trkpt lat="43.27871" lon="-3.20365">
        <ele>548.6</ele>
        <time>2021-10-28 13:00:25</time>
      </trkpt>
      <trkpt lat="43.27871" lon="-3.20365">
        <ele>548.6</ele>
        <time>2021-10-28 13:00:26</time>
      </trkpt>
      <trkpt lat="43.27871" lon="-3.20365">
        <ele>548.6</ele>
        <time>2021-10-28 13:00:27</time>
      </trkpt>
      <trkpt lat="43.27852" lon="-3.20373">
        <ele>548.8</ele>
        <time>2021-10-28 13:00:28</time>
      </trkpt>
      <trkpt lat="43.27852" lon="-3.20373">
        <ele>548.8</ele>
        <time>2021-10-28 13:00:29</time>
      </trkpt>
      <trkpt lat="43.27852" lon="-3.20373">
        <ele>549</ele>
        <time>2021-10-28 13:00:30</time>
      </trkpt>
      <trkpt lat="43.27852" lon="-3.20373">
        <ele>549</ele>
        <time>2021-10-28 13:00:31</time>
      </trkpt>
      <trkpt lat="43.27852" lon="-3.20373">
        <ele>549.2</ele>
        <time>2021-10-28 13:00:32</time>
      </trkpt>
      <trkpt lat="43.27852" lon="-3.20373">
        <ele>549.2</ele>
        <time>2021-10-28 13:00:33</time>
      </trkpt>
      <trkpt lat="43.27852" lon="-3.20373">
        <ele>549.2</ele>
        <time>2021-10-28 13:00:34</time>
      </trkpt>
      <trkpt lat="43.27852" lon="-3.20373">
        <ele>549.4</ele>
        <time>2021-10-28 13:00:35</time>
      </trkpt>
      <trkpt lat="43.27803" lon="-3.20202">
        <ele>552.6</ele>
        <time>2021-10-28 13:00:36</time>
      </trkpt>
      <trkpt lat="43.27803" lon="-3.20202">
        <ele>552.6</ele>
        <time>2021-10-28 13:00:37</time>
      </trkpt>
      <trkpt lat="43.27802" lon="-3.20199">
        <ele>552.6</ele>
        <time>2021-10-28 13:00:38</time>
      </trkpt>
      <trkpt lat="43.27801" lon="-3.20195">
        <ele>552.6</ele>
        <time>2021-10-28 13:00:39</time>
      </trkpt>
      <trkpt lat="43.27797" lon="-3.20187">
        <ele>552.8</ele>
        <time>2021-10-28 13:00:40</time>
      </trkpt>
      <trkpt lat="43.27797" lon="-3.20187">
        <ele>552.6</ele>
        <time>2021-10-28 13:00:41</time>
      </trkpt>
      <trkpt lat="43.27791" lon="-3.20179">
        <ele>552.6</ele>
        <time>2021-10-28 13:00:42</time>
      </trkpt>
      <trkpt lat="43.27791" lon="-3.20179">
        <ele>552.6</ele>
        <time>2021-10-28 13:00:43</time>
      </trkpt>
      <trkpt lat="43.27787" lon="-3.20176">
        <ele>552.6</ele>
        <time>2021-10-28 13:00:44</time>
      </trkpt>
      <trkpt lat="43.27783" lon="-3.20169">
        <ele>552.6</ele>
        <time>2021-10-28 13:00:45</time>
      </trkpt>
      <trkpt lat="43.27783" lon="-3.20169">
        <ele>552.6</ele>
        <time>2021-10-28 13:00:46</time>
      </trkpt>
      <trkpt lat="43.2778" lon="-3.20166">
        <ele>552.8</ele>
        <time>2021-10-28 13:00:47</time>
      </trkpt>
      <trkpt lat="43.27778" lon="-3.20162">
        <ele>552.8</ele>
        <time>2021-10-28 13:00:48</time>
      </trkpt>
      <trkpt lat="43.27776" lon="-3.20159">
        <ele>552.8</ele>
        <time>2021-10-28 13:00:49</time>
      </trkpt>
      <trkpt lat="43.27773" lon="-3.20156">
        <ele>553</ele>
        <time>2021-10-28 13:00:50</time>
      </trkpt>
      <trkpt lat="43.27771" lon="-3.20154">
        <ele>553</ele>
        <time>2021-10-28 13:00:51</time>
      </trkpt>
      <trkpt lat="43.27769" lon="-3.20152">
        <ele>553.2</ele>
        <time>2021-10-28 13:00:52</time>
      </trkpt>
      <trkpt lat="43.27764" lon="-3.20147">
        <ele>553.2</ele>
        <time>2021-10-28 13:00:53</time>
      </trkpt>
      <trkpt lat="43.27764" lon="-3.20147">
        <ele>553.2</ele>
        <time>2021-10-28 13:00:54</time>
      </trkpt>
      <trkpt lat="43.2776" lon="-3.20143">
        <ele>553.4</ele>
        <time>2021-10-28 13:00:55</time>
      </trkpt>
      <trkpt lat="43.2776" lon="-3.20143">
        <ele>553.4</ele>
        <time>2021-10-28 13:00:56</time>
      </trkpt>
      <trkpt lat="43.27757" lon="-3.20141">
        <ele>553.4</ele>
        <time>2021-10-28 13:00:57</time>
      </trkpt>
      <trkpt lat="43.27754" lon="-3.2014">
        <ele>553.4</ele>
        <time>2021-10-28 13:00:58</time>
      </trkpt>
      <trkpt lat="43.27748" lon="-3.20137">
        <ele>553.2</ele>
        <time>2021-10-28 13:00:59</time>
      </trkpt>
      <trkpt lat="43.27748" lon="-3.20137">
        <ele>553.2</ele>
        <time>2021-10-28 13:01:00</time>
      </trkpt>
      <trkpt lat="43.27742" lon="-3.20132">
        <ele>553.2</ele>
        <time>2021-10-28 13:01:01</time>
      </trkpt>
      <trkpt lat="43.27742" lon="-3.20132">
        <ele>553.2</ele>
        <time>2021-10-28 13:02:01</time>
      </trkpt>
      <trkpt lat="43.27737" lon="-3.20127">
        <ele>553.2</ele>
        <time>2021-10-28 13:02:02</time>
      </trkpt>
      <trkpt lat="43.27734" lon="-3.20124">
        <ele>553.4</ele>
        <time>2021-10-28 13:02:03</time>
      </trkpt>
      <trkpt lat="43.27734" lon="-3.20124">
        <ele>553.4</ele>
        <time>2021-10-28 13:02:04</time>
      </trkpt>
      <trkpt lat="43.27731" lon="-3.20121">
        <ele>553.4</ele>
        <time>2021-10-28 13:02:05</time>
      </trkpt>
      <trkpt lat="43.27726" lon="-3.20115">
        <ele>553.6</ele>
        <time>2021-10-28 13:02:06</time>
      </trkpt>
      <trkpt lat="43.27726" lon="-3.20115">
        <ele>553.6</ele>
        <time>2021-10-28 13:02:07</time>
      </trkpt>
      <trkpt lat="43.27721" lon="-3.2011">
        <ele>553.8</ele>
        <time>2021-10-28 13:02:08</time>
      </trkpt>
      <trkpt lat="43.27721" lon="-3.2011">
        <ele>553.8</ele>
        <time>2021-10-28 13:02:09</time>
      </trkpt>
      <trkpt lat="43.2772" lon="-3.20109">
        <ele>554</ele>
        <time>2021-10-28 13:02:10</time>
      </trkpt>
      <trkpt lat="43.27716" lon="-3.20104">
        <ele>554.2</ele>
        <time>2021-10-28 13:02:11</time>
      </trkpt>
      <trkpt lat="43.27713" lon="-3.201">
        <ele>554.4</ele>
        <time>2021-10-28 13:02:12</time>
      </trkpt>
      <trkpt lat="43.27713" lon="-3.201">
        <ele>554.4</ele>
        <time>2021-10-28 13:02:13</time>
      </trkpt>
      <trkpt lat="43.27711" lon="-3.20097">
        <ele>554.4</ele>
        <time>2021-10-28 13:02:14</time>
      </trkpt>
      <trkpt lat="43.27706" lon="-3.20093">
        <ele>554.6</ele>
        <time>2021-10-28 13:02:15</time>
      </trkpt>
      <trkpt lat="43.27706" lon="-3.20093">
        <ele>554.6</ele>
        <time>2021-10-28 13:02:16</time>
      </trkpt>
      <trkpt lat="43.27703" lon="-3.2009">
        <ele>554.6</ele>
        <time>2021-10-28 13:02:17</time>
      </trkpt>
      <trkpt lat="43.27701" lon="-3.20088">
        <ele>554.6</ele>
        <time>2021-10-28 13:02:18</time>
      </trkpt>
      <trkpt lat="43.27696" lon="-3.20084">
        <ele>554.8</ele>
        <time>2021-10-28 13:02:19</time>
      </trkpt>
      <trkpt lat="43.27696" lon="-3.20084">
        <ele>554.8</ele>
        <time>2021-10-28 13:02:20</time>
      </trkpt>
      <trkpt lat="43.27691" lon="-3.20081">
        <ele>554.8</ele>
        <time>2021-10-28 13:02:21</time>
      </trkpt>
      <trkpt lat="43.27691" lon="-3.20081">
        <ele>554.8</ele>
        <time>2021-10-28 13:02:22</time>
      </trkpt>
      <trkpt lat="43.27686" lon="-3.20076">
        <ele>555</ele>
        <time>2021-10-28 13:02:23</time>
      </trkpt>
      <trkpt lat="43.27686" lon="-3.20076">
        <ele>555</ele>
        <time>2021-10-28 13:02:24</time>
      </trkpt>
      <trkpt lat="43.27684" lon="-3.20074">
        <ele>555.2</ele>
        <time>2021-10-28 13:02:25</time>
      </trkpt>
      <trkpt lat="43.27681" lon="-3.20072">
        <ele>555.4</ele>
        <time>2021-10-28 13:02:26</time>
      </trkpt>
      <trkpt lat="43.27678" lon="-3.20069">
        <ele>555.4</ele>
        <time>2021-10-28 13:02:27</time>
      </trkpt>
      <trkpt lat="43.27678" lon="-3.20069">
        <ele>555.4</ele>
        <time>2021-10-28 13:02:28</time>
      </trkpt>
      <trkpt lat="43.27675" lon="-3.20068">
        <ele>555.6</ele>
        <time>2021-10-28 13:02:29</time>
      </trkpt>
      <trkpt lat="43.27672" lon="-3.20067">
        <ele>555.8</ele>
        <time>2021-10-28 13:02:30</time>
      </trkpt>
      <trkpt lat="43.27668" lon="-3.20064">
        <ele>555.8</ele>
        <time>2021-10-28 13:02:31</time>
      </trkpt>
      <trkpt lat="43.27666" lon="-3.20063">
        <ele>556</ele>
        <time>2021-10-28 13:02:32</time>
      </trkpt>
      <trkpt lat="43.27666" lon="-3.20063">
        <ele>556</ele>
        <time>2021-10-28 13:02:33</time>
      </trkpt>
      <trkpt lat="43.27661" lon="-3.2006">
        <ele>556.2</ele>
        <time>2021-10-28 13:02:34</time>
      </trkpt>
      <trkpt lat="43.27661" lon="-3.2006">
        <ele>556.2</ele>
        <time>2021-10-28 13:02:35</time>
      </trkpt>
      <trkpt lat="43.27657" lon="-3.20057">
        <ele>556.4</ele>
        <time>2021-10-28 13:02:36</time>
      </trkpt>
      <trkpt lat="43.27657" lon="-3.20057">
        <ele>556.4</ele>
        <time>2021-10-28 13:02:37</time>
      </trkpt>
      <trkpt lat="43.27654" lon="-3.20056">
        <ele>556.4</ele>
        <time>2021-10-28 13:02:38</time>
      </trkpt>
      <trkpt lat="43.27652" lon="-3.20054">
        <ele>556.6</ele>
        <time>2021-10-28 13:02:39</time>
      </trkpt>
      <trkpt lat="43.27649" lon="-3.20052">
        <ele>556.6</ele>
        <time>2021-10-28 13:02:40</time>
      </trkpt>
      <trkpt lat="43.27647" lon="-3.20049">
        <ele>556.8</ele>
        <time>2021-10-28 13:02:41</time>
      </trkpt>
      <trkpt lat="43.27647" lon="-3.20049">
        <ele>556.8</ele>
        <time>2021-10-28 13:02:42</time>
      </trkpt>
      <trkpt lat="43.27646" lon="-3.20047">
        <ele>557</ele>
        <time>2021-10-28 13:02:43</time>
      </trkpt>
      <trkpt lat="43.27644" lon="-3.20043">
        <ele>557</ele>
        <time>2021-10-28 13:02:44</time>
      </trkpt>
      <trkpt lat="43.27644" lon="-3.20043">
        <ele>557.2</ele>
        <time>2021-10-28 13:02:45</time>
      </trkpt>
      <trkpt lat="43.2764" lon="-3.20034">
        <ele>557.2</ele>
        <time>2021-10-28 13:02:46</time>
      </trkpt>
      <trkpt lat="43.2764" lon="-3.20034">
        <ele>557.4</ele>
        <time>2021-10-28 13:02:47</time>
      </trkpt>
      <trkpt lat="43.27633" lon="-3.20026">
        <ele>557.4</ele>
        <time>2021-10-28 13:02:48</time>
      </trkpt>
      <trkpt lat="43.27633" lon="-3.20026">
        <ele>557.4</ele>
        <time>2021-10-28 13:02:49</time>
      </trkpt>
      <trkpt lat="43.27627" lon="-3.20016">
        <ele>557.4</ele>
        <time>2021-10-28 13:02:50</time>
      </trkpt>
      <trkpt lat="43.27627" lon="-3.20016">
        <ele>557.6</ele>
        <time>2021-10-28 13:02:51</time>
      </trkpt>
      <trkpt lat="43.27625" lon="-3.20006">
        <ele>557.6</ele>
        <time>2021-10-28 13:02:52</time>
      </trkpt>
      <trkpt lat="43.27625" lon="-3.20006">
        <ele>557.6</ele>
        <time>2021-10-28 13:02:53</time>
      </trkpt>
      <trkpt lat="43.27624" lon="-3.20001">
        <ele>557.6</ele>
        <time>2021-10-28 13:02:54</time>
      </trkpt>
      <trkpt lat="43.27624" lon="-3.1999">
        <ele>557.6</ele>
        <time>2021-10-28 13:02:55</time>
      </trkpt>
      <trkpt lat="43.27624" lon="-3.1999">
        <ele>557.6</ele>
        <time>2021-10-28 13:02:56</time>
      </trkpt>
      <trkpt lat="43.27623" lon="-3.19981">
        <ele>557.8</ele>
        <time>2021-10-28 13:02:57</time>
      </trkpt>
      <trkpt lat="43.27623" lon="-3.19981">
        <ele>557.8</ele>
        <time>2021-10-28 13:02:58</time>
      </trkpt>
      <trkpt lat="43.27623" lon="-3.19976">
        <ele>557.8</ele>
        <time>2021-10-28 13:02:59</time>
      </trkpt>
      <trkpt lat="43.27623" lon="-3.19973">
        <ele>557.8</ele>
        <time>2021-10-28 13:03:00</time>
      </trkpt>
      <trkpt lat="43.27622" lon="-3.19968">
        <ele>557.8</ele>
        <time>2021-10-28 13:03:01</time>
      </trkpt>
      <trkpt lat="43.27622" lon="-3.19964">
        <ele>558</ele>
        <time>2021-10-28 13:03:02</time>
      </trkpt>
      <trkpt lat="43.27624" lon="-3.19956">
        <ele>558.2</ele>
        <time>2021-10-28 13:03:03</time>
      </trkpt>
      <trkpt lat="43.27624" lon="-3.19956">
        <ele>558.4</ele>
        <time>2021-10-28 13:03:04</time>
      </trkpt>
      <trkpt lat="43.27623" lon="-3.19944">
        <ele>558.4</ele>
        <time>2021-10-28 13:03:05</time>
      </trkpt>
      <trkpt lat="43.27623" lon="-3.19944">
        <ele>558.2</ele>
        <time>2021-10-28 13:03:06</time>
      </trkpt>
      <trkpt lat="43.27624" lon="-3.19935">
        <ele>558</ele>
        <time>2021-10-28 13:03:07</time>
      </trkpt>
      <trkpt lat="43.27624" lon="-3.19935">
        <ele>558</ele>
        <time>2021-10-28 13:03:08</time>
      </trkpt>
      <trkpt lat="43.27624" lon="-3.19931">
        <ele>557.8</ele>
        <time>2021-10-28 13:03:09</time>
      </trkpt>
      <trkpt lat="43.27623" lon="-3.19927">
        <ele>557.8</ele>
        <time>2021-10-28 13:03:10</time>
      </trkpt>
      <trkpt lat="43.27623" lon="-3.19916">
        <ele>557.6</ele>
        <time>2021-10-28 13:03:11</time>
      </trkpt>
      <trkpt lat="43.27623" lon="-3.19916">
        <ele>557.6</ele>
        <time>2021-10-28 13:03:12</time>
      </trkpt>
      <trkpt lat="43.27619" lon="-3.19908">
        <ele>557.6</ele>
        <time>2021-10-28 13:03:13</time>
      </trkpt>
      <trkpt lat="43.27619" lon="-3.19908">
        <ele>557.6</ele>
        <time>2021-10-28 13:03:14</time>
      </trkpt>
      <trkpt lat="43.27617" lon="-3.19901">
        <ele>557.6</ele>
        <time>2021-10-28 13:03:15</time>
      </trkpt>
      <trkpt lat="43.27617" lon="-3.19901">
        <ele>557.8</ele>
        <time>2021-10-28 13:03:16</time>
      </trkpt>
      <trkpt lat="43.27613" lon="-3.19892">
        <ele>557.8</ele>
        <time>2021-10-28 13:03:17</time>
      </trkpt>
      <trkpt lat="43.27613" lon="-3.19892">
        <ele>557.6</ele>
        <time>2021-10-28 13:03:18</time>
      </trkpt>
      <trkpt lat="43.27608" lon="-3.19884">
        <ele>557.6</ele>
        <time>2021-10-28 13:03:19</time>
      </trkpt>
      <trkpt lat="43.27608" lon="-3.19884">
        <ele>557.6</ele>
        <time>2021-10-28 13:03:20</time>
      </trkpt>
      <trkpt lat="43.27601" lon="-3.19875">
        <ele>557.6</ele>
        <time>2021-10-28 13:03:21</time>
      </trkpt>
      <trkpt lat="43.27601" lon="-3.19875">
        <ele>557.6</ele>
        <time>2021-10-28 13:03:22</time>
      </trkpt>
      <trkpt lat="43.27595" lon="-3.19866">
        <ele>557.8</ele>
        <time>2021-10-28 13:03:23</time>
      </trkpt>
      <trkpt lat="43.27595" lon="-3.19866">
        <ele>557.8</ele>
        <time>2021-10-28 13:03:24</time>
      </trkpt>
      <trkpt lat="43.2759" lon="-3.19859">
        <ele>558</ele>
        <time>2021-10-28 13:03:25</time>
      </trkpt>
      <trkpt lat="43.2759" lon="-3.19859">
        <ele>558</ele>
        <time>2021-10-28 13:03:26</time>
      </trkpt>
      <trkpt lat="43.27584" lon="-3.19852">
        <ele>558</ele>
        <time>2021-10-28 13:03:27</time>
      </trkpt>
      <trkpt lat="43.27584" lon="-3.19852">
        <ele>558</ele>
        <time>2021-10-28 13:03:28</time>
      </trkpt>
      <trkpt lat="43.27578" lon="-3.19846">
        <ele>558</ele>
        <time>2021-10-28 13:03:29</time>
      </trkpt>
      <trkpt lat="43.27578" lon="-3.19846">
        <ele>558</ele>
        <time>2021-10-28 13:03:30</time>
      </trkpt>
      <trkpt lat="43.27573" lon="-3.1984">
        <ele>558.2</ele>
        <time>2021-10-28 13:03:31</time>
      </trkpt>
      <trkpt lat="43.27573" lon="-3.1984">
        <ele>558.2</ele>
        <time>2021-10-28 13:03:32</time>
      </trkpt>
      <trkpt lat="43.27568" lon="-3.19834">
        <ele>558.2</ele>
        <time>2021-10-28 13:03:33</time>
      </trkpt>
      <trkpt lat="43.27568" lon="-3.19834">
        <ele>558.2</ele>
        <time>2021-10-28 13:03:34</time>
      </trkpt>
      <trkpt lat="43.27563" lon="-3.19828">
        <ele>558.2</ele>
        <time>2021-10-28 13:03:35</time>
      </trkpt>
      <trkpt lat="43.27563" lon="-3.19828">
        <ele>558.2</ele>
        <time>2021-10-28 13:03:36</time>
      </trkpt>
      <trkpt lat="43.27557" lon="-3.19821">
        <ele>558</ele>
        <time>2021-10-28 13:03:37</time>
      </trkpt>
      <trkpt lat="43.27557" lon="-3.19821">
        <ele>558</ele>
        <time>2021-10-28 13:03:38</time>
      </trkpt>
      <trkpt lat="43.27551" lon="-3.19814">
        <ele>557.8</ele>
        <time>2021-10-28 13:03:39</time>
      </trkpt>
      <trkpt lat="43.27551" lon="-3.19814">
        <ele>557.8</ele>
        <time>2021-10-28 13:03:40</time>
      </trkpt>
      <trkpt lat="43.27545" lon="-3.19806">
        <ele>557.6</ele>
        <time>2021-10-28 13:03:41</time>
      </trkpt>
      <trkpt lat="43.27545" lon="-3.19806">
        <ele>557.6</ele>
        <time>2021-10-28 13:03:42</time>
      </trkpt>
      <trkpt lat="43.27538" lon="-3.19799">
        <ele>557.8</ele>
        <time>2021-10-28 13:03:43</time>
      </trkpt>
      <trkpt lat="43.27538" lon="-3.19799">
        <ele>557.8</ele>
        <time>2021-10-28 13:03:44</time>
      </trkpt>
      <trkpt lat="43.27536" lon="-3.19795">
        <ele>557.6</ele>
        <time>2021-10-28 13:03:45</time>
      </trkpt>
      <trkpt lat="43.27531" lon="-3.19789">
        <ele>557.6</ele>
        <time>2021-10-28 13:03:46</time>
      </trkpt>
      <trkpt lat="43.27531" lon="-3.19789">
        <ele>557.4</ele>
        <time>2021-10-28 13:03:47</time>
      </trkpt>
      <trkpt lat="43.27525" lon="-3.19782">
        <ele>557.2</ele>
        <time>2021-10-28 13:03:48</time>
      </trkpt>
      <trkpt lat="43.27525" lon="-3.19782">
        <ele>557.2</ele>
        <time>2021-10-28 13:03:49</time>
      </trkpt>
      <trkpt lat="43.27522" lon="-3.19779">
        <ele>557.2</ele>
        <time>2021-10-28 13:03:50</time>
      </trkpt>
      <trkpt lat="43.27515" lon="-3.19772">
        <ele>557.2</ele>
        <time>2021-10-28 13:03:51</time>
      </trkpt>
      <trkpt lat="43.27515" lon="-3.19772">
        <ele>557.2</ele>
        <time>2021-10-28 13:03:52</time>
      </trkpt>
      <trkpt lat="43.27512" lon="-3.19768">
        <ele>557.2</ele>
        <time>2021-10-28 13:03:53</time>
      </trkpt>
      <trkpt lat="43.27503" lon="-3.19763">
        <ele>557.2</ele>
        <time>2021-10-28 13:03:54</time>
      </trkpt>
      <trkpt lat="43.27503" lon="-3.19763">
        <ele>557</ele>
        <time>2021-10-28 13:03:55</time>
      </trkpt>
      <trkpt lat="43.27499" lon="-3.1976">
        <ele>557</ele>
        <time>2021-10-28 13:03:56</time>
      </trkpt>
      <trkpt lat="43.27494" lon="-3.19758">
        <ele>556.8</ele>
        <time>2021-10-28 13:03:57</time>
      </trkpt>
      <trkpt lat="43.27489" lon="-3.19756">
        <ele>556.8</ele>
        <time>2021-10-28 13:03:58</time>
      </trkpt>
      <trkpt lat="43.27485" lon="-3.19753">
        <ele>556.8</ele>
        <time>2021-10-28 13:03:59</time>
      </trkpt>
      <trkpt lat="43.27476" lon="-3.19751">
        <ele>557</ele>
        <time>2021-10-28 13:04:00</time>
      </trkpt>
      <trkpt lat="43.27476" lon="-3.19751">
        <ele>557</ele>
        <time>2021-10-28 13:04:01</time>
      </trkpt>
      <trkpt lat="43.27467" lon="-3.1975">
        <ele>557</ele>
        <time>2021-10-28 13:04:02</time>
      </trkpt>
      <trkpt lat="43.27467" lon="-3.1975">
        <ele>557</ele>
        <time>2021-10-28 13:04:03</time>
      </trkpt>
      <trkpt lat="43.27462" lon="-3.1975">
        <ele>556.8</ele>
        <time>2021-10-28 13:04:04</time>
      </trkpt>
      <trkpt lat="43.27458" lon="-3.19751">
        <ele>556.8</ele>
        <time>2021-10-28 13:04:05</time>
      </trkpt>
      <trkpt lat="43.27454" lon="-3.19751">
        <ele>556.8</ele>
        <time>2021-10-28 13:04:06</time>
      </trkpt>
      <trkpt lat="43.2745" lon="-3.19752">
        <ele>557</ele>
        <time>2021-10-28 13:04:07</time>
      </trkpt>
      <trkpt lat="43.27442" lon="-3.19755">
        <ele>557</ele>
        <time>2021-10-28 13:04:08</time>
      </trkpt>
      <trkpt lat="43.27442" lon="-3.19755">
        <ele>557</ele>
        <time>2021-10-28 13:04:09</time>
      </trkpt>
      <trkpt lat="43.27437" lon="-3.19756">
        <ele>557</ele>
        <time>2021-10-28 13:04:10</time>
      </trkpt>
      <trkpt lat="43.27429" lon="-3.19759">
        <ele>557.2</ele>
        <time>2021-10-28 13:04:11</time>
      </trkpt>
      <trkpt lat="43.27429" lon="-3.19759">
        <ele>557.4</ele>
        <time>2021-10-28 13:04:12</time>
      </trkpt>
      <trkpt lat="43.27421" lon="-3.19762">
        <ele>557.6</ele>
        <time>2021-10-28 13:04:13</time>
      </trkpt>
      <trkpt lat="43.27421" lon="-3.19762">
        <ele>557.8</ele>
        <time>2021-10-28 13:04:14</time>
      </trkpt>
      <trkpt lat="43.27414" lon="-3.19765">
        <ele>558</ele>
        <time>2021-10-28 13:04:15</time>
      </trkpt>
      <trkpt lat="43.27414" lon="-3.19765">
        <ele>558</ele>
        <time>2021-10-28 13:04:16</time>
      </trkpt>
      <trkpt lat="43.2741" lon="-3.19767">
        <ele>558</ele>
        <time>2021-10-28 13:04:17</time>
      </trkpt>
      <trkpt lat="43.27402" lon="-3.19769">
        <ele>558</ele>
        <time>2021-10-28 13:04:18</time>
      </trkpt>
      <trkpt lat="43.27402" lon="-3.19769">
        <ele>558</ele>
        <time>2021-10-28 13:04:19</time>
      </trkpt>
      <trkpt lat="43.27398" lon="-3.19771">
        <ele>558</ele>
        <time>2021-10-28 13:04:20</time>
      </trkpt>
      <trkpt lat="43.2739" lon="-3.19773">
        <ele>558</ele>
        <time>2021-10-28 13:04:21</time>
      </trkpt>
      <trkpt lat="43.2739" lon="-3.19773">
        <ele>558</ele>
        <time>2021-10-28 13:04:22</time>
      </trkpt>
      <trkpt lat="43.27386" lon="-3.19775">
        <ele>558</ele>
        <time>2021-10-28 13:04:23</time>
      </trkpt>
      <trkpt lat="43.27379" lon="-3.19779">
        <ele>558</ele>
        <time>2021-10-28 13:04:24</time>
      </trkpt>
      <trkpt lat="43.27379" lon="-3.19779">
        <ele>558</ele>
        <time>2021-10-28 13:04:25</time>
      </trkpt>
      <trkpt lat="43.27373" lon="-3.19782">
        <ele>558</ele>
        <time>2021-10-28 13:04:26</time>
      </trkpt>
      <trkpt lat="43.27373" lon="-3.19782">
        <ele>558.2</ele>
        <time>2021-10-28 13:04:27</time>
      </trkpt>
      <trkpt lat="43.27365" lon="-3.19786">
        <ele>558.2</ele>
        <time>2021-10-28 13:04:28</time>
      </trkpt>
      <trkpt lat="43.27365" lon="-3.19786">
        <ele>558.4</ele>
        <time>2021-10-28 13:04:29</time>
      </trkpt>
      <trkpt lat="43.27363" lon="-3.19789">
        <ele>558.6</ele>
        <time>2021-10-28 13:04:30</time>
      </trkpt>
      <trkpt lat="43.27355" lon="-3.19792">
        <ele>558.8</ele>
        <time>2021-10-28 13:04:31</time>
      </trkpt>
      <trkpt lat="43.27355" lon="-3.19792">
        <ele>558.8</ele>
        <time>2021-10-28 13:04:32</time>
      </trkpt>
      <trkpt lat="43.27348" lon="-3.19796">
        <ele>559</ele>
        <time>2021-10-28 13:04:33</time>
      </trkpt>
      <trkpt lat="43.27348" lon="-3.19796">
        <ele>559</ele>
        <time>2021-10-28 13:04:34</time>
      </trkpt>
      <trkpt lat="43.27344" lon="-3.19798">
        <ele>559</ele>
        <time>2021-10-28 13:04:35</time>
      </trkpt>
      <trkpt lat="43.27337" lon="-3.19801">
        <ele>559</ele>
        <time>2021-10-28 13:04:36</time>
      </trkpt>
      <trkpt lat="43.27337" lon="-3.19801">
        <ele>559</ele>
        <time>2021-10-28 13:04:37</time>
      </trkpt>
      <trkpt lat="43.2733" lon="-3.19804">
        <ele>558.8</ele>
        <time>2021-10-28 13:04:38</time>
      </trkpt>
      <trkpt lat="43.2733" lon="-3.19804">
        <ele>558.8</ele>
        <time>2021-10-28 13:04:39</time>
      </trkpt>
      <trkpt lat="43.27321" lon="-3.19806">
        <ele>558.6</ele>
        <time>2021-10-28 13:04:40</time>
      </trkpt>
      <trkpt lat="43.27321" lon="-3.19806">
        <ele>558.6</ele>
        <time>2021-10-28 13:04:41</time>
      </trkpt>
      <trkpt lat="43.27314" lon="-3.19811">
        <ele>558.6</ele>
        <time>2021-10-28 13:04:42</time>
      </trkpt>
      <trkpt lat="43.27314" lon="-3.19811">
        <ele>558.8</ele>
        <time>2021-10-28 13:04:43</time>
      </trkpt>
      <trkpt lat="43.27308" lon="-3.19816">
        <ele>558.8</ele>
        <time>2021-10-28 13:04:44</time>
      </trkpt>
      <trkpt lat="43.27308" lon="-3.19816">
        <ele>558.8</ele>
        <time>2021-10-28 13:04:45</time>
      </trkpt>
      <trkpt lat="43.27304" lon="-3.19819">
        <ele>558.8</ele>
        <time>2021-10-28 13:04:46</time>
      </trkpt>
      <trkpt lat="43.27299" lon="-3.19825">
        <ele>558.6</ele>
        <time>2021-10-28 13:04:47</time>
      </trkpt>
      <trkpt lat="43.27299" lon="-3.19825">
        <ele>558.6</ele>
        <time>2021-10-28 13:04:48</time>
      </trkpt>
      <trkpt lat="43.27297" lon="-3.19827">
        <ele>558.4</ele>
        <time>2021-10-28 13:04:49</time>
      </trkpt>
      <trkpt lat="43.27297" lon="-3.19827">
        <ele>558.4</ele>
        <time>2021-10-28 13:04:50</time>
      </trkpt>
      <trkpt lat="43.27292" lon="-3.19835">
        <ele>558.4</ele>
        <time>2021-10-28 13:04:51</time>
      </trkpt>
      <trkpt lat="43.27289" lon="-3.19839">
        <ele>558.4</ele>
        <time>2021-10-28 13:04:52</time>
      </trkpt>
      <trkpt lat="43.27287" lon="-3.19842">
        <ele>558.4</ele>
        <time>2021-10-28 13:04:53</time>
      </trkpt>
      <trkpt lat="43.27284" lon="-3.19852">
        <ele>558.4</ele>
        <time>2021-10-28 13:04:54</time>
      </trkpt>
      <trkpt lat="43.27284" lon="-3.19852">
        <ele>558.4</ele>
        <time>2021-10-28 13:04:55</time>
      </trkpt>
      <trkpt lat="43.27282" lon="-3.19858">
        <ele>558.4</ele>
        <time>2021-10-28 13:04:56</time>
      </trkpt>
      <trkpt lat="43.27282" lon="-3.19863">
        <ele>558.4</ele>
        <time>2021-10-28 13:04:57</time>
      </trkpt>
      <trkpt lat="43.27281" lon="-3.19867">
        <ele>558.4</ele>
        <time>2021-10-28 13:04:58</time>
      </trkpt>
      <trkpt lat="43.27281" lon="-3.19871">
        <ele>558.2</ele>
        <time>2021-10-28 13:04:59</time>
      </trkpt>
      <trkpt lat="43.27281" lon="-3.19876">
        <ele>558.2</ele>
        <time>2021-10-28 13:05:00</time>
      </trkpt>
      <trkpt lat="43.2728" lon="-3.19881">
        <ele>558</ele>
        <time>2021-10-28 13:05:01</time>
      </trkpt>
      <trkpt lat="43.2728" lon="-3.19885">
        <ele>557.8</ele>
        <time>2021-10-28 13:05:02</time>
      </trkpt>
      <trkpt lat="43.27281" lon="-3.19893">
        <ele>557.6</ele>
        <time>2021-10-28 13:05:03</time>
      </trkpt>
      <trkpt lat="43.27281" lon="-3.19893">
        <ele>557.6</ele>
        <time>2021-10-28 13:05:04</time>
      </trkpt>
      <trkpt lat="43.27281" lon="-3.19896">
        <ele>557.6</ele>
        <time>2021-10-28 13:05:05</time>
      </trkpt>
      <trkpt lat="43.27281" lon="-3.199">
        <ele>557.4</ele>
        <time>2021-10-28 13:05:06</time>
      </trkpt>
      <trkpt lat="43.27281" lon="-3.19904">
        <ele>557.4</ele>
        <time>2021-10-28 13:05:07</time>
      </trkpt>
      <trkpt lat="43.2728" lon="-3.19913">
        <ele>557.6</ele>
        <time>2021-10-28 13:05:08</time>
      </trkpt>
      <trkpt lat="43.2728" lon="-3.19913">
        <ele>557.6</ele>
        <time>2021-10-28 13:05:09</time>
      </trkpt>
      <trkpt lat="43.2728" lon="-3.19918">
        <ele>557.8</ele>
        <time>2021-10-28 13:05:10</time>
      </trkpt>
      <trkpt lat="43.27279" lon="-3.19928">
        <ele>557.8</ele>
        <time>2021-10-28 13:05:11</time>
      </trkpt>
      <trkpt lat="43.27279" lon="-3.19928">
        <ele>557.8</ele>
        <time>2021-10-28 13:05:12</time>
      </trkpt>
      <trkpt lat="43.27279" lon="-3.19933">
        <ele>557.8</ele>
        <time>2021-10-28 13:05:13</time>
      </trkpt>
      <trkpt lat="43.27279" lon="-3.19937">
        <ele>558</ele>
        <time>2021-10-28 13:05:14</time>
      </trkpt>
      <trkpt lat="43.2728" lon="-3.19941">
        <ele>558.2</ele>
        <time>2021-10-28 13:05:15</time>
      </trkpt>
      <trkpt lat="43.2728" lon="-3.19946">
        <ele>558.4</ele>
        <time>2021-10-28 13:05:16</time>
      </trkpt>
      <trkpt lat="43.2728" lon="-3.1995">
        <ele>558.4</ele>
        <time>2021-10-28 13:05:17</time>
      </trkpt>
      <trkpt lat="43.2728" lon="-3.19955">
        <ele>558.4</ele>
        <time>2021-10-28 13:05:18</time>
      </trkpt>
      <trkpt lat="43.27281" lon="-3.19964">
        <ele>558.4</ele>
        <time>2021-10-28 13:05:19</time>
      </trkpt>
      <trkpt lat="43.27281" lon="-3.19964">
        <ele>558.4</ele>
        <time>2021-10-28 13:05:20</time>
      </trkpt>
      <trkpt lat="43.27281" lon="-3.19969">
        <ele>558.4</ele>
        <time>2021-10-28 13:05:21</time>
      </trkpt>
      <trkpt lat="43.27281" lon="-3.19974">
        <ele>558.4</ele>
        <time>2021-10-28 13:05:22</time>
      </trkpt>
      <trkpt lat="43.27281" lon="-3.19979">
        <ele>558.4</ele>
        <time>2021-10-28 13:05:23</time>
      </trkpt>
      <trkpt lat="43.27281" lon="-3.19984">
        <ele>558.6</ele>
        <time>2021-10-28 13:05:24</time>
      </trkpt>
      <trkpt lat="43.27281" lon="-3.1999">
        <ele>558.8</ele>
        <time>2021-10-28 13:05:25</time>
      </trkpt>
      <trkpt lat="43.27282" lon="-3.19999">
        <ele>559</ele>
        <time>2021-10-28 13:05:26</time>
      </trkpt>
      <trkpt lat="43.27282" lon="-3.19999">
        <ele>559.2</ele>
        <time>2021-10-28 13:05:27</time>
      </trkpt>
      <trkpt lat="43.27282" lon="-3.20003">
        <ele>559.4</ele>
        <time>2021-10-28 13:05:28</time>
      </trkpt>
      <trkpt lat="43.27283" lon="-3.20007">
        <ele>559.4</ele>
        <time>2021-10-28 13:05:29</time>
      </trkpt>
      <trkpt lat="43.27283" lon="-3.20012">
        <ele>559.4</ele>
        <time>2021-10-28 13:05:30</time>
      </trkpt>
      <trkpt lat="43.27283" lon="-3.20016">
        <ele>559.4</ele>
        <time>2021-10-28 13:05:31</time>
      </trkpt>
      <trkpt lat="43.27283" lon="-3.20021">
        <ele>559.4</ele>
        <time>2021-10-28 13:05:32</time>
      </trkpt>
      <trkpt lat="43.27283" lon="-3.20029">
        <ele>559.4</ele>
        <time>2021-10-28 13:05:33</time>
      </trkpt>
      <trkpt lat="43.27283" lon="-3.20029">
        <ele>559.4</ele>
        <time>2021-10-28 13:05:34</time>
      </trkpt>
      <trkpt lat="43.27283" lon="-3.20034">
        <ele>559.4</ele>
        <time>2021-10-28 13:05:35</time>
      </trkpt>
      <trkpt lat="43.27284" lon="-3.20038">
        <ele>559.4</ele>
        <time>2021-10-28 13:05:36</time>
      </trkpt>
      <trkpt lat="43.27285" lon="-3.20046">
        <ele>559.4</ele>
        <time>2021-10-28 13:05:37</time>
      </trkpt>
      <trkpt lat="43.27285" lon="-3.20046">
        <ele>559.6</ele>
        <time>2021-10-28 13:05:38</time>
      </trkpt>
      <trkpt lat="43.27286" lon="-3.2005">
        <ele>559.6</ele>
        <time>2021-10-28 13:05:39</time>
      </trkpt>
      <trkpt lat="43.27286" lon="-3.20054">
        <ele>559.6</ele>
        <time>2021-10-28 13:05:40</time>
      </trkpt>
      <trkpt lat="43.27286" lon="-3.20057">
        <ele>559.8</ele>
        <time>2021-10-28 13:05:41</time>
      </trkpt>
      <trkpt lat="43.27286" lon="-3.20061">
        <ele>559.8</ele>
        <time>2021-10-28 13:05:42</time>
      </trkpt>
      <trkpt lat="43.27287" lon="-3.20065">
        <ele>560</ele>
        <time>2021-10-28 13:05:43</time>
      </trkpt>
      <trkpt lat="43.27286" lon="-3.20074">
        <ele>560.2</ele>
        <time>2021-10-28 13:05:44</time>
      </trkpt>
      <trkpt lat="43.27286" lon="-3.20074">
        <ele>560.4</ele>
        <time>2021-10-28 13:05:45</time>
      </trkpt>
      <trkpt lat="43.27286" lon="-3.20079">
        <ele>560.4</ele>
        <time>2021-10-28 13:05:46</time>
      </trkpt>
      <trkpt lat="43.27287" lon="-3.20083">
        <ele>560.6</ele>
        <time>2021-10-28 13:05:47</time>
      </trkpt>
      <trkpt lat="43.27287" lon="-3.20092">
        <ele>560.6</ele>
        <time>2021-10-28 13:05:48</time>
      </trkpt>
      <trkpt lat="43.27287" lon="-3.20092">
        <ele>560.6</ele>
        <time>2021-10-28 13:05:49</time>
      </trkpt>
      <trkpt lat="43.27286" lon="-3.201">
        <ele>560.6</ele>
        <time>2021-10-28 13:05:50</time>
      </trkpt>
      <trkpt lat="43.27286" lon="-3.201">
        <ele>560.8</ele>
        <time>2021-10-28 13:05:51</time>
      </trkpt>
      <trkpt lat="43.27288" lon="-3.20103">
        <ele>561.2</ele>
        <time>2021-10-28 13:05:52</time>
      </trkpt>
      <trkpt lat="43.27289" lon="-3.20107">
        <ele>561.2</ele>
        <time>2021-10-28 13:05:53</time>
      </trkpt>
      <trkpt lat="43.27288" lon="-3.20111">
        <ele>561.4</ele>
        <time>2021-10-28 13:05:54</time>
      </trkpt>
      <trkpt lat="43.27288" lon="-3.20115">
        <ele>561.4</ele>
        <time>2021-10-28 13:05:55</time>
      </trkpt>
      <trkpt lat="43.27288" lon="-3.20119">
        <ele>561.4</ele>
        <time>2021-10-28 13:05:56</time>
      </trkpt>
      <trkpt lat="43.27288" lon="-3.20125">
        <ele>561.6</ele>
        <time>2021-10-28 13:05:57</time>
      </trkpt>
      <trkpt lat="43.27289" lon="-3.20134">
        <ele>561.6</ele>
        <time>2021-10-28 13:05:58</time>
      </trkpt>
      <trkpt lat="43.27289" lon="-3.20134">
        <ele>561.8</ele>
        <time>2021-10-28 13:05:59</time>
      </trkpt>
      <trkpt lat="43.2729" lon="-3.20139">
        <ele>561.8</ele>
        <time>2021-10-28 13:06:00</time>
      </trkpt>
      <trkpt lat="43.27291" lon="-3.20147">
        <ele>562</ele>
        <time>2021-10-28 13:06:01</time>
      </trkpt>
      <trkpt lat="43.27291" lon="-3.20147">
        <ele>562</ele>
        <time>2021-10-28 13:06:02</time>
      </trkpt>
      <trkpt lat="43.2729" lon="-3.20152">
        <ele>562.2</ele>
        <time>2021-10-28 13:06:03</time>
      </trkpt>
      <trkpt lat="43.27289" lon="-3.20157">
        <ele>562.2</ele>
        <time>2021-10-28 13:06:04</time>
      </trkpt>
      <trkpt lat="43.27289" lon="-3.20161">
        <ele>562.2</ele>
        <time>2021-10-28 13:06:05</time>
      </trkpt>
      <trkpt lat="43.27289" lon="-3.20169">
        <ele>562</ele>
        <time>2021-10-28 13:06:06</time>
      </trkpt>
      <trkpt lat="43.27289" lon="-3.20169">
        <ele>562</ele>
        <time>2021-10-28 13:06:07</time>
      </trkpt>
      <trkpt lat="43.27289" lon="-3.20173">
        <ele>562</ele>
        <time>2021-10-28 13:06:08</time>
      </trkpt>
      <trkpt lat="43.27289" lon="-3.20181">
        <ele>562</ele>
        <time>2021-10-28 13:06:09</time>
      </trkpt>
      <trkpt lat="43.27289" lon="-3.20181">
        <ele>562</ele>
        <time>2021-10-28 13:06:10</time>
      </trkpt>
      <trkpt lat="43.27289" lon="-3.20184">
        <ele>562.2</ele>
        <time>2021-10-28 13:06:11</time>
      </trkpt>
      <trkpt lat="43.27289" lon="-3.20187">
        <ele>562.2</ele>
        <time>2021-10-28 13:06:12</time>
      </trkpt>
      <trkpt lat="43.27289" lon="-3.20189">
        <ele>562.4</ele>
        <time>2021-10-28 13:06:13</time>
      </trkpt>
      <trkpt lat="43.27288" lon="-3.20192">
        <ele>562.6</ele>
        <time>2021-10-28 13:06:14</time>
      </trkpt>
      <trkpt lat="43.27288" lon="-3.20195">
        <ele>562.6</ele>
        <time>2021-10-28 13:06:15</time>
      </trkpt>
      <trkpt lat="43.27288" lon="-3.20198">
        <ele>562.6</ele>
        <time>2021-10-28 13:06:16</time>
      </trkpt>
      <trkpt lat="43.27288" lon="-3.20202">
        <ele>562.6</ele>
        <time>2021-10-28 13:06:17</time>
      </trkpt>
      <trkpt lat="43.27288" lon="-3.20205">
        <ele>562.8</ele>
        <time>2021-10-28 13:06:18</time>
      </trkpt>
      <trkpt lat="43.27289" lon="-3.20206">
        <ele>563</ele>
        <time>2021-10-28 13:06:19</time>
      </trkpt>
      <trkpt lat="43.27289" lon="-3.20208">
        <ele>563</ele>
        <time>2021-10-28 13:06:20</time>
      </trkpt>
      <trkpt lat="43.27289" lon="-3.20211">
        <ele>563</ele>
        <time>2021-10-28 13:06:21</time>
      </trkpt>
      <trkpt lat="43.27289" lon="-3.20213">
        <ele>563.2</ele>
        <time>2021-10-28 13:06:22</time>
      </trkpt>
      <trkpt lat="43.27289" lon="-3.20216">
        <ele>563.2</ele>
        <time>2021-10-28 13:06:23</time>
      </trkpt>
      <trkpt lat="43.27289" lon="-3.20216">
        <ele>563.2</ele>
        <time>2021-10-28 13:06:24</time>
      </trkpt>
      <trkpt lat="43.27289" lon="-3.20218">
        <ele>563.2</ele>
        <time>2021-10-28 13:06:25</time>
      </trkpt>
      <trkpt lat="43.27289" lon="-3.20218">
        <ele>563.4</ele>
        <time>2021-10-28 13:06:26</time>
      </trkpt>
      <trkpt lat="43.27289" lon="-3.20218">
        <ele>563.4</ele>
        <time>2021-10-28 13:06:27</time>
      </trkpt>
      <trkpt lat="43.27289" lon="-3.20219">
        <ele>563.4</ele>
        <time>2021-10-28 13:06:28</time>
      </trkpt>
      <trkpt lat="43.27289" lon="-3.20219">
        <ele>563.4</ele>
        <time>2021-10-28 13:06:29</time>
      </trkpt>
      <trkpt lat="43.2729" lon="-3.2022">
        <ele>563.6</ele>
        <time>2021-10-28 13:06:30</time>
      </trkpt>
      <trkpt lat="43.27289" lon="-3.2022">
        <ele>563.6</ele>
        <time>2021-10-28 13:06:31</time>
      </trkpt>
      <trkpt lat="43.27289" lon="-3.20221">
        <ele>563.6</ele>
        <time>2021-10-28 13:06:32</time>
      </trkpt>
      <trkpt lat="43.27289" lon="-3.20221">
        <ele>563.6</ele>
        <time>2021-10-28 13:06:33</time>
      </trkpt>
      <trkpt lat="43.27288" lon="-3.20189">
        <ele>562.8</ele>
        <time>2021-10-28 13:06:34</time>
      </trkpt>
      <trkpt lat="43.27288" lon="-3.20189">
        <ele>562.8</ele>
        <time>2021-10-28 13:06:35</time>
      </trkpt>
      <trkpt lat="43.27288" lon="-3.20185">
        <ele>562.8</ele>
        <time>2021-10-28 13:06:36</time>
      </trkpt>
      <trkpt lat="43.27288" lon="-3.2018">
        <ele>562.8</ele>
        <time>2021-10-28 13:06:37</time>
      </trkpt>
      <trkpt lat="43.27286" lon="-3.20176">
        <ele>562.8</ele>
        <time>2021-10-28 13:06:38</time>
      </trkpt>
      <trkpt lat="43.27287" lon="-3.20172">
        <ele>562.8</ele>
        <time>2021-10-28 13:06:39</time>
      </trkpt>
      <trkpt lat="43.27287" lon="-3.20167">
        <ele>562.8</ele>
        <time>2021-10-28 13:06:40</time>
      </trkpt>
      <trkpt lat="43.27287" lon="-3.20163">
        <ele>562.8</ele>
        <time>2021-10-28 13:06:41</time>
      </trkpt>
      <trkpt lat="43.27289" lon="-3.2016">
        <ele>562.6</ele>
        <time>2021-10-28 13:06:42</time>
      </trkpt>
      <trkpt lat="43.27288" lon="-3.20156">
        <ele>562.6</ele>
        <time>2021-10-28 13:06:43</time>
      </trkpt>
      <trkpt lat="43.27288" lon="-3.20156">
        <ele>562.4</ele>
        <time>2021-10-28 13:06:44</time>
      </trkpt>
      <trkpt lat="43.27286" lon="-3.20143">
        <ele>562.2</ele>
        <time>2021-10-28 13:06:45</time>
      </trkpt>
      <trkpt lat="43.27286" lon="-3.20143">
        <ele>562.2</ele>
        <time>2021-10-28 13:06:46</time>
      </trkpt>
      <trkpt lat="43.27286" lon="-3.20133">
        <ele>562.2</ele>
        <time>2021-10-28 13:06:47</time>
      </trkpt>
      <trkpt lat="43.27286" lon="-3.20133">
        <ele>562</ele>
        <time>2021-10-28 13:06:48</time>
      </trkpt>
      <trkpt lat="43.27286" lon="-3.20129">
        <ele>561.8</ele>
        <time>2021-10-28 13:06:49</time>
      </trkpt>
      <trkpt lat="43.27285" lon="-3.20122">
        <ele>561.8</ele>
        <time>2021-10-28 13:06:50</time>
      </trkpt>
      <trkpt lat="43.27285" lon="-3.20122">
        <ele>561.6</ele>
        <time>2021-10-28 13:06:51</time>
      </trkpt>
      <trkpt lat="43.27286" lon="-3.20114">
        <ele>561.4</ele>
        <time>2021-10-28 13:06:52</time>
      </trkpt>
      <trkpt lat="43.27286" lon="-3.20114">
        <ele>561.4</ele>
        <time>2021-10-28 13:06:53</time>
      </trkpt>
      <trkpt lat="43.27287" lon="-3.20107">
        <ele>561.4</ele>
        <time>2021-10-28 13:06:54</time>
      </trkpt>
      <trkpt lat="43.27287" lon="-3.20107">
        <ele>561.2</ele>
        <time>2021-10-28 13:06:55</time>
      </trkpt>
      <trkpt lat="43.27287" lon="-3.20097">
        <ele>561.2</ele>
        <time>2021-10-28 13:06:56</time>
      </trkpt>
      <trkpt lat="43.27287" lon="-3.20097">
        <ele>561.2</ele>
        <time>2021-10-28 13:06:57</time>
      </trkpt>
      <trkpt lat="43.27287" lon="-3.20086">
        <ele>561.2</ele>
        <time>2021-10-28 13:06:58</time>
      </trkpt>
      <trkpt lat="43.27287" lon="-3.20086">
        <ele>561.2</ele>
        <time>2021-10-28 13:06:59</time>
      </trkpt>
      <trkpt lat="43.27287" lon="-3.2008">
        <ele>561</ele>
        <time>2021-10-28 13:09:58</time>
      </trkpt>
      <trkpt lat="43.27286" lon="-3.20069">
        <ele>560.8</ele>
        <time>2021-10-28 13:09:59</time>
      </trkpt>
      <trkpt lat="43.27286" lon="-3.20069">
        <ele>560.8</ele>
        <time>2021-10-28 13:10:00</time>
      </trkpt>
      <trkpt lat="43.27286" lon="-3.20064">
        <ele>560.6</ele>
        <time>2021-10-28 13:10:01</time>
      </trkpt>
      <trkpt lat="43.27286" lon="-3.20052">
        <ele>560.4</ele>
        <time>2021-10-28 13:10:02</time>
      </trkpt>
      <trkpt lat="43.27286" lon="-3.20052">
        <ele>560.2</ele>
        <time>2021-10-28 13:10:03</time>
      </trkpt>
      <trkpt lat="43.27286" lon="-3.20046">
        <ele>560</ele>
        <time>2021-10-28 13:10:04</time>
      </trkpt>
      <trkpt lat="43.27284" lon="-3.20033">
        <ele>559.8</ele>
        <time>2021-10-28 13:10:05</time>
      </trkpt>
      <trkpt lat="43.27284" lon="-3.20033">
        <ele>559.8</ele>
        <time>2021-10-28 13:10:06</time>
      </trkpt>
      <trkpt lat="43.27283" lon="-3.2002">
        <ele>559.8</ele>
        <time>2021-10-28 13:10:07</time>
      </trkpt>
      <trkpt lat="43.27283" lon="-3.2002">
        <ele>559.8</ele>
        <time>2021-10-28 13:10:08</time>
      </trkpt>
      <trkpt lat="43.27282" lon="-3.20007">
        <ele>559.6</ele>
        <time>2021-10-28 13:10:09</time>
      </trkpt>
      <trkpt lat="43.27282" lon="-3.20007">
        <ele>559.6</ele>
        <time>2021-10-28 13:10:10</time>
      </trkpt>
      <trkpt lat="43.27282" lon="-3.19995">
        <ele>559.6</ele>
        <time>2021-10-28 13:10:11</time>
      </trkpt>
      <trkpt lat="43.27282" lon="-3.19995">
        <ele>559.4</ele>
        <time>2021-10-28 13:10:12</time>
      </trkpt>
      <trkpt lat="43.27281" lon="-3.19988">
        <ele>559.4</ele>
        <time>2021-10-28 13:10:13</time>
      </trkpt>
      <trkpt lat="43.2728" lon="-3.19975">
        <ele>559.4</ele>
        <time>2021-10-28 13:10:14</time>
      </trkpt>
      <trkpt lat="43.2728" lon="-3.19975">
        <ele>559.2</ele>
        <time>2021-10-28 13:10:15</time>
      </trkpt>
      <trkpt lat="43.2728" lon="-3.19969">
        <ele>559.2</ele>
        <time>2021-10-28 13:10:16</time>
      </trkpt>
      <trkpt lat="43.27279" lon="-3.19963">
        <ele>559</ele>
        <time>2021-10-28 13:10:17</time>
      </trkpt>
      <trkpt lat="43.27279" lon="-3.19957">
        <ele>559</ele>
        <time>2021-10-28 13:10:18</time>
      </trkpt>
      <trkpt lat="43.27278" lon="-3.19945">
        <ele>558.6</ele>
        <time>2021-10-28 13:10:19</time>
      </trkpt>
      <trkpt lat="43.27278" lon="-3.19945">
        <ele>558.4</ele>
        <time>2021-10-28 13:10:20</time>
      </trkpt>
      <trkpt lat="43.27278" lon="-3.1994">
        <ele>558.4</ele>
        <time>2021-10-28 13:10:21</time>
      </trkpt>
      <trkpt lat="43.27277" lon="-3.1993">
        <ele>558.4</ele>
        <time>2021-10-28 13:10:22</time>
      </trkpt>
      <trkpt lat="43.27277" lon="-3.1993">
        <ele>558.2</ele>
        <time>2021-10-28 13:10:23</time>
      </trkpt>
      <trkpt lat="43.27276" lon="-3.19925">
        <ele>558.2</ele>
        <time>2021-10-28 13:10:24</time>
      </trkpt>
      <trkpt lat="43.27275" lon="-3.19921">
        <ele>558.2</ele>
        <time>2021-10-28 13:10:25</time>
      </trkpt>
      <trkpt lat="43.27273" lon="-3.19915">
        <ele>558</ele>
        <time>2021-10-28 13:10:26</time>
      </trkpt>
      <trkpt lat="43.27273" lon="-3.19915">
        <ele>558</ele>
        <time>2021-10-28 13:10:27</time>
      </trkpt>
      <trkpt lat="43.27271" lon="-3.19912">
        <ele>558</ele>
        <time>2021-10-28 13:10:28</time>
      </trkpt>
      <trkpt lat="43.27269" lon="-3.19909">
        <ele>557.8</ele>
        <time>2021-10-28 13:10:29</time>
      </trkpt>
      <trkpt lat="43.27266" lon="-3.19903">
        <ele>557.4</ele>
        <time>2021-10-28 13:10:30</time>
      </trkpt>
      <trkpt lat="43.27264" lon="-3.19897">
        <ele>556.8</ele>
        <time>2021-10-28 13:10:31</time>
      </trkpt>
      <trkpt lat="43.27263" lon="-3.19891">
        <ele>556.2</ele>
        <time>2021-10-28 13:10:32</time>
      </trkpt>
      <trkpt lat="43.2726" lon="-3.19881">
        <ele>555.4</ele>
        <time>2021-10-28 13:10:33</time>
      </trkpt>
      <trkpt lat="43.2726" lon="-3.19881">
        <ele>554.6</ele>
        <time>2021-10-28 13:10:34</time>
      </trkpt>
      <trkpt lat="43.27259" lon="-3.19878">
        <ele>554</ele>
        <time>2021-10-28 13:10:35</time>
      </trkpt>
      <trkpt lat="43.27257" lon="-3.19872">
        <ele>553.8</ele>
        <time>2021-10-28 13:10:36</time>
      </trkpt>
      <trkpt lat="43.27257" lon="-3.19872">
        <ele>553.6</ele>
        <time>2021-10-28 13:10:37</time>
      </trkpt>
      <trkpt lat="43.27256" lon="-3.19869">
        <ele>553.4</ele>
        <time>2021-10-28 13:10:38</time>
      </trkpt>
      <trkpt lat="43.27255" lon="-3.19868">
        <ele>553.4</ele>
        <time>2021-10-28 13:10:39</time>
      </trkpt>
      <trkpt lat="43.27256" lon="-3.19867">
        <ele>561.8</ele>
        <time>2021-10-28 13:10:40</time>
      </trkpt>
      <trkpt lat="43.27256" lon="-3.19867">
        <ele>564.2</ele>
        <time>2021-10-28 13:10:41</time>
      </trkpt>
      <trkpt lat="43.27256" lon="-3.19867">
        <ele>565</ele>
        <time>2021-10-28 13:10:42</time>
      </trkpt>
      <trkpt lat="43.27256" lon="-3.19867">
        <ele>565</ele>
        <time>2021-10-28 13:10:43</time>
      </trkpt>
      <trkpt lat="43.27255" lon="-3.19866">
        <ele>556.6</ele>
        <time>2021-10-28 13:10:44</time>
      </trkpt>
      <trkpt lat="43.27255" lon="-3.19866">
        <ele>554</ele>
        <time>2021-10-28 13:10:45</time>
      </trkpt>
      <trkpt lat="43.27255" lon="-3.19866">
        <ele>553.2</ele>
        <time>2021-10-28 13:10:46</time>
      </trkpt>
      <trkpt lat="43.27254" lon="-3.19867">
        <ele>552.8</ele>
        <time>2021-10-28 13:10:47</time>
      </trkpt>
      <trkpt lat="43.27253" lon="-3.19867">
        <ele>552.6</ele>
        <time>2021-10-28 13:10:48</time>
      </trkpt>
      <trkpt lat="43.27238" lon="-3.1991">
        <ele>550.4</ele>
        <time>2021-10-28 13:10:49</time>
      </trkpt>
      <trkpt lat="43.27238" lon="-3.19925">
        <ele>550</ele>
        <time>2021-10-28 13:10:50</time>
      </trkpt>
      <trkpt lat="43.27238" lon="-3.19925">
        <ele>549.6</ele>
        <time>2021-10-28 13:10:51</time>
      </trkpt>
      <trkpt lat="43.27238" lon="-3.19933">
        <ele>549.2</ele>
        <time>2021-10-28 13:10:52</time>
      </trkpt>
      <trkpt lat="43.27237" lon="-3.1995">
        <ele>549</ele>
        <time>2021-10-28 13:10:53</time>
      </trkpt>
      <trkpt lat="43.27237" lon="-3.1995">
        <ele>548.6</ele>
        <time>2021-10-28 13:10:54</time>
      </trkpt>
      <trkpt lat="43.27237" lon="-3.19959">
        <ele>548.2</ele>
        <time>2021-10-28 13:10:55</time>
      </trkpt>
      <trkpt lat="43.27236" lon="-3.19967">
        <ele>547.8</ele>
        <time>2021-10-28 13:10:56</time>
      </trkpt>
      <trkpt lat="43.27236" lon="-3.19975">
        <ele>547.2</ele>
        <time>2021-10-28 13:10:57</time>
      </trkpt>
      <trkpt lat="43.27236" lon="-3.19984">
        <ele>546.8</ele>
        <time>2021-10-28 13:10:58</time>
      </trkpt>
      <trkpt lat="43.27235" lon="-3.19999">
        <ele>546.2</ele>
        <time>2021-10-28 13:10:59</time>
      </trkpt>
      <trkpt lat="43.27235" lon="-3.19999">
        <ele>545.4</ele>
        <time>2021-10-28 13:11:00</time>
      </trkpt>
      <trkpt lat="43.27235" lon="-3.20006">
        <ele>544.8</ele>
        <time>2021-10-28 13:11:01</time>
      </trkpt>
      <trkpt lat="43.27235" lon="-3.20006">
        <ele>544</ele>
        <time>2021-10-28 13:11:02</time>
      </trkpt>
      <trkpt lat="43.27232" lon="-3.20016">
        <ele>543.4</ele>
        <time>2021-10-28 13:11:03</time>
      </trkpt>
      <trkpt lat="43.27229" lon="-3.2002">
        <ele>543</ele>
        <time>2021-10-28 13:11:04</time>
      </trkpt>
      <trkpt lat="43.27225" lon="-3.20021">
        <ele>542.6</ele>
        <time>2021-10-28 13:11:05</time>
      </trkpt>
      <trkpt lat="43.2722" lon="-3.2002">
        <ele>542</ele>
        <time>2021-10-28 13:11:06</time>
      </trkpt>
      <trkpt lat="43.27216" lon="-3.20016">
        <ele>541.6</ele>
        <time>2021-10-28 13:11:07</time>
      </trkpt>
      <trkpt lat="43.2721" lon="-3.20001">
        <ele>541</ele>
        <time>2021-10-28 13:11:08</time>
      </trkpt>
      <trkpt lat="43.2721" lon="-3.20001">
        <ele>540.4</ele>
        <time>2021-10-28 13:11:09</time>
      </trkpt>
      <trkpt lat="43.27209" lon="-3.19992">
        <ele>539.8</ele>
        <time>2021-10-28 13:11:10</time>
      </trkpt>
      <trkpt lat="43.27207" lon="-3.19982">
        <ele>539.2</ele>
        <time>2021-10-28 13:11:11</time>
      </trkpt>
      <trkpt lat="43.27202" lon="-3.1996">
        <ele>538.4</ele>
        <time>2021-10-28 13:11:12</time>
      </trkpt>
      <trkpt lat="43.27202" lon="-3.1996">
        <ele>537.8</ele>
        <time>2021-10-28 13:11:13</time>
      </trkpt>
      <trkpt lat="43.27199" lon="-3.1995">
        <ele>537</ele>
        <time>2021-10-28 13:11:14</time>
      </trkpt>
      <trkpt lat="43.27196" lon="-3.19939">
        <ele>536.4</ele>
        <time>2021-10-28 13:11:23</time>
      </trkpt>
      <trkpt lat="43.27192" lon="-3.19929">
        <ele>535.6</ele>
        <time>2021-10-28 13:11:24</time>
      </trkpt>
      <trkpt lat="43.27188" lon="-3.19919">
        <ele>534.8</ele>
        <time>2021-10-28 13:11:25</time>
      </trkpt>
      <trkpt lat="43.27181" lon="-3.19896">
        <ele>534</ele>
        <time>2021-10-28 13:11:26</time>
      </trkpt>
      <trkpt lat="43.27181" lon="-3.19896">
        <ele>533.2</ele>
        <time>2021-10-28 13:11:27</time>
      </trkpt>
      <trkpt lat="43.27178" lon="-3.19885">
        <ele>532.6</ele>
        <time>2021-10-28 13:11:28</time>
      </trkpt>
      <trkpt lat="43.27175" lon="-3.19873">
        <ele>531.8</ele>
        <time>2021-10-28 13:11:29</time>
      </trkpt>
      <trkpt lat="43.27173" lon="-3.19862">
        <ele>531</ele>
        <time>2021-10-28 13:11:30</time>
      </trkpt>
      <trkpt lat="43.27171" lon="-3.19841">
        <ele>530</ele>
        <time>2021-10-28 13:11:31</time>
      </trkpt>
      <trkpt lat="43.27171" lon="-3.19841">
        <ele>529.2</ele>
        <time>2021-10-28 13:11:32</time>
      </trkpt>
      <trkpt lat="43.27172" lon="-3.19823">
        <ele>528.2</ele>
        <time>2021-10-28 13:11:33</time>
      </trkpt>
      <trkpt lat="43.27172" lon="-3.19823">
        <ele>527.4</ele>
        <time>2021-10-28 13:11:34</time>
      </trkpt>
      <trkpt lat="43.27174" lon="-3.19816">
        <ele>526.8</ele>
        <time>2021-10-28 13:11:35</time>
      </trkpt>
      <trkpt lat="43.27178" lon="-3.19811">
        <ele>526.4</ele>
        <time>2021-10-28 13:11:36</time>
      </trkpt>
      <trkpt lat="43.27178" lon="-3.19811">
        <ele>526</ele>
        <time>2021-10-28 13:11:37</time>
      </trkpt>
      <trkpt lat="43.27185" lon="-3.19805">
        <ele>525.6</ele>
        <time>2021-10-28 13:11:38</time>
      </trkpt>
      <trkpt lat="43.27186" lon="-3.19802">
        <ele>525.2</ele>
        <time>2021-10-28 13:11:39</time>
      </trkpt>
      <trkpt lat="43.27189" lon="-3.19799">
        <ele>524.8</ele>
        <time>2021-10-28 13:11:40</time>
      </trkpt>
      <trkpt lat="43.2719" lon="-3.19795">
        <ele>524.4</ele>
        <time>2021-10-28 13:11:41</time>
      </trkpt>
      <trkpt lat="43.2719" lon="-3.19791">
        <ele>524.2</ele>
        <time>2021-10-28 13:11:42</time>
      </trkpt>
      <trkpt lat="43.27191" lon="-3.19788">
        <ele>524</ele>
        <time>2021-10-28 13:11:43</time>
      </trkpt>
      <trkpt lat="43.27191" lon="-3.19784">
        <ele>523.6</ele>
        <time>2021-10-28 13:11:44</time>
      </trkpt>
      <trkpt lat="43.2719" lon="-3.1978">
        <ele>523.2</ele>
        <time>2021-10-28 13:11:45</time>
      </trkpt>
      <trkpt lat="43.27188" lon="-3.19776">
        <ele>522.6</ele>
        <time>2021-10-28 13:11:46</time>
      </trkpt>
      <trkpt lat="43.27186" lon="-3.19772">
        <ele>522</ele>
        <time>2021-10-28 13:11:47</time>
      </trkpt>
      <trkpt lat="43.27182" lon="-3.1977">
        <ele>521.6</ele>
        <time>2021-10-28 13:11:48</time>
      </trkpt>
      <trkpt lat="43.27178" lon="-3.1977">
        <ele>521</ele>
        <time>2021-10-28 13:11:49</time>
      </trkpt>
      <trkpt lat="43.27172" lon="-3.19771">
        <ele>520.6</ele>
        <time>2021-10-28 13:11:50</time>
      </trkpt>
      <trkpt lat="43.27159" lon="-3.19778">
        <ele>520.2</ele>
        <time>2021-10-28 13:11:51</time>
      </trkpt>
      <trkpt lat="43.27159" lon="-3.19778">
        <ele>519.6</ele>
        <time>2021-10-28 13:11:52</time>
      </trkpt>
      <trkpt lat="43.27152" lon="-3.19781">
        <ele>519</ele>
        <time>2021-10-28 13:11:53</time>
      </trkpt>
      <trkpt lat="43.27145" lon="-3.19784">
        <ele>518.2</ele>
        <time>2021-10-28 13:11:54</time>
      </trkpt>
      <trkpt lat="43.27132" lon="-3.19791">
        <ele>517.6</ele>
        <time>2021-10-28 13:11:55</time>
      </trkpt>
      <trkpt lat="43.27132" lon="-3.19791">
        <ele>517</ele>
        <time>2021-10-28 13:11:56</time>
      </trkpt>
      <trkpt lat="43.27126" lon="-3.19795">
        <ele>516.4</ele>
        <time>2021-10-28 13:11:57</time>
      </trkpt>
      <trkpt lat="43.27121" lon="-3.198">
        <ele>515.8</ele>
        <time>2021-10-28 13:11:58</time>
      </trkpt>
      <trkpt lat="43.27121" lon="-3.198">
        <ele>515</ele>
        <time>2021-10-28 13:11:59</time>
      </trkpt>
      <trkpt lat="43.27114" lon="-3.19815">
        <ele>514.4</ele>
        <time>2021-10-28 13:12:00</time>
      </trkpt>
      <trkpt lat="43.27113" lon="-3.19823">
        <ele>514</ele>
        <time>2021-10-28 13:12:01</time>
      </trkpt>
      <trkpt lat="43.27111" lon="-3.19843">
        <ele>513.4</ele>
        <time>2021-10-28 13:12:02</time>
      </trkpt>
      <trkpt lat="43.27111" lon="-3.19843">
        <ele>512.6</ele>
        <time>2021-10-28 13:12:03</time>
      </trkpt>
      <trkpt lat="43.27112" lon="-3.19854">
        <ele>512</ele>
        <time>2021-10-28 13:12:04</time>
      </trkpt>
      <trkpt lat="43.27111" lon="-3.19865">
        <ele>511.4</ele>
        <time>2021-10-28 13:12:05</time>
      </trkpt>
      <trkpt lat="43.27111" lon="-3.1989">
        <ele>510.8</ele>
        <time>2021-10-28 13:12:06</time>
      </trkpt>
      <trkpt lat="43.27111" lon="-3.1989">
        <ele>509.8</ele>
        <time>2021-10-28 13:12:07</time>
      </trkpt>
      <trkpt lat="43.27111" lon="-3.19902">
        <ele>509.2</ele>
        <time>2021-10-28 13:12:08</time>
      </trkpt>
      <trkpt lat="43.2711" lon="-3.19914">
        <ele>508.4</ele>
        <time>2021-10-28 13:12:09</time>
      </trkpt>
      <trkpt lat="43.2711" lon="-3.19924">
        <ele>507.8</ele>
        <time>2021-10-28 13:12:10</time>
      </trkpt>
      <trkpt lat="43.2711" lon="-3.19934">
        <ele>507</ele>
        <time>2021-10-28 13:12:11</time>
      </trkpt>
      <trkpt lat="43.27111" lon="-3.19943">
        <ele>506.4</ele>
        <time>2021-10-28 13:12:12</time>
      </trkpt>
      <trkpt lat="43.27111" lon="-3.19951">
        <ele>505.8</ele>
        <time>2021-10-28 13:12:13</time>
      </trkpt>
      <trkpt lat="43.27111" lon="-3.19958">
        <ele>505.2</ele>
        <time>2021-10-28 13:12:14</time>
      </trkpt>
      <trkpt lat="43.27111" lon="-3.19958">
        <ele>504.6</ele>
        <time>2021-10-28 13:12:15</time>
      </trkpt>
      <trkpt lat="43.27105" lon="-3.19965">
        <ele>504.2</ele>
        <time>2021-10-28 13:12:16</time>
      </trkpt>
      <trkpt lat="43.271" lon="-3.19965">
        <ele>503.8</ele>
        <time>2021-10-28 13:12:17</time>
      </trkpt>
      <trkpt lat="43.27095" lon="-3.19961">
        <ele>503.2</ele>
        <time>2021-10-28 13:12:18</time>
      </trkpt>
      <trkpt lat="43.27088" lon="-3.19945">
        <ele>502.4</ele>
        <time>2021-10-28 13:12:19</time>
      </trkpt>
      <trkpt lat="43.27088" lon="-3.19945">
        <ele>501.4</ele>
        <time>2021-10-28 13:12:20</time>
      </trkpt>
      <trkpt lat="43.2708" lon="-3.19925">
        <ele>500.4</ele>
        <time>2021-10-28 13:12:21</time>
      </trkpt>
      <trkpt lat="43.2708" lon="-3.19925">
        <ele>499.4</ele>
        <time>2021-10-28 13:12:22</time>
      </trkpt>
      <trkpt lat="43.27074" lon="-3.19914">
        <ele>498.6</ele>
        <time>2021-10-28 13:12:23</time>
      </trkpt>
      <trkpt lat="43.27061" lon="-3.19895">
        <ele>497.8</ele>
        <time>2021-10-28 13:12:24</time>
      </trkpt>
      <trkpt lat="43.27061" lon="-3.19895">
        <ele>497.2</ele>
        <time>2021-10-28 13:12:25</time>
      </trkpt>
      <trkpt lat="43.27055" lon="-3.19887">
        <ele>496.2</ele>
        <time>2021-10-28 13:12:26</time>
      </trkpt>
      <trkpt lat="43.27049" lon="-3.19879">
        <ele>495.6</ele>
        <time>2021-10-28 13:12:27</time>
      </trkpt>
      <trkpt lat="43.27044" lon="-3.19871">
        <ele>495</ele>
        <time>2021-10-28 13:12:28</time>
      </trkpt>
      <trkpt lat="43.27036" lon="-3.19853">
        <ele>494.6</ele>
        <time>2021-10-28 13:12:29</time>
      </trkpt>
      <trkpt lat="43.27036" lon="-3.19853">
        <ele>494.4</ele>
        <time>2021-10-28 13:12:30</time>
      </trkpt>
      <trkpt lat="43.27033" lon="-3.19832">
        <ele>494.2</ele>
        <time>2021-10-28 13:12:31</time>
      </trkpt>
      <trkpt lat="43.27033" lon="-3.19832">
        <ele>493.6</ele>
        <time>2021-10-28 13:12:32</time>
      </trkpt>
      <trkpt lat="43.27033" lon="-3.1982">
        <ele>492.6</ele>
        <time>2021-10-28 13:12:33</time>
      </trkpt>
      <trkpt lat="43.27033" lon="-3.19808">
        <ele>491.6</ele>
        <time>2021-10-28 13:12:34</time>
      </trkpt>
      <trkpt lat="43.27034" lon="-3.19796">
        <ele>490.6</ele>
        <time>2021-10-28 13:12:35</time>
      </trkpt>
      <trkpt lat="43.27035" lon="-3.19771">
        <ele>489.6</ele>
        <time>2021-10-28 13:12:36</time>
      </trkpt>
      <trkpt lat="43.27035" lon="-3.19771">
        <ele>488.6</ele>
        <time>2021-10-28 13:12:37</time>
      </trkpt>
      <trkpt lat="43.27036" lon="-3.19759">
        <ele>487.6</ele>
        <time>2021-10-28 13:12:38</time>
      </trkpt>
      <trkpt lat="43.27037" lon="-3.19748">
        <ele>486.6</ele>
        <time>2021-10-28 13:12:39</time>
      </trkpt>
      <trkpt lat="43.27038" lon="-3.19737">
        <ele>485.6</ele>
        <time>2021-10-28 13:12:40</time>
      </trkpt>
      <trkpt lat="43.27039" lon="-3.19727">
        <ele>484.8</ele>
        <time>2021-10-28 13:12:41</time>
      </trkpt>
      <trkpt lat="43.27042" lon="-3.19716">
        <ele>484</ele>
        <time>2021-10-28 13:12:42</time>
      </trkpt>
      <trkpt lat="43.27048" lon="-3.19708">
        <ele>483.4</ele>
        <time>2021-10-28 13:12:43</time>
      </trkpt>
      <trkpt lat="43.27053" lon="-3.19699">
        <ele>482.6</ele>
        <time>2021-10-28 13:12:44</time>
      </trkpt>
      <trkpt lat="43.27058" lon="-3.19691">
        <ele>481.8</ele>
        <time>2021-10-28 13:12:45</time>
      </trkpt>
      <trkpt lat="43.27065" lon="-3.19684">
        <ele>481.2</ele>
        <time>2021-10-28 13:12:46</time>
      </trkpt>
      <trkpt lat="43.2707" lon="-3.19679">
        <ele>480.4</ele>
        <time>2021-10-28 13:12:47</time>
      </trkpt>
      <trkpt lat="43.27075" lon="-3.19675">
        <ele>479.6</ele>
        <time>2021-10-28 13:12:48</time>
      </trkpt>
      <trkpt lat="43.2708" lon="-3.19672">
        <ele>479</ele>
        <time>2021-10-28 13:12:49</time>
      </trkpt>
      <trkpt lat="43.27084" lon="-3.19668">
        <ele>478.4</ele>
        <time>2021-10-28 13:12:50</time>
      </trkpt>
      <trkpt lat="43.27087" lon="-3.19662">
        <ele>478</ele>
        <time>2021-10-28 13:12:51</time>
      </trkpt>
      <trkpt lat="43.27089" lon="-3.19652">
        <ele>477.4</ele>
        <time>2021-10-28 13:12:52</time>
      </trkpt>
      <trkpt lat="43.27089" lon="-3.19643">
        <ele>477</ele>
        <time>2021-10-28 13:12:53</time>
      </trkpt>
      <trkpt lat="43.27088" lon="-3.19635">
        <ele>476.4</ele>
        <time>2021-10-28 13:12:54</time>
      </trkpt>
      <trkpt lat="43.27089" lon="-3.19626">
        <ele>476</ele>
        <time>2021-10-28 13:12:55</time>
      </trkpt>
      <trkpt lat="43.2709" lon="-3.19618">
        <ele>475.4</ele>
        <time>2021-10-28 13:12:56</time>
      </trkpt>
      <trkpt lat="43.27093" lon="-3.19608">
        <ele>474.6</ele>
        <time>2021-10-28 13:12:57</time>
      </trkpt>
      <trkpt lat="43.27095" lon="-3.196">
        <ele>474</ele>
        <time>2021-10-28 13:12:58</time>
      </trkpt>
      <trkpt lat="43.27096" lon="-3.1959">
        <ele>473.2</ele>
        <time>2021-10-28 13:12:59</time>
      </trkpt>
      <trkpt lat="43.27097" lon="-3.19579">
        <ele>472.4</ele>
        <time>2021-10-28 13:13:00</time>
      </trkpt>
      <trkpt lat="43.27098" lon="-3.19569">
        <ele>471.6</ele>
        <time>2021-10-28 13:13:01</time>
      </trkpt>
      <trkpt lat="43.27098" lon="-3.1956">
        <ele>471</ele>
        <time>2021-10-28 13:13:02</time>
      </trkpt>
      <trkpt lat="43.27097" lon="-3.19551">
        <ele>470.4</ele>
        <time>2021-10-28 13:13:03</time>
      </trkpt>
      <trkpt lat="43.27097" lon="-3.19543">
        <ele>469.8</ele>
        <time>2021-10-28 13:13:04</time>
      </trkpt>
      <trkpt lat="43.27095" lon="-3.19535">
        <ele>469.2</ele>
        <time>2021-10-28 13:13:05</time>
      </trkpt>
      <trkpt lat="43.27091" lon="-3.19528">
        <ele>469</ele>
        <time>2021-10-28 13:13:06</time>
      </trkpt>
      <trkpt lat="43.27086" lon="-3.19519">
        <ele>468.6</ele>
        <time>2021-10-28 13:13:07</time>
      </trkpt>
      <trkpt lat="43.27079" lon="-3.19512">
        <ele>468.2</ele>
        <time>2021-10-28 13:13:08</time>
      </trkpt>
      <trkpt lat="43.27072" lon="-3.19504">
        <ele>467.8</ele>
        <time>2021-10-28 13:13:09</time>
      </trkpt>
      <trkpt lat="43.27058" lon="-3.19492">
        <ele>467.2</ele>
        <time>2021-10-28 13:13:10</time>
      </trkpt>
      <trkpt lat="43.27058" lon="-3.19492">
        <ele>466.6</ele>
        <time>2021-10-28 13:13:11</time>
      </trkpt>
      <trkpt lat="43.2705" lon="-3.19485">
        <ele>465.8</ele>
        <time>2021-10-28 13:13:12</time>
      </trkpt>
      <trkpt lat="43.27043" lon="-3.19479">
        <ele>465.2</ele>
        <time>2021-10-28 13:13:13</time>
      </trkpt>
      <trkpt lat="43.27031" lon="-3.19464">
        <ele>464.4</ele>
        <time>2021-10-28 13:13:14</time>
      </trkpt>
      <trkpt lat="43.27031" lon="-3.19464">
        <ele>463.4</ele>
        <time>2021-10-28 13:13:15</time>
      </trkpt>
      <trkpt lat="43.27023" lon="-3.19442">
        <ele>462.6</ele>
        <time>2021-10-28 13:13:16</time>
      </trkpt>
      <trkpt lat="43.27023" lon="-3.19442">
        <ele>462</ele>
        <time>2021-10-28 13:13:17</time>
      </trkpt>
      <trkpt lat="43.2702" lon="-3.19429">
        <ele>461.2</ele>
        <time>2021-10-28 13:13:18</time>
      </trkpt>
      <trkpt lat="43.2702" lon="-3.19429">
        <ele>460.2</ele>
        <time>2021-10-28 13:13:19</time>
      </trkpt>
      <trkpt lat="43.27015" lon="-3.19403">
        <ele>459.4</ele>
        <time>2021-10-28 13:13:20</time>
      </trkpt>
      <trkpt lat="43.27014" lon="-3.1939">
        <ele>458.4</ele>
        <time>2021-10-28 13:13:21</time>
      </trkpt>
      <trkpt lat="43.27013" lon="-3.19377">
        <ele>457.6</ele>
        <time>2021-10-28 13:13:22</time>
      </trkpt>
      <trkpt lat="43.27013" lon="-3.19363">
        <ele>456.8</ele>
        <time>2021-10-28 13:13:23</time>
      </trkpt>
      <trkpt lat="43.27015" lon="-3.19337">
        <ele>456</ele>
        <time>2021-10-28 13:13:24</time>
      </trkpt>
      <trkpt lat="43.27015" lon="-3.19337">
        <ele>455.2</ele>
        <time>2021-10-28 13:13:25</time>
      </trkpt>
      <trkpt lat="43.27017" lon="-3.19325">
        <ele>454.4</ele>
        <time>2021-10-28 13:13:26</time>
      </trkpt>
      <trkpt lat="43.27019" lon="-3.19314">
        <ele>453.6</ele>
        <time>2021-10-28 13:13:27</time>
      </trkpt>
      <trkpt lat="43.27023" lon="-3.19303">
        <ele>453</ele>
        <time>2021-10-28 13:13:28</time>
      </trkpt>
      <trkpt lat="43.27029" lon="-3.19293">
        <ele>452.4</ele>
        <time>2021-10-28 13:13:29</time>
      </trkpt>
      <trkpt lat="43.27034" lon="-3.19283">
        <ele>451.8</ele>
        <time>2021-10-28 13:13:30</time>
      </trkpt>
      <trkpt lat="43.27045" lon="-3.19262">
        <ele>451.2</ele>
        <time>2021-10-28 13:13:31</time>
      </trkpt>
      <trkpt lat="43.27045" lon="-3.19262">
        <ele>450.6</ele>
        <time>2021-10-28 13:13:32</time>
      </trkpt>
      <trkpt lat="43.27049" lon="-3.19249">
        <ele>449.8</ele>
        <time>2021-10-28 13:13:33</time>
      </trkpt>
      <trkpt lat="43.27056" lon="-3.19225">
        <ele>449.2</ele>
        <time>2021-10-28 13:13:34</time>
      </trkpt>
      <trkpt lat="43.27056" lon="-3.19225">
        <ele>448.4</ele>
        <time>2021-10-28 13:13:35</time>
      </trkpt>
      <trkpt lat="43.27059" lon="-3.19213">
        <ele>447.6</ele>
        <time>2021-10-28 13:13:36</time>
      </trkpt>
      <trkpt lat="43.27062" lon="-3.19202">
        <ele>446.8</ele>
        <time>2021-10-28 13:13:37</time>
      </trkpt>
      <trkpt lat="43.27065" lon="-3.19192">
        <ele>446.2</ele>
        <time>2021-10-28 13:13:38</time>
      </trkpt>
      <trkpt lat="43.27067" lon="-3.19183">
        <ele>445.6</ele>
        <time>2021-10-28 13:13:39</time>
      </trkpt>
      <trkpt lat="43.27068" lon="-3.19174">
        <ele>445.4</ele>
        <time>2021-10-28 13:13:40</time>
      </trkpt>
      <trkpt lat="43.27069" lon="-3.19165">
        <ele>445.2</ele>
        <time>2021-10-28 13:13:41</time>
      </trkpt>
      <trkpt lat="43.27068" lon="-3.19156">
        <ele>445.2</ele>
        <time>2021-10-28 13:13:42</time>
      </trkpt>
      <trkpt lat="43.27063" lon="-3.1914">
        <ele>445</ele>
        <time>2021-10-28 13:13:43</time>
      </trkpt>
      <trkpt lat="43.27063" lon="-3.1914">
        <ele>444.6</ele>
        <time>2021-10-28 13:13:44</time>
      </trkpt>
      <trkpt lat="43.27054" lon="-3.19126">
        <ele>444.2</ele>
        <time>2021-10-28 13:13:45</time>
      </trkpt>
      <trkpt lat="43.27054" lon="-3.19126">
        <ele>443.8</ele>
        <time>2021-10-28 13:13:46</time>
      </trkpt>
      <trkpt lat="43.27049" lon="-3.19119">
        <ele>443.2</ele>
        <time>2021-10-28 13:13:47</time>
      </trkpt>
      <trkpt lat="43.27038" lon="-3.19106">
        <ele>442.8</ele>
        <time>2021-10-28 13:13:48</time>
      </trkpt>
      <trkpt lat="43.27038" lon="-3.19106">
        <ele>442</ele>
        <time>2021-10-28 13:13:49</time>
      </trkpt>
      <trkpt lat="43.27032" lon="-3.19099">
        <ele>441.4</ele>
        <time>2021-10-28 13:13:50</time>
      </trkpt>
      <trkpt lat="43.27026" lon="-3.19091">
        <ele>440.6</ele>
        <time>2021-10-28 13:13:51</time>
      </trkpt>
      <trkpt lat="43.27021" lon="-3.19084">
        <ele>439.8</ele>
        <time>2021-10-28 13:13:52</time>
      </trkpt>
      <trkpt lat="43.27015" lon="-3.19078">
        <ele>439</ele>
        <time>2021-10-28 13:13:53</time>
      </trkpt>
      <trkpt lat="43.27006" lon="-3.19064">
        <ele>438.4</ele>
        <time>2021-10-28 13:13:54</time>
      </trkpt>
      <trkpt lat="43.27006" lon="-3.19064">
        <ele>438</ele>
        <time>2021-10-28 13:13:55</time>
      </trkpt>
      <trkpt lat="43.27004" lon="-3.19057">
        <ele>437.6</ele>
        <time>2021-10-28 13:13:56</time>
      </trkpt>
      <trkpt lat="43.27003" lon="-3.19048">
        <ele>437.4</ele>
        <time>2021-10-28 13:13:57</time>
      </trkpt>
      <trkpt lat="43.27004" lon="-3.1904">
        <ele>437</ele>
        <time>2021-10-28 13:13:58</time>
      </trkpt>
      <trkpt lat="43.27006" lon="-3.19031">
        <ele>436.6</ele>
        <time>2021-10-28 13:13:59</time>
      </trkpt>
      <trkpt lat="43.27007" lon="-3.19022">
        <ele>436</ele>
        <time>2021-10-28 13:14:00</time>
      </trkpt>
      <trkpt lat="43.2701" lon="-3.19012">
        <ele>435.4</ele>
        <time>2021-10-28 13:14:01</time>
      </trkpt>
      <trkpt lat="43.27013" lon="-3.19003">
        <ele>434.8</ele>
        <time>2021-10-28 13:14:02</time>
      </trkpt>
      <trkpt lat="43.27016" lon="-3.18994">
        <ele>434</ele>
        <time>2021-10-28 13:14:03</time>
      </trkpt>
      <trkpt lat="43.27016" lon="-3.18994">
        <ele>433.4</ele>
        <time>2021-10-28 13:14:04</time>
      </trkpt>
      <trkpt lat="43.27022" lon="-3.1898">
        <ele>432.8</ele>
        <time>2021-10-28 13:14:05</time>
      </trkpt>
      <trkpt lat="43.27025" lon="-3.18968">
        <ele>432.2</ele>
        <time>2021-10-28 13:14:06</time>
      </trkpt>
      <trkpt lat="43.27025" lon="-3.18968">
        <ele>431.6</ele>
        <time>2021-10-28 13:14:07</time>
      </trkpt>
      <trkpt lat="43.27024" lon="-3.18957">
        <ele>431.2</ele>
        <time>2021-10-28 13:14:08</time>
      </trkpt>
      <trkpt lat="43.27024" lon="-3.18957">
        <ele>430.8</ele>
        <time>2021-10-28 13:14:09</time>
      </trkpt>
      <trkpt lat="43.27023" lon="-3.18952">
        <ele>430.6</ele>
        <time>2021-10-28 13:14:10</time>
      </trkpt>
      <trkpt lat="43.27025" lon="-3.18943">
        <ele>430.4</ele>
        <time>2021-10-28 13:14:11</time>
      </trkpt>
      <trkpt lat="43.27025" lon="-3.18943">
        <ele>430.2</ele>
        <time>2021-10-28 13:14:12</time>
      </trkpt>
      <trkpt lat="43.2703" lon="-3.18935">
        <ele>430.2</ele>
        <time>2021-10-28 13:14:13</time>
      </trkpt>
      <trkpt lat="43.2703" lon="-3.18935">
        <ele>430</ele>
        <time>2021-10-28 13:14:14</time>
      </trkpt>
      <trkpt lat="43.27032" lon="-3.18931">
        <ele>430</ele>
        <time>2021-10-28 13:14:15</time>
      </trkpt>
      <trkpt lat="43.27035" lon="-3.18928">
        <ele>430</ele>
        <time>2021-10-28 13:14:16</time>
      </trkpt>
      <trkpt lat="43.2704" lon="-3.18921">
        <ele>430.2</ele>
        <time>2021-10-28 13:14:17</time>
      </trkpt>
      <trkpt lat="43.2704" lon="-3.18921">
        <ele>430.2</ele>
        <time>2021-10-28 13:14:18</time>
      </trkpt>
      <trkpt lat="43.27042" lon="-3.18917">
        <ele>430.4</ele>
        <time>2021-10-28 13:14:19</time>
      </trkpt>
      <trkpt lat="43.27043" lon="-3.18913">
        <ele>430.4</ele>
        <time>2021-10-28 13:14:20</time>
      </trkpt>
      <trkpt lat="43.27045" lon="-3.18908">
        <ele>430.6</ele>
        <time>2021-10-28 13:14:21</time>
      </trkpt>
      <trkpt lat="43.27045" lon="-3.18904">
        <ele>430.8</ele>
        <time>2021-10-28 13:14:22</time>
      </trkpt>
      <trkpt lat="43.27046" lon="-3.18899">
        <ele>430.8</ele>
        <time>2021-10-28 13:14:23</time>
      </trkpt>
      <trkpt lat="43.27046" lon="-3.18894">
        <ele>430.8</ele>
        <time>2021-10-28 13:14:24</time>
      </trkpt>
      <trkpt lat="43.27046" lon="-3.18889">
        <ele>430.8</ele>
        <time>2021-10-28 13:14:25</time>
      </trkpt>
      <trkpt lat="43.27047" lon="-3.18884">
        <ele>430.8</ele>
        <time>2021-10-28 13:14:26</time>
      </trkpt>
      <trkpt lat="43.27047" lon="-3.18879">
        <ele>430.8</ele>
        <time>2021-10-28 13:14:27</time>
      </trkpt>
      <trkpt lat="43.27047" lon="-3.18874">
        <ele>430.8</ele>
        <time>2021-10-28 13:14:28</time>
      </trkpt>
      <trkpt lat="43.27047" lon="-3.18869">
        <ele>430.8</ele>
        <time>2021-10-28 13:14:29</time>
      </trkpt>
      <trkpt lat="43.27048" lon="-3.18865">
        <ele>430.6</ele>
        <time>2021-10-28 13:14:30</time>
      </trkpt>
      <trkpt lat="43.27048" lon="-3.1886">
        <ele>430.2</ele>
        <time>2021-10-28 13:14:31</time>
      </trkpt>
      <trkpt lat="43.27048" lon="-3.18856">
        <ele>430.2</ele>
        <time>2021-10-28 13:14:32</time>
      </trkpt>
      <trkpt lat="43.27048" lon="-3.18853">
        <ele>430</ele>
        <time>2021-10-28 13:14:33</time>
      </trkpt>
      <trkpt lat="43.27048" lon="-3.1885">
        <ele>430</ele>
        <time>2021-10-28 13:14:34</time>
      </trkpt>
      <trkpt lat="43.27048" lon="-3.18845">
        <ele>429.8</ele>
        <time>2021-10-28 13:14:35</time>
      </trkpt>
      <trkpt lat="43.27048" lon="-3.18845">
        <ele>429.6</ele>
        <time>2021-10-28 13:14:36</time>
      </trkpt>
      <trkpt lat="43.27047" lon="-3.18842">
        <ele>429.4</ele>
        <time>2021-10-28 13:14:37</time>
      </trkpt>
      <trkpt lat="43.27047" lon="-3.1884">
        <ele>429.4</ele>
        <time>2021-10-28 13:14:38</time>
      </trkpt>
      <trkpt lat="43.27047" lon="-3.18839">
        <ele>429.2</ele>
        <time>2021-10-28 13:14:39</time>
      </trkpt>
      <trkpt lat="43.27047" lon="-3.18839">
        <ele>429.2</ele>
        <time>2021-10-28 13:14:40</time>
      </trkpt>
      <trkpt lat="43.27047" lon="-3.18839">
        <ele>429.2</ele>
        <time>2021-10-28 13:14:41</time>
      </trkpt>
      <trkpt lat="43.27047" lon="-3.18839">
        <ele>429.2</ele>
        <time>2021-10-28 13:14:42</time>
      </trkpt>
      <trkpt lat="43.27047" lon="-3.18839">
        <ele>429.2</ele>
        <time>2021-10-28 13:14:43</time>
      </trkpt>
      <trkpt lat="43.27047" lon="-3.18839">
        <ele>429.2</ele>
        <time>2021-10-28 13:14:44</time>
      </trkpt>
      <trkpt lat="43.27047" lon="-3.18839">
        <ele>429.2</ele>
        <time>2021-10-28 13:14:45</time>
      </trkpt>
      <trkpt lat="43.27047" lon="-3.18838">
        <ele>429</ele>
        <time>2021-10-28 13:14:46</time>
      </trkpt>
      <trkpt lat="43.27047" lon="-3.18837">
        <ele>428.8</ele>
        <time>2021-10-28 13:14:47</time>
      </trkpt>
      <trkpt lat="43.27046" lon="-3.18835">
        <ele>428.6</ele>
        <time>2021-10-28 13:14:48</time>
      </trkpt>
      <trkpt lat="43.27041" lon="-3.18807">
        <ele>425.6</ele>
        <time>2021-10-28 13:14:49</time>
      </trkpt>
      <trkpt lat="43.27041" lon="-3.18802">
        <ele>425.2</ele>
        <time>2021-10-28 13:14:50</time>
      </trkpt>
      <trkpt lat="43.2704" lon="-3.18796">
        <ele>424.8</ele>
        <time>2021-10-28 13:14:51</time>
      </trkpt>
      <trkpt lat="43.2704" lon="-3.1879">
        <ele>424.4</ele>
        <time>2021-10-28 13:14:52</time>
      </trkpt>
      <trkpt lat="43.27039" lon="-3.18783">
        <ele>424</ele>
        <time>2021-10-28 13:14:53</time>
      </trkpt>
      <trkpt lat="43.27039" lon="-3.18777">
        <ele>423.8</ele>
        <time>2021-10-28 13:14:54</time>
      </trkpt>
      <trkpt lat="43.27039" lon="-3.1877">
        <ele>423.4</ele>
        <time>2021-10-28 13:14:55</time>
      </trkpt>
      <trkpt lat="43.27038" lon="-3.18763">
        <ele>423</ele>
        <time>2021-10-28 13:14:56</time>
      </trkpt>
      <trkpt lat="43.27038" lon="-3.18756">
        <ele>422.4</ele>
        <time>2021-10-28 13:14:57</time>
      </trkpt>
      <trkpt lat="43.27038" lon="-3.18749">
        <ele>421.8</ele>
        <time>2021-10-28 13:14:58</time>
      </trkpt>
      <trkpt lat="43.27038" lon="-3.18736">
        <ele>421.4</ele>
        <time>2021-10-28 13:14:59</time>
      </trkpt>
      <trkpt lat="43.27038" lon="-3.18736">
        <ele>420.8</ele>
        <time>2021-10-28 13:15:00</time>
      </trkpt>
      <trkpt lat="43.27038" lon="-3.18729">
        <ele>420.2</ele>
        <time>2021-10-28 13:15:01</time>
      </trkpt>
      <trkpt lat="43.27037" lon="-3.18723">
        <ele>419.6</ele>
        <time>2021-10-28 13:15:02</time>
      </trkpt>
      <trkpt lat="43.27037" lon="-3.18716">
        <ele>419</ele>
        <time>2021-10-28 13:15:03</time>
      </trkpt>
      <trkpt lat="43.27037" lon="-3.18709">
        <ele>418.6</ele>
        <time>2021-10-28 13:15:04</time>
      </trkpt>
      <trkpt lat="43.27037" lon="-3.18701">
        <ele>418.2</ele>
        <time>2021-10-28 13:15:05</time>
      </trkpt>
      <trkpt lat="43.27037" lon="-3.18694">
        <ele>417.8</ele>
        <time>2021-10-28 13:15:06</time>
      </trkpt>
      <trkpt lat="43.27036" lon="-3.18685">
        <ele>417.2</ele>
        <time>2021-10-28 13:15:07</time>
      </trkpt>
      <trkpt lat="43.27036" lon="-3.18668">
        <ele>416.6</ele>
        <time>2021-10-28 13:15:08</time>
      </trkpt>
      <trkpt lat="43.27036" lon="-3.18668">
        <ele>416.2</ele>
        <time>2021-10-28 13:15:09</time>
      </trkpt>
      <trkpt lat="43.27037" lon="-3.18653">
        <ele>415.8</ele>
        <time>2021-10-28 13:15:10</time>
      </trkpt>
      <trkpt lat="43.27037" lon="-3.18653">
        <ele>415.6</ele>
        <time>2021-10-28 13:15:11</time>
      </trkpt>
      <trkpt lat="43.27037" lon="-3.18639">
        <ele>415.6</ele>
        <time>2021-10-28 13:15:12</time>
      </trkpt>
      <trkpt lat="43.27037" lon="-3.18639">
        <ele>415.4</ele>
        <time>2021-10-28 13:15:13</time>
      </trkpt>
      <trkpt lat="43.27037" lon="-3.18633">
        <ele>415.2</ele>
        <time>2021-10-28 13:15:14</time>
      </trkpt>
      <trkpt lat="43.27038" lon="-3.18617">
        <ele>415</ele>
        <time>2021-10-28 13:15:23</time>
      </trkpt>
      <trkpt lat="43.27038" lon="-3.18617">
        <ele>414.8</ele>
        <time>2021-10-28 13:15:24</time>
      </trkpt>
      <trkpt lat="43.27039" lon="-3.1861">
        <ele>414.6</ele>
        <time>2021-10-28 13:15:25</time>
      </trkpt>
      <trkpt lat="43.27041" lon="-3.18603">
        <ele>414.2</ele>
        <time>2021-10-28 13:15:26</time>
      </trkpt>
      <trkpt lat="43.27045" lon="-3.1859">
        <ele>413.8</ele>
        <time>2021-10-28 13:15:27</time>
      </trkpt>
      <trkpt lat="43.27045" lon="-3.1859">
        <ele>413.2</ele>
        <time>2021-10-28 13:15:28</time>
      </trkpt>
      <trkpt lat="43.27047" lon="-3.18581">
        <ele>412.6</ele>
        <time>2021-10-28 13:15:29</time>
      </trkpt>
      <trkpt lat="43.2705" lon="-3.18564">
        <ele>412</ele>
        <time>2021-10-28 13:15:30</time>
      </trkpt>
      <trkpt lat="43.2705" lon="-3.18564">
        <ele>411.4</ele>
        <time>2021-10-28 13:15:31</time>
      </trkpt>
      <trkpt lat="43.27052" lon="-3.18546">
        <ele>410.8</ele>
        <time>2021-10-28 13:15:32</time>
      </trkpt>
      <trkpt lat="43.27052" lon="-3.18546">
        <ele>410.4</ele>
        <time>2021-10-28 13:15:33</time>
      </trkpt>
      <trkpt lat="43.27053" lon="-3.18537">
        <ele>409.8</ele>
        <time>2021-10-28 13:15:34</time>
      </trkpt>
      <trkpt lat="43.27054" lon="-3.18518">
        <ele>409.4</ele>
        <time>2021-10-28 13:15:35</time>
      </trkpt>
      <trkpt lat="43.27054" lon="-3.18518">
        <ele>409</ele>
        <time>2021-10-28 13:15:36</time>
      </trkpt>
      <trkpt lat="43.27056" lon="-3.18499">
        <ele>408.4</ele>
        <time>2021-10-28 13:15:37</time>
      </trkpt>
      <trkpt lat="43.27056" lon="-3.18499">
        <ele>408</ele>
        <time>2021-10-28 13:15:38</time>
      </trkpt>
      <trkpt lat="43.27059" lon="-3.18478">
        <ele>407.4</ele>
        <time>2021-10-28 13:15:39</time>
      </trkpt>
      <trkpt lat="43.27059" lon="-3.18478">
        <ele>407</ele>
        <time>2021-10-28 13:15:40</time>
      </trkpt>
      <trkpt lat="43.27061" lon="-3.18468">
        <ele>406.6</ele>
        <time>2021-10-28 13:15:41</time>
      </trkpt>
      <trkpt lat="43.27066" lon="-3.18449">
        <ele>406.4</ele>
        <time>2021-10-28 13:15:42</time>
      </trkpt>
      <trkpt lat="43.27066" lon="-3.18449">
        <ele>406</ele>
        <time>2021-10-28 13:15:43</time>
      </trkpt>
      <trkpt lat="43.27071" lon="-3.18429">
        <ele>405.6</ele>
        <time>2021-10-28 13:15:44</time>
      </trkpt>
      <trkpt lat="43.27071" lon="-3.18429">
        <ele>405</ele>
        <time>2021-10-28 13:15:45</time>
      </trkpt>
      <trkpt lat="43.27072" lon="-3.1842">
        <ele>404.4</ele>
        <time>2021-10-28 13:15:46</time>
      </trkpt>
      <trkpt lat="43.27077" lon="-3.18403">
        <ele>404</ele>
        <time>2021-10-28 13:15:47</time>
      </trkpt>
      <trkpt lat="43.27077" lon="-3.18403">
        <ele>403.8</ele>
        <time>2021-10-28 13:15:48</time>
      </trkpt>
      <trkpt lat="43.2708" lon="-3.18395">
        <ele>403.6</ele>
        <time>2021-10-28 13:15:49</time>
      </trkpt>
      <trkpt lat="43.27083" lon="-3.18388">
        <ele>403.6</ele>
        <time>2021-10-28 13:15:50</time>
      </trkpt>
      <trkpt lat="43.27088" lon="-3.18376">
        <ele>403.8</ele>
        <time>2021-10-28 13:15:51</time>
      </trkpt>
      <trkpt lat="43.27088" lon="-3.18376">
        <ele>403.8</ele>
        <time>2021-10-28 13:15:52</time>
      </trkpt>
      <trkpt lat="43.2709" lon="-3.1837">
        <ele>403.8</ele>
        <time>2021-10-28 13:15:53</time>
      </trkpt>
      <trkpt lat="43.27092" lon="-3.18363">
        <ele>403.8</ele>
        <time>2021-10-28 13:15:54</time>
      </trkpt>
      <trkpt lat="43.27094" lon="-3.18356">
        <ele>403.6</ele>
        <time>2021-10-28 13:15:55</time>
      </trkpt>
      <trkpt lat="43.27097" lon="-3.18349">
        <ele>403.4</ele>
        <time>2021-10-28 13:15:56</time>
      </trkpt>
      <trkpt lat="43.27099" lon="-3.18342">
        <ele>403</ele>
        <time>2021-10-28 13:15:57</time>
      </trkpt>
      <trkpt lat="43.27102" lon="-3.18334">
        <ele>402.4</ele>
        <time>2021-10-28 13:15:58</time>
      </trkpt>
      <trkpt lat="43.27105" lon="-3.18327">
        <ele>402</ele>
        <time>2021-10-28 13:15:59</time>
      </trkpt>
      <trkpt lat="43.27106" lon="-3.18319">
        <ele>401.6</ele>
        <time>2021-10-28 13:16:00</time>
      </trkpt>
      <trkpt lat="43.27107" lon="-3.18311">
        <ele>401</ele>
        <time>2021-10-28 13:16:01</time>
      </trkpt>
      <trkpt lat="43.27109" lon="-3.18293">
        <ele>400.6</ele>
        <time>2021-10-28 13:16:02</time>
      </trkpt>
      <trkpt lat="43.27109" lon="-3.18293">
        <ele>400.2</ele>
        <time>2021-10-28 13:16:03</time>
      </trkpt>
      <trkpt lat="43.2711" lon="-3.18283">
        <ele>399.6</ele>
        <time>2021-10-28 13:16:04</time>
      </trkpt>
      <trkpt lat="43.2711" lon="-3.18274">
        <ele>399</ele>
        <time>2021-10-28 13:16:05</time>
      </trkpt>
      <trkpt lat="43.27111" lon="-3.18265">
        <ele>398.4</ele>
        <time>2021-10-28 13:16:06</time>
      </trkpt>
      <trkpt lat="43.27112" lon="-3.18257">
        <ele>397.8</ele>
        <time>2021-10-28 13:16:07</time>
      </trkpt>
      <trkpt lat="43.27113" lon="-3.1825">
        <ele>397.2</ele>
        <time>2021-10-28 13:16:08</time>
      </trkpt>
      <trkpt lat="43.27114" lon="-3.18242">
        <ele>396.6</ele>
        <time>2021-10-28 13:16:09</time>
      </trkpt>
      <trkpt lat="43.27114" lon="-3.18235">
        <ele>396</ele>
        <time>2021-10-28 13:16:10</time>
      </trkpt>
      <trkpt lat="43.27116" lon="-3.18221">
        <ele>395.4</ele>
        <time>2021-10-28 13:16:11</time>
      </trkpt>
      <trkpt lat="43.27116" lon="-3.18221">
        <ele>394.8</ele>
        <time>2021-10-28 13:16:12</time>
      </trkpt>
      <trkpt lat="43.27117" lon="-3.18214">
        <ele>394.2</ele>
        <time>2021-10-28 13:16:13</time>
      </trkpt>
      <trkpt lat="43.27118" lon="-3.18206">
        <ele>393.8</ele>
        <time>2021-10-28 13:16:14</time>
      </trkpt>
      <trkpt lat="43.27118" lon="-3.18199">
        <ele>393.4</ele>
        <time>2021-10-28 13:16:15</time>
      </trkpt>
      <trkpt lat="43.2712" lon="-3.18183">
        <ele>392.8</ele>
        <time>2021-10-28 13:16:16</time>
      </trkpt>
      <trkpt lat="43.2712" lon="-3.18183">
        <ele>392.4</ele>
        <time>2021-10-28 13:16:17</time>
      </trkpt>
      <trkpt lat="43.27121" lon="-3.18175">
        <ele>392</ele>
        <time>2021-10-28 13:16:18</time>
      </trkpt>
      <trkpt lat="43.27121" lon="-3.18165">
        <ele>391.4</ele>
        <time>2021-10-28 13:16:19</time>
      </trkpt>
      <trkpt lat="43.2712" lon="-3.18156">
        <ele>390.8</ele>
        <time>2021-10-28 13:16:20</time>
      </trkpt>
      <trkpt lat="43.27118" lon="-3.18138">
        <ele>390</ele>
        <time>2021-10-28 13:16:21</time>
      </trkpt>
      <trkpt lat="43.27118" lon="-3.18138">
        <ele>389.4</ele>
        <time>2021-10-28 13:16:22</time>
      </trkpt>
      <trkpt lat="43.27117" lon="-3.1813">
        <ele>388.8</ele>
        <time>2021-10-28 13:16:23</time>
      </trkpt>
      <trkpt lat="43.27115" lon="-3.18125">
        <ele>388.2</ele>
        <time>2021-10-28 13:16:24</time>
      </trkpt>
      <trkpt lat="43.27113" lon="-3.18121">
        <ele>387.8</ele>
        <time>2021-10-28 13:16:25</time>
      </trkpt>
      <trkpt lat="43.27112" lon="-3.18116">
        <ele>387.2</ele>
        <time>2021-10-28 13:16:26</time>
      </trkpt>
      <trkpt lat="43.27111" lon="-3.1811">
        <ele>386.8</ele>
        <time>2021-10-28 13:16:27</time>
      </trkpt>
      <trkpt lat="43.27109" lon="-3.18105">
        <ele>386.4</ele>
        <time>2021-10-28 13:16:28</time>
      </trkpt>
      <trkpt lat="43.27107" lon="-3.18101">
        <ele>386</ele>
        <time>2021-10-28 13:16:29</time>
      </trkpt>
      <trkpt lat="43.27105" lon="-3.18096">
        <ele>385.6</ele>
        <time>2021-10-28 13:16:30</time>
      </trkpt>
      <trkpt lat="43.27101" lon="-3.18093">
        <ele>385.2</ele>
        <time>2021-10-28 13:16:31</time>
      </trkpt>
      <trkpt lat="43.27097" lon="-3.18088">
        <ele>384.8</ele>
        <time>2021-10-28 13:16:32</time>
      </trkpt>
      <trkpt lat="43.27092" lon="-3.18086">
        <ele>384.4</ele>
        <time>2021-10-28 13:16:33</time>
      </trkpt>
      <trkpt lat="43.27087" lon="-3.18082">
        <ele>383.8</ele>
        <time>2021-10-28 13:16:34</time>
      </trkpt>
      <trkpt lat="43.27082" lon="-3.18078">
        <ele>383.4</ele>
        <time>2021-10-28 13:16:35</time>
      </trkpt>
      <trkpt lat="43.27079" lon="-3.18073">
        <ele>382.8</ele>
        <time>2021-10-28 13:16:36</time>
      </trkpt>
      <trkpt lat="43.27076" lon="-3.18068">
        <ele>382.2</ele>
        <time>2021-10-28 13:16:37</time>
      </trkpt>
      <trkpt lat="43.27074" lon="-3.18064">
        <ele>381.6</ele>
        <time>2021-10-28 13:16:38</time>
      </trkpt>
      <trkpt lat="43.27074" lon="-3.18059">
        <ele>381</ele>
        <time>2021-10-28 13:16:39</time>
      </trkpt>
      <trkpt lat="43.27074" lon="-3.18053">
        <ele>380.6</ele>
        <time>2021-10-28 13:16:40</time>
      </trkpt>
      <trkpt lat="43.27076" lon="-3.18047">
        <ele>380.2</ele>
        <time>2021-10-28 13:16:41</time>
      </trkpt>
      <trkpt lat="43.27077" lon="-3.18038">
        <ele>379.8</ele>
        <time>2021-10-28 13:16:42</time>
      </trkpt>
      <trkpt lat="43.27079" lon="-3.18029">
        <ele>379.2</ele>
        <time>2021-10-28 13:16:43</time>
      </trkpt>
      <trkpt lat="43.27079" lon="-3.18021">
        <ele>378.6</ele>
        <time>2021-10-28 13:16:44</time>
      </trkpt>
      <trkpt lat="43.2708" lon="-3.18012">
        <ele>378</ele>
        <time>2021-10-28 13:16:45</time>
      </trkpt>
      <trkpt lat="43.2708" lon="-3.18003">
        <ele>377.2</ele>
        <time>2021-10-28 13:16:46</time>
      </trkpt>
      <trkpt lat="43.27079" lon="-3.17994">
        <ele>376.4</ele>
        <time>2021-10-28 13:16:47</time>
      </trkpt>
      <trkpt lat="43.2708" lon="-3.17985">
        <ele>375.8</ele>
        <time>2021-10-28 13:16:48</time>
      </trkpt>
      <trkpt lat="43.27081" lon="-3.17976">
        <ele>375</ele>
        <time>2021-10-28 13:16:49</time>
      </trkpt>
      <trkpt lat="43.27084" lon="-3.17968">
        <ele>374.2</ele>
        <time>2021-10-28 13:16:50</time>
      </trkpt>
      <trkpt lat="43.27086" lon="-3.1796">
        <ele>373.6</ele>
        <time>2021-10-28 13:16:51</time>
      </trkpt>
      <trkpt lat="43.27089" lon="-3.17953">
        <ele>373</ele>
        <time>2021-10-28 13:16:52</time>
      </trkpt>
      <trkpt lat="43.27093" lon="-3.17946">
        <ele>372.4</ele>
        <time>2021-10-28 13:16:53</time>
      </trkpt>
      <trkpt lat="43.27096" lon="-3.17941">
        <ele>371.8</ele>
        <time>2021-10-28 13:16:54</time>
      </trkpt>
      <trkpt lat="43.27099" lon="-3.17934">
        <ele>371.2</ele>
        <time>2021-10-28 13:16:55</time>
      </trkpt>
      <trkpt lat="43.27101" lon="-3.17928">
        <ele>370.4</ele>
        <time>2021-10-28 13:16:56</time>
      </trkpt>
      <trkpt lat="43.27104" lon="-3.1792">
        <ele>369.8</ele>
        <time>2021-10-28 13:16:57</time>
      </trkpt>
      <trkpt lat="43.27106" lon="-3.17912">
        <ele>369.2</ele>
        <time>2021-10-28 13:16:58</time>
      </trkpt>
      <trkpt lat="43.27109" lon="-3.17898">
        <ele>368.4</ele>
        <time>2021-10-28 13:16:59</time>
      </trkpt>
      <trkpt lat="43.27109" lon="-3.17898">
        <ele>367.6</ele>
        <time>2021-10-28 13:17:00</time>
      </trkpt>
      <trkpt lat="43.27109" lon="-3.17889">
        <ele>367</ele>
        <time>2021-10-28 13:17:01</time>
      </trkpt>
      <trkpt lat="43.2711" lon="-3.17881">
        <ele>366.4</ele>
        <time>2021-10-28 13:17:02</time>
      </trkpt>
      <trkpt lat="43.27108" lon="-3.17872">
        <ele>365.8</ele>
        <time>2021-10-28 13:17:03</time>
      </trkpt>
      <trkpt lat="43.27106" lon="-3.17862">
        <ele>365</ele>
        <time>2021-10-28 13:17:04</time>
      </trkpt>
      <trkpt lat="43.27101" lon="-3.17846">
        <ele>364.4</ele>
        <time>2021-10-28 13:17:05</time>
      </trkpt>
      <trkpt lat="43.27101" lon="-3.17846">
        <ele>363.6</ele>
        <time>2021-10-28 13:17:06</time>
      </trkpt>
      <trkpt lat="43.27099" lon="-3.17837">
        <ele>362.8</ele>
        <time>2021-10-28 13:17:07</time>
      </trkpt>
      <trkpt lat="43.27096" lon="-3.17821">
        <ele>362.2</ele>
        <time>2021-10-28 13:17:08</time>
      </trkpt>
      <trkpt lat="43.27096" lon="-3.17821">
        <ele>361.4</ele>
        <time>2021-10-28 13:17:09</time>
      </trkpt>
      <trkpt lat="43.27095" lon="-3.17812">
        <ele>360.8</ele>
        <time>2021-10-28 13:17:10</time>
      </trkpt>
      <trkpt lat="43.27095" lon="-3.17803">
        <ele>360.2</ele>
        <time>2021-10-28 13:17:11</time>
      </trkpt>
      <trkpt lat="43.27097" lon="-3.17795">
        <ele>359.6</ele>
        <time>2021-10-28 13:17:12</time>
      </trkpt>
      <trkpt lat="43.27098" lon="-3.17787">
        <ele>358.8</ele>
        <time>2021-10-28 13:17:13</time>
      </trkpt>
      <trkpt lat="43.27099" lon="-3.17778">
        <ele>358.2</ele>
        <time>2021-10-28 13:17:14</time>
      </trkpt>
      <trkpt lat="43.27102" lon="-3.17764">
        <ele>357.4</ele>
        <time>2021-10-28 13:17:15</time>
      </trkpt>
      <trkpt lat="43.27102" lon="-3.17764">
        <ele>356.8</ele>
        <time>2021-10-28 13:17:16</time>
      </trkpt>
      <trkpt lat="43.27103" lon="-3.17756">
        <ele>356.2</ele>
        <time>2021-10-28 13:17:17</time>
      </trkpt>
      <trkpt lat="43.27104" lon="-3.17748">
        <ele>355.4</ele>
        <time>2021-10-28 13:17:18</time>
      </trkpt>
      <trkpt lat="43.27106" lon="-3.17732">
        <ele>354.6</ele>
        <time>2021-10-28 13:17:19</time>
      </trkpt>
      <trkpt lat="43.27106" lon="-3.17732">
        <ele>354</ele>
        <time>2021-10-28 13:17:20</time>
      </trkpt>
      <trkpt lat="43.27106" lon="-3.17722">
        <ele>353.2</ele>
        <time>2021-10-28 13:17:21</time>
      </trkpt>
      <trkpt lat="43.27107" lon="-3.17714">
        <ele>352.6</ele>
        <time>2021-10-28 13:17:22</time>
      </trkpt>
      <trkpt lat="43.27108" lon="-3.17707">
        <ele>352</ele>
        <time>2021-10-28 13:17:23</time>
      </trkpt>
      <trkpt lat="43.27108" lon="-3.17707">
        <ele>351.4</ele>
        <time>2021-10-28 13:17:24</time>
      </trkpt>
      <trkpt lat="43.27108" lon="-3.17691">
        <ele>350.8</ele>
        <time>2021-10-28 13:17:25</time>
      </trkpt>
      <trkpt lat="43.27109" lon="-3.17681">
        <ele>350.2</ele>
        <time>2021-10-28 13:17:26</time>
      </trkpt>
      <trkpt lat="43.27108" lon="-3.17672">
        <ele>349.6</ele>
        <time>2021-10-28 13:17:27</time>
      </trkpt>
      <trkpt lat="43.27106" lon="-3.17662">
        <ele>348.8</ele>
        <time>2021-10-28 13:17:28</time>
      </trkpt>
      <trkpt lat="43.27102" lon="-3.17651">
        <ele>348</ele>
        <time>2021-10-28 13:17:29</time>
      </trkpt>
      <trkpt lat="43.27099" lon="-3.17639">
        <ele>347.4</ele>
        <time>2021-10-28 13:17:30</time>
      </trkpt>
      <trkpt lat="43.27098" lon="-3.17629">
        <ele>346.8</ele>
        <time>2021-10-28 13:17:31</time>
      </trkpt>
      <trkpt lat="43.27098" lon="-3.17629">
        <ele>346.6</ele>
        <time>2021-10-28 13:17:32</time>
      </trkpt>
      <trkpt lat="43.27097" lon="-3.17608">
        <ele>346.2</ele>
        <time>2021-10-28 13:17:33</time>
      </trkpt>
      <trkpt lat="43.27099" lon="-3.17598">
        <ele>346</ele>
        <time>2021-10-28 13:17:34</time>
      </trkpt>
      <trkpt lat="43.271" lon="-3.17589">
        <ele>345.8</ele>
        <time>2021-10-28 13:17:35</time>
      </trkpt>
      <trkpt lat="43.27102" lon="-3.17579">
        <ele>345.8</ele>
        <time>2021-10-28 13:17:36</time>
      </trkpt>
      <trkpt lat="43.27102" lon="-3.17572">
        <ele>345.8</ele>
        <time>2021-10-28 13:17:37</time>
      </trkpt>
      <trkpt lat="43.27103" lon="-3.17564">
        <ele>345.8</ele>
        <time>2021-10-28 13:17:38</time>
      </trkpt>
      <trkpt lat="43.27105" lon="-3.17558">
        <ele>345.8</ele>
        <time>2021-10-28 13:17:39</time>
      </trkpt>
      <trkpt lat="43.27106" lon="-3.17551">
        <ele>345.8</ele>
        <time>2021-10-28 13:17:40</time>
      </trkpt>
      <trkpt lat="43.27107" lon="-3.17544">
        <ele>346</ele>
        <time>2021-10-28 13:17:41</time>
      </trkpt>
      <trkpt lat="43.27107" lon="-3.17538">
        <ele>346</ele>
        <time>2021-10-28 13:17:42</time>
      </trkpt>
      <trkpt lat="43.27107" lon="-3.17528">
        <ele>346</ele>
        <time>2021-10-28 13:17:43</time>
      </trkpt>
      <trkpt lat="43.27107" lon="-3.17528">
        <ele>346</ele>
        <time>2021-10-28 13:17:44</time>
      </trkpt>
      <trkpt lat="43.27107" lon="-3.17524">
        <ele>345.8</ele>
        <time>2021-10-28 13:17:45</time>
      </trkpt>
      <trkpt lat="43.27108" lon="-3.1752">
        <ele>345.8</ele>
        <time>2021-10-28 13:17:46</time>
      </trkpt>
      <trkpt lat="43.27108" lon="-3.17516">
        <ele>345.6</ele>
        <time>2021-10-28 13:17:47</time>
      </trkpt>
      <trkpt lat="43.27108" lon="-3.17511">
        <ele>345.6</ele>
        <time>2021-10-28 13:17:48</time>
      </trkpt>
      <trkpt lat="43.27109" lon="-3.17506">
        <ele>345.4</ele>
        <time>2021-10-28 13:17:49</time>
      </trkpt>
      <trkpt lat="43.27109" lon="-3.17501">
        <ele>345.2</ele>
        <time>2021-10-28 13:17:50</time>
      </trkpt>
      <trkpt lat="43.27108" lon="-3.17495">
        <ele>345.2</ele>
        <time>2021-10-28 13:17:51</time>
      </trkpt>
      <trkpt lat="43.27108" lon="-3.17489">
        <ele>345</ele>
        <time>2021-10-28 13:17:52</time>
      </trkpt>
      <trkpt lat="43.27106" lon="-3.17483">
        <ele>344.8</ele>
        <time>2021-10-28 13:17:53</time>
      </trkpt>
      <trkpt lat="43.27105" lon="-3.17476">
        <ele>344.8</ele>
        <time>2021-10-28 13:17:54</time>
      </trkpt>
      <trkpt lat="43.27103" lon="-3.17469">
        <ele>344.8</ele>
        <time>2021-10-28 13:17:55</time>
      </trkpt>
      <trkpt lat="43.27102" lon="-3.17462">
        <ele>344.8</ele>
        <time>2021-10-28 13:17:56</time>
      </trkpt>
      <trkpt lat="43.271" lon="-3.17455">
        <ele>344.8</ele>
        <time>2021-10-28 13:17:57</time>
      </trkpt>
      <trkpt lat="43.27098" lon="-3.17448">
        <ele>344.6</ele>
        <time>2021-10-28 13:17:58</time>
      </trkpt>
      <trkpt lat="43.27095" lon="-3.17435">
        <ele>344.4</ele>
        <time>2021-10-28 13:17:59</time>
      </trkpt>
      <trkpt lat="43.27095" lon="-3.17435">
        <ele>344.2</ele>
        <time>2021-10-28 13:18:00</time>
      </trkpt>
      <trkpt lat="43.27093" lon="-3.17428">
        <ele>343.8</ele>
        <time>2021-10-28 13:18:01</time>
      </trkpt>
      <trkpt lat="43.27092" lon="-3.1742">
        <ele>343.6</ele>
        <time>2021-10-28 13:18:02</time>
      </trkpt>
      <trkpt lat="43.27091" lon="-3.17413">
        <ele>343.2</ele>
        <time>2021-10-28 13:18:03</time>
      </trkpt>
      <trkpt lat="43.2709" lon="-3.17396">
        <ele>343</ele>
        <time>2021-10-28 13:18:04</time>
      </trkpt>
      <trkpt lat="43.2709" lon="-3.17396">
        <ele>342.6</ele>
        <time>2021-10-28 13:18:05</time>
      </trkpt>
      <trkpt lat="43.2709" lon="-3.17388">
        <ele>342.2</ele>
        <time>2021-10-28 13:18:06</time>
      </trkpt>
      <trkpt lat="43.2709" lon="-3.17381">
        <ele>341.8</ele>
        <time>2021-10-28 13:18:07</time>
      </trkpt>
      <trkpt lat="43.2709" lon="-3.17372">
        <ele>341.6</ele>
        <time>2021-10-28 13:18:08</time>
      </trkpt>
      <trkpt lat="43.2709" lon="-3.17362">
        <ele>341.2</ele>
        <time>2021-10-28 13:18:09</time>
      </trkpt>
      <trkpt lat="43.27091" lon="-3.17352">
        <ele>340.6</ele>
        <time>2021-10-28 13:18:10</time>
      </trkpt>
      <trkpt lat="43.27092" lon="-3.17342">
        <ele>340</ele>
        <time>2021-10-28 13:18:11</time>
      </trkpt>
      <trkpt lat="43.27093" lon="-3.17332">
        <ele>339.4</ele>
        <time>2021-10-28 13:18:12</time>
      </trkpt>
      <trkpt lat="43.27095" lon="-3.17322">
        <ele>338.8</ele>
        <time>2021-10-28 13:18:13</time>
      </trkpt>
      <trkpt lat="43.27097" lon="-3.17301">
        <ele>338</ele>
        <time>2021-10-28 13:18:14</time>
      </trkpt>
      <trkpt lat="43.27097" lon="-3.17301">
        <ele>337.4</ele>
        <time>2021-10-28 13:18:15</time>
      </trkpt>
      <trkpt lat="43.27098" lon="-3.1729">
        <ele>336.6</ele>
        <time>2021-10-28 13:18:16</time>
      </trkpt>
      <trkpt lat="43.271" lon="-3.1728">
        <ele>336</ele>
        <time>2021-10-28 13:18:17</time>
      </trkpt>
      <trkpt lat="43.27102" lon="-3.17271">
        <ele>335.4</ele>
        <time>2021-10-28 13:18:18</time>
      </trkpt>
      <trkpt lat="43.27104" lon="-3.17262">
        <ele>334.6</ele>
        <time>2021-10-28 13:18:19</time>
      </trkpt>
      <trkpt lat="43.27106" lon="-3.17253">
        <ele>334</ele>
        <time>2021-10-28 13:18:20</time>
      </trkpt>
      <trkpt lat="43.27108" lon="-3.17244">
        <ele>333.2</ele>
        <time>2021-10-28 13:18:21</time>
      </trkpt>
      <trkpt lat="43.27111" lon="-3.17235">
        <ele>332.4</ele>
        <time>2021-10-28 13:18:22</time>
      </trkpt>
      <trkpt lat="43.27112" lon="-3.17225">
        <ele>331.6</ele>
        <time>2021-10-28 13:18:23</time>
      </trkpt>
      <trkpt lat="43.27114" lon="-3.17216">
        <ele>330.8</ele>
        <time>2021-10-28 13:18:24</time>
      </trkpt>
      <trkpt lat="43.27116" lon="-3.17208">
        <ele>330</ele>
        <time>2021-10-28 13:18:25</time>
      </trkpt>
      <trkpt lat="43.27118" lon="-3.17199">
        <ele>329</ele>
        <time>2021-10-28 13:18:26</time>
      </trkpt>
      <trkpt lat="43.2712" lon="-3.1719">
        <ele>328.2</ele>
        <time>2021-10-28 13:18:27</time>
      </trkpt>
      <trkpt lat="43.27121" lon="-3.1718">
        <ele>327.6</ele>
        <time>2021-10-28 13:18:28</time>
      </trkpt>
      <trkpt lat="43.27123" lon="-3.1717">
        <ele>326.8</ele>
        <time>2021-10-28 13:18:29</time>
      </trkpt>
      <trkpt lat="43.27125" lon="-3.1715">
        <ele>325.8</ele>
        <time>2021-10-28 13:18:30</time>
      </trkpt>
      <trkpt lat="43.27125" lon="-3.1715">
        <ele>324.8</ele>
        <time>2021-10-28 13:18:31</time>
      </trkpt>
      <trkpt lat="43.27126" lon="-3.17141">
        <ele>323.8</ele>
        <time>2021-10-28 13:18:32</time>
      </trkpt>
      <trkpt lat="43.27129" lon="-3.17121">
        <ele>323</ele>
        <time>2021-10-28 13:18:33</time>
      </trkpt>
      <trkpt lat="43.27129" lon="-3.17121">
        <ele>322.2</ele>
        <time>2021-10-28 13:18:34</time>
      </trkpt>
      <trkpt lat="43.2713" lon="-3.17112">
        <ele>321.4</ele>
        <time>2021-10-28 13:18:35</time>
      </trkpt>
      <trkpt lat="43.27132" lon="-3.17103">
        <ele>320.6</ele>
        <time>2021-10-28 13:18:36</time>
      </trkpt>
      <trkpt lat="43.27133" lon="-3.17094">
        <ele>319.8</ele>
        <time>2021-10-28 13:18:37</time>
      </trkpt>
      <trkpt lat="43.27136" lon="-3.17077">
        <ele>319</ele>
        <time>2021-10-28 13:18:38</time>
      </trkpt>
      <trkpt lat="43.27136" lon="-3.17077">
        <ele>318.4</ele>
        <time>2021-10-28 13:18:39</time>
      </trkpt>
      <trkpt lat="43.27139" lon="-3.1707">
        <ele>317.8</ele>
        <time>2021-10-28 13:18:40</time>
      </trkpt>
      <trkpt lat="43.27144" lon="-3.17057">
        <ele>317.2</ele>
        <time>2021-10-28 13:18:41</time>
      </trkpt>
      <trkpt lat="43.27144" lon="-3.17057">
        <ele>316.6</ele>
        <time>2021-10-28 13:18:42</time>
      </trkpt>
      <trkpt lat="43.2715" lon="-3.17044">
        <ele>316.2</ele>
        <time>2021-10-28 13:18:43</time>
      </trkpt>
      <trkpt lat="43.2715" lon="-3.17044">
        <ele>315.6</ele>
        <time>2021-10-28 13:18:44</time>
      </trkpt>
      <trkpt lat="43.27153" lon="-3.17037">
        <ele>315</ele>
        <time>2021-10-28 13:18:45</time>
      </trkpt>
      <trkpt lat="43.27156" lon="-3.17031">
        <ele>314.4</ele>
        <time>2021-10-28 13:18:46</time>
      </trkpt>
      <trkpt lat="43.27161" lon="-3.17018">
        <ele>313.8</ele>
        <time>2021-10-28 13:18:47</time>
      </trkpt>
      <trkpt lat="43.27161" lon="-3.17018">
        <ele>313.2</ele>
        <time>2021-10-28 13:18:48</time>
      </trkpt>
      <trkpt lat="43.27163" lon="-3.17011">
        <ele>312.6</ele>
        <time>2021-10-28 13:18:49</time>
      </trkpt>
      <trkpt lat="43.27163" lon="-3.17011">
        <ele>312</ele>
        <time>2021-10-28 13:18:50</time>
      </trkpt>
      <trkpt lat="43.27166" lon="-3.16999">
        <ele>311.4</ele>
        <time>2021-10-28 13:18:51</time>
      </trkpt>
      <trkpt lat="43.27167" lon="-3.16994">
        <ele>310.8</ele>
        <time>2021-10-28 13:18:52</time>
      </trkpt>
      <trkpt lat="43.27167" lon="-3.16988">
        <ele>310.2</ele>
        <time>2021-10-28 13:18:53</time>
      </trkpt>
      <trkpt lat="43.27168" lon="-3.16983">
        <ele>309.6</ele>
        <time>2021-10-28 13:18:54</time>
      </trkpt>
      <trkpt lat="43.27169" lon="-3.16978">
        <ele>309.2</ele>
        <time>2021-10-28 13:18:55</time>
      </trkpt>
      <trkpt lat="43.2717" lon="-3.16973">
        <ele>308.6</ele>
        <time>2021-10-28 13:18:56</time>
      </trkpt>
      <trkpt lat="43.2717" lon="-3.16968">
        <ele>308</ele>
        <time>2021-10-28 13:18:57</time>
      </trkpt>
      <trkpt lat="43.27171" lon="-3.16962">
        <ele>307.6</ele>
        <time>2021-10-28 13:18:58</time>
      </trkpt>
      <trkpt lat="43.2717" lon="-3.16951">
        <ele>307</ele>
        <time>2021-10-28 13:18:59</time>
      </trkpt>
      <trkpt lat="43.2717" lon="-3.16951">
        <ele>306.6</ele>
        <time>2021-10-28 13:19:00</time>
      </trkpt>
      <trkpt lat="43.27169" lon="-3.16945">
        <ele>306</ele>
        <time>2021-10-28 13:19:01</time>
      </trkpt>
      <trkpt lat="43.27168" lon="-3.1694">
        <ele>305.4</ele>
        <time>2021-10-28 13:19:02</time>
      </trkpt>
      <trkpt lat="43.27166" lon="-3.16935">
        <ele>304.8</ele>
        <time>2021-10-28 13:19:03</time>
      </trkpt>
      <trkpt lat="43.27163" lon="-3.16931">
        <ele>304.4</ele>
        <time>2021-10-28 13:19:04</time>
      </trkpt>
      <trkpt lat="43.27159" lon="-3.16926">
        <ele>303.8</ele>
        <time>2021-10-28 13:19:05</time>
      </trkpt>
      <trkpt lat="43.27149" lon="-3.16921">
        <ele>303.4</ele>
        <time>2021-10-28 13:19:06</time>
      </trkpt>
      <trkpt lat="43.27149" lon="-3.16921">
        <ele>303</ele>
        <time>2021-10-28 13:19:07</time>
      </trkpt>
      <trkpt lat="43.27144" lon="-3.1692">
        <ele>302.4</ele>
        <time>2021-10-28 13:19:08</time>
      </trkpt>
      <trkpt lat="43.27139" lon="-3.16919">
        <ele>301.8</ele>
        <time>2021-10-28 13:19:09</time>
      </trkpt>
      <trkpt lat="43.27135" lon="-3.16918">
        <ele>301.4</ele>
        <time>2021-10-28 13:19:10</time>
      </trkpt>
      <trkpt lat="43.27132" lon="-3.16916">
        <ele>300.8</ele>
        <time>2021-10-28 13:19:11</time>
      </trkpt>
      <trkpt lat="43.2713" lon="-3.16912">
        <ele>300.6</ele>
        <time>2021-10-28 13:19:12</time>
      </trkpt>
      <trkpt lat="43.2713" lon="-3.16908">
        <ele>300.2</ele>
        <time>2021-10-28 13:19:13</time>
      </trkpt>
      <trkpt lat="43.27135" lon="-3.16899">
        <ele>300</ele>
        <time>2021-10-28 13:19:14</time>
      </trkpt>
      <trkpt lat="43.27135" lon="-3.16899">
        <ele>299.6</ele>
        <time>2021-10-28 13:19:15</time>
      </trkpt>
      <trkpt lat="43.2714" lon="-3.16899">
        <ele>299.4</ele>
        <time>2021-10-28 13:19:16</time>
      </trkpt>
      <trkpt lat="43.27145" lon="-3.16899">
        <ele>299.2</ele>
        <time>2021-10-28 13:19:17</time>
      </trkpt>
      <trkpt lat="43.2715" lon="-3.169">
        <ele>298.8</ele>
        <time>2021-10-28 13:19:18</time>
      </trkpt>
      <trkpt lat="43.27153" lon="-3.16901">
        <ele>298.4</ele>
        <time>2021-10-28 13:19:19</time>
      </trkpt>
      <trkpt lat="43.27156" lon="-3.16901">
        <ele>298.2</ele>
        <time>2021-10-28 13:19:20</time>
      </trkpt>
      <trkpt lat="43.27156" lon="-3.16901">
        <ele>298</ele>
        <time>2021-10-28 13:19:21</time>
      </trkpt>
      <trkpt lat="43.27159" lon="-3.16898">
        <ele>297.8</ele>
        <time>2021-10-28 13:19:22</time>
      </trkpt>
      <trkpt lat="43.2716" lon="-3.16895">
        <ele>297.6</ele>
        <time>2021-10-28 13:19:23</time>
      </trkpt>
      <trkpt lat="43.2716" lon="-3.16892">
        <ele>297.2</ele>
        <time>2021-10-28 13:19:24</time>
      </trkpt>
      <trkpt lat="43.27159" lon="-3.16889">
        <ele>297</ele>
        <time>2021-10-28 13:19:25</time>
      </trkpt>
      <trkpt lat="43.27157" lon="-3.16887">
        <ele>296.4</ele>
        <time>2021-10-28 13:19:26</time>
      </trkpt>
      <trkpt lat="43.27155" lon="-3.16885">
        <ele>296</ele>
        <time>2021-10-28 13:19:27</time>
      </trkpt>
      <trkpt lat="43.27151" lon="-3.16884">
        <ele>295.6</ele>
        <time>2021-10-28 13:19:28</time>
      </trkpt>
      <trkpt lat="43.27146" lon="-3.16882">
        <ele>295.2</ele>
        <time>2021-10-28 13:19:29</time>
      </trkpt>
      <trkpt lat="43.27141" lon="-3.1688">
        <ele>294.8</ele>
        <time>2021-10-28 13:19:30</time>
      </trkpt>
      <trkpt lat="43.27134" lon="-3.16879">
        <ele>294.2</ele>
        <time>2021-10-28 13:19:31</time>
      </trkpt>
      <trkpt lat="43.27128" lon="-3.16878">
        <ele>293.6</ele>
        <time>2021-10-28 13:19:32</time>
      </trkpt>
      <trkpt lat="43.27115" lon="-3.16876">
        <ele>292.8</ele>
        <time>2021-10-28 13:19:33</time>
      </trkpt>
      <trkpt lat="43.27115" lon="-3.16876">
        <ele>291.8</ele>
        <time>2021-10-28 13:19:34</time>
      </trkpt>
      <trkpt lat="43.27109" lon="-3.16874">
        <ele>291</ele>
        <time>2021-10-28 13:19:35</time>
      </trkpt>
      <trkpt lat="43.27102" lon="-3.16871">
        <ele>290.2</ele>
        <time>2021-10-28 13:19:36</time>
      </trkpt>
      <trkpt lat="43.27096" lon="-3.16869">
        <ele>289.4</ele>
        <time>2021-10-28 13:19:37</time>
      </trkpt>
      <trkpt lat="43.27091" lon="-3.16867">
        <ele>288.8</ele>
        <time>2021-10-28 13:19:38</time>
      </trkpt>
      <trkpt lat="43.27085" lon="-3.16865">
        <ele>288</ele>
        <time>2021-10-28 13:19:39</time>
      </trkpt>
      <trkpt lat="43.2708" lon="-3.16863">
        <ele>287.4</ele>
        <time>2021-10-28 13:19:40</time>
      </trkpt>
      <trkpt lat="43.27071" lon="-3.16854">
        <ele>286.6</ele>
        <time>2021-10-28 13:19:41</time>
      </trkpt>
      <trkpt lat="43.27071" lon="-3.16854">
        <ele>286</ele>
        <time>2021-10-28 13:19:42</time>
      </trkpt>
      <trkpt lat="43.27067" lon="-3.16846">
        <ele>285.4</ele>
        <time>2021-10-28 13:19:43</time>
      </trkpt>
      <trkpt lat="43.27065" lon="-3.16835">
        <ele>284.8</ele>
        <time>2021-10-28 13:19:44</time>
      </trkpt>
      <trkpt lat="43.27065" lon="-3.16825">
        <ele>284.2</ele>
        <time>2021-10-28 13:19:45</time>
      </trkpt>
      <trkpt lat="43.27065" lon="-3.16816">
        <ele>283.6</ele>
        <time>2021-10-28 13:19:46</time>
      </trkpt>
      <trkpt lat="43.27066" lon="-3.16808">
        <ele>283</ele>
        <time>2021-10-28 13:19:47</time>
      </trkpt>
      <trkpt lat="43.27066" lon="-3.16802">
        <ele>282.4</ele>
        <time>2021-10-28 13:19:48</time>
      </trkpt>
      <trkpt lat="43.27067" lon="-3.16796">
        <ele>281.8</ele>
        <time>2021-10-28 13:19:49</time>
      </trkpt>
      <trkpt lat="43.27067" lon="-3.16789">
        <ele>281.2</ele>
        <time>2021-10-28 13:19:50</time>
      </trkpt>
      <trkpt lat="43.27068" lon="-3.16775">
        <ele>280.4</ele>
        <time>2021-10-28 13:19:51</time>
      </trkpt>
      <trkpt lat="43.27068" lon="-3.16775">
        <ele>279.8</ele>
        <time>2021-10-28 13:19:52</time>
      </trkpt>
      <trkpt lat="43.27069" lon="-3.16769">
        <ele>279.4</ele>
        <time>2021-10-28 13:19:53</time>
      </trkpt>
      <trkpt lat="43.27068" lon="-3.16762">
        <ele>278.6</ele>
        <time>2021-10-28 13:19:54</time>
      </trkpt>
      <trkpt lat="43.27069" lon="-3.16756">
        <ele>278.2</ele>
        <time>2021-10-28 13:19:55</time>
      </trkpt>
      <trkpt lat="43.27069" lon="-3.1675">
        <ele>277.6</ele>
        <time>2021-10-28 13:19:56</time>
      </trkpt>
      <trkpt lat="43.27069" lon="-3.16742">
        <ele>277</ele>
        <time>2021-10-28 13:19:57</time>
      </trkpt>
      <trkpt lat="43.27071" lon="-3.16734">
        <ele>276.6</ele>
        <time>2021-10-28 13:19:58</time>
      </trkpt>
      <trkpt lat="43.27074" lon="-3.16719">
        <ele>276</ele>
        <time>2021-10-28 13:19:59</time>
      </trkpt>
      <trkpt lat="43.27074" lon="-3.16719">
        <ele>275.4</ele>
        <time>2021-10-28 13:20:00</time>
      </trkpt>
      <trkpt lat="43.27076" lon="-3.16711">
        <ele>274.8</ele>
        <time>2021-10-28 13:20:01</time>
      </trkpt>
      <trkpt lat="43.27077" lon="-3.16704">
        <ele>274.2</ele>
        <time>2021-10-28 13:20:02</time>
      </trkpt>
      <trkpt lat="43.27078" lon="-3.16697">
        <ele>273.6</ele>
        <time>2021-10-28 13:20:03</time>
      </trkpt>
      <trkpt lat="43.27079" lon="-3.16689">
        <ele>273</ele>
        <time>2021-10-28 13:20:04</time>
      </trkpt>
      <trkpt lat="43.27079" lon="-3.16682">
        <ele>272.4</ele>
        <time>2021-10-28 13:20:05</time>
      </trkpt>
      <trkpt lat="43.27079" lon="-3.16674">
        <ele>271.8</ele>
        <time>2021-10-28 13:20:06</time>
      </trkpt>
      <trkpt lat="43.27078" lon="-3.16667">
        <ele>271.2</ele>
        <time>2021-10-28 13:20:07</time>
      </trkpt>
      <trkpt lat="43.27078" lon="-3.16659">
        <ele>270.4</ele>
        <time>2021-10-28 13:20:08</time>
      </trkpt>
      <trkpt lat="43.27076" lon="-3.1665">
        <ele>269.8</ele>
        <time>2021-10-28 13:20:09</time>
      </trkpt>
      <trkpt lat="43.27074" lon="-3.16641">
        <ele>269</ele>
        <time>2021-10-28 13:20:10</time>
      </trkpt>
      <trkpt lat="43.27072" lon="-3.16633">
        <ele>268.2</ele>
        <time>2021-10-28 13:20:11</time>
      </trkpt>
      <trkpt lat="43.2707" lon="-3.16624">
        <ele>267.4</ele>
        <time>2021-10-28 13:20:12</time>
      </trkpt>
      <trkpt lat="43.27068" lon="-3.16617">
        <ele>266.8</ele>
        <time>2021-10-28 13:20:13</time>
      </trkpt>
      <trkpt lat="43.27066" lon="-3.16609">
        <ele>266.2</ele>
        <time>2021-10-28 13:20:14</time>
      </trkpt>
      <trkpt lat="43.27064" lon="-3.16602">
        <ele>265.6</ele>
        <time>2021-10-28 13:20:15</time>
      </trkpt>
      <trkpt lat="43.27062" lon="-3.16595">
        <ele>264.8</ele>
        <time>2021-10-28 13:20:16</time>
      </trkpt>
      <trkpt lat="43.27061" lon="-3.16588">
        <ele>264.2</ele>
        <time>2021-10-28 13:20:17</time>
      </trkpt>
      <trkpt lat="43.2706" lon="-3.16581">
        <ele>263.4</ele>
        <time>2021-10-28 13:20:18</time>
      </trkpt>
      <trkpt lat="43.27058" lon="-3.16569">
        <ele>262.8</ele>
        <time>2021-10-28 13:20:19</time>
      </trkpt>
      <trkpt lat="43.27058" lon="-3.16569">
        <ele>262.2</ele>
        <time>2021-10-28 13:20:20</time>
      </trkpt>
      <trkpt lat="43.27056" lon="-3.16556">
        <ele>261.6</ele>
        <time>2021-10-28 13:20:21</time>
      </trkpt>
      <trkpt lat="43.27056" lon="-3.16556">
        <ele>261</ele>
        <time>2021-10-28 13:20:22</time>
      </trkpt>
      <trkpt lat="43.27055" lon="-3.16548">
        <ele>260.4</ele>
        <time>2021-10-28 13:20:23</time>
      </trkpt>
      <trkpt lat="43.27055" lon="-3.16548">
        <ele>259.6</ele>
        <time>2021-10-28 13:20:24</time>
      </trkpt>
      <trkpt lat="43.27053" lon="-3.16531">
        <ele>259</ele>
        <time>2021-10-28 13:20:25</time>
      </trkpt>
      <trkpt lat="43.27053" lon="-3.16523">
        <ele>258.2</ele>
        <time>2021-10-28 13:20:26</time>
      </trkpt>
      <trkpt lat="43.27053" lon="-3.16515">
        <ele>257.4</ele>
        <time>2021-10-28 13:20:27</time>
      </trkpt>
      <trkpt lat="43.27052" lon="-3.16507">
        <ele>256.6</ele>
        <time>2021-10-28 13:20:28</time>
      </trkpt>
      <trkpt lat="43.27052" lon="-3.16499">
        <ele>255.6</ele>
        <time>2021-10-28 13:20:29</time>
      </trkpt>
      <trkpt lat="43.27051" lon="-3.16491">
        <ele>254.8</ele>
        <time>2021-10-28 13:20:30</time>
      </trkpt>
      <trkpt lat="43.27048" lon="-3.16474">
        <ele>254</ele>
        <time>2021-10-28 13:20:31</time>
      </trkpt>
      <trkpt lat="43.27048" lon="-3.16474">
        <ele>253.2</ele>
        <time>2021-10-28 13:20:32</time>
      </trkpt>
      <trkpt lat="43.27043" lon="-3.16457">
        <ele>252.4</ele>
        <time>2021-10-28 13:20:33</time>
      </trkpt>
      <trkpt lat="43.27043" lon="-3.16457">
        <ele>251.6</ele>
        <time>2021-10-28 13:20:34</time>
      </trkpt>
      <trkpt lat="43.27041" lon="-3.16449">
        <ele>250.8</ele>
        <time>2021-10-28 13:20:35</time>
      </trkpt>
      <trkpt lat="43.27039" lon="-3.16441">
        <ele>249.8</ele>
        <time>2021-10-28 13:20:36</time>
      </trkpt>
      <trkpt lat="43.27036" lon="-3.16433">
        <ele>249</ele>
        <time>2021-10-28 13:20:37</time>
      </trkpt>
      <trkpt lat="43.27034" lon="-3.16425">
        <ele>248</ele>
        <time>2021-10-28 13:20:38</time>
      </trkpt>
      <trkpt lat="43.2703" lon="-3.16417">
        <ele>247.2</ele>
        <time>2021-10-28 13:20:39</time>
      </trkpt>
      <trkpt lat="43.27028" lon="-3.16408">
        <ele>246.4</ele>
        <time>2021-10-28 13:20:40</time>
      </trkpt>
      <trkpt lat="43.27027" lon="-3.164">
        <ele>245.6</ele>
        <time>2021-10-28 13:20:41</time>
      </trkpt>
      <trkpt lat="43.27026" lon="-3.16392">
        <ele>245</ele>
        <time>2021-10-28 13:20:42</time>
      </trkpt>
      <trkpt lat="43.27025" lon="-3.16385">
        <ele>244.4</ele>
        <time>2021-10-28 13:20:43</time>
      </trkpt>
      <trkpt lat="43.27024" lon="-3.16379">
        <ele>243.8</ele>
        <time>2021-10-28 13:20:44</time>
      </trkpt>
      <trkpt lat="43.27022" lon="-3.16373">
        <ele>243.2</ele>
        <time>2021-10-28 13:20:45</time>
      </trkpt>
      <trkpt lat="43.27021" lon="-3.16368">
        <ele>242.6</ele>
        <time>2021-10-28 13:20:46</time>
      </trkpt>
      <trkpt lat="43.2702" lon="-3.16364">
        <ele>242.2</ele>
        <time>2021-10-28 13:20:47</time>
      </trkpt>
      <trkpt lat="43.2702" lon="-3.16359">
        <ele>241.6</ele>
        <time>2021-10-28 13:20:48</time>
      </trkpt>
      <trkpt lat="43.27016" lon="-3.16353">
        <ele>241</ele>
        <time>2021-10-28 13:20:49</time>
      </trkpt>
      <trkpt lat="43.27012" lon="-3.16349">
        <ele>240.4</ele>
        <time>2021-10-28 13:20:50</time>
      </trkpt>
      <trkpt lat="43.27009" lon="-3.16346">
        <ele>239.8</ele>
        <time>2021-10-28 13:20:51</time>
      </trkpt>
      <trkpt lat="43.27006" lon="-3.1634">
        <ele>239</ele>
        <time>2021-10-28 13:20:52</time>
      </trkpt>
      <trkpt lat="43.27003" lon="-3.16335">
        <ele>238.2</ele>
        <time>2021-10-28 13:20:53</time>
      </trkpt>
      <trkpt lat="43.27001" lon="-3.16327">
        <ele>237.6</ele>
        <time>2021-10-28 13:20:54</time>
      </trkpt>
      <trkpt lat="43.27" lon="-3.1632">
        <ele>236.8</ele>
        <time>2021-10-28 13:20:55</time>
      </trkpt>
      <trkpt lat="43.26998" lon="-3.16312">
        <ele>236.2</ele>
        <time>2021-10-28 13:20:56</time>
      </trkpt>
      <trkpt lat="43.26997" lon="-3.16306">
        <ele>235.6</ele>
        <time>2021-10-28 13:20:57</time>
      </trkpt>
      <trkpt lat="43.26994" lon="-3.16299">
        <ele>235</ele>
        <time>2021-10-28 13:20:58</time>
      </trkpt>
      <trkpt lat="43.26992" lon="-3.16292">
        <ele>234.4</ele>
        <time>2021-10-28 13:20:59</time>
      </trkpt>
      <trkpt lat="43.26989" lon="-3.16285">
        <ele>233.8</ele>
        <time>2021-10-28 13:21:00</time>
      </trkpt>
      <trkpt lat="43.26986" lon="-3.16279">
        <ele>233.2</ele>
        <time>2021-10-28 13:21:01</time>
      </trkpt>
      <trkpt lat="43.26983" lon="-3.16273">
        <ele>232.6</ele>
        <time>2021-10-28 13:21:02</time>
      </trkpt>
      <trkpt lat="43.26979" lon="-3.16266">
        <ele>232</ele>
        <time>2021-10-28 13:21:03</time>
      </trkpt>
      <trkpt lat="43.26976" lon="-3.16259">
        <ele>231.4</ele>
        <time>2021-10-28 13:21:04</time>
      </trkpt>
      <trkpt lat="43.26972" lon="-3.16253">
        <ele>230.8</ele>
        <time>2021-10-28 13:21:05</time>
      </trkpt>
      <trkpt lat="43.26968" lon="-3.16246">
        <ele>230.2</ele>
        <time>2021-10-28 13:21:06</time>
      </trkpt>
      <trkpt lat="43.26964" lon="-3.16238">
        <ele>229.6</ele>
        <time>2021-10-28 13:21:07</time>
      </trkpt>
      <trkpt lat="43.26961" lon="-3.16233">
        <ele>229.2</ele>
        <time>2021-10-28 13:21:08</time>
      </trkpt>
      <trkpt lat="43.26958" lon="-3.16228">
        <ele>228.6</ele>
        <time>2021-10-28 13:21:09</time>
      </trkpt>
      <trkpt lat="43.26955" lon="-3.16224">
        <ele>228.2</ele>
        <time>2021-10-28 13:21:10</time>
      </trkpt>
      <trkpt lat="43.26952" lon="-3.16219">
        <ele>227.6</ele>
        <time>2021-10-28 13:21:11</time>
      </trkpt>
      <trkpt lat="43.26948" lon="-3.16214">
        <ele>227.2</ele>
        <time>2021-10-28 13:21:12</time>
      </trkpt>
      <trkpt lat="43.26943" lon="-3.1621">
        <ele>226.8</ele>
        <time>2021-10-28 13:21:13</time>
      </trkpt>
      <trkpt lat="43.26939" lon="-3.16206">
        <ele>226</ele>
        <time>2021-10-28 13:21:14</time>
      </trkpt>
      <trkpt lat="43.26935" lon="-3.16202">
        <ele>225.4</ele>
        <time>2021-10-28 13:21:15</time>
      </trkpt>
      <trkpt lat="43.2693" lon="-3.16197">
        <ele>224.6</ele>
        <time>2021-10-28 13:21:16</time>
      </trkpt>
      <trkpt lat="43.2692" lon="-3.16185">
        <ele>223.8</ele>
        <time>2021-10-28 13:21:17</time>
      </trkpt>
      <trkpt lat="43.2692" lon="-3.16185">
        <ele>223</ele>
        <time>2021-10-28 13:21:18</time>
      </trkpt>
      <trkpt lat="43.26917" lon="-3.16179">
        <ele>222.2</ele>
        <time>2021-10-28 13:21:19</time>
      </trkpt>
      <trkpt lat="43.26914" lon="-3.16172">
        <ele>221.6</ele>
        <time>2021-10-28 13:21:20</time>
      </trkpt>
      <trkpt lat="43.26912" lon="-3.16165">
        <ele>221.2</ele>
        <time>2021-10-28 13:21:21</time>
      </trkpt>
      <trkpt lat="43.26909" lon="-3.1616">
        <ele>220.6</ele>
        <time>2021-10-28 13:21:22</time>
      </trkpt>
      <trkpt lat="43.26906" lon="-3.16157">
        <ele>220.2</ele>
        <time>2021-10-28 13:21:23</time>
      </trkpt>
      <trkpt lat="43.269" lon="-3.16146">
        <ele>219.8</ele>
        <time>2021-10-28 13:21:24</time>
      </trkpt>
      <trkpt lat="43.269" lon="-3.16146">
        <ele>219.6</ele>
        <time>2021-10-28 13:21:25</time>
      </trkpt>
      <trkpt lat="43.26897" lon="-3.16141">
        <ele>219.2</ele>
        <time>2021-10-28 13:21:26</time>
      </trkpt>
      <trkpt lat="43.26893" lon="-3.16137">
        <ele>218.8</ele>
        <time>2021-10-28 13:21:27</time>
      </trkpt>
      <trkpt lat="43.26889" lon="-3.16134">
        <ele>218.4</ele>
        <time>2021-10-28 13:21:28</time>
      </trkpt>
      <trkpt lat="43.26884" lon="-3.16132">
        <ele>217.6</ele>
        <time>2021-10-28 13:21:29</time>
      </trkpt>
      <trkpt lat="43.2688" lon="-3.16131">
        <ele>216.8</ele>
        <time>2021-10-28 13:21:30</time>
      </trkpt>
      <trkpt lat="43.26875" lon="-3.1613">
        <ele>216</ele>
        <time>2021-10-28 13:21:31</time>
      </trkpt>
      <trkpt lat="43.26869" lon="-3.1613">
        <ele>215.2</ele>
        <time>2021-10-28 13:21:32</time>
      </trkpt>
      <trkpt lat="43.26863" lon="-3.16132">
        <ele>214.6</ele>
        <time>2021-10-28 13:21:33</time>
      </trkpt>
      <trkpt lat="43.26859" lon="-3.16135">
        <ele>214</ele>
        <time>2021-10-28 13:21:34</time>
      </trkpt>
      <trkpt lat="43.26854" lon="-3.16137">
        <ele>213.4</ele>
        <time>2021-10-28 13:21:35</time>
      </trkpt>
      <trkpt lat="43.2685" lon="-3.16137">
        <ele>212.6</ele>
        <time>2021-10-28 13:21:36</time>
      </trkpt>
      <trkpt lat="43.26846" lon="-3.16136">
        <ele>212</ele>
        <time>2021-10-28 13:21:37</time>
      </trkpt>
      <trkpt lat="43.26843" lon="-3.16133">
        <ele>211.4</ele>
        <time>2021-10-28 13:21:38</time>
      </trkpt>
      <trkpt lat="43.26841" lon="-3.1613">
        <ele>211</ele>
        <time>2021-10-28 13:21:39</time>
      </trkpt>
      <trkpt lat="43.2684" lon="-3.16126">
        <ele>210.4</ele>
        <time>2021-10-28 13:21:40</time>
      </trkpt>
      <trkpt lat="43.2684" lon="-3.16126">
        <ele>209.8</ele>
        <time>2021-10-28 13:21:41</time>
      </trkpt>
      <trkpt lat="43.26842" lon="-3.16109">
        <ele>209.2</ele>
        <time>2021-10-28 13:21:42</time>
      </trkpt>
      <trkpt lat="43.26842" lon="-3.16109">
        <ele>208.6</ele>
        <time>2021-10-28 13:21:43</time>
      </trkpt>
      <trkpt lat="43.26843" lon="-3.16102">
        <ele>208</ele>
        <time>2021-10-28 13:21:44</time>
      </trkpt>
      <trkpt lat="43.26844" lon="-3.16096">
        <ele>207.4</ele>
        <time>2021-10-28 13:21:45</time>
      </trkpt>
      <trkpt lat="43.26845" lon="-3.16084">
        <ele>207</ele>
        <time>2021-10-28 13:21:46</time>
      </trkpt>
      <trkpt lat="43.26845" lon="-3.16084">
        <ele>206.6</ele>
        <time>2021-10-28 13:21:47</time>
      </trkpt>
      <trkpt lat="43.26846" lon="-3.16079">
        <ele>206.2</ele>
        <time>2021-10-28 13:21:48</time>
      </trkpt>
      <trkpt lat="43.26847" lon="-3.16074">
        <ele>205.8</ele>
        <time>2021-10-28 13:21:49</time>
      </trkpt>
      <trkpt lat="43.26848" lon="-3.16063">
        <ele>205.2</ele>
        <time>2021-10-28 13:21:50</time>
      </trkpt>
      <trkpt lat="43.26848" lon="-3.16063">
        <ele>204.6</ele>
        <time>2021-10-28 13:21:51</time>
      </trkpt>
      <trkpt lat="43.26848" lon="-3.16054">
        <ele>204</ele>
        <time>2021-10-28 13:21:52</time>
      </trkpt>
      <trkpt lat="43.26848" lon="-3.16054">
        <ele>203.4</ele>
        <time>2021-10-28 13:21:53</time>
      </trkpt>
      <trkpt lat="43.26847" lon="-3.16045">
        <ele>202.8</ele>
        <time>2021-10-28 13:21:54</time>
      </trkpt>
      <trkpt lat="43.26847" lon="-3.16045">
        <ele>202.4</ele>
        <time>2021-10-28 13:21:55</time>
      </trkpt>
      <trkpt lat="43.26847" lon="-3.16041">
        <ele>201.8</ele>
        <time>2021-10-28 13:21:56</time>
      </trkpt>
      <trkpt lat="43.26847" lon="-3.16037">
        <ele>201.4</ele>
        <time>2021-10-28 13:21:57</time>
      </trkpt>
      <trkpt lat="43.26846" lon="-3.16033">
        <ele>201</ele>
        <time>2021-10-28 13:21:58</time>
      </trkpt>
      <trkpt lat="43.26846" lon="-3.16028">
        <ele>200.6</ele>
        <time>2021-10-28 13:21:59</time>
      </trkpt>
      <trkpt lat="43.26845" lon="-3.16018">
        <ele>200.2</ele>
        <time>2021-10-28 13:22:00</time>
      </trkpt>
      <trkpt lat="43.26845" lon="-3.16018">
        <ele>199.6</ele>
        <time>2021-10-28 13:22:01</time>
      </trkpt>
      <trkpt lat="43.26845" lon="-3.16014">
        <ele>199</ele>
        <time>2021-10-28 13:22:02</time>
      </trkpt>
      <trkpt lat="43.26844" lon="-3.1601">
        <ele>198.4</ele>
        <time>2021-10-28 13:22:03</time>
      </trkpt>
      <trkpt lat="43.26841" lon="-3.15998">
        <ele>197.6</ele>
        <time>2021-10-28 13:22:04</time>
      </trkpt>
      <trkpt lat="43.26841" lon="-3.15998">
        <ele>197</ele>
        <time>2021-10-28 13:22:05</time>
      </trkpt>
      <trkpt lat="43.26839" lon="-3.15992">
        <ele>196</ele>
        <time>2021-10-28 13:22:06</time>
      </trkpt>
      <trkpt lat="43.26836" lon="-3.15984">
        <ele>195</ele>
        <time>2021-10-28 13:22:07</time>
      </trkpt>
      <trkpt lat="43.26832" lon="-3.15968">
        <ele>194</ele>
        <time>2021-10-28 13:22:08</time>
      </trkpt>
      <trkpt lat="43.26832" lon="-3.15968">
        <ele>193</ele>
        <time>2021-10-28 13:22:09</time>
      </trkpt>
      <trkpt lat="43.26831" lon="-3.15959">
        <ele>191.8</ele>
        <time>2021-10-28 13:22:10</time>
      </trkpt>
      <trkpt lat="43.26829" lon="-3.15952">
        <ele>190.8</ele>
        <time>2021-10-28 13:22:11</time>
      </trkpt>
      <trkpt lat="43.26826" lon="-3.15945">
        <ele>189.8</ele>
        <time>2021-10-28 13:22:12</time>
      </trkpt>
      <trkpt lat="43.26819" lon="-3.15931">
        <ele>188.8</ele>
        <time>2021-10-28 13:22:13</time>
      </trkpt>
      <trkpt lat="43.26819" lon="-3.15931">
        <ele>188</ele>
        <time>2021-10-28 13:22:14</time>
      </trkpt>
      <trkpt lat="43.26817" lon="-3.15925">
        <ele>187.2</ele>
        <time>2021-10-28 13:22:15</time>
      </trkpt>
      <trkpt lat="43.26816" lon="-3.15919">
        <ele>186.6</ele>
        <time>2021-10-28 13:22:16</time>
      </trkpt>
      <trkpt lat="43.26815" lon="-3.15915">
        <ele>186.4</ele>
        <time>2021-10-28 13:22:17</time>
      </trkpt>
      <trkpt lat="43.26816" lon="-3.15911">
        <ele>186.2</ele>
        <time>2021-10-28 13:22:18</time>
      </trkpt>
      <trkpt lat="43.26817" lon="-3.15908">
        <ele>186.2</ele>
        <time>2021-10-28 13:22:19</time>
      </trkpt>
      <trkpt lat="43.26821" lon="-3.15901">
        <ele>186.2</ele>
        <time>2021-10-28 13:22:20</time>
      </trkpt>
      <trkpt lat="43.26821" lon="-3.15901">
        <ele>186</ele>
        <time>2021-10-28 13:22:21</time>
      </trkpt>
      <trkpt lat="43.26823" lon="-3.15898">
        <ele>185.6</ele>
        <time>2021-10-28 13:22:22</time>
      </trkpt>
      <trkpt lat="43.26825" lon="-3.15895">
        <ele>185</ele>
        <time>2021-10-28 13:22:23</time>
      </trkpt>
      <trkpt lat="43.26826" lon="-3.15894">
        <ele>184.6</ele>
        <time>2021-10-28 13:22:24</time>
      </trkpt>
      <trkpt lat="43.26826" lon="-3.15892">
        <ele>184.2</ele>
        <time>2021-10-28 13:22:25</time>
      </trkpt>
      <trkpt lat="43.26827" lon="-3.15891">
        <ele>183.8</ele>
        <time>2021-10-28 13:22:26</time>
      </trkpt>
      <trkpt lat="43.26831" lon="-3.15886">
        <ele>183.4</ele>
        <time>2021-10-28 13:22:27</time>
      </trkpt>
      <trkpt lat="43.26831" lon="-3.15886">
        <ele>182.8</ele>
        <time>2021-10-28 13:22:28</time>
      </trkpt>
      <trkpt lat="43.26834" lon="-3.15882">
        <ele>182.2</ele>
        <time>2021-10-28 13:22:29</time>
      </trkpt>
      <trkpt lat="43.26837" lon="-3.15879">
        <ele>181.4</ele>
        <time>2021-10-28 13:22:30</time>
      </trkpt>
      <trkpt lat="43.2684" lon="-3.15876">
        <ele>180.8</ele>
        <time>2021-10-28 13:22:31</time>
      </trkpt>
      <trkpt lat="43.26843" lon="-3.15873">
        <ele>180.2</ele>
        <time>2021-10-28 13:22:32</time>
      </trkpt>
      <trkpt lat="43.26846" lon="-3.1587">
        <ele>179.6</ele>
        <time>2021-10-28 13:22:33</time>
      </trkpt>
      <trkpt lat="43.26851" lon="-3.15865">
        <ele>179</ele>
        <time>2021-10-28 13:22:34</time>
      </trkpt>
      <trkpt lat="43.26851" lon="-3.15865">
        <ele>178.4</ele>
        <time>2021-10-28 13:22:35</time>
      </trkpt>
      <trkpt lat="43.26855" lon="-3.15863">
        <ele>178</ele>
        <time>2021-10-28 13:22:36</time>
      </trkpt>
      <trkpt lat="43.26855" lon="-3.15863">
        <ele>177.6</ele>
        <time>2021-10-28 13:22:37</time>
      </trkpt>
      <trkpt lat="43.26856" lon="-3.15862">
        <ele>177.2</ele>
        <time>2021-10-28 13:22:38</time>
      </trkpt>
      <trkpt lat="43.26859" lon="-3.15859">
        <ele>176.8</ele>
        <time>2021-10-28 13:22:39</time>
      </trkpt>
      <trkpt lat="43.26866" lon="-3.1585">
        <ele>176.2</ele>
        <time>2021-10-28 13:22:40</time>
      </trkpt>
      <trkpt lat="43.26866" lon="-3.1585">
        <ele>175.4</ele>
        <time>2021-10-28 13:22:41</time>
      </trkpt>
      <trkpt lat="43.26869" lon="-3.15845">
        <ele>174.6</ele>
        <time>2021-10-28 13:22:42</time>
      </trkpt>
      <trkpt lat="43.26871" lon="-3.1584">
        <ele>174</ele>
        <time>2021-10-28 13:22:43</time>
      </trkpt>
      <trkpt lat="43.26874" lon="-3.15832">
        <ele>173.2</ele>
        <time>2021-10-28 13:22:44</time>
      </trkpt>
      <trkpt lat="43.26874" lon="-3.15832">
        <ele>172.8</ele>
        <time>2021-10-28 13:22:45</time>
      </trkpt>
      <trkpt lat="43.26876" lon="-3.15831">
        <ele>172.6</ele>
        <time>2021-10-28 13:22:46</time>
      </trkpt>
      <trkpt lat="43.26878" lon="-3.15832">
        <ele>172.6</ele>
        <time>2021-10-28 13:22:47</time>
      </trkpt>
      <trkpt lat="43.26879" lon="-3.15835">
        <ele>172.4</ele>
        <time>2021-10-28 13:22:48</time>
      </trkpt>
      <trkpt lat="43.26882" lon="-3.15841">
        <ele>172.2</ele>
        <time>2021-10-28 13:22:49</time>
      </trkpt>
      <trkpt lat="43.26882" lon="-3.15841">
        <ele>172</ele>
        <time>2021-10-28 13:22:50</time>
      </trkpt>
      <trkpt lat="43.26885" lon="-3.15849">
        <ele>172</ele>
        <time>2021-10-28 13:22:51</time>
      </trkpt>
      <trkpt lat="43.26885" lon="-3.15849">
        <ele>171.8</ele>
        <time>2021-10-28 13:22:52</time>
      </trkpt>
      <trkpt lat="43.26889" lon="-3.15857">
        <ele>171.8</ele>
        <time>2021-10-28 13:22:53</time>
      </trkpt>
      <trkpt lat="43.26889" lon="-3.15857">
        <ele>171.6</ele>
        <time>2021-10-28 13:22:54</time>
      </trkpt>
      <trkpt lat="43.26892" lon="-3.1586">
        <ele>171.6</ele>
        <time>2021-10-28 13:22:55</time>
      </trkpt>
      <trkpt lat="43.26897" lon="-3.15862">
        <ele>171.2</ele>
        <time>2021-10-28 13:22:56</time>
      </trkpt>
      <trkpt lat="43.26901" lon="-3.15864">
        <ele>171</ele>
        <time>2021-10-28 13:22:57</time>
      </trkpt>
      <trkpt lat="43.26906" lon="-3.15864">
        <ele>170.6</ele>
        <time>2021-10-28 13:22:58</time>
      </trkpt>
      <trkpt lat="43.26911" lon="-3.15864">
        <ele>170.4</ele>
        <time>2021-10-28 13:22:59</time>
      </trkpt>
      <trkpt lat="43.26922" lon="-3.15865">
        <ele>170.2</ele>
        <time>2021-10-28 13:23:00</time>
      </trkpt>
      <trkpt lat="43.26922" lon="-3.15865">
        <ele>170</ele>
        <time>2021-10-28 13:23:01</time>
      </trkpt>
      <trkpt lat="43.26928" lon="-3.15865">
        <ele>169.8</ele>
        <time>2021-10-28 13:23:02</time>
      </trkpt>
      <trkpt lat="43.26933" lon="-3.15867">
        <ele>169.6</ele>
        <time>2021-10-28 13:23:03</time>
      </trkpt>
      <trkpt lat="43.26939" lon="-3.15868">
        <ele>169.2</ele>
        <time>2021-10-28 13:23:04</time>
      </trkpt>
      <trkpt lat="43.26945" lon="-3.1587">
        <ele>169</ele>
        <time>2021-10-28 13:23:05</time>
      </trkpt>
      <trkpt lat="43.26951" lon="-3.15873">
        <ele>169</ele>
        <time>2021-10-28 13:23:06</time>
      </trkpt>
      <trkpt lat="43.26956" lon="-3.15876">
        <ele>168.6</ele>
        <time>2021-10-28 13:23:07</time>
      </trkpt>
      <trkpt lat="43.26962" lon="-3.15879">
        <ele>168.4</ele>
        <time>2021-10-28 13:23:08</time>
      </trkpt>
      <trkpt lat="43.26968" lon="-3.15883">
        <ele>168.2</ele>
        <time>2021-10-28 13:23:09</time>
      </trkpt>
      <trkpt lat="43.26973" lon="-3.15887">
        <ele>167.8</ele>
        <time>2021-10-28 13:23:10</time>
      </trkpt>
      <trkpt lat="43.26979" lon="-3.15892">
        <ele>167.6</ele>
        <time>2021-10-28 13:23:11</time>
      </trkpt>
      <trkpt lat="43.26984" lon="-3.15898">
        <ele>167.4</ele>
        <time>2021-10-28 13:23:12</time>
      </trkpt>
      <trkpt lat="43.26989" lon="-3.15904">
        <ele>167.2</ele>
        <time>2021-10-28 13:23:13</time>
      </trkpt>
      <trkpt lat="43.26995" lon="-3.15911">
        <ele>167</ele>
        <time>2021-10-28 13:23:14</time>
      </trkpt>
      <trkpt lat="43.27001" lon="-3.15918">
        <ele>166.8</ele>
        <time>2021-10-28 13:23:15</time>
      </trkpt>
      <trkpt lat="43.27011" lon="-3.15934">
        <ele>166.6</ele>
        <time>2021-10-28 13:23:16</time>
      </trkpt>
      <trkpt lat="43.27011" lon="-3.15934">
        <ele>166.6</ele>
        <time>2021-10-28 13:23:17</time>
      </trkpt>
      <trkpt lat="43.27015" lon="-3.15942">
        <ele>166.4</ele>
        <time>2021-10-28 13:23:18</time>
      </trkpt>
      <trkpt lat="43.2702" lon="-3.15951">
        <ele>166.2</ele>
        <time>2021-10-28 13:23:19</time>
      </trkpt>
      <trkpt lat="43.27025" lon="-3.15959">
        <ele>166</ele>
        <time>2021-10-28 13:23:20</time>
      </trkpt>
      <trkpt lat="43.2703" lon="-3.15967">
        <ele>165.8</ele>
        <time>2021-10-28 13:23:21</time>
      </trkpt>
      <trkpt lat="43.27035" lon="-3.15975">
        <ele>165.6</ele>
        <time>2021-10-28 13:23:22</time>
      </trkpt>
      <trkpt lat="43.2704" lon="-3.15983">
        <ele>165.6</ele>
        <time>2021-10-28 13:23:23</time>
      </trkpt>
      <trkpt lat="43.27045" lon="-3.15991">
        <ele>165.6</ele>
        <time>2021-10-28 13:23:24</time>
      </trkpt>
      <trkpt lat="43.27056" lon="-3.16004">
        <ele>165.4</ele>
        <time>2021-10-28 13:23:25</time>
      </trkpt>
      <trkpt lat="43.27056" lon="-3.16004">
        <ele>165.2</ele>
        <time>2021-10-28 13:23:26</time>
      </trkpt>
      <trkpt lat="43.27062" lon="-3.1601">
        <ele>165</ele>
        <time>2021-10-28 13:23:27</time>
      </trkpt>
      <trkpt lat="43.27067" lon="-3.16016">
        <ele>164.8</ele>
        <time>2021-10-28 13:23:28</time>
      </trkpt>
      <trkpt lat="43.27079" lon="-3.16026">
        <ele>164.6</ele>
        <time>2021-10-28 13:23:29</time>
      </trkpt>
      <trkpt lat="43.27079" lon="-3.16026">
        <ele>164.4</ele>
        <time>2021-10-28 13:23:30</time>
      </trkpt>
      <trkpt lat="43.27086" lon="-3.1603">
        <ele>164.2</ele>
        <time>2021-10-28 13:23:31</time>
      </trkpt>
      <trkpt lat="43.27099" lon="-3.16039">
        <ele>164.2</ele>
        <time>2021-10-28 13:23:32</time>
      </trkpt>
      <trkpt lat="43.27099" lon="-3.16039">
        <ele>164</ele>
        <time>2021-10-28 13:23:33</time>
      </trkpt>
      <trkpt lat="43.27106" lon="-3.16044">
        <ele>163.8</ele>
        <time>2021-10-28 13:23:34</time>
      </trkpt>
      <trkpt lat="43.27112" lon="-3.1605">
        <ele>163.6</ele>
        <time>2021-10-28 13:23:35</time>
      </trkpt>
      <trkpt lat="43.27118" lon="-3.16055">
        <ele>163.4</ele>
        <time>2021-10-28 13:23:36</time>
      </trkpt>
      <trkpt lat="43.2713" lon="-3.16068">
        <ele>163.2</ele>
        <time>2021-10-28 13:23:37</time>
      </trkpt>
      <trkpt lat="43.2713" lon="-3.16068">
        <ele>163</ele>
        <time>2021-10-28 13:23:38</time>
      </trkpt>
      <trkpt lat="43.2714" lon="-3.16081">
        <ele>163</ele>
        <time>2021-10-28 13:23:39</time>
      </trkpt>
      <trkpt lat="43.2714" lon="-3.16081">
        <ele>163</ele>
        <time>2021-10-28 13:23:40</time>
      </trkpt>
      <trkpt lat="43.27145" lon="-3.16089">
        <ele>163</ele>
        <time>2021-10-28 13:23:41</time>
      </trkpt>
      <trkpt lat="43.27147" lon="-3.16098">
        <ele>163</ele>
        <time>2021-10-28 13:23:42</time>
      </trkpt>
      <trkpt lat="43.27156" lon="-3.16113">
        <ele>163</ele>
        <time>2021-10-28 13:23:43</time>
      </trkpt>
      <trkpt lat="43.27156" lon="-3.16113">
        <ele>163</ele>
        <time>2021-10-28 13:23:44</time>
      </trkpt>
      <trkpt lat="43.27165" lon="-3.16127">
        <ele>163.2</ele>
        <time>2021-10-28 13:23:45</time>
      </trkpt>
      <trkpt lat="43.27165" lon="-3.16127">
        <ele>163.2</ele>
        <time>2021-10-28 13:23:46</time>
      </trkpt>
      <trkpt lat="43.27173" lon="-3.16142">
        <ele>163</ele>
        <time>2021-10-28 13:23:47</time>
      </trkpt>
      <trkpt lat="43.27173" lon="-3.16142">
        <ele>163</ele>
        <time>2021-10-28 13:23:48</time>
      </trkpt>
      <trkpt lat="43.27178" lon="-3.16149">
        <ele>163.2</ele>
        <time>2021-10-28 13:23:49</time>
      </trkpt>
      <trkpt lat="43.27182" lon="-3.16156">
        <ele>163.2</ele>
        <time>2021-10-28 13:23:50</time>
      </trkpt>
      <trkpt lat="43.27192" lon="-3.1617">
        <ele>163.2</ele>
        <time>2021-10-28 13:23:51</time>
      </trkpt>
      <trkpt lat="43.27192" lon="-3.1617">
        <ele>163.2</ele>
        <time>2021-10-28 13:23:52</time>
      </trkpt>
      <trkpt lat="43.27196" lon="-3.16176">
        <ele>163.2</ele>
        <time>2021-10-28 13:23:53</time>
      </trkpt>
      <trkpt lat="43.27204" lon="-3.16188">
        <ele>163.2</ele>
        <time>2021-10-28 13:23:54</time>
      </trkpt>
      <trkpt lat="43.27204" lon="-3.16188">
        <ele>163.2</ele>
        <time>2021-10-28 13:23:55</time>
      </trkpt>
      <trkpt lat="43.27208" lon="-3.16196">
        <ele>163</ele>
        <time>2021-10-28 13:23:56</time>
      </trkpt>
      <trkpt lat="43.27213" lon="-3.16204">
        <ele>163</ele>
        <time>2021-10-28 13:23:57</time>
      </trkpt>
      <trkpt lat="43.27222" lon="-3.16219">
        <ele>163</ele>
        <time>2021-10-28 13:23:58</time>
      </trkpt>
      <trkpt lat="43.27222" lon="-3.16219">
        <ele>162.8</ele>
        <time>2021-10-28 13:23:59</time>
      </trkpt>
      <trkpt lat="43.27226" lon="-3.16226">
        <ele>162.6</ele>
        <time>2021-10-28 13:24:00</time>
      </trkpt>
      <trkpt lat="43.2723" lon="-3.16233">
        <ele>162.6</ele>
        <time>2021-10-28 13:24:01</time>
      </trkpt>
      <trkpt lat="43.27239" lon="-3.16246">
        <ele>162.4</ele>
        <time>2021-10-28 13:24:02</time>
      </trkpt>
      <trkpt lat="43.27239" lon="-3.16246">
        <ele>162.4</ele>
        <time>2021-10-28 13:24:03</time>
      </trkpt>
      <trkpt lat="43.27243" lon="-3.16254">
        <ele>162.4</ele>
        <time>2021-10-28 13:24:04</time>
      </trkpt>
      <trkpt lat="43.27247" lon="-3.16262">
        <ele>162.2</ele>
        <time>2021-10-28 13:24:05</time>
      </trkpt>
      <trkpt lat="43.27251" lon="-3.16269">
        <ele>162</ele>
        <time>2021-10-28 13:24:06</time>
      </trkpt>
      <trkpt lat="43.27256" lon="-3.16277">
        <ele>161.8</ele>
        <time>2021-10-28 13:24:07</time>
      </trkpt>
      <trkpt lat="43.2726" lon="-3.16285">
        <ele>161.6</ele>
        <time>2021-10-28 13:24:08</time>
      </trkpt>
      <trkpt lat="43.27269" lon="-3.163">
        <ele>161.4</ele>
        <time>2021-10-28 13:24:09</time>
      </trkpt>
      <trkpt lat="43.27269" lon="-3.163">
        <ele>161.2</ele>
        <time>2021-10-28 13:24:10</time>
      </trkpt>
      <trkpt lat="43.27278" lon="-3.16315">
        <ele>160.8</ele>
        <time>2021-10-28 13:24:11</time>
      </trkpt>
      <trkpt lat="43.27278" lon="-3.16315">
        <ele>160.6</ele>
        <time>2021-10-28 13:24:12</time>
      </trkpt>
      <trkpt lat="43.27286" lon="-3.16331">
        <ele>160.2</ele>
        <time>2021-10-28 13:24:13</time>
      </trkpt>
      <trkpt lat="43.27286" lon="-3.16331">
        <ele>160</ele>
        <time>2021-10-28 13:24:14</time>
      </trkpt>
      <trkpt lat="43.27291" lon="-3.16338">
        <ele>159.8</ele>
        <time>2021-10-28 13:24:15</time>
      </trkpt>
      <trkpt lat="43.27295" lon="-3.16346">
        <ele>159.6</ele>
        <time>2021-10-28 13:24:16</time>
      </trkpt>
      <trkpt lat="43.27299" lon="-3.16354">
        <ele>159.4</ele>
        <time>2021-10-28 13:24:17</time>
      </trkpt>
      <trkpt lat="43.27303" lon="-3.16363">
        <ele>159.2</ele>
        <time>2021-10-28 13:24:18</time>
      </trkpt>
      <trkpt lat="43.27313" lon="-3.16379">
        <ele>158.8</ele>
        <time>2021-10-28 13:24:19</time>
      </trkpt>
      <trkpt lat="43.27313" lon="-3.16379">
        <ele>158.6</ele>
        <time>2021-10-28 13:24:20</time>
      </trkpt>
      <trkpt lat="43.27323" lon="-3.16393">
        <ele>158.4</ele>
        <time>2021-10-28 13:24:21</time>
      </trkpt>
      <trkpt lat="43.27323" lon="-3.16393">
        <ele>158</ele>
        <time>2021-10-28 13:24:22</time>
      </trkpt>
      <trkpt lat="43.27328" lon="-3.164">
        <ele>157.8</ele>
        <time>2021-10-28 13:24:23</time>
      </trkpt>
      <trkpt lat="43.27339" lon="-3.1641">
        <ele>157.6</ele>
        <time>2021-10-28 13:24:24</time>
      </trkpt>
      <trkpt lat="43.27339" lon="-3.1641">
        <ele>157.2</ele>
        <time>2021-10-28 13:24:25</time>
      </trkpt>
      <trkpt lat="43.27345" lon="-3.16415">
        <ele>157</ele>
        <time>2021-10-28 13:24:26</time>
      </trkpt>
      <trkpt lat="43.27356" lon="-3.16421">
        <ele>156.8</ele>
        <time>2021-10-28 13:24:27</time>
      </trkpt>
      <trkpt lat="43.27356" lon="-3.16421">
        <ele>156.8</ele>
        <time>2021-10-28 13:24:28</time>
      </trkpt>
      <trkpt lat="43.27361" lon="-3.16424">
        <ele>156.6</ele>
        <time>2021-10-28 13:24:29</time>
      </trkpt>
      <trkpt lat="43.27371" lon="-3.1643">
        <ele>156.4</ele>
        <time>2021-10-28 13:24:30</time>
      </trkpt>
      <trkpt lat="43.27371" lon="-3.1643">
        <ele>156</ele>
        <time>2021-10-28 13:24:31</time>
      </trkpt>
      <trkpt lat="43.27377" lon="-3.16432">
        <ele>155.8</ele>
        <time>2021-10-28 13:24:32</time>
      </trkpt>
      <trkpt lat="43.27383" lon="-3.16434">
        <ele>155.6</ele>
        <time>2021-10-28 13:24:33</time>
      </trkpt>
      <trkpt lat="43.27389" lon="-3.16435">
        <ele>155.4</ele>
        <time>2021-10-28 13:24:34</time>
      </trkpt>
      <trkpt lat="43.27394" lon="-3.16435">
        <ele>155.2</ele>
        <time>2021-10-28 13:24:35</time>
      </trkpt>
      <trkpt lat="43.27399" lon="-3.16436">
        <ele>155</ele>
        <time>2021-10-28 13:24:36</time>
      </trkpt>
      <trkpt lat="43.27412" lon="-3.1644">
        <ele>154.8</ele>
        <time>2021-10-28 13:24:37</time>
      </trkpt>
      <trkpt lat="43.27412" lon="-3.1644">
        <ele>154.4</ele>
        <time>2021-10-28 13:24:38</time>
      </trkpt>
      <trkpt lat="43.27428" lon="-3.16444">
        <ele>154.2</ele>
        <time>2021-10-28 13:24:39</time>
      </trkpt>
      <trkpt lat="43.27428" lon="-3.16444">
        <ele>154</ele>
        <time>2021-10-28 13:24:40</time>
      </trkpt>
      <trkpt lat="43.27437" lon="-3.16446">
        <ele>153.8</ele>
        <time>2021-10-28 13:24:41</time>
      </trkpt>
      <trkpt lat="43.27444" lon="-3.16448">
        <ele>153.6</ele>
        <time>2021-10-28 13:24:42</time>
      </trkpt>
      <trkpt lat="43.2745" lon="-3.1645">
        <ele>153.4</ele>
        <time>2021-10-28 13:24:43</time>
      </trkpt>
      <trkpt lat="43.27462" lon="-3.16453">
        <ele>153</ele>
        <time>2021-10-28 13:24:44</time>
      </trkpt>
      <trkpt lat="43.27462" lon="-3.16453">
        <ele>153</ele>
        <time>2021-10-28 13:24:45</time>
      </trkpt>
      <trkpt lat="43.27468" lon="-3.16454">
        <ele>152.8</ele>
        <time>2021-10-28 13:24:46</time>
      </trkpt>
      <trkpt lat="43.27473" lon="-3.16456">
        <ele>152.8</ele>
        <time>2021-10-28 13:24:47</time>
      </trkpt>
      <trkpt lat="43.27479" lon="-3.16458">
        <ele>152.6</ele>
        <time>2021-10-28 13:24:48</time>
      </trkpt>
      <trkpt lat="43.27486" lon="-3.1646">
        <ele>152.4</ele>
        <time>2021-10-28 13:24:49</time>
      </trkpt>
      <trkpt lat="43.27492" lon="-3.16462">
        <ele>152.2</ele>
        <time>2021-10-28 13:24:50</time>
      </trkpt>
      <trkpt lat="43.27499" lon="-3.16463">
        <ele>152.2</ele>
        <time>2021-10-28 13:24:51</time>
      </trkpt>
      <trkpt lat="43.27506" lon="-3.16465">
        <ele>152.2</ele>
        <time>2021-10-28 13:24:52</time>
      </trkpt>
      <trkpt lat="43.27512" lon="-3.16466">
        <ele>152</ele>
        <time>2021-10-28 13:24:53</time>
      </trkpt>
      <trkpt lat="43.27527" lon="-3.16469">
        <ele>151.8</ele>
        <time>2021-10-28 13:24:54</time>
      </trkpt>
      <trkpt lat="43.27527" lon="-3.16469">
        <ele>151.6</ele>
        <time>2021-10-28 13:24:55</time>
      </trkpt>
      <trkpt lat="43.27534" lon="-3.1647">
        <ele>151.4</ele>
        <time>2021-10-28 13:24:56</time>
      </trkpt>
      <trkpt lat="43.27542" lon="-3.16472">
        <ele>151.2</ele>
        <time>2021-10-28 13:24:57</time>
      </trkpt>
      <trkpt lat="43.27548" lon="-3.16472">
        <ele>151</ele>
        <time>2021-10-28 13:24:58</time>
      </trkpt>
      <trkpt lat="43.27555" lon="-3.16473">
        <ele>150.8</ele>
        <time>2021-10-28 13:24:59</time>
      </trkpt>
      <trkpt lat="43.2756" lon="-3.16473">
        <ele>150.8</ele>
        <time>2021-10-28 13:25:00</time>
      </trkpt>
      <trkpt lat="43.27567" lon="-3.16474">
        <ele>150.6</ele>
        <time>2021-10-28 13:25:01</time>
      </trkpt>
      <trkpt lat="43.27571" lon="-3.16474">
        <ele>150.4</ele>
        <time>2021-10-28 13:25:02</time>
      </trkpt>
      <trkpt lat="43.27577" lon="-3.16474">
        <ele>150.2</ele>
        <time>2021-10-28 13:25:03</time>
      </trkpt>
      <trkpt lat="43.27583" lon="-3.16474">
        <ele>150</ele>
        <time>2021-10-28 13:25:04</time>
      </trkpt>
      <trkpt lat="43.27596" lon="-3.16476">
        <ele>150</ele>
        <time>2021-10-28 13:25:05</time>
      </trkpt>
      <trkpt lat="43.27596" lon="-3.16476">
        <ele>149.8</ele>
        <time>2021-10-28 13:25:06</time>
      </trkpt>
      <trkpt lat="43.27607" lon="-3.16482">
        <ele>149.6</ele>
        <time>2021-10-28 13:25:07</time>
      </trkpt>
      <trkpt lat="43.27607" lon="-3.16482">
        <ele>149.4</ele>
        <time>2021-10-28 13:25:08</time>
      </trkpt>
      <trkpt lat="43.27612" lon="-3.16483">
        <ele>149.2</ele>
        <time>2021-10-28 13:25:09</time>
      </trkpt>
      <trkpt lat="43.27616" lon="-3.16485">
        <ele>149.2</ele>
        <time>2021-10-28 13:25:10</time>
      </trkpt>
      <trkpt lat="43.27619" lon="-3.16487">
        <ele>149</ele>
        <time>2021-10-28 13:25:11</time>
      </trkpt>
      <trkpt lat="43.27622" lon="-3.16486">
        <ele>149</ele>
        <time>2021-10-28 13:25:12</time>
      </trkpt>
      <trkpt lat="43.27633" lon="-3.16486">
        <ele>149</ele>
        <time>2021-10-28 13:25:13</time>
      </trkpt>
      <trkpt lat="43.27633" lon="-3.16486">
        <ele>148.8</ele>
        <time>2021-10-28 13:25:14</time>
      </trkpt>
      <trkpt lat="43.27644" lon="-3.16486">
        <ele>148.8</ele>
        <time>2021-10-28 13:25:15</time>
      </trkpt>
      <trkpt lat="43.27644" lon="-3.16486">
        <ele>148.8</ele>
        <time>2021-10-28 13:25:16</time>
      </trkpt>
      <trkpt lat="43.27651" lon="-3.16488">
        <ele>148.6</ele>
        <time>2021-10-28 13:25:17</time>
      </trkpt>
      <trkpt lat="43.27664" lon="-3.16492">
        <ele>148.6</ele>
        <time>2021-10-28 13:25:18</time>
      </trkpt>
      <trkpt lat="43.27664" lon="-3.16492">
        <ele>148.4</ele>
        <time>2021-10-28 13:25:19</time>
      </trkpt>
      <trkpt lat="43.27668" lon="-3.16493">
        <ele>148.4</ele>
        <time>2021-10-28 13:25:20</time>
      </trkpt>
      <trkpt lat="43.27674" lon="-3.16493">
        <ele>148.2</ele>
        <time>2021-10-28 13:25:21</time>
      </trkpt>
      <trkpt lat="43.2768" lon="-3.16494">
        <ele>148</ele>
        <time>2021-10-28 13:25:22</time>
      </trkpt>
      <trkpt lat="43.27688" lon="-3.16495">
        <ele>148</ele>
        <time>2021-10-28 13:25:23</time>
      </trkpt>
      <trkpt lat="43.27696" lon="-3.16496">
        <ele>147.8</ele>
        <time>2021-10-28 13:25:24</time>
      </trkpt>
      <trkpt lat="43.2771" lon="-3.16496">
        <ele>147.8</ele>
        <time>2021-10-28 13:25:25</time>
      </trkpt>
      <trkpt lat="43.2771" lon="-3.16496">
        <ele>147.6</ele>
        <time>2021-10-28 13:25:26</time>
      </trkpt>
      <trkpt lat="43.27715" lon="-3.16496">
        <ele>147.6</ele>
        <time>2021-10-28 13:25:27</time>
      </trkpt>
      <trkpt lat="43.2772" lon="-3.16495">
        <ele>147.6</ele>
        <time>2021-10-28 13:25:28</time>
      </trkpt>
      <trkpt lat="43.27725" lon="-3.16494">
        <ele>147.4</ele>
        <time>2021-10-28 13:25:29</time>
      </trkpt>
      <trkpt lat="43.27725" lon="-3.16494">
        <ele>147.4</ele>
        <time>2021-10-28 13:25:30</time>
      </trkpt>
      <trkpt lat="43.27735" lon="-3.16493">
        <ele>147.4</ele>
        <time>2021-10-28 13:25:31</time>
      </trkpt>
      <trkpt lat="43.27741" lon="-3.16493">
        <ele>147.4</ele>
        <time>2021-10-28 13:25:32</time>
      </trkpt>
      <trkpt lat="43.27746" lon="-3.16493">
        <ele>147.4</ele>
        <time>2021-10-28 13:25:33</time>
      </trkpt>
      <trkpt lat="43.27751" lon="-3.16493">
        <ele>147.4</ele>
        <time>2021-10-28 13:25:34</time>
      </trkpt>
      <trkpt lat="43.27756" lon="-3.16493">
        <ele>147.4</ele>
        <time>2021-10-28 13:25:35</time>
      </trkpt>
      <trkpt lat="43.2776" lon="-3.16492">
        <ele>147.4</ele>
        <time>2021-10-28 13:25:36</time>
      </trkpt>
      <trkpt lat="43.27765" lon="-3.16492">
        <ele>147.4</ele>
        <time>2021-10-28 13:25:37</time>
      </trkpt>
      <trkpt lat="43.2777" lon="-3.16492">
        <ele>147.4</ele>
        <time>2021-10-28 13:25:38</time>
      </trkpt>
      <trkpt lat="43.27774" lon="-3.16491">
        <ele>147.2</ele>
        <time>2021-10-28 13:25:39</time>
      </trkpt>
      <trkpt lat="43.27778" lon="-3.16491">
        <ele>147.2</ele>
        <time>2021-10-28 13:25:40</time>
      </trkpt>
      <trkpt lat="43.27783" lon="-3.1649">
        <ele>147.2</ele>
        <time>2021-10-28 13:25:41</time>
      </trkpt>
      <trkpt lat="43.27792" lon="-3.16488">
        <ele>147.2</ele>
        <time>2021-10-28 13:25:42</time>
      </trkpt>
      <trkpt lat="43.27792" lon="-3.16488">
        <ele>147</ele>
        <time>2021-10-28 13:25:43</time>
      </trkpt>
      <trkpt lat="43.27796" lon="-3.16487">
        <ele>147</ele>
        <time>2021-10-28 13:25:44</time>
      </trkpt>
      <trkpt lat="43.27799" lon="-3.16486">
        <ele>147</ele>
        <time>2021-10-28 13:25:45</time>
      </trkpt>
      <trkpt lat="43.27802" lon="-3.16485">
        <ele>147</ele>
        <time>2021-10-28 13:25:46</time>
      </trkpt>
      <trkpt lat="43.27806" lon="-3.16486">
        <ele>147</ele>
        <time>2021-10-28 13:25:47</time>
      </trkpt>
      <trkpt lat="43.27809" lon="-3.16485">
        <ele>147</ele>
        <time>2021-10-28 13:25:48</time>
      </trkpt>
      <trkpt lat="43.27814" lon="-3.16483">
        <ele>147</ele>
        <time>2021-10-28 13:25:49</time>
      </trkpt>
      <trkpt lat="43.27814" lon="-3.16483">
        <ele>147</ele>
        <time>2021-10-28 13:25:50</time>
      </trkpt>
      <trkpt lat="43.27817" lon="-3.16481">
        <ele>147</ele>
        <time>2021-10-28 13:25:51</time>
      </trkpt>
      <trkpt lat="43.27821" lon="-3.16478">
        <ele>146.8</ele>
        <time>2021-10-28 13:25:52</time>
      </trkpt>
      <trkpt lat="43.27826" lon="-3.16475">
        <ele>146.6</ele>
        <time>2021-10-28 13:25:53</time>
      </trkpt>
      <trkpt lat="43.27832" lon="-3.1647">
        <ele>146.2</ele>
        <time>2021-10-28 13:25:54</time>
      </trkpt>
      <trkpt lat="43.27838" lon="-3.16466">
        <ele>145.6</ele>
        <time>2021-10-28 13:25:55</time>
      </trkpt>
      <trkpt lat="43.27844" lon="-3.16461">
        <ele>145.2</ele>
        <time>2021-10-28 13:25:56</time>
      </trkpt>
      <trkpt lat="43.27849" lon="-3.16456">
        <ele>144.6</ele>
        <time>2021-10-28 13:25:57</time>
      </trkpt>
      <trkpt lat="43.27855" lon="-3.16452">
        <ele>144.4</ele>
        <time>2021-10-28 13:25:58</time>
      </trkpt>
      <trkpt lat="43.27861" lon="-3.16449">
        <ele>144</ele>
        <time>2021-10-28 13:25:59</time>
      </trkpt>
      <trkpt lat="43.27867" lon="-3.16447">
        <ele>143.6</ele>
        <time>2021-10-28 13:26:00</time>
      </trkpt>
      <trkpt lat="43.27873" lon="-3.16447">
        <ele>143.4</ele>
        <time>2021-10-28 13:26:01</time>
      </trkpt>
      <trkpt lat="43.2788" lon="-3.16448">
        <ele>143.4</ele>
        <time>2021-10-28 13:26:02</time>
      </trkpt>
      <trkpt lat="43.27886" lon="-3.16449">
        <ele>143.4</ele>
        <time>2021-10-28 13:26:03</time>
      </trkpt>
      <trkpt lat="43.27893" lon="-3.16449">
        <ele>143.4</ele>
        <time>2021-10-28 13:26:04</time>
      </trkpt>
      <trkpt lat="43.27906" lon="-3.1645">
        <ele>143.6</ele>
        <time>2021-10-28 13:26:05</time>
      </trkpt>
      <trkpt lat="43.27906" lon="-3.1645">
        <ele>143.8</ele>
        <time>2021-10-28 13:26:06</time>
      </trkpt>
      <trkpt lat="43.27913" lon="-3.16451">
        <ele>143.8</ele>
        <time>2021-10-28 13:26:07</time>
      </trkpt>
      <trkpt lat="43.27919" lon="-3.16451">
        <ele>144</ele>
        <time>2021-10-28 13:26:08</time>
      </trkpt>
      <trkpt lat="43.27924" lon="-3.16452">
        <ele>144.2</ele>
        <time>2021-10-28 13:26:09</time>
      </trkpt>
      <trkpt lat="43.2793" lon="-3.16452">
        <ele>144.4</ele>
        <time>2021-10-28 13:26:10</time>
      </trkpt>
      <trkpt lat="43.27935" lon="-3.16452">
        <ele>144.8</ele>
        <time>2021-10-28 13:26:11</time>
      </trkpt>
      <trkpt lat="43.2794" lon="-3.16452">
        <ele>145.2</ele>
        <time>2021-10-28 13:26:12</time>
      </trkpt>
      <trkpt lat="43.27945" lon="-3.16451">
        <ele>145.6</ele>
        <time>2021-10-28 13:26:13</time>
      </trkpt>
      <trkpt lat="43.2795" lon="-3.16451">
        <ele>146</ele>
        <time>2021-10-28 13:26:14</time>
      </trkpt>
      <trkpt lat="43.27954" lon="-3.16451">
        <ele>146.2</ele>
        <time>2021-10-28 13:26:15</time>
      </trkpt>
      <trkpt lat="43.27959" lon="-3.1645">
        <ele>146.4</ele>
        <time>2021-10-28 13:26:16</time>
      </trkpt>
      <trkpt lat="43.27963" lon="-3.1645">
        <ele>146.6</ele>
        <time>2021-10-28 13:26:17</time>
      </trkpt>
      <trkpt lat="43.27968" lon="-3.1645">
        <ele>146.8</ele>
        <time>2021-10-28 13:26:18</time>
      </trkpt>
      <trkpt lat="43.27972" lon="-3.1645">
        <ele>147</ele>
        <time>2021-10-28 13:26:19</time>
      </trkpt>
      <trkpt lat="43.27977" lon="-3.16451">
        <ele>147.2</ele>
        <time>2021-10-28 13:26:20</time>
      </trkpt>
      <trkpt lat="43.27982" lon="-3.16451">
        <ele>147.2</ele>
        <time>2021-10-28 13:26:21</time>
      </trkpt>
      <trkpt lat="43.27986" lon="-3.16452">
        <ele>147.4</ele>
        <time>2021-10-28 13:26:22</time>
      </trkpt>
      <trkpt lat="43.27991" lon="-3.16453">
        <ele>147.4</ele>
        <time>2021-10-28 13:26:23</time>
      </trkpt>
      <trkpt lat="43.27996" lon="-3.16454">
        <ele>147.4</ele>
        <time>2021-10-28 13:26:24</time>
      </trkpt>
      <trkpt lat="43.28" lon="-3.16454">
        <ele>147.4</ele>
        <time>2021-10-28 13:26:25</time>
      </trkpt>
      <trkpt lat="43.28005" lon="-3.16455">
        <ele>147.4</ele>
        <time>2021-10-28 13:26:26</time>
      </trkpt>
      <trkpt lat="43.28009" lon="-3.16455">
        <ele>147.4</ele>
        <time>2021-10-28 13:26:27</time>
      </trkpt>
      <trkpt lat="43.28013" lon="-3.16455">
        <ele>147.4</ele>
        <time>2021-10-28 13:26:28</time>
      </trkpt>
      <trkpt lat="43.28017" lon="-3.16454">
        <ele>147.4</ele>
        <time>2021-10-28 13:26:29</time>
      </trkpt>
      <trkpt lat="43.28021" lon="-3.16453">
        <ele>147.4</ele>
        <time>2021-10-28 13:26:30</time>
      </trkpt>
      <trkpt lat="43.28025" lon="-3.16452">
        <ele>147.6</ele>
        <time>2021-10-28 13:26:31</time>
      </trkpt>
      <trkpt lat="43.28028" lon="-3.16451">
        <ele>147.6</ele>
        <time>2021-10-28 13:26:32</time>
      </trkpt>
      <trkpt lat="43.28033" lon="-3.1645">
        <ele>147.6</ele>
        <time>2021-10-28 13:26:33</time>
      </trkpt>
      <trkpt lat="43.28037" lon="-3.1645">
        <ele>147.6</ele>
        <time>2021-10-28 13:26:34</time>
      </trkpt>
      <trkpt lat="43.28042" lon="-3.16449">
        <ele>147.6</ele>
        <time>2021-10-28 13:26:35</time>
      </trkpt>
      <trkpt lat="43.28046" lon="-3.16448">
        <ele>147.6</ele>
        <time>2021-10-28 13:26:36</time>
      </trkpt>
      <trkpt lat="43.28051" lon="-3.16447">
        <ele>147.4</ele>
        <time>2021-10-28 13:26:37</time>
      </trkpt>
      <trkpt lat="43.28056" lon="-3.16446">
        <ele>147.4</ele>
        <time>2021-10-28 13:26:38</time>
      </trkpt>
      <trkpt lat="43.28061" lon="-3.16446">
        <ele>147.2</ele>
        <time>2021-10-28 13:26:39</time>
      </trkpt>
      <trkpt lat="43.28066" lon="-3.16445">
        <ele>147.2</ele>
        <time>2021-10-28 13:26:40</time>
      </trkpt>
      <trkpt lat="43.2807" lon="-3.16445">
        <ele>147.2</ele>
        <time>2021-10-28 13:26:41</time>
      </trkpt>
      <trkpt lat="43.28075" lon="-3.16445">
        <ele>147.4</ele>
        <time>2021-10-28 13:26:42</time>
      </trkpt>
      <trkpt lat="43.2808" lon="-3.16445">
        <ele>147.4</ele>
        <time>2021-10-28 13:26:43</time>
      </trkpt>
      <trkpt lat="43.28084" lon="-3.16444">
        <ele>147.4</ele>
        <time>2021-10-28 13:26:44</time>
      </trkpt>
      <trkpt lat="43.28089" lon="-3.16443">
        <ele>147.4</ele>
        <time>2021-10-28 13:26:45</time>
      </trkpt>
      <trkpt lat="43.28093" lon="-3.16443">
        <ele>147.4</ele>
        <time>2021-10-28 13:26:46</time>
      </trkpt>
      <trkpt lat="43.28098" lon="-3.16442">
        <ele>147.4</ele>
        <time>2021-10-28 13:26:47</time>
      </trkpt>
      <trkpt lat="43.28102" lon="-3.16441">
        <ele>147.4</ele>
        <time>2021-10-28 13:26:48</time>
      </trkpt>
      <trkpt lat="43.28106" lon="-3.1644">
        <ele>147.4</ele>
        <time>2021-10-28 13:26:49</time>
      </trkpt>
      <trkpt lat="43.28106" lon="-3.1644">
        <ele>147.4</ele>
        <time>2021-10-28 13:26:50</time>
      </trkpt>
      <trkpt lat="43.28115" lon="-3.16437">
        <ele>147.4</ele>
        <time>2021-10-28 13:26:51</time>
      </trkpt>
      <trkpt lat="43.28119" lon="-3.16436">
        <ele>147.4</ele>
        <time>2021-10-28 13:26:52</time>
      </trkpt>
      <trkpt lat="43.28124" lon="-3.16434">
        <ele>147.4</ele>
        <time>2021-10-28 13:26:53</time>
      </trkpt>
      <trkpt lat="43.28128" lon="-3.16432">
        <ele>147.6</ele>
        <time>2021-10-28 13:26:54</time>
      </trkpt>
      <trkpt lat="43.28132" lon="-3.1643">
        <ele>147.6</ele>
        <time>2021-10-28 13:26:55</time>
      </trkpt>
      <trkpt lat="43.28137" lon="-3.16427">
        <ele>147.6</ele>
        <time>2021-10-28 13:26:56</time>
      </trkpt>
      <trkpt lat="43.28141" lon="-3.16424">
        <ele>147.6</ele>
        <time>2021-10-28 13:26:57</time>
      </trkpt>
      <trkpt lat="43.28146" lon="-3.16422">
        <ele>147.6</ele>
        <time>2021-10-28 13:26:58</time>
      </trkpt>
      <trkpt lat="43.28154" lon="-3.16416">
        <ele>147.6</ele>
        <time>2021-10-28 13:26:59</time>
      </trkpt>
      <trkpt lat="43.28154" lon="-3.16416">
        <ele>147.6</ele>
        <time>2021-10-28 13:27:00</time>
      </trkpt>
      <trkpt lat="43.28158" lon="-3.16412">
        <ele>147.6</ele>
        <time>2021-10-28 13:27:01</time>
      </trkpt>
      <trkpt lat="43.28161" lon="-3.16408">
        <ele>147.6</ele>
        <time>2021-10-28 13:27:02</time>
      </trkpt>
      <trkpt lat="43.28165" lon="-3.16404">
        <ele>147.4</ele>
        <time>2021-10-28 13:27:03</time>
      </trkpt>
      <trkpt lat="43.28169" lon="-3.164">
        <ele>147.4</ele>
        <time>2021-10-28 13:27:04</time>
      </trkpt>
      <trkpt lat="43.28172" lon="-3.16397">
        <ele>147.4</ele>
        <time>2021-10-28 13:27:05</time>
      </trkpt>
      <trkpt lat="43.28176" lon="-3.16393">
        <ele>147.2</ele>
        <time>2021-10-28 13:27:06</time>
      </trkpt>
      <trkpt lat="43.28179" lon="-3.16389">
        <ele>147.2</ele>
        <time>2021-10-28 13:27:07</time>
      </trkpt>
      <trkpt lat="43.28183" lon="-3.16384">
        <ele>147</ele>
        <time>2021-10-28 13:27:08</time>
      </trkpt>
      <trkpt lat="43.28187" lon="-3.1638">
        <ele>146.8</ele>
        <time>2021-10-28 13:27:09</time>
      </trkpt>
      <trkpt lat="43.28191" lon="-3.16374">
        <ele>146.6</ele>
        <time>2021-10-28 13:27:10</time>
      </trkpt>
      <trkpt lat="43.28195" lon="-3.16368">
        <ele>146.6</ele>
        <time>2021-10-28 13:27:11</time>
      </trkpt>
      <trkpt lat="43.28198" lon="-3.16362">
        <ele>146.4</ele>
        <time>2021-10-28 13:27:12</time>
      </trkpt>
      <trkpt lat="43.28201" lon="-3.16356">
        <ele>146.2</ele>
        <time>2021-10-28 13:27:13</time>
      </trkpt>
      <trkpt lat="43.28204" lon="-3.1635">
        <ele>146</ele>
        <time>2021-10-28 13:27:14</time>
      </trkpt>
      <trkpt lat="43.28208" lon="-3.16344">
        <ele>145.8</ele>
        <time>2021-10-28 13:27:15</time>
      </trkpt>
      <trkpt lat="43.28211" lon="-3.16337">
        <ele>145.8</ele>
        <time>2021-10-28 13:27:16</time>
      </trkpt>
      <trkpt lat="43.28214" lon="-3.16331">
        <ele>145.6</ele>
        <time>2021-10-28 13:27:17</time>
      </trkpt>
      <trkpt lat="43.28217" lon="-3.16324">
        <ele>145.6</ele>
        <time>2021-10-28 13:27:18</time>
      </trkpt>
      <trkpt lat="43.2822" lon="-3.16317">
        <ele>145.4</ele>
        <time>2021-10-28 13:27:19</time>
      </trkpt>
      <trkpt lat="43.28223" lon="-3.1631">
        <ele>145.2</ele>
        <time>2021-10-28 13:27:20</time>
      </trkpt>
      <trkpt lat="43.28226" lon="-3.16303">
        <ele>145</ele>
        <time>2021-10-28 13:27:21</time>
      </trkpt>
      <trkpt lat="43.28228" lon="-3.16296">
        <ele>144.8</ele>
        <time>2021-10-28 13:27:22</time>
      </trkpt>
      <trkpt lat="43.28231" lon="-3.1629">
        <ele>144.6</ele>
        <time>2021-10-28 13:27:23</time>
      </trkpt>
      <trkpt lat="43.28234" lon="-3.16283">
        <ele>144.6</ele>
        <time>2021-10-28 13:27:24</time>
      </trkpt>
      <trkpt lat="43.28235" lon="-3.16277">
        <ele>144.6</ele>
        <time>2021-10-28 13:27:25</time>
      </trkpt>
      <trkpt lat="43.28237" lon="-3.16272">
        <ele>144.6</ele>
        <time>2021-10-28 13:27:26</time>
      </trkpt>
      <trkpt lat="43.28238" lon="-3.16266">
        <ele>144.4</ele>
        <time>2021-10-28 13:27:27</time>
      </trkpt>
      <trkpt lat="43.2824" lon="-3.16262">
        <ele>144.2</ele>
        <time>2021-10-28 13:27:28</time>
      </trkpt>
      <trkpt lat="43.28241" lon="-3.16257">
        <ele>144</ele>
        <time>2021-10-28 13:27:29</time>
      </trkpt>
      <trkpt lat="43.28242" lon="-3.16253">
        <ele>144</ele>
        <time>2021-10-28 13:27:30</time>
      </trkpt>
      <trkpt lat="43.28243" lon="-3.16248">
        <ele>143.8</ele>
        <time>2021-10-28 13:27:31</time>
      </trkpt>
      <trkpt lat="43.28244" lon="-3.16244">
        <ele>143.6</ele>
        <time>2021-10-28 13:27:32</time>
      </trkpt>
      <trkpt lat="43.28245" lon="-3.1624">
        <ele>143.4</ele>
        <time>2021-10-28 13:27:33</time>
      </trkpt>
      <trkpt lat="43.28245" lon="-3.16235">
        <ele>143.4</ele>
        <time>2021-10-28 13:27:34</time>
      </trkpt>
      <trkpt lat="43.28246" lon="-3.16232">
        <ele>143.2</ele>
        <time>2021-10-28 13:27:35</time>
      </trkpt>
      <trkpt lat="43.28248" lon="-3.16228">
        <ele>143</ele>
        <time>2021-10-28 13:27:36</time>
      </trkpt>
      <trkpt lat="43.28247" lon="-3.16223">
        <ele>143</ele>
        <time>2021-10-28 13:27:37</time>
      </trkpt>
      <trkpt lat="43.2825" lon="-3.16217">
        <ele>143</ele>
        <time>2021-10-28 13:27:38</time>
      </trkpt>
      <trkpt lat="43.28251" lon="-3.1621">
        <ele>142.8</ele>
        <time>2021-10-28 13:27:39</time>
      </trkpt>
      <trkpt lat="43.28251" lon="-3.16203">
        <ele>142.8</ele>
        <time>2021-10-28 13:27:40</time>
      </trkpt>
      <trkpt lat="43.28252" lon="-3.16195">
        <ele>142.8</ele>
        <time>2021-10-28 13:27:41</time>
      </trkpt>
      <trkpt lat="43.28253" lon="-3.16188">
        <ele>142.6</ele>
        <time>2021-10-28 13:27:42</time>
      </trkpt>
      <trkpt lat="43.28255" lon="-3.1618">
        <ele>142.6</ele>
        <time>2021-10-28 13:27:43</time>
      </trkpt>
      <trkpt lat="43.28256" lon="-3.16173">
        <ele>142.4</ele>
        <time>2021-10-28 13:27:44</time>
      </trkpt>
      <trkpt lat="43.28256" lon="-3.16167">
        <ele>142.2</ele>
        <time>2021-10-28 13:27:45</time>
      </trkpt>
      <trkpt lat="43.28256" lon="-3.1616">
        <ele>142</ele>
        <time>2021-10-28 13:27:46</time>
      </trkpt>
      <trkpt lat="43.28261" lon="-3.16149">
        <ele>141.8</ele>
        <time>2021-10-28 13:27:47</time>
      </trkpt>
      <trkpt lat="43.28261" lon="-3.16149">
        <ele>141.6</ele>
        <time>2021-10-28 13:27:48</time>
      </trkpt>
      <trkpt lat="43.28261" lon="-3.16145">
        <ele>141.4</ele>
        <time>2021-10-28 13:27:49</time>
      </trkpt>
      <trkpt lat="43.28261" lon="-3.16145">
        <ele>141.4</ele>
        <time>2021-10-28 13:27:50</time>
      </trkpt>
      <trkpt lat="43.2826" lon="-3.16138">
        <ele>141.2</ele>
        <time>2021-10-28 13:27:51</time>
      </trkpt>
      <trkpt lat="43.28261" lon="-3.16134">
        <ele>141</ele>
        <time>2021-10-28 13:27:52</time>
      </trkpt>
      <trkpt lat="43.28261" lon="-3.16126">
        <ele>140.8</ele>
        <time>2021-10-28 13:27:53</time>
      </trkpt>
      <trkpt lat="43.2826" lon="-3.16117">
        <ele>140.6</ele>
        <time>2021-10-28 13:27:54</time>
      </trkpt>
      <trkpt lat="43.28254" lon="-3.16116">
        <ele>140.4</ele>
        <time>2021-10-28 13:27:55</time>
      </trkpt>
      <trkpt lat="43.28254" lon="-3.16116">
        <ele>140.4</ele>
        <time>2021-10-28 13:27:56</time>
      </trkpt>
      <trkpt lat="43.28254" lon="-3.1609">
        <ele>140.2</ele>
        <time>2021-10-28 13:27:57</time>
      </trkpt>
      <trkpt lat="43.28252" lon="-3.16078">
        <ele>140</ele>
        <time>2021-10-28 13:27:58</time>
      </trkpt>
      <trkpt lat="43.2825" lon="-3.16067">
        <ele>139.6</ele>
        <time>2021-10-28 13:27:59</time>
      </trkpt>
      <trkpt lat="43.28247" lon="-3.16058">
        <ele>139.4</ele>
        <time>2021-10-28 13:28:00</time>
      </trkpt>
      <trkpt lat="43.28241" lon="-3.16043">
        <ele>139.2</ele>
        <time>2021-10-28 13:28:01</time>
      </trkpt>
      <trkpt lat="43.28238" lon="-3.16034">
        <ele>139</ele>
        <time>2021-10-28 13:28:02</time>
      </trkpt>
      <trkpt lat="43.28234" lon="-3.16024">
        <ele>138.8</ele>
        <time>2021-10-28 13:28:03</time>
      </trkpt>
      <trkpt lat="43.28229" lon="-3.16014">
        <ele>138.4</ele>
        <time>2021-10-28 13:28:04</time>
      </trkpt>
      <trkpt lat="43.28225" lon="-3.16004">
        <ele>138.2</ele>
        <time>2021-10-28 13:28:05</time>
      </trkpt>
      <trkpt lat="43.2822" lon="-3.15993">
        <ele>138</ele>
        <time>2021-10-28 13:28:06</time>
      </trkpt>
      <trkpt lat="43.28216" lon="-3.15984">
        <ele>137.8</ele>
        <time>2021-10-28 13:28:07</time>
      </trkpt>
      <trkpt lat="43.28212" lon="-3.15976">
        <ele>137.6</ele>
        <time>2021-10-28 13:28:08</time>
      </trkpt>
      <trkpt lat="43.28208" lon="-3.15968">
        <ele>137.4</ele>
        <time>2021-10-28 13:28:09</time>
      </trkpt>
      <trkpt lat="43.28204" lon="-3.1596">
        <ele>137.2</ele>
        <time>2021-10-28 13:28:10</time>
      </trkpt>
      <trkpt lat="43.282" lon="-3.15953">
        <ele>137</ele>
        <time>2021-10-28 13:28:11</time>
      </trkpt>
      <trkpt lat="43.28196" lon="-3.15946">
        <ele>136.8</ele>
        <time>2021-10-28 13:28:12</time>
      </trkpt>
      <trkpt lat="43.28192" lon="-3.15939">
        <ele>136.6</ele>
        <time>2021-10-28 13:28:13</time>
      </trkpt>
      <trkpt lat="43.28188" lon="-3.15933">
        <ele>136.4</ele>
        <time>2021-10-28 13:28:14</time>
      </trkpt>
      <trkpt lat="43.28184" lon="-3.15928">
        <ele>136.4</ele>
        <time>2021-10-28 13:28:15</time>
      </trkpt>
      <trkpt lat="43.28181" lon="-3.15923">
        <ele>136.2</ele>
        <time>2021-10-28 13:28:16</time>
      </trkpt>
      <trkpt lat="43.28177" lon="-3.15918">
        <ele>136</ele>
        <time>2021-10-28 13:28:17</time>
      </trkpt>
      <trkpt lat="43.28173" lon="-3.15913">
        <ele>136</ele>
        <time>2021-10-28 13:28:18</time>
      </trkpt>
      <trkpt lat="43.28169" lon="-3.15908">
        <ele>135.8</ele>
        <time>2021-10-28 13:28:19</time>
      </trkpt>
      <trkpt lat="43.28165" lon="-3.15903">
        <ele>135.8</ele>
        <time>2021-10-28 13:28:20</time>
      </trkpt>
      <trkpt lat="43.28155" lon="-3.15893">
        <ele>135.8</ele>
        <time>2021-10-28 13:28:21</time>
      </trkpt>
      <trkpt lat="43.28155" lon="-3.15893">
        <ele>135.6</ele>
        <time>2021-10-28 13:28:22</time>
      </trkpt>
      <trkpt lat="43.2815" lon="-3.15887">
        <ele>135.4</ele>
        <time>2021-10-28 13:28:23</time>
      </trkpt>
      <trkpt lat="43.28145" lon="-3.1588">
        <ele>135</ele>
        <time>2021-10-28 13:28:24</time>
      </trkpt>
      <trkpt lat="43.2814" lon="-3.15874">
        <ele>134.8</ele>
        <time>2021-10-28 13:28:25</time>
      </trkpt>
      <trkpt lat="43.28134" lon="-3.15868">
        <ele>134.6</ele>
        <time>2021-10-28 13:28:26</time>
      </trkpt>
      <trkpt lat="43.28123" lon="-3.15857">
        <ele>134.4</ele>
        <time>2021-10-28 13:28:27</time>
      </trkpt>
      <trkpt lat="43.28123" lon="-3.15857">
        <ele>134.2</ele>
        <time>2021-10-28 13:28:28</time>
      </trkpt>
      <trkpt lat="43.28117" lon="-3.15851">
        <ele>134</ele>
        <time>2021-10-28 13:28:29</time>
      </trkpt>
      <trkpt lat="43.28111" lon="-3.15845">
        <ele>133.8</ele>
        <time>2021-10-28 13:28:30</time>
      </trkpt>
      <trkpt lat="43.28099" lon="-3.15834">
        <ele>133.6</ele>
        <time>2021-10-28 13:28:31</time>
      </trkpt>
      <trkpt lat="43.28099" lon="-3.15834">
        <ele>133.4</ele>
        <time>2021-10-28 13:28:32</time>
      </trkpt>
      <trkpt lat="43.28093" lon="-3.15829">
        <ele>133.2</ele>
        <time>2021-10-28 13:28:33</time>
      </trkpt>
      <trkpt lat="43.28087" lon="-3.15823">
        <ele>132.8</ele>
        <time>2021-10-28 13:28:34</time>
      </trkpt>
      <trkpt lat="43.28074" lon="-3.15813">
        <ele>132.6</ele>
        <time>2021-10-28 13:28:35</time>
      </trkpt>
      <trkpt lat="43.28074" lon="-3.15813">
        <ele>132.4</ele>
        <time>2021-10-28 13:28:36</time>
      </trkpt>
      <trkpt lat="43.28069" lon="-3.15808">
        <ele>132</ele>
        <time>2021-10-28 13:28:37</time>
      </trkpt>
      <trkpt lat="43.28059" lon="-3.158">
        <ele>131.6</ele>
        <time>2021-10-28 13:28:38</time>
      </trkpt>
      <trkpt lat="43.28059" lon="-3.158">
        <ele>131.4</ele>
        <time>2021-10-28 13:28:39</time>
      </trkpt>
      <trkpt lat="43.28054" lon="-3.15796">
        <ele>131.2</ele>
        <time>2021-10-28 13:28:40</time>
      </trkpt>
      <trkpt lat="43.28054" lon="-3.15796">
        <ele>131</ele>
        <time>2021-10-28 13:28:41</time>
      </trkpt>
      <trkpt lat="43.28046" lon="-3.15789">
        <ele>130.8</ele>
        <time>2021-10-28 13:28:42</time>
      </trkpt>
      <trkpt lat="43.28042" lon="-3.15785">
        <ele>130.8</ele>
        <time>2021-10-28 13:28:43</time>
      </trkpt>
      <trkpt lat="43.28038" lon="-3.15782">
        <ele>130.6</ele>
        <time>2021-10-28 13:28:44</time>
      </trkpt>
      <trkpt lat="43.28034" lon="-3.15779">
        <ele>130.4</ele>
        <time>2021-10-28 13:28:45</time>
      </trkpt>
      <trkpt lat="43.2803" lon="-3.15775">
        <ele>130.4</ele>
        <time>2021-10-28 13:28:46</time>
      </trkpt>
      <trkpt lat="43.28022" lon="-3.15767">
        <ele>130.4</ele>
        <time>2021-10-28 13:28:47</time>
      </trkpt>
      <trkpt lat="43.28022" lon="-3.15767">
        <ele>130.2</ele>
        <time>2021-10-28 13:28:48</time>
      </trkpt>
      <trkpt lat="43.28014" lon="-3.15758">
        <ele>130.2</ele>
        <time>2021-10-28 13:28:49</time>
      </trkpt>
      <trkpt lat="43.28014" lon="-3.15758">
        <ele>130</ele>
        <time>2021-10-28 13:28:50</time>
      </trkpt>
      <trkpt lat="43.2801" lon="-3.15754">
        <ele>129.8</ele>
        <time>2021-10-28 13:28:51</time>
      </trkpt>
      <trkpt lat="43.28006" lon="-3.1575">
        <ele>129.6</ele>
        <time>2021-10-28 13:28:52</time>
      </trkpt>
      <trkpt lat="43.28003" lon="-3.15746">
        <ele>129.4</ele>
        <time>2021-10-28 13:28:53</time>
      </trkpt>
      <trkpt lat="43.27999" lon="-3.15742">
        <ele>129.2</ele>
        <time>2021-10-28 13:28:54</time>
      </trkpt>
      <trkpt lat="43.27996" lon="-3.15737">
        <ele>129</ele>
        <time>2021-10-28 13:28:55</time>
      </trkpt>
      <trkpt lat="43.27988" lon="-3.15726">
        <ele>128.8</ele>
        <time>2021-10-28 13:28:56</time>
      </trkpt>
      <trkpt lat="43.27988" lon="-3.15726">
        <ele>128.6</ele>
        <time>2021-10-28 13:28:57</time>
      </trkpt>
      <trkpt lat="43.27984" lon="-3.15721">
        <ele>128.6</ele>
        <time>2021-10-28 13:28:58</time>
      </trkpt>
      <trkpt lat="43.27976" lon="-3.15709">
        <ele>128.6</ele>
        <time>2021-10-28 13:28:59</time>
      </trkpt>
      <trkpt lat="43.27976" lon="-3.15709">
        <ele>128.4</ele>
        <time>2021-10-28 13:29:00</time>
      </trkpt>
      <trkpt lat="43.27968" lon="-3.15698">
        <ele>128.2</ele>
        <time>2021-10-28 13:29:01</time>
      </trkpt>
      <trkpt lat="43.27968" lon="-3.15698">
        <ele>128</ele>
        <time>2021-10-28 13:29:02</time>
      </trkpt>
      <trkpt lat="43.27961" lon="-3.15684">
        <ele>127.8</ele>
        <time>2021-10-28 13:29:03</time>
      </trkpt>
      <trkpt lat="43.27961" lon="-3.15684">
        <ele>127.6</ele>
        <time>2021-10-28 13:29:04</time>
      </trkpt>
      <trkpt lat="43.27957" lon="-3.15677">
        <ele>127.4</ele>
        <time>2021-10-28 13:29:05</time>
      </trkpt>
      <trkpt lat="43.2795" lon="-3.15661">
        <ele>127.2</ele>
        <time>2021-10-28 13:29:06</time>
      </trkpt>
      <trkpt lat="43.2795" lon="-3.15661">
        <ele>127</ele>
        <time>2021-10-28 13:29:07</time>
      </trkpt>
      <trkpt lat="43.27944" lon="-3.15644">
        <ele>126.6</ele>
        <time>2021-10-28 13:29:08</time>
      </trkpt>
      <trkpt lat="43.27944" lon="-3.15644">
        <ele>126.4</ele>
        <time>2021-10-28 13:29:09</time>
      </trkpt>
      <trkpt lat="43.27936" lon="-3.15626">
        <ele>126</ele>
        <time>2021-10-28 13:29:10</time>
      </trkpt>
      <trkpt lat="43.27936" lon="-3.15626">
        <ele>125.8</ele>
        <time>2021-10-28 13:29:11</time>
      </trkpt>
      <trkpt lat="43.27929" lon="-3.15608">
        <ele>125.6</ele>
        <time>2021-10-28 13:29:12</time>
      </trkpt>
      <trkpt lat="43.27929" lon="-3.15608">
        <ele>125.4</ele>
        <time>2021-10-28 13:29:13</time>
      </trkpt>
      <trkpt lat="43.27923" lon="-3.15589">
        <ele>125.2</ele>
        <time>2021-10-28 13:29:14</time>
      </trkpt>
      <trkpt lat="43.27923" lon="-3.15589">
        <ele>125.2</ele>
        <time>2021-10-28 13:29:15</time>
      </trkpt>
      <trkpt lat="43.27917" lon="-3.15569">
        <ele>125</ele>
        <time>2021-10-28 13:29:16</time>
      </trkpt>
      <trkpt lat="43.27917" lon="-3.15569">
        <ele>124.6</ele>
        <time>2021-10-28 13:29:17</time>
      </trkpt>
      <trkpt lat="43.27911" lon="-3.1555">
        <ele>124.4</ele>
        <time>2021-10-28 13:29:18</time>
      </trkpt>
      <trkpt lat="43.27911" lon="-3.1555">
        <ele>124.2</ele>
        <time>2021-10-28 13:29:19</time>
      </trkpt>
      <trkpt lat="43.27909" lon="-3.15542">
        <ele>124</ele>
        <time>2021-10-28 13:29:20</time>
      </trkpt>
      <trkpt lat="43.27908" lon="-3.15534">
        <ele>123.8</ele>
        <time>2021-10-28 13:29:21</time>
      </trkpt>
      <trkpt lat="43.27905" lon="-3.15516">
        <ele>123.8</ele>
        <time>2021-10-28 13:29:22</time>
      </trkpt>
      <trkpt lat="43.27905" lon="-3.15516">
        <ele>123.6</ele>
        <time>2021-10-28 13:29:23</time>
      </trkpt>
      <trkpt lat="43.27904" lon="-3.15506">
        <ele>123.4</ele>
        <time>2021-10-28 13:29:24</time>
      </trkpt>
      <trkpt lat="43.27901" lon="-3.15486">
        <ele>123.2</ele>
        <time>2021-10-28 13:29:25</time>
      </trkpt>
      <trkpt lat="43.27901" lon="-3.15486">
        <ele>122.8</ele>
        <time>2021-10-28 13:29:26</time>
      </trkpt>
      <trkpt lat="43.27896" lon="-3.15462">
        <ele>122.6</ele>
        <time>2021-10-28 13:29:27</time>
      </trkpt>
      <trkpt lat="43.27896" lon="-3.15462">
        <ele>122.2</ele>
        <time>2021-10-28 13:29:28</time>
      </trkpt>
      <trkpt lat="43.27894" lon="-3.1545">
        <ele>121.8</ele>
        <time>2021-10-28 13:29:29</time>
      </trkpt>
      <trkpt lat="43.27889" lon="-3.15428">
        <ele>121.4</ele>
        <time>2021-10-28 13:29:30</time>
      </trkpt>
      <trkpt lat="43.27889" lon="-3.15428">
        <ele>121.2</ele>
        <time>2021-10-28 13:29:31</time>
      </trkpt>
      <trkpt lat="43.27883" lon="-3.15405">
        <ele>120.8</ele>
        <time>2021-10-28 13:29:32</time>
      </trkpt>
      <trkpt lat="43.27883" lon="-3.15405">
        <ele>120.6</ele>
        <time>2021-10-28 13:29:33</time>
      </trkpt>
      <trkpt lat="43.2788" lon="-3.15395">
        <ele>120.2</ele>
        <time>2021-10-28 13:29:34</time>
      </trkpt>
      <trkpt lat="43.27879" lon="-3.15385">
        <ele>119.8</ele>
        <time>2021-10-28 13:29:35</time>
      </trkpt>
      <trkpt lat="43.27879" lon="-3.15385">
        <ele>119.6</ele>
        <time>2021-10-28 13:29:36</time>
      </trkpt>
      <trkpt lat="43.27876" lon="-3.15367">
        <ele>119.4</ele>
        <time>2021-10-28 13:29:37</time>
      </trkpt>
      <trkpt lat="43.27873" lon="-3.15358">
        <ele>119</ele>
        <time>2021-10-28 13:29:38</time>
      </trkpt>
      <trkpt lat="43.2787" lon="-3.15347">
        <ele>118.6</ele>
        <time>2021-10-28 13:29:39</time>
      </trkpt>
      <trkpt lat="43.27868" lon="-3.15338">
        <ele>118</ele>
        <time>2021-10-28 13:29:40</time>
      </trkpt>
      <trkpt lat="43.27861" lon="-3.15319">
        <ele>117.6</ele>
        <time>2021-10-28 13:29:41</time>
      </trkpt>
      <trkpt lat="43.27861" lon="-3.15319">
        <ele>117.4</ele>
        <time>2021-10-28 13:29:42</time>
      </trkpt>
      <trkpt lat="43.27855" lon="-3.15299">
        <ele>117</ele>
        <time>2021-10-28 13:29:43</time>
      </trkpt>
      <trkpt lat="43.27855" lon="-3.15299">
        <ele>116.8</ele>
        <time>2021-10-28 13:29:44</time>
      </trkpt>
      <trkpt lat="43.27852" lon="-3.15289">
        <ele>116.4</ele>
        <time>2021-10-28 13:29:45</time>
      </trkpt>
      <trkpt lat="43.27849" lon="-3.15277">
        <ele>116</ele>
        <time>2021-10-28 13:29:46</time>
      </trkpt>
      <trkpt lat="43.27846" lon="-3.15266">
        <ele>115.8</ele>
        <time>2021-10-28 13:29:47</time>
      </trkpt>
      <trkpt lat="43.27844" lon="-3.15256">
        <ele>115.6</ele>
        <time>2021-10-28 13:29:48</time>
      </trkpt>
      <trkpt lat="43.2784" lon="-3.15245">
        <ele>115.4</ele>
        <time>2021-10-28 13:29:49</time>
      </trkpt>
      <trkpt lat="43.27831" lon="-3.1522">
        <ele>115.2</ele>
        <time>2021-10-28 13:29:50</time>
      </trkpt>
      <trkpt lat="43.27831" lon="-3.1522">
        <ele>115</ele>
        <time>2021-10-28 13:29:51</time>
      </trkpt>
      <trkpt lat="43.27823" lon="-3.15198">
        <ele>114.8</ele>
        <time>2021-10-28 13:29:52</time>
      </trkpt>
      <trkpt lat="43.27823" lon="-3.15198">
        <ele>114.8</ele>
        <time>2021-10-28 13:29:53</time>
      </trkpt>
      <trkpt lat="43.27814" lon="-3.15177">
        <ele>114.8</ele>
        <time>2021-10-28 13:29:54</time>
      </trkpt>
      <trkpt lat="43.27814" lon="-3.15177">
        <ele>114.8</ele>
        <time>2021-10-28 13:29:55</time>
      </trkpt>
      <trkpt lat="43.2781" lon="-3.15167">
        <ele>114.6</ele>
        <time>2021-10-28 13:29:56</time>
      </trkpt>
      <trkpt lat="43.27806" lon="-3.15157">
        <ele>114.6</ele>
        <time>2021-10-28 13:29:57</time>
      </trkpt>
      <trkpt lat="43.27802" lon="-3.15147">
        <ele>114.4</ele>
        <time>2021-10-28 13:29:58</time>
      </trkpt>
      <trkpt lat="43.27796" lon="-3.15127">
        <ele>114.2</ele>
        <time>2021-10-28 13:29:59</time>
      </trkpt>
      <trkpt lat="43.27796" lon="-3.15127">
        <ele>114</ele>
        <time>2021-10-28 13:30:00</time>
      </trkpt>
      <trkpt lat="43.27788" lon="-3.15109">
        <ele>113.8</ele>
        <time>2021-10-28 13:30:01</time>
      </trkpt>
      <trkpt lat="43.27788" lon="-3.15109">
        <ele>113.6</ele>
        <time>2021-10-28 13:30:02</time>
      </trkpt>
      <trkpt lat="43.27784" lon="-3.151">
        <ele>113.4</ele>
        <time>2021-10-28 13:30:03</time>
      </trkpt>
      <trkpt lat="43.27775" lon="-3.15082">
        <ele>113</ele>
        <time>2021-10-28 13:30:04</time>
      </trkpt>
      <trkpt lat="43.27775" lon="-3.15082">
        <ele>112.6</ele>
        <time>2021-10-28 13:30:05</time>
      </trkpt>
      <trkpt lat="43.27771" lon="-3.15072">
        <ele>112.2</ele>
        <time>2021-10-28 13:30:06</time>
      </trkpt>
      <trkpt lat="43.27762" lon="-3.15056">
        <ele>112</ele>
        <time>2021-10-28 13:30:07</time>
      </trkpt>
      <trkpt lat="43.27762" lon="-3.15056">
        <ele>111.8</ele>
        <time>2021-10-28 13:30:08</time>
      </trkpt>
      <trkpt lat="43.27756" lon="-3.15035">
        <ele>111.4</ele>
        <time>2021-10-28 13:30:09</time>
      </trkpt>
      <trkpt lat="43.27756" lon="-3.15035">
        <ele>111.2</ele>
        <time>2021-10-28 13:30:10</time>
      </trkpt>
      <trkpt lat="43.27754" lon="-3.15023">
        <ele>111</ele>
        <time>2021-10-28 13:30:11</time>
      </trkpt>
      <trkpt lat="43.27754" lon="-3.15023">
        <ele>110.8</ele>
        <time>2021-10-28 13:30:12</time>
      </trkpt>
      <trkpt lat="43.27747" lon="-3.14986">
        <ele>110.4</ele>
        <time>2021-10-28 13:30:13</time>
      </trkpt>
      <trkpt lat="43.27747" lon="-3.14986">
        <ele>110</ele>
        <time>2021-10-28 13:30:14</time>
      </trkpt>
      <trkpt lat="43.27741" lon="-3.14961">
        <ele>109.6</ele>
        <time>2021-10-28 13:30:15</time>
      </trkpt>
      <trkpt lat="43.27741" lon="-3.14961">
        <ele>109.4</ele>
        <time>2021-10-28 13:30:16</time>
      </trkpt>
      <trkpt lat="43.27736" lon="-3.14936">
        <ele>109</ele>
        <time>2021-10-28 13:30:17</time>
      </trkpt>
      <trkpt lat="43.27736" lon="-3.14936">
        <ele>108.6</ele>
        <time>2021-10-28 13:30:18</time>
      </trkpt>
      <trkpt lat="43.27732" lon="-3.14914">
        <ele>108.2</ele>
        <time>2021-10-28 13:30:19</time>
      </trkpt>
      <trkpt lat="43.27732" lon="-3.14914">
        <ele>108</ele>
        <time>2021-10-28 13:30:20</time>
      </trkpt>
      <trkpt lat="43.27728" lon="-3.14902">
        <ele>108</ele>
        <time>2021-10-28 13:30:21</time>
      </trkpt>
      <trkpt lat="43.27721" lon="-3.14882">
        <ele>107.8</ele>
        <time>2021-10-28 13:30:22</time>
      </trkpt>
      <trkpt lat="43.27721" lon="-3.14882">
        <ele>107.8</ele>
        <time>2021-10-28 13:30:23</time>
      </trkpt>
      <trkpt lat="43.2771" lon="-3.1486">
        <ele>107.6</ele>
        <time>2021-10-28 13:30:24</time>
      </trkpt>
      <trkpt lat="43.2771" lon="-3.1486">
        <ele>107.6</ele>
        <time>2021-10-28 13:30:25</time>
      </trkpt>
      <trkpt lat="43.27705" lon="-3.14849">
        <ele>107.2</ele>
        <time>2021-10-28 13:30:26</time>
      </trkpt>
      <trkpt lat="43.27699" lon="-3.14837">
        <ele>106.8</ele>
        <time>2021-10-28 13:30:27</time>
      </trkpt>
      <trkpt lat="43.27695" lon="-3.14826">
        <ele>106.6</ele>
        <time>2021-10-28 13:30:28</time>
      </trkpt>
      <trkpt lat="43.27691" lon="-3.14813">
        <ele>106.2</ele>
        <time>2021-10-28 13:30:29</time>
      </trkpt>
      <trkpt lat="43.27688" lon="-3.14801">
        <ele>106</ele>
        <time>2021-10-28 13:30:30</time>
      </trkpt>
      <trkpt lat="43.27685" lon="-3.1479">
        <ele>105.8</ele>
        <time>2021-10-28 13:30:31</time>
      </trkpt>
      <trkpt lat="43.27683" lon="-3.14779">
        <ele>105.6</ele>
        <time>2021-10-28 13:30:32</time>
      </trkpt>
      <trkpt lat="43.27682" lon="-3.14768">
        <ele>105.2</ele>
        <time>2021-10-28 13:30:33</time>
      </trkpt>
      <trkpt lat="43.27679" lon="-3.14758">
        <ele>105</ele>
        <time>2021-10-28 13:30:34</time>
      </trkpt>
      <trkpt lat="43.27676" lon="-3.14736">
        <ele>104.8</ele>
        <time>2021-10-28 13:30:35</time>
      </trkpt>
      <trkpt lat="43.27676" lon="-3.14736">
        <ele>104.6</ele>
        <time>2021-10-28 13:30:36</time>
      </trkpt>
      <trkpt lat="43.27677" lon="-3.14724">
        <ele>104.4</ele>
        <time>2021-10-28 13:30:37</time>
      </trkpt>
      <trkpt lat="43.27681" lon="-3.14702">
        <ele>104.4</ele>
        <time>2021-10-28 13:30:38</time>
      </trkpt>
      <trkpt lat="43.27681" lon="-3.14702">
        <ele>104.2</ele>
        <time>2021-10-28 13:30:39</time>
      </trkpt>
      <trkpt lat="43.27683" lon="-3.14694">
        <ele>104</ele>
        <time>2021-10-28 13:30:40</time>
      </trkpt>
      <trkpt lat="43.27687" lon="-3.14682">
        <ele>103.6</ele>
        <time>2021-10-28 13:30:41</time>
      </trkpt>
      <trkpt lat="43.27691" lon="-3.14671">
        <ele>103.2</ele>
        <time>2021-10-28 13:30:42</time>
      </trkpt>
      <trkpt lat="43.27695" lon="-3.14659">
        <ele>103</ele>
        <time>2021-10-28 13:30:43</time>
      </trkpt>
      <trkpt lat="43.27702" lon="-3.14637">
        <ele>102.8</ele>
        <time>2021-10-28 13:30:44</time>
      </trkpt>
      <trkpt lat="43.27702" lon="-3.14637">
        <ele>102.4</ele>
        <time>2021-10-28 13:30:45</time>
      </trkpt>
      <trkpt lat="43.27706" lon="-3.14625">
        <ele>102.2</ele>
        <time>2021-10-28 13:30:46</time>
      </trkpt>
      <trkpt lat="43.27708" lon="-3.14614">
        <ele>102</ele>
        <time>2021-10-28 13:30:47</time>
      </trkpt>
      <trkpt lat="43.27712" lon="-3.14605">
        <ele>101.6</ele>
        <time>2021-10-28 13:30:48</time>
      </trkpt>
      <trkpt lat="43.27716" lon="-3.14587">
        <ele>101.4</ele>
        <time>2021-10-28 13:30:49</time>
      </trkpt>
      <trkpt lat="43.27716" lon="-3.14587">
        <ele>101</ele>
        <time>2021-10-28 13:30:50</time>
      </trkpt>
      <trkpt lat="43.27721" lon="-3.1458">
        <ele>100.8</ele>
        <time>2021-10-28 13:30:51</time>
      </trkpt>
      <trkpt lat="43.27726" lon="-3.14571">
        <ele>100.6</ele>
        <time>2021-10-28 13:30:52</time>
      </trkpt>
      <trkpt lat="43.27735" lon="-3.14553">
        <ele>100.4</ele>
        <time>2021-10-28 13:30:53</time>
      </trkpt>
      <trkpt lat="43.27735" lon="-3.14553">
        <ele>100</ele>
        <time>2021-10-28 13:30:54</time>
      </trkpt>
      <trkpt lat="43.27738" lon="-3.14541">
        <ele>99.8</ele>
        <time>2021-10-28 13:30:55</time>
      </trkpt>
      <trkpt lat="43.27741" lon="-3.14529">
        <ele>99.6</ele>
        <time>2021-10-28 13:30:56</time>
      </trkpt>
      <trkpt lat="43.27745" lon="-3.14519">
        <ele>99.4</ele>
        <time>2021-10-28 13:30:57</time>
      </trkpt>
      <trkpt lat="43.27749" lon="-3.14507">
        <ele>99.2</ele>
        <time>2021-10-28 13:30:58</time>
      </trkpt>
      <trkpt lat="43.27755" lon="-3.14485">
        <ele>99</ele>
        <time>2021-10-28 13:30:59</time>
      </trkpt>
      <trkpt lat="43.27755" lon="-3.14485">
        <ele>98.6</ele>
        <time>2021-10-28 13:31:00</time>
      </trkpt>
      <trkpt lat="43.27758" lon="-3.14473">
        <ele>98.2</ele>
        <time>2021-10-28 13:31:01</time>
      </trkpt>
      <trkpt lat="43.2776" lon="-3.14461">
        <ele>97.6</ele>
        <time>2021-10-28 13:31:02</time>
      </trkpt>
      <trkpt lat="43.27762" lon="-3.14448">
        <ele>97.2</ele>
        <time>2021-10-28 13:31:03</time>
      </trkpt>
      <trkpt lat="43.27763" lon="-3.14435">
        <ele>97</ele>
        <time>2021-10-28 13:31:04</time>
      </trkpt>
      <trkpt lat="43.27764" lon="-3.14424">
        <ele>96.8</ele>
        <time>2021-10-28 13:31:05</time>
      </trkpt>
      <trkpt lat="43.27765" lon="-3.14414">
        <ele>96.6</ele>
        <time>2021-10-28 13:31:06</time>
      </trkpt>
      <trkpt lat="43.27765" lon="-3.14402">
        <ele>96.4</ele>
        <time>2021-10-28 13:31:07</time>
      </trkpt>
      <trkpt lat="43.27763" lon="-3.1438">
        <ele>96.2</ele>
        <time>2021-10-28 13:31:08</time>
      </trkpt>
      <trkpt lat="43.27763" lon="-3.1438">
        <ele>96</ele>
        <time>2021-10-28 13:31:09</time>
      </trkpt>
      <trkpt lat="43.27762" lon="-3.14369">
        <ele>95.8</ele>
        <time>2021-10-28 13:31:10</time>
      </trkpt>
      <trkpt lat="43.2776" lon="-3.14358">
        <ele>95.6</ele>
        <time>2021-10-28 13:31:11</time>
      </trkpt>
      <trkpt lat="43.27753" lon="-3.14334">
        <ele>95.4</ele>
        <time>2021-10-28 13:31:12</time>
      </trkpt>
      <trkpt lat="43.27753" lon="-3.14334">
        <ele>95</ele>
        <time>2021-10-28 13:31:13</time>
      </trkpt>
      <trkpt lat="43.27748" lon="-3.14321">
        <ele>94.8</ele>
        <time>2021-10-28 13:31:14</time>
      </trkpt>
      <trkpt lat="43.27744" lon="-3.14309">
        <ele>94.6</ele>
        <time>2021-10-28 13:31:15</time>
      </trkpt>
      <trkpt lat="43.2774" lon="-3.14296">
        <ele>94.4</ele>
        <time>2021-10-28 13:31:16</time>
      </trkpt>
      <trkpt lat="43.27736" lon="-3.14284">
        <ele>94</ele>
        <time>2021-10-28 13:31:17</time>
      </trkpt>
      <trkpt lat="43.27729" lon="-3.14263">
        <ele>93.8</ele>
        <time>2021-10-28 13:31:18</time>
      </trkpt>
      <trkpt lat="43.27729" lon="-3.14263">
        <ele>93.6</ele>
        <time>2021-10-28 13:31:19</time>
      </trkpt>
      <trkpt lat="43.27727" lon="-3.14253">
        <ele>93.6</ele>
        <time>2021-10-28 13:31:20</time>
      </trkpt>
      <trkpt lat="43.27725" lon="-3.14248">
        <ele>93.6</ele>
        <time>2021-10-28 13:31:21</time>
      </trkpt>
      <trkpt lat="43.27725" lon="-3.14238">
        <ele>93.6</ele>
        <time>2021-10-28 13:31:22</time>
      </trkpt>
      <trkpt lat="43.27724" lon="-3.14228">
        <ele>93.4</ele>
        <time>2021-10-28 13:31:23</time>
      </trkpt>
      <trkpt lat="43.27724" lon="-3.14217">
        <ele>93.2</ele>
        <time>2021-10-28 13:31:24</time>
      </trkpt>
      <trkpt lat="43.27724" lon="-3.14207">
        <ele>93</ele>
        <time>2021-10-28 13:31:25</time>
      </trkpt>
      <trkpt lat="43.27724" lon="-3.14197">
        <ele>93</ele>
        <time>2021-10-28 13:31:26</time>
      </trkpt>
      <trkpt lat="43.27726" lon="-3.14176">
        <ele>93</ele>
        <time>2021-10-28 13:31:27</time>
      </trkpt>
      <trkpt lat="43.27726" lon="-3.14176">
        <ele>93</ele>
        <time>2021-10-28 13:31:28</time>
      </trkpt>
      <trkpt lat="43.27727" lon="-3.14167">
        <ele>92.8</ele>
        <time>2021-10-28 13:31:29</time>
      </trkpt>
      <trkpt lat="43.27729" lon="-3.14158">
        <ele>92.8</ele>
        <time>2021-10-28 13:31:30</time>
      </trkpt>
      <trkpt lat="43.27732" lon="-3.14147">
        <ele>92.8</ele>
        <time>2021-10-28 13:31:31</time>
      </trkpt>
      <trkpt lat="43.27736" lon="-3.14137">
        <ele>92.6</ele>
        <time>2021-10-28 13:31:32</time>
      </trkpt>
      <trkpt lat="43.2774" lon="-3.14128">
        <ele>92.6</ele>
        <time>2021-10-28 13:31:33</time>
      </trkpt>
      <trkpt lat="43.27745" lon="-3.14118">
        <ele>92.6</ele>
        <time>2021-10-28 13:31:34</time>
      </trkpt>
      <trkpt lat="43.2775" lon="-3.1411">
        <ele>92.4</ele>
        <time>2021-10-28 13:31:35</time>
      </trkpt>
      <trkpt lat="43.27757" lon="-3.14104">
        <ele>92.2</ele>
        <time>2021-10-28 13:31:36</time>
      </trkpt>
      <trkpt lat="43.27771" lon="-3.14096">
        <ele>92</ele>
        <time>2021-10-28 13:31:37</time>
      </trkpt>
      <trkpt lat="43.27771" lon="-3.14096">
        <ele>91.8</ele>
        <time>2021-10-28 13:31:38</time>
      </trkpt>
      <trkpt lat="43.27778" lon="-3.14093">
        <ele>91.6</ele>
        <time>2021-10-28 13:31:39</time>
      </trkpt>
      <trkpt lat="43.27785" lon="-3.1409">
        <ele>91.4</ele>
        <time>2021-10-28 13:31:40</time>
      </trkpt>
      <trkpt lat="43.27791" lon="-3.14086">
        <ele>91.2</ele>
        <time>2021-10-28 13:31:41</time>
      </trkpt>
      <trkpt lat="43.27798" lon="-3.14083">
        <ele>91.2</ele>
        <time>2021-10-28 13:31:42</time>
      </trkpt>
      <trkpt lat="43.27804" lon="-3.14079">
        <ele>91</ele>
        <time>2021-10-28 13:31:43</time>
      </trkpt>
      <trkpt lat="43.27808" lon="-3.14072">
        <ele>91</ele>
        <time>2021-10-28 13:31:44</time>
      </trkpt>
      <trkpt lat="43.27814" lon="-3.14066">
        <ele>91</ele>
        <time>2021-10-28 13:31:45</time>
      </trkpt>
      <trkpt lat="43.27819" lon="-3.14059">
        <ele>90.8</ele>
        <time>2021-10-28 13:31:46</time>
      </trkpt>
      <trkpt lat="43.27824" lon="-3.14051">
        <ele>90.4</ele>
        <time>2021-10-28 13:31:47</time>
      </trkpt>
      <trkpt lat="43.27832" lon="-3.14035">
        <ele>90</ele>
        <time>2021-10-28 13:31:48</time>
      </trkpt>
      <trkpt lat="43.27832" lon="-3.14035">
        <ele>89.8</ele>
        <time>2021-10-28 13:31:49</time>
      </trkpt>
      <trkpt lat="43.27836" lon="-3.14027">
        <ele>89.6</ele>
        <time>2021-10-28 13:31:50</time>
      </trkpt>
      <trkpt lat="43.27838" lon="-3.14019">
        <ele>89.6</ele>
        <time>2021-10-28 13:31:51</time>
      </trkpt>
      <trkpt lat="43.2784" lon="-3.14002">
        <ele>89.6</ele>
        <time>2021-10-28 13:31:52</time>
      </trkpt>
      <trkpt lat="43.2784" lon="-3.14002">
        <ele>89.6</ele>
        <time>2021-10-28 13:31:53</time>
      </trkpt>
      <trkpt lat="43.27839" lon="-3.13991">
        <ele>89.6</ele>
        <time>2021-10-28 13:31:54</time>
      </trkpt>
      <trkpt lat="43.27838" lon="-3.1398">
        <ele>89.8</ele>
        <time>2021-10-28 13:31:55</time>
      </trkpt>
      <trkpt lat="43.27836" lon="-3.1397">
        <ele>90</ele>
        <time>2021-10-28 13:31:56</time>
      </trkpt>
      <trkpt lat="43.27835" lon="-3.13961">
        <ele>90.4</ele>
        <time>2021-10-28 13:31:57</time>
      </trkpt>
      <trkpt lat="43.27834" lon="-3.13954">
        <ele>90.6</ele>
        <time>2021-10-28 13:31:58</time>
      </trkpt>
      <trkpt lat="43.27833" lon="-3.13946">
        <ele>90.8</ele>
        <time>2021-10-28 13:31:59</time>
      </trkpt>
      <trkpt lat="43.27832" lon="-3.13938">
        <ele>91</ele>
        <time>2021-10-28 13:32:00</time>
      </trkpt>
      <trkpt lat="43.27831" lon="-3.13931">
        <ele>91</ele>
        <time>2021-10-28 13:32:01</time>
      </trkpt>
      <trkpt lat="43.2783" lon="-3.13925">
        <ele>91</ele>
        <time>2021-10-28 13:32:02</time>
      </trkpt>
      <trkpt lat="43.27829" lon="-3.13918">
        <ele>91</ele>
        <time>2021-10-28 13:32:03</time>
      </trkpt>
      <trkpt lat="43.27828" lon="-3.13912">
        <ele>91</ele>
        <time>2021-10-28 13:32:04</time>
      </trkpt>
      <trkpt lat="43.27827" lon="-3.13906">
        <ele>91</ele>
        <time>2021-10-28 13:32:05</time>
      </trkpt>
      <trkpt lat="43.27827" lon="-3.13901">
        <ele>91</ele>
        <time>2021-10-28 13:32:06</time>
      </trkpt>
      <trkpt lat="43.27828" lon="-3.13894">
        <ele>91</ele>
        <time>2021-10-28 13:32:07</time>
      </trkpt>
      <trkpt lat="43.2783" lon="-3.13885">
        <ele>91</ele>
        <time>2021-10-28 13:32:08</time>
      </trkpt>
      <trkpt lat="43.27833" lon="-3.13878">
        <ele>91</ele>
        <time>2021-10-28 13:32:09</time>
      </trkpt>
      <trkpt lat="43.27836" lon="-3.1387">
        <ele>91.2</ele>
        <time>2021-10-28 13:32:10</time>
      </trkpt>
      <trkpt lat="43.27838" lon="-3.13862">
        <ele>91.4</ele>
        <time>2021-10-28 13:32:11</time>
      </trkpt>
      <trkpt lat="43.27843" lon="-3.13848">
        <ele>91.4</ele>
        <time>2021-10-28 13:32:12</time>
      </trkpt>
      <trkpt lat="43.27843" lon="-3.13848">
        <ele>91.2</ele>
        <time>2021-10-28 13:32:13</time>
      </trkpt>
      <trkpt lat="43.27847" lon="-3.1384">
        <ele>91</ele>
        <time>2021-10-28 13:32:14</time>
      </trkpt>
      <trkpt lat="43.2785" lon="-3.13832">
        <ele>90.8</ele>
        <time>2021-10-28 13:32:15</time>
      </trkpt>
      <trkpt lat="43.27854" lon="-3.13824">
        <ele>90.4</ele>
        <time>2021-10-28 13:32:16</time>
      </trkpt>
      <trkpt lat="43.27857" lon="-3.13815">
        <ele>90.2</ele>
        <time>2021-10-28 13:32:17</time>
      </trkpt>
      <trkpt lat="43.27861" lon="-3.13805">
        <ele>90</ele>
        <time>2021-10-28 13:32:18</time>
      </trkpt>
      <trkpt lat="43.27863" lon="-3.13796">
        <ele>89.6</ele>
        <time>2021-10-28 13:32:19</time>
      </trkpt>
      <trkpt lat="43.27866" lon="-3.13776">
        <ele>89.4</ele>
        <time>2021-10-28 13:32:20</time>
      </trkpt>
      <trkpt lat="43.27866" lon="-3.13776">
        <ele>89.2</ele>
        <time>2021-10-28 13:32:21</time>
      </trkpt>
      <trkpt lat="43.27866" lon="-3.13765">
        <ele>89</ele>
        <time>2021-10-28 13:32:22</time>
      </trkpt>
      <trkpt lat="43.27866" lon="-3.13755">
        <ele>88.8</ele>
        <time>2021-10-28 13:32:23</time>
      </trkpt>
      <trkpt lat="43.27865" lon="-3.13735">
        <ele>88.8</ele>
        <time>2021-10-28 13:32:24</time>
      </trkpt>
      <trkpt lat="43.27865" lon="-3.13735">
        <ele>88.6</ele>
        <time>2021-10-28 13:32:25</time>
      </trkpt>
      <trkpt lat="43.27864" lon="-3.13726">
        <ele>88.6</ele>
        <time>2021-10-28 13:32:26</time>
      </trkpt>
      <trkpt lat="43.27862" lon="-3.13717">
        <ele>88.4</ele>
        <time>2021-10-28 13:32:27</time>
      </trkpt>
      <trkpt lat="43.27856" lon="-3.13701">
        <ele>88.4</ele>
        <time>2021-10-28 13:32:28</time>
      </trkpt>
      <trkpt lat="43.27856" lon="-3.13701">
        <ele>88.6</ele>
        <time>2021-10-28 13:32:29</time>
      </trkpt>
      <trkpt lat="43.27852" lon="-3.13694">
        <ele>88.6</ele>
        <time>2021-10-28 13:32:30</time>
      </trkpt>
      <trkpt lat="43.27848" lon="-3.13687">
        <ele>88.6</ele>
        <time>2021-10-28 13:32:31</time>
      </trkpt>
      <trkpt lat="43.27843" lon="-3.1368">
        <ele>88.6</ele>
        <time>2021-10-28 13:32:32</time>
      </trkpt>
      <trkpt lat="43.27838" lon="-3.13674">
        <ele>88.8</ele>
        <time>2021-10-28 13:32:33</time>
      </trkpt>
      <trkpt lat="43.27834" lon="-3.1367">
        <ele>88.8</ele>
        <time>2021-10-28 13:32:34</time>
      </trkpt>
      <trkpt lat="43.27829" lon="-3.13665">
        <ele>88.8</ele>
        <time>2021-10-28 13:32:35</time>
      </trkpt>
      <trkpt lat="43.27823" lon="-3.13661">
        <ele>88.8</ele>
        <time>2021-10-28 13:32:36</time>
      </trkpt>
      <trkpt lat="43.27817" lon="-3.13657">
        <ele>88.8</ele>
        <time>2021-10-28 13:32:37</time>
      </trkpt>
      <trkpt lat="43.27811" lon="-3.13655">
        <ele>88.8</ele>
        <time>2021-10-28 13:32:38</time>
      </trkpt>
      <trkpt lat="43.27799" lon="-3.13653">
        <ele>88.8</ele>
        <time>2021-10-28 13:32:39</time>
      </trkpt>
      <trkpt lat="43.27799" lon="-3.13653">
        <ele>89</ele>
        <time>2021-10-28 13:32:40</time>
      </trkpt>
      <trkpt lat="43.27793" lon="-3.13653">
        <ele>89</ele>
        <time>2021-10-28 13:32:41</time>
      </trkpt>
      <trkpt lat="43.27779" lon="-3.13654">
        <ele>89</ele>
        <time>2021-10-28 13:32:42</time>
      </trkpt>
      <trkpt lat="43.27779" lon="-3.13654">
        <ele>89.2</ele>
        <time>2021-10-28 13:32:43</time>
      </trkpt>
      <trkpt lat="43.27772" lon="-3.13655">
        <ele>89.2</ele>
        <time>2021-10-28 13:32:44</time>
      </trkpt>
      <trkpt lat="43.27766" lon="-3.13657">
        <ele>89</ele>
        <time>2021-10-28 13:32:45</time>
      </trkpt>
      <trkpt lat="43.27752" lon="-3.1366">
        <ele>89</ele>
        <time>2021-10-28 13:32:46</time>
      </trkpt>
      <trkpt lat="43.27752" lon="-3.1366">
        <ele>89</ele>
        <time>2021-10-28 13:32:47</time>
      </trkpt>
      <trkpt lat="43.27747" lon="-3.13661">
        <ele>89</ele>
        <time>2021-10-28 13:32:48</time>
      </trkpt>
      <trkpt lat="43.27741" lon="-3.13662">
        <ele>89</ele>
        <time>2021-10-28 13:32:49</time>
      </trkpt>
      <trkpt lat="43.27732" lon="-3.13663">
        <ele>89</ele>
        <time>2021-10-28 13:32:50</time>
      </trkpt>
      <trkpt lat="43.27732" lon="-3.13663">
        <ele>89</ele>
        <time>2021-10-28 13:32:51</time>
      </trkpt>
      <trkpt lat="43.27727" lon="-3.13663">
        <ele>88.8</ele>
        <time>2021-10-28 13:32:52</time>
      </trkpt>
      <trkpt lat="43.27723" lon="-3.1366">
        <ele>88.8</ele>
        <time>2021-10-28 13:32:53</time>
      </trkpt>
      <trkpt lat="43.27719" lon="-3.13657">
        <ele>88.6</ele>
        <time>2021-10-28 13:32:54</time>
      </trkpt>
      <trkpt lat="43.27716" lon="-3.13653">
        <ele>88.6</ele>
        <time>2021-10-28 13:32:55</time>
      </trkpt>
      <trkpt lat="43.27709" lon="-3.13642">
        <ele>88.6</ele>
        <time>2021-10-28 13:32:56</time>
      </trkpt>
      <trkpt lat="43.27709" lon="-3.13642">
        <ele>88.6</ele>
        <time>2021-10-28 13:32:57</time>
      </trkpt>
      <trkpt lat="43.27705" lon="-3.13636">
        <ele>88.6</ele>
        <time>2021-10-28 13:32:58</time>
      </trkpt>
      <trkpt lat="43.27701" lon="-3.13629">
        <ele>88.8</ele>
        <time>2021-10-28 13:32:59</time>
      </trkpt>
      <trkpt lat="43.27697" lon="-3.13622">
        <ele>88.8</ele>
        <time>2021-10-28 13:33:00</time>
      </trkpt>
      <trkpt lat="43.27694" lon="-3.13615">
        <ele>88.8</ele>
        <time>2021-10-28 13:33:01</time>
      </trkpt>
      <trkpt lat="43.27691" lon="-3.13608">
        <ele>88.8</ele>
        <time>2021-10-28 13:33:02</time>
      </trkpt>
      <trkpt lat="43.27689" lon="-3.13602">
        <ele>88.8</ele>
        <time>2021-10-28 13:33:03</time>
      </trkpt>
      <trkpt lat="43.27687" lon="-3.13597">
        <ele>88.6</ele>
        <time>2021-10-28 13:33:04</time>
      </trkpt>
      <trkpt lat="43.27686" lon="-3.13592">
        <ele>88.6</ele>
        <time>2021-10-28 13:33:05</time>
      </trkpt>
      <trkpt lat="43.27684" lon="-3.13582">
        <ele>88.6</ele>
        <time>2021-10-28 13:33:06</time>
      </trkpt>
      <trkpt lat="43.27684" lon="-3.13582">
        <ele>88.6</ele>
        <time>2021-10-28 13:33:07</time>
      </trkpt>
      <trkpt lat="43.27682" lon="-3.13576">
        <ele>88.6</ele>
        <time>2021-10-28 13:33:08</time>
      </trkpt>
      <trkpt lat="43.27681" lon="-3.1357">
        <ele>88.8</ele>
        <time>2021-10-28 13:33:09</time>
      </trkpt>
      <trkpt lat="43.27681" lon="-3.13565">
        <ele>89</ele>
        <time>2021-10-28 13:33:10</time>
      </trkpt>
      <trkpt lat="43.27681" lon="-3.1356">
        <ele>89.2</ele>
        <time>2021-10-28 13:33:11</time>
      </trkpt>
      <trkpt lat="43.27683" lon="-3.13543">
        <ele>89.4</ele>
        <time>2021-10-28 13:33:12</time>
      </trkpt>
      <trkpt lat="43.27683" lon="-3.13543">
        <ele>89.6</ele>
        <time>2021-10-28 13:33:13</time>
      </trkpt>
      <trkpt lat="43.27683" lon="-3.13536">
        <ele>89.8</ele>
        <time>2021-10-28 13:33:14</time>
      </trkpt>
      <trkpt lat="43.27683" lon="-3.13528">
        <ele>90</ele>
        <time>2021-10-28 13:33:15</time>
      </trkpt>
      <trkpt lat="43.27684" lon="-3.13521">
        <ele>90.2</ele>
        <time>2021-10-28 13:33:16</time>
      </trkpt>
      <trkpt lat="43.27685" lon="-3.13513">
        <ele>90.2</ele>
        <time>2021-10-28 13:33:17</time>
      </trkpt>
      <trkpt lat="43.27685" lon="-3.13506">
        <ele>90.4</ele>
        <time>2021-10-28 13:33:18</time>
      </trkpt>
      <trkpt lat="43.27683" lon="-3.135">
        <ele>90.6</ele>
        <time>2021-10-28 13:33:19</time>
      </trkpt>
      <trkpt lat="43.27682" lon="-3.13493">
        <ele>90.8</ele>
        <time>2021-10-28 13:33:20</time>
      </trkpt>
      <trkpt lat="43.27682" lon="-3.13486">
        <ele>91</ele>
        <time>2021-10-28 13:33:21</time>
      </trkpt>
      <trkpt lat="43.27681" lon="-3.1348">
        <ele>91.2</ele>
        <time>2021-10-28 13:33:22</time>
      </trkpt>
      <trkpt lat="43.27681" lon="-3.13477">
        <ele>91.4</ele>
        <time>2021-10-28 13:33:23</time>
      </trkpt>
      <trkpt lat="43.27676" lon="-3.13469">
        <ele>91.6</ele>
        <time>2021-10-28 13:33:24</time>
      </trkpt>
      <trkpt lat="43.27676" lon="-3.13469">
        <ele>91.6</ele>
        <time>2021-10-28 13:33:25</time>
      </trkpt>
      <trkpt lat="43.27674" lon="-3.13465">
        <ele>91.8</ele>
        <time>2021-10-28 13:33:26</time>
      </trkpt>
      <trkpt lat="43.27671" lon="-3.13461">
        <ele>91.8</ele>
        <time>2021-10-28 13:33:27</time>
      </trkpt>
      <trkpt lat="43.27668" lon="-3.13456">
        <ele>92</ele>
        <time>2021-10-28 13:33:28</time>
      </trkpt>
      <trkpt lat="43.27664" lon="-3.13452">
        <ele>92.2</ele>
        <time>2021-10-28 13:33:29</time>
      </trkpt>
      <trkpt lat="43.27661" lon="-3.13449">
        <ele>92.2</ele>
        <time>2021-10-28 13:33:30</time>
      </trkpt>
      <trkpt lat="43.27654" lon="-3.13444">
        <ele>92.4</ele>
        <time>2021-10-28 13:33:31</time>
      </trkpt>
      <trkpt lat="43.27654" lon="-3.13444">
        <ele>92.6</ele>
        <time>2021-10-28 13:33:32</time>
      </trkpt>
      <trkpt lat="43.27651" lon="-3.13442">
        <ele>92.6</ele>
        <time>2021-10-28 13:33:33</time>
      </trkpt>
      <trkpt lat="43.27647" lon="-3.13441">
        <ele>92.8</ele>
        <time>2021-10-28 13:33:34</time>
      </trkpt>
      <trkpt lat="43.27643" lon="-3.13439">
        <ele>93</ele>
        <time>2021-10-28 13:33:35</time>
      </trkpt>
      <trkpt lat="43.2764" lon="-3.13438">
        <ele>93.2</ele>
        <time>2021-10-28 13:33:36</time>
      </trkpt>
      <trkpt lat="43.27638" lon="-3.13438">
        <ele>93.4</ele>
        <time>2021-10-28 13:33:37</time>
      </trkpt>
      <trkpt lat="43.27629" lon="-3.13431">
        <ele>93.4</ele>
        <time>2021-10-28 13:33:38</time>
      </trkpt>
      <trkpt lat="43.27629" lon="-3.13431">
        <ele>93.6</ele>
        <time>2021-10-28 13:33:39</time>
      </trkpt>
      <trkpt lat="43.27624" lon="-3.13428">
        <ele>93.6</ele>
        <time>2021-10-28 13:33:40</time>
      </trkpt>
      <trkpt lat="43.27615" lon="-3.13419">
        <ele>93.8</ele>
        <time>2021-10-28 13:33:41</time>
      </trkpt>
      <trkpt lat="43.27615" lon="-3.13419">
        <ele>93.8</ele>
        <time>2021-10-28 13:33:42</time>
      </trkpt>
      <trkpt lat="43.27613" lon="-3.13413">
        <ele>94</ele>
        <time>2021-10-28 13:33:43</time>
      </trkpt>
      <trkpt lat="43.2761" lon="-3.1341">
        <ele>94.2</ele>
        <time>2021-10-28 13:33:44</time>
      </trkpt>
      <trkpt lat="43.27608" lon="-3.13408">
        <ele>94.2</ele>
        <time>2021-10-28 13:33:45</time>
      </trkpt>
      <trkpt lat="43.27605" lon="-3.13405">
        <ele>94.4</ele>
        <time>2021-10-28 13:33:46</time>
      </trkpt>
      <trkpt lat="43.27601" lon="-3.13402">
        <ele>94.6</ele>
        <time>2021-10-28 13:33:47</time>
      </trkpt>
      <trkpt lat="43.27594" lon="-3.13394">
        <ele>94.6</ele>
        <time>2021-10-28 13:33:48</time>
      </trkpt>
      <trkpt lat="43.27594" lon="-3.13394">
        <ele>94.8</ele>
        <time>2021-10-28 13:33:49</time>
      </trkpt>
      <trkpt lat="43.2759" lon="-3.13391">
        <ele>95</ele>
        <time>2021-10-28 13:33:50</time>
      </trkpt>
      <trkpt lat="43.27582" lon="-3.13384">
        <ele>95.2</ele>
        <time>2021-10-28 13:33:51</time>
      </trkpt>
      <trkpt lat="43.27582" lon="-3.13384">
        <ele>95.4</ele>
        <time>2021-10-28 13:33:52</time>
      </trkpt>
      <trkpt lat="43.27577" lon="-3.13381">
        <ele>95.6</ele>
        <time>2021-10-28 13:33:53</time>
      </trkpt>
      <trkpt lat="43.27573" lon="-3.13376">
        <ele>95.8</ele>
        <time>2021-10-28 13:33:54</time>
      </trkpt>
      <trkpt lat="43.27568" lon="-3.13372">
        <ele>95.8</ele>
        <time>2021-10-28 13:33:55</time>
      </trkpt>
      <trkpt lat="43.27564" lon="-3.13369">
        <ele>96</ele>
        <time>2021-10-28 13:33:56</time>
      </trkpt>
      <trkpt lat="43.27561" lon="-3.13364">
        <ele>96.2</ele>
        <time>2021-10-28 13:33:57</time>
      </trkpt>
      <trkpt lat="43.27557" lon="-3.13358">
        <ele>96.4</ele>
        <time>2021-10-28 13:33:58</time>
      </trkpt>
      <trkpt lat="43.27551" lon="-3.13347">
        <ele>96.4</ele>
        <time>2021-10-28 13:33:59</time>
      </trkpt>
      <trkpt lat="43.27551" lon="-3.13347">
        <ele>96.6</ele>
        <time>2021-10-28 13:34:00</time>
      </trkpt>
      <trkpt lat="43.27546" lon="-3.13336">
        <ele>96.8</ele>
        <time>2021-10-28 13:34:01</time>
      </trkpt>
      <trkpt lat="43.27546" lon="-3.13336">
        <ele>97</ele>
        <time>2021-10-28 13:34:02</time>
      </trkpt>
      <trkpt lat="43.27543" lon="-3.1333">
        <ele>97</ele>
        <time>2021-10-28 13:34:03</time>
      </trkpt>
      <trkpt lat="43.27541" lon="-3.13323">
        <ele>97</ele>
        <time>2021-10-28 13:34:04</time>
      </trkpt>
      <trkpt lat="43.27537" lon="-3.13318">
        <ele>97.2</ele>
        <time>2021-10-28 13:34:05</time>
      </trkpt>
      <trkpt lat="43.27534" lon="-3.13312">
        <ele>97.2</ele>
        <time>2021-10-28 13:34:06</time>
      </trkpt>
      <trkpt lat="43.27531" lon="-3.13307">
        <ele>97.4</ele>
        <time>2021-10-28 13:34:07</time>
      </trkpt>
      <trkpt lat="43.27526" lon="-3.13298">
        <ele>97.6</ele>
        <time>2021-10-28 13:34:08</time>
      </trkpt>
      <trkpt lat="43.27526" lon="-3.13298">
        <ele>97.8</ele>
        <time>2021-10-28 13:34:09</time>
      </trkpt>
      <trkpt lat="43.27523" lon="-3.13293">
        <ele>98</ele>
        <time>2021-10-28 13:34:10</time>
      </trkpt>
      <trkpt lat="43.2752" lon="-3.13289">
        <ele>98.2</ele>
        <time>2021-10-28 13:34:11</time>
      </trkpt>
      <trkpt lat="43.27519" lon="-3.1328">
        <ele>98.2</ele>
        <time>2021-10-28 13:34:12</time>
      </trkpt>
      <trkpt lat="43.27518" lon="-3.13274">
        <ele>98.4</ele>
        <time>2021-10-28 13:34:13</time>
      </trkpt>
      <trkpt lat="43.27515" lon="-3.13266">
        <ele>98.6</ele>
        <time>2021-10-28 13:34:14</time>
      </trkpt>
      <trkpt lat="43.27514" lon="-3.13261">
        <ele>98.6</ele>
        <time>2021-10-28 13:34:15</time>
      </trkpt>
      <trkpt lat="43.27512" lon="-3.13254">
        <ele>98.8</ele>
        <time>2021-10-28 13:34:16</time>
      </trkpt>
      <trkpt lat="43.27511" lon="-3.13247">
        <ele>99</ele>
        <time>2021-10-28 13:34:17</time>
      </trkpt>
      <trkpt lat="43.2751" lon="-3.13242">
        <ele>99.2</ele>
        <time>2021-10-28 13:34:18</time>
      </trkpt>
      <trkpt lat="43.27509" lon="-3.13236">
        <ele>99.2</ele>
        <time>2021-10-28 13:34:19</time>
      </trkpt>
      <trkpt lat="43.27508" lon="-3.13229">
        <ele>99.4</ele>
        <time>2021-10-28 13:34:20</time>
      </trkpt>
      <trkpt lat="43.27506" lon="-3.13222">
        <ele>99.4</ele>
        <time>2021-10-28 13:34:21</time>
      </trkpt>
      <trkpt lat="43.27505" lon="-3.13216">
        <ele>99.4</ele>
        <time>2021-10-28 13:34:22</time>
      </trkpt>
      <trkpt lat="43.27504" lon="-3.13206">
        <ele>99.6</ele>
        <time>2021-10-28 13:34:23</time>
      </trkpt>
      <trkpt lat="43.27502" lon="-3.13197">
        <ele>99.8</ele>
        <time>2021-10-28 13:34:24</time>
      </trkpt>
      <trkpt lat="43.27502" lon="-3.1319">
        <ele>99.8</ele>
        <time>2021-10-28 13:34:25</time>
      </trkpt>
      <trkpt lat="43.27502" lon="-3.13185">
        <ele>100</ele>
        <time>2021-10-28 13:34:26</time>
      </trkpt>
      <trkpt lat="43.27501" lon="-3.13178">
        <ele>100.2</ele>
        <time>2021-10-28 13:34:27</time>
      </trkpt>
      <trkpt lat="43.27502" lon="-3.13172">
        <ele>100.4</ele>
        <time>2021-10-28 13:34:28</time>
      </trkpt>
      <trkpt lat="43.27502" lon="-3.13166">
        <ele>100.4</ele>
        <time>2021-10-28 13:34:29</time>
      </trkpt>
      <trkpt lat="43.27503" lon="-3.1316">
        <ele>100.6</ele>
        <time>2021-10-28 13:34:30</time>
      </trkpt>
      <trkpt lat="43.27505" lon="-3.13154">
        <ele>100.8</ele>
        <time>2021-10-28 13:34:31</time>
      </trkpt>
      <trkpt lat="43.27506" lon="-3.13149">
        <ele>101</ele>
        <time>2021-10-28 13:34:32</time>
      </trkpt>
      <trkpt lat="43.27508" lon="-3.13143">
        <ele>101</ele>
        <time>2021-10-28 13:34:33</time>
      </trkpt>
      <trkpt lat="43.27508" lon="-3.13136">
        <ele>101.2</ele>
        <time>2021-10-28 13:34:34</time>
      </trkpt>
      <trkpt lat="43.2751" lon="-3.13132">
        <ele>101.4</ele>
        <time>2021-10-28 13:34:35</time>
      </trkpt>
      <trkpt lat="43.27511" lon="-3.13129">
        <ele>101.4</ele>
        <time>2021-10-28 13:34:36</time>
      </trkpt>
      <trkpt lat="43.2751" lon="-3.13124">
        <ele>101.6</ele>
        <time>2021-10-28 13:34:37</time>
      </trkpt>
      <trkpt lat="43.27512" lon="-3.13118">
        <ele>101.8</ele>
        <time>2021-10-28 13:34:38</time>
      </trkpt>
      <trkpt lat="43.27514" lon="-3.13112">
        <ele>102</ele>
        <time>2021-10-28 13:34:39</time>
      </trkpt>
      <trkpt lat="43.27515" lon="-3.13107">
        <ele>102.2</ele>
        <time>2021-10-28 13:34:40</time>
      </trkpt>
      <trkpt lat="43.27516" lon="-3.13102">
        <ele>102.4</ele>
        <time>2021-10-28 13:34:41</time>
      </trkpt>
      <trkpt lat="43.27517" lon="-3.13097">
        <ele>102.6</ele>
        <time>2021-10-28 13:34:42</time>
      </trkpt>
      <trkpt lat="43.27518" lon="-3.13093">
        <ele>102.8</ele>
        <time>2021-10-28 13:34:43</time>
      </trkpt>
      <trkpt lat="43.27518" lon="-3.13087">
        <ele>103</ele>
        <time>2021-10-28 13:34:44</time>
      </trkpt>
      <trkpt lat="43.27517" lon="-3.13075">
        <ele>103</ele>
        <time>2021-10-28 13:34:45</time>
      </trkpt>
      <trkpt lat="43.27517" lon="-3.13075">
        <ele>103.2</ele>
        <time>2021-10-28 13:34:46</time>
      </trkpt>
      <trkpt lat="43.27515" lon="-3.1307">
        <ele>103.4</ele>
        <time>2021-10-28 13:34:47</time>
      </trkpt>
      <trkpt lat="43.27514" lon="-3.13063">
        <ele>103.6</ele>
        <time>2021-10-28 13:34:48</time>
      </trkpt>
      <trkpt lat="43.27514" lon="-3.13063">
        <ele>103.6</ele>
        <time>2021-10-28 13:34:49</time>
      </trkpt>
      <trkpt lat="43.27509" lon="-3.13047">
        <ele>103.8</ele>
        <time>2021-10-28 13:34:50</time>
      </trkpt>
      <trkpt lat="43.27509" lon="-3.13047">
        <ele>104</ele>
        <time>2021-10-28 13:34:51</time>
      </trkpt>
      <trkpt lat="43.27507" lon="-3.13042">
        <ele>104</ele>
        <time>2021-10-28 13:34:52</time>
      </trkpt>
      <trkpt lat="43.27505" lon="-3.13037">
        <ele>104.2</ele>
        <time>2021-10-28 13:34:53</time>
      </trkpt>
      <trkpt lat="43.27504" lon="-3.13033">
        <ele>104.4</ele>
        <time>2021-10-28 13:34:54</time>
      </trkpt>
      <trkpt lat="43.27501" lon="-3.13027">
        <ele>104.4</ele>
        <time>2021-10-28 13:34:55</time>
      </trkpt>
      <trkpt lat="43.27501" lon="-3.13027">
        <ele>104.6</ele>
        <time>2021-10-28 13:34:56</time>
      </trkpt>
      <trkpt lat="43.27496" lon="-3.13019">
        <ele>104.6</ele>
        <time>2021-10-28 13:34:57</time>
      </trkpt>
      <trkpt lat="43.27496" lon="-3.13019">
        <ele>104.8</ele>
        <time>2021-10-28 13:34:58</time>
      </trkpt>
      <trkpt lat="43.27494" lon="-3.13016">
        <ele>104.8</ele>
        <time>2021-10-28 13:34:59</time>
      </trkpt>
      <trkpt lat="43.2749" lon="-3.13014">
        <ele>105</ele>
        <time>2021-10-28 13:35:00</time>
      </trkpt>
      <trkpt lat="43.27487" lon="-3.13012">
        <ele>105</ele>
        <time>2021-10-28 13:35:01</time>
      </trkpt>
      <trkpt lat="43.27485" lon="-3.13009">
        <ele>105</ele>
        <time>2021-10-28 13:35:02</time>
      </trkpt>
      <trkpt lat="43.27482" lon="-3.13007">
        <ele>105.2</ele>
        <time>2021-10-28 13:35:03</time>
      </trkpt>
      <trkpt lat="43.27478" lon="-3.13002">
        <ele>105.4</ele>
        <time>2021-10-28 13:35:04</time>
      </trkpt>
      <trkpt lat="43.27478" lon="-3.13002">
        <ele>105.4</ele>
        <time>2021-10-28 13:35:05</time>
      </trkpt>
      <trkpt lat="43.27476" lon="-3.12999">
        <ele>105.6</ele>
        <time>2021-10-28 13:35:06</time>
      </trkpt>
      <trkpt lat="43.27471" lon="-3.12992">
        <ele>105.8</ele>
        <time>2021-10-28 13:35:07</time>
      </trkpt>
      <trkpt lat="43.27471" lon="-3.12992">
        <ele>105.8</ele>
        <time>2021-10-28 13:35:08</time>
      </trkpt>
      <trkpt lat="43.27468" lon="-3.12991">
        <ele>106</ele>
        <time>2021-10-28 13:35:09</time>
      </trkpt>
      <trkpt lat="43.27464" lon="-3.12987">
        <ele>106.2</ele>
        <time>2021-10-28 13:35:10</time>
      </trkpt>
      <trkpt lat="43.27458" lon="-3.12983">
        <ele>106.2</ele>
        <time>2021-10-28 13:35:11</time>
      </trkpt>
      <trkpt lat="43.27458" lon="-3.12983">
        <ele>106.4</ele>
        <time>2021-10-28 13:35:12</time>
      </trkpt>
      <trkpt lat="43.27456" lon="-3.12979">
        <ele>106.6</ele>
        <time>2021-10-28 13:35:13</time>
      </trkpt>
      <trkpt lat="43.27451" lon="-3.12972">
        <ele>106.8</ele>
        <time>2021-10-28 13:35:14</time>
      </trkpt>
      <trkpt lat="43.27451" lon="-3.12972">
        <ele>106.8</ele>
        <time>2021-10-28 13:35:15</time>
      </trkpt>
      <trkpt lat="43.27444" lon="-3.12966">
        <ele>107</ele>
        <time>2021-10-28 13:35:16</time>
      </trkpt>
      <trkpt lat="43.27444" lon="-3.12966">
        <ele>107</ele>
        <time>2021-10-28 13:35:17</time>
      </trkpt>
      <trkpt lat="43.27441" lon="-3.12963">
        <ele>107.2</ele>
        <time>2021-10-28 13:35:18</time>
      </trkpt>
      <trkpt lat="43.27433" lon="-3.12955">
        <ele>107.2</ele>
        <time>2021-10-28 13:35:19</time>
      </trkpt>
      <trkpt lat="43.27433" lon="-3.12955">
        <ele>107.4</ele>
        <time>2021-10-28 13:35:20</time>
      </trkpt>
      <trkpt lat="43.2743" lon="-3.1295">
        <ele>107.4</ele>
        <time>2021-10-28 13:35:21</time>
      </trkpt>
      <trkpt lat="43.27426" lon="-3.12944">
        <ele>107.6</ele>
        <time>2021-10-28 13:35:22</time>
      </trkpt>
      <trkpt lat="43.27422" lon="-3.1294">
        <ele>107.6</ele>
        <time>2021-10-28 13:35:23</time>
      </trkpt>
      <trkpt lat="43.27418" lon="-3.12935">
        <ele>107.8</ele>
        <time>2021-10-28 13:35:24</time>
      </trkpt>
      <trkpt lat="43.27415" lon="-3.1293">
        <ele>107.8</ele>
        <time>2021-10-28 13:35:25</time>
      </trkpt>
      <trkpt lat="43.27409" lon="-3.12922">
        <ele>108</ele>
        <time>2021-10-28 13:35:26</time>
      </trkpt>
      <trkpt lat="43.27409" lon="-3.12922">
        <ele>108.2</ele>
        <time>2021-10-28 13:35:27</time>
      </trkpt>
      <trkpt lat="43.27402" lon="-3.12913">
        <ele>108.4</ele>
        <time>2021-10-28 13:35:28</time>
      </trkpt>
      <trkpt lat="43.27402" lon="-3.12913">
        <ele>108.4</ele>
        <time>2021-10-28 13:35:29</time>
      </trkpt>
      <trkpt lat="43.27394" lon="-3.12898">
        <ele>108.6</ele>
        <time>2021-10-28 13:35:30</time>
      </trkpt>
      <trkpt lat="43.27394" lon="-3.12898">
        <ele>108.8</ele>
        <time>2021-10-28 13:35:31</time>
      </trkpt>
      <trkpt lat="43.27388" lon="-3.12889">
        <ele>109</ele>
        <time>2021-10-28 13:35:32</time>
      </trkpt>
      <trkpt lat="43.27388" lon="-3.12889">
        <ele>109.2</ele>
        <time>2021-10-28 13:35:33</time>
      </trkpt>
      <trkpt lat="43.27383" lon="-3.12882">
        <ele>109.2</ele>
        <time>2021-10-28 13:35:34</time>
      </trkpt>
      <trkpt lat="43.27383" lon="-3.12882">
        <ele>109.4</ele>
        <time>2021-10-28 13:35:35</time>
      </trkpt>
      <trkpt lat="43.27379" lon="-3.12876">
        <ele>109.4</ele>
        <time>2021-10-28 13:35:36</time>
      </trkpt>
      <trkpt lat="43.27379" lon="-3.12876">
        <ele>109.6</ele>
        <time>2021-10-28 13:35:37</time>
      </trkpt>
      <trkpt lat="43.27376" lon="-3.12866">
        <ele>109.6</ele>
        <time>2021-10-28 13:35:38</time>
      </trkpt>
      <trkpt lat="43.27376" lon="-3.12866">
        <ele>109.8</ele>
        <time>2021-10-28 13:35:39</time>
      </trkpt>
      <trkpt lat="43.27373" lon="-3.1286">
        <ele>110</ele>
        <time>2021-10-28 13:35:40</time>
      </trkpt>
      <trkpt lat="43.27371" lon="-3.12856">
        <ele>110</ele>
        <time>2021-10-28 13:35:41</time>
      </trkpt>
      <trkpt lat="43.27369" lon="-3.12851">
        <ele>110.2</ele>
        <time>2021-10-28 13:35:42</time>
      </trkpt>
      <trkpt lat="43.27366" lon="-3.1284">
        <ele>110.4</ele>
        <time>2021-10-28 13:35:43</time>
      </trkpt>
      <trkpt lat="43.27366" lon="-3.1284">
        <ele>110.6</ele>
        <time>2021-10-28 13:35:44</time>
      </trkpt>
      <trkpt lat="43.27365" lon="-3.12832">
        <ele>110.6</ele>
        <time>2021-10-28 13:35:45</time>
      </trkpt>
      <trkpt lat="43.27365" lon="-3.12832">
        <ele>110.6</ele>
        <time>2021-10-28 13:35:46</time>
      </trkpt>
      <trkpt lat="43.27363" lon="-3.12824">
        <ele>110.6</ele>
        <time>2021-10-28 13:35:47</time>
      </trkpt>
      <trkpt lat="43.27363" lon="-3.12824">
        <ele>110.6</ele>
        <time>2021-10-28 13:35:48</time>
      </trkpt>
      <trkpt lat="43.27362" lon="-3.12819">
        <ele>110.8</ele>
        <time>2021-10-28 13:35:49</time>
      </trkpt>
      <trkpt lat="43.27359" lon="-3.12812">
        <ele>110.8</ele>
        <time>2021-10-28 13:35:50</time>
      </trkpt>
      <trkpt lat="43.27359" lon="-3.12812">
        <ele>110.8</ele>
        <time>2021-10-28 13:35:51</time>
      </trkpt>
      <trkpt lat="43.27356" lon="-3.12802">
        <ele>111</ele>
        <time>2021-10-28 13:35:52</time>
      </trkpt>
      <trkpt lat="43.27356" lon="-3.12802">
        <ele>111</ele>
        <time>2021-10-28 13:35:53</time>
      </trkpt>
      <trkpt lat="43.27354" lon="-3.12798">
        <ele>111.2</ele>
        <time>2021-10-28 13:35:54</time>
      </trkpt>
      <trkpt lat="43.27352" lon="-3.12794">
        <ele>111.2</ele>
        <time>2021-10-28 13:35:55</time>
      </trkpt>
      <trkpt lat="43.27349" lon="-3.12785">
        <ele>111.4</ele>
        <time>2021-10-28 13:35:56</time>
      </trkpt>
      <trkpt lat="43.27349" lon="-3.12785">
        <ele>111.4</ele>
        <time>2021-10-28 13:35:57</time>
      </trkpt>
      <trkpt lat="43.27348" lon="-3.1278">
        <ele>111.4</ele>
        <time>2021-10-28 13:35:58</time>
      </trkpt>
      <trkpt lat="43.27345" lon="-3.12776">
        <ele>111.6</ele>
        <time>2021-10-28 13:35:59</time>
      </trkpt>
      <trkpt lat="43.27343" lon="-3.12772">
        <ele>111.6</ele>
        <time>2021-10-28 13:36:00</time>
      </trkpt>
      <trkpt lat="43.27342" lon="-3.12768">
        <ele>111.8</ele>
        <time>2021-10-28 13:36:01</time>
      </trkpt>
      <trkpt lat="43.27338" lon="-3.12759">
        <ele>112</ele>
        <time>2021-10-28 13:36:02</time>
      </trkpt>
      <trkpt lat="43.27338" lon="-3.12759">
        <ele>112</ele>
        <time>2021-10-28 13:36:03</time>
      </trkpt>
      <trkpt lat="43.27335" lon="-3.12751">
        <ele>112.2</ele>
        <time>2021-10-28 13:36:04</time>
      </trkpt>
      <trkpt lat="43.27335" lon="-3.12751">
        <ele>112.2</ele>
        <time>2021-10-28 13:36:05</time>
      </trkpt>
      <trkpt lat="43.27331" lon="-3.12744">
        <ele>112.4</ele>
        <time>2021-10-28 13:36:06</time>
      </trkpt>
      <trkpt lat="43.27331" lon="-3.12744">
        <ele>112.4</ele>
        <time>2021-10-28 13:36:07</time>
      </trkpt>
      <trkpt lat="43.2733" lon="-3.12739">
        <ele>112.4</ele>
        <time>2021-10-28 13:36:08</time>
      </trkpt>
      <trkpt lat="43.27326" lon="-3.12731">
        <ele>112.6</ele>
        <time>2021-10-28 13:36:09</time>
      </trkpt>
      <trkpt lat="43.27326" lon="-3.12731">
        <ele>112.6</ele>
        <time>2021-10-28 13:36:10</time>
      </trkpt>
      <trkpt lat="43.27323" lon="-3.12724">
        <ele>112.8</ele>
        <time>2021-10-28 13:36:11</time>
      </trkpt>
      <trkpt lat="43.27323" lon="-3.12724">
        <ele>113</ele>
        <time>2021-10-28 13:36:12</time>
      </trkpt>
      <trkpt lat="43.27321" lon="-3.12721">
        <ele>113</ele>
        <time>2021-10-28 13:36:13</time>
      </trkpt>
      <trkpt lat="43.27317" lon="-3.12718">
        <ele>113.2</ele>
        <time>2021-10-28 13:36:14</time>
      </trkpt>
      <trkpt lat="43.27317" lon="-3.12718">
        <ele>113.4</ele>
        <time>2021-10-28 13:36:15</time>
      </trkpt>
      <trkpt lat="43.27314" lon="-3.12712">
        <ele>113.4</ele>
        <time>2021-10-28 13:36:16</time>
      </trkpt>
      <trkpt lat="43.27314" lon="-3.12712">
        <ele>113.6</ele>
        <time>2021-10-28 13:36:17</time>
      </trkpt>
      <trkpt lat="43.27312" lon="-3.12708">
        <ele>113.8</ele>
        <time>2021-10-28 13:36:18</time>
      </trkpt>
      <trkpt lat="43.27307" lon="-3.12701">
        <ele>114</ele>
        <time>2021-10-28 13:36:19</time>
      </trkpt>
      <trkpt lat="43.27307" lon="-3.12701">
        <ele>114.2</ele>
        <time>2021-10-28 13:36:20</time>
      </trkpt>
      <trkpt lat="43.27302" lon="-3.12694">
        <ele>114.2</ele>
        <time>2021-10-28 13:36:21</time>
      </trkpt>
      <trkpt lat="43.27302" lon="-3.12694">
        <ele>114.4</ele>
        <time>2021-10-28 13:36:22</time>
      </trkpt>
      <trkpt lat="43.27297" lon="-3.12685">
        <ele>114.4</ele>
        <time>2021-10-28 13:36:23</time>
      </trkpt>
      <trkpt lat="43.27297" lon="-3.12685">
        <ele>114.6</ele>
        <time>2021-10-28 13:36:24</time>
      </trkpt>
      <trkpt lat="43.27293" lon="-3.12677">
        <ele>114.6</ele>
        <time>2021-10-28 13:36:25</time>
      </trkpt>
      <trkpt lat="43.27293" lon="-3.12677">
        <ele>114.8</ele>
        <time>2021-10-28 13:36:26</time>
      </trkpt>
      <trkpt lat="43.27288" lon="-3.12671">
        <ele>114.8</ele>
        <time>2021-10-28 13:36:27</time>
      </trkpt>
      <trkpt lat="43.27288" lon="-3.12671">
        <ele>114.8</ele>
        <time>2021-10-28 13:36:28</time>
      </trkpt>
      <trkpt lat="43.27283" lon="-3.12662">
        <ele>115</ele>
        <time>2021-10-28 13:36:29</time>
      </trkpt>
      <trkpt lat="43.27283" lon="-3.12662">
        <ele>115</ele>
        <time>2021-10-28 13:36:30</time>
      </trkpt>
      <trkpt lat="43.27279" lon="-3.12654">
        <ele>115.2</ele>
        <time>2021-10-28 13:36:31</time>
      </trkpt>
      <trkpt lat="43.27279" lon="-3.12654">
        <ele>115.2</ele>
        <time>2021-10-28 13:36:32</time>
      </trkpt>
      <trkpt lat="43.27276" lon="-3.1265">
        <ele>115.4</ele>
        <time>2021-10-28 13:36:33</time>
      </trkpt>
      <trkpt lat="43.27273" lon="-3.12645">
        <ele>115.4</ele>
        <time>2021-10-28 13:36:34</time>
      </trkpt>
      <trkpt lat="43.27269" lon="-3.12636">
        <ele>115.6</ele>
        <time>2021-10-28 13:36:35</time>
      </trkpt>
      <trkpt lat="43.27269" lon="-3.12636">
        <ele>115.6</ele>
        <time>2021-10-28 13:36:36</time>
      </trkpt>
      <trkpt lat="43.27266" lon="-3.12632">
        <ele>115.8</ele>
        <time>2021-10-28 13:36:37</time>
      </trkpt>
      <trkpt lat="43.27264" lon="-3.12627">
        <ele>116</ele>
        <time>2021-10-28 13:36:38</time>
      </trkpt>
      <trkpt lat="43.27258" lon="-3.12619">
        <ele>116</ele>
        <time>2021-10-28 13:36:39</time>
      </trkpt>
      <trkpt lat="43.27258" lon="-3.12619">
        <ele>116.2</ele>
        <time>2021-10-28 13:36:40</time>
      </trkpt>
      <trkpt lat="43.27252" lon="-3.1261">
        <ele>116.4</ele>
        <time>2021-10-28 13:36:41</time>
      </trkpt>
      <trkpt lat="43.27252" lon="-3.1261">
        <ele>116.6</ele>
        <time>2021-10-28 13:36:42</time>
      </trkpt>
      <trkpt lat="43.27251" lon="-3.12605">
        <ele>116.6</ele>
        <time>2021-10-28 13:36:43</time>
      </trkpt>
      <trkpt lat="43.27249" lon="-3.12601">
        <ele>116.8</ele>
        <time>2021-10-28 13:36:44</time>
      </trkpt>
      <trkpt lat="43.27246" lon="-3.12596">
        <ele>116.8</ele>
        <time>2021-10-28 13:36:45</time>
      </trkpt>
      <trkpt lat="43.27243" lon="-3.12587">
        <ele>117</ele>
        <time>2021-10-28 13:36:46</time>
      </trkpt>
      <trkpt lat="43.27243" lon="-3.12587">
        <ele>117</ele>
        <time>2021-10-28 13:36:47</time>
      </trkpt>
      <trkpt lat="43.27239" lon="-3.12578">
        <ele>117.2</ele>
        <time>2021-10-28 13:36:48</time>
      </trkpt>
      <trkpt lat="43.27239" lon="-3.12578">
        <ele>117.4</ele>
        <time>2021-10-28 13:36:49</time>
      </trkpt>
      <trkpt lat="43.27236" lon="-3.12571">
        <ele>117.4</ele>
        <time>2021-10-28 13:36:50</time>
      </trkpt>
      <trkpt lat="43.27236" lon="-3.12571">
        <ele>117.6</ele>
        <time>2021-10-28 13:36:51</time>
      </trkpt>
      <trkpt lat="43.27235" lon="-3.12566">
        <ele>117.6</ele>
        <time>2021-10-28 13:36:52</time>
      </trkpt>
      <trkpt lat="43.27234" lon="-3.12561">
        <ele>117.8</ele>
        <time>2021-10-28 13:36:53</time>
      </trkpt>
      <trkpt lat="43.27232" lon="-3.12553">
        <ele>117.8</ele>
        <time>2021-10-28 13:36:54</time>
      </trkpt>
      <trkpt lat="43.27232" lon="-3.12553">
        <ele>118</ele>
        <time>2021-10-28 13:36:55</time>
      </trkpt>
      <trkpt lat="43.27229" lon="-3.12545">
        <ele>118.2</ele>
        <time>2021-10-28 13:36:56</time>
      </trkpt>
      <trkpt lat="43.27229" lon="-3.12545">
        <ele>118.2</ele>
        <time>2021-10-28 13:36:57</time>
      </trkpt>
      <trkpt lat="43.27227" lon="-3.12537">
        <ele>118.4</ele>
        <time>2021-10-28 13:36:58</time>
      </trkpt>
      <trkpt lat="43.27227" lon="-3.12537">
        <ele>118.4</ele>
        <time>2021-10-28 13:36:59</time>
      </trkpt>
      <trkpt lat="43.27223" lon="-3.12527">
        <ele>118.6</ele>
        <time>2021-10-28 13:37:00</time>
      </trkpt>
      <trkpt lat="43.27223" lon="-3.12527">
        <ele>118.6</ele>
        <time>2021-10-28 13:37:01</time>
      </trkpt>
      <trkpt lat="43.27222" lon="-3.12522">
        <ele>118.8</ele>
        <time>2021-10-28 13:37:02</time>
      </trkpt>
      <trkpt lat="43.2722" lon="-3.12512">
        <ele>118.8</ele>
        <time>2021-10-28 13:37:03</time>
      </trkpt>
      <trkpt lat="43.2722" lon="-3.12512">
        <ele>118.8</ele>
        <time>2021-10-28 13:37:04</time>
      </trkpt>
      <trkpt lat="43.2722" lon="-3.12506">
        <ele>119</ele>
        <time>2021-10-28 13:37:05</time>
      </trkpt>
      <trkpt lat="43.27218" lon="-3.125">
        <ele>119</ele>
        <time>2021-10-28 13:37:06</time>
      </trkpt>
      <trkpt lat="43.27216" lon="-3.12489">
        <ele>119.2</ele>
        <time>2021-10-28 13:37:07</time>
      </trkpt>
      <trkpt lat="43.27216" lon="-3.12489">
        <ele>119.4</ele>
        <time>2021-10-28 13:37:08</time>
      </trkpt>
      <trkpt lat="43.27214" lon="-3.12485">
        <ele>119.4</ele>
        <time>2021-10-28 13:37:09</time>
      </trkpt>
      <trkpt lat="43.27212" lon="-3.12472">
        <ele>119.4</ele>
        <time>2021-10-28 13:37:10</time>
      </trkpt>
      <trkpt lat="43.27212" lon="-3.12472">
        <ele>119.6</ele>
        <time>2021-10-28 13:37:11</time>
      </trkpt>
      <trkpt lat="43.2721" lon="-3.12462">
        <ele>119.6</ele>
        <time>2021-10-28 13:37:12</time>
      </trkpt>
      <trkpt lat="43.2721" lon="-3.12462">
        <ele>119.8</ele>
        <time>2021-10-28 13:37:13</time>
      </trkpt>
      <trkpt lat="43.27207" lon="-3.1245">
        <ele>119.8</ele>
        <time>2021-10-28 13:37:14</time>
      </trkpt>
      <trkpt lat="43.27207" lon="-3.1245">
        <ele>120</ele>
        <time>2021-10-28 13:37:15</time>
      </trkpt>
      <trkpt lat="43.27205" lon="-3.12441">
        <ele>120</ele>
        <time>2021-10-28 13:37:16</time>
      </trkpt>
      <trkpt lat="43.27205" lon="-3.12441">
        <ele>120.2</ele>
        <time>2021-10-28 13:37:17</time>
      </trkpt>
      <trkpt lat="43.27204" lon="-3.12429">
        <ele>120.4</ele>
        <time>2021-10-28 13:37:18</time>
      </trkpt>
      <trkpt lat="43.27204" lon="-3.12429">
        <ele>120.4</ele>
        <time>2021-10-28 13:37:19</time>
      </trkpt>
      <trkpt lat="43.272" lon="-3.12421">
        <ele>120.6</ele>
        <time>2021-10-28 13:37:20</time>
      </trkpt>
      <trkpt lat="43.272" lon="-3.12421">
        <ele>120.8</ele>
        <time>2021-10-28 13:37:21</time>
      </trkpt>
      <trkpt lat="43.27195" lon="-3.12413">
        <ele>121</ele>
        <time>2021-10-28 13:37:22</time>
      </trkpt>
      <trkpt lat="43.27195" lon="-3.12413">
        <ele>121</ele>
        <time>2021-10-28 13:37:23</time>
      </trkpt>
      <trkpt lat="43.27193" lon="-3.12408">
        <ele>121.2</ele>
        <time>2021-10-28 13:37:24</time>
      </trkpt>
      <trkpt lat="43.2719" lon="-3.12398">
        <ele>121.4</ele>
        <time>2021-10-28 13:37:25</time>
      </trkpt>
      <trkpt lat="43.2719" lon="-3.12398">
        <ele>121.4</ele>
        <time>2021-10-28 13:37:26</time>
      </trkpt>
      <trkpt lat="43.27183" lon="-3.12391">
        <ele>121.4</ele>
        <time>2021-10-28 13:37:27</time>
      </trkpt>
      <trkpt lat="43.27183" lon="-3.12391">
        <ele>121.6</ele>
        <time>2021-10-28 13:37:28</time>
      </trkpt>
      <trkpt lat="43.27176" lon="-3.12385">
        <ele>121.6</ele>
        <time>2021-10-28 13:37:29</time>
      </trkpt>
      <trkpt lat="43.27176" lon="-3.12385">
        <ele>121.8</ele>
        <time>2021-10-28 13:37:30</time>
      </trkpt>
      <trkpt lat="43.27173" lon="-3.12382">
        <ele>121.8</ele>
        <time>2021-10-28 13:37:31</time>
      </trkpt>
      <trkpt lat="43.27169" lon="-3.12379">
        <ele>122</ele>
        <time>2021-10-28 13:37:32</time>
      </trkpt>
      <trkpt lat="43.27169" lon="-3.12379">
        <ele>122.2</ele>
        <time>2021-10-28 13:37:33</time>
      </trkpt>
      <trkpt lat="43.2716" lon="-3.1237">
        <ele>122.2</ele>
        <time>2021-10-28 13:37:34</time>
      </trkpt>
      <trkpt lat="43.2716" lon="-3.1237">
        <ele>122.4</ele>
        <time>2021-10-28 13:37:35</time>
      </trkpt>
      <trkpt lat="43.27156" lon="-3.12362">
        <ele>122.4</ele>
        <time>2021-10-28 13:37:36</time>
      </trkpt>
      <trkpt lat="43.27156" lon="-3.12362">
        <ele>122.6</ele>
        <time>2021-10-28 13:37:37</time>
      </trkpt>
      <trkpt lat="43.27151" lon="-3.12355">
        <ele>122.6</ele>
        <time>2021-10-28 13:37:38</time>
      </trkpt>
      <trkpt lat="43.27151" lon="-3.12355">
        <ele>122.8</ele>
        <time>2021-10-28 13:37:39</time>
      </trkpt>
      <trkpt lat="43.2715" lon="-3.1235">
        <ele>123</ele>
        <time>2021-10-28 13:37:40</time>
      </trkpt>
      <trkpt lat="43.2715" lon="-3.1235">
        <ele>123</ele>
        <time>2021-10-28 13:37:41</time>
      </trkpt>
      <trkpt lat="43.27148" lon="-3.1234">
        <ele>123.2</ele>
        <time>2021-10-28 13:37:42</time>
      </trkpt>
      <trkpt lat="43.27146" lon="-3.12334">
        <ele>123.4</ele>
        <time>2021-10-28 13:37:43</time>
      </trkpt>
      <trkpt lat="43.27144" lon="-3.12324">
        <ele>123.4</ele>
        <time>2021-10-28 13:37:44</time>
      </trkpt>
      <trkpt lat="43.27144" lon="-3.12324">
        <ele>123.6</ele>
        <time>2021-10-28 13:37:45</time>
      </trkpt>
      <trkpt lat="43.27143" lon="-3.12315">
        <ele>123.6</ele>
        <time>2021-10-28 13:37:46</time>
      </trkpt>
      <trkpt lat="43.27143" lon="-3.12315">
        <ele>123.8</ele>
        <time>2021-10-28 13:37:47</time>
      </trkpt>
      <trkpt lat="43.27143" lon="-3.12311">
        <ele>123.8</ele>
        <time>2021-10-28 13:37:48</time>
      </trkpt>
      <trkpt lat="43.27143" lon="-3.12311">
        <ele>124</ele>
        <time>2021-10-28 13:37:49</time>
      </trkpt>
      <trkpt lat="43.27143" lon="-3.12311">
        <ele>124.2</ele>
        <time>2021-10-28 13:37:50</time>
      </trkpt>
      <trkpt lat="43.27139" lon="-3.12295">
        <ele>124.2</ele>
        <time>2021-10-28 13:37:51</time>
      </trkpt>
      <trkpt lat="43.27139" lon="-3.12295">
        <ele>124.2</ele>
        <time>2021-10-28 13:37:52</time>
      </trkpt>
      <trkpt lat="43.27137" lon="-3.12287">
        <ele>124.4</ele>
        <time>2021-10-28 13:37:53</time>
      </trkpt>
      <trkpt lat="43.27137" lon="-3.12287">
        <ele>124.4</ele>
        <time>2021-10-28 13:37:54</time>
      </trkpt>
      <trkpt lat="43.27135" lon="-3.12276">
        <ele>124.4</ele>
        <time>2021-10-28 13:37:55</time>
      </trkpt>
      <trkpt lat="43.27135" lon="-3.12276">
        <ele>124.2</ele>
        <time>2021-10-28 13:37:56</time>
      </trkpt>
      <trkpt lat="43.27133" lon="-3.12272">
        <ele>124.2</ele>
        <time>2021-10-28 13:37:57</time>
      </trkpt>
      <trkpt lat="43.27131" lon="-3.12267">
        <ele>124</ele>
        <time>2021-10-28 13:37:58</time>
      </trkpt>
      <trkpt lat="43.27128" lon="-3.12257">
        <ele>123.6</ele>
        <time>2021-10-28 13:37:59</time>
      </trkpt>
      <trkpt lat="43.27128" lon="-3.12257">
        <ele>123.2</ele>
        <time>2021-10-28 13:38:00</time>
      </trkpt>
      <trkpt lat="43.27128" lon="-3.12251">
        <ele>122.8</ele>
        <time>2021-10-28 13:38:01</time>
      </trkpt>
      <trkpt lat="43.27128" lon="-3.12251">
        <ele>122.4</ele>
        <time>2021-10-28 13:38:02</time>
      </trkpt>
      <trkpt lat="43.27135" lon="-3.12239">
        <ele>122</ele>
        <time>2021-10-28 13:38:03</time>
      </trkpt>
      <trkpt lat="43.27135" lon="-3.12239">
        <ele>121.4</ele>
        <time>2021-10-28 13:38:04</time>
      </trkpt>
      <trkpt lat="43.27139" lon="-3.12236">
        <ele>121</ele>
        <time>2021-10-28 13:38:05</time>
      </trkpt>
      <trkpt lat="43.27139" lon="-3.12236">
        <ele>120.6</ele>
        <time>2021-10-28 13:38:06</time>
      </trkpt>
      <trkpt lat="43.27141" lon="-3.12234">
        <ele>120.2</ele>
        <time>2021-10-28 13:38:07</time>
      </trkpt>
      <trkpt lat="43.27141" lon="-3.12234">
        <ele>120</ele>
        <time>2021-10-28 13:38:08</time>
      </trkpt>
      <trkpt lat="43.2714" lon="-3.12229">
        <ele>119.6</ele>
        <time>2021-10-28 13:38:09</time>
      </trkpt>
      <trkpt lat="43.2714" lon="-3.12229">
        <ele>119.4</ele>
        <time>2021-10-28 13:38:10</time>
      </trkpt>
      <trkpt lat="43.27137" lon="-3.12227">
        <ele>119</ele>
        <time>2021-10-28 13:38:11</time>
      </trkpt>
      <trkpt lat="43.27135" lon="-3.12225">
        <ele>118.8</ele>
        <time>2021-10-28 13:38:12</time>
      </trkpt>
      <trkpt lat="43.27128" lon="-3.12221">
        <ele>118.6</ele>
        <time>2021-10-28 13:38:13</time>
      </trkpt>
      <trkpt lat="43.27128" lon="-3.12221">
        <ele>118.4</ele>
        <time>2021-10-28 13:38:14</time>
      </trkpt>
      <trkpt lat="43.27125" lon="-3.12218">
        <ele>118.4</ele>
        <time>2021-10-28 13:38:15</time>
      </trkpt>
      <trkpt lat="43.2712" lon="-3.12213">
        <ele>118.2</ele>
        <time>2021-10-28 13:38:16</time>
      </trkpt>
      <trkpt lat="43.2712" lon="-3.12213">
        <ele>118.2</ele>
        <time>2021-10-28 13:38:17</time>
      </trkpt>
      <trkpt lat="43.27119" lon="-3.12211">
        <ele>118</ele>
        <time>2021-10-28 13:38:18</time>
      </trkpt>
      <trkpt lat="43.27119" lon="-3.12211">
        <ele>118</ele>
        <time>2021-10-28 13:38:19</time>
      </trkpt>
      <trkpt lat="43.27117" lon="-3.12208">
        <ele>117.8</ele>
        <time>2021-10-28 13:38:20</time>
      </trkpt>
      <trkpt lat="43.27116" lon="-3.12203">
        <ele>117.6</ele>
        <time>2021-10-28 13:38:21</time>
      </trkpt>
      <trkpt lat="43.27116" lon="-3.12203">
        <ele>117.6</ele>
        <time>2021-10-28 13:38:22</time>
      </trkpt>
      <trkpt lat="43.27115" lon="-3.12202">
        <ele>117.2</ele>
        <time>2021-10-28 13:38:23</time>
      </trkpt>
      <trkpt lat="43.27115" lon="-3.12202">
        <ele>117</ele>
        <time>2021-10-28 13:38:24</time>
      </trkpt>
      <trkpt lat="43.27112" lon="-3.12189">
        <ele>116.6</ele>
        <time>2021-10-28 13:38:25</time>
      </trkpt>
      <trkpt lat="43.27112" lon="-3.12189">
        <ele>116</ele>
        <time>2021-10-28 13:38:26</time>
      </trkpt>
      <trkpt lat="43.27112" lon="-3.12181">
        <ele>115.4</ele>
        <time>2021-10-28 13:38:27</time>
      </trkpt>
      <trkpt lat="43.27113" lon="-3.12173">
        <ele>115.2</ele>
        <time>2021-10-28 13:38:28</time>
      </trkpt>
      <trkpt lat="43.27117" lon="-3.12162">
        <ele>115.2</ele>
        <time>2021-10-28 13:38:29</time>
      </trkpt>
      <trkpt lat="43.27117" lon="-3.12162">
        <ele>115.4</ele>
        <time>2021-10-28 13:38:30</time>
      </trkpt>
      <trkpt lat="43.27121" lon="-3.12154">
        <ele>116</ele>
        <time>2021-10-28 13:38:31</time>
      </trkpt>
      <trkpt lat="43.27121" lon="-3.12154">
        <ele>116.6</ele>
        <time>2021-10-28 13:38:32</time>
      </trkpt>
      <trkpt lat="43.27121" lon="-3.12145">
        <ele>117</ele>
        <time>2021-10-28 13:38:33</time>
      </trkpt>
      <trkpt lat="43.27121" lon="-3.12145">
        <ele>117.6</ele>
        <time>2021-10-28 13:38:34</time>
      </trkpt>
      <trkpt lat="43.2712" lon="-3.1214">
        <ele>118</ele>
        <time>2021-10-28 13:38:35</time>
      </trkpt>
      <trkpt lat="43.27117" lon="-3.12136">
        <ele>118.2</ele>
        <time>2021-10-28 13:38:36</time>
      </trkpt>
      <trkpt lat="43.27114" lon="-3.12133">
        <ele>118.4</ele>
        <time>2021-10-28 13:38:37</time>
      </trkpt>
      <trkpt lat="43.27107" lon="-3.12126">
        <ele>118.4</ele>
        <time>2021-10-28 13:38:38</time>
      </trkpt>
      <trkpt lat="43.27107" lon="-3.12126">
        <ele>118.6</ele>
        <time>2021-10-28 13:38:39</time>
      </trkpt>
      <trkpt lat="43.27099" lon="-3.12119">
        <ele>118.8</ele>
        <time>2021-10-28 13:38:40</time>
      </trkpt>
      <trkpt lat="43.27099" lon="-3.12119">
        <ele>119</ele>
        <time>2021-10-28 13:38:41</time>
      </trkpt>
      <trkpt lat="43.27094" lon="-3.12115">
        <ele>119.2</ele>
        <time>2021-10-28 13:38:42</time>
      </trkpt>
      <trkpt lat="43.2709" lon="-3.12111">
        <ele>119.4</ele>
        <time>2021-10-28 13:38:43</time>
      </trkpt>
      <trkpt lat="43.27085" lon="-3.12107">
        <ele>119.6</ele>
        <time>2021-10-28 13:38:44</time>
      </trkpt>
      <trkpt lat="43.27076" lon="-3.12102">
        <ele>119.6</ele>
        <time>2021-10-28 13:38:45</time>
      </trkpt>
      <trkpt lat="43.27076" lon="-3.12102">
        <ele>119.6</ele>
        <time>2021-10-28 13:38:46</time>
      </trkpt>
      <trkpt lat="43.27069" lon="-3.12095">
        <ele>119.8</ele>
        <time>2021-10-28 13:38:47</time>
      </trkpt>
      <trkpt lat="43.27069" lon="-3.12095">
        <ele>119.8</ele>
        <time>2021-10-28 13:38:48</time>
      </trkpt>
      <trkpt lat="43.27067" lon="-3.1209">
        <ele>119.8</ele>
        <time>2021-10-28 13:38:49</time>
      </trkpt>
      <trkpt lat="43.27063" lon="-3.1208">
        <ele>120</ele>
        <time>2021-10-28 13:38:50</time>
      </trkpt>
      <trkpt lat="43.27063" lon="-3.1208">
        <ele>120.2</ele>
        <time>2021-10-28 13:38:51</time>
      </trkpt>
      <trkpt lat="43.27062" lon="-3.12074">
        <ele>120.4</ele>
        <time>2021-10-28 13:38:52</time>
      </trkpt>
      <trkpt lat="43.27062" lon="-3.12072">
        <ele>120.6</ele>
        <time>2021-10-28 13:38:53</time>
      </trkpt>
      <trkpt lat="43.27062" lon="-3.12072">
        <ele>120.8</ele>
        <time>2021-10-28 13:38:54</time>
      </trkpt>
      <trkpt lat="43.27062" lon="-3.1206">
        <ele>120.8</ele>
        <time>2021-10-28 13:38:55</time>
      </trkpt>
      <trkpt lat="43.27062" lon="-3.1206">
        <ele>120.8</ele>
        <time>2021-10-28 13:38:56</time>
      </trkpt>
      <trkpt lat="43.27061" lon="-3.12057">
        <ele>120.8</ele>
        <time>2021-10-28 13:38:57</time>
      </trkpt>
      <trkpt lat="43.27061" lon="-3.12046">
        <ele>121</ele>
        <time>2021-10-28 13:38:58</time>
      </trkpt>
      <trkpt lat="43.27061" lon="-3.12046">
        <ele>121</ele>
        <time>2021-10-28 13:38:59</time>
      </trkpt>
      <trkpt lat="43.2706" lon="-3.1204">
        <ele>121</ele>
        <time>2021-10-28 13:39:00</time>
      </trkpt>
      <trkpt lat="43.27061" lon="-3.1203">
        <ele>121</ele>
        <time>2021-10-28 13:39:01</time>
      </trkpt>
      <trkpt lat="43.27061" lon="-3.1203">
        <ele>121</ele>
        <time>2021-10-28 13:39:02</time>
      </trkpt>
      <trkpt lat="43.27061" lon="-3.12025">
        <ele>121</ele>
        <time>2021-10-28 13:39:03</time>
      </trkpt>
      <trkpt lat="43.27062" lon="-3.12015">
        <ele>121</ele>
        <time>2021-10-28 13:39:04</time>
      </trkpt>
      <trkpt lat="43.27062" lon="-3.12015">
        <ele>121</ele>
        <time>2021-10-28 13:39:05</time>
      </trkpt>
      <trkpt lat="43.27062" lon="-3.12008">
        <ele>121</ele>
        <time>2021-10-28 13:39:06</time>
      </trkpt>
      <trkpt lat="43.27062" lon="-3.12008">
        <ele>121.2</ele>
        <time>2021-10-28 13:39:07</time>
      </trkpt>
      <trkpt lat="43.27064" lon="-3.12001">
        <ele>121.2</ele>
        <time>2021-10-28 13:39:08</time>
      </trkpt>
      <trkpt lat="43.27064" lon="-3.12001">
        <ele>121.2</ele>
        <time>2021-10-28 13:39:09</time>
      </trkpt>
      <trkpt lat="43.27066" lon="-3.11997">
        <ele>121.4</ele>
        <time>2021-10-28 13:39:10</time>
      </trkpt>
      <trkpt lat="43.2707" lon="-3.11991">
        <ele>121.4</ele>
        <time>2021-10-28 13:39:11</time>
      </trkpt>
      <trkpt lat="43.2707" lon="-3.11991">
        <ele>121.6</ele>
        <time>2021-10-28 13:39:12</time>
      </trkpt>
      <trkpt lat="43.27072" lon="-3.11987">
        <ele>121.6</ele>
        <time>2021-10-28 13:39:13</time>
      </trkpt>
      <trkpt lat="43.27075" lon="-3.11983">
        <ele>121.6</ele>
        <time>2021-10-28 13:39:14</time>
      </trkpt>
      <trkpt lat="43.27077" lon="-3.1198">
        <ele>121.8</ele>
        <time>2021-10-28 13:39:15</time>
      </trkpt>
      <trkpt lat="43.2708" lon="-3.11977">
        <ele>121.8</ele>
        <time>2021-10-28 13:39:16</time>
      </trkpt>
      <trkpt lat="43.27083" lon="-3.11969">
        <ele>121.8</ele>
        <time>2021-10-28 13:39:17</time>
      </trkpt>
      <trkpt lat="43.27083" lon="-3.11969">
        <ele>121.6</ele>
        <time>2021-10-28 13:39:18</time>
      </trkpt>
      <trkpt lat="43.27086" lon="-3.11961">
        <ele>120.8</ele>
        <time>2021-10-28 13:39:19</time>
      </trkpt>
      <trkpt lat="43.27086" lon="-3.11961">
        <ele>121.2</ele>
        <time>2021-10-28 13:39:20</time>
      </trkpt>
      <trkpt lat="43.27088" lon="-3.11956">
        <ele>122.2</ele>
        <time>2021-10-28 13:39:21</time>
      </trkpt>
      <trkpt lat="43.27089" lon="-3.11951">
        <ele>122</ele>
        <time>2021-10-28 13:39:22</time>
      </trkpt>
      <trkpt lat="43.27089" lon="-3.1194">
        <ele>122.2</ele>
        <time>2021-10-28 13:39:23</time>
      </trkpt>
      <trkpt lat="43.27089" lon="-3.1194">
        <ele>122.4</ele>
        <time>2021-10-28 13:39:24</time>
      </trkpt>
      <trkpt lat="43.27091" lon="-3.11929">
        <ele>122.2</ele>
        <time>2021-10-28 13:39:25</time>
      </trkpt>
      <trkpt lat="43.27091" lon="-3.11929">
        <ele>122.2</ele>
        <time>2021-10-28 13:39:26</time>
      </trkpt>
      <trkpt lat="43.27093" lon="-3.11924">
        <ele>122.2</ele>
        <time>2021-10-28 13:39:27</time>
      </trkpt>
      <trkpt lat="43.27096" lon="-3.1192">
        <ele>122.4</ele>
        <time>2021-10-28 13:39:28</time>
      </trkpt>
      <trkpt lat="43.271" lon="-3.11913">
        <ele>122.4</ele>
        <time>2021-10-28 13:39:29</time>
      </trkpt>
      <trkpt lat="43.271" lon="-3.11913">
        <ele>122.4</ele>
        <time>2021-10-28 13:39:30</time>
      </trkpt>
      <trkpt lat="43.27106" lon="-3.11907">
        <ele>122.6</ele>
        <time>2021-10-28 13:39:31</time>
      </trkpt>
      <trkpt lat="43.27106" lon="-3.11907">
        <ele>122.6</ele>
        <time>2021-10-28 13:39:32</time>
      </trkpt>
      <trkpt lat="43.2711" lon="-3.11901">
        <ele>122.6</ele>
        <time>2021-10-28 13:39:33</time>
      </trkpt>
      <trkpt lat="43.2711" lon="-3.11901">
        <ele>122.2</ele>
        <time>2021-10-28 13:39:34</time>
      </trkpt>
      <trkpt lat="43.27114" lon="-3.11894">
        <ele>122.4</ele>
        <time>2021-10-28 13:39:35</time>
      </trkpt>
      <trkpt lat="43.27114" lon="-3.11894">
        <ele>122.8</ele>
        <time>2021-10-28 13:39:36</time>
      </trkpt>
      <trkpt lat="43.27117" lon="-3.11891">
        <ele>123.6</ele>
        <time>2021-10-28 13:39:37</time>
      </trkpt>
      <trkpt lat="43.27123" lon="-3.11885">
        <ele>123.4</ele>
        <time>2021-10-28 13:39:38</time>
      </trkpt>
      <trkpt lat="43.27123" lon="-3.11885">
        <ele>123.6</ele>
        <time>2021-10-28 13:39:39</time>
      </trkpt>
      <trkpt lat="43.27129" lon="-3.11881">
        <ele>123.2</ele>
        <time>2021-10-28 13:39:40</time>
      </trkpt>
      <trkpt lat="43.27129" lon="-3.11881">
        <ele>123.2</ele>
        <time>2021-10-28 13:39:41</time>
      </trkpt>
      <trkpt lat="43.27134" lon="-3.11879">
        <ele>123.4</ele>
        <time>2021-10-28 13:39:42</time>
      </trkpt>
      <trkpt lat="43.27134" lon="-3.11879">
        <ele>123.4</ele>
        <time>2021-10-28 13:39:43</time>
      </trkpt>
      <trkpt lat="43.27137" lon="-3.11879">
        <ele>123.4</ele>
        <time>2021-10-28 13:39:44</time>
      </trkpt>
      <trkpt lat="43.27141" lon="-3.11877">
        <ele>123.6</ele>
        <time>2021-10-28 13:39:45</time>
      </trkpt>
      <trkpt lat="43.27141" lon="-3.11877">
        <ele>123.6</ele>
        <time>2021-10-28 13:39:46</time>
      </trkpt>
      <trkpt lat="43.27144" lon="-3.11877">
        <ele>123.6</ele>
        <time>2021-10-28 13:39:47</time>
      </trkpt>
      <trkpt lat="43.27147" lon="-3.11877">
        <ele>123.6</ele>
        <time>2021-10-28 13:39:48</time>
      </trkpt>
      <trkpt lat="43.27147" lon="-3.11877">
        <ele>123.6</ele>
        <time>2021-10-28 13:39:49</time>
      </trkpt>
      <trkpt lat="43.27156" lon="-3.11877">
        <ele>123.6</ele>
        <time>2021-10-28 13:39:50</time>
      </trkpt>
      <trkpt lat="43.27159" lon="-3.11876">
        <ele>123.6</ele>
        <time>2021-10-28 13:39:51</time>
      </trkpt>
      <trkpt lat="43.27159" lon="-3.11876">
        <ele>123.6</ele>
        <time>2021-10-28 13:39:52</time>
      </trkpt>
      <trkpt lat="43.27163" lon="-3.11873">
        <ele>123.6</ele>
        <time>2021-10-28 13:39:53</time>
      </trkpt>
      <trkpt lat="43.27166" lon="-3.11869">
        <ele>123.6</ele>
        <time>2021-10-28 13:39:54</time>
      </trkpt>
      <trkpt lat="43.27169" lon="-3.11864">
        <ele>123.4</ele>
        <time>2021-10-28 13:39:55</time>
      </trkpt>
      <trkpt lat="43.27172" lon="-3.11853">
        <ele>123.2</ele>
        <time>2021-10-28 13:39:56</time>
      </trkpt>
      <trkpt lat="43.27172" lon="-3.11853">
        <ele>123.2</ele>
        <time>2021-10-28 13:39:57</time>
      </trkpt>
      <trkpt lat="43.27172" lon="-3.11847">
        <ele>123</ele>
        <time>2021-10-28 13:39:58</time>
      </trkpt>
      <trkpt lat="43.27171" lon="-3.11837">
        <ele>123</ele>
        <time>2021-10-28 13:39:59</time>
      </trkpt>
      <trkpt lat="43.27171" lon="-3.11837">
        <ele>123.2</ele>
        <time>2021-10-28 13:40:00</time>
      </trkpt>
      <trkpt lat="43.2717" lon="-3.11827">
        <ele>123.2</ele>
        <time>2021-10-28 13:40:01</time>
      </trkpt>
      <trkpt lat="43.2717" lon="-3.11827">
        <ele>123.2</ele>
        <time>2021-10-28 13:40:02</time>
      </trkpt>
      <trkpt lat="43.27167" lon="-3.11819">
        <ele>123.2</ele>
        <time>2021-10-28 13:40:03</time>
      </trkpt>
      <trkpt lat="43.27167" lon="-3.11819">
        <ele>123.2</ele>
        <time>2021-10-28 13:40:04</time>
      </trkpt>
      <trkpt lat="43.27166" lon="-3.11815">
        <ele>123.2</ele>
        <time>2021-10-28 13:40:05</time>
      </trkpt>
      <trkpt lat="43.27163" lon="-3.11808">
        <ele>123.4</ele>
        <time>2021-10-28 13:40:06</time>
      </trkpt>
      <trkpt lat="43.27163" lon="-3.11808">
        <ele>123.4</ele>
        <time>2021-10-28 13:40:07</time>
      </trkpt>
      <trkpt lat="43.27163" lon="-3.11805">
        <ele>123.6</ele>
        <time>2021-10-28 13:40:08</time>
      </trkpt>
      <trkpt lat="43.27162" lon="-3.11801">
        <ele>123.6</ele>
        <time>2021-10-28 13:40:09</time>
      </trkpt>
      <trkpt lat="43.2716" lon="-3.11795">
        <ele>123.8</ele>
        <time>2021-10-28 13:40:10</time>
      </trkpt>
      <trkpt lat="43.27158" lon="-3.11794">
        <ele>123.8</ele>
        <time>2021-10-28 13:40:11</time>
      </trkpt>
      <trkpt lat="43.27158" lon="-3.11794">
        <ele>123.8</ele>
        <time>2021-10-28 13:40:12</time>
      </trkpt>
      <trkpt lat="43.27161" lon="-3.11791">
        <ele>123.8</ele>
        <time>2021-10-28 13:40:13</time>
      </trkpt>
      <trkpt lat="43.27163" lon="-3.11789">
        <ele>124</ele>
        <time>2021-10-28 13:40:14</time>
      </trkpt>
      <trkpt lat="43.27163" lon="-3.11789">
        <ele>124</ele>
        <time>2021-10-28 13:40:15</time>
      </trkpt>
      <trkpt lat="43.2717" lon="-3.11778">
        <ele>124</ele>
        <time>2021-10-28 13:40:16</time>
      </trkpt>
      <trkpt lat="43.27173" lon="-3.11775">
        <ele>124.2</ele>
        <time>2021-10-28 13:40:17</time>
      </trkpt>
      <trkpt lat="43.27173" lon="-3.11775">
        <ele>124.4</ele>
        <time>2021-10-28 13:40:18</time>
      </trkpt>
      <trkpt lat="43.27176" lon="-3.11774">
        <ele>124.8</ele>
        <time>2021-10-28 13:40:19</time>
      </trkpt>
      <trkpt lat="43.27179" lon="-3.11773">
        <ele>125.2</ele>
        <time>2021-10-28 13:40:20</time>
      </trkpt>
      <trkpt lat="43.27181" lon="-3.11773">
        <ele>125.6</ele>
        <time>2021-10-28 13:40:21</time>
      </trkpt>
      <trkpt lat="43.27184" lon="-3.11776">
        <ele>126</ele>
        <time>2021-10-28 13:40:22</time>
      </trkpt>
      <trkpt lat="43.27184" lon="-3.11776">
        <ele>126.6</ele>
        <time>2021-10-28 13:40:23</time>
      </trkpt>
      <trkpt lat="43.27186" lon="-3.11778">
        <ele>127</ele>
        <time>2021-10-28 13:40:24</time>
      </trkpt>
      <trkpt lat="43.27187" lon="-3.11782">
        <ele>127.6</ele>
        <time>2021-10-28 13:40:25</time>
      </trkpt>
      <trkpt lat="43.27187" lon="-3.11782">
        <ele>128</ele>
        <time>2021-10-28 13:40:26</time>
      </trkpt>
      <trkpt lat="43.27189" lon="-3.11786">
        <ele>128.2</ele>
        <time>2021-10-28 13:40:27</time>
      </trkpt>
      <trkpt lat="43.27189" lon="-3.11786">
        <ele>128.6</ele>
        <time>2021-10-28 13:40:28</time>
      </trkpt>
      <trkpt lat="43.2719" lon="-3.11788">
        <ele>128.8</ele>
        <time>2021-10-28 13:40:29</time>
      </trkpt>
      <trkpt lat="43.27191" lon="-3.1179">
        <ele>129.2</ele>
        <time>2021-10-28 13:40:30</time>
      </trkpt>
      <trkpt lat="43.27194" lon="-3.11793">
        <ele>129.6</ele>
        <time>2021-10-28 13:40:31</time>
      </trkpt>
      <trkpt lat="43.27196" lon="-3.11795">
        <ele>130</ele>
        <time>2021-10-28 13:40:32</time>
      </trkpt>
      <trkpt lat="43.27196" lon="-3.11795">
        <ele>130.4</ele>
        <time>2021-10-28 13:40:33</time>
      </trkpt>
      <trkpt lat="43.27197" lon="-3.11796">
        <ele>130.8</ele>
        <time>2021-10-28 13:40:34</time>
      </trkpt>
      <trkpt lat="43.27198" lon="-3.11798">
        <ele>131</ele>
        <time>2021-10-28 13:40:35</time>
      </trkpt>
      <trkpt lat="43.272" lon="-3.11801">
        <ele>131.2</ele>
        <time>2021-10-28 13:40:36</time>
      </trkpt>
      <trkpt lat="43.27201" lon="-3.11802">
        <ele>131.4</ele>
        <time>2021-10-28 13:40:37</time>
      </trkpt>
      <trkpt lat="43.27201" lon="-3.11802">
        <ele>131.8</ele>
        <time>2021-10-28 13:40:38</time>
      </trkpt>
      <trkpt lat="43.27202" lon="-3.11803">
        <ele>132.2</ele>
        <time>2021-10-28 13:40:39</time>
      </trkpt>
      <trkpt lat="43.27203" lon="-3.11805">
        <ele>132.4</ele>
        <time>2021-10-28 13:40:40</time>
      </trkpt>
      <trkpt lat="43.27204" lon="-3.11807">
        <ele>132.6</ele>
        <time>2021-10-28 13:40:41</time>
      </trkpt>
      <trkpt lat="43.27206" lon="-3.11808">
        <ele>133</ele>
        <time>2021-10-28 13:40:42</time>
      </trkpt>
      <trkpt lat="43.27209" lon="-3.1181">
        <ele>133.4</ele>
        <time>2021-10-28 13:40:43</time>
      </trkpt>
      <trkpt lat="43.27209" lon="-3.1181">
        <ele>133.6</ele>
        <time>2021-10-28 13:40:44</time>
      </trkpt>
      <trkpt lat="43.2721" lon="-3.11811">
        <ele>134</ele>
        <time>2021-10-28 13:40:45</time>
      </trkpt>
      <trkpt lat="43.27212" lon="-3.11811">
        <ele>134.2</ele>
        <time>2021-10-28 13:40:46</time>
      </trkpt>
      <trkpt lat="43.27212" lon="-3.11811">
        <ele>134.6</ele>
        <time>2021-10-28 13:40:47</time>
      </trkpt>
      <trkpt lat="43.27217" lon="-3.11806">
        <ele>134.8</ele>
        <time>2021-10-28 13:40:48</time>
      </trkpt>
      <trkpt lat="43.27217" lon="-3.11806">
        <ele>135</ele>
        <time>2021-10-28 13:40:49</time>
      </trkpt>
      <trkpt lat="43.27216" lon="-3.11803">
        <ele>135</ele>
        <time>2021-10-28 13:40:50</time>
      </trkpt>
      <trkpt lat="43.27215" lon="-3.11801">
        <ele>135.4</ele>
        <time>2021-10-28 13:40:51</time>
      </trkpt>
      <trkpt lat="43.27214" lon="-3.11798">
        <ele>135.6</ele>
        <time>2021-10-28 13:40:52</time>
      </trkpt>
      <trkpt lat="43.27212" lon="-3.11793">
        <ele>136</ele>
        <time>2021-10-28 13:40:53</time>
      </trkpt>
      <trkpt lat="43.27212" lon="-3.11793">
        <ele>136.2</ele>
        <time>2021-10-28 13:40:54</time>
      </trkpt>
      <trkpt lat="43.27211" lon="-3.1179">
        <ele>136.4</ele>
        <time>2021-10-28 13:40:55</time>
      </trkpt>
      <trkpt lat="43.2721" lon="-3.11788">
        <ele>136.6</ele>
        <time>2021-10-28 13:40:56</time>
      </trkpt>
      <trkpt lat="43.2721" lon="-3.11785">
        <ele>136.8</ele>
        <time>2021-10-28 13:40:57</time>
      </trkpt>
      <trkpt lat="43.27209" lon="-3.1178">
        <ele>137</ele>
        <time>2021-10-28 13:40:58</time>
      </trkpt>
      <trkpt lat="43.27209" lon="-3.1178">
        <ele>137</ele>
        <time>2021-10-28 13:40:59</time>
      </trkpt>
      <trkpt lat="43.27209" lon="-3.11777">
        <ele>137.2</ele>
        <time>2021-10-28 13:41:00</time>
      </trkpt>
      <trkpt lat="43.27208" lon="-3.11775">
        <ele>137.4</ele>
        <time>2021-10-28 13:41:01</time>
      </trkpt>
      <trkpt lat="43.27208" lon="-3.11772">
        <ele>137.6</ele>
        <time>2021-10-28 13:41:02</time>
      </trkpt>
      <trkpt lat="43.27209" lon="-3.11767">
        <ele>138</ele>
        <time>2021-10-28 13:41:03</time>
      </trkpt>
      <trkpt lat="43.27209" lon="-3.11767">
        <ele>138.4</ele>
        <time>2021-10-28 13:41:04</time>
      </trkpt>
      <trkpt lat="43.27209" lon="-3.11765">
        <ele>138.6</ele>
        <time>2021-10-28 13:41:05</time>
      </trkpt>
      <trkpt lat="43.27209" lon="-3.11763">
        <ele>138.8</ele>
        <time>2021-10-28 13:41:06</time>
      </trkpt>
      <trkpt lat="43.2721" lon="-3.1176">
        <ele>139</ele>
        <time>2021-10-28 13:41:07</time>
      </trkpt>
      <trkpt lat="43.2721" lon="-3.11758">
        <ele>139.2</ele>
        <time>2021-10-28 13:41:08</time>
      </trkpt>
      <trkpt lat="43.27212" lon="-3.11753">
        <ele>139.4</ele>
        <time>2021-10-28 13:41:09</time>
      </trkpt>
      <trkpt lat="43.27212" lon="-3.11753">
        <ele>139.4</ele>
        <time>2021-10-28 13:41:10</time>
      </trkpt>
      <trkpt lat="43.27213" lon="-3.11751">
        <ele>139.6</ele>
        <time>2021-10-28 13:41:11</time>
      </trkpt>
      <trkpt lat="43.27214" lon="-3.1175">
        <ele>139.8</ele>
        <time>2021-10-28 13:41:12</time>
      </trkpt>
      <trkpt lat="43.27216" lon="-3.11746">
        <ele>140</ele>
        <time>2021-10-28 13:41:13</time>
      </trkpt>
      <trkpt lat="43.27217" lon="-3.11745">
        <ele>140.2</ele>
        <time>2021-10-28 13:41:14</time>
      </trkpt>
      <trkpt lat="43.27217" lon="-3.11745">
        <ele>140.4</ele>
        <time>2021-10-28 13:41:15</time>
      </trkpt>
      <trkpt lat="43.27218" lon="-3.11743">
        <ele>140.6</ele>
        <time>2021-10-28 13:41:16</time>
      </trkpt>
      <trkpt lat="43.2722" lon="-3.11742">
        <ele>141</ele>
        <time>2021-10-28 13:41:17</time>
      </trkpt>
      <trkpt lat="43.27221" lon="-3.1174">
        <ele>141.2</ele>
        <time>2021-10-28 13:41:18</time>
      </trkpt>
      <trkpt lat="43.27224" lon="-3.11738">
        <ele>141.4</ele>
        <time>2021-10-28 13:41:19</time>
      </trkpt>
      <trkpt lat="43.27224" lon="-3.11738">
        <ele>141.6</ele>
        <time>2021-10-28 13:41:20</time>
      </trkpt>
      <trkpt lat="43.27226" lon="-3.11738">
        <ele>141.8</ele>
        <time>2021-10-28 13:41:21</time>
      </trkpt>
      <trkpt lat="43.27228" lon="-3.11738">
        <ele>141.8</ele>
        <time>2021-10-28 13:41:22</time>
      </trkpt>
      <trkpt lat="43.27231" lon="-3.11737">
        <ele>142</ele>
        <time>2021-10-28 13:41:23</time>
      </trkpt>
      <trkpt lat="43.27232" lon="-3.11736">
        <ele>142</ele>
        <time>2021-10-28 13:41:24</time>
      </trkpt>
      <trkpt lat="43.27232" lon="-3.11736">
        <ele>142.2</ele>
        <time>2021-10-28 13:41:25</time>
      </trkpt>
      <trkpt lat="43.27234" lon="-3.11736">
        <ele>142.4</ele>
        <time>2021-10-28 13:41:26</time>
      </trkpt>
      <trkpt lat="43.27235" lon="-3.11735">
        <ele>142.8</ele>
        <time>2021-10-28 13:41:27</time>
      </trkpt>
      <trkpt lat="43.27237" lon="-3.11734">
        <ele>143</ele>
        <time>2021-10-28 13:41:28</time>
      </trkpt>
      <trkpt lat="43.2724" lon="-3.11735">
        <ele>143</ele>
        <time>2021-10-28 13:41:29</time>
      </trkpt>
      <trkpt lat="43.2724" lon="-3.11735">
        <ele>143.2</ele>
        <time>2021-10-28 13:41:30</time>
      </trkpt>
      <trkpt lat="43.27241" lon="-3.11736">
        <ele>143.4</ele>
        <time>2021-10-28 13:41:31</time>
      </trkpt>
      <trkpt lat="43.27242" lon="-3.11737">
        <ele>143.6</ele>
        <time>2021-10-28 13:41:32</time>
      </trkpt>
      <trkpt lat="43.27246" lon="-3.1174">
        <ele>143.6</ele>
        <time>2021-10-28 13:41:33</time>
      </trkpt>
      <trkpt lat="43.27246" lon="-3.1174">
        <ele>143.8</ele>
        <time>2021-10-28 13:41:34</time>
      </trkpt>
      <trkpt lat="43.27249" lon="-3.11742">
        <ele>144</ele>
        <time>2021-10-28 13:41:35</time>
      </trkpt>
      <trkpt lat="43.27249" lon="-3.11742">
        <ele>144.2</ele>
        <time>2021-10-28 13:41:36</time>
      </trkpt>
      <trkpt lat="43.2725" lon="-3.11743">
        <ele>144.4</ele>
        <time>2021-10-28 13:41:37</time>
      </trkpt>
      <trkpt lat="43.27252" lon="-3.11744">
        <ele>144.6</ele>
        <time>2021-10-28 13:41:38</time>
      </trkpt>
      <trkpt lat="43.27253" lon="-3.11746">
        <ele>144.6</ele>
        <time>2021-10-28 13:41:39</time>
      </trkpt>
      <trkpt lat="43.27256" lon="-3.11749">
        <ele>144.8</ele>
        <time>2021-10-28 13:41:40</time>
      </trkpt>
      <trkpt lat="43.27256" lon="-3.11749">
        <ele>144.8</ele>
        <time>2021-10-28 13:41:41</time>
      </trkpt>
      <trkpt lat="43.27256" lon="-3.11751">
        <ele>144.8</ele>
        <time>2021-10-28 13:41:42</time>
      </trkpt>
      <trkpt lat="43.27258" lon="-3.11753">
        <ele>145</ele>
        <time>2021-10-28 13:41:43</time>
      </trkpt>
      <trkpt lat="43.27259" lon="-3.11755">
        <ele>145</ele>
        <time>2021-10-28 13:41:44</time>
      </trkpt>
      <trkpt lat="43.27263" lon="-3.11758">
        <ele>145.2</ele>
        <time>2021-10-28 13:41:45</time>
      </trkpt>
      <trkpt lat="43.27263" lon="-3.11758">
        <ele>145.2</ele>
        <time>2021-10-28 13:41:46</time>
      </trkpt>
      <trkpt lat="43.27264" lon="-3.11759">
        <ele>145.4</ele>
        <time>2021-10-28 13:41:47</time>
      </trkpt>
      <trkpt lat="43.27267" lon="-3.1176">
        <ele>145.6</ele>
        <time>2021-10-28 13:41:48</time>
      </trkpt>
      <trkpt lat="43.27269" lon="-3.11761">
        <ele>146</ele>
        <time>2021-10-28 13:41:49</time>
      </trkpt>
      <trkpt lat="43.27274" lon="-3.11763">
        <ele>146</ele>
        <time>2021-10-28 13:41:50</time>
      </trkpt>
      <trkpt lat="43.27274" lon="-3.11763">
        <ele>146.2</ele>
        <time>2021-10-28 13:41:51</time>
      </trkpt>
      <trkpt lat="43.27276" lon="-3.11763">
        <ele>146.2</ele>
        <time>2021-10-28 13:41:52</time>
      </trkpt>
      <trkpt lat="43.27279" lon="-3.11764">
        <ele>146.4</ele>
        <time>2021-10-28 13:41:53</time>
      </trkpt>
      <trkpt lat="43.27281" lon="-3.11764">
        <ele>146.4</ele>
        <time>2021-10-28 13:41:54</time>
      </trkpt>
      <trkpt lat="43.27286" lon="-3.11765">
        <ele>146.6</ele>
        <time>2021-10-28 13:41:55</time>
      </trkpt>
      <trkpt lat="43.27286" lon="-3.11765">
        <ele>146.6</ele>
        <time>2021-10-28 13:41:56</time>
      </trkpt>
      <trkpt lat="43.27289" lon="-3.11766">
        <ele>146.8</ele>
        <time>2021-10-28 13:41:57</time>
      </trkpt>
      <trkpt lat="43.27291" lon="-3.11766">
        <ele>146.8</ele>
        <time>2021-10-28 13:41:58</time>
      </trkpt>
      <trkpt lat="43.27296" lon="-3.11769">
        <ele>147</ele>
        <time>2021-10-28 13:41:59</time>
      </trkpt>
      <trkpt lat="43.27296" lon="-3.11769">
        <ele>147</ele>
        <time>2021-10-28 13:42:00</time>
      </trkpt>
      <trkpt lat="43.27302" lon="-3.11772">
        <ele>147</ele>
        <time>2021-10-28 13:42:01</time>
      </trkpt>
      <trkpt lat="43.27302" lon="-3.11772">
        <ele>147</ele>
        <time>2021-10-28 13:42:02</time>
      </trkpt>
      <trkpt lat="43.27307" lon="-3.11777">
        <ele>147</ele>
        <time>2021-10-28 13:42:03</time>
      </trkpt>
      <trkpt lat="43.27307" lon="-3.11777">
        <ele>147</ele>
        <time>2021-10-28 13:42:04</time>
      </trkpt>
      <trkpt lat="43.2731" lon="-3.11778">
        <ele>147</ele>
        <time>2021-10-28 13:42:05</time>
      </trkpt>
      <trkpt lat="43.27318" lon="-3.11782">
        <ele>147</ele>
        <time>2021-10-28 13:42:06</time>
      </trkpt>
      <trkpt lat="43.27318" lon="-3.11782">
        <ele>147.2</ele>
        <time>2021-10-28 13:42:07</time>
      </trkpt>
      <trkpt lat="43.2732" lon="-3.11785">
        <ele>147.2</ele>
        <time>2021-10-28 13:42:08</time>
      </trkpt>
      <trkpt lat="43.27323" lon="-3.11788">
        <ele>147.4</ele>
        <time>2021-10-28 13:42:09</time>
      </trkpt>
      <trkpt lat="43.27325" lon="-3.11791">
        <ele>147.4</ele>
        <time>2021-10-28 13:42:10</time>
      </trkpt>
      <trkpt lat="43.27329" lon="-3.11799">
        <ele>147.4</ele>
        <time>2021-10-28 13:42:11</time>
      </trkpt>
      <trkpt lat="43.27329" lon="-3.11799">
        <ele>147.4</ele>
        <time>2021-10-28 13:42:12</time>
      </trkpt>
      <trkpt lat="43.2733" lon="-3.11808">
        <ele>147.4</ele>
        <time>2021-10-28 13:42:13</time>
      </trkpt>
      <trkpt lat="43.2733" lon="-3.11808">
        <ele>147.2</ele>
        <time>2021-10-28 13:42:14</time>
      </trkpt>
      <trkpt lat="43.2733" lon="-3.11813">
        <ele>147.2</ele>
        <time>2021-10-28 13:42:15</time>
      </trkpt>
      <trkpt lat="43.27328" lon="-3.11823">
        <ele>147.2</ele>
        <time>2021-10-28 13:42:16</time>
      </trkpt>
      <trkpt lat="43.27328" lon="-3.11823">
        <ele>147.2</ele>
        <time>2021-10-28 13:42:17</time>
      </trkpt>
      <trkpt lat="43.27326" lon="-3.11834">
        <ele>147</ele>
        <time>2021-10-28 13:42:18</time>
      </trkpt>
      <trkpt lat="43.27326" lon="-3.11834">
        <ele>147</ele>
        <time>2021-10-28 13:42:19</time>
      </trkpt>
      <trkpt lat="43.27326" lon="-3.11839">
        <ele>147</ele>
        <time>2021-10-28 13:42:20</time>
      </trkpt>
      <trkpt lat="43.27325" lon="-3.11844">
        <ele>147</ele>
        <time>2021-10-28 13:42:21</time>
      </trkpt>
      <trkpt lat="43.27326" lon="-3.11856">
        <ele>147</ele>
        <time>2021-10-28 13:42:22</time>
      </trkpt>
      <trkpt lat="43.27326" lon="-3.11856">
        <ele>147</ele>
        <time>2021-10-28 13:42:23</time>
      </trkpt>
      <trkpt lat="43.27327" lon="-3.11862">
        <ele>147</ele>
        <time>2021-10-28 13:42:24</time>
      </trkpt>
      <trkpt lat="43.27329" lon="-3.11868">
        <ele>147</ele>
        <time>2021-10-28 13:42:25</time>
      </trkpt>
      <trkpt lat="43.27331" lon="-3.11873">
        <ele>147</ele>
        <time>2021-10-28 13:42:26</time>
      </trkpt>
      <trkpt lat="43.27336" lon="-3.11884">
        <ele>147</ele>
        <time>2021-10-28 13:42:27</time>
      </trkpt>
      <trkpt lat="43.27336" lon="-3.11884">
        <ele>147</ele>
        <time>2021-10-28 13:42:28</time>
      </trkpt>
      <trkpt lat="43.27342" lon="-3.11894">
        <ele>147</ele>
        <time>2021-10-28 13:42:29</time>
      </trkpt>
      <trkpt lat="43.27342" lon="-3.11894">
        <ele>147</ele>
        <time>2021-10-28 13:42:30</time>
      </trkpt>
      <trkpt lat="43.27345" lon="-3.11899">
        <ele>147</ele>
        <time>2021-10-28 13:42:31</time>
      </trkpt>
      <trkpt lat="43.2735" lon="-3.11909">
        <ele>147</ele>
        <time>2021-10-28 13:42:32</time>
      </trkpt>
      <trkpt lat="43.2735" lon="-3.11909">
        <ele>147</ele>
        <time>2021-10-28 13:42:33</time>
      </trkpt>
      <trkpt lat="43.27353" lon="-3.11914">
        <ele>147</ele>
        <time>2021-10-28 13:42:34</time>
      </trkpt>
      <trkpt lat="43.27359" lon="-3.11924">
        <ele>147</ele>
        <time>2021-10-28 13:42:35</time>
      </trkpt>
      <trkpt lat="43.27359" lon="-3.11924">
        <ele>147</ele>
        <time>2021-10-28 13:42:36</time>
      </trkpt>
      <trkpt lat="43.27363" lon="-3.11937">
        <ele>147</ele>
        <time>2021-10-28 13:42:37</time>
      </trkpt>
      <trkpt lat="43.27363" lon="-3.11937">
        <ele>146.8</ele>
        <time>2021-10-28 13:42:38</time>
      </trkpt>
      <trkpt lat="43.27369" lon="-3.11949">
        <ele>146.8</ele>
        <time>2021-10-28 13:42:39</time>
      </trkpt>
      <trkpt lat="43.27369" lon="-3.11949">
        <ele>146.8</ele>
        <time>2021-10-28 13:42:40</time>
      </trkpt>
      <trkpt lat="43.27375" lon="-3.11962">
        <ele>146.8</ele>
        <time>2021-10-28 13:42:41</time>
      </trkpt>
      <trkpt lat="43.27377" lon="-3.11969">
        <ele>146.8</ele>
        <time>2021-10-28 13:42:42</time>
      </trkpt>
      <trkpt lat="43.27377" lon="-3.11969">
        <ele>146.6</ele>
        <time>2021-10-28 13:42:43</time>
      </trkpt>
      <trkpt lat="43.27382" lon="-3.11981">
        <ele>146.6</ele>
        <time>2021-10-28 13:42:44</time>
      </trkpt>
      <trkpt lat="43.27382" lon="-3.11981">
        <ele>146.6</ele>
        <time>2021-10-28 13:42:45</time>
      </trkpt>
      <trkpt lat="43.27384" lon="-3.11988">
        <ele>146.4</ele>
        <time>2021-10-28 13:42:46</time>
      </trkpt>
      <trkpt lat="43.27386" lon="-3.11994">
        <ele>146.4</ele>
        <time>2021-10-28 13:42:47</time>
      </trkpt>
      <trkpt lat="43.27387" lon="-3.12">
        <ele>146.2</ele>
        <time>2021-10-28 13:42:48</time>
      </trkpt>
      <trkpt lat="43.27387" lon="-3.12">
        <ele>146.2</ele>
        <time>2021-10-28 13:42:49</time>
      </trkpt>
      <trkpt lat="43.27388" lon="-3.12019">
        <ele>146.4</ele>
        <time>2021-10-28 13:42:50</time>
      </trkpt>
      <trkpt lat="43.27388" lon="-3.12019">
        <ele>146.4</ele>
        <time>2021-10-28 13:42:51</time>
      </trkpt>
      <trkpt lat="43.27388" lon="-3.12026">
        <ele>146.6</ele>
        <time>2021-10-28 13:42:52</time>
      </trkpt>
      <trkpt lat="43.27387" lon="-3.1204">
        <ele>146.8</ele>
        <time>2021-10-28 13:42:53</time>
      </trkpt>
      <trkpt lat="43.27387" lon="-3.1204">
        <ele>146.8</ele>
        <time>2021-10-28 13:42:54</time>
      </trkpt>
      <trkpt lat="43.27385" lon="-3.12052">
        <ele>146.6</ele>
        <time>2021-10-28 13:42:55</time>
      </trkpt>
      <trkpt lat="43.27385" lon="-3.12052">
        <ele>146.6</ele>
        <time>2021-10-28 13:42:56</time>
      </trkpt>
      <trkpt lat="43.27384" lon="-3.12059">
        <ele>146.4</ele>
        <time>2021-10-28 13:42:57</time>
      </trkpt>
      <trkpt lat="43.27383" lon="-3.1207">
        <ele>146.4</ele>
        <time>2021-10-28 13:42:58</time>
      </trkpt>
      <trkpt lat="43.27383" lon="-3.1207">
        <ele>146.4</ele>
        <time>2021-10-28 13:42:59</time>
      </trkpt>
      <trkpt lat="43.27381" lon="-3.12077">
        <ele>146.4</ele>
        <time>2021-10-28 13:43:00</time>
      </trkpt>
      <trkpt lat="43.27381" lon="-3.12079">
        <ele>145.8</ele>
        <time>2021-10-28 13:43:01</time>
      </trkpt>
      <trkpt lat="43.27381" lon="-3.12079">
        <ele>145.8</ele>
        <time>2021-10-28 13:43:02</time>
      </trkpt>
      <trkpt lat="43.27384" lon="-3.12082">
        <ele>146</ele>
        <time>2021-10-28 13:43:03</time>
      </trkpt>
      <trkpt lat="43.27384" lon="-3.12082">
        <ele>146</ele>
        <time>2021-10-28 13:43:04</time>
      </trkpt>
      <trkpt lat="43.27386" lon="-3.12082">
        <ele>146.6</ele>
        <time>2021-10-28 13:43:05</time>
      </trkpt>
      <trkpt lat="43.27391" lon="-3.1208">
        <ele>146.6</ele>
        <time>2021-10-28 13:43:06</time>
      </trkpt>
      <trkpt lat="43.27394" lon="-3.12079">
        <ele>146.6</ele>
        <time>2021-10-28 13:43:07</time>
      </trkpt>
      <trkpt lat="43.27404" lon="-3.12074">
        <ele>146.6</ele>
        <time>2021-10-28 13:43:08</time>
      </trkpt>
      <trkpt lat="43.27404" lon="-3.12074">
        <ele>146.6</ele>
        <time>2021-10-28 13:43:09</time>
      </trkpt>
      <trkpt lat="43.27412" lon="-3.12071">
        <ele>146.6</ele>
        <time>2021-10-28 13:43:10</time>
      </trkpt>
      <trkpt lat="43.27412" lon="-3.12071">
        <ele>146.6</ele>
        <time>2021-10-28 13:43:11</time>
      </trkpt>
      <trkpt lat="43.27419" lon="-3.12063">
        <ele>146.6</ele>
        <time>2021-10-28 13:43:12</time>
      </trkpt>
      <trkpt lat="43.27419" lon="-3.12063">
        <ele>146.8</ele>
        <time>2021-10-28 13:43:13</time>
      </trkpt>
      <trkpt lat="43.27419" lon="-3.12063">
        <ele>146.8</ele>
        <time>2021-10-28 13:43:14</time>
      </trkpt>
      <trkpt lat="43.27419" lon="-3.12063">
        <ele>146.8</ele>
        <time>2021-10-28 13:43:15</time>
      </trkpt>
      <trkpt lat="43.27419" lon="-3.12063">
        <ele>146.8</ele>
        <time>2021-10-28 13:43:16</time>
      </trkpt>
      <trkpt lat="43.27419" lon="-3.12063">
        <ele>146.6</ele>
        <time>2021-10-28 13:43:17</time>
      </trkpt>
      <trkpt lat="43.27419" lon="-3.12063">
        <ele>146.6</ele>
        <time>2021-10-28 13:43:18</time>
      </trkpt>
      <trkpt lat="43.27419" lon="-3.12063">
        <ele>146.6</ele>
        <time>2021-10-28 13:43:19</time>
      </trkpt>
      <trkpt lat="43.27419" lon="-3.12063">
        <ele>146.6</ele>
        <time>2021-10-28 13:43:20</time>
      </trkpt>
      <trkpt lat="43.27369" lon="-3.12224">
        <ele>146.6</ele>
        <time>2021-10-28 13:43:21</time>
      </trkpt>
      <trkpt lat="43.27368" lon="-3.12231">
        <ele>146.6</ele>
        <time>2021-10-28 13:43:22</time>
      </trkpt>
      <trkpt lat="43.27367" lon="-3.12247">
        <ele>146.4</ele>
        <time>2021-10-28 13:43:23</time>
      </trkpt>
      <trkpt lat="43.27368" lon="-3.12254">
        <ele>146.4</ele>
        <time>2021-10-28 13:43:24</time>
      </trkpt>
      <trkpt lat="43.27368" lon="-3.12254">
        <ele>146.2</ele>
        <time>2021-10-28 13:43:25</time>
      </trkpt>
      <trkpt lat="43.27369" lon="-3.12262">
        <ele>146.2</ele>
        <time>2021-10-28 13:43:26</time>
      </trkpt>
      <trkpt lat="43.27371" lon="-3.12278">
        <ele>146</ele>
        <time>2021-10-28 13:43:27</time>
      </trkpt>
      <trkpt lat="43.27371" lon="-3.12278">
        <ele>146</ele>
        <time>2021-10-28 13:43:28</time>
      </trkpt>
      <trkpt lat="43.27375" lon="-3.12291">
        <ele>146</ele>
        <time>2021-10-28 13:43:29</time>
      </trkpt>
      <trkpt lat="43.27375" lon="-3.12291">
        <ele>146</ele>
        <time>2021-10-28 13:43:30</time>
      </trkpt>
      <trkpt lat="43.27381" lon="-3.12301">
        <ele>146.2</ele>
        <time>2021-10-28 13:43:31</time>
      </trkpt>
      <trkpt lat="43.27381" lon="-3.12301">
        <ele>146.2</ele>
        <time>2021-10-28 13:43:32</time>
      </trkpt>
      <trkpt lat="43.27386" lon="-3.12311">
        <ele>146.2</ele>
        <time>2021-10-28 13:43:33</time>
      </trkpt>
      <trkpt lat="43.27386" lon="-3.12311">
        <ele>146.2</ele>
        <time>2021-10-28 13:43:34</time>
      </trkpt>
      <trkpt lat="43.27392" lon="-3.12322">
        <ele>146.2</ele>
        <time>2021-10-28 13:43:35</time>
      </trkpt>
      <trkpt lat="43.27392" lon="-3.12322">
        <ele>146.2</ele>
        <time>2021-10-28 13:43:36</time>
      </trkpt>
      <trkpt lat="43.27397" lon="-3.12335">
        <ele>146.4</ele>
        <time>2021-10-28 13:43:37</time>
      </trkpt>
      <trkpt lat="43.27397" lon="-3.12335">
        <ele>146.4</ele>
        <time>2021-10-28 13:43:38</time>
      </trkpt>
      <trkpt lat="43.27406" lon="-3.12347">
        <ele>146.4</ele>
        <time>2021-10-28 13:43:39</time>
      </trkpt>
      <trkpt lat="43.27406" lon="-3.12347">
        <ele>146.4</ele>
        <time>2021-10-28 13:43:40</time>
      </trkpt>
      <trkpt lat="43.27414" lon="-3.12359">
        <ele>146.6</ele>
        <time>2021-10-28 13:43:41</time>
      </trkpt>
      <trkpt lat="43.27414" lon="-3.12359">
        <ele>146.6</ele>
        <time>2021-10-28 13:43:42</time>
      </trkpt>
      <trkpt lat="43.27418" lon="-3.12364">
        <ele>146.6</ele>
        <time>2021-10-28 13:43:43</time>
      </trkpt>
      <trkpt lat="43.27426" lon="-3.12371">
        <ele>146.6</ele>
        <time>2021-10-28 13:43:44</time>
      </trkpt>
      <trkpt lat="43.27426" lon="-3.12371">
        <ele>146.8</ele>
        <time>2021-10-28 13:43:45</time>
      </trkpt>
      <trkpt lat="43.27434" lon="-3.1238">
        <ele>146.8</ele>
        <time>2021-10-28 13:43:46</time>
      </trkpt>
      <trkpt lat="43.27434" lon="-3.1238">
        <ele>146.8</ele>
        <time>2021-10-28 13:43:47</time>
      </trkpt>
      <trkpt lat="43.27444" lon="-3.12388">
        <ele>146.8</ele>
        <time>2021-10-28 13:43:48</time>
      </trkpt>
      <trkpt lat="43.27444" lon="-3.12388">
        <ele>146.8</ele>
        <time>2021-10-28 13:43:49</time>
      </trkpt>
      <trkpt lat="43.27449" lon="-3.12392">
        <ele>146.8</ele>
        <time>2021-10-28 13:43:50</time>
      </trkpt>
      <trkpt lat="43.27457" lon="-3.124">
        <ele>146.8</ele>
        <time>2021-10-28 13:43:51</time>
      </trkpt>
      <trkpt lat="43.27457" lon="-3.124">
        <ele>146.8</ele>
        <time>2021-10-28 13:43:52</time>
      </trkpt>
      <trkpt lat="43.27466" lon="-3.12408">
        <ele>146.8</ele>
        <time>2021-10-28 13:43:53</time>
      </trkpt>
      <trkpt lat="43.27466" lon="-3.12408">
        <ele>146.8</ele>
        <time>2021-10-28 13:43:54</time>
      </trkpt>
      <trkpt lat="43.27476" lon="-3.12415">
        <ele>146.8</ele>
        <time>2021-10-28 13:43:55</time>
      </trkpt>
      <trkpt lat="43.27476" lon="-3.12415">
        <ele>146.6</ele>
        <time>2021-10-28 13:43:56</time>
      </trkpt>
      <trkpt lat="43.27481" lon="-3.12418">
        <ele>146.6</ele>
        <time>2021-10-28 13:43:57</time>
      </trkpt>
      <trkpt lat="43.27486" lon="-3.12421">
        <ele>146.6</ele>
        <time>2021-10-28 13:43:58</time>
      </trkpt>
      <trkpt lat="43.27492" lon="-3.12424">
        <ele>146.6</ele>
        <time>2021-10-28 13:43:59</time>
      </trkpt>
      <trkpt lat="43.27501" lon="-3.1243">
        <ele>146.6</ele>
        <time>2021-10-28 13:44:00</time>
      </trkpt>
      <trkpt lat="43.27501" lon="-3.1243">
        <ele>146.6</ele>
        <time>2021-10-28 13:44:01</time>
      </trkpt>
      <trkpt lat="43.27507" lon="-3.12434">
        <ele>146.6</ele>
        <time>2021-10-28 13:44:02</time>
      </trkpt>
      <trkpt lat="43.27512" lon="-3.12437">
        <ele>146.6</ele>
        <time>2021-10-28 13:44:03</time>
      </trkpt>
      <trkpt lat="43.27516" lon="-3.1244">
        <ele>146.6</ele>
        <time>2021-10-28 13:44:04</time>
      </trkpt>
      <trkpt lat="43.27521" lon="-3.12443">
        <ele>146.6</ele>
        <time>2021-10-28 13:44:05</time>
      </trkpt>
      <trkpt lat="43.27526" lon="-3.12447">
        <ele>146.4</ele>
        <time>2021-10-28 13:44:06</time>
      </trkpt>
      <trkpt lat="43.27537" lon="-3.12454">
        <ele>146.4</ele>
        <time>2021-10-28 13:44:07</time>
      </trkpt>
      <trkpt lat="43.27537" lon="-3.12454">
        <ele>146.4</ele>
        <time>2021-10-28 13:44:08</time>
      </trkpt>
      <trkpt lat="43.27542" lon="-3.12458">
        <ele>146.2</ele>
        <time>2021-10-28 13:44:09</time>
      </trkpt>
      <trkpt lat="43.27548" lon="-3.12461">
        <ele>146.2</ele>
        <time>2021-10-28 13:44:10</time>
      </trkpt>
      <trkpt lat="43.27553" lon="-3.12465">
        <ele>146</ele>
        <time>2021-10-28 13:44:11</time>
      </trkpt>
      <trkpt lat="43.27559" lon="-3.12469">
        <ele>146</ele>
        <time>2021-10-28 13:44:12</time>
      </trkpt>
      <trkpt lat="43.27565" lon="-3.12472">
        <ele>146</ele>
        <time>2021-10-28 13:44:13</time>
      </trkpt>
      <trkpt lat="43.2757" lon="-3.12476">
        <ele>146.2</ele>
        <time>2021-10-28 13:44:14</time>
      </trkpt>
      <trkpt lat="43.27581" lon="-3.12482">
        <ele>146.2</ele>
        <time>2021-10-28 13:44:15</time>
      </trkpt>
      <trkpt lat="43.27581" lon="-3.12482">
        <ele>146.4</ele>
        <time>2021-10-28 13:44:16</time>
      </trkpt>
      <trkpt lat="43.27592" lon="-3.12488">
        <ele>146.4</ele>
        <time>2021-10-28 13:44:17</time>
      </trkpt>
      <trkpt lat="43.27592" lon="-3.12488">
        <ele>146.6</ele>
        <time>2021-10-28 13:44:18</time>
      </trkpt>
      <trkpt lat="43.27598" lon="-3.12491">
        <ele>146.6</ele>
        <time>2021-10-28 13:44:19</time>
      </trkpt>
      <trkpt lat="43.27607" lon="-3.12497">
        <ele>146.6</ele>
        <time>2021-10-28 13:44:20</time>
      </trkpt>
      <trkpt lat="43.27607" lon="-3.12497">
        <ele>146.6</ele>
        <time>2021-10-28 13:44:21</time>
      </trkpt>
      <trkpt lat="43.27618" lon="-3.125">
        <ele>146.8</ele>
        <time>2021-10-28 13:44:22</time>
      </trkpt>
      <trkpt lat="43.27618" lon="-3.125">
        <ele>146.8</ele>
        <time>2021-10-28 13:44:23</time>
      </trkpt>
      <trkpt lat="43.27624" lon="-3.12502">
        <ele>146.8</ele>
        <time>2021-10-28 13:44:24</time>
      </trkpt>
      <trkpt lat="43.27624" lon="-3.12502">
        <ele>146.8</ele>
        <time>2021-10-28 13:44:25</time>
      </trkpt>
      <trkpt lat="43.27638" lon="-3.12504">
        <ele>147</ele>
        <time>2021-10-28 13:44:26</time>
      </trkpt>
      <trkpt lat="43.27638" lon="-3.12504">
        <ele>147</ele>
        <time>2021-10-28 13:44:27</time>
      </trkpt>
      <trkpt lat="43.27644" lon="-3.12503">
        <ele>147</ele>
        <time>2021-10-28 13:44:28</time>
      </trkpt>
      <trkpt lat="43.27644" lon="-3.12503">
        <ele>147</ele>
        <time>2021-10-28 13:44:29</time>
      </trkpt>
      <trkpt lat="43.27653" lon="-3.12497">
        <ele>147</ele>
        <time>2021-10-28 13:44:30</time>
      </trkpt>
      <trkpt lat="43.27659" lon="-3.12492">
        <ele>147.2</ele>
        <time>2021-10-28 13:44:31</time>
      </trkpt>
      <trkpt lat="43.27659" lon="-3.12492">
        <ele>147.2</ele>
        <time>2021-10-28 13:44:32</time>
      </trkpt>
      <trkpt lat="43.27676" lon="-3.12481">
        <ele>147.2</ele>
        <time>2021-10-28 13:44:33</time>
      </trkpt>
      <trkpt lat="43.27676" lon="-3.12481">
        <ele>147.2</ele>
        <time>2021-10-28 13:44:34</time>
      </trkpt>
      <trkpt lat="43.27688" lon="-3.12475">
        <ele>147.2</ele>
        <time>2021-10-28 13:44:35</time>
      </trkpt>
      <trkpt lat="43.27688" lon="-3.12475">
        <ele>147.4</ele>
        <time>2021-10-28 13:44:36</time>
      </trkpt>
      <trkpt lat="43.27699" lon="-3.12471">
        <ele>147.4</ele>
        <time>2021-10-28 13:44:37</time>
      </trkpt>
      <trkpt lat="43.27699" lon="-3.12471">
        <ele>147.4</ele>
        <time>2021-10-28 13:44:38</time>
      </trkpt>
      <trkpt lat="43.2771" lon="-3.12469">
        <ele>147.4</ele>
        <time>2021-10-28 13:44:39</time>
      </trkpt>
      <trkpt lat="43.2771" lon="-3.12469">
        <ele>147.6</ele>
        <time>2021-10-28 13:44:40</time>
      </trkpt>
      <trkpt lat="43.27721" lon="-3.12469">
        <ele>147.6</ele>
        <time>2021-10-28 13:44:41</time>
      </trkpt>
      <trkpt lat="43.27721" lon="-3.12469">
        <ele>147.6</ele>
        <time>2021-10-28 13:44:42</time>
      </trkpt>
      <trkpt lat="43.27732" lon="-3.12472">
        <ele>147.4</ele>
        <time>2021-10-28 13:44:43</time>
      </trkpt>
      <trkpt lat="43.27732" lon="-3.12472">
        <ele>147.4</ele>
        <time>2021-10-28 13:44:44</time>
      </trkpt>
      <trkpt lat="43.27737" lon="-3.12473">
        <ele>147.4</ele>
        <time>2021-10-28 13:44:45</time>
      </trkpt>
      <trkpt lat="43.27737" lon="-3.12473">
        <ele>147.4</ele>
        <time>2021-10-28 13:44:46</time>
      </trkpt>
      <trkpt lat="43.27749" lon="-3.12481">
        <ele>147.4</ele>
        <time>2021-10-28 13:44:47</time>
      </trkpt>
      <trkpt lat="43.27755" lon="-3.12486">
        <ele>147.4</ele>
        <time>2021-10-28 13:44:48</time>
      </trkpt>
      <trkpt lat="43.27766" lon="-3.12497">
        <ele>147.4</ele>
        <time>2021-10-28 13:44:49</time>
      </trkpt>
      <trkpt lat="43.27766" lon="-3.12497">
        <ele>147.4</ele>
        <time>2021-10-28 13:44:50</time>
      </trkpt>
      <trkpt lat="43.27771" lon="-3.12501">
        <ele>147.4</ele>
        <time>2021-10-28 13:44:51</time>
      </trkpt>
      <trkpt lat="43.27778" lon="-3.12507">
        <ele>147.2</ele>
        <time>2021-10-28 13:44:52</time>
      </trkpt>
      <trkpt lat="43.27778" lon="-3.12507">
        <ele>147.2</ele>
        <time>2021-10-28 13:44:53</time>
      </trkpt>
      <trkpt lat="43.27783" lon="-3.12519">
        <ele>147.2</ele>
        <time>2021-10-28 13:44:54</time>
      </trkpt>
      <trkpt lat="43.27783" lon="-3.12519">
        <ele>147.2</ele>
        <time>2021-10-28 13:44:55</time>
      </trkpt>
      <trkpt lat="43.27785" lon="-3.12525">
        <ele>147.2</ele>
        <time>2021-10-28 13:44:56</time>
      </trkpt>
      <trkpt lat="43.27788" lon="-3.1253">
        <ele>147.4</ele>
        <time>2021-10-28 13:44:57</time>
      </trkpt>
      <trkpt lat="43.27789" lon="-3.12534">
        <ele>147.4</ele>
        <time>2021-10-28 13:44:58</time>
      </trkpt>
      <trkpt lat="43.27789" lon="-3.12538">
        <ele>147.4</ele>
        <time>2021-10-28 13:44:59</time>
      </trkpt>
      <trkpt lat="43.27789" lon="-3.12538">
        <ele>147.4</ele>
        <time>2021-10-28 13:45:00</time>
      </trkpt>
      <trkpt lat="43.2779" lon="-3.1254">
        <ele>147.4</ele>
        <time>2021-10-28 13:45:01</time>
      </trkpt>
      <trkpt lat="43.2779" lon="-3.1254">
        <ele>147.4</ele>
        <time>2021-10-28 13:45:02</time>
      </trkpt>
      <trkpt lat="43.27792" lon="-3.12545">
        <ele>147.4</ele>
        <time>2021-10-28 13:45:03</time>
      </trkpt>
      <trkpt lat="43.27791" lon="-3.1255">
        <ele>147.4</ele>
        <time>2021-10-28 13:45:04</time>
      </trkpt>
      <trkpt lat="43.27791" lon="-3.1255">
        <ele>147.4</ele>
        <time>2021-10-28 13:45:05</time>
      </trkpt>
      <trkpt lat="43.27791" lon="-3.1255">
        <ele>147.4</ele>
        <time>2021-10-28 13:45:06</time>
      </trkpt>
      <trkpt lat="43.27791" lon="-3.1255">
        <ele>147.4</ele>
        <time>2021-10-28 13:45:07</time>
      </trkpt>
      <trkpt lat="43.27791" lon="-3.1255">
        <ele>147.4</ele>
        <time>2021-10-28 13:45:08</time>
      </trkpt>
      <trkpt lat="43.27791" lon="-3.1255">
        <ele>147.6</ele>
        <time>2021-10-28 13:45:09</time>
      </trkpt>
      <trkpt lat="43.27791" lon="-3.1255">
        <ele>147.6</ele>
        <time>2021-10-28 13:45:10</time>
      </trkpt>
      <trkpt lat="43.27791" lon="-3.1255">
        <ele>147.6</ele>
        <time>2021-10-28 13:45:11</time>
      </trkpt>
      <trkpt lat="43.27791" lon="-3.1255">
        <ele>147.6</ele>
        <time>2021-10-28 13:45:12</time>
      </trkpt>
      <trkpt lat="43.27791" lon="-3.1255">
        <ele>147.6</ele>
        <time>2021-10-28 13:45:13</time>
      </trkpt>
      <trkpt lat="43.27791" lon="-3.1255">
        <ele>147.6</ele>
        <time>2021-10-28 13:45:14</time>
      </trkpt>
      <trkpt lat="43.27791" lon="-3.1255">
        <ele>147.6</ele>
        <time>2021-10-28 13:45:15</time>
      </trkpt>
      <trkpt lat="43.27791" lon="-3.1255">
        <ele>147.6</ele>
        <time>2021-10-28 13:45:16</time>
      </trkpt>
      <trkpt lat="43.27791" lon="-3.1255">
        <ele>147.6</ele>
        <time>2021-10-28 13:45:17</time>
      </trkpt>
      <trkpt lat="43.27791" lon="-3.1255">
        <ele>147.6</ele>
        <time>2021-10-28 13:45:18</time>
      </trkpt>
      <trkpt lat="43.27791" lon="-3.1255">
        <ele>147.6</ele>
        <time>2021-10-28 13:45:19</time>
      </trkpt>
      <trkpt lat="43.27791" lon="-3.1255">
        <ele>147.8</ele>
        <time>2021-10-28 13:45:20</time>
      </trkpt>
      <trkpt lat="43.27791" lon="-3.1255">
        <ele>147.8</ele>
        <time>2021-10-28 13:45:21</time>
      </trkpt>
      <trkpt lat="43.27791" lon="-3.1255">
        <ele>147.8</ele>
        <time>2021-10-28 13:45:22</time>
      </trkpt>
      <trkpt lat="43.27791" lon="-3.1255">
        <ele>147.8</ele>
        <time>2021-10-28 13:45:23</time>
      </trkpt>
      <trkpt lat="43.27791" lon="-3.1255">
        <ele>147.8</ele>
        <time>2021-10-28 13:45:24</time>
      </trkpt>
      <trkpt lat="43.27791" lon="-3.1255">
        <ele>147.8</ele>
        <time>2021-10-28 13:45:25</time>
      </trkpt>
      <trkpt lat="43.27791" lon="-3.1255">
        <ele>147.8</ele>
        <time>2021-10-28 13:45:26</time>
      </trkpt>
      <trkpt lat="43.27791" lon="-3.1255">
        <ele>147.6</ele>
        <time>2021-10-28 13:45:27</time>
      </trkpt>
      <trkpt lat="43.27791" lon="-3.1255">
        <ele>147.6</ele>
        <time>2021-10-28 13:45:28</time>
      </trkpt>
      <trkpt lat="43.27791" lon="-3.1255">
        <ele>147.4</ele>
        <time>2021-10-28 13:45:29</time>
      </trkpt>
      <trkpt lat="43.27798" lon="-3.12813">
        <ele>147.4</ele>
        <time>2021-10-28 13:45:30</time>
      </trkpt>
      <trkpt lat="43.278" lon="-3.12821">
        <ele>147.2</ele>
        <time>2021-10-28 13:45:31</time>
      </trkpt>
      <trkpt lat="43.27802" lon="-3.12826">
        <ele>147.2</ele>
        <time>2021-10-28 13:45:32</time>
      </trkpt>
      <trkpt lat="43.27804" lon="-3.12834">
        <ele>147.2</ele>
        <time>2021-10-28 13:45:33</time>
      </trkpt>
      <trkpt lat="43.27811" lon="-3.12844">
        <ele>147.2</ele>
        <time>2021-10-28 13:45:34</time>
      </trkpt>
      <trkpt lat="43.27811" lon="-3.12844">
        <ele>147.2</ele>
        <time>2021-10-28 13:45:35</time>
      </trkpt>
      <trkpt lat="43.27813" lon="-3.12851">
        <ele>147.2</ele>
        <time>2021-10-28 13:45:36</time>
      </trkpt>
      <trkpt lat="43.27816" lon="-3.12857">
        <ele>147.2</ele>
        <time>2021-10-28 13:45:37</time>
      </trkpt>
      <trkpt lat="43.2782" lon="-3.12871">
        <ele>147.2</ele>
        <time>2021-10-28 13:45:38</time>
      </trkpt>
      <trkpt lat="43.2782" lon="-3.12871">
        <ele>147.2</ele>
        <time>2021-10-28 13:45:39</time>
      </trkpt>
      <trkpt lat="43.27821" lon="-3.12878">
        <ele>147.2</ele>
        <time>2021-10-28 13:45:40</time>
      </trkpt>
      <trkpt lat="43.27822" lon="-3.12885">
        <ele>147.4</ele>
        <time>2021-10-28 13:45:41</time>
      </trkpt>
      <trkpt lat="43.27823" lon="-3.12901">
        <ele>147.4</ele>
        <time>2021-10-28 13:45:42</time>
      </trkpt>
      <trkpt lat="43.27823" lon="-3.12901">
        <ele>147.4</ele>
        <time>2021-10-28 13:45:43</time>
      </trkpt>
      <trkpt lat="43.27823" lon="-3.12909">
        <ele>147.4</ele>
        <time>2021-10-28 13:45:44</time>
      </trkpt>
      <trkpt lat="43.27823" lon="-3.12917">
        <ele>147.4</ele>
        <time>2021-10-28 13:45:45</time>
      </trkpt>
      <trkpt lat="43.27822" lon="-3.12925">
        <ele>147.2</ele>
        <time>2021-10-28 13:45:46</time>
      </trkpt>
      <trkpt lat="43.27821" lon="-3.12934">
        <ele>147.2</ele>
        <time>2021-10-28 13:45:47</time>
      </trkpt>
      <trkpt lat="43.27819" lon="-3.12942">
        <ele>147.4</ele>
        <time>2021-10-28 13:45:48</time>
      </trkpt>
      <trkpt lat="43.27815" lon="-3.12957">
        <ele>147.4</ele>
        <time>2021-10-28 13:45:49</time>
      </trkpt>
      <trkpt lat="43.27815" lon="-3.12957">
        <ele>147.6</ele>
        <time>2021-10-28 13:45:50</time>
      </trkpt>
      <trkpt lat="43.27812" lon="-3.12964">
        <ele>147.6</ele>
        <time>2021-10-28 13:45:51</time>
      </trkpt>
      <trkpt lat="43.2781" lon="-3.12971">
        <ele>147.4</ele>
        <time>2021-10-28 13:45:52</time>
      </trkpt>
      <trkpt lat="43.27807" lon="-3.12979">
        <ele>147.4</ele>
        <time>2021-10-28 13:45:53</time>
      </trkpt>
      <trkpt lat="43.27805" lon="-3.12985">
        <ele>147.4</ele>
        <time>2021-10-28 13:45:54</time>
      </trkpt>
      <trkpt lat="43.27802" lon="-3.12991">
        <ele>147.4</ele>
        <time>2021-10-28 13:45:55</time>
      </trkpt>
      <trkpt lat="43.27798" lon="-3.13004">
        <ele>147.6</ele>
        <time>2021-10-28 13:45:56</time>
      </trkpt>
      <trkpt lat="43.27798" lon="-3.13004">
        <ele>147.6</ele>
        <time>2021-10-28 13:45:57</time>
      </trkpt>
      <trkpt lat="43.27795" lon="-3.13019">
        <ele>147.6</ele>
        <time>2021-10-28 13:45:58</time>
      </trkpt>
      <trkpt lat="43.27795" lon="-3.13019">
        <ele>147.6</ele>
        <time>2021-10-28 13:45:59</time>
      </trkpt>
      <trkpt lat="43.27795" lon="-3.13027">
        <ele>147.6</ele>
        <time>2021-10-28 13:46:00</time>
      </trkpt>
      <trkpt lat="43.27795" lon="-3.13035">
        <ele>147.6</ele>
        <time>2021-10-28 13:46:01</time>
      </trkpt>
      <trkpt lat="43.27795" lon="-3.13043">
        <ele>147.6</ele>
        <time>2021-10-28 13:46:02</time>
      </trkpt>
      <trkpt lat="43.27796" lon="-3.13051">
        <ele>147.6</ele>
        <time>2021-10-28 13:46:03</time>
      </trkpt>
      <trkpt lat="43.27798" lon="-3.13058">
        <ele>147.6</ele>
        <time>2021-10-28 13:46:04</time>
      </trkpt>
      <trkpt lat="43.278" lon="-3.13074">
        <ele>147.6</ele>
        <time>2021-10-28 13:46:05</time>
      </trkpt>
      <trkpt lat="43.278" lon="-3.13074">
        <ele>147.6</ele>
        <time>2021-10-28 13:46:06</time>
      </trkpt>
      <trkpt lat="43.27802" lon="-3.13081">
        <ele>147.6</ele>
        <time>2021-10-28 13:46:07</time>
      </trkpt>
      <trkpt lat="43.27802" lon="-3.13081">
        <ele>147.6</ele>
        <time>2021-10-28 13:46:08</time>
      </trkpt>
      <trkpt lat="43.27807" lon="-3.13096">
        <ele>147.8</ele>
        <time>2021-10-28 13:46:09</time>
      </trkpt>
      <trkpt lat="43.2781" lon="-3.13103">
        <ele>147.8</ele>
        <time>2021-10-28 13:46:10</time>
      </trkpt>
      <trkpt lat="43.27814" lon="-3.13109">
        <ele>147.8</ele>
        <time>2021-10-28 13:46:11</time>
      </trkpt>
      <trkpt lat="43.27822" lon="-3.13122">
        <ele>147.8</ele>
        <time>2021-10-28 13:46:12</time>
      </trkpt>
      <trkpt lat="43.27822" lon="-3.13122">
        <ele>147.8</ele>
        <time>2021-10-28 13:46:13</time>
      </trkpt>
      <trkpt lat="43.2783" lon="-3.13134">
        <ele>147.8</ele>
        <time>2021-10-28 13:46:14</time>
      </trkpt>
      <trkpt lat="43.2783" lon="-3.13134">
        <ele>147.8</ele>
        <time>2021-10-28 13:46:15</time>
      </trkpt>
      <trkpt lat="43.27834" lon="-3.1314">
        <ele>147.8</ele>
        <time>2021-10-28 13:46:16</time>
      </trkpt>
      <trkpt lat="43.27842" lon="-3.13151">
        <ele>147.8</ele>
        <time>2021-10-28 13:46:17</time>
      </trkpt>
      <trkpt lat="43.27842" lon="-3.13151">
        <ele>147.8</ele>
        <time>2021-10-28 13:46:18</time>
      </trkpt>
      <trkpt lat="43.27846" lon="-3.13156">
        <ele>147.8</ele>
        <time>2021-10-28 13:46:19</time>
      </trkpt>
      <trkpt lat="43.2785" lon="-3.13162">
        <ele>147.6</ele>
        <time>2021-10-28 13:46:20</time>
      </trkpt>
      <trkpt lat="43.27855" lon="-3.13167">
        <ele>147.6</ele>
        <time>2021-10-28 13:46:21</time>
      </trkpt>
      <trkpt lat="43.27863" lon="-3.13178">
        <ele>147.6</ele>
        <time>2021-10-28 13:46:22</time>
      </trkpt>
      <trkpt lat="43.27863" lon="-3.13178">
        <ele>147.6</ele>
        <time>2021-10-28 13:46:23</time>
      </trkpt>
      <trkpt lat="43.27867" lon="-3.13184">
        <ele>147.6</ele>
        <time>2021-10-28 13:46:24</time>
      </trkpt>
      <trkpt lat="43.2787" lon="-3.1319">
        <ele>147.6</ele>
        <time>2021-10-28 13:46:25</time>
      </trkpt>
      <trkpt lat="43.27874" lon="-3.13196">
        <ele>147.8</ele>
        <time>2021-10-28 13:46:26</time>
      </trkpt>
      <trkpt lat="43.27878" lon="-3.13202">
        <ele>147.8</ele>
        <time>2021-10-28 13:46:27</time>
      </trkpt>
      <trkpt lat="43.27882" lon="-3.13208">
        <ele>147.8</ele>
        <time>2021-10-28 13:46:28</time>
      </trkpt>
      <trkpt lat="43.27886" lon="-3.13214">
        <ele>148</ele>
        <time>2021-10-28 13:46:29</time>
      </trkpt>
      <trkpt lat="43.27894" lon="-3.13226">
        <ele>148</ele>
        <time>2021-10-28 13:46:30</time>
      </trkpt>
      <trkpt lat="43.27894" lon="-3.13226">
        <ele>148</ele>
        <time>2021-10-28 13:46:31</time>
      </trkpt>
      <trkpt lat="43.27899" lon="-3.13232">
        <ele>148</ele>
        <time>2021-10-28 13:46:32</time>
      </trkpt>
      <trkpt lat="43.27904" lon="-3.13237">
        <ele>148</ele>
        <time>2021-10-28 13:46:33</time>
      </trkpt>
      <trkpt lat="43.27909" lon="-3.13242">
        <ele>148</ele>
        <time>2021-10-28 13:46:34</time>
      </trkpt>
      <trkpt lat="43.27914" lon="-3.13246">
        <ele>148</ele>
        <time>2021-10-28 13:46:35</time>
      </trkpt>
      <trkpt lat="43.2792" lon="-3.1325">
        <ele>147.8</ele>
        <time>2021-10-28 13:46:36</time>
      </trkpt>
      <trkpt lat="43.27925" lon="-3.13253">
        <ele>147.8</ele>
        <time>2021-10-28 13:46:37</time>
      </trkpt>
      <trkpt lat="43.27931" lon="-3.13256">
        <ele>147.8</ele>
        <time>2021-10-28 13:46:38</time>
      </trkpt>
      <trkpt lat="43.27937" lon="-3.13258">
        <ele>147.8</ele>
        <time>2021-10-28 13:46:39</time>
      </trkpt>
      <trkpt lat="43.27944" lon="-3.13259">
        <ele>148</ele>
        <time>2021-10-28 13:46:40</time>
      </trkpt>
      <trkpt lat="43.2795" lon="-3.1326">
        <ele>147.8</ele>
        <time>2021-10-28 13:46:41</time>
      </trkpt>
      <trkpt lat="43.27956" lon="-3.1326">
        <ele>147.8</ele>
        <time>2021-10-28 13:46:42</time>
      </trkpt>
      <trkpt lat="43.27963" lon="-3.13259">
        <ele>147.8</ele>
        <time>2021-10-28 13:46:43</time>
      </trkpt>
      <trkpt lat="43.27969" lon="-3.13257">
        <ele>147.8</ele>
        <time>2021-10-28 13:46:44</time>
      </trkpt>
      <trkpt lat="43.27975" lon="-3.13254">
        <ele>147.8</ele>
        <time>2021-10-28 13:46:45</time>
      </trkpt>
      <trkpt lat="43.27981" lon="-3.13252">
        <ele>147.8</ele>
        <time>2021-10-28 13:46:46</time>
      </trkpt>
      <trkpt lat="43.27986" lon="-3.1325">
        <ele>147.8</ele>
        <time>2021-10-28 13:46:47</time>
      </trkpt>
      <trkpt lat="43.27992" lon="-3.13247">
        <ele>147.8</ele>
        <time>2021-10-28 13:46:48</time>
      </trkpt>
      <trkpt lat="43.27998" lon="-3.13244">
        <ele>148</ele>
        <time>2021-10-28 13:46:49</time>
      </trkpt>
      <trkpt lat="43.28009" lon="-3.13238">
        <ele>148</ele>
        <time>2021-10-28 13:46:50</time>
      </trkpt>
      <trkpt lat="43.28009" lon="-3.13238">
        <ele>148</ele>
        <time>2021-10-28 13:46:51</time>
      </trkpt>
      <trkpt lat="43.28014" lon="-3.13235">
        <ele>148</ele>
        <time>2021-10-28 13:46:52</time>
      </trkpt>
      <trkpt lat="43.2802" lon="-3.13231">
        <ele>148.2</ele>
        <time>2021-10-28 13:46:53</time>
      </trkpt>
      <trkpt lat="43.28025" lon="-3.13227">
        <ele>148.2</ele>
        <time>2021-10-28 13:46:54</time>
      </trkpt>
      <trkpt lat="43.28031" lon="-3.13224">
        <ele>148.2</ele>
        <time>2021-10-28 13:46:55</time>
      </trkpt>
      <trkpt lat="43.28036" lon="-3.1322">
        <ele>148.2</ele>
        <time>2021-10-28 13:46:56</time>
      </trkpt>
      <trkpt lat="43.28046" lon="-3.13214">
        <ele>148.2</ele>
        <time>2021-10-28 13:46:57</time>
      </trkpt>
      <trkpt lat="43.28046" lon="-3.13214">
        <ele>148.2</ele>
        <time>2021-10-28 13:46:58</time>
      </trkpt>
      <trkpt lat="43.28057" lon="-3.13209">
        <ele>148.4</ele>
        <time>2021-10-28 13:46:59</time>
      </trkpt>
      <trkpt lat="43.28057" lon="-3.13209">
        <ele>148.4</ele>
        <time>2021-10-28 13:47:00</time>
      </trkpt>
      <trkpt lat="43.28063" lon="-3.13206">
        <ele>148.4</ele>
        <time>2021-10-28 13:47:01</time>
      </trkpt>
      <trkpt lat="43.28074" lon="-3.13204">
        <ele>148.4</ele>
        <time>2021-10-28 13:47:02</time>
      </trkpt>
      <trkpt lat="43.28074" lon="-3.13204">
        <ele>148.6</ele>
        <time>2021-10-28 13:47:03</time>
      </trkpt>
      <trkpt lat="43.2808" lon="-3.13203">
        <ele>148.6</ele>
        <time>2021-10-28 13:47:04</time>
      </trkpt>
      <trkpt lat="43.28085" lon="-3.13202">
        <ele>148.6</ele>
        <time>2021-10-28 13:47:05</time>
      </trkpt>
      <trkpt lat="43.28096" lon="-3.13205">
        <ele>148.6</ele>
        <time>2021-10-28 13:47:06</time>
      </trkpt>
      <trkpt lat="43.28096" lon="-3.13205">
        <ele>148.6</ele>
        <time>2021-10-28 13:47:07</time>
      </trkpt>
      <trkpt lat="43.28101" lon="-3.13206">
        <ele>148.6</ele>
        <time>2021-10-28 13:47:08</time>
      </trkpt>
      <trkpt lat="43.28107" lon="-3.13208">
        <ele>148.6</ele>
        <time>2021-10-28 13:47:09</time>
      </trkpt>
      <trkpt lat="43.28113" lon="-3.1321">
        <ele>148.6</ele>
        <time>2021-10-28 13:47:10</time>
      </trkpt>
      <trkpt lat="43.28113" lon="-3.1321">
        <ele>148.6</ele>
        <time>2021-10-28 13:47:11</time>
      </trkpt>
      <trkpt lat="43.28126" lon="-3.13214">
        <ele>148.4</ele>
        <time>2021-10-28 13:47:12</time>
      </trkpt>
      <trkpt lat="43.28132" lon="-3.13215">
        <ele>148.4</ele>
        <time>2021-10-28 13:47:13</time>
      </trkpt>
      <trkpt lat="43.28138" lon="-3.13217">
        <ele>148.4</ele>
        <time>2021-10-28 13:47:14</time>
      </trkpt>
      <trkpt lat="43.28144" lon="-3.13218">
        <ele>148.4</ele>
        <time>2021-10-28 13:47:15</time>
      </trkpt>
      <trkpt lat="43.28151" lon="-3.13219">
        <ele>148.2</ele>
        <time>2021-10-28 13:47:16</time>
      </trkpt>
      <trkpt lat="43.28157" lon="-3.1322">
        <ele>148.2</ele>
        <time>2021-10-28 13:47:17</time>
      </trkpt>
      <trkpt lat="43.28164" lon="-3.1322">
        <ele>148.4</ele>
        <time>2021-10-28 13:47:18</time>
      </trkpt>
      <trkpt lat="43.2817" lon="-3.1322">
        <ele>148.4</ele>
        <time>2021-10-28 13:47:19</time>
      </trkpt>
      <trkpt lat="43.28176" lon="-3.13221">
        <ele>148.4</ele>
        <time>2021-10-28 13:47:20</time>
      </trkpt>
      <trkpt lat="43.28182" lon="-3.1322">
        <ele>148.4</ele>
        <time>2021-10-28 13:47:21</time>
      </trkpt>
      <trkpt lat="43.28188" lon="-3.13219">
        <ele>148.4</ele>
        <time>2021-10-28 13:47:22</time>
      </trkpt>
      <trkpt lat="43.28194" lon="-3.13218">
        <ele>148.4</ele>
        <time>2021-10-28 13:47:23</time>
      </trkpt>
      <trkpt lat="43.282" lon="-3.13217">
        <ele>148.4</ele>
        <time>2021-10-28 13:47:24</time>
      </trkpt>
      <trkpt lat="43.28205" lon="-3.13215">
        <ele>148.4</ele>
        <time>2021-10-28 13:47:25</time>
      </trkpt>
      <trkpt lat="43.2821" lon="-3.13213">
        <ele>148.4</ele>
        <time>2021-10-28 13:47:26</time>
      </trkpt>
      <trkpt lat="43.28215" lon="-3.13211">
        <ele>148.4</ele>
        <time>2021-10-28 13:47:27</time>
      </trkpt>
      <trkpt lat="43.2822" lon="-3.13208">
        <ele>148.4</ele>
        <time>2021-10-28 13:47:28</time>
      </trkpt>
      <trkpt lat="43.28226" lon="-3.13205">
        <ele>148.4</ele>
        <time>2021-10-28 13:47:29</time>
      </trkpt>
      <trkpt lat="43.28237" lon="-3.13198">
        <ele>148.4</ele>
        <time>2021-10-28 13:47:30</time>
      </trkpt>
      <trkpt lat="43.28237" lon="-3.13198">
        <ele>148.6</ele>
        <time>2021-10-28 13:47:31</time>
      </trkpt>
      <trkpt lat="43.28243" lon="-3.13195">
        <ele>148.8</ele>
        <time>2021-10-28 13:47:32</time>
      </trkpt>
      <trkpt lat="43.28248" lon="-3.13191">
        <ele>148.8</ele>
        <time>2021-10-28 13:47:33</time>
      </trkpt>
      <trkpt lat="43.28254" lon="-3.13187">
        <ele>148.8</ele>
        <time>2021-10-28 13:47:34</time>
      </trkpt>
      <trkpt lat="43.28259" lon="-3.13184">
        <ele>148.8</ele>
        <time>2021-10-28 13:47:35</time>
      </trkpt>
      <trkpt lat="43.28263" lon="-3.1318">
        <ele>148.6</ele>
        <time>2021-10-28 13:47:36</time>
      </trkpt>
      <trkpt lat="43.28268" lon="-3.13177">
        <ele>148.6</ele>
        <time>2021-10-28 13:47:37</time>
      </trkpt>
      <trkpt lat="43.28273" lon="-3.13173">
        <ele>148.4</ele>
        <time>2021-10-28 13:47:38</time>
      </trkpt>
      <trkpt lat="43.28279" lon="-3.13169">
        <ele>148.4</ele>
        <time>2021-10-28 13:47:39</time>
      </trkpt>
      <trkpt lat="43.28284" lon="-3.13165">
        <ele>148.4</ele>
        <time>2021-10-28 13:47:40</time>
      </trkpt>
      <trkpt lat="43.2829" lon="-3.13161">
        <ele>148.2</ele>
        <time>2021-10-28 13:47:41</time>
      </trkpt>
      <trkpt lat="43.28301" lon="-3.13153">
        <ele>148.2</ele>
        <time>2021-10-28 13:47:42</time>
      </trkpt>
      <trkpt lat="43.28301" lon="-3.13153">
        <ele>148.2</ele>
        <time>2021-10-28 13:47:43</time>
      </trkpt>
      <trkpt lat="43.28306" lon="-3.13149">
        <ele>148.2</ele>
        <time>2021-10-28 13:47:44</time>
      </trkpt>
      <trkpt lat="43.28315" lon="-3.1314">
        <ele>148.2</ele>
        <time>2021-10-28 13:47:45</time>
      </trkpt>
      <trkpt lat="43.28315" lon="-3.1314">
        <ele>148</ele>
        <time>2021-10-28 13:47:46</time>
      </trkpt>
      <trkpt lat="43.28325" lon="-3.13131">
        <ele>148</ele>
        <time>2021-10-28 13:47:47</time>
      </trkpt>
      <trkpt lat="43.28325" lon="-3.13131">
        <ele>148</ele>
        <time>2021-10-28 13:47:48</time>
      </trkpt>
      <trkpt lat="43.28331" lon="-3.13127">
        <ele>148</ele>
        <time>2021-10-28 13:47:49</time>
      </trkpt>
      <trkpt lat="43.28336" lon="-3.13123">
        <ele>148</ele>
        <time>2021-10-28 13:47:50</time>
      </trkpt>
      <trkpt lat="43.28341" lon="-3.13119">
        <ele>148.2</ele>
        <time>2021-10-28 13:47:51</time>
      </trkpt>
      <trkpt lat="43.28346" lon="-3.13115">
        <ele>148.2</ele>
        <time>2021-10-28 13:47:52</time>
      </trkpt>
      <trkpt lat="43.28357" lon="-3.13106">
        <ele>148</ele>
        <time>2021-10-28 13:47:53</time>
      </trkpt>
      <trkpt lat="43.28357" lon="-3.13106">
        <ele>148</ele>
        <time>2021-10-28 13:47:54</time>
      </trkpt>
      <trkpt lat="43.28362" lon="-3.13101">
        <ele>148</ele>
        <time>2021-10-28 13:47:55</time>
      </trkpt>
      <trkpt lat="43.28368" lon="-3.13097">
        <ele>148</ele>
        <time>2021-10-28 13:47:56</time>
      </trkpt>
      <trkpt lat="43.28373" lon="-3.13093">
        <ele>148</ele>
        <time>2021-10-28 13:47:57</time>
      </trkpt>
      <trkpt lat="43.28379" lon="-3.13088">
        <ele>148</ele>
        <time>2021-10-28 13:47:58</time>
      </trkpt>
      <trkpt lat="43.28384" lon="-3.13084">
        <ele>148</ele>
        <time>2021-10-28 13:47:59</time>
      </trkpt>
      <trkpt lat="43.28395" lon="-3.13077">
        <ele>148.2</ele>
        <time>2021-10-28 13:48:00</time>
      </trkpt>
      <trkpt lat="43.28395" lon="-3.13077">
        <ele>148.2</ele>
        <time>2021-10-28 13:48:01</time>
      </trkpt>
      <trkpt lat="43.28406" lon="-3.1307">
        <ele>148.2</ele>
        <time>2021-10-28 13:48:02</time>
      </trkpt>
      <trkpt lat="43.28406" lon="-3.1307">
        <ele>148.2</ele>
        <time>2021-10-28 13:48:03</time>
      </trkpt>
      <trkpt lat="43.2841" lon="-3.13066">
        <ele>148.4</ele>
        <time>2021-10-28 13:48:04</time>
      </trkpt>
      <trkpt lat="43.28421" lon="-3.13058">
        <ele>148.4</ele>
        <time>2021-10-28 13:48:05</time>
      </trkpt>
      <trkpt lat="43.28421" lon="-3.13058">
        <ele>148.4</ele>
        <time>2021-10-28 13:48:06</time>
      </trkpt>
      <trkpt lat="43.28426" lon="-3.13054">
        <ele>148.4</ele>
        <time>2021-10-28 13:48:07</time>
      </trkpt>
      <trkpt lat="43.2843" lon="-3.1305">
        <ele>148.6</ele>
        <time>2021-10-28 13:48:08</time>
      </trkpt>
      <trkpt lat="43.28434" lon="-3.13045">
        <ele>148.6</ele>
        <time>2021-10-28 13:48:09</time>
      </trkpt>
      <trkpt lat="43.28439" lon="-3.1304">
        <ele>148.6</ele>
        <time>2021-10-28 13:48:10</time>
      </trkpt>
      <trkpt lat="43.28444" lon="-3.13036">
        <ele>148.8</ele>
        <time>2021-10-28 13:48:11</time>
      </trkpt>
      <trkpt lat="43.28449" lon="-3.13031">
        <ele>148.8</ele>
        <time>2021-10-28 13:48:12</time>
      </trkpt>
      <trkpt lat="43.28453" lon="-3.13025">
        <ele>149</ele>
        <time>2021-10-28 13:48:13</time>
      </trkpt>
      <trkpt lat="43.28454" lon="-3.1302">
        <ele>149</ele>
        <time>2021-10-28 13:48:14</time>
      </trkpt>
      <trkpt lat="43.28458" lon="-3.13016">
        <ele>149</ele>
        <time>2021-10-28 13:48:15</time>
      </trkpt>
      <trkpt lat="43.28461" lon="-3.1301">
        <ele>149</ele>
        <time>2021-10-28 13:48:16</time>
      </trkpt>
      <trkpt lat="43.28463" lon="-3.13003">
        <ele>149</ele>
        <time>2021-10-28 13:48:17</time>
      </trkpt>
      <trkpt lat="43.28464" lon="-3.12997">
        <ele>149</ele>
        <time>2021-10-28 13:48:18</time>
      </trkpt>
      <trkpt lat="43.28464" lon="-3.12991">
        <ele>149.2</ele>
        <time>2021-10-28 13:48:19</time>
      </trkpt>
      <trkpt lat="43.28465" lon="-3.12983">
        <ele>149.2</ele>
        <time>2021-10-28 13:48:20</time>
      </trkpt>
      <trkpt lat="43.28467" lon="-3.12976">
        <ele>149.2</ele>
        <time>2021-10-28 13:48:21</time>
      </trkpt>
      <trkpt lat="43.28468" lon="-3.12971">
        <ele>149.4</ele>
        <time>2021-10-28 13:48:22</time>
      </trkpt>
      <trkpt lat="43.2847" lon="-3.12965">
        <ele>149.4</ele>
        <time>2021-10-28 13:48:23</time>
      </trkpt>
      <trkpt lat="43.28473" lon="-3.12959">
        <ele>149.4</ele>
        <time>2021-10-28 13:48:24</time>
      </trkpt>
      <trkpt lat="43.28476" lon="-3.12953">
        <ele>149.4</ele>
        <time>2021-10-28 13:48:25</time>
      </trkpt>
      <trkpt lat="43.28478" lon="-3.12943">
        <ele>149.6</ele>
        <time>2021-10-28 13:48:26</time>
      </trkpt>
      <trkpt lat="43.2848" lon="-3.12935">
        <ele>149.6</ele>
        <time>2021-10-28 13:48:27</time>
      </trkpt>
      <trkpt lat="43.2848" lon="-3.12926">
        <ele>149.6</ele>
        <time>2021-10-28 13:48:28</time>
      </trkpt>
      <trkpt lat="43.28481" lon="-3.12917">
        <ele>149.8</ele>
        <time>2021-10-28 13:48:29</time>
      </trkpt>
      <trkpt lat="43.28482" lon="-3.12907">
        <ele>149.8</ele>
        <time>2021-10-28 13:48:30</time>
      </trkpt>
      <trkpt lat="43.28484" lon="-3.12899">
        <ele>149.8</ele>
        <time>2021-10-28 13:48:31</time>
      </trkpt>
      <trkpt lat="43.28486" lon="-3.12892">
        <ele>149.6</ele>
        <time>2021-10-28 13:48:32</time>
      </trkpt>
      <trkpt lat="43.2849" lon="-3.12885">
        <ele>149.6</ele>
        <time>2021-10-28 13:48:33</time>
      </trkpt>
      <trkpt lat="43.28493" lon="-3.12877">
        <ele>149.6</ele>
        <time>2021-10-28 13:48:34</time>
      </trkpt>
      <trkpt lat="43.28496" lon="-3.1287">
        <ele>149.6</ele>
        <time>2021-10-28 13:48:35</time>
      </trkpt>
      <trkpt lat="43.28499" lon="-3.12863">
        <ele>149.6</ele>
        <time>2021-10-28 13:48:36</time>
      </trkpt>
      <trkpt lat="43.28507" lon="-3.12851">
        <ele>149.6</ele>
        <time>2021-10-28 13:48:37</time>
      </trkpt>
      <trkpt lat="43.28507" lon="-3.12851">
        <ele>149.6</ele>
        <time>2021-10-28 13:48:38</time>
      </trkpt>
      <trkpt lat="43.28517" lon="-3.12837">
        <ele>149.6</ele>
        <time>2021-10-28 13:48:39</time>
      </trkpt>
      <trkpt lat="43.28517" lon="-3.12837">
        <ele>149.6</ele>
        <time>2021-10-28 13:48:40</time>
      </trkpt>
      <trkpt lat="43.28522" lon="-3.12831">
        <ele>149.8</ele>
        <time>2021-10-28 13:48:41</time>
      </trkpt>
      <trkpt lat="43.28535" lon="-3.1282">
        <ele>149.8</ele>
        <time>2021-10-28 13:48:42</time>
      </trkpt>
      <trkpt lat="43.28535" lon="-3.1282">
        <ele>149.8</ele>
        <time>2021-10-28 13:48:43</time>
      </trkpt>
      <trkpt lat="43.28541" lon="-3.12816">
        <ele>149.8</ele>
        <time>2021-10-28 13:48:44</time>
      </trkpt>
      <trkpt lat="43.28547" lon="-3.12813">
        <ele>149.8</ele>
        <time>2021-10-28 13:48:45</time>
      </trkpt>
      <trkpt lat="43.28559" lon="-3.12808">
        <ele>149.8</ele>
        <time>2021-10-28 13:48:46</time>
      </trkpt>
      <trkpt lat="43.28559" lon="-3.12808">
        <ele>149.6</ele>
        <time>2021-10-28 13:48:47</time>
      </trkpt>
      <trkpt lat="43.28571" lon="-3.12805">
        <ele>149.6</ele>
        <time>2021-10-28 13:48:48</time>
      </trkpt>
      <trkpt lat="43.28571" lon="-3.12805">
        <ele>149.6</ele>
        <time>2021-10-28 13:48:49</time>
      </trkpt>
      <trkpt lat="43.28577" lon="-3.12804">
        <ele>149.6</ele>
        <time>2021-10-28 13:48:50</time>
      </trkpt>
      <trkpt lat="43.28583" lon="-3.12802">
        <ele>149.6</ele>
        <time>2021-10-28 13:48:51</time>
      </trkpt>
      <trkpt lat="43.28588" lon="-3.12801">
        <ele>149.6</ele>
        <time>2021-10-28 13:48:52</time>
      </trkpt>
      <trkpt lat="43.28594" lon="-3.128">
        <ele>149.6</ele>
        <time>2021-10-28 13:48:53</time>
      </trkpt>
      <trkpt lat="43.28605" lon="-3.12799">
        <ele>149.6</ele>
        <time>2021-10-28 13:48:54</time>
      </trkpt>
      <trkpt lat="43.28605" lon="-3.12799">
        <ele>149.4</ele>
        <time>2021-10-28 13:48:55</time>
      </trkpt>
      <trkpt lat="43.28618" lon="-3.12799">
        <ele>149.4</ele>
        <time>2021-10-28 13:48:56</time>
      </trkpt>
      <trkpt lat="43.28618" lon="-3.12799">
        <ele>149.2</ele>
        <time>2021-10-28 13:48:57</time>
      </trkpt>
      <trkpt lat="43.28623" lon="-3.12799">
        <ele>149.2</ele>
        <time>2021-10-28 13:48:58</time>
      </trkpt>
      <trkpt lat="43.28634" lon="-3.128">
        <ele>149.2</ele>
        <time>2021-10-28 13:48:59</time>
      </trkpt>
      <trkpt lat="43.28634" lon="-3.128">
        <ele>149.2</ele>
        <time>2021-10-28 13:49:00</time>
      </trkpt>
      <trkpt lat="43.28639" lon="-3.12801">
        <ele>149.4</ele>
        <time>2021-10-28 13:49:01</time>
      </trkpt>
      <trkpt lat="43.28651" lon="-3.12801">
        <ele>149.4</ele>
        <time>2021-10-28 13:49:02</time>
      </trkpt>
      <trkpt lat="43.28651" lon="-3.12801">
        <ele>149.6</ele>
        <time>2021-10-28 13:49:03</time>
      </trkpt>
      <trkpt lat="43.28657" lon="-3.12799">
        <ele>149.6</ele>
        <time>2021-10-28 13:49:04</time>
      </trkpt>
      <trkpt lat="43.28663" lon="-3.12797">
        <ele>149.6</ele>
        <time>2021-10-28 13:49:05</time>
      </trkpt>
      <trkpt lat="43.28668" lon="-3.12796">
        <ele>149.6</ele>
        <time>2021-10-28 13:49:06</time>
      </trkpt>
      <trkpt lat="43.28679" lon="-3.12792">
        <ele>149.6</ele>
        <time>2021-10-28 13:49:07</time>
      </trkpt>
      <trkpt lat="43.28679" lon="-3.12792">
        <ele>149.6</ele>
        <time>2021-10-28 13:49:08</time>
      </trkpt>
      <trkpt lat="43.28691" lon="-3.12787">
        <ele>149.6</ele>
        <time>2021-10-28 13:49:09</time>
      </trkpt>
      <trkpt lat="43.28691" lon="-3.12787">
        <ele>149.4</ele>
        <time>2021-10-28 13:49:10</time>
      </trkpt>
      <trkpt lat="43.28703" lon="-3.1278">
        <ele>149.4</ele>
        <time>2021-10-28 13:49:11</time>
      </trkpt>
      <trkpt lat="43.28703" lon="-3.1278">
        <ele>149.4</ele>
        <time>2021-10-28 13:49:12</time>
      </trkpt>
      <trkpt lat="43.28714" lon="-3.12773">
        <ele>149.4</ele>
        <time>2021-10-28 13:49:13</time>
      </trkpt>
      <trkpt lat="43.28714" lon="-3.12773">
        <ele>149.4</ele>
        <time>2021-10-28 13:49:14</time>
      </trkpt>
      <trkpt lat="43.28723" lon="-3.12765">
        <ele>149.6</ele>
        <time>2021-10-28 13:49:15</time>
      </trkpt>
      <trkpt lat="43.28723" lon="-3.12765">
        <ele>149.6</ele>
        <time>2021-10-28 13:49:16</time>
      </trkpt>
      <trkpt lat="43.28734" lon="-3.12757">
        <ele>149.6</ele>
        <time>2021-10-28 13:49:17</time>
      </trkpt>
      <trkpt lat="43.28734" lon="-3.12757">
        <ele>149.8</ele>
        <time>2021-10-28 13:49:18</time>
      </trkpt>
      <trkpt lat="43.28744" lon="-3.12749">
        <ele>149.8</ele>
        <time>2021-10-28 13:49:19</time>
      </trkpt>
      <trkpt lat="43.28744" lon="-3.12749">
        <ele>149.8</ele>
        <time>2021-10-28 13:49:20</time>
      </trkpt>
      <trkpt lat="43.28755" lon="-3.12741">
        <ele>149.8</ele>
        <time>2021-10-28 13:49:21</time>
      </trkpt>
      <trkpt lat="43.28755" lon="-3.12741">
        <ele>149.8</ele>
        <time>2021-10-28 13:49:22</time>
      </trkpt>
      <trkpt lat="43.28767" lon="-3.12734">
        <ele>149.8</ele>
        <time>2021-10-28 13:49:23</time>
      </trkpt>
      <trkpt lat="43.28773" lon="-3.12729">
        <ele>150</ele>
        <time>2021-10-28 13:49:24</time>
      </trkpt>
      <trkpt lat="43.28773" lon="-3.12729">
        <ele>150</ele>
        <time>2021-10-28 13:49:25</time>
      </trkpt>
      <trkpt lat="43.28784" lon="-3.1272">
        <ele>149.8</ele>
        <time>2021-10-28 13:49:26</time>
      </trkpt>
      <trkpt lat="43.28784" lon="-3.1272">
        <ele>149.8</ele>
        <time>2021-10-28 13:49:27</time>
      </trkpt>
      <trkpt lat="43.28789" lon="-3.12715">
        <ele>149.8</ele>
        <time>2021-10-28 13:49:28</time>
      </trkpt>
      <trkpt lat="43.28798" lon="-3.12705">
        <ele>149.8</ele>
        <time>2021-10-28 13:49:29</time>
      </trkpt>
      <trkpt lat="43.28798" lon="-3.12705">
        <ele>149.8</ele>
        <time>2021-10-28 13:49:30</time>
      </trkpt>
      <trkpt lat="43.28805" lon="-3.12693">
        <ele>149.8</ele>
        <time>2021-10-28 13:49:31</time>
      </trkpt>
      <trkpt lat="43.28805" lon="-3.12693">
        <ele>149.8</ele>
        <time>2021-10-28 13:49:32</time>
      </trkpt>
      <trkpt lat="43.28808" lon="-3.12689">
        <ele>149.8</ele>
        <time>2021-10-28 13:49:33</time>
      </trkpt>
      <trkpt lat="43.28814" lon="-3.12676">
        <ele>149.8</ele>
        <time>2021-10-28 13:49:34</time>
      </trkpt>
      <trkpt lat="43.28814" lon="-3.12676">
        <ele>149.8</ele>
        <time>2021-10-28 13:49:35</time>
      </trkpt>
      <trkpt lat="43.28816" lon="-3.12668">
        <ele>150</ele>
        <time>2021-10-28 13:49:36</time>
      </trkpt>
      <trkpt lat="43.28819" lon="-3.12661">
        <ele>150</ele>
        <time>2021-10-28 13:49:37</time>
      </trkpt>
      <trkpt lat="43.28819" lon="-3.12654">
        <ele>150.2</ele>
        <time>2021-10-28 13:49:38</time>
      </trkpt>
      <trkpt lat="43.28822" lon="-3.12639">
        <ele>150.4</ele>
        <time>2021-10-28 13:49:39</time>
      </trkpt>
      <trkpt lat="43.28822" lon="-3.12639">
        <ele>150.4</ele>
        <time>2021-10-28 13:49:40</time>
      </trkpt>
      <trkpt lat="43.28822" lon="-3.12631">
        <ele>150.6</ele>
        <time>2021-10-28 13:49:41</time>
      </trkpt>
      <trkpt lat="43.28823" lon="-3.12615">
        <ele>150.6</ele>
        <time>2021-10-28 13:49:42</time>
      </trkpt>
      <trkpt lat="43.28823" lon="-3.12615">
        <ele>150.6</ele>
        <time>2021-10-28 13:49:43</time>
      </trkpt>
      <trkpt lat="43.28824" lon="-3.12606">
        <ele>150.6</ele>
        <time>2021-10-28 13:49:44</time>
      </trkpt>
      <trkpt lat="43.28823" lon="-3.12598">
        <ele>150.6</ele>
        <time>2021-10-28 13:49:45</time>
      </trkpt>
      <trkpt lat="43.28823" lon="-3.12598">
        <ele>150.6</ele>
        <time>2021-10-28 13:49:46</time>
      </trkpt>
      <trkpt lat="43.28824" lon="-3.12582">
        <ele>150.8</ele>
        <time>2021-10-28 13:49:47</time>
      </trkpt>
      <trkpt lat="43.28823" lon="-3.12574">
        <ele>150.8</ele>
        <time>2021-10-28 13:49:48</time>
      </trkpt>
      <trkpt lat="43.28823" lon="-3.12566">
        <ele>150.8</ele>
        <time>2021-10-28 13:49:49</time>
      </trkpt>
      <trkpt lat="43.28825" lon="-3.12551">
        <ele>150.8</ele>
        <time>2021-10-28 13:49:50</time>
      </trkpt>
      <trkpt lat="43.28825" lon="-3.12551">
        <ele>150.8</ele>
        <time>2021-10-28 13:49:51</time>
      </trkpt>
      <trkpt lat="43.28826" lon="-3.12544">
        <ele>150.8</ele>
        <time>2021-10-28 13:49:52</time>
      </trkpt>
      <trkpt lat="43.28826" lon="-3.12544">
        <ele>150.8</ele>
        <time>2021-10-28 13:49:53</time>
      </trkpt>
      <trkpt lat="43.2883" lon="-3.12528">
        <ele>150.8</ele>
        <time>2021-10-28 13:49:54</time>
      </trkpt>
      <trkpt lat="43.28831" lon="-3.12511">
        <ele>151</ele>
        <time>2021-10-28 13:49:55</time>
      </trkpt>
      <trkpt lat="43.28831" lon="-3.12511">
        <ele>151</ele>
        <time>2021-10-28 13:49:56</time>
      </trkpt>
      <trkpt lat="43.28835" lon="-3.12493">
        <ele>151</ele>
        <time>2021-10-28 13:49:57</time>
      </trkpt>
      <trkpt lat="43.28835" lon="-3.12493">
        <ele>150.8</ele>
        <time>2021-10-28 13:49:58</time>
      </trkpt>
      <trkpt lat="43.28838" lon="-3.12477">
        <ele>150.8</ele>
        <time>2021-10-28 13:49:59</time>
      </trkpt>
      <trkpt lat="43.28838" lon="-3.12477">
        <ele>150.8</ele>
        <time>2021-10-28 13:50:00</time>
      </trkpt>
      <trkpt lat="43.28842" lon="-3.12463">
        <ele>150.6</ele>
        <time>2021-10-28 13:50:01</time>
      </trkpt>
      <trkpt lat="43.28842" lon="-3.12463">
        <ele>150.6</ele>
        <time>2021-10-28 13:50:02</time>
      </trkpt>
      <trkpt lat="43.28846" lon="-3.1245">
        <ele>150.6</ele>
        <time>2021-10-28 13:50:03</time>
      </trkpt>
      <trkpt lat="43.28846" lon="-3.1245">
        <ele>150.8</ele>
        <time>2021-10-28 13:50:04</time>
      </trkpt>
      <trkpt lat="43.28848" lon="-3.12444">
        <ele>150.8</ele>
        <time>2021-10-28 13:50:05</time>
      </trkpt>
      <trkpt lat="43.28853" lon="-3.1243">
        <ele>150.8</ele>
        <time>2021-10-28 13:50:06</time>
      </trkpt>
      <trkpt lat="43.28853" lon="-3.1243">
        <ele>150.8</ele>
        <time>2021-10-28 13:50:07</time>
      </trkpt>
      <trkpt lat="43.28857" lon="-3.12417">
        <ele>150.8</ele>
        <time>2021-10-28 13:50:08</time>
      </trkpt>
      <trkpt lat="43.28857" lon="-3.12417">
        <ele>150.8</ele>
        <time>2021-10-28 13:50:09</time>
      </trkpt>
      <trkpt lat="43.28859" lon="-3.12404">
        <ele>151</ele>
        <time>2021-10-28 13:50:10</time>
      </trkpt>
      <trkpt lat="43.28859" lon="-3.12404">
        <ele>151</ele>
        <time>2021-10-28 13:50:11</time>
      </trkpt>
      <trkpt lat="43.28861" lon="-3.12397">
        <ele>151.2</ele>
        <time>2021-10-28 13:50:12</time>
      </trkpt>
      <trkpt lat="43.28864" lon="-3.12392">
        <ele>151.2</ele>
        <time>2021-10-28 13:50:13</time>
      </trkpt>
      <trkpt lat="43.2887" lon="-3.12382">
        <ele>151.2</ele>
        <time>2021-10-28 13:50:14</time>
      </trkpt>
      <trkpt lat="43.2887" lon="-3.12382">
        <ele>151.2</ele>
        <time>2021-10-28 13:50:15</time>
      </trkpt>
      <trkpt lat="43.28878" lon="-3.12371">
        <ele>151.2</ele>
        <time>2021-10-28 13:50:16</time>
      </trkpt>
      <trkpt lat="43.28878" lon="-3.12371">
        <ele>151</ele>
        <time>2021-10-28 13:50:17</time>
      </trkpt>
      <trkpt lat="43.28888" lon="-3.12361">
        <ele>151</ele>
        <time>2021-10-28 13:50:18</time>
      </trkpt>
      <trkpt lat="43.28888" lon="-3.12361">
        <ele>150.8</ele>
        <time>2021-10-28 13:50:19</time>
      </trkpt>
      <trkpt lat="43.28899" lon="-3.12352">
        <ele>150.8</ele>
        <time>2021-10-28 13:50:20</time>
      </trkpt>
      <trkpt lat="43.28899" lon="-3.12352">
        <ele>150.6</ele>
        <time>2021-10-28 13:50:21</time>
      </trkpt>
      <trkpt lat="43.28904" lon="-3.12349">
        <ele>150.4</ele>
        <time>2021-10-28 13:50:22</time>
      </trkpt>
      <trkpt lat="43.28919" lon="-3.12345">
        <ele>150.4</ele>
        <time>2021-10-28 13:50:23</time>
      </trkpt>
      <trkpt lat="43.28919" lon="-3.12345">
        <ele>150.4</ele>
        <time>2021-10-28 13:50:24</time>
      </trkpt>
      <trkpt lat="43.28934" lon="-3.12345">
        <ele>150.6</ele>
        <time>2021-10-28 13:50:25</time>
      </trkpt>
      <trkpt lat="43.28934" lon="-3.12345">
        <ele>150.8</ele>
        <time>2021-10-28 13:50:26</time>
      </trkpt>
      <trkpt lat="43.2894" lon="-3.12346">
        <ele>151</ele>
        <time>2021-10-28 13:50:27</time>
      </trkpt>
      <trkpt lat="43.28953" lon="-3.1235">
        <ele>151</ele>
        <time>2021-10-28 13:50:28</time>
      </trkpt>
      <trkpt lat="43.28953" lon="-3.1235">
        <ele>150.8</ele>
        <time>2021-10-28 13:50:29</time>
      </trkpt>
      <trkpt lat="43.28966" lon="-3.12354">
        <ele>150.8</ele>
        <time>2021-10-28 13:50:30</time>
      </trkpt>
      <trkpt lat="43.28966" lon="-3.12354">
        <ele>150.8</ele>
        <time>2021-10-28 13:50:31</time>
      </trkpt>
      <trkpt lat="43.28971" lon="-3.12357">
        <ele>150.6</ele>
        <time>2021-10-28 13:50:32</time>
      </trkpt>
      <trkpt lat="43.28976" lon="-3.1236">
        <ele>150.6</ele>
        <time>2021-10-28 13:50:33</time>
      </trkpt>
      <trkpt lat="43.2898" lon="-3.12364">
        <ele>150.6</ele>
        <time>2021-10-28 13:50:34</time>
      </trkpt>
      <trkpt lat="43.28984" lon="-3.12368">
        <ele>150.4</ele>
        <time>2021-10-28 13:50:35</time>
      </trkpt>
      <trkpt lat="43.28992" lon="-3.1238">
        <ele>150.4</ele>
        <time>2021-10-28 13:50:36</time>
      </trkpt>
      <trkpt lat="43.28992" lon="-3.1238">
        <ele>150.4</ele>
        <time>2021-10-28 13:50:37</time>
      </trkpt>
      <trkpt lat="43.28996" lon="-3.12385">
        <ele>150.6</ele>
        <time>2021-10-28 13:50:38</time>
      </trkpt>
      <trkpt lat="43.29001" lon="-3.12389">
        <ele>150.6</ele>
        <time>2021-10-28 13:50:39</time>
      </trkpt>
      <trkpt lat="43.29005" lon="-3.12393">
        <ele>150.6</ele>
        <time>2021-10-28 13:50:40</time>
      </trkpt>
      <trkpt lat="43.29009" lon="-3.12397">
        <ele>150.8</ele>
        <time>2021-10-28 13:50:41</time>
      </trkpt>
      <trkpt lat="43.29018" lon="-3.12408">
        <ele>150.8</ele>
        <time>2021-10-28 13:50:42</time>
      </trkpt>
      <trkpt lat="43.29018" lon="-3.12408">
        <ele>151</ele>
        <time>2021-10-28 13:50:43</time>
      </trkpt>
      <trkpt lat="43.29027" lon="-3.12416">
        <ele>151</ele>
        <time>2021-10-28 13:50:44</time>
      </trkpt>
      <trkpt lat="43.29027" lon="-3.12416">
        <ele>151</ele>
        <time>2021-10-28 13:50:45</time>
      </trkpt>
      <trkpt lat="43.29032" lon="-3.1242">
        <ele>151.2</ele>
        <time>2021-10-28 13:50:46</time>
      </trkpt>
      <trkpt lat="43.29038" lon="-3.12423">
        <ele>151.2</ele>
        <time>2021-10-28 13:50:47</time>
      </trkpt>
      <trkpt lat="43.29043" lon="-3.12424">
        <ele>151</ele>
        <time>2021-10-28 13:50:48</time>
      </trkpt>
      <trkpt lat="43.29048" lon="-3.12426">
        <ele>151</ele>
        <time>2021-10-28 13:50:49</time>
      </trkpt>
      <trkpt lat="43.29057" lon="-3.12429">
        <ele>151</ele>
        <time>2021-10-28 13:50:50</time>
      </trkpt>
      <trkpt lat="43.29057" lon="-3.12429">
        <ele>151</ele>
        <time>2021-10-28 13:50:51</time>
      </trkpt>
      <trkpt lat="43.29069" lon="-3.12431">
        <ele>151</ele>
        <time>2021-10-28 13:50:52</time>
      </trkpt>
      <trkpt lat="43.29069" lon="-3.12431">
        <ele>150.8</ele>
        <time>2021-10-28 13:50:53</time>
      </trkpt>
      <trkpt lat="43.2908" lon="-3.12431">
        <ele>150.8</ele>
        <time>2021-10-28 13:50:54</time>
      </trkpt>
      <trkpt lat="43.2908" lon="-3.12431">
        <ele>150.8</ele>
        <time>2021-10-28 13:50:55</time>
      </trkpt>
      <trkpt lat="43.29086" lon="-3.1243">
        <ele>150.8</ele>
        <time>2021-10-28 13:50:56</time>
      </trkpt>
      <trkpt lat="43.29091" lon="-3.1243">
        <ele>150.8</ele>
        <time>2021-10-28 13:50:57</time>
      </trkpt>
      <trkpt lat="43.29103" lon="-3.12428">
        <ele>150.8</ele>
        <time>2021-10-28 13:50:58</time>
      </trkpt>
      <trkpt lat="43.29103" lon="-3.12428">
        <ele>150.6</ele>
        <time>2021-10-28 13:50:59</time>
      </trkpt>
      <trkpt lat="43.29109" lon="-3.12428">
        <ele>150.6</ele>
        <time>2021-10-28 13:51:00</time>
      </trkpt>
      <trkpt lat="43.29122" lon="-3.12424">
        <ele>150.6</ele>
        <time>2021-10-28 13:51:01</time>
      </trkpt>
      <trkpt lat="43.29122" lon="-3.12424">
        <ele>150.6</ele>
        <time>2021-10-28 13:51:02</time>
      </trkpt>
      <trkpt lat="43.29133" lon="-3.12419">
        <ele>150.6</ele>
        <time>2021-10-28 13:51:03</time>
      </trkpt>
      <trkpt lat="43.29133" lon="-3.12419">
        <ele>150.6</ele>
        <time>2021-10-28 13:51:04</time>
      </trkpt>
      <trkpt lat="43.29139" lon="-3.12417">
        <ele>150.6</ele>
        <time>2021-10-28 13:51:05</time>
      </trkpt>
      <trkpt lat="43.29151" lon="-3.12409">
        <ele>150.6</ele>
        <time>2021-10-28 13:51:06</time>
      </trkpt>
      <trkpt lat="43.29151" lon="-3.12409">
        <ele>150.6</ele>
        <time>2021-10-28 13:51:07</time>
      </trkpt>
      <trkpt lat="43.29162" lon="-3.124">
        <ele>150.8</ele>
        <time>2021-10-28 13:51:08</time>
      </trkpt>
      <trkpt lat="43.29162" lon="-3.124">
        <ele>150.8</ele>
        <time>2021-10-28 13:51:09</time>
      </trkpt>
      <trkpt lat="43.29173" lon="-3.1239">
        <ele>150.8</ele>
        <time>2021-10-28 13:51:10</time>
      </trkpt>
      <trkpt lat="43.29173" lon="-3.1239">
        <ele>151</ele>
        <time>2021-10-28 13:51:11</time>
      </trkpt>
      <trkpt lat="43.29177" lon="-3.12384">
        <ele>151</ele>
        <time>2021-10-28 13:51:12</time>
      </trkpt>
      <trkpt lat="43.29177" lon="-3.12384">
        <ele>151</ele>
        <time>2021-10-28 13:51:13</time>
      </trkpt>
      <trkpt lat="43.29189" lon="-3.12365">
        <ele>151.2</ele>
        <time>2021-10-28 13:51:14</time>
      </trkpt>
      <trkpt lat="43.29189" lon="-3.12365">
        <ele>151.2</ele>
        <time>2021-10-28 13:51:15</time>
      </trkpt>
      <trkpt lat="43.29196" lon="-3.12352">
        <ele>151.2</ele>
        <time>2021-10-28 13:51:16</time>
      </trkpt>
      <trkpt lat="43.29196" lon="-3.12352">
        <ele>151.2</ele>
        <time>2021-10-28 13:51:17</time>
      </trkpt>
      <trkpt lat="43.29203" lon="-3.1234">
        <ele>151.4</ele>
        <time>2021-10-28 13:51:18</time>
      </trkpt>
      <trkpt lat="43.29203" lon="-3.1234">
        <ele>151.4</ele>
        <time>2021-10-28 13:51:19</time>
      </trkpt>
      <trkpt lat="43.29208" lon="-3.12328">
        <ele>151.6</ele>
        <time>2021-10-28 13:51:20</time>
      </trkpt>
      <trkpt lat="43.29208" lon="-3.12328">
        <ele>151.6</ele>
        <time>2021-10-28 13:51:21</time>
      </trkpt>
      <trkpt lat="43.29212" lon="-3.12321">
        <ele>151.6</ele>
        <time>2021-10-28 13:51:22</time>
      </trkpt>
      <trkpt lat="43.29217" lon="-3.12307">
        <ele>151.8</ele>
        <time>2021-10-28 13:51:23</time>
      </trkpt>
      <trkpt lat="43.29217" lon="-3.12307">
        <ele>151.8</ele>
        <time>2021-10-28 13:51:24</time>
      </trkpt>
      <trkpt lat="43.29219" lon="-3.123">
        <ele>151.8</ele>
        <time>2021-10-28 13:51:25</time>
      </trkpt>
      <trkpt lat="43.29222" lon="-3.12293">
        <ele>152</ele>
        <time>2021-10-28 13:51:26</time>
      </trkpt>
      <trkpt lat="43.29226" lon="-3.12286">
        <ele>152</ele>
        <time>2021-10-28 13:51:27</time>
      </trkpt>
      <trkpt lat="43.29231" lon="-3.12279">
        <ele>152</ele>
        <time>2021-10-28 13:51:28</time>
      </trkpt>
      <trkpt lat="43.29239" lon="-3.12265">
        <ele>152</ele>
        <time>2021-10-28 13:51:29</time>
      </trkpt>
      <trkpt lat="43.29239" lon="-3.12265">
        <ele>152</ele>
        <time>2021-10-28 13:51:30</time>
      </trkpt>
      <trkpt lat="43.29242" lon="-3.12259">
        <ele>152</ele>
        <time>2021-10-28 13:51:31</time>
      </trkpt>
      <trkpt lat="43.29246" lon="-3.12252">
        <ele>152</ele>
        <time>2021-10-28 13:51:32</time>
      </trkpt>
      <trkpt lat="43.29249" lon="-3.12244">
        <ele>152</ele>
        <time>2021-10-28 13:51:33</time>
      </trkpt>
      <trkpt lat="43.29252" lon="-3.12236">
        <ele>151.8</ele>
        <time>2021-10-28 13:51:34</time>
      </trkpt>
      <trkpt lat="43.29254" lon="-3.12228">
        <ele>151.8</ele>
        <time>2021-10-28 13:51:35</time>
      </trkpt>
      <trkpt lat="43.29256" lon="-3.12219">
        <ele>151.6</ele>
        <time>2021-10-28 13:51:36</time>
      </trkpt>
      <trkpt lat="43.29259" lon="-3.12201">
        <ele>151.4</ele>
        <time>2021-10-28 13:51:37</time>
      </trkpt>
      <trkpt lat="43.29259" lon="-3.12201">
        <ele>151.4</ele>
        <time>2021-10-28 13:51:38</time>
      </trkpt>
      <trkpt lat="43.2926" lon="-3.12183">
        <ele>151.4</ele>
        <time>2021-10-28 13:51:39</time>
      </trkpt>
      <trkpt lat="43.2926" lon="-3.12183">
        <ele>151.4</ele>
        <time>2021-10-28 13:51:40</time>
      </trkpt>
      <trkpt lat="43.2926" lon="-3.12174">
        <ele>151.4</ele>
        <time>2021-10-28 13:51:41</time>
      </trkpt>
      <trkpt lat="43.2926" lon="-3.12166">
        <ele>151.4</ele>
        <time>2021-10-28 13:51:42</time>
      </trkpt>
      <trkpt lat="43.2926" lon="-3.12157">
        <ele>151.2</ele>
        <time>2021-10-28 13:51:43</time>
      </trkpt>
      <trkpt lat="43.2926" lon="-3.12148">
        <ele>151.2</ele>
        <time>2021-10-28 13:51:44</time>
      </trkpt>
      <trkpt lat="43.29261" lon="-3.12131">
        <ele>151.2</ele>
        <time>2021-10-28 13:51:45</time>
      </trkpt>
      <trkpt lat="43.29261" lon="-3.12131">
        <ele>151.2</ele>
        <time>2021-10-28 13:51:46</time>
      </trkpt>
      <trkpt lat="43.29261" lon="-3.12122">
        <ele>151.2</ele>
        <time>2021-10-28 13:51:47</time>
      </trkpt>
      <trkpt lat="43.29261" lon="-3.12114">
        <ele>151.2</ele>
        <time>2021-10-28 13:51:48</time>
      </trkpt>
      <trkpt lat="43.29261" lon="-3.12114">
        <ele>151</ele>
        <time>2021-10-28 13:51:49</time>
      </trkpt>
      <trkpt lat="43.29261" lon="-3.12097">
        <ele>151</ele>
        <time>2021-10-28 13:51:50</time>
      </trkpt>
      <trkpt lat="43.29261" lon="-3.12097">
        <ele>151</ele>
        <time>2021-10-28 13:51:51</time>
      </trkpt>
      <trkpt lat="43.2926" lon="-3.12072">
        <ele>151</ele>
        <time>2021-10-28 13:51:52</time>
      </trkpt>
      <trkpt lat="43.2926" lon="-3.12072">
        <ele>151</ele>
        <time>2021-10-28 13:51:53</time>
      </trkpt>
      <trkpt lat="43.29257" lon="-3.12055">
        <ele>150.8</ele>
        <time>2021-10-28 13:51:54</time>
      </trkpt>
      <trkpt lat="43.29257" lon="-3.12055">
        <ele>150.8</ele>
        <time>2021-10-28 13:51:55</time>
      </trkpt>
      <trkpt lat="43.29255" lon="-3.12047">
        <ele>150.8</ele>
        <time>2021-10-28 13:51:56</time>
      </trkpt>
      <trkpt lat="43.2925" lon="-3.12031">
        <ele>150.8</ele>
        <time>2021-10-28 13:51:57</time>
      </trkpt>
      <trkpt lat="43.2925" lon="-3.12031">
        <ele>150.6</ele>
        <time>2021-10-28 13:51:58</time>
      </trkpt>
      <trkpt lat="43.29249" lon="-3.12024">
        <ele>150.6</ele>
        <time>2021-10-28 13:51:59</time>
      </trkpt>
      <trkpt lat="43.29245" lon="-3.12008">
        <ele>150.6</ele>
        <time>2021-10-28 13:52:00</time>
      </trkpt>
      <trkpt lat="43.29245" lon="-3.12008">
        <ele>150.6</ele>
        <time>2021-10-28 13:52:01</time>
      </trkpt>
      <trkpt lat="43.29243" lon="-3.12001">
        <ele>150.6</ele>
        <time>2021-10-28 13:52:02</time>
      </trkpt>
      <trkpt lat="43.29236" lon="-3.11988">
        <ele>150.6</ele>
        <time>2021-10-28 13:52:03</time>
      </trkpt>
      <trkpt lat="43.29236" lon="-3.11988">
        <ele>150.6</ele>
        <time>2021-10-28 13:52:04</time>
      </trkpt>
      <trkpt lat="43.29232" lon="-3.11981">
        <ele>150.6</ele>
        <time>2021-10-28 13:52:05</time>
      </trkpt>
      <trkpt lat="43.29229" lon="-3.11975">
        <ele>150.6</ele>
        <time>2021-10-28 13:52:06</time>
      </trkpt>
      <trkpt lat="43.29221" lon="-3.11962">
        <ele>150.6</ele>
        <time>2021-10-28 13:52:07</time>
      </trkpt>
      <trkpt lat="43.29221" lon="-3.11962">
        <ele>150.6</ele>
        <time>2021-10-28 13:52:08</time>
      </trkpt>
      <trkpt lat="43.29217" lon="-3.11956">
        <ele>150.6</ele>
        <time>2021-10-28 13:52:09</time>
      </trkpt>
      <trkpt lat="43.29213" lon="-3.1195">
        <ele>150.6</ele>
        <time>2021-10-28 13:52:10</time>
      </trkpt>
      <trkpt lat="43.29209" lon="-3.11945">
        <ele>150.6</ele>
        <time>2021-10-28 13:52:11</time>
      </trkpt>
      <trkpt lat="43.29205" lon="-3.1194">
        <ele>150.6</ele>
        <time>2021-10-28 13:52:12</time>
      </trkpt>
      <trkpt lat="43.29201" lon="-3.11935">
        <ele>150.6</ele>
        <time>2021-10-28 13:52:13</time>
      </trkpt>
      <trkpt lat="43.29197" lon="-3.11932">
        <ele>150.6</ele>
        <time>2021-10-28 13:52:14</time>
      </trkpt>
      <trkpt lat="43.29188" lon="-3.11923">
        <ele>150.6</ele>
        <time>2021-10-28 13:52:15</time>
      </trkpt>
      <trkpt lat="43.29188" lon="-3.11923">
        <ele>150.8</ele>
        <time>2021-10-28 13:52:16</time>
      </trkpt>
      <trkpt lat="43.29184" lon="-3.11917">
        <ele>150.8</ele>
        <time>2021-10-28 13:52:17</time>
      </trkpt>
      <trkpt lat="43.29181" lon="-3.11911">
        <ele>150.8</ele>
        <time>2021-10-28 13:52:18</time>
      </trkpt>
      <trkpt lat="43.29177" lon="-3.11905">
        <ele>150.8</ele>
        <time>2021-10-28 13:52:19</time>
      </trkpt>
      <trkpt lat="43.29173" lon="-3.11899">
        <ele>150.8</ele>
        <time>2021-10-28 13:52:20</time>
      </trkpt>
      <trkpt lat="43.29169" lon="-3.11893">
        <ele>150.8</ele>
        <time>2021-10-28 13:52:21</time>
      </trkpt>
      <trkpt lat="43.29166" lon="-3.11887">
        <ele>150.8</ele>
        <time>2021-10-28 13:52:22</time>
      </trkpt>
      <trkpt lat="43.29159" lon="-3.11874">
        <ele>150.8</ele>
        <time>2021-10-28 13:52:23</time>
      </trkpt>
      <trkpt lat="43.29159" lon="-3.11874">
        <ele>150.8</ele>
        <time>2021-10-28 13:52:24</time>
      </trkpt>
      <trkpt lat="43.29155" lon="-3.11868">
        <ele>150.8</ele>
        <time>2021-10-28 13:52:25</time>
      </trkpt>
      <trkpt lat="43.29149" lon="-3.11854">
        <ele>150.8</ele>
        <time>2021-10-28 13:52:26</time>
      </trkpt>
      <trkpt lat="43.29149" lon="-3.11854">
        <ele>150.8</ele>
        <time>2021-10-28 13:52:27</time>
      </trkpt>
      <trkpt lat="43.29146" lon="-3.11846">
        <ele>151</ele>
        <time>2021-10-28 13:52:28</time>
      </trkpt>
      <trkpt lat="43.29142" lon="-3.1183">
        <ele>151</ele>
        <time>2021-10-28 13:52:29</time>
      </trkpt>
      <trkpt lat="43.29142" lon="-3.1183">
        <ele>150.8</ele>
        <time>2021-10-28 13:52:30</time>
      </trkpt>
      <trkpt lat="43.29139" lon="-3.11822">
        <ele>150.8</ele>
        <time>2021-10-28 13:52:31</time>
      </trkpt>
      <trkpt lat="43.29136" lon="-3.11814">
        <ele>150.8</ele>
        <time>2021-10-28 13:52:32</time>
      </trkpt>
      <trkpt lat="43.29135" lon="-3.11806">
        <ele>150.8</ele>
        <time>2021-10-28 13:52:33</time>
      </trkpt>
      <trkpt lat="43.29132" lon="-3.1179">
        <ele>150.8</ele>
        <time>2021-10-28 13:52:34</time>
      </trkpt>
      <trkpt lat="43.29132" lon="-3.1179">
        <ele>150.8</ele>
        <time>2021-10-28 13:52:35</time>
      </trkpt>
      <trkpt lat="43.29131" lon="-3.11783">
        <ele>150.8</ele>
        <time>2021-10-28 13:52:36</time>
      </trkpt>
      <trkpt lat="43.29131" lon="-3.11774">
        <ele>151</ele>
        <time>2021-10-28 13:52:37</time>
      </trkpt>
      <trkpt lat="43.29131" lon="-3.11766">
        <ele>151</ele>
        <time>2021-10-28 13:52:38</time>
      </trkpt>
      <trkpt lat="43.29131" lon="-3.11758">
        <ele>151</ele>
        <time>2021-10-28 13:52:39</time>
      </trkpt>
      <trkpt lat="43.29131" lon="-3.11742">
        <ele>151.2</ele>
        <time>2021-10-28 13:52:40</time>
      </trkpt>
      <trkpt lat="43.29131" lon="-3.11742">
        <ele>151.2</ele>
        <time>2021-10-28 13:52:41</time>
      </trkpt>
      <trkpt lat="43.29133" lon="-3.11734">
        <ele>151.2</ele>
        <time>2021-10-28 13:52:42</time>
      </trkpt>
      <trkpt lat="43.29134" lon="-3.11726">
        <ele>151.2</ele>
        <time>2021-10-28 13:52:43</time>
      </trkpt>
      <trkpt lat="43.29138" lon="-3.11712">
        <ele>151.2</ele>
        <time>2021-10-28 13:52:44</time>
      </trkpt>
      <trkpt lat="43.29138" lon="-3.11712">
        <ele>151.2</ele>
        <time>2021-10-28 13:52:45</time>
      </trkpt>
      <trkpt lat="43.29142" lon="-3.11705">
        <ele>151.2</ele>
        <time>2021-10-28 13:52:46</time>
      </trkpt>
      <trkpt lat="43.29146" lon="-3.11698">
        <ele>151.2</ele>
        <time>2021-10-28 13:52:47</time>
      </trkpt>
      <trkpt lat="43.29152" lon="-3.11685">
        <ele>151.4</ele>
        <time>2021-10-28 13:52:48</time>
      </trkpt>
      <trkpt lat="43.29152" lon="-3.11685">
        <ele>151.4</ele>
        <time>2021-10-28 13:52:49</time>
      </trkpt>
      <trkpt lat="43.29156" lon="-3.1168">
        <ele>151.4</ele>
        <time>2021-10-28 13:52:50</time>
      </trkpt>
      <trkpt lat="43.2916" lon="-3.11674">
        <ele>151.4</ele>
        <time>2021-10-28 13:52:51</time>
      </trkpt>
      <trkpt lat="43.29165" lon="-3.11669">
        <ele>151.4</ele>
        <time>2021-10-28 13:52:52</time>
      </trkpt>
      <trkpt lat="43.29169" lon="-3.11664">
        <ele>151.4</ele>
        <time>2021-10-28 13:52:53</time>
      </trkpt>
      <trkpt lat="43.29174" lon="-3.1166">
        <ele>151.4</ele>
        <time>2021-10-28 13:52:54</time>
      </trkpt>
      <trkpt lat="43.29179" lon="-3.11657">
        <ele>151.4</ele>
        <time>2021-10-28 13:52:55</time>
      </trkpt>
      <trkpt lat="43.29184" lon="-3.11654">
        <ele>151.4</ele>
        <time>2021-10-28 13:52:56</time>
      </trkpt>
      <trkpt lat="43.2919" lon="-3.11653">
        <ele>151.4</ele>
        <time>2021-10-28 13:52:57</time>
      </trkpt>
      <trkpt lat="43.29196" lon="-3.11652">
        <ele>151.4</ele>
        <time>2021-10-28 13:52:58</time>
      </trkpt>
      <trkpt lat="43.29202" lon="-3.11652">
        <ele>151.4</ele>
        <time>2021-10-28 13:52:59</time>
      </trkpt>
      <trkpt lat="43.29207" lon="-3.11652">
        <ele>151.2</ele>
        <time>2021-10-28 13:53:00</time>
      </trkpt>
      <trkpt lat="43.29213" lon="-3.11653">
        <ele>151.2</ele>
        <time>2021-10-28 13:53:01</time>
      </trkpt>
      <trkpt lat="43.29219" lon="-3.11654">
        <ele>151.2</ele>
        <time>2021-10-28 13:53:02</time>
      </trkpt>
      <trkpt lat="43.29225" lon="-3.11655">
        <ele>151.4</ele>
        <time>2021-10-28 13:53:03</time>
      </trkpt>
      <trkpt lat="43.2923" lon="-3.11657">
        <ele>151.4</ele>
        <time>2021-10-28 13:53:04</time>
      </trkpt>
      <trkpt lat="43.29236" lon="-3.11659">
        <ele>151.4</ele>
        <time>2021-10-28 13:53:05</time>
      </trkpt>
      <trkpt lat="43.29241" lon="-3.11662">
        <ele>151.4</ele>
        <time>2021-10-28 13:53:06</time>
      </trkpt>
      <trkpt lat="43.2925" lon="-3.11671">
        <ele>151.2</ele>
        <time>2021-10-28 13:53:07</time>
      </trkpt>
      <trkpt lat="43.2925" lon="-3.11671">
        <ele>151.2</ele>
        <time>2021-10-28 13:53:08</time>
      </trkpt>
      <trkpt lat="43.29254" lon="-3.11677">
        <ele>151</ele>
        <time>2021-10-28 13:53:09</time>
      </trkpt>
      <trkpt lat="43.29261" lon="-3.1169">
        <ele>151</ele>
        <time>2021-10-28 13:53:10</time>
      </trkpt>
      <trkpt lat="43.29261" lon="-3.1169">
        <ele>151</ele>
        <time>2021-10-28 13:53:11</time>
      </trkpt>
      <trkpt lat="43.29264" lon="-3.11697">
        <ele>151.2</ele>
        <time>2021-10-28 13:53:12</time>
      </trkpt>
      <trkpt lat="43.29267" lon="-3.11711">
        <ele>151.2</ele>
        <time>2021-10-28 13:53:13</time>
      </trkpt>
      <trkpt lat="43.29267" lon="-3.11711">
        <ele>151.4</ele>
        <time>2021-10-28 13:53:14</time>
      </trkpt>
      <trkpt lat="43.2927" lon="-3.11726">
        <ele>151.4</ele>
        <time>2021-10-28 13:53:15</time>
      </trkpt>
      <trkpt lat="43.2927" lon="-3.11726">
        <ele>151.6</ele>
        <time>2021-10-28 13:53:16</time>
      </trkpt>
      <trkpt lat="43.29274" lon="-3.1174">
        <ele>151.8</ele>
        <time>2021-10-28 13:53:17</time>
      </trkpt>
      <trkpt lat="43.29274" lon="-3.1174">
        <ele>151.8</ele>
        <time>2021-10-28 13:53:18</time>
      </trkpt>
      <trkpt lat="43.29276" lon="-3.11747">
        <ele>151.8</ele>
        <time>2021-10-28 13:53:19</time>
      </trkpt>
      <trkpt lat="43.29281" lon="-3.11762">
        <ele>151.8</ele>
        <time>2021-10-28 13:53:20</time>
      </trkpt>
      <trkpt lat="43.29281" lon="-3.11762">
        <ele>151.6</ele>
        <time>2021-10-28 13:53:21</time>
      </trkpt>
      <trkpt lat="43.29286" lon="-3.11776">
        <ele>151.6</ele>
        <time>2021-10-28 13:53:22</time>
      </trkpt>
      <trkpt lat="43.29286" lon="-3.11776">
        <ele>151.4</ele>
        <time>2021-10-28 13:53:23</time>
      </trkpt>
      <trkpt lat="43.29289" lon="-3.11783">
        <ele>151.2</ele>
        <time>2021-10-28 13:53:24</time>
      </trkpt>
      <trkpt lat="43.29293" lon="-3.1179">
        <ele>151.2</ele>
        <time>2021-10-28 13:53:25</time>
      </trkpt>
      <trkpt lat="43.29297" lon="-3.11796">
        <ele>151.2</ele>
        <time>2021-10-28 13:53:26</time>
      </trkpt>
      <trkpt lat="43.29302" lon="-3.11801">
        <ele>151.2</ele>
        <time>2021-10-28 13:53:27</time>
      </trkpt>
      <trkpt lat="43.29307" lon="-3.11806">
        <ele>151.2</ele>
        <time>2021-10-28 13:53:28</time>
      </trkpt>
      <trkpt lat="43.29317" lon="-3.11815">
        <ele>151.2</ele>
        <time>2021-10-28 13:53:29</time>
      </trkpt>
      <trkpt lat="43.29317" lon="-3.11815">
        <ele>151</ele>
        <time>2021-10-28 13:53:30</time>
      </trkpt>
      <trkpt lat="43.29323" lon="-3.11818">
        <ele>151</ele>
        <time>2021-10-28 13:53:31</time>
      </trkpt>
      <trkpt lat="43.29328" lon="-3.11822">
        <ele>151</ele>
        <time>2021-10-28 13:53:32</time>
      </trkpt>
      <trkpt lat="43.29333" lon="-3.11825">
        <ele>151</ele>
        <time>2021-10-28 13:53:33</time>
      </trkpt>
      <trkpt lat="43.29339" lon="-3.11828">
        <ele>150.8</ele>
        <time>2021-10-28 13:53:34</time>
      </trkpt>
      <trkpt lat="43.29351" lon="-3.11833">
        <ele>150.6</ele>
        <time>2021-10-28 13:53:35</time>
      </trkpt>
      <trkpt lat="43.29351" lon="-3.11833">
        <ele>150.6</ele>
        <time>2021-10-28 13:53:36</time>
      </trkpt>
      <trkpt lat="43.29361" lon="-3.11841">
        <ele>150.8</ele>
        <time>2021-10-28 13:53:37</time>
      </trkpt>
      <trkpt lat="43.29361" lon="-3.11841">
        <ele>151</ele>
        <time>2021-10-28 13:53:38</time>
      </trkpt>
      <trkpt lat="43.29366" lon="-3.11846">
        <ele>151</ele>
        <time>2021-10-28 13:53:39</time>
      </trkpt>
      <trkpt lat="43.29375" lon="-3.11858">
        <ele>151</ele>
        <time>2021-10-28 13:53:40</time>
      </trkpt>
      <trkpt lat="43.29375" lon="-3.11858">
        <ele>151</ele>
        <time>2021-10-28 13:53:41</time>
      </trkpt>
      <trkpt lat="43.2938" lon="-3.11863">
        <ele>150.8</ele>
        <time>2021-10-28 13:53:42</time>
      </trkpt>
      <trkpt lat="43.29384" lon="-3.11869">
        <ele>150.6</ele>
        <time>2021-10-28 13:53:43</time>
      </trkpt>
      <trkpt lat="43.29387" lon="-3.11875">
        <ele>150.6</ele>
        <time>2021-10-28 13:53:44</time>
      </trkpt>
      <trkpt lat="43.29391" lon="-3.11882">
        <ele>150.6</ele>
        <time>2021-10-28 13:53:45</time>
      </trkpt>
      <trkpt lat="43.29394" lon="-3.11889">
        <ele>150.8</ele>
        <time>2021-10-28 13:53:46</time>
      </trkpt>
      <trkpt lat="43.29397" lon="-3.11896">
        <ele>150.8</ele>
        <time>2021-10-28 13:53:47</time>
      </trkpt>
      <trkpt lat="43.294" lon="-3.11903">
        <ele>150.8</ele>
        <time>2021-10-28 13:53:48</time>
      </trkpt>
      <trkpt lat="43.29403" lon="-3.11911">
        <ele>150.8</ele>
        <time>2021-10-28 13:53:49</time>
      </trkpt>
      <trkpt lat="43.29405" lon="-3.11919">
        <ele>150.8</ele>
        <time>2021-10-28 13:53:50</time>
      </trkpt>
      <trkpt lat="43.2941" lon="-3.11936">
        <ele>150.8</ele>
        <time>2021-10-28 13:53:51</time>
      </trkpt>
      <trkpt lat="43.2941" lon="-3.11936">
        <ele>150.6</ele>
        <time>2021-10-28 13:53:52</time>
      </trkpt>
      <trkpt lat="43.29413" lon="-3.11952">
        <ele>150.6</ele>
        <time>2021-10-28 13:53:53</time>
      </trkpt>
      <trkpt lat="43.29413" lon="-3.11952">
        <ele>150.6</ele>
        <time>2021-10-28 13:53:54</time>
      </trkpt>
      <trkpt lat="43.29414" lon="-3.11962">
        <ele>150.6</ele>
        <time>2021-10-28 13:53:55</time>
      </trkpt>
      <trkpt lat="43.29416" lon="-3.1197">
        <ele>150.6</ele>
        <time>2021-10-28 13:53:56</time>
      </trkpt>
      <trkpt lat="43.29417" lon="-3.11979">
        <ele>150.8</ele>
        <time>2021-10-28 13:53:57</time>
      </trkpt>
      <trkpt lat="43.29419" lon="-3.11987">
        <ele>150.8</ele>
        <time>2021-10-28 13:53:58</time>
      </trkpt>
      <trkpt lat="43.2942" lon="-3.11996">
        <ele>150.8</ele>
        <time>2021-10-28 13:53:59</time>
      </trkpt>
      <trkpt lat="43.29421" lon="-3.12004">
        <ele>151</ele>
        <time>2021-10-28 13:54:00</time>
      </trkpt>
      <trkpt lat="43.29424" lon="-3.12021">
        <ele>151</ele>
        <time>2021-10-28 13:54:01</time>
      </trkpt>
      <trkpt lat="43.29424" lon="-3.12021">
        <ele>151</ele>
        <time>2021-10-28 13:54:02</time>
      </trkpt>
      <trkpt lat="43.29426" lon="-3.1203">
        <ele>151.2</ele>
        <time>2021-10-28 13:54:03</time>
      </trkpt>
      <trkpt lat="43.29427" lon="-3.12038">
        <ele>151.2</ele>
        <time>2021-10-28 13:54:04</time>
      </trkpt>
      <trkpt lat="43.29431" lon="-3.12054">
        <ele>151.2</ele>
        <time>2021-10-28 13:54:05</time>
      </trkpt>
      <trkpt lat="43.29431" lon="-3.12054">
        <ele>151.2</ele>
        <time>2021-10-28 13:54:06</time>
      </trkpt>
      <trkpt lat="43.29434" lon="-3.12061">
        <ele>151.4</ele>
        <time>2021-10-28 13:54:07</time>
      </trkpt>
      <trkpt lat="43.29437" lon="-3.12068">
        <ele>151.4</ele>
        <time>2021-10-28 13:54:08</time>
      </trkpt>
      <trkpt lat="43.2944" lon="-3.12075">
        <ele>151.6</ele>
        <time>2021-10-28 13:54:09</time>
      </trkpt>
      <trkpt lat="43.29444" lon="-3.12079">
        <ele>151.6</ele>
        <time>2021-10-28 13:54:10</time>
      </trkpt>
      <trkpt lat="43.29448" lon="-3.12085">
        <ele>151.6</ele>
        <time>2021-10-28 13:54:11</time>
      </trkpt>
      <trkpt lat="43.29456" lon="-3.12095">
        <ele>151.6</ele>
        <time>2021-10-28 13:54:12</time>
      </trkpt>
      <trkpt lat="43.29456" lon="-3.12095">
        <ele>151.6</ele>
        <time>2021-10-28 13:54:13</time>
      </trkpt>
      <trkpt lat="43.29466" lon="-3.12102">
        <ele>151.8</ele>
        <time>2021-10-28 13:54:14</time>
      </trkpt>
      <trkpt lat="43.29466" lon="-3.12102">
        <ele>151.8</ele>
        <time>2021-10-28 13:54:15</time>
      </trkpt>
      <trkpt lat="43.29471" lon="-3.12105">
        <ele>151.8</ele>
        <time>2021-10-28 13:54:16</time>
      </trkpt>
      <trkpt lat="43.29483" lon="-3.12108">
        <ele>151.8</ele>
        <time>2021-10-28 13:54:17</time>
      </trkpt>
      <trkpt lat="43.29483" lon="-3.12108">
        <ele>151.8</ele>
        <time>2021-10-28 13:54:18</time>
      </trkpt>
      <trkpt lat="43.29488" lon="-3.12109">
        <ele>151.8</ele>
        <time>2021-10-28 13:54:19</time>
      </trkpt>
      <trkpt lat="43.29494" lon="-3.12111">
        <ele>152</ele>
        <time>2021-10-28 13:54:20</time>
      </trkpt>
      <trkpt lat="43.29505" lon="-3.12111">
        <ele>152</ele>
        <time>2021-10-28 13:54:21</time>
      </trkpt>
      <trkpt lat="43.29505" lon="-3.12111">
        <ele>152</ele>
        <time>2021-10-28 13:54:22</time>
      </trkpt>
      <trkpt lat="43.29515" lon="-3.12108">
        <ele>152.2</ele>
        <time>2021-10-28 13:54:23</time>
      </trkpt>
      <trkpt lat="43.29515" lon="-3.12108">
        <ele>152.2</ele>
        <time>2021-10-28 13:54:24</time>
      </trkpt>
      <trkpt lat="43.29522" lon="-3.12102">
        <ele>152</ele>
        <time>2021-10-28 13:54:25</time>
      </trkpt>
      <trkpt lat="43.29522" lon="-3.12102">
        <ele>152</ele>
        <time>2021-10-28 13:54:26</time>
      </trkpt>
      <trkpt lat="43.29526" lon="-3.12099">
        <ele>151.8</ele>
        <time>2021-10-28 13:54:27</time>
      </trkpt>
      <trkpt lat="43.29531" lon="-3.12095">
        <ele>151.8</ele>
        <time>2021-10-28 13:54:28</time>
      </trkpt>
      <trkpt lat="43.29536" lon="-3.12091">
        <ele>151.6</ele>
        <time>2021-10-28 13:54:29</time>
      </trkpt>
      <trkpt lat="43.29545" lon="-3.12082">
        <ele>151.6</ele>
        <time>2021-10-28 13:54:30</time>
      </trkpt>
      <trkpt lat="43.29545" lon="-3.12082">
        <ele>151.6</ele>
        <time>2021-10-28 13:54:31</time>
      </trkpt>
      <trkpt lat="43.2955" lon="-3.12078">
        <ele>151.6</ele>
        <time>2021-10-28 13:54:32</time>
      </trkpt>
      <trkpt lat="43.2955" lon="-3.12078">
        <ele>151.6</ele>
        <time>2021-10-28 13:54:33</time>
      </trkpt>
      <trkpt lat="43.2956" lon="-3.1207">
        <ele>151.6</ele>
        <time>2021-10-28 13:54:34</time>
      </trkpt>
      <trkpt lat="43.29564" lon="-3.12065">
        <ele>151.6</ele>
        <time>2021-10-28 13:54:35</time>
      </trkpt>
      <trkpt lat="43.29569" lon="-3.12061">
        <ele>151.6</ele>
        <time>2021-10-28 13:54:36</time>
      </trkpt>
      <trkpt lat="43.29573" lon="-3.12057">
        <ele>151.6</ele>
        <time>2021-10-28 13:54:37</time>
      </trkpt>
      <trkpt lat="43.29577" lon="-3.12052">
        <ele>151.6</ele>
        <time>2021-10-28 13:54:38</time>
      </trkpt>
      <trkpt lat="43.2958" lon="-3.12048">
        <ele>151.6</ele>
        <time>2021-10-28 13:54:39</time>
      </trkpt>
      <trkpt lat="43.29586" lon="-3.12043">
        <ele>151.4</ele>
        <time>2021-10-28 13:54:40</time>
      </trkpt>
      <trkpt lat="43.29586" lon="-3.12043">
        <ele>151.4</ele>
        <time>2021-10-28 13:54:41</time>
      </trkpt>
      <trkpt lat="43.29596" lon="-3.12034">
        <ele>151.4</ele>
        <time>2021-10-28 13:54:42</time>
      </trkpt>
      <trkpt lat="43.296" lon="-3.12029">
        <ele>151.4</ele>
        <time>2021-10-28 13:54:43</time>
      </trkpt>
      <trkpt lat="43.29604" lon="-3.12023">
        <ele>151.4</ele>
        <time>2021-10-28 13:54:44</time>
      </trkpt>
      <trkpt lat="43.29604" lon="-3.12023">
        <ele>151.4</ele>
        <time>2021-10-28 13:54:45</time>
      </trkpt>
      <trkpt lat="43.29613" lon="-3.12013">
        <ele>151.4</ele>
        <time>2021-10-28 13:54:46</time>
      </trkpt>
      <trkpt lat="43.29618" lon="-3.12007">
        <ele>151.2</ele>
        <time>2021-10-28 13:54:47</time>
      </trkpt>
      <trkpt lat="43.29623" lon="-3.12001">
        <ele>151.2</ele>
        <time>2021-10-28 13:54:48</time>
      </trkpt>
      <trkpt lat="43.29626" lon="-3.11995">
        <ele>151.2</ele>
        <time>2021-10-28 13:54:49</time>
      </trkpt>
      <trkpt lat="43.2963" lon="-3.11988">
        <ele>151.2</ele>
        <time>2021-10-28 13:54:50</time>
      </trkpt>
      <trkpt lat="43.29633" lon="-3.11982">
        <ele>151.2</ele>
        <time>2021-10-28 13:54:51</time>
      </trkpt>
      <trkpt lat="43.29637" lon="-3.11975">
        <ele>151.4</ele>
        <time>2021-10-28 13:54:52</time>
      </trkpt>
      <trkpt lat="43.2964" lon="-3.11969">
        <ele>151.4</ele>
        <time>2021-10-28 13:54:53</time>
      </trkpt>
      <trkpt lat="43.29643" lon="-3.11962">
        <ele>151.4</ele>
        <time>2021-10-28 13:54:54</time>
      </trkpt>
      <trkpt lat="43.2965" lon="-3.11949">
        <ele>151.4</ele>
        <time>2021-10-28 13:54:55</time>
      </trkpt>
      <trkpt lat="43.2965" lon="-3.11949">
        <ele>151.4</ele>
        <time>2021-10-28 13:54:56</time>
      </trkpt>
      <trkpt lat="43.29655" lon="-3.11944">
        <ele>151.4</ele>
        <time>2021-10-28 13:54:57</time>
      </trkpt>
      <trkpt lat="43.29659" lon="-3.11939">
        <ele>151.2</ele>
        <time>2021-10-28 13:54:58</time>
      </trkpt>
      <trkpt lat="43.29664" lon="-3.11934">
        <ele>151.2</ele>
        <time>2021-10-28 13:54:59</time>
      </trkpt>
      <trkpt lat="43.29669" lon="-3.1193">
        <ele>151.2</ele>
        <time>2021-10-28 13:55:00</time>
      </trkpt>
      <trkpt lat="43.29674" lon="-3.11927">
        <ele>151.2</ele>
        <time>2021-10-28 13:55:01</time>
      </trkpt>
      <trkpt lat="43.29679" lon="-3.11924">
        <ele>151.2</ele>
        <time>2021-10-28 13:55:02</time>
      </trkpt>
      <trkpt lat="43.29685" lon="-3.11921">
        <ele>151.2</ele>
        <time>2021-10-28 13:55:03</time>
      </trkpt>
      <trkpt lat="43.29696" lon="-3.11918">
        <ele>151.2</ele>
        <time>2021-10-28 13:55:04</time>
      </trkpt>
      <trkpt lat="43.29696" lon="-3.11918">
        <ele>151.2</ele>
        <time>2021-10-28 13:55:05</time>
      </trkpt>
      <trkpt lat="43.29702" lon="-3.11917">
        <ele>151.2</ele>
        <time>2021-10-28 13:55:06</time>
      </trkpt>
      <trkpt lat="43.29715" lon="-3.11918">
        <ele>151.2</ele>
        <time>2021-10-28 13:55:07</time>
      </trkpt>
      <trkpt lat="43.29715" lon="-3.11918">
        <ele>151.2</ele>
        <time>2021-10-28 13:55:08</time>
      </trkpt>
      <trkpt lat="43.29721" lon="-3.11919">
        <ele>151.2</ele>
        <time>2021-10-28 13:55:09</time>
      </trkpt>
      <trkpt lat="43.29733" lon="-3.11924">
        <ele>151.2</ele>
        <time>2021-10-28 13:55:10</time>
      </trkpt>
      <trkpt lat="43.29733" lon="-3.11924">
        <ele>151.2</ele>
        <time>2021-10-28 13:55:11</time>
      </trkpt>
      <trkpt lat="43.29739" lon="-3.11928">
        <ele>151.2</ele>
        <time>2021-10-28 13:55:12</time>
      </trkpt>
      <trkpt lat="43.29745" lon="-3.11932">
        <ele>151</ele>
        <time>2021-10-28 13:55:13</time>
      </trkpt>
      <trkpt lat="43.2975" lon="-3.11937">
        <ele>150.8</ele>
        <time>2021-10-28 13:55:14</time>
      </trkpt>
      <trkpt lat="43.29761" lon="-3.11945">
        <ele>150.6</ele>
        <time>2021-10-28 13:55:15</time>
      </trkpt>
      <trkpt lat="43.29761" lon="-3.11945">
        <ele>150.6</ele>
        <time>2021-10-28 13:55:16</time>
      </trkpt>
      <trkpt lat="43.29772" lon="-3.11953">
        <ele>150.4</ele>
        <time>2021-10-28 13:55:17</time>
      </trkpt>
      <trkpt lat="43.29772" lon="-3.11953">
        <ele>150.4</ele>
        <time>2021-10-28 13:55:18</time>
      </trkpt>
      <trkpt lat="43.29777" lon="-3.11957">
        <ele>150.4</ele>
        <time>2021-10-28 13:55:19</time>
      </trkpt>
      <trkpt lat="43.29789" lon="-3.11964">
        <ele>150.2</ele>
        <time>2021-10-28 13:55:20</time>
      </trkpt>
      <trkpt lat="43.29795" lon="-3.11967">
        <ele>150.2</ele>
        <time>2021-10-28 13:55:21</time>
      </trkpt>
      <trkpt lat="43.29808" lon="-3.11971">
        <ele>150.4</ele>
        <time>2021-10-28 13:55:22</time>
      </trkpt>
      <trkpt lat="43.29808" lon="-3.11971">
        <ele>150.6</ele>
        <time>2021-10-28 13:55:23</time>
      </trkpt>
      <trkpt lat="43.29821" lon="-3.11972">
        <ele>150.6</ele>
        <time>2021-10-28 13:55:24</time>
      </trkpt>
      <trkpt lat="43.29821" lon="-3.11972">
        <ele>150.6</ele>
        <time>2021-10-28 13:55:25</time>
      </trkpt>
      <trkpt lat="43.29828" lon="-3.11972">
        <ele>150.8</ele>
        <time>2021-10-28 13:55:26</time>
      </trkpt>
      <trkpt lat="43.29833" lon="-3.11971">
        <ele>150.8</ele>
        <time>2021-10-28 13:55:27</time>
      </trkpt>
      <trkpt lat="43.29839" lon="-3.1197">
        <ele>150.8</ele>
        <time>2021-10-28 13:55:28</time>
      </trkpt>
      <trkpt lat="43.29846" lon="-3.11968">
        <ele>151</ele>
        <time>2021-10-28 13:55:29</time>
      </trkpt>
      <trkpt lat="43.29851" lon="-3.11966">
        <ele>151</ele>
        <time>2021-10-28 13:55:30</time>
      </trkpt>
      <trkpt lat="43.29861" lon="-3.11959">
        <ele>151.2</ele>
        <time>2021-10-28 13:55:31</time>
      </trkpt>
      <trkpt lat="43.29861" lon="-3.11959">
        <ele>151.2</ele>
        <time>2021-10-28 13:55:32</time>
      </trkpt>
      <trkpt lat="43.29867" lon="-3.11955">
        <ele>151.2</ele>
        <time>2021-10-28 13:55:33</time>
      </trkpt>
      <trkpt lat="43.2987" lon="-3.11951">
        <ele>151.2</ele>
        <time>2021-10-28 13:55:34</time>
      </trkpt>
      <trkpt lat="43.2988" lon="-3.11944">
        <ele>151.2</ele>
        <time>2021-10-28 13:55:35</time>
      </trkpt>
      <trkpt lat="43.2988" lon="-3.11944">
        <ele>151.2</ele>
        <time>2021-10-28 13:55:36</time>
      </trkpt>
      <trkpt lat="43.29884" lon="-3.11941">
        <ele>151.2</ele>
        <time>2021-10-28 13:55:37</time>
      </trkpt>
      <trkpt lat="43.29895" lon="-3.11934">
        <ele>151.2</ele>
        <time>2021-10-28 13:55:38</time>
      </trkpt>
      <trkpt lat="43.29895" lon="-3.11934">
        <ele>151.2</ele>
        <time>2021-10-28 13:55:39</time>
      </trkpt>
      <trkpt lat="43.299" lon="-3.11931">
        <ele>151.2</ele>
        <time>2021-10-28 13:55:40</time>
      </trkpt>
      <trkpt lat="43.29913" lon="-3.11925">
        <ele>151.2</ele>
        <time>2021-10-28 13:55:41</time>
      </trkpt>
      <trkpt lat="43.29913" lon="-3.11925">
        <ele>151</ele>
        <time>2021-10-28 13:55:42</time>
      </trkpt>
      <trkpt lat="43.29927" lon="-3.1192">
        <ele>150.8</ele>
        <time>2021-10-28 13:55:43</time>
      </trkpt>
      <trkpt lat="43.29927" lon="-3.1192">
        <ele>150.8</ele>
        <time>2021-10-28 13:55:44</time>
      </trkpt>
      <trkpt lat="43.2994" lon="-3.11916">
        <ele>150.8</ele>
        <time>2021-10-28 13:55:45</time>
      </trkpt>
      <trkpt lat="43.2994" lon="-3.11916">
        <ele>150.8</ele>
        <time>2021-10-28 13:55:46</time>
      </trkpt>
      <trkpt lat="43.29954" lon="-3.11912">
        <ele>150.8</ele>
        <time>2021-10-28 13:55:47</time>
      </trkpt>
      <trkpt lat="43.29954" lon="-3.11912">
        <ele>150.8</ele>
        <time>2021-10-28 13:55:48</time>
      </trkpt>
      <trkpt lat="43.29967" lon="-3.11908">
        <ele>151</ele>
        <time>2021-10-28 13:55:49</time>
      </trkpt>
      <trkpt lat="43.29967" lon="-3.11908">
        <ele>151</ele>
        <time>2021-10-28 13:55:50</time>
      </trkpt>
      <trkpt lat="43.29974" lon="-3.11906">
        <ele>151</ele>
        <time>2021-10-28 13:55:51</time>
      </trkpt>
      <trkpt lat="43.29981" lon="-3.11903">
        <ele>151</ele>
        <time>2021-10-28 13:55:52</time>
      </trkpt>
      <trkpt lat="43.29995" lon="-3.11897">
        <ele>151</ele>
        <time>2021-10-28 13:55:53</time>
      </trkpt>
      <trkpt lat="43.29995" lon="-3.11897">
        <ele>151</ele>
        <time>2021-10-28 13:55:54</time>
      </trkpt>
      <trkpt lat="43.30007" lon="-3.11889">
        <ele>151</ele>
        <time>2021-10-28 13:55:55</time>
      </trkpt>
      <trkpt lat="43.30007" lon="-3.11889">
        <ele>150.8</ele>
        <time>2021-10-28 13:55:56</time>
      </trkpt>
      <trkpt lat="43.30017" lon="-3.11878">
        <ele>150.8</ele>
        <time>2021-10-28 13:55:57</time>
      </trkpt>
      <trkpt lat="43.30017" lon="-3.11878">
        <ele>151.4</ele>
        <time>2021-10-28 13:55:58</time>
      </trkpt>
      <trkpt lat="43.30026" lon="-3.11864">
        <ele>153.6</ele>
        <time>2021-10-28 13:55:59</time>
      </trkpt>
      <trkpt lat="43.30032" lon="-3.11849">
        <ele>153.6</ele>
        <time>2021-10-28 13:56:00</time>
      </trkpt>
      <trkpt lat="43.30032" lon="-3.11849">
        <ele>153.4</ele>
        <time>2021-10-28 13:56:01</time>
      </trkpt>
      <trkpt lat="43.30035" lon="-3.11841">
        <ele>152.6</ele>
        <time>2021-10-28 13:56:02</time>
      </trkpt>
      <trkpt lat="43.30038" lon="-3.11832">
        <ele>152</ele>
        <time>2021-10-28 13:56:03</time>
      </trkpt>
      <trkpt lat="43.30042" lon="-3.11823">
        <ele>151.8</ele>
        <time>2021-10-28 13:56:04</time>
      </trkpt>
      <trkpt lat="43.30045" lon="-3.11806">
        <ele>151.6</ele>
        <time>2021-10-28 13:56:05</time>
      </trkpt>
      <trkpt lat="43.30045" lon="-3.11806">
        <ele>151.6</ele>
        <time>2021-10-28 13:56:06</time>
      </trkpt>
      <trkpt lat="43.30044" lon="-3.11788">
        <ele>152</ele>
        <time>2021-10-28 13:56:07</time>
      </trkpt>
      <trkpt lat="43.30044" lon="-3.11788">
        <ele>152</ele>
        <time>2021-10-28 13:56:08</time>
      </trkpt>
      <trkpt lat="43.30043" lon="-3.1178">
        <ele>152</ele>
        <time>2021-10-28 13:56:09</time>
      </trkpt>
      <trkpt lat="43.30037" lon="-3.11755">
        <ele>151.8</ele>
        <time>2021-10-28 13:56:10</time>
      </trkpt>
      <trkpt lat="43.30037" lon="-3.11755">
        <ele>151.8</ele>
        <time>2021-10-28 13:56:11</time>
      </trkpt>
      <trkpt lat="43.30035" lon="-3.11747">
        <ele>151.8</ele>
        <time>2021-10-28 13:56:12</time>
      </trkpt>
      <trkpt lat="43.30032" lon="-3.11739">
        <ele>151.8</ele>
        <time>2021-10-28 13:56:13</time>
      </trkpt>
      <trkpt lat="43.3003" lon="-3.11731">
        <ele>151.8</ele>
        <time>2021-10-28 13:56:14</time>
      </trkpt>
      <trkpt lat="43.30027" lon="-3.11723">
        <ele>151.8</ele>
        <time>2021-10-28 13:56:15</time>
      </trkpt>
      <trkpt lat="43.30025" lon="-3.11715">
        <ele>151.8</ele>
        <time>2021-10-28 13:56:16</time>
      </trkpt>
      <trkpt lat="43.3002" lon="-3.11699">
        <ele>151.8</ele>
        <time>2021-10-28 13:56:17</time>
      </trkpt>
      <trkpt lat="43.3002" lon="-3.11699">
        <ele>152</ele>
        <time>2021-10-28 13:56:18</time>
      </trkpt>
      <trkpt lat="43.30016" lon="-3.11682">
        <ele>152</ele>
        <time>2021-10-28 13:56:19</time>
      </trkpt>
      <trkpt lat="43.30016" lon="-3.11682">
        <ele>152</ele>
        <time>2021-10-28 13:56:20</time>
      </trkpt>
      <trkpt lat="43.30014" lon="-3.11666">
        <ele>152</ele>
        <time>2021-10-28 13:56:21</time>
      </trkpt>
      <trkpt lat="43.30012" lon="-3.11658">
        <ele>152</ele>
        <time>2021-10-28 13:56:22</time>
      </trkpt>
      <trkpt lat="43.3001" lon="-3.11649">
        <ele>152</ele>
        <time>2021-10-28 13:56:24</time>
      </trkpt>
      <trkpt lat="43.30008" lon="-3.11641">
        <ele>152</ele>
        <time>2021-10-28 13:56:25</time>
      </trkpt>
      <trkpt lat="43.30002" lon="-3.11624">
        <ele>152</ele>
        <time>2021-10-28 13:56:26</time>
      </trkpt>
      <trkpt lat="43.30002" lon="-3.11624">
        <ele>152</ele>
        <time>2021-10-28 13:56:27</time>
      </trkpt>
      <trkpt lat="43.3" lon="-3.11616">
        <ele>152</ele>
        <time>2021-10-28 13:56:28</time>
      </trkpt>
      <trkpt lat="43.3" lon="-3.11616">
        <ele>152</ele>
        <time>2021-10-28 13:56:29</time>
      </trkpt>
      <trkpt lat="43.29993" lon="-3.11583">
        <ele>152.2</ele>
        <time>2021-10-28 13:56:30</time>
      </trkpt>
      <trkpt lat="43.29993" lon="-3.11583">
        <ele>152.2</ele>
        <time>2021-10-28 13:56:31</time>
      </trkpt>
      <trkpt lat="43.2999" lon="-3.11567">
        <ele>152.2</ele>
        <time>2021-10-28 13:56:32</time>
      </trkpt>
      <trkpt lat="43.2999" lon="-3.11567">
        <ele>152.2</ele>
        <time>2021-10-28 13:56:33</time>
      </trkpt>
      <trkpt lat="43.29986" lon="-3.1155">
        <ele>152.2</ele>
        <time>2021-10-28 13:56:34</time>
      </trkpt>
      <trkpt lat="43.29986" lon="-3.1155">
        <ele>152.2</ele>
        <time>2021-10-28 13:56:35</time>
      </trkpt>
      <trkpt lat="43.29985" lon="-3.11542">
        <ele>152.2</ele>
        <time>2021-10-28 13:56:37</time>
      </trkpt>
      <trkpt lat="43.29985" lon="-3.11542">
        <ele>152.2</ele>
        <time>2021-10-28 13:56:38</time>
      </trkpt>
      <trkpt lat="43.29982" lon="-3.11516">
        <ele>152</ele>
        <time>2021-10-28 13:56:39</time>
      </trkpt>
      <trkpt lat="43.29982" lon="-3.11516">
        <ele>152</ele>
        <time>2021-10-28 13:56:40</time>
      </trkpt>
      <trkpt lat="43.29984" lon="-3.11498">
        <ele>152</ele>
        <time>2021-10-28 13:56:41</time>
      </trkpt>
      <trkpt lat="43.29984" lon="-3.11498">
        <ele>152</ele>
        <time>2021-10-28 13:56:42</time>
      </trkpt>
      <trkpt lat="43.29987" lon="-3.11481">
        <ele>152</ele>
        <time>2021-10-28 13:56:43</time>
      </trkpt>
      <trkpt lat="43.29987" lon="-3.11481">
        <ele>152</ele>
        <time>2021-10-28 13:56:44</time>
      </trkpt>
      <trkpt lat="43.29991" lon="-3.11473">
        <ele>152</ele>
        <time>2021-10-28 13:56:45</time>
      </trkpt>
      <trkpt lat="43.29999" lon="-3.11457">
        <ele>152</ele>
        <time>2021-10-28 13:56:46</time>
      </trkpt>
      <trkpt lat="43.29999" lon="-3.11457">
        <ele>152</ele>
        <time>2021-10-28 13:56:47</time>
      </trkpt>
      <trkpt lat="43.30009" lon="-3.11443">
        <ele>152</ele>
        <time>2021-10-28 13:56:49</time>
      </trkpt>
      <trkpt lat="43.30009" lon="-3.11443">
        <ele>151.8</ele>
        <time>2021-10-28 13:56:50</time>
      </trkpt>
      <trkpt lat="43.30015" lon="-3.11437">
        <ele>151.8</ele>
        <time>2021-10-28 13:56:51</time>
      </trkpt>
      <trkpt lat="43.30027" lon="-3.11428">
        <ele>151.8</ele>
        <time>2021-10-28 13:56:52</time>
      </trkpt>
      <trkpt lat="43.30027" lon="-3.11428">
        <ele>151.8</ele>
        <time>2021-10-28 13:56:53</time>
      </trkpt>
      <trkpt lat="43.3004" lon="-3.11421">
        <ele>151.8</ele>
        <time>2021-10-28 13:56:54</time>
      </trkpt>
      <trkpt lat="43.3004" lon="-3.11421">
        <ele>151.8</ele>
        <time>2021-10-28 13:56:55</time>
      </trkpt>
      <trkpt lat="43.30052" lon="-3.11419">
        <ele>152</ele>
        <time>2021-10-28 13:56:56</time>
      </trkpt>
      <trkpt lat="43.30052" lon="-3.11419">
        <ele>152.4</ele>
        <time>2021-10-28 13:56:58</time>
      </trkpt>
      <trkpt lat="43.30064" lon="-3.11419">
        <ele>152.4</ele>
        <time>2021-10-28 13:56:59</time>
      </trkpt>
      <trkpt lat="43.30064" lon="-3.11419">
        <ele>152.4</ele>
        <time>2021-10-28 13:57:00</time>
      </trkpt>
      <trkpt lat="43.30076" lon="-3.11422">
        <ele>152.4</ele>
        <time>2021-10-28 13:57:01</time>
      </trkpt>
      <trkpt lat="43.30076" lon="-3.11422">
        <ele>152.4</ele>
        <time>2021-10-28 13:57:02</time>
      </trkpt>
      <trkpt lat="43.30088" lon="-3.11427">
        <ele>152.4</ele>
        <time>2021-10-28 13:57:03</time>
      </trkpt>
      <trkpt lat="43.30088" lon="-3.11427">
        <ele>152.4</ele>
        <time>2021-10-28 13:57:04</time>
      </trkpt>
      <trkpt lat="43.30093" lon="-3.11433">
        <ele>152.4</ele>
        <time>2021-10-28 13:57:05</time>
      </trkpt>
      <trkpt lat="43.30104" lon="-3.11444">
        <ele>152.2</ele>
        <time>2021-10-28 13:57:06</time>
      </trkpt>
      <trkpt lat="43.3011" lon="-3.1145">
        <ele>152.2</ele>
        <time>2021-10-28 13:57:07</time>
      </trkpt>
      <trkpt lat="43.30115" lon="-3.11457">
        <ele>152.2</ele>
        <time>2021-10-28 13:57:08</time>
      </trkpt>
      <trkpt lat="43.30125" lon="-3.11468">
        <ele>152.2</ele>
        <time>2021-10-28 13:57:09</time>
      </trkpt>
      <trkpt lat="43.30125" lon="-3.11468">
        <ele>152.4</ele>
        <time>2021-10-28 13:57:10</time>
      </trkpt>
      <trkpt lat="43.3013" lon="-3.11473">
        <ele>152.4</ele>
        <time>2021-10-28 13:57:11</time>
      </trkpt>
      <trkpt lat="43.30138" lon="-3.11484">
        <ele>152.4</ele>
        <time>2021-10-28 13:57:12</time>
      </trkpt>
      <trkpt lat="43.30138" lon="-3.11484">
        <ele>152.6</ele>
        <time>2021-10-28 13:57:13</time>
      </trkpt>
      <trkpt lat="43.30147" lon="-3.11495">
        <ele>152.6</ele>
        <time>2021-10-28 13:57:14</time>
      </trkpt>
      <trkpt lat="43.30147" lon="-3.11495">
        <ele>152.6</ele>
        <time>2021-10-28 13:57:15</time>
      </trkpt>
      <trkpt lat="43.30152" lon="-3.115">
        <ele>152.6</ele>
        <time>2021-10-28 13:57:16</time>
      </trkpt>
      <trkpt lat="43.3016" lon="-3.11508">
        <ele>152.4</ele>
        <time>2021-10-28 13:57:17</time>
      </trkpt>
      <trkpt lat="43.3016" lon="-3.11508">
        <ele>152.4</ele>
        <time>2021-10-28 13:57:18</time>
      </trkpt>
      <trkpt lat="43.30165" lon="-3.11512">
        <ele>152.4</ele>
        <time>2021-10-28 13:57:19</time>
      </trkpt>
      <trkpt lat="43.30168" lon="-3.11516">
        <ele>152.4</ele>
        <time>2021-10-28 13:57:20</time>
      </trkpt>
      <trkpt lat="43.30178" lon="-3.11525">
        <ele>152.6</ele>
        <time>2021-10-28 13:57:21</time>
      </trkpt>
      <trkpt lat="43.30178" lon="-3.11525">
        <ele>152.6</ele>
        <time>2021-10-28 13:57:22</time>
      </trkpt>
      <trkpt lat="43.30182" lon="-3.1153">
        <ele>152.6</ele>
        <time>2021-10-28 13:57:23</time>
      </trkpt>
      <trkpt lat="43.30187" lon="-3.11534">
        <ele>152.4</ele>
        <time>2021-10-28 13:57:24</time>
      </trkpt>
      <trkpt lat="43.30193" lon="-3.11538">
        <ele>152.4</ele>
        <time>2021-10-28 13:57:25</time>
      </trkpt>
      <trkpt lat="43.30198" lon="-3.11542">
        <ele>152.2</ele>
        <time>2021-10-28 13:57:26</time>
      </trkpt>
      <trkpt lat="43.30203" lon="-3.11546">
        <ele>152.2</ele>
        <time>2021-10-28 13:57:27</time>
      </trkpt>
      <trkpt lat="43.30209" lon="-3.1155">
        <ele>152</ele>
        <time>2021-10-28 13:57:28</time>
      </trkpt>
      <trkpt lat="43.30218" lon="-3.11559">
        <ele>152</ele>
        <time>2021-10-28 13:57:29</time>
      </trkpt>
      <trkpt lat="43.30218" lon="-3.11559">
        <ele>152.2</ele>
        <time>2021-10-28 13:57:30</time>
      </trkpt>
      <trkpt lat="43.30223" lon="-3.11563">
        <ele>152.2</ele>
        <time>2021-10-28 13:57:32</time>
      </trkpt>
      <trkpt lat="43.30232" lon="-3.11569">
        <ele>152.2</ele>
        <time>2021-10-28 13:57:33</time>
      </trkpt>
      <trkpt lat="43.30232" lon="-3.11569">
        <ele>152.2</ele>
        <time>2021-10-28 13:57:34</time>
      </trkpt>
      <trkpt lat="43.30241" lon="-3.11575">
        <ele>152.2</ele>
        <time>2021-10-28 13:57:35</time>
      </trkpt>
      <trkpt lat="43.30241" lon="-3.11575">
        <ele>152</ele>
        <time>2021-10-28 13:57:36</time>
      </trkpt>
      <trkpt lat="43.30245" lon="-3.11577">
        <ele>152</ele>
        <time>2021-10-28 13:57:37</time>
      </trkpt>
      <trkpt lat="43.30252" lon="-3.11582">
        <ele>152</ele>
        <time>2021-10-28 13:57:38</time>
      </trkpt>
      <trkpt lat="43.30252" lon="-3.11582">
        <ele>152</ele>
        <time>2021-10-28 13:57:39</time>
      </trkpt>
      <trkpt lat="43.3026" lon="-3.11589">
        <ele>152</ele>
        <time>2021-10-28 13:57:40</time>
      </trkpt>
      <trkpt lat="43.3026" lon="-3.11589">
        <ele>152</ele>
        <time>2021-10-28 13:57:41</time>
      </trkpt>
      <trkpt lat="43.30268" lon="-3.11595">
        <ele>152</ele>
        <time>2021-10-28 13:57:42</time>
      </trkpt>
      <trkpt lat="43.30268" lon="-3.11595">
        <ele>152</ele>
        <time>2021-10-28 13:57:43</time>
      </trkpt>
      <trkpt lat="43.30273" lon="-3.11599">
        <ele>152</ele>
        <time>2021-10-28 13:57:44</time>
      </trkpt>
      <trkpt lat="43.30282" lon="-3.11607">
        <ele>152</ele>
        <time>2021-10-28 13:57:45</time>
      </trkpt>
      <trkpt lat="43.30282" lon="-3.11607">
        <ele>152</ele>
        <time>2021-10-28 13:57:46</time>
      </trkpt>
      <trkpt lat="43.30292" lon="-3.11615">
        <ele>152</ele>
        <time>2021-10-28 13:57:47</time>
      </trkpt>
      <trkpt lat="43.30292" lon="-3.11615">
        <ele>152</ele>
        <time>2021-10-28 13:57:48</time>
      </trkpt>
      <trkpt lat="43.30301" lon="-3.11623">
        <ele>151.8</ele>
        <time>2021-10-28 13:57:49</time>
      </trkpt>
      <trkpt lat="43.30301" lon="-3.11623">
        <ele>151.8</ele>
        <time>2021-10-28 13:57:50</time>
      </trkpt>
      <trkpt lat="43.30305" lon="-3.11628">
        <ele>151.8</ele>
        <time>2021-10-28 13:57:51</time>
      </trkpt>
      <trkpt lat="43.30305" lon="-3.11628">
        <ele>151.8</ele>
        <time>2021-10-28 13:57:52</time>
      </trkpt>
      <trkpt lat="43.30316" lon="-3.11637">
        <ele>151.8</ele>
        <time>2021-10-28 13:57:53</time>
      </trkpt>
      <trkpt lat="43.30321" lon="-3.11642">
        <ele>151.8</ele>
        <time>2021-10-28 13:57:54</time>
      </trkpt>
      <trkpt lat="43.30326" lon="-3.11647">
        <ele>151.8</ele>
        <time>2021-10-28 13:57:55</time>
      </trkpt>
      <trkpt lat="43.30331" lon="-3.11652">
        <ele>151.6</ele>
        <time>2021-10-28 13:57:56</time>
      </trkpt>
      <trkpt lat="43.30341" lon="-3.1166">
        <ele>151.6</ele>
        <time>2021-10-28 13:57:57</time>
      </trkpt>
      <trkpt lat="43.30341" lon="-3.1166">
        <ele>151.6</ele>
        <time>2021-10-28 13:57:58</time>
      </trkpt>
      <trkpt lat="43.30346" lon="-3.11665">
        <ele>151.6</ele>
        <time>2021-10-28 13:57:59</time>
      </trkpt>
      <trkpt lat="43.30351" lon="-3.11669">
        <ele>151.6</ele>
        <time>2021-10-28 13:58:00</time>
      </trkpt>
      <trkpt lat="43.30351" lon="-3.11669">
        <ele>151.6</ele>
        <time>2021-10-28 13:58:01</time>
      </trkpt>
      <trkpt lat="43.30362" lon="-3.11677">
        <ele>151.6</ele>
        <time>2021-10-28 13:58:02</time>
      </trkpt>
      <trkpt lat="43.30367" lon="-3.11681">
        <ele>151.6</ele>
        <time>2021-10-28 13:58:03</time>
      </trkpt>
      <trkpt lat="43.30378" lon="-3.1169">
        <ele>151.6</ele>
        <time>2021-10-28 13:58:04</time>
      </trkpt>
      <trkpt lat="43.30378" lon="-3.1169">
        <ele>151.2</ele>
        <time>2021-10-28 13:58:05</time>
      </trkpt>
      <trkpt lat="43.30383" lon="-3.11694">
        <ele>151</ele>
        <time>2021-10-28 13:58:06</time>
      </trkpt>
      <trkpt lat="43.30389" lon="-3.11697">
        <ele>150.8</ele>
        <time>2021-10-28 13:58:07</time>
      </trkpt>
      <trkpt lat="43.30395" lon="-3.11701">
        <ele>150.8</ele>
        <time>2021-10-28 13:58:08</time>
      </trkpt>
      <trkpt lat="43.30407" lon="-3.11707">
        <ele>151</ele>
        <time>2021-10-28 13:58:09</time>
      </trkpt>
      <trkpt lat="43.30407" lon="-3.11707">
        <ele>151.2</ele>
        <time>2021-10-28 13:58:10</time>
      </trkpt>
      <trkpt lat="43.30419" lon="-3.11712">
        <ele>151.4</ele>
        <time>2021-10-28 13:58:11</time>
      </trkpt>
      <trkpt lat="43.30419" lon="-3.11712">
        <ele>151.6</ele>
        <time>2021-10-28 13:58:12</time>
      </trkpt>
      <trkpt lat="43.30425" lon="-3.11714">
        <ele>151.8</ele>
        <time>2021-10-28 13:58:13</time>
      </trkpt>
      <trkpt lat="43.30431" lon="-3.11716">
        <ele>151.8</ele>
        <time>2021-10-28 13:58:14</time>
      </trkpt>
      <trkpt lat="43.30436" lon="-3.11718">
        <ele>152</ele>
        <time>2021-10-28 13:58:15</time>
      </trkpt>
      <trkpt lat="43.30442" lon="-3.11721">
        <ele>152</ele>
        <time>2021-10-28 13:58:16</time>
      </trkpt>
      <trkpt lat="43.30448" lon="-3.11723">
        <ele>152.2</ele>
        <time>2021-10-28 13:58:17</time>
      </trkpt>
      <trkpt lat="43.30459" lon="-3.11727">
        <ele>152.2</ele>
        <time>2021-10-28 13:58:18</time>
      </trkpt>
      <trkpt lat="43.30459" lon="-3.11727">
        <ele>152.4</ele>
        <time>2021-10-28 13:58:19</time>
      </trkpt>
      <trkpt lat="43.30465" lon="-3.1173">
        <ele>152.6</ele>
        <time>2021-10-28 13:58:20</time>
      </trkpt>
      <trkpt lat="43.30465" lon="-3.1173">
        <ele>152.6</ele>
        <time>2021-10-28 13:58:21</time>
      </trkpt>
      <trkpt lat="43.30475" lon="-3.11735">
        <ele>152.6</ele>
        <time>2021-10-28 13:58:22</time>
      </trkpt>
      <trkpt lat="43.3048" lon="-3.11737">
        <ele>152.8</ele>
        <time>2021-10-28 13:58:23</time>
      </trkpt>
      <trkpt lat="43.30486" lon="-3.11739">
        <ele>152.8</ele>
        <time>2021-10-28 13:58:24</time>
      </trkpt>
      <trkpt lat="43.30492" lon="-3.11741">
        <ele>152.8</ele>
        <time>2021-10-28 13:58:25</time>
      </trkpt>
      <trkpt lat="43.30504" lon="-3.11746">
        <ele>152.8</ele>
        <time>2021-10-28 13:58:26</time>
      </trkpt>
      <trkpt lat="43.30504" lon="-3.11746">
        <ele>152.8</ele>
        <time>2021-10-28 13:58:27</time>
      </trkpt>
      <trkpt lat="43.3051" lon="-3.11748">
        <ele>152.8</ele>
        <time>2021-10-28 13:58:28</time>
      </trkpt>
      <trkpt lat="43.30515" lon="-3.1175">
        <ele>152.8</ele>
        <time>2021-10-28 13:58:29</time>
      </trkpt>
      <trkpt lat="43.30522" lon="-3.11752">
        <ele>153</ele>
        <time>2021-10-28 13:58:30</time>
      </trkpt>
      <trkpt lat="43.30528" lon="-3.11754">
        <ele>153</ele>
        <time>2021-10-28 13:58:31</time>
      </trkpt>
      <trkpt lat="43.30533" lon="-3.11756">
        <ele>153</ele>
        <time>2021-10-28 13:58:32</time>
      </trkpt>
      <trkpt lat="43.30545" lon="-3.1176">
        <ele>153</ele>
        <time>2021-10-28 13:58:33</time>
      </trkpt>
      <trkpt lat="43.30545" lon="-3.1176">
        <ele>153.2</ele>
        <time>2021-10-28 13:58:34</time>
      </trkpt>
      <trkpt lat="43.3055" lon="-3.11762">
        <ele>153.2</ele>
        <time>2021-10-28 13:58:35</time>
      </trkpt>
      <trkpt lat="43.30556" lon="-3.11765">
        <ele>153.2</ele>
        <time>2021-10-28 13:58:36</time>
      </trkpt>
      <trkpt lat="43.30566" lon="-3.1177">
        <ele>153.6</ele>
        <time>2021-10-28 13:58:37</time>
      </trkpt>
      <trkpt lat="43.30566" lon="-3.1177">
        <ele>153.6</ele>
        <time>2021-10-28 13:58:38</time>
      </trkpt>
      <trkpt lat="43.30572" lon="-3.11772">
        <ele>153.8</ele>
        <time>2021-10-28 13:58:39</time>
      </trkpt>
      <trkpt lat="43.30578" lon="-3.11774">
        <ele>153.8</ele>
        <time>2021-10-28 13:58:40</time>
      </trkpt>
      <trkpt lat="43.30578" lon="-3.11774">
        <ele>154</ele>
        <time>2021-10-28 13:58:41</time>
      </trkpt>
      <trkpt lat="43.30587" lon="-3.11779">
        <ele>154</ele>
        <time>2021-10-28 13:58:42</time>
      </trkpt>
      <trkpt lat="43.30592" lon="-3.11782">
        <ele>154</ele>
        <time>2021-10-28 13:58:43</time>
      </trkpt>
      <trkpt lat="43.30597" lon="-3.11785">
        <ele>154</ele>
        <time>2021-10-28 13:58:44</time>
      </trkpt>
      <trkpt lat="43.30609" lon="-3.1179">
        <ele>154</ele>
        <time>2021-10-28 13:58:45</time>
      </trkpt>
      <trkpt lat="43.30609" lon="-3.1179">
        <ele>154.2</ele>
        <time>2021-10-28 13:58:46</time>
      </trkpt>
      <trkpt lat="43.30614" lon="-3.11792">
        <ele>154.2</ele>
        <time>2021-10-28 13:58:47</time>
      </trkpt>
      <trkpt lat="43.3062" lon="-3.11795">
        <ele>154.4</ele>
        <time>2021-10-28 13:58:48</time>
      </trkpt>
      <trkpt lat="43.30631" lon="-3.118">
        <ele>154.4</ele>
        <time>2021-10-28 13:58:49</time>
      </trkpt>
      <trkpt lat="43.30631" lon="-3.118">
        <ele>154.6</ele>
        <time>2021-10-28 13:58:50</time>
      </trkpt>
      <trkpt lat="43.30642" lon="-3.11804">
        <ele>154.6</ele>
        <time>2021-10-28 13:58:51</time>
      </trkpt>
      <trkpt lat="43.30642" lon="-3.11804">
        <ele>154.8</ele>
        <time>2021-10-28 13:58:52</time>
      </trkpt>
      <trkpt lat="43.30647" lon="-3.11805">
        <ele>154.8</ele>
        <time>2021-10-28 13:58:53</time>
      </trkpt>
      <trkpt lat="43.30653" lon="-3.11806">
        <ele>155</ele>
        <time>2021-10-28 13:58:54</time>
      </trkpt>
      <trkpt lat="43.30665" lon="-3.11806">
        <ele>155</ele>
        <time>2021-10-28 13:58:55</time>
      </trkpt>
      <trkpt lat="43.30665" lon="-3.11806">
        <ele>154.6</ele>
        <time>2021-10-28 13:58:56</time>
      </trkpt>
      <trkpt lat="43.30675" lon="-3.11804">
        <ele>156.2</ele>
        <time>2021-10-28 13:58:57</time>
      </trkpt>
      <trkpt lat="43.3068" lon="-3.11803">
        <ele>152.6</ele>
        <time>2021-10-28 13:58:58</time>
      </trkpt>
      <trkpt lat="43.30692" lon="-3.11799">
        <ele>150.6</ele>
        <time>2021-10-28 13:58:59</time>
      </trkpt>
      <trkpt lat="43.30696" lon="-3.11796">
        <ele>150.6</ele>
        <time>2021-10-28 13:59:00</time>
      </trkpt>
      <trkpt lat="43.30706" lon="-3.11791">
        <ele>151.4</ele>
        <time>2021-10-28 13:59:01</time>
      </trkpt>
      <trkpt lat="43.30706" lon="-3.11791">
        <ele>154.8</ele>
        <time>2021-10-28 13:59:02</time>
      </trkpt>
      <trkpt lat="43.30711" lon="-3.11789">
        <ele>157</ele>
        <time>2021-10-28 13:59:03</time>
      </trkpt>
      <trkpt lat="43.30716" lon="-3.11786">
        <ele>156.2</ele>
        <time>2021-10-28 13:59:04</time>
      </trkpt>
      <trkpt lat="43.30725" lon="-3.11782">
        <ele>156.2</ele>
        <time>2021-10-28 13:59:05</time>
      </trkpt>
      <trkpt lat="43.30725" lon="-3.11782">
        <ele>156</ele>
        <time>2021-10-28 13:59:06</time>
      </trkpt>
      <trkpt lat="43.30733" lon="-3.11776">
        <ele>156</ele>
        <time>2021-10-28 13:59:07</time>
      </trkpt>
      <trkpt lat="43.30733" lon="-3.11776">
        <ele>156</ele>
        <time>2021-10-28 13:59:08</time>
      </trkpt>
      <trkpt lat="43.30738" lon="-3.11772">
        <ele>156</ele>
        <time>2021-10-28 13:59:09</time>
      </trkpt>
      <trkpt lat="43.30743" lon="-3.11769">
        <ele>156.2</ele>
        <time>2021-10-28 13:59:10</time>
      </trkpt>
      <trkpt lat="43.30749" lon="-3.11767">
        <ele>156.2</ele>
        <time>2021-10-28 13:59:11</time>
      </trkpt>
      <trkpt lat="43.30755" lon="-3.11765">
        <ele>156.2</ele>
        <time>2021-10-28 13:59:12</time>
      </trkpt>
      <trkpt lat="43.30766" lon="-3.1176">
        <ele>156.4</ele>
        <time>2021-10-28 13:59:13</time>
      </trkpt>
      <trkpt lat="43.30766" lon="-3.1176">
        <ele>156.4</ele>
        <time>2021-10-28 13:59:14</time>
      </trkpt>
      <trkpt lat="43.30776" lon="-3.11754">
        <ele>156.6</ele>
        <time>2021-10-28 13:59:15</time>
      </trkpt>
      <trkpt lat="43.30776" lon="-3.11754">
        <ele>156.6</ele>
        <time>2021-10-28 13:59:16</time>
      </trkpt>
      <trkpt lat="43.30782" lon="-3.11751">
        <ele>156.6</ele>
        <time>2021-10-28 13:59:17</time>
      </trkpt>
      <trkpt lat="43.30792" lon="-3.11746">
        <ele>156.6</ele>
        <time>2021-10-28 13:59:18</time>
      </trkpt>
      <trkpt lat="43.30792" lon="-3.11746">
        <ele>156.6</ele>
        <time>2021-10-28 13:59:19</time>
      </trkpt>
      <trkpt lat="43.30797" lon="-3.11743">
        <ele>156.6</ele>
        <time>2021-10-28 13:59:20</time>
      </trkpt>
      <trkpt lat="43.30801" lon="-3.1174">
        <ele>156.6</ele>
        <time>2021-10-28 13:59:21</time>
      </trkpt>
      <trkpt lat="43.30812" lon="-3.11733">
        <ele>156.8</ele>
        <time>2021-10-28 13:59:23</time>
      </trkpt>
      <trkpt lat="43.30812" lon="-3.11733">
        <ele>156.8</ele>
        <time>2021-10-28 13:59:24</time>
      </trkpt>
      <trkpt lat="43.30817" lon="-3.1173">
        <ele>156.8</ele>
        <time>2021-10-28 13:59:25</time>
      </trkpt>
      <trkpt lat="43.30821" lon="-3.11727">
        <ele>157</ele>
        <time>2021-10-28 13:59:27</time>
      </trkpt>
      <trkpt lat="43.30825" lon="-3.11724">
        <ele>157</ele>
        <time>2021-10-28 13:59:28</time>
      </trkpt>
      <trkpt lat="43.30833" lon="-3.1172">
        <ele>157</ele>
        <time>2021-10-28 13:59:29</time>
      </trkpt>
      <trkpt lat="43.30833" lon="-3.1172">
        <ele>157</ele>
        <time>2021-10-28 13:59:30</time>
      </trkpt>
      <trkpt lat="43.30837" lon="-3.11716">
        <ele>157</ele>
        <time>2021-10-28 13:59:31</time>
      </trkpt>
      <trkpt lat="43.30847" lon="-3.1171">
        <ele>157</ele>
        <time>2021-10-28 13:59:32</time>
      </trkpt>
      <trkpt lat="43.30847" lon="-3.1171">
        <ele>156.8</ele>
        <time>2021-10-28 13:59:33</time>
      </trkpt>
      <trkpt lat="43.30856" lon="-3.11703">
        <ele>156.8</ele>
        <time>2021-10-28 13:59:34</time>
      </trkpt>
      <trkpt lat="43.30856" lon="-3.11703">
        <ele>156.8</ele>
        <time>2021-10-28 13:59:35</time>
      </trkpt>
      <trkpt lat="43.30861" lon="-3.117">
        <ele>156.8</ele>
        <time>2021-10-28 13:59:36</time>
      </trkpt>
      <trkpt lat="43.30865" lon="-3.11697">
        <ele>156.8</ele>
        <time>2021-10-28 13:59:37</time>
      </trkpt>
      <trkpt lat="43.30871" lon="-3.11694">
        <ele>156.8</ele>
        <time>2021-10-28 13:59:38</time>
      </trkpt>
      <trkpt lat="43.30876" lon="-3.1169">
        <ele>157</ele>
        <time>2021-10-28 13:59:39</time>
      </trkpt>
      <trkpt lat="43.30882" lon="-3.11687">
        <ele>157</ele>
        <time>2021-10-28 13:59:40</time>
      </trkpt>
      <trkpt lat="43.30887" lon="-3.11684">
        <ele>157</ele>
        <time>2021-10-28 13:59:41</time>
      </trkpt>
      <trkpt lat="43.30893" lon="-3.11681">
        <ele>157.2</ele>
        <time>2021-10-28 13:59:42</time>
      </trkpt>
      <trkpt lat="43.30899" lon="-3.11678">
        <ele>157.2</ele>
        <time>2021-10-28 13:59:43</time>
      </trkpt>
      <trkpt lat="43.30906" lon="-3.11675">
        <ele>157.2</ele>
        <time>2021-10-28 13:59:44</time>
      </trkpt>
      <trkpt lat="43.30921" lon="-3.11669">
        <ele>157.2</ele>
        <time>2021-10-28 13:59:45</time>
      </trkpt>
      <trkpt lat="43.30921" lon="-3.11669">
        <ele>157.2</ele>
        <time>2021-10-28 13:59:46</time>
      </trkpt>
      <trkpt lat="43.30932" lon="-3.11662">
        <ele>157.2</ele>
        <time>2021-10-28 13:59:47</time>
      </trkpt>
      <trkpt lat="43.30932" lon="-3.11662">
        <ele>157.2</ele>
        <time>2021-10-28 13:59:48</time>
      </trkpt>
      <trkpt lat="43.30938" lon="-3.11659">
        <ele>157.4</ele>
        <time>2021-10-28 13:59:49</time>
      </trkpt>
      <trkpt lat="43.3095" lon="-3.11651">
        <ele>157.4</ele>
        <time>2021-10-28 13:59:50</time>
      </trkpt>
      <trkpt lat="43.3095" lon="-3.11651">
        <ele>157.4</ele>
        <time>2021-10-28 13:59:51</time>
      </trkpt>
      <trkpt lat="43.30956" lon="-3.11646">
        <ele>157.4</ele>
        <time>2021-10-28 13:59:52</time>
      </trkpt>
      <trkpt lat="43.30962" lon="-3.11641">
        <ele>157.6</ele>
        <time>2021-10-28 13:59:53</time>
      </trkpt>
      <trkpt lat="43.30968" lon="-3.11637">
        <ele>157.6</ele>
        <time>2021-10-28 13:59:54</time>
      </trkpt>
      <trkpt lat="43.30974" lon="-3.11631">
        <ele>157.6</ele>
        <time>2021-10-28 13:59:55</time>
      </trkpt>
      <trkpt lat="43.30982" lon="-3.1162">
        <ele>157.6</ele>
        <time>2021-10-28 13:59:56</time>
      </trkpt>
      <trkpt lat="43.30982" lon="-3.1162">
        <ele>157.8</ele>
        <time>2021-10-28 13:59:57</time>
      </trkpt>
      <trkpt lat="43.30991" lon="-3.11608">
        <ele>157.8</ele>
        <time>2021-10-28 13:59:58</time>
      </trkpt>
      <trkpt lat="43.30991" lon="-3.11608">
        <ele>157.8</ele>
        <time>2021-10-28 13:59:59</time>
      </trkpt>
      <trkpt lat="43.30995" lon="-3.11601">
        <ele>157.8</ele>
        <time>2021-10-28 14:00:00</time>
      </trkpt>
      <trkpt lat="43.30998" lon="-3.11595">
        <ele>157.8</ele>
        <time>2021-10-28 14:00:01</time>
      </trkpt>
      <trkpt lat="43.31001" lon="-3.11588">
        <ele>158</ele>
        <time>2021-10-28 14:00:02</time>
      </trkpt>
      <trkpt lat="43.31004" lon="-3.11581">
        <ele>158</ele>
        <time>2021-10-28 14:00:03</time>
      </trkpt>
      <trkpt lat="43.31007" lon="-3.11568">
        <ele>158</ele>
        <time>2021-10-28 14:00:04</time>
      </trkpt>
      <trkpt lat="43.31007" lon="-3.11568">
        <ele>158</ele>
        <time>2021-10-28 14:00:05</time>
      </trkpt>
      <trkpt lat="43.31009" lon="-3.11561">
        <ele>158</ele>
        <time>2021-10-28 14:00:06</time>
      </trkpt>
      <trkpt lat="43.31011" lon="-3.11554">
        <ele>158</ele>
        <time>2021-10-28 14:00:07</time>
      </trkpt>
      <trkpt lat="43.31015" lon="-3.11539">
        <ele>158</ele>
        <time>2021-10-28 14:00:08</time>
      </trkpt>
      <trkpt lat="43.31015" lon="-3.11539">
        <ele>158</ele>
        <time>2021-10-28 14:00:09</time>
      </trkpt>
      <trkpt lat="43.31017" lon="-3.11532">
        <ele>158</ele>
        <time>2021-10-28 14:00:10</time>
      </trkpt>
      <trkpt lat="43.31018" lon="-3.11525">
        <ele>158</ele>
        <time>2021-10-28 14:00:11</time>
      </trkpt>
      <trkpt lat="43.31021" lon="-3.11519">
        <ele>158</ele>
        <time>2021-10-28 14:00:12</time>
      </trkpt>
      <trkpt lat="43.31023" lon="-3.11512">
        <ele>158.2</ele>
        <time>2021-10-28 14:00:13</time>
      </trkpt>
      <trkpt lat="43.31026" lon="-3.11505">
        <ele>158.2</ele>
        <time>2021-10-28 14:00:14</time>
      </trkpt>
      <trkpt lat="43.31029" lon="-3.11498">
        <ele>158.2</ele>
        <time>2021-10-28 14:00:15</time>
      </trkpt>
      <trkpt lat="43.31032" lon="-3.11492">
        <ele>158.2</ele>
        <time>2021-10-28 14:00:16</time>
      </trkpt>
      <trkpt lat="43.31035" lon="-3.11486">
        <ele>158.2</ele>
        <time>2021-10-28 14:00:17</time>
      </trkpt>
      <trkpt lat="43.3104" lon="-3.11478">
        <ele>158.2</ele>
        <time>2021-10-28 14:00:18</time>
      </trkpt>
      <trkpt lat="43.31044" lon="-3.11472">
        <ele>158.2</ele>
        <time>2021-10-28 14:00:19</time>
      </trkpt>
      <trkpt lat="43.31046" lon="-3.11467">
        <ele>158</ele>
        <time>2021-10-28 14:00:20</time>
      </trkpt>
      <trkpt lat="43.3105" lon="-3.11461">
        <ele>158</ele>
        <time>2021-10-28 14:00:21</time>
      </trkpt>
      <trkpt lat="43.31053" lon="-3.11456">
        <ele>158</ele>
        <time>2021-10-28 14:00:22</time>
      </trkpt>
      <trkpt lat="43.31057" lon="-3.11451">
        <ele>158</ele>
        <time>2021-10-28 14:00:23</time>
      </trkpt>
      <trkpt lat="43.31061" lon="-3.11446">
        <ele>158.2</ele>
        <time>2021-10-28 14:00:24</time>
      </trkpt>
      <trkpt lat="43.31066" lon="-3.11441">
        <ele>158.2</ele>
        <time>2021-10-28 14:00:25</time>
      </trkpt>
      <trkpt lat="43.31071" lon="-3.11436">
        <ele>158.2</ele>
        <time>2021-10-28 14:00:26</time>
      </trkpt>
      <trkpt lat="43.31074" lon="-3.11431">
        <ele>158.2</ele>
        <time>2021-10-28 14:00:27</time>
      </trkpt>
      <trkpt lat="43.31079" lon="-3.11428">
        <ele>158.2</ele>
        <time>2021-10-28 14:00:28</time>
      </trkpt>
      <trkpt lat="43.31083" lon="-3.11425">
        <ele>158.2</ele>
        <time>2021-10-28 14:00:29</time>
      </trkpt>
      <trkpt lat="43.31088" lon="-3.11423">
        <ele>158.2</ele>
        <time>2021-10-28 14:00:30</time>
      </trkpt>
      <trkpt lat="43.31091" lon="-3.1142">
        <ele>158.2</ele>
        <time>2021-10-28 14:00:31</time>
      </trkpt>
      <trkpt lat="43.31096" lon="-3.11419">
        <ele>158</ele>
        <time>2021-10-28 14:00:32</time>
      </trkpt>
      <trkpt lat="43.31099" lon="-3.11417">
        <ele>158</ele>
        <time>2021-10-28 14:00:33</time>
      </trkpt>
      <trkpt lat="43.31102" lon="-3.11416">
        <ele>158</ele>
        <time>2021-10-28 14:00:34</time>
      </trkpt>
      <trkpt lat="43.31105" lon="-3.11415">
        <ele>158</ele>
        <time>2021-10-28 14:00:35</time>
      </trkpt>
      <trkpt lat="43.31108" lon="-3.11414">
        <ele>158</ele>
        <time>2021-10-28 14:00:36</time>
      </trkpt>
      <trkpt lat="43.31111" lon="-3.11414">
        <ele>158</ele>
        <time>2021-10-28 14:00:37</time>
      </trkpt>
      <trkpt lat="43.3112" lon="-3.11413">
        <ele>158</ele>
        <time>2021-10-28 14:00:38</time>
      </trkpt>
      <trkpt lat="43.3112" lon="-3.11413">
        <ele>158</ele>
        <time>2021-10-28 14:00:39</time>
      </trkpt>
      <trkpt lat="43.31125" lon="-3.11413">
        <ele>157.8</ele>
        <time>2021-10-28 14:00:40</time>
      </trkpt>
      <trkpt lat="43.31129" lon="-3.11413">
        <ele>157.8</ele>
        <time>2021-10-28 14:00:41</time>
      </trkpt>
      <trkpt lat="43.31129" lon="-3.11413">
        <ele>157.8</ele>
        <time>2021-10-28 14:00:42</time>
      </trkpt>
      <trkpt lat="43.31139" lon="-3.11415">
        <ele>158</ele>
        <time>2021-10-28 14:00:43</time>
      </trkpt>
      <trkpt lat="43.31144" lon="-3.11415">
        <ele>158</ele>
        <time>2021-10-28 14:00:44</time>
      </trkpt>
      <trkpt lat="43.3115" lon="-3.11416">
        <ele>158</ele>
        <time>2021-10-28 14:00:45</time>
      </trkpt>
      <trkpt lat="43.31161" lon="-3.11417">
        <ele>158</ele>
        <time>2021-10-28 14:00:46</time>
      </trkpt>
      <trkpt lat="43.31161" lon="-3.11417">
        <ele>158.2</ele>
        <time>2021-10-28 14:00:47</time>
      </trkpt>
      <trkpt lat="43.31168" lon="-3.11418">
        <ele>158.2</ele>
        <time>2021-10-28 14:00:48</time>
      </trkpt>
      <trkpt lat="43.31174" lon="-3.11418">
        <ele>158.4</ele>
        <time>2021-10-28 14:00:49</time>
      </trkpt>
      <trkpt lat="43.31182" lon="-3.11418">
        <ele>158.4</ele>
        <time>2021-10-28 14:00:50</time>
      </trkpt>
      <trkpt lat="43.31189" lon="-3.11419">
        <ele>158.4</ele>
        <time>2021-10-28 14:00:51</time>
      </trkpt>
      <trkpt lat="43.312" lon="-3.11421">
        <ele>158.4</ele>
        <time>2021-10-28 14:00:52</time>
      </trkpt>
      <trkpt lat="43.312" lon="-3.11421">
        <ele>158.4</ele>
        <time>2021-10-28 14:00:53</time>
      </trkpt>
      <trkpt lat="43.3121" lon="-3.11424">
        <ele>158.6</ele>
        <time>2021-10-28 14:00:54</time>
      </trkpt>
      <trkpt lat="43.3121" lon="-3.11424">
        <ele>158.6</ele>
        <time>2021-10-28 14:00:55</time>
      </trkpt>
      <trkpt lat="43.31216" lon="-3.11425">
        <ele>158.8</ele>
        <time>2021-10-28 14:00:56</time>
      </trkpt>
      <trkpt lat="43.31221" lon="-3.11426">
        <ele>159</ele>
        <time>2021-10-28 14:00:57</time>
      </trkpt>
      <trkpt lat="43.31226" lon="-3.11427">
        <ele>159.2</ele>
        <time>2021-10-28 14:00:58</time>
      </trkpt>
      <trkpt lat="43.3123" lon="-3.11429">
        <ele>159.4</ele>
        <time>2021-10-28 14:00:59</time>
      </trkpt>
      <trkpt lat="43.31241" lon="-3.11428">
        <ele>159.4</ele>
        <time>2021-10-28 14:01:00</time>
      </trkpt>
      <trkpt lat="43.31241" lon="-3.11428">
        <ele>159.4</ele>
        <time>2021-10-28 14:01:01</time>
      </trkpt>
      <trkpt lat="43.3125" lon="-3.11428">
        <ele>159.4</ele>
        <time>2021-10-28 14:01:02</time>
      </trkpt>
      <trkpt lat="43.3125" lon="-3.11428">
        <ele>159.4</ele>
        <time>2021-10-28 14:01:03</time>
      </trkpt>
      <trkpt lat="43.31255" lon="-3.11429">
        <ele>159.6</ele>
        <time>2021-10-28 14:01:04</time>
      </trkpt>
      <trkpt lat="43.3126" lon="-3.1143">
        <ele>159.8</ele>
        <time>2021-10-28 14:01:05</time>
      </trkpt>
      <trkpt lat="43.31265" lon="-3.11431">
        <ele>160</ele>
        <time>2021-10-28 14:01:06</time>
      </trkpt>
      <trkpt lat="43.31269" lon="-3.11432">
        <ele>160.2</ele>
        <time>2021-10-28 14:01:07</time>
      </trkpt>
      <trkpt lat="43.31274" lon="-3.11432">
        <ele>160.2</ele>
        <time>2021-10-28 14:01:08</time>
      </trkpt>
      <trkpt lat="43.31279" lon="-3.11433">
        <ele>160.2</ele>
        <time>2021-10-28 14:01:09</time>
      </trkpt>
      <trkpt lat="43.31284" lon="-3.11433">
        <ele>160.2</ele>
        <time>2021-10-28 14:01:10</time>
      </trkpt>
      <trkpt lat="43.31289" lon="-3.11433">
        <ele>160.2</ele>
        <time>2021-10-28 14:01:11</time>
      </trkpt>
      <trkpt lat="43.31293" lon="-3.11432">
        <ele>160.2</ele>
        <time>2021-10-28 14:01:12</time>
      </trkpt>
      <trkpt lat="43.31302" lon="-3.11431">
        <ele>160.4</ele>
        <time>2021-10-28 14:01:13</time>
      </trkpt>
      <trkpt lat="43.31302" lon="-3.11431">
        <ele>160.4</ele>
        <time>2021-10-28 14:01:14</time>
      </trkpt>
      <trkpt lat="43.31306" lon="-3.1143">
        <ele>160.4</ele>
        <time>2021-10-28 14:01:15</time>
      </trkpt>
      <trkpt lat="43.31311" lon="-3.11429">
        <ele>160.4</ele>
        <time>2021-10-28 14:01:16</time>
      </trkpt>
      <trkpt lat="43.31316" lon="-3.11427">
        <ele>160.6</ele>
        <time>2021-10-28 14:01:17</time>
      </trkpt>
      <trkpt lat="43.3132" lon="-3.11425">
        <ele>160.6</ele>
        <time>2021-10-28 14:01:18</time>
      </trkpt>
      <trkpt lat="43.31325" lon="-3.11422">
        <ele>160.8</ele>
        <time>2021-10-28 14:01:19</time>
      </trkpt>
      <trkpt lat="43.3133" lon="-3.11418">
        <ele>160.8</ele>
        <time>2021-10-28 14:01:20</time>
      </trkpt>
      <trkpt lat="43.31334" lon="-3.11415">
        <ele>160.8</ele>
        <time>2021-10-28 14:01:21</time>
      </trkpt>
      <trkpt lat="43.31337" lon="-3.11411">
        <ele>161</ele>
        <time>2021-10-28 14:01:22</time>
      </trkpt>
      <trkpt lat="43.31342" lon="-3.11406">
        <ele>161</ele>
        <time>2021-10-28 14:01:23</time>
      </trkpt>
      <trkpt lat="43.31351" lon="-3.11394">
        <ele>161</ele>
        <time>2021-10-28 14:01:24</time>
      </trkpt>
      <trkpt lat="43.31351" lon="-3.11394">
        <ele>161.2</ele>
        <time>2021-10-28 14:01:25</time>
      </trkpt>
      <trkpt lat="43.31356" lon="-3.11389">
        <ele>161.2</ele>
        <time>2021-10-28 14:01:26</time>
      </trkpt>
      <trkpt lat="43.3136" lon="-3.11385">
        <ele>161.2</ele>
        <time>2021-10-28 14:01:27</time>
      </trkpt>
      <trkpt lat="43.31364" lon="-3.11378">
        <ele>161.2</ele>
        <time>2021-10-28 14:01:28</time>
      </trkpt>
      <trkpt lat="43.31366" lon="-3.11372">
        <ele>161.2</ele>
        <time>2021-10-28 14:01:29</time>
      </trkpt>
      <trkpt lat="43.31369" lon="-3.11365">
        <ele>161.2</ele>
        <time>2021-10-28 14:01:30</time>
      </trkpt>
      <trkpt lat="43.31372" lon="-3.11358">
        <ele>161.4</ele>
        <time>2021-10-28 14:01:31</time>
      </trkpt>
      <trkpt lat="43.31374" lon="-3.11351">
        <ele>161.4</ele>
        <time>2021-10-28 14:01:32</time>
      </trkpt>
      <trkpt lat="43.31378" lon="-3.11336">
        <ele>161.4</ele>
        <time>2021-10-28 14:01:33</time>
      </trkpt>
      <trkpt lat="43.31378" lon="-3.11336">
        <ele>161.4</ele>
        <time>2021-10-28 14:01:34</time>
      </trkpt>
      <trkpt lat="43.3138" lon="-3.11323">
        <ele>161.4</ele>
        <time>2021-10-28 14:01:35</time>
      </trkpt>
      <trkpt lat="43.3138" lon="-3.11323">
        <ele>161.6</ele>
        <time>2021-10-28 14:01:36</time>
      </trkpt>
      <trkpt lat="43.3138" lon="-3.11316">
        <ele>161.6</ele>
        <time>2021-10-28 14:01:37</time>
      </trkpt>
      <trkpt lat="43.31382" lon="-3.11303">
        <ele>161.6</ele>
        <time>2021-10-28 14:01:38</time>
      </trkpt>
      <trkpt lat="43.31382" lon="-3.11303">
        <ele>161.4</ele>
        <time>2021-10-28 14:01:39</time>
      </trkpt>
      <trkpt lat="43.31382" lon="-3.11296">
        <ele>161.4</ele>
        <time>2021-10-28 14:01:40</time>
      </trkpt>
      <trkpt lat="43.31383" lon="-3.11289">
        <ele>161.4</ele>
        <time>2021-10-28 14:01:41</time>
      </trkpt>
      <trkpt lat="43.31382" lon="-3.11283">
        <ele>161.4</ele>
        <time>2021-10-28 14:01:42</time>
      </trkpt>
      <trkpt lat="43.31382" lon="-3.11277">
        <ele>161.4</ele>
        <time>2021-10-28 14:01:43</time>
      </trkpt>
      <trkpt lat="43.3138" lon="-3.1127">
        <ele>161.4</ele>
        <time>2021-10-28 14:01:44</time>
      </trkpt>
      <trkpt lat="43.31376" lon="-3.11255">
        <ele>161.4</ele>
        <time>2021-10-28 14:01:45</time>
      </trkpt>
      <trkpt lat="43.31376" lon="-3.11255">
        <ele>161.4</ele>
        <time>2021-10-28 14:01:46</time>
      </trkpt>
      <trkpt lat="43.31374" lon="-3.11249">
        <ele>161.4</ele>
        <time>2021-10-28 14:01:47</time>
      </trkpt>
      <trkpt lat="43.31372" lon="-3.11243">
        <ele>161.4</ele>
        <time>2021-10-28 14:01:48</time>
      </trkpt>
      <trkpt lat="43.3137" lon="-3.11238">
        <ele>161.4</ele>
        <time>2021-10-28 14:01:49</time>
      </trkpt>
      <trkpt lat="43.31369" lon="-3.11233">
        <ele>161.4</ele>
        <time>2021-10-28 14:01:50</time>
      </trkpt>
      <trkpt lat="43.31366" lon="-3.11228">
        <ele>161.4</ele>
        <time>2021-10-28 14:01:51</time>
      </trkpt>
      <trkpt lat="43.31361" lon="-3.11215">
        <ele>161.6</ele>
        <time>2021-10-28 14:01:52</time>
      </trkpt>
      <trkpt lat="43.31361" lon="-3.11215">
        <ele>161.6</ele>
        <time>2021-10-28 14:01:53</time>
      </trkpt>
      <trkpt lat="43.31356" lon="-3.11203">
        <ele>161.8</ele>
        <time>2021-10-28 14:01:54</time>
      </trkpt>
      <trkpt lat="43.31356" lon="-3.11203">
        <ele>162</ele>
        <time>2021-10-28 14:01:55</time>
      </trkpt>
      <trkpt lat="43.31353" lon="-3.11197">
        <ele>162</ele>
        <time>2021-10-28 14:01:56</time>
      </trkpt>
      <trkpt lat="43.3135" lon="-3.11191">
        <ele>162.2</ele>
        <time>2021-10-28 14:01:57</time>
      </trkpt>
      <trkpt lat="43.31348" lon="-3.11185">
        <ele>162.2</ele>
        <time>2021-10-28 14:01:58</time>
      </trkpt>
      <trkpt lat="43.31342" lon="-3.11173">
        <ele>162.4</ele>
        <time>2021-10-28 14:01:59</time>
      </trkpt>
      <trkpt lat="43.31342" lon="-3.11173">
        <ele>162.6</ele>
        <time>2021-10-28 14:02:00</time>
      </trkpt>
      <trkpt lat="43.3134" lon="-3.11166">
        <ele>162.8</ele>
        <time>2021-10-28 14:02:01</time>
      </trkpt>
      <trkpt lat="43.31337" lon="-3.11159">
        <ele>163</ele>
        <time>2021-10-28 14:02:02</time>
      </trkpt>
      <trkpt lat="43.31334" lon="-3.11153">
        <ele>163</ele>
        <time>2021-10-28 14:02:03</time>
      </trkpt>
      <trkpt lat="43.31331" lon="-3.11147">
        <ele>163</ele>
        <time>2021-10-28 14:02:04</time>
      </trkpt>
      <trkpt lat="43.31325" lon="-3.11133">
        <ele>163</ele>
        <time>2021-10-28 14:02:05</time>
      </trkpt>
      <trkpt lat="43.31325" lon="-3.11133">
        <ele>163</ele>
        <time>2021-10-28 14:02:06</time>
      </trkpt>
      <trkpt lat="43.31322" lon="-3.11126">
        <ele>163</ele>
        <time>2021-10-28 14:02:07</time>
      </trkpt>
      <trkpt lat="43.31318" lon="-3.1112">
        <ele>162.8</ele>
        <time>2021-10-28 14:02:08</time>
      </trkpt>
      <trkpt lat="43.31315" lon="-3.11114">
        <ele>162.8</ele>
        <time>2021-10-28 14:02:09</time>
      </trkpt>
      <trkpt lat="43.31312" lon="-3.11108">
        <ele>163</ele>
        <time>2021-10-28 14:02:10</time>
      </trkpt>
      <trkpt lat="43.31306" lon="-3.11095">
        <ele>163</ele>
        <time>2021-10-28 14:02:11</time>
      </trkpt>
      <trkpt lat="43.31306" lon="-3.11095">
        <ele>163</ele>
        <time>2021-10-28 14:02:12</time>
      </trkpt>
      <trkpt lat="43.313" lon="-3.1108">
        <ele>163</ele>
        <time>2021-10-28 14:02:13</time>
      </trkpt>
      <trkpt lat="43.313" lon="-3.1108">
        <ele>163</ele>
        <time>2021-10-28 14:02:14</time>
      </trkpt>
      <trkpt lat="43.31294" lon="-3.11067">
        <ele>163</ele>
        <time>2021-10-28 14:02:15</time>
      </trkpt>
      <trkpt lat="43.31294" lon="-3.11067">
        <ele>163</ele>
        <time>2021-10-28 14:02:16</time>
      </trkpt>
      <trkpt lat="43.3129" lon="-3.11061">
        <ele>163.2</ele>
        <time>2021-10-28 14:02:17</time>
      </trkpt>
      <trkpt lat="43.31286" lon="-3.11055">
        <ele>163.4</ele>
        <time>2021-10-28 14:02:18</time>
      </trkpt>
      <trkpt lat="43.31278" lon="-3.11046">
        <ele>163.4</ele>
        <time>2021-10-28 14:02:19</time>
      </trkpt>
      <trkpt lat="43.31278" lon="-3.11046">
        <ele>163.6</ele>
        <time>2021-10-28 14:02:20</time>
      </trkpt>
      <trkpt lat="43.31268" lon="-3.11035">
        <ele>163.8</ele>
        <time>2021-10-28 14:02:21</time>
      </trkpt>
      <trkpt lat="43.31268" lon="-3.11035">
        <ele>164</ele>
        <time>2021-10-28 14:02:22</time>
      </trkpt>
      <trkpt lat="43.31263" lon="-3.11031">
        <ele>164.2</ele>
        <time>2021-10-28 14:02:23</time>
      </trkpt>
      <trkpt lat="43.31253" lon="-3.11024">
        <ele>164.4</ele>
        <time>2021-10-28 14:02:24</time>
      </trkpt>
      <trkpt lat="43.31253" lon="-3.11024">
        <ele>164.4</ele>
        <time>2021-10-28 14:02:25</time>
      </trkpt>
      <trkpt lat="43.31243" lon="-3.11021">
        <ele>164.4</ele>
        <time>2021-10-28 14:02:26</time>
      </trkpt>
      <trkpt lat="43.31243" lon="-3.11021">
        <ele>164.4</ele>
        <time>2021-10-28 14:02:27</time>
      </trkpt>
      <trkpt lat="43.31237" lon="-3.1102">
        <ele>164.2</ele>
        <time>2021-10-28 14:02:28</time>
      </trkpt>
      <trkpt lat="43.31226" lon="-3.11018">
        <ele>164</ele>
        <time>2021-10-28 14:02:29</time>
      </trkpt>
      <trkpt lat="43.31226" lon="-3.11018">
        <ele>163.8</ele>
        <time>2021-10-28 14:02:30</time>
      </trkpt>
      <trkpt lat="43.3122" lon="-3.11018">
        <ele>163.6</ele>
        <time>2021-10-28 14:02:31</time>
      </trkpt>
      <trkpt lat="43.31215" lon="-3.11019">
        <ele>163.4</ele>
        <time>2021-10-28 14:02:32</time>
      </trkpt>
      <trkpt lat="43.31209" lon="-3.1102">
        <ele>163.4</ele>
        <time>2021-10-28 14:02:33</time>
      </trkpt>
      <trkpt lat="43.31203" lon="-3.11022">
        <ele>163.4</ele>
        <time>2021-10-28 14:02:34</time>
      </trkpt>
      <trkpt lat="43.31197" lon="-3.11024">
        <ele>163.4</ele>
        <time>2021-10-28 14:02:35</time>
      </trkpt>
      <trkpt lat="43.31191" lon="-3.11025">
        <ele>163.4</ele>
        <time>2021-10-28 14:02:36</time>
      </trkpt>
      <trkpt lat="43.31179" lon="-3.11028">
        <ele>163.6</ele>
        <time>2021-10-28 14:02:37</time>
      </trkpt>
      <trkpt lat="43.31179" lon="-3.11028">
        <ele>163.6</ele>
        <time>2021-10-28 14:02:38</time>
      </trkpt>
      <trkpt lat="43.31167" lon="-3.11029">
        <ele>163.6</ele>
        <time>2021-10-28 14:02:39</time>
      </trkpt>
      <trkpt lat="43.31167" lon="-3.11029">
        <ele>163.6</ele>
        <time>2021-10-28 14:02:40</time>
      </trkpt>
      <trkpt lat="43.3116" lon="-3.11028">
        <ele>163.6</ele>
        <time>2021-10-28 14:02:41</time>
      </trkpt>
      <trkpt lat="43.31154" lon="-3.11028">
        <ele>163.8</ele>
        <time>2021-10-28 14:02:42</time>
      </trkpt>
      <trkpt lat="43.31148" lon="-3.11028">
        <ele>164.2</ele>
        <time>2021-10-28 14:02:43</time>
      </trkpt>
      <trkpt lat="43.31141" lon="-3.11026">
        <ele>164.6</ele>
        <time>2021-10-28 14:02:44</time>
      </trkpt>
      <trkpt lat="43.31135" lon="-3.11025">
        <ele>165</ele>
        <time>2021-10-28 14:02:45</time>
      </trkpt>
      <trkpt lat="43.31129" lon="-3.11024">
        <ele>165</ele>
        <time>2021-10-28 14:02:46</time>
      </trkpt>
      <trkpt lat="43.31118" lon="-3.11018">
        <ele>165</ele>
        <time>2021-10-28 14:02:47</time>
      </trkpt>
      <trkpt lat="43.31118" lon="-3.11018">
        <ele>164.6</ele>
        <time>2021-10-28 14:02:48</time>
      </trkpt>
      <trkpt lat="43.31108" lon="-3.11011">
        <ele>164.4</ele>
        <time>2021-10-28 14:02:49</time>
      </trkpt>
      <trkpt lat="43.31108" lon="-3.11011">
        <ele>164.2</ele>
        <time>2021-10-28 14:02:50</time>
      </trkpt>
      <trkpt lat="43.31102" lon="-3.11008">
        <ele>164.2</ele>
        <time>2021-10-28 14:02:51</time>
      </trkpt>
      <trkpt lat="43.31092" lon="-3.11">
        <ele>164</ele>
        <time>2021-10-28 14:02:52</time>
      </trkpt>
      <trkpt lat="43.31092" lon="-3.11">
        <ele>164</ele>
        <time>2021-10-28 14:02:53</time>
      </trkpt>
      <trkpt lat="43.31087" lon="-3.10995">
        <ele>164</ele>
        <time>2021-10-28 14:02:54</time>
      </trkpt>
      <trkpt lat="43.31078" lon="-3.10985">
        <ele>164</ele>
        <time>2021-10-28 14:02:55</time>
      </trkpt>
      <trkpt lat="43.31078" lon="-3.10985">
        <ele>164</ele>
        <time>2021-10-28 14:02:56</time>
      </trkpt>
      <trkpt lat="43.31073" lon="-3.10978">
        <ele>164</ele>
        <time>2021-10-28 14:02:57</time>
      </trkpt>
      <trkpt lat="43.31064" lon="-3.10966">
        <ele>164</ele>
        <time>2021-10-28 14:02:58</time>
      </trkpt>
      <trkpt lat="43.31064" lon="-3.10966">
        <ele>164.2</ele>
        <time>2021-10-28 14:02:59</time>
      </trkpt>
      <trkpt lat="43.31059" lon="-3.1096">
        <ele>164.2</ele>
        <time>2021-10-28 14:03:00</time>
      </trkpt>
      <trkpt lat="43.31055" lon="-3.10955">
        <ele>164.4</ele>
        <time>2021-10-28 14:03:01</time>
      </trkpt>
      <trkpt lat="43.31045" lon="-3.10944">
        <ele>164.4</ele>
        <time>2021-10-28 14:03:02</time>
      </trkpt>
      <trkpt lat="43.31045" lon="-3.10944">
        <ele>164.6</ele>
        <time>2021-10-28 14:03:03</time>
      </trkpt>
      <trkpt lat="43.3104" lon="-3.10939">
        <ele>164.6</ele>
        <time>2021-10-28 14:03:04</time>
      </trkpt>
      <trkpt lat="43.31031" lon="-3.10928">
        <ele>164.8</ele>
        <time>2021-10-28 14:03:05</time>
      </trkpt>
      <trkpt lat="43.31031" lon="-3.10928">
        <ele>165</ele>
        <time>2021-10-28 14:03:06</time>
      </trkpt>
      <trkpt lat="43.31021" lon="-3.10918">
        <ele>165.2</ele>
        <time>2021-10-28 14:03:07</time>
      </trkpt>
      <trkpt lat="43.31021" lon="-3.10918">
        <ele>165.2</ele>
        <time>2021-10-28 14:03:08</time>
      </trkpt>
      <trkpt lat="43.31011" lon="-3.10912">
        <ele>165.2</ele>
        <time>2021-10-28 14:03:09</time>
      </trkpt>
      <trkpt lat="43.31011" lon="-3.10912">
        <ele>165.2</ele>
        <time>2021-10-28 14:03:10</time>
      </trkpt>
      <trkpt lat="43.31006" lon="-3.10909">
        <ele>165</ele>
        <time>2021-10-28 14:03:11</time>
      </trkpt>
      <trkpt lat="43.30996" lon="-3.10903">
        <ele>165</ele>
        <time>2021-10-28 14:03:12</time>
      </trkpt>
      <trkpt lat="43.30996" lon="-3.10903">
        <ele>165</ele>
        <time>2021-10-28 14:03:13</time>
      </trkpt>
      <trkpt lat="43.30987" lon="-3.10896">
        <ele>164.8</ele>
        <time>2021-10-28 14:03:14</time>
      </trkpt>
      <trkpt lat="43.30987" lon="-3.10896">
        <ele>164.8</ele>
        <time>2021-10-28 14:03:15</time>
      </trkpt>
      <trkpt lat="43.30983" lon="-3.10893">
        <ele>164.8</ele>
        <time>2021-10-28 14:03:16</time>
      </trkpt>
      <trkpt lat="43.30974" lon="-3.10886">
        <ele>165</ele>
        <time>2021-10-28 14:03:17</time>
      </trkpt>
      <trkpt lat="43.30974" lon="-3.10886">
        <ele>165</ele>
        <time>2021-10-28 14:03:18</time>
      </trkpt>
      <trkpt lat="43.30969" lon="-3.10884">
        <ele>165</ele>
        <time>2021-10-28 14:03:19</time>
      </trkpt>
      <trkpt lat="43.30965" lon="-3.10881">
        <ele>165</ele>
        <time>2021-10-28 14:03:20</time>
      </trkpt>
      <trkpt lat="43.3096" lon="-3.10876">
        <ele>165</ele>
        <time>2021-10-28 14:03:21</time>
      </trkpt>
      <trkpt lat="43.30956" lon="-3.10872">
        <ele>165.2</ele>
        <time>2021-10-28 14:03:22</time>
      </trkpt>
      <trkpt lat="43.30952" lon="-3.10869">
        <ele>165.2</ele>
        <time>2021-10-28 14:03:23</time>
      </trkpt>
      <trkpt lat="43.30944" lon="-3.10862">
        <ele>165.4</ele>
        <time>2021-10-28 14:03:24</time>
      </trkpt>
      <trkpt lat="43.30944" lon="-3.10862">
        <ele>165.4</ele>
        <time>2021-10-28 14:03:25</time>
      </trkpt>
      <trkpt lat="43.30939" lon="-3.10858">
        <ele>165.6</ele>
        <time>2021-10-28 14:03:26</time>
      </trkpt>
      <trkpt lat="43.30935" lon="-3.10855">
        <ele>165.6</ele>
        <time>2021-10-28 14:03:27</time>
      </trkpt>
      <trkpt lat="43.30926" lon="-3.10848">
        <ele>165.4</ele>
        <time>2021-10-28 14:03:28</time>
      </trkpt>
      <trkpt lat="43.30926" lon="-3.10848">
        <ele>165.4</ele>
        <time>2021-10-28 14:03:29</time>
      </trkpt>
      <trkpt lat="43.30917" lon="-3.10842">
        <ele>165.2</ele>
        <time>2021-10-28 14:03:30</time>
      </trkpt>
      <trkpt lat="43.30917" lon="-3.10842">
        <ele>165.2</ele>
        <time>2021-10-28 14:03:31</time>
      </trkpt>
      <trkpt lat="43.30908" lon="-3.10835">
        <ele>165.2</ele>
        <time>2021-10-28 14:03:32</time>
      </trkpt>
      <trkpt lat="43.30908" lon="-3.10835">
        <ele>165.4</ele>
        <time>2021-10-28 14:03:33</time>
      </trkpt>
      <trkpt lat="43.30904" lon="-3.10832">
        <ele>165.4</ele>
        <time>2021-10-28 14:03:34</time>
      </trkpt>
      <trkpt lat="43.309" lon="-3.10829">
        <ele>165.4</ele>
        <time>2021-10-28 14:03:35</time>
      </trkpt>
      <trkpt lat="43.30895" lon="-3.10825">
        <ele>165.4</ele>
        <time>2021-10-28 14:03:36</time>
      </trkpt>
      <trkpt lat="43.30891" lon="-3.10821">
        <ele>165.6</ele>
        <time>2021-10-28 14:03:37</time>
      </trkpt>
      <trkpt lat="43.30887" lon="-3.10816">
        <ele>165.6</ele>
        <time>2021-10-28 14:03:38</time>
      </trkpt>
      <trkpt lat="43.30878" lon="-3.10808">
        <ele>165.6</ele>
        <time>2021-10-28 14:03:39</time>
      </trkpt>
      <trkpt lat="43.30878" lon="-3.10808">
        <ele>165.8</ele>
        <time>2021-10-28 14:03:40</time>
      </trkpt>
      <trkpt lat="43.30873" lon="-3.10803">
        <ele>165.8</ele>
        <time>2021-10-28 14:03:41</time>
      </trkpt>
      <trkpt lat="43.30869" lon="-3.10799">
        <ele>166</ele>
        <time>2021-10-28 14:03:42</time>
      </trkpt>
      <trkpt lat="43.30861" lon="-3.10791">
        <ele>166</ele>
        <time>2021-10-28 14:03:43</time>
      </trkpt>
      <trkpt lat="43.30861" lon="-3.10791">
        <ele>166.2</ele>
        <time>2021-10-28 14:03:44</time>
      </trkpt>
      <trkpt lat="43.30853" lon="-3.10783">
        <ele>166.2</ele>
        <time>2021-10-28 14:03:45</time>
      </trkpt>
      <trkpt lat="43.30853" lon="-3.10783">
        <ele>166.4</ele>
        <time>2021-10-28 14:03:46</time>
      </trkpt>
      <trkpt lat="43.30845" lon="-3.10776">
        <ele>166.4</ele>
        <time>2021-10-28 14:03:47</time>
      </trkpt>
      <trkpt lat="43.30845" lon="-3.10776">
        <ele>166.4</ele>
        <time>2021-10-28 14:03:48</time>
      </trkpt>
      <trkpt lat="43.30841" lon="-3.10765">
        <ele>166.6</ele>
        <time>2021-10-28 14:03:49</time>
      </trkpt>
      <trkpt lat="43.30841" lon="-3.10765">
        <ele>166.6</ele>
        <time>2021-10-28 14:03:50</time>
      </trkpt>
      <trkpt lat="43.30839" lon="-3.10755">
        <ele>166.6</ele>
        <time>2021-10-28 14:03:51</time>
      </trkpt>
      <trkpt lat="43.30839" lon="-3.10755">
        <ele>166.4</ele>
        <time>2021-10-28 14:03:52</time>
      </trkpt>
      <trkpt lat="43.30838" lon="-3.10746">
        <ele>166.4</ele>
        <time>2021-10-28 14:03:53</time>
      </trkpt>
      <trkpt lat="43.30838" lon="-3.10746">
        <ele>166.4</ele>
        <time>2021-10-28 14:03:54</time>
      </trkpt>
      <trkpt lat="43.30837" lon="-3.10742">
        <ele>166.4</ele>
        <time>2021-10-28 14:03:55</time>
      </trkpt>
      <trkpt lat="43.30837" lon="-3.10742">
        <ele>166.4</ele>
        <time>2021-10-28 14:03:56</time>
      </trkpt>
      <trkpt lat="43.30837" lon="-3.10735">
        <ele>166.2</ele>
        <time>2021-10-28 14:03:57</time>
      </trkpt>
      <trkpt lat="43.30837" lon="-3.10735">
        <ele>166.2</ele>
        <time>2021-10-28 14:03:58</time>
      </trkpt>
      <trkpt lat="43.30837" lon="-3.10735">
        <ele>166.2</ele>
        <time>2021-10-28 14:03:59</time>
      </trkpt>
      <trkpt lat="43.30837" lon="-3.10735">
        <ele>166.2</ele>
        <time>2021-10-28 14:04:00</time>
      </trkpt>
      <trkpt lat="43.30837" lon="-3.10735">
        <ele>166.2</ele>
        <time>2021-10-28 14:04:01</time>
      </trkpt>
      <trkpt lat="43.30837" lon="-3.10735">
        <ele>166.2</ele>
        <time>2021-10-28 14:04:02</time>
      </trkpt>
      <trkpt lat="43.30837" lon="-3.10735">
        <ele>166.2</ele>
        <time>2021-10-28 14:04:03</time>
      </trkpt>
      <trkpt lat="43.30837" lon="-3.10735">
        <ele>166.2</ele>
        <time>2021-10-28 14:04:04</time>
      </trkpt>
      <trkpt lat="43.30837" lon="-3.10735">
        <ele>166.2</ele>
        <time>2021-10-28 14:04:05</time>
      </trkpt>
      <trkpt lat="43.30837" lon="-3.10735">
        <ele>166.2</ele>
        <time>2021-10-28 14:04:06</time>
      </trkpt>
      <trkpt lat="43.30837" lon="-3.10735">
        <ele>166.2</ele>
        <time>2021-10-28 14:04:07</time>
      </trkpt>
      <trkpt lat="43.30837" lon="-3.10735">
        <ele>166.2</ele>
        <time>2021-10-28 14:04:08</time>
      </trkpt>
      <trkpt lat="43.30837" lon="-3.10735">
        <ele>166.2</ele>
        <time>2021-10-28 14:04:09</time>
      </trkpt>
      <trkpt lat="43.30837" lon="-3.10735">
        <ele>166</ele>
        <time>2021-10-28 14:04:10</time>
      </trkpt>
      <trkpt lat="43.30837" lon="-3.10735">
        <ele>166</ele>
        <time>2021-10-28 14:04:11</time>
      </trkpt>
      <trkpt lat="43.30837" lon="-3.10735">
        <ele>165.8</ele>
        <time>2021-10-28 14:04:12</time>
      </trkpt>
      <trkpt lat="43.30837" lon="-3.10735">
        <ele>165.6</ele>
        <time>2021-10-28 14:04:13</time>
      </trkpt>
      <trkpt lat="43.30837" lon="-3.10735">
        <ele>165.4</ele>
        <time>2021-10-28 14:04:14</time>
      </trkpt>
      <trkpt lat="43.30804" lon="-3.10532">
        <ele>165.2</ele>
        <time>2021-10-28 14:04:15</time>
      </trkpt>
      <trkpt lat="43.30804" lon="-3.10532">
        <ele>165.2</ele>
        <time>2021-10-28 14:04:16</time>
      </trkpt>
      <trkpt lat="43.30806" lon="-3.10527">
        <ele>165</ele>
        <time>2021-10-28 14:04:17</time>
      </trkpt>
      <trkpt lat="43.3081" lon="-3.10515">
        <ele>164.8</ele>
        <time>2021-10-28 14:04:18</time>
      </trkpt>
      <trkpt lat="43.3081" lon="-3.10515">
        <ele>164.4</ele>
        <time>2021-10-28 14:04:19</time>
      </trkpt>
      <trkpt lat="43.30816" lon="-3.10501">
        <ele>164.2</ele>
        <time>2021-10-28 14:04:20</time>
      </trkpt>
      <trkpt lat="43.30816" lon="-3.10501">
        <ele>164</ele>
        <time>2021-10-28 14:04:21</time>
      </trkpt>
      <trkpt lat="43.30819" lon="-3.10494">
        <ele>163.8</ele>
        <time>2021-10-28 14:04:22</time>
      </trkpt>
      <trkpt lat="43.30822" lon="-3.10486">
        <ele>163.8</ele>
        <time>2021-10-28 14:04:23</time>
      </trkpt>
      <trkpt lat="43.30825" lon="-3.10479">
        <ele>163.8</ele>
        <time>2021-10-28 14:04:24</time>
      </trkpt>
      <trkpt lat="43.30828" lon="-3.10471">
        <ele>163.8</ele>
        <time>2021-10-28 14:04:25</time>
      </trkpt>
      <trkpt lat="43.30831" lon="-3.10464">
        <ele>163.8</ele>
        <time>2021-10-28 14:04:26</time>
      </trkpt>
      <trkpt lat="43.30835" lon="-3.10457">
        <ele>164</ele>
        <time>2021-10-28 14:04:27</time>
      </trkpt>
      <trkpt lat="43.30841" lon="-3.10442">
        <ele>164</ele>
        <time>2021-10-28 14:04:28</time>
      </trkpt>
      <trkpt lat="43.30841" lon="-3.10442">
        <ele>164</ele>
        <time>2021-10-28 14:04:29</time>
      </trkpt>
      <trkpt lat="43.30844" lon="-3.10435">
        <ele>164</ele>
        <time>2021-10-28 14:04:30</time>
      </trkpt>
      <trkpt lat="43.30848" lon="-3.10428">
        <ele>164</ele>
        <time>2021-10-28 14:04:31</time>
      </trkpt>
      <trkpt lat="43.30851" lon="-3.1042">
        <ele>163.8</ele>
        <time>2021-10-28 14:04:32</time>
      </trkpt>
      <trkpt lat="43.30851" lon="-3.1042">
        <ele>163.6</ele>
        <time>2021-10-28 14:04:33</time>
      </trkpt>
      <trkpt lat="43.30857" lon="-3.10405">
        <ele>163.6</ele>
        <time>2021-10-28 14:04:34</time>
      </trkpt>
      <trkpt lat="43.3086" lon="-3.10397">
        <ele>163.4</ele>
        <time>2021-10-28 14:04:35</time>
      </trkpt>
      <trkpt lat="43.30866" lon="-3.10382">
        <ele>163.2</ele>
        <time>2021-10-28 14:04:36</time>
      </trkpt>
      <trkpt lat="43.30866" lon="-3.10382">
        <ele>163</ele>
        <time>2021-10-28 14:04:37</time>
      </trkpt>
      <trkpt lat="43.30872" lon="-3.10366">
        <ele>163</ele>
        <time>2021-10-28 14:04:38</time>
      </trkpt>
      <trkpt lat="43.30872" lon="-3.10366">
        <ele>162.6</ele>
        <time>2021-10-28 14:04:39</time>
      </trkpt>
      <trkpt lat="43.30875" lon="-3.10358">
        <ele>162.4</ele>
        <time>2021-10-28 14:04:40</time>
      </trkpt>
      <trkpt lat="43.30881" lon="-3.10342">
        <ele>162.2</ele>
        <time>2021-10-28 14:04:41</time>
      </trkpt>
      <trkpt lat="43.30881" lon="-3.10342">
        <ele>162</ele>
        <time>2021-10-28 14:04:42</time>
      </trkpt>
      <trkpt lat="43.30884" lon="-3.10334">
        <ele>162</ele>
        <time>2021-10-28 14:04:43</time>
      </trkpt>
      <trkpt lat="43.30887" lon="-3.10327">
        <ele>162</ele>
        <time>2021-10-28 14:04:44</time>
      </trkpt>
      <trkpt lat="43.3089" lon="-3.10319">
        <ele>161.8</ele>
        <time>2021-10-28 14:04:45</time>
      </trkpt>
      <trkpt lat="43.30893" lon="-3.10312">
        <ele>161.8</ele>
        <time>2021-10-28 14:04:46</time>
      </trkpt>
      <trkpt lat="43.30897" lon="-3.10304">
        <ele>161.6</ele>
        <time>2021-10-28 14:04:47</time>
      </trkpt>
      <trkpt lat="43.309" lon="-3.10297">
        <ele>161.6</ele>
        <time>2021-10-28 14:04:48</time>
      </trkpt>
      <trkpt lat="43.30904" lon="-3.10291">
        <ele>161.4</ele>
        <time>2021-10-28 14:04:49</time>
      </trkpt>
      <trkpt lat="43.30909" lon="-3.10285">
        <ele>161.4</ele>
        <time>2021-10-28 14:04:50</time>
      </trkpt>
      <trkpt lat="43.30918" lon="-3.10273">
        <ele>161.2</ele>
        <time>2021-10-28 14:04:51</time>
      </trkpt>
      <trkpt lat="43.30918" lon="-3.10273">
        <ele>161.2</ele>
        <time>2021-10-28 14:04:52</time>
      </trkpt>
      <trkpt lat="43.30928" lon="-3.10262">
        <ele>161.2</ele>
        <time>2021-10-28 14:04:53</time>
      </trkpt>
      <trkpt lat="43.30928" lon="-3.10262">
        <ele>161</ele>
        <time>2021-10-28 14:04:54</time>
      </trkpt>
      <trkpt lat="43.30934" lon="-3.10257">
        <ele>160.8</ele>
        <time>2021-10-28 14:04:55</time>
      </trkpt>
      <trkpt lat="43.30939" lon="-3.10252">
        <ele>160.6</ele>
        <time>2021-10-28 14:04:56</time>
      </trkpt>
      <trkpt lat="43.3095" lon="-3.10242">
        <ele>160.4</ele>
        <time>2021-10-28 14:04:57</time>
      </trkpt>
      <trkpt lat="43.3095" lon="-3.10242">
        <ele>160.4</ele>
        <time>2021-10-28 14:04:58</time>
      </trkpt>
      <trkpt lat="43.30955" lon="-3.10238">
        <ele>160.2</ele>
        <time>2021-10-28 14:04:59</time>
      </trkpt>
      <trkpt lat="43.30961" lon="-3.10234">
        <ele>160.2</ele>
        <time>2021-10-28 14:05:00</time>
      </trkpt>
      <trkpt lat="43.30966" lon="-3.10229">
        <ele>160</ele>
        <time>2021-10-28 14:05:01</time>
      </trkpt>
      <trkpt lat="43.30971" lon="-3.10224">
        <ele>160</ele>
        <time>2021-10-28 14:05:02</time>
      </trkpt>
      <trkpt lat="43.30976" lon="-3.10219">
        <ele>159.8</ele>
        <time>2021-10-28 14:05:03</time>
      </trkpt>
      <trkpt lat="43.3098" lon="-3.10214">
        <ele>159.4</ele>
        <time>2021-10-28 14:05:04</time>
      </trkpt>
      <trkpt lat="43.30987" lon="-3.10201">
        <ele>159.2</ele>
        <time>2021-10-28 14:05:05</time>
      </trkpt>
      <trkpt lat="43.30987" lon="-3.10201">
        <ele>159</ele>
        <time>2021-10-28 14:05:06</time>
      </trkpt>
      <trkpt lat="43.3099" lon="-3.10194">
        <ele>159</ele>
        <time>2021-10-28 14:05:07</time>
      </trkpt>
      <trkpt lat="43.30992" lon="-3.10188">
        <ele>159.2</ele>
        <time>2021-10-28 14:05:08</time>
      </trkpt>
      <trkpt lat="43.30995" lon="-3.1018">
        <ele>159.6</ele>
        <time>2021-10-28 14:05:09</time>
      </trkpt>
      <trkpt lat="43.30997" lon="-3.10173">
        <ele>159.8</ele>
        <time>2021-10-28 14:05:10</time>
      </trkpt>
      <trkpt lat="43.30999" lon="-3.10158">
        <ele>160</ele>
        <time>2021-10-28 14:05:11</time>
      </trkpt>
      <trkpt lat="43.30999" lon="-3.10158">
        <ele>160</ele>
        <time>2021-10-28 14:05:12</time>
      </trkpt>
      <trkpt lat="43.31" lon="-3.1015">
        <ele>160</ele>
        <time>2021-10-28 14:05:13</time>
      </trkpt>
      <trkpt lat="43.31" lon="-3.10142">
        <ele>159.8</ele>
        <time>2021-10-28 14:05:14</time>
      </trkpt>
      <trkpt lat="43.31" lon="-3.10134">
        <ele>159.8</ele>
        <time>2021-10-28 14:05:15</time>
      </trkpt>
      <trkpt lat="43.31" lon="-3.10126">
        <ele>159.6</ele>
        <time>2021-10-28 14:05:16</time>
      </trkpt>
      <trkpt lat="43.30999" lon="-3.10118">
        <ele>159.6</ele>
        <time>2021-10-28 14:05:17</time>
      </trkpt>
      <trkpt lat="43.30998" lon="-3.10109">
        <ele>159.6</ele>
        <time>2021-10-28 14:05:18</time>
      </trkpt>
      <trkpt lat="43.30997" lon="-3.10101">
        <ele>159.6</ele>
        <time>2021-10-28 14:05:19</time>
      </trkpt>
      <trkpt lat="43.30996" lon="-3.10093">
        <ele>159.6</ele>
        <time>2021-10-28 14:05:20</time>
      </trkpt>
      <trkpt lat="43.30993" lon="-3.10076">
        <ele>159.6</ele>
        <time>2021-10-28 14:05:21</time>
      </trkpt>
      <trkpt lat="43.30993" lon="-3.10076">
        <ele>159.6</ele>
        <time>2021-10-28 14:05:22</time>
      </trkpt>
      <trkpt lat="43.30992" lon="-3.10068">
        <ele>159.6</ele>
        <time>2021-10-28 14:05:23</time>
      </trkpt>
      <trkpt lat="43.30991" lon="-3.1006">
        <ele>159.6</ele>
        <time>2021-10-28 14:05:24</time>
      </trkpt>
      <trkpt lat="43.3099" lon="-3.10051">
        <ele>159.6</ele>
        <time>2021-10-28 14:05:25</time>
      </trkpt>
      <trkpt lat="43.30989" lon="-3.10043">
        <ele>159.6</ele>
        <time>2021-10-28 14:05:26</time>
      </trkpt>
      <trkpt lat="43.30988" lon="-3.10035">
        <ele>159.6</ele>
        <time>2021-10-28 14:05:27</time>
      </trkpt>
      <trkpt lat="43.30987" lon="-3.10027">
        <ele>159.6</ele>
        <time>2021-10-28 14:05:28</time>
      </trkpt>
      <trkpt lat="43.30984" lon="-3.10011">
        <ele>159.6</ele>
        <time>2021-10-28 14:05:29</time>
      </trkpt>
      <trkpt lat="43.30984" lon="-3.10011">
        <ele>159.4</ele>
        <time>2021-10-28 14:05:30</time>
      </trkpt>
      <trkpt lat="43.30983" lon="-3.10003">
        <ele>159.6</ele>
        <time>2021-10-28 14:05:31</time>
      </trkpt>
      <trkpt lat="43.30982" lon="-3.09995">
        <ele>159.4</ele>
        <time>2021-10-28 14:05:32</time>
      </trkpt>
      <trkpt lat="43.3098" lon="-3.09978">
        <ele>159.4</ele>
        <time>2021-10-28 14:05:33</time>
      </trkpt>
      <trkpt lat="43.3098" lon="-3.09978">
        <ele>159.4</ele>
        <time>2021-10-28 14:05:34</time>
      </trkpt>
      <trkpt lat="43.30979" lon="-3.0997">
        <ele>159.4</ele>
        <time>2021-10-28 14:05:35</time>
      </trkpt>
      <trkpt lat="43.30978" lon="-3.09962">
        <ele>159.4</ele>
        <time>2021-10-28 14:05:36</time>
      </trkpt>
      <trkpt lat="43.30977" lon="-3.09954">
        <ele>159.4</ele>
        <time>2021-10-28 14:05:37</time>
      </trkpt>
      <trkpt lat="43.30975" lon="-3.09947">
        <ele>159.6</ele>
        <time>2021-10-28 14:05:38</time>
      </trkpt>
      <trkpt lat="43.30974" lon="-3.09939">
        <ele>159.6</ele>
        <time>2021-10-28 14:05:39</time>
      </trkpt>
      <trkpt lat="43.30971" lon="-3.09923">
        <ele>159.4</ele>
        <time>2021-10-28 14:05:40</time>
      </trkpt>
      <trkpt lat="43.30971" lon="-3.09923">
        <ele>159</ele>
        <time>2021-10-28 14:05:41</time>
      </trkpt>
      <trkpt lat="43.3097" lon="-3.09915">
        <ele>158.8</ele>
        <time>2021-10-28 14:05:42</time>
      </trkpt>
      <trkpt lat="43.30969" lon="-3.09907">
        <ele>158.6</ele>
        <time>2021-10-28 14:05:43</time>
      </trkpt>
      <trkpt lat="43.30968" lon="-3.09899">
        <ele>158.4</ele>
        <time>2021-10-28 14:05:44</time>
      </trkpt>
      <trkpt lat="43.30967" lon="-3.0989">
        <ele>158.4</ele>
        <time>2021-10-28 14:05:45</time>
      </trkpt>
      <trkpt lat="43.30965" lon="-3.09882">
        <ele>158.6</ele>
        <time>2021-10-28 14:05:46</time>
      </trkpt>
      <trkpt lat="43.30964" lon="-3.09874">
        <ele>158.6</ele>
        <time>2021-10-28 14:05:47</time>
      </trkpt>
      <trkpt lat="43.30964" lon="-3.09866">
        <ele>158.6</ele>
        <time>2021-10-28 14:05:48</time>
      </trkpt>
      <trkpt lat="43.30964" lon="-3.09859">
        <ele>158.6</ele>
        <time>2021-10-28 14:05:49</time>
      </trkpt>
      <trkpt lat="43.30963" lon="-3.09852">
        <ele>158.6</ele>
        <time>2021-10-28 14:05:50</time>
      </trkpt>
      <trkpt lat="43.30962" lon="-3.09845">
        <ele>158.4</ele>
        <time>2021-10-28 14:05:51</time>
      </trkpt>
      <trkpt lat="43.30961" lon="-3.09837">
        <ele>158.2</ele>
        <time>2021-10-28 14:05:52</time>
      </trkpt>
      <trkpt lat="43.30959" lon="-3.0983">
        <ele>158</ele>
        <time>2021-10-28 14:05:53</time>
      </trkpt>
      <trkpt lat="43.30955" lon="-3.09815">
        <ele>158</ele>
        <time>2021-10-28 14:05:54</time>
      </trkpt>
      <trkpt lat="43.30955" lon="-3.09815">
        <ele>158</ele>
        <time>2021-10-28 14:05:55</time>
      </trkpt>
      <trkpt lat="43.30953" lon="-3.09808">
        <ele>158</ele>
        <time>2021-10-28 14:05:56</time>
      </trkpt>
      <trkpt lat="43.3095" lon="-3.09802">
        <ele>158.2</ele>
        <time>2021-10-28 14:05:57</time>
      </trkpt>
      <trkpt lat="43.30947" lon="-3.09796">
        <ele>158.2</ele>
        <time>2021-10-28 14:05:58</time>
      </trkpt>
      <trkpt lat="43.30947" lon="-3.09796">
        <ele>158.4</ele>
        <time>2021-10-28 14:05:59</time>
      </trkpt>
      <trkpt lat="43.3094" lon="-3.09783">
        <ele>158.4</ele>
        <time>2021-10-28 14:06:00</time>
      </trkpt>
      <trkpt lat="43.30937" lon="-3.09778">
        <ele>158.4</ele>
        <time>2021-10-28 14:06:01</time>
      </trkpt>
      <trkpt lat="43.30937" lon="-3.09778">
        <ele>158.4</ele>
        <time>2021-10-28 14:06:02</time>
      </trkpt>
      <trkpt lat="43.3093" lon="-3.09768">
        <ele>158.4</ele>
        <time>2021-10-28 14:06:03</time>
      </trkpt>
      <trkpt lat="43.30926" lon="-3.09763">
        <ele>158.4</ele>
        <time>2021-10-28 14:06:04</time>
      </trkpt>
      <trkpt lat="43.30922" lon="-3.09758">
        <ele>158.2</ele>
        <time>2021-10-28 14:06:05</time>
      </trkpt>
      <trkpt lat="43.30915" lon="-3.09747">
        <ele>158.2</ele>
        <time>2021-10-28 14:06:06</time>
      </trkpt>
      <trkpt lat="43.30915" lon="-3.09747">
        <ele>158.2</ele>
        <time>2021-10-28 14:06:07</time>
      </trkpt>
      <trkpt lat="43.30911" lon="-3.09741">
        <ele>158.2</ele>
        <time>2021-10-28 14:06:08</time>
      </trkpt>
      <trkpt lat="43.30908" lon="-3.09734">
        <ele>158.2</ele>
        <time>2021-10-28 14:06:09</time>
      </trkpt>
      <trkpt lat="43.30905" lon="-3.09728">
        <ele>158.2</ele>
        <time>2021-10-28 14:06:10</time>
      </trkpt>
      <trkpt lat="43.30902" lon="-3.09721">
        <ele>158.2</ele>
        <time>2021-10-28 14:06:11</time>
      </trkpt>
      <trkpt lat="43.30899" lon="-3.09714">
        <ele>158.4</ele>
        <time>2021-10-28 14:06:12</time>
      </trkpt>
      <trkpt lat="43.30897" lon="-3.09707">
        <ele>158.4</ele>
        <time>2021-10-28 14:06:13</time>
      </trkpt>
      <trkpt lat="43.30895" lon="-3.09699">
        <ele>158.4</ele>
        <time>2021-10-28 14:06:14</time>
      </trkpt>
      <trkpt lat="43.30893" lon="-3.09683">
        <ele>158.4</ele>
        <time>2021-10-28 14:06:15</time>
      </trkpt>
      <trkpt lat="43.30893" lon="-3.09683">
        <ele>158.4</ele>
        <time>2021-10-28 14:06:16</time>
      </trkpt>
      <trkpt lat="43.30892" lon="-3.09676">
        <ele>158.4</ele>
        <time>2021-10-28 14:06:17</time>
      </trkpt>
      <trkpt lat="43.30891" lon="-3.09668">
        <ele>158.4</ele>
        <time>2021-10-28 14:06:18</time>
      </trkpt>
      <trkpt lat="43.30891" lon="-3.0966">
        <ele>158.2</ele>
        <time>2021-10-28 14:06:19</time>
      </trkpt>
      <trkpt lat="43.30891" lon="-3.09652">
        <ele>158.2</ele>
        <time>2021-10-28 14:06:20</time>
      </trkpt>
      <trkpt lat="43.30892" lon="-3.09644">
        <ele>158.2</ele>
        <time>2021-10-28 14:06:21</time>
      </trkpt>
      <trkpt lat="43.30893" lon="-3.09637">
        <ele>158.2</ele>
        <time>2021-10-28 14:06:22</time>
      </trkpt>
      <trkpt lat="43.30895" lon="-3.09629">
        <ele>158</ele>
        <time>2021-10-28 14:06:23</time>
      </trkpt>
      <trkpt lat="43.30898" lon="-3.09615">
        <ele>158</ele>
        <time>2021-10-28 14:06:24</time>
      </trkpt>
      <trkpt lat="43.30898" lon="-3.09615">
        <ele>158</ele>
        <time>2021-10-28 14:06:25</time>
      </trkpt>
      <trkpt lat="43.30901" lon="-3.09607">
        <ele>158</ele>
        <time>2021-10-28 14:06:26</time>
      </trkpt>
      <trkpt lat="43.30902" lon="-3.096">
        <ele>158</ele>
        <time>2021-10-28 14:06:27</time>
      </trkpt>
      <trkpt lat="43.30904" lon="-3.09593">
        <ele>158.2</ele>
        <time>2021-10-28 14:06:28</time>
      </trkpt>
      <trkpt lat="43.30905" lon="-3.09585">
        <ele>158.2</ele>
        <time>2021-10-28 14:06:29</time>
      </trkpt>
      <trkpt lat="43.30906" lon="-3.09578">
        <ele>158.4</ele>
        <time>2021-10-28 14:06:30</time>
      </trkpt>
      <trkpt lat="43.30907" lon="-3.09571">
        <ele>158.4</ele>
        <time>2021-10-28 14:06:31</time>
      </trkpt>
      <trkpt lat="43.30907" lon="-3.09564">
        <ele>158.4</ele>
        <time>2021-10-28 14:06:32</time>
      </trkpt>
      <trkpt lat="43.30907" lon="-3.09549">
        <ele>158.6</ele>
        <time>2021-10-28 14:06:33</time>
      </trkpt>
      <trkpt lat="43.30907" lon="-3.09549">
        <ele>158.6</ele>
        <time>2021-10-28 14:06:34</time>
      </trkpt>
      <trkpt lat="43.30906" lon="-3.09542">
        <ele>158.6</ele>
        <time>2021-10-28 14:06:35</time>
      </trkpt>
      <trkpt lat="43.30906" lon="-3.09535">
        <ele>158.6</ele>
        <time>2021-10-28 14:06:36</time>
      </trkpt>
      <trkpt lat="43.30904" lon="-3.09528">
        <ele>158.6</ele>
        <time>2021-10-28 14:06:37</time>
      </trkpt>
      <trkpt lat="43.30901" lon="-3.09514">
        <ele>158.8</ele>
        <time>2021-10-28 14:06:38</time>
      </trkpt>
      <trkpt lat="43.30901" lon="-3.09514">
        <ele>158.8</ele>
        <time>2021-10-28 14:06:39</time>
      </trkpt>
      <trkpt lat="43.309" lon="-3.09508">
        <ele>159</ele>
        <time>2021-10-28 14:06:40</time>
      </trkpt>
      <trkpt lat="43.30898" lon="-3.09501">
        <ele>159</ele>
        <time>2021-10-28 14:06:41</time>
      </trkpt>
      <trkpt lat="43.30896" lon="-3.09495">
        <ele>158.8</ele>
        <time>2021-10-28 14:06:42</time>
      </trkpt>
      <trkpt lat="43.30893" lon="-3.09488">
        <ele>158.8</ele>
        <time>2021-10-28 14:06:43</time>
      </trkpt>
      <trkpt lat="43.30891" lon="-3.09482">
        <ele>158.8</ele>
        <time>2021-10-28 14:06:44</time>
      </trkpt>
      <trkpt lat="43.30889" lon="-3.09475">
        <ele>158.8</ele>
        <time>2021-10-28 14:06:45</time>
      </trkpt>
      <trkpt lat="43.30886" lon="-3.09469">
        <ele>158.8</ele>
        <time>2021-10-28 14:06:46</time>
      </trkpt>
      <trkpt lat="43.3088" lon="-3.09458">
        <ele>159</ele>
        <time>2021-10-28 14:06:47</time>
      </trkpt>
      <trkpt lat="43.3088" lon="-3.09458">
        <ele>159</ele>
        <time>2021-10-28 14:06:48</time>
      </trkpt>
      <trkpt lat="43.30877" lon="-3.09452">
        <ele>159</ele>
        <time>2021-10-28 14:06:49</time>
      </trkpt>
      <trkpt lat="43.30874" lon="-3.09446">
        <ele>159</ele>
        <time>2021-10-28 14:06:50</time>
      </trkpt>
      <trkpt lat="43.30871" lon="-3.09441">
        <ele>159</ele>
        <time>2021-10-28 14:06:51</time>
      </trkpt>
      <trkpt lat="43.30863" lon="-3.09432">
        <ele>159</ele>
        <time>2021-10-28 14:06:52</time>
      </trkpt>
      <trkpt lat="43.30863" lon="-3.09432">
        <ele>158.8</ele>
        <time>2021-10-28 14:06:53</time>
      </trkpt>
      <trkpt lat="43.30859" lon="-3.09428">
        <ele>158.8</ele>
        <time>2021-10-28 14:06:54</time>
      </trkpt>
      <trkpt lat="43.3085" lon="-3.09421">
        <ele>158.8</ele>
        <time>2021-10-28 14:06:55</time>
      </trkpt>
      <trkpt lat="43.3085" lon="-3.09421">
        <ele>158.6</ele>
        <time>2021-10-28 14:06:56</time>
      </trkpt>
      <trkpt lat="43.30846" lon="-3.09418">
        <ele>158.6</ele>
        <time>2021-10-28 14:06:57</time>
      </trkpt>
      <trkpt lat="43.30842" lon="-3.09415">
        <ele>158.4</ele>
        <time>2021-10-28 14:06:58</time>
      </trkpt>
      <trkpt lat="43.30837" lon="-3.09413">
        <ele>158.4</ele>
        <time>2021-10-28 14:06:59</time>
      </trkpt>
      <trkpt lat="43.30832" lon="-3.09412">
        <ele>158.2</ele>
        <time>2021-10-28 14:07:00</time>
      </trkpt>
      <trkpt lat="43.30827" lon="-3.0941">
        <ele>158</ele>
        <time>2021-10-28 14:07:01</time>
      </trkpt>
      <trkpt lat="43.30822" lon="-3.09408">
        <ele>158</ele>
        <time>2021-10-28 14:07:02</time>
      </trkpt>
      <trkpt lat="43.30811" lon="-3.09406">
        <ele>157.8</ele>
        <time>2021-10-28 14:07:03</time>
      </trkpt>
      <trkpt lat="43.30811" lon="-3.09406">
        <ele>157.8</ele>
        <time>2021-10-28 14:07:04</time>
      </trkpt>
      <trkpt lat="43.30806" lon="-3.09406">
        <ele>157.8</ele>
        <time>2021-10-28 14:07:05</time>
      </trkpt>
      <trkpt lat="43.30801" lon="-3.09406">
        <ele>157.8</ele>
        <time>2021-10-28 14:07:06</time>
      </trkpt>
      <trkpt lat="43.3079" lon="-3.09408">
        <ele>158</ele>
        <time>2021-10-28 14:07:07</time>
      </trkpt>
      <trkpt lat="43.3079" lon="-3.09408">
        <ele>158</ele>
        <time>2021-10-28 14:07:08</time>
      </trkpt>
      <trkpt lat="43.30785" lon="-3.09409">
        <ele>158</ele>
        <time>2021-10-28 14:07:09</time>
      </trkpt>
      <trkpt lat="43.3078" lon="-3.09411">
        <ele>158</ele>
        <time>2021-10-28 14:07:10</time>
      </trkpt>
      <trkpt lat="43.30775" lon="-3.09413">
        <ele>158</ele>
        <time>2021-10-28 14:07:11</time>
      </trkpt>
      <trkpt lat="43.30766" lon="-3.0942">
        <ele>158</ele>
        <time>2021-10-28 14:07:12</time>
      </trkpt>
      <trkpt lat="43.30766" lon="-3.0942">
        <ele>158</ele>
        <time>2021-10-28 14:07:13</time>
      </trkpt>
      <trkpt lat="43.30756" lon="-3.09428">
        <ele>158</ele>
        <time>2021-10-28 14:07:14</time>
      </trkpt>
      <trkpt lat="43.30756" lon="-3.09428">
        <ele>158</ele>
        <time>2021-10-28 14:07:15</time>
      </trkpt>
      <trkpt lat="43.30748" lon="-3.09436">
        <ele>157.8</ele>
        <time>2021-10-28 14:07:16</time>
      </trkpt>
      <trkpt lat="43.30748" lon="-3.09436">
        <ele>157.8</ele>
        <time>2021-10-28 14:07:17</time>
      </trkpt>
      <trkpt lat="43.30744" lon="-3.0944">
        <ele>157.6</ele>
        <time>2021-10-28 14:07:18</time>
      </trkpt>
      <trkpt lat="43.30739" lon="-3.09444">
        <ele>157.6</ele>
        <time>2021-10-28 14:07:19</time>
      </trkpt>
      <trkpt lat="43.30734" lon="-3.09448">
        <ele>157.4</ele>
        <time>2021-10-28 14:07:20</time>
      </trkpt>
      <trkpt lat="43.30729" lon="-3.09453">
        <ele>157.4</ele>
        <time>2021-10-28 14:07:21</time>
      </trkpt>
      <trkpt lat="43.30725" lon="-3.09458">
        <ele>157.4</ele>
        <time>2021-10-28 14:07:22</time>
      </trkpt>
      <trkpt lat="43.3072" lon="-3.09463">
        <ele>157.4</ele>
        <time>2021-10-28 14:07:23</time>
      </trkpt>
      <trkpt lat="43.30716" lon="-3.09467">
        <ele>157.4</ele>
        <time>2021-10-28 14:07:24</time>
      </trkpt>
      <trkpt lat="43.30712" lon="-3.09472">
        <ele>157.4</ele>
        <time>2021-10-28 14:07:25</time>
      </trkpt>
      <trkpt lat="43.30708" lon="-3.09478">
        <ele>157.4</ele>
        <time>2021-10-28 14:07:26</time>
      </trkpt>
      <trkpt lat="43.30699" lon="-3.09486">
        <ele>157.4</ele>
        <time>2021-10-28 14:07:27</time>
      </trkpt>
      <trkpt lat="43.30699" lon="-3.09486">
        <ele>157.4</ele>
        <time>2021-10-28 14:07:28</time>
      </trkpt>
      <trkpt lat="43.30694" lon="-3.0949">
        <ele>157.4</ele>
        <time>2021-10-28 14:07:29</time>
      </trkpt>
      <trkpt lat="43.30689" lon="-3.09493">
        <ele>157.4</ele>
        <time>2021-10-28 14:07:30</time>
      </trkpt>
      <trkpt lat="43.30684" lon="-3.09496">
        <ele>157.2</ele>
        <time>2021-10-28 14:07:31</time>
      </trkpt>
      <trkpt lat="43.30679" lon="-3.09499">
        <ele>157.2</ele>
        <time>2021-10-28 14:07:32</time>
      </trkpt>
      <trkpt lat="43.30679" lon="-3.09499">
        <ele>157</ele>
        <time>2021-10-28 14:07:33</time>
      </trkpt>
      <trkpt lat="43.30669" lon="-3.09504">
        <ele>157</ele>
        <time>2021-10-28 14:07:34</time>
      </trkpt>
      <trkpt lat="43.30663" lon="-3.09507">
        <ele>157</ele>
        <time>2021-10-28 14:07:35</time>
      </trkpt>
      <trkpt lat="43.30663" lon="-3.09507">
        <ele>157</ele>
        <time>2021-10-28 14:07:36</time>
      </trkpt>
      <trkpt lat="43.30652" lon="-3.09512">
        <ele>157</ele>
        <time>2021-10-28 14:07:37</time>
      </trkpt>
      <trkpt lat="43.30646" lon="-3.09515">
        <ele>157.2</ele>
        <time>2021-10-28 14:07:38</time>
      </trkpt>
      <trkpt lat="43.30641" lon="-3.09518">
        <ele>157.2</ele>
        <time>2021-10-28 14:07:39</time>
      </trkpt>
      <trkpt lat="43.30635" lon="-3.09521">
        <ele>157.4</ele>
        <time>2021-10-28 14:07:40</time>
      </trkpt>
      <trkpt lat="43.3063" lon="-3.09523">
        <ele>157.4</ele>
        <time>2021-10-28 14:07:41</time>
      </trkpt>
      <trkpt lat="43.30625" lon="-3.09526">
        <ele>157.4</ele>
        <time>2021-10-28 14:07:42</time>
      </trkpt>
      <trkpt lat="43.30615" lon="-3.09531">
        <ele>157.4</ele>
        <time>2021-10-28 14:07:43</time>
      </trkpt>
      <trkpt lat="43.30615" lon="-3.09531">
        <ele>157.6</ele>
        <time>2021-10-28 14:07:44</time>
      </trkpt>
      <trkpt lat="43.3061" lon="-3.09533">
        <ele>157.6</ele>
        <time>2021-10-28 14:07:45</time>
      </trkpt>
      <trkpt lat="43.30605" lon="-3.09536">
        <ele>157.8</ele>
        <time>2021-10-28 14:07:46</time>
      </trkpt>
      <trkpt lat="43.306" lon="-3.09538">
        <ele>157.8</ele>
        <time>2021-10-28 14:07:47</time>
      </trkpt>
      <trkpt lat="43.30596" lon="-3.0954">
        <ele>158</ele>
        <time>2021-10-28 14:07:48</time>
      </trkpt>
      <trkpt lat="43.30591" lon="-3.09543">
        <ele>158</ele>
        <time>2021-10-28 14:07:49</time>
      </trkpt>
      <trkpt lat="43.30587" lon="-3.09545">
        <ele>158</ele>
        <time>2021-10-28 14:07:50</time>
      </trkpt>
      <trkpt lat="43.30578" lon="-3.09551">
        <ele>158.2</ele>
        <time>2021-10-28 14:07:51</time>
      </trkpt>
      <trkpt lat="43.30578" lon="-3.09551">
        <ele>158.2</ele>
        <time>2021-10-28 14:07:52</time>
      </trkpt>
      <trkpt lat="43.30573" lon="-3.09553">
        <ele>158.2</ele>
        <time>2021-10-28 14:07:53</time>
      </trkpt>
      <trkpt lat="43.30568" lon="-3.09555">
        <ele>158.2</ele>
        <time>2021-10-28 14:07:54</time>
      </trkpt>
      <trkpt lat="43.30558" lon="-3.09558">
        <ele>158.4</ele>
        <time>2021-10-28 14:07:55</time>
      </trkpt>
      <trkpt lat="43.30558" lon="-3.09558">
        <ele>158.4</ele>
        <time>2021-10-28 14:07:56</time>
      </trkpt>
      <trkpt lat="43.30548" lon="-3.09559">
        <ele>158.4</ele>
        <time>2021-10-28 14:07:57</time>
      </trkpt>
      <trkpt lat="43.30548" lon="-3.09559">
        <ele>158.4</ele>
        <time>2021-10-28 14:07:58</time>
      </trkpt>
      <trkpt lat="43.30542" lon="-3.09559">
        <ele>158.4</ele>
        <time>2021-10-28 14:07:59</time>
      </trkpt>
      <trkpt lat="43.30537" lon="-3.0956">
        <ele>158.4</ele>
        <time>2021-10-28 14:08:00</time>
      </trkpt>
      <trkpt lat="43.30532" lon="-3.0956">
        <ele>158.4</ele>
        <time>2021-10-28 14:08:01</time>
      </trkpt>
      <trkpt lat="43.30521" lon="-3.0956">
        <ele>158.4</ele>
        <time>2021-10-28 14:08:02</time>
      </trkpt>
      <trkpt lat="43.30521" lon="-3.0956">
        <ele>158.2</ele>
        <time>2021-10-28 14:08:03</time>
      </trkpt>
      <trkpt lat="43.30515" lon="-3.09559">
        <ele>158.2</ele>
        <time>2021-10-28 14:08:04</time>
      </trkpt>
      <trkpt lat="43.3051" lon="-3.09558">
        <ele>158.2</ele>
        <time>2021-10-28 14:08:05</time>
      </trkpt>
      <trkpt lat="43.30504" lon="-3.09555">
        <ele>158</ele>
        <time>2021-10-28 14:08:06</time>
      </trkpt>
      <trkpt lat="43.30499" lon="-3.09553">
        <ele>158</ele>
        <time>2021-10-28 14:08:07</time>
      </trkpt>
      <trkpt lat="43.30494" lon="-3.0955">
        <ele>158</ele>
        <time>2021-10-28 14:08:08</time>
      </trkpt>
      <trkpt lat="43.30488" lon="-3.09546">
        <ele>158</ele>
        <time>2021-10-28 14:08:09</time>
      </trkpt>
      <trkpt lat="43.30483" lon="-3.09543">
        <ele>158</ele>
        <time>2021-10-28 14:08:10</time>
      </trkpt>
      <trkpt lat="43.30479" lon="-3.0954">
        <ele>158</ele>
        <time>2021-10-28 14:08:11</time>
      </trkpt>
      <trkpt lat="43.3047" lon="-3.09532">
        <ele>158.2</ele>
        <time>2021-10-28 14:08:12</time>
      </trkpt>
      <trkpt lat="43.3047" lon="-3.09532">
        <ele>158.2</ele>
        <time>2021-10-28 14:08:13</time>
      </trkpt>
      <trkpt lat="43.30467" lon="-3.09527">
        <ele>158</ele>
        <time>2021-10-28 14:08:14</time>
      </trkpt>
      <trkpt lat="43.30464" lon="-3.09524">
        <ele>157.8</ele>
        <time>2021-10-28 14:08:15</time>
      </trkpt>
      <trkpt lat="43.30461" lon="-3.0952">
        <ele>157.8</ele>
        <time>2021-10-28 14:08:16</time>
      </trkpt>
      <trkpt lat="43.30457" lon="-3.09514">
        <ele>157.6</ele>
        <time>2021-10-28 14:08:17</time>
      </trkpt>
      <trkpt lat="43.30453" lon="-3.09508">
        <ele>157.2</ele>
        <time>2021-10-28 14:08:18</time>
      </trkpt>
      <trkpt lat="43.30451" lon="-3.09499">
        <ele>156.8</ele>
        <time>2021-10-28 14:08:19</time>
      </trkpt>
      <trkpt lat="43.3045" lon="-3.0949">
        <ele>156.4</ele>
        <time>2021-10-28 14:08:20</time>
      </trkpt>
      <trkpt lat="43.3045" lon="-3.09481">
        <ele>156.2</ele>
        <time>2021-10-28 14:08:21</time>
      </trkpt>
      <trkpt lat="43.30452" lon="-3.09465">
        <ele>156</ele>
        <time>2021-10-28 14:08:22</time>
      </trkpt>
      <trkpt lat="43.30452" lon="-3.09465">
        <ele>155.8</ele>
        <time>2021-10-28 14:08:23</time>
      </trkpt>
      <trkpt lat="43.30454" lon="-3.09457">
        <ele>155.8</ele>
        <time>2021-10-28 14:08:24</time>
      </trkpt>
      <trkpt lat="43.30455" lon="-3.09449">
        <ele>155.6</ele>
        <time>2021-10-28 14:08:25</time>
      </trkpt>
      <trkpt lat="43.30457" lon="-3.09442">
        <ele>155.6</ele>
        <time>2021-10-28 14:08:26</time>
      </trkpt>
      <trkpt lat="43.30459" lon="-3.09435">
        <ele>155.6</ele>
        <time>2021-10-28 14:08:27</time>
      </trkpt>
      <trkpt lat="43.30462" lon="-3.09428">
        <ele>155.4</ele>
        <time>2021-10-28 14:08:28</time>
      </trkpt>
      <trkpt lat="43.30465" lon="-3.09422">
        <ele>155.4</ele>
        <time>2021-10-28 14:08:29</time>
      </trkpt>
      <trkpt lat="43.30467" lon="-3.09416">
        <ele>155.4</ele>
        <time>2021-10-28 14:08:30</time>
      </trkpt>
      <trkpt lat="43.30471" lon="-3.09411">
        <ele>155.4</ele>
        <time>2021-10-28 14:08:31</time>
      </trkpt>
      <trkpt lat="43.30475" lon="-3.09406">
        <ele>155.4</ele>
        <time>2021-10-28 14:08:32</time>
      </trkpt>
      <trkpt lat="43.3048" lon="-3.09401">
        <ele>155.4</ele>
        <time>2021-10-28 14:08:33</time>
      </trkpt>
      <trkpt lat="43.30485" lon="-3.09397">
        <ele>155.4</ele>
        <time>2021-10-28 14:08:34</time>
      </trkpt>
      <trkpt lat="43.30491" lon="-3.09393">
        <ele>155.4</ele>
        <time>2021-10-28 14:08:35</time>
      </trkpt>
      <trkpt lat="43.30496" lon="-3.0939">
        <ele>155.4</ele>
        <time>2021-10-28 14:08:36</time>
      </trkpt>
      <trkpt lat="43.30501" lon="-3.09388">
        <ele>155.4</ele>
        <time>2021-10-28 14:08:37</time>
      </trkpt>
      <trkpt lat="43.30506" lon="-3.09385">
        <ele>155.4</ele>
        <time>2021-10-28 14:08:38</time>
      </trkpt>
      <trkpt lat="43.30512" lon="-3.09382">
        <ele>155.4</ele>
        <time>2021-10-28 14:08:39</time>
      </trkpt>
      <trkpt lat="43.30517" lon="-3.09379">
        <ele>155.4</ele>
        <time>2021-10-28 14:08:40</time>
      </trkpt>
      <trkpt lat="43.30522" lon="-3.09376">
        <ele>155.4</ele>
        <time>2021-10-28 14:08:41</time>
      </trkpt>
      <trkpt lat="43.30533" lon="-3.09369">
        <ele>155.4</ele>
        <time>2021-10-28 14:08:42</time>
      </trkpt>
      <trkpt lat="43.30533" lon="-3.09369">
        <ele>155.4</ele>
        <time>2021-10-28 14:08:43</time>
      </trkpt>
      <trkpt lat="43.30537" lon="-3.09364">
        <ele>155.4</ele>
        <time>2021-10-28 14:08:44</time>
      </trkpt>
      <trkpt lat="43.30546" lon="-3.09355">
        <ele>155.4</ele>
        <time>2021-10-28 14:08:45</time>
      </trkpt>
      <trkpt lat="43.30546" lon="-3.09355">
        <ele>155.4</ele>
        <time>2021-10-28 14:08:46</time>
      </trkpt>
      <trkpt lat="43.3055" lon="-3.09351">
        <ele>155.4</ele>
        <time>2021-10-28 14:08:47</time>
      </trkpt>
      <trkpt lat="43.30561" lon="-3.09339">
        <ele>155.4</ele>
        <time>2021-10-28 14:08:48</time>
      </trkpt>
      <trkpt lat="43.30561" lon="-3.09339">
        <ele>155.2</ele>
        <time>2021-10-28 14:08:49</time>
      </trkpt>
      <trkpt lat="43.30565" lon="-3.09334">
        <ele>155.2</ele>
        <time>2021-10-28 14:08:50</time>
      </trkpt>
      <trkpt lat="43.30569" lon="-3.09329">
        <ele>155.2</ele>
        <time>2021-10-28 14:08:51</time>
      </trkpt>
      <trkpt lat="43.30572" lon="-3.09325">
        <ele>155.2</ele>
        <time>2021-10-28 14:08:52</time>
      </trkpt>
      <trkpt lat="43.30576" lon="-3.09321">
        <ele>155.2</ele>
        <time>2021-10-28 14:08:53</time>
      </trkpt>
      <trkpt lat="43.30578" lon="-3.09317">
        <ele>155.2</ele>
        <time>2021-10-28 14:08:54</time>
      </trkpt>
      <trkpt lat="43.30583" lon="-3.09311">
        <ele>155.2</ele>
        <time>2021-10-28 14:08:55</time>
      </trkpt>
      <trkpt lat="43.30585" lon="-3.09306">
        <ele>155</ele>
        <time>2021-10-28 14:08:56</time>
      </trkpt>
      <trkpt lat="43.30586" lon="-3.093">
        <ele>155</ele>
        <time>2021-10-28 14:08:57</time>
      </trkpt>
      <trkpt lat="43.3059" lon="-3.09294">
        <ele>155</ele>
        <time>2021-10-28 14:08:58</time>
      </trkpt>
      <trkpt lat="43.30594" lon="-3.09287">
        <ele>155</ele>
        <time>2021-10-28 14:08:59</time>
      </trkpt>
      <trkpt lat="43.30598" lon="-3.09281">
        <ele>154.8</ele>
        <time>2021-10-28 14:09:00</time>
      </trkpt>
      <trkpt lat="43.30602" lon="-3.09275">
        <ele>154.6</ele>
        <time>2021-10-28 14:09:01</time>
      </trkpt>
      <trkpt lat="43.30606" lon="-3.09269">
        <ele>154.6</ele>
        <time>2021-10-28 14:09:02</time>
      </trkpt>
      <trkpt lat="43.30609" lon="-3.09263">
        <ele>154.4</ele>
        <time>2021-10-28 14:09:03</time>
      </trkpt>
      <trkpt lat="43.30612" lon="-3.09258">
        <ele>154.4</ele>
        <time>2021-10-28 14:09:04</time>
      </trkpt>
      <trkpt lat="43.30617" lon="-3.09252">
        <ele>154.2</ele>
        <time>2021-10-28 14:09:05</time>
      </trkpt>
      <trkpt lat="43.30621" lon="-3.09245">
        <ele>154</ele>
        <time>2021-10-28 14:09:06</time>
      </trkpt>
      <trkpt lat="43.30625" lon="-3.09239">
        <ele>153.8</ele>
        <time>2021-10-28 14:09:07</time>
      </trkpt>
      <trkpt lat="43.30629" lon="-3.09232">
        <ele>153.6</ele>
        <time>2021-10-28 14:09:08</time>
      </trkpt>
      <trkpt lat="43.30632" lon="-3.09225">
        <ele>153.4</ele>
        <time>2021-10-28 14:09:09</time>
      </trkpt>
      <trkpt lat="43.30638" lon="-3.09211">
        <ele>153.2</ele>
        <time>2021-10-28 14:09:10</time>
      </trkpt>
      <trkpt lat="43.30638" lon="-3.09211">
        <ele>152.8</ele>
        <time>2021-10-28 14:09:11</time>
      </trkpt>
      <trkpt lat="43.3064" lon="-3.09203">
        <ele>152.6</ele>
        <time>2021-10-28 14:09:12</time>
      </trkpt>
      <trkpt lat="43.30643" lon="-3.09189">
        <ele>152.4</ele>
        <time>2021-10-28 14:09:13</time>
      </trkpt>
      <trkpt lat="43.30643" lon="-3.09189">
        <ele>152</ele>
        <time>2021-10-28 14:09:14</time>
      </trkpt>
      <trkpt lat="43.30644" lon="-3.09174">
        <ele>151.8</ele>
        <time>2021-10-28 14:09:15</time>
      </trkpt>
      <trkpt lat="43.30644" lon="-3.09174">
        <ele>151.6</ele>
        <time>2021-10-28 14:09:16</time>
      </trkpt>
      <trkpt lat="43.30645" lon="-3.09168">
        <ele>151.6</ele>
        <time>2021-10-28 14:09:17</time>
      </trkpt>
      <trkpt lat="43.30645" lon="-3.09154">
        <ele>151.6</ele>
        <time>2021-10-28 14:09:18</time>
      </trkpt>
      <trkpt lat="43.30645" lon="-3.09154">
        <ele>151.6</ele>
        <time>2021-10-28 14:09:19</time>
      </trkpt>
      <trkpt lat="43.30645" lon="-3.09141">
        <ele>151.4</ele>
        <time>2021-10-28 14:09:20</time>
      </trkpt>
      <trkpt lat="43.30645" lon="-3.09141">
        <ele>151.2</ele>
        <time>2021-10-28 14:09:21</time>
      </trkpt>
      <trkpt lat="43.30643" lon="-3.09125">
        <ele>151</ele>
        <time>2021-10-28 14:09:22</time>
      </trkpt>
      <trkpt lat="43.30643" lon="-3.09125">
        <ele>151</ele>
        <time>2021-10-28 14:09:23</time>
      </trkpt>
      <trkpt lat="43.30642" lon="-3.09118">
        <ele>151.2</ele>
        <time>2021-10-28 14:09:24</time>
      </trkpt>
      <trkpt lat="43.30641" lon="-3.09111">
        <ele>151.2</ele>
        <time>2021-10-28 14:09:25</time>
      </trkpt>
      <trkpt lat="43.30639" lon="-3.09103">
        <ele>151.2</ele>
        <time>2021-10-28 14:09:26</time>
      </trkpt>
      <trkpt lat="43.30635" lon="-3.09087">
        <ele>151.2</ele>
        <time>2021-10-28 14:09:27</time>
      </trkpt>
      <trkpt lat="43.30635" lon="-3.09087">
        <ele>151.2</ele>
        <time>2021-10-28 14:09:28</time>
      </trkpt>
      <trkpt lat="43.30631" lon="-3.09071">
        <ele>151.2</ele>
        <time>2021-10-28 14:09:29</time>
      </trkpt>
      <trkpt lat="43.30631" lon="-3.09071">
        <ele>151.2</ele>
        <time>2021-10-28 14:09:30</time>
      </trkpt>
      <trkpt lat="43.30626" lon="-3.09056">
        <ele>151.2</ele>
        <time>2021-10-28 14:09:31</time>
      </trkpt>
      <trkpt lat="43.30626" lon="-3.09056">
        <ele>151.2</ele>
        <time>2021-10-28 14:09:32</time>
      </trkpt>
      <trkpt lat="43.30624" lon="-3.09049">
        <ele>151.2</ele>
        <time>2021-10-28 14:09:33</time>
      </trkpt>
      <trkpt lat="43.3062" lon="-3.09042">
        <ele>151.2</ele>
        <time>2021-10-28 14:09:34</time>
      </trkpt>
      <trkpt lat="43.30617" lon="-3.09036">
        <ele>151.4</ele>
        <time>2021-10-28 14:09:35</time>
      </trkpt>
      <trkpt lat="43.30614" lon="-3.0903">
        <ele>151.4</ele>
        <time>2021-10-28 14:09:36</time>
      </trkpt>
      <trkpt lat="43.30611" lon="-3.09024">
        <ele>151.4</ele>
        <time>2021-10-28 14:09:37</time>
      </trkpt>
      <trkpt lat="43.30608" lon="-3.09019">
        <ele>151.6</ele>
        <time>2021-10-28 14:09:38</time>
      </trkpt>
      <trkpt lat="43.30602" lon="-3.09007">
        <ele>151.6</ele>
        <time>2021-10-28 14:09:39</time>
      </trkpt>
      <trkpt lat="43.30602" lon="-3.09007">
        <ele>151.6</ele>
        <time>2021-10-28 14:09:40</time>
      </trkpt>
      <trkpt lat="43.30599" lon="-3.09001">
        <ele>151.6</ele>
        <time>2021-10-28 14:09:41</time>
      </trkpt>
      <trkpt lat="43.30596" lon="-3.08994">
        <ele>151.6</ele>
        <time>2021-10-28 14:09:42</time>
      </trkpt>
      <trkpt lat="43.30594" lon="-3.08988">
        <ele>151.6</ele>
        <time>2021-10-28 14:09:43</time>
      </trkpt>
      <trkpt lat="43.30592" lon="-3.08982">
        <ele>151.6</ele>
        <time>2021-10-28 14:09:44</time>
      </trkpt>
      <trkpt lat="43.30589" lon="-3.08976">
        <ele>151.6</ele>
        <time>2021-10-28 14:09:45</time>
      </trkpt>
      <trkpt lat="43.30584" lon="-3.08954">
        <ele>151.4</ele>
        <time>2021-10-28 14:09:46</time>
      </trkpt>
      <trkpt lat="43.30584" lon="-3.08954">
        <ele>151.4</ele>
        <time>2021-10-28 14:09:47</time>
      </trkpt>
      <trkpt lat="43.30584" lon="-3.08947">
        <ele>151.4</ele>
        <time>2021-10-28 14:09:48</time>
      </trkpt>
      <trkpt lat="43.30583" lon="-3.08939">
        <ele>151.6</ele>
        <time>2021-10-28 14:09:49</time>
      </trkpt>
      <trkpt lat="43.30583" lon="-3.08932">
        <ele>151.6</ele>
        <time>2021-10-28 14:09:50</time>
      </trkpt>
      <trkpt lat="43.30583" lon="-3.08925">
        <ele>151.6</ele>
        <time>2021-10-28 14:09:51</time>
      </trkpt>
      <trkpt lat="43.30584" lon="-3.08918">
        <ele>151.6</ele>
        <time>2021-10-28 14:09:52</time>
      </trkpt>
      <trkpt lat="43.30585" lon="-3.08911">
        <ele>151.4</ele>
        <time>2021-10-28 14:09:53</time>
      </trkpt>
      <trkpt lat="43.30586" lon="-3.08904">
        <ele>151.4</ele>
        <time>2021-10-28 14:09:54</time>
      </trkpt>
      <trkpt lat="43.30587" lon="-3.08897">
        <ele>151.4</ele>
        <time>2021-10-28 14:09:55</time>
      </trkpt>
      <trkpt lat="43.30589" lon="-3.0889">
        <ele>151.2</ele>
        <time>2021-10-28 14:09:56</time>
      </trkpt>
      <trkpt lat="43.30591" lon="-3.08884">
        <ele>151.2</ele>
        <time>2021-10-28 14:09:57</time>
      </trkpt>
      <trkpt lat="43.30597" lon="-3.08872">
        <ele>151.2</ele>
        <time>2021-10-28 14:09:58</time>
      </trkpt>
      <trkpt lat="43.30597" lon="-3.08872">
        <ele>151</ele>
        <time>2021-10-28 14:09:59</time>
      </trkpt>
      <trkpt lat="43.30601" lon="-3.08867">
        <ele>151</ele>
        <time>2021-10-28 14:10:00</time>
      </trkpt>
      <trkpt lat="43.30604" lon="-3.08862">
        <ele>151</ele>
        <time>2021-10-28 14:10:01</time>
      </trkpt>
      <trkpt lat="43.30608" lon="-3.08857">
        <ele>151</ele>
        <time>2021-10-28 14:10:02</time>
      </trkpt>
      <trkpt lat="43.30611" lon="-3.08852">
        <ele>150.8</ele>
        <time>2021-10-28 14:10:03</time>
      </trkpt>
      <trkpt lat="43.30615" lon="-3.08847">
        <ele>150.8</ele>
        <time>2021-10-28 14:10:04</time>
      </trkpt>
      <trkpt lat="43.30619" lon="-3.08843">
        <ele>150.8</ele>
        <time>2021-10-28 14:10:05</time>
      </trkpt>
      <trkpt lat="43.30624" lon="-3.08839">
        <ele>150.8</ele>
        <time>2021-10-28 14:10:06</time>
      </trkpt>
      <trkpt lat="43.30629" lon="-3.08836">
        <ele>150.8</ele>
        <time>2021-10-28 14:10:07</time>
      </trkpt>
      <trkpt lat="43.30633" lon="-3.08834">
        <ele>151</ele>
        <time>2021-10-28 14:10:08</time>
      </trkpt>
      <trkpt lat="43.30638" lon="-3.08832">
        <ele>151</ele>
        <time>2021-10-28 14:10:09</time>
      </trkpt>
      <trkpt lat="43.30644" lon="-3.08831">
        <ele>151.2</ele>
        <time>2021-10-28 14:10:10</time>
      </trkpt>
      <trkpt lat="43.30649" lon="-3.08831">
        <ele>151.4</ele>
        <time>2021-10-28 14:10:12</time>
      </trkpt>
      <trkpt lat="43.30653" lon="-3.08831">
        <ele>151.4</ele>
        <time>2021-10-28 14:10:13</time>
      </trkpt>
      <trkpt lat="43.30658" lon="-3.08833">
        <ele>151.8</ele>
        <time>2021-10-28 14:10:14</time>
      </trkpt>
      <trkpt lat="43.30663" lon="-3.08834">
        <ele>152</ele>
        <time>2021-10-28 14:10:15</time>
      </trkpt>
      <trkpt lat="43.30668" lon="-3.08836">
        <ele>152.4</ele>
        <time>2021-10-28 14:10:16</time>
      </trkpt>
      <trkpt lat="43.30673" lon="-3.08837">
        <ele>152.4</ele>
        <time>2021-10-28 14:10:17</time>
      </trkpt>
      <trkpt lat="43.30678" lon="-3.08837">
        <ele>152.4</ele>
        <time>2021-10-28 14:10:18</time>
      </trkpt>
      <trkpt lat="43.30686" lon="-3.08838">
        <ele>152.4</ele>
        <time>2021-10-28 14:10:19</time>
      </trkpt>
      <trkpt lat="43.30686" lon="-3.08838">
        <ele>152.4</ele>
        <time>2021-10-28 14:10:20</time>
      </trkpt>
      <trkpt lat="43.30691" lon="-3.08838">
        <ele>152.4</ele>
        <time>2021-10-28 14:10:21</time>
      </trkpt>
      <trkpt lat="43.30696" lon="-3.08838">
        <ele>152.6</ele>
        <time>2021-10-28 14:10:22</time>
      </trkpt>
      <trkpt lat="43.30701" lon="-3.0884">
        <ele>152.6</ele>
        <time>2021-10-28 14:10:23</time>
      </trkpt>
      <trkpt lat="43.30706" lon="-3.08842">
        <ele>152.4</ele>
        <time>2021-10-28 14:10:24</time>
      </trkpt>
      <trkpt lat="43.30714" lon="-3.08844">
        <ele>152.2</ele>
        <time>2021-10-28 14:10:25</time>
      </trkpt>
      <trkpt lat="43.30714" lon="-3.08844">
        <ele>151.8</ele>
        <time>2021-10-28 14:10:26</time>
      </trkpt>
      <trkpt lat="43.30725" lon="-3.08846">
        <ele>151.8</ele>
        <time>2021-10-28 14:10:27</time>
      </trkpt>
      <trkpt lat="43.30725" lon="-3.08846">
        <ele>151.6</ele>
        <time>2021-10-28 14:10:28</time>
      </trkpt>
      <trkpt lat="43.30736" lon="-3.08849">
        <ele>151.6</ele>
        <time>2021-10-28 14:10:29</time>
      </trkpt>
      <trkpt lat="43.30736" lon="-3.08849">
        <ele>151.6</ele>
        <time>2021-10-28 14:10:30</time>
      </trkpt>
      <trkpt lat="43.30748" lon="-3.08854">
        <ele>151.6</ele>
        <time>2021-10-28 14:10:31</time>
      </trkpt>
      <trkpt lat="43.30748" lon="-3.08854">
        <ele>151.8</ele>
        <time>2021-10-28 14:10:32</time>
      </trkpt>
      <trkpt lat="43.30758" lon="-3.08865">
        <ele>151.8</ele>
        <time>2021-10-28 14:10:33</time>
      </trkpt>
      <trkpt lat="43.30758" lon="-3.08865">
        <ele>152</ele>
        <time>2021-10-28 14:10:34</time>
      </trkpt>
      <trkpt lat="43.3076" lon="-3.08871">
        <ele>152.2</ele>
        <time>2021-10-28 14:10:35</time>
      </trkpt>
      <trkpt lat="43.30766" lon="-3.08871">
        <ele>152.2</ele>
        <time>2021-10-28 14:10:36</time>
      </trkpt>
      <trkpt lat="43.30768" lon="-3.08878">
        <ele>152.4</ele>
        <time>2021-10-28 14:10:37</time>
      </trkpt>
      <trkpt lat="43.30771" lon="-3.08885">
        <ele>152.8</ele>
        <time>2021-10-28 14:10:38</time>
      </trkpt>
      <trkpt lat="43.30774" lon="-3.08893">
        <ele>153</ele>
        <time>2021-10-28 14:10:39</time>
      </trkpt>
      <trkpt lat="43.30777" lon="-3.08898">
        <ele>153.2</ele>
        <time>2021-10-28 14:10:40</time>
      </trkpt>
      <trkpt lat="43.30782" lon="-3.08903">
        <ele>153.2</ele>
        <time>2021-10-28 14:10:41</time>
      </trkpt>
      <trkpt lat="43.30785" lon="-3.08908">
        <ele>153.2</ele>
        <time>2021-10-28 14:10:42</time>
      </trkpt>
      <trkpt lat="43.30789" lon="-3.08912">
        <ele>153.2</ele>
        <time>2021-10-28 14:10:43</time>
      </trkpt>
      <trkpt lat="43.30793" lon="-3.08917">
        <ele>153.2</ele>
        <time>2021-10-28 14:10:44</time>
      </trkpt>
      <trkpt lat="43.30797" lon="-3.08921">
        <ele>153.2</ele>
        <time>2021-10-28 14:10:45</time>
      </trkpt>
      <trkpt lat="43.30801" lon="-3.08925">
        <ele>153.2</ele>
        <time>2021-10-28 14:10:46</time>
      </trkpt>
      <trkpt lat="43.30805" lon="-3.08928">
        <ele>153.2</ele>
        <time>2021-10-28 14:10:47</time>
      </trkpt>
      <trkpt lat="43.30809" lon="-3.08933">
        <ele>153.2</ele>
        <time>2021-10-28 14:10:48</time>
      </trkpt>
      <trkpt lat="43.30813" lon="-3.08937">
        <ele>153.4</ele>
        <time>2021-10-28 14:10:49</time>
      </trkpt>
      <trkpt lat="43.30816" lon="-3.08941">
        <ele>154</ele>
        <time>2021-10-28 14:10:50</time>
      </trkpt>
      <trkpt lat="43.30823" lon="-3.0895">
        <ele>154.4</ele>
        <time>2021-10-28 14:10:51</time>
      </trkpt>
      <trkpt lat="43.30823" lon="-3.0895">
        <ele>154.4</ele>
        <time>2021-10-28 14:10:52</time>
      </trkpt>
      <trkpt lat="43.30827" lon="-3.08954">
        <ele>154.4</ele>
        <time>2021-10-28 14:10:53</time>
      </trkpt>
      <trkpt lat="43.3083" lon="-3.0896">
        <ele>153.8</ele>
        <time>2021-10-28 14:10:54</time>
      </trkpt>
      <trkpt lat="43.30833" lon="-3.08965">
        <ele>153.2</ele>
        <time>2021-10-28 14:10:55</time>
      </trkpt>
      <trkpt lat="43.30835" lon="-3.0897">
        <ele>153</ele>
        <time>2021-10-28 14:10:56</time>
      </trkpt>
      <trkpt lat="43.30838" lon="-3.08976">
        <ele>153</ele>
        <time>2021-10-28 14:10:57</time>
      </trkpt>
      <trkpt lat="43.3084" lon="-3.08981">
        <ele>153</ele>
        <time>2021-10-28 14:10:58</time>
      </trkpt>
      <trkpt lat="43.30845" lon="-3.08992">
        <ele>153.2</ele>
        <time>2021-10-28 14:10:59</time>
      </trkpt>
      <trkpt lat="43.30845" lon="-3.08992">
        <ele>153.2</ele>
        <time>2021-10-28 14:11:00</time>
      </trkpt>
      <trkpt lat="43.30848" lon="-3.08998">
        <ele>153.4</ele>
        <time>2021-10-28 14:11:01</time>
      </trkpt>
      <trkpt lat="43.30853" lon="-3.0901">
        <ele>153.4</ele>
        <time>2021-10-28 14:11:02</time>
      </trkpt>
      <trkpt lat="43.30853" lon="-3.0901">
        <ele>153.4</ele>
        <time>2021-10-28 14:11:03</time>
      </trkpt>
      <trkpt lat="43.30859" lon="-3.0902">
        <ele>153.4</ele>
        <time>2021-10-28 14:11:04</time>
      </trkpt>
      <trkpt lat="43.30859" lon="-3.0902">
        <ele>153.4</ele>
        <time>2021-10-28 14:11:05</time>
      </trkpt>
      <trkpt lat="43.30862" lon="-3.09025">
        <ele>153.2</ele>
        <time>2021-10-28 14:11:06</time>
      </trkpt>
      <trkpt lat="43.30866" lon="-3.09031">
        <ele>153.2</ele>
        <time>2021-10-28 14:11:07</time>
      </trkpt>
      <trkpt lat="43.30872" lon="-3.0904">
        <ele>153.2</ele>
        <time>2021-10-28 14:11:08</time>
      </trkpt>
      <trkpt lat="43.30872" lon="-3.0904">
        <ele>153.2</ele>
        <time>2021-10-28 14:11:09</time>
      </trkpt>
      <trkpt lat="43.30876" lon="-3.09045">
        <ele>153.2</ele>
        <time>2021-10-28 14:11:10</time>
      </trkpt>
      <trkpt lat="43.30885" lon="-3.09052">
        <ele>153.2</ele>
        <time>2021-10-28 14:11:11</time>
      </trkpt>
      <trkpt lat="43.30885" lon="-3.09052">
        <ele>153.2</ele>
        <time>2021-10-28 14:11:12</time>
      </trkpt>
      <trkpt lat="43.30889" lon="-3.09056">
        <ele>153.2</ele>
        <time>2021-10-28 14:11:13</time>
      </trkpt>
      <trkpt lat="43.30893" lon="-3.09059">
        <ele>153.2</ele>
        <time>2021-10-28 14:11:14</time>
      </trkpt>
      <trkpt lat="43.30898" lon="-3.09062">
        <ele>153.4</ele>
        <time>2021-10-28 14:11:15</time>
      </trkpt>
      <trkpt lat="43.30903" lon="-3.09065">
        <ele>153.4</ele>
        <time>2021-10-28 14:11:16</time>
      </trkpt>
      <trkpt lat="43.30907" lon="-3.09067">
        <ele>153.6</ele>
        <time>2021-10-28 14:11:17</time>
      </trkpt>
      <trkpt lat="43.30912" lon="-3.09069">
        <ele>153.6</ele>
        <time>2021-10-28 14:11:18</time>
      </trkpt>
      <trkpt lat="43.30917" lon="-3.09071">
        <ele>153.8</ele>
        <time>2021-10-28 14:11:19</time>
      </trkpt>
      <trkpt lat="43.30927" lon="-3.09073">
        <ele>154.2</ele>
        <time>2021-10-28 14:11:20</time>
      </trkpt>
      <trkpt lat="43.30927" lon="-3.09073">
        <ele>154.2</ele>
        <time>2021-10-28 14:11:21</time>
      </trkpt>
      <trkpt lat="43.30933" lon="-3.09074">
        <ele>154.2</ele>
        <time>2021-10-28 14:11:22</time>
      </trkpt>
      <trkpt lat="43.30938" lon="-3.09075">
        <ele>154.2</ele>
        <time>2021-10-28 14:11:23</time>
      </trkpt>
      <trkpt lat="43.30943" lon="-3.09076">
        <ele>154</ele>
        <time>2021-10-28 14:11:24</time>
      </trkpt>
      <trkpt lat="43.30948" lon="-3.09077">
        <ele>153.8</ele>
        <time>2021-10-28 14:11:25</time>
      </trkpt>
      <trkpt lat="43.30948" lon="-3.09077">
        <ele>153.8</ele>
        <time>2021-10-28 14:11:26</time>
      </trkpt>
      <trkpt lat="43.30957" lon="-3.09077">
        <ele>153.8</ele>
        <time>2021-10-28 14:11:27</time>
      </trkpt>
      <trkpt lat="43.30962" lon="-3.09077">
        <ele>153.8</ele>
        <time>2021-10-28 14:11:28</time>
      </trkpt>
      <trkpt lat="43.30967" lon="-3.09078">
        <ele>153.8</ele>
        <time>2021-10-28 14:11:29</time>
      </trkpt>
      <trkpt lat="43.30972" lon="-3.09079">
        <ele>153.8</ele>
        <time>2021-10-28 14:11:30</time>
      </trkpt>
      <trkpt lat="43.30978" lon="-3.0908">
        <ele>154</ele>
        <time>2021-10-28 14:11:31</time>
      </trkpt>
      <trkpt lat="43.30983" lon="-3.09081">
        <ele>154</ele>
        <time>2021-10-28 14:11:32</time>
      </trkpt>
      <trkpt lat="43.30988" lon="-3.09081">
        <ele>154</ele>
        <time>2021-10-28 14:11:33</time>
      </trkpt>
      <trkpt lat="43.30993" lon="-3.09082">
        <ele>154.2</ele>
        <time>2021-10-28 14:11:34</time>
      </trkpt>
      <trkpt lat="43.30998" lon="-3.09083">
        <ele>154.4</ele>
        <time>2021-10-28 14:11:35</time>
      </trkpt>
      <trkpt lat="43.31004" lon="-3.09083">
        <ele>154.6</ele>
        <time>2021-10-28 14:11:36</time>
      </trkpt>
      <trkpt lat="43.31009" lon="-3.09083">
        <ele>154.8</ele>
        <time>2021-10-28 14:11:37</time>
      </trkpt>
      <trkpt lat="43.31015" lon="-3.09082">
        <ele>155</ele>
        <time>2021-10-28 14:11:38</time>
      </trkpt>
      <trkpt lat="43.3102" lon="-3.09081">
        <ele>155.2</ele>
        <time>2021-10-28 14:11:39</time>
      </trkpt>
      <trkpt lat="43.31025" lon="-3.09079">
        <ele>155.4</ele>
        <time>2021-10-28 14:11:40</time>
      </trkpt>
      <trkpt lat="43.3103" lon="-3.09076">
        <ele>155.4</ele>
        <time>2021-10-28 14:11:41</time>
      </trkpt>
      <trkpt lat="43.31035" lon="-3.09073">
        <ele>155.4</ele>
        <time>2021-10-28 14:11:42</time>
      </trkpt>
      <trkpt lat="43.3104" lon="-3.0907">
        <ele>155.4</ele>
        <time>2021-10-28 14:11:43</time>
      </trkpt>
      <trkpt lat="43.31044" lon="-3.09067">
        <ele>155.6</ele>
        <time>2021-10-28 14:11:44</time>
      </trkpt>
      <trkpt lat="43.31048" lon="-3.09064">
        <ele>155.8</ele>
        <time>2021-10-28 14:11:45</time>
      </trkpt>
      <trkpt lat="43.31052" lon="-3.0906">
        <ele>156</ele>
        <time>2021-10-28 14:11:46</time>
      </trkpt>
      <trkpt lat="43.31056" lon="-3.09055">
        <ele>156</ele>
        <time>2021-10-28 14:11:47</time>
      </trkpt>
      <trkpt lat="43.31058" lon="-3.0905">
        <ele>156.2</ele>
        <time>2021-10-28 14:11:48</time>
      </trkpt>
      <trkpt lat="43.31061" lon="-3.09044">
        <ele>156.4</ele>
        <time>2021-10-28 14:11:49</time>
      </trkpt>
      <trkpt lat="43.31064" lon="-3.09038">
        <ele>156.6</ele>
        <time>2021-10-28 14:11:50</time>
      </trkpt>
      <trkpt lat="43.31067" lon="-3.09033">
        <ele>156.6</ele>
        <time>2021-10-28 14:11:51</time>
      </trkpt>
      <trkpt lat="43.3107" lon="-3.09026">
        <ele>156.6</ele>
        <time>2021-10-28 14:11:52</time>
      </trkpt>
      <trkpt lat="43.31075" lon="-3.09013">
        <ele>156.6</ele>
        <time>2021-10-28 14:11:53</time>
      </trkpt>
      <trkpt lat="43.31075" lon="-3.09013">
        <ele>156.6</ele>
        <time>2021-10-28 14:11:54</time>
      </trkpt>
      <trkpt lat="43.31077" lon="-3.09006">
        <ele>156.6</ele>
        <time>2021-10-28 14:11:55</time>
      </trkpt>
      <trkpt lat="43.31079" lon="-3.08999">
        <ele>156.6</ele>
        <time>2021-10-28 14:11:56</time>
      </trkpt>
      <trkpt lat="43.31081" lon="-3.08992">
        <ele>156.6</ele>
        <time>2021-10-28 14:11:57</time>
      </trkpt>
      <trkpt lat="43.31083" lon="-3.08986">
        <ele>156.8</ele>
        <time>2021-10-28 14:11:58</time>
      </trkpt>
      <trkpt lat="43.31088" lon="-3.08972">
        <ele>156.8</ele>
        <time>2021-10-28 14:11:59</time>
      </trkpt>
      <trkpt lat="43.31088" lon="-3.08972">
        <ele>156.8</ele>
        <time>2021-10-28 14:12:00</time>
      </trkpt>
      <trkpt lat="43.31091" lon="-3.08966">
        <ele>156.8</ele>
        <time>2021-10-28 14:12:01</time>
      </trkpt>
      <trkpt lat="43.31094" lon="-3.08959">
        <ele>156.8</ele>
        <time>2021-10-28 14:12:02</time>
      </trkpt>
      <trkpt lat="43.31098" lon="-3.08953">
        <ele>156.8</ele>
        <time>2021-10-28 14:12:03</time>
      </trkpt>
      <trkpt lat="43.31101" lon="-3.08947">
        <ele>157</ele>
        <time>2021-10-28 14:12:04</time>
      </trkpt>
      <trkpt lat="43.31105" lon="-3.08942">
        <ele>156.8</ele>
        <time>2021-10-28 14:12:05</time>
      </trkpt>
      <trkpt lat="43.31114" lon="-3.08933">
        <ele>156.8</ele>
        <time>2021-10-28 14:12:06</time>
      </trkpt>
      <trkpt lat="43.31114" lon="-3.08933">
        <ele>157</ele>
        <time>2021-10-28 14:12:07</time>
      </trkpt>
      <trkpt lat="43.31119" lon="-3.08929">
        <ele>156.8</ele>
        <time>2021-10-28 14:12:08</time>
      </trkpt>
      <trkpt lat="43.31124" lon="-3.08925">
        <ele>157</ele>
        <time>2021-10-28 14:12:09</time>
      </trkpt>
      <trkpt lat="43.31128" lon="-3.0892">
        <ele>157</ele>
        <time>2021-10-28 14:12:10</time>
      </trkpt>
      <trkpt lat="43.31128" lon="-3.0892">
        <ele>157</ele>
        <time>2021-10-28 14:12:11</time>
      </trkpt>
      <trkpt lat="43.31135" lon="-3.08909">
        <ele>157</ele>
        <time>2021-10-28 14:12:12</time>
      </trkpt>
      <trkpt lat="43.31138" lon="-3.08903">
        <ele>157.2</ele>
        <time>2021-10-28 14:12:13</time>
      </trkpt>
      <trkpt lat="43.3114" lon="-3.08897">
        <ele>157.2</ele>
        <time>2021-10-28 14:12:14</time>
      </trkpt>
      <trkpt lat="43.31142" lon="-3.08891">
        <ele>157.2</ele>
        <time>2021-10-28 14:12:15</time>
      </trkpt>
      <trkpt lat="43.31144" lon="-3.08886">
        <ele>157.6</ele>
        <time>2021-10-28 14:12:16</time>
      </trkpt>
      <trkpt lat="43.31145" lon="-3.0888">
        <ele>157.8</ele>
        <time>2021-10-28 14:12:17</time>
      </trkpt>
      <trkpt lat="43.31147" lon="-3.08875">
        <ele>158.2</ele>
        <time>2021-10-28 14:12:18</time>
      </trkpt>
      <trkpt lat="43.31149" lon="-3.0887">
        <ele>158.2</ele>
        <time>2021-10-28 14:12:19</time>
      </trkpt>
      <trkpt lat="43.3115" lon="-3.08865">
        <ele>158.6</ele>
        <time>2021-10-28 14:12:20</time>
      </trkpt>
      <trkpt lat="43.31151" lon="-3.0886">
        <ele>159</ele>
        <time>2021-10-28 14:12:21</time>
      </trkpt>
      <trkpt lat="43.31153" lon="-3.08855">
        <ele>159.4</ele>
        <time>2021-10-28 14:12:22</time>
      </trkpt>
      <trkpt lat="43.31154" lon="-3.0885">
        <ele>159.4</ele>
        <time>2021-10-28 14:12:23</time>
      </trkpt>
      <trkpt lat="43.31155" lon="-3.08845">
        <ele>159.8</ele>
        <time>2021-10-28 14:12:24</time>
      </trkpt>
      <trkpt lat="43.31156" lon="-3.0884">
        <ele>160</ele>
        <time>2021-10-28 14:12:25</time>
      </trkpt>
      <trkpt lat="43.31157" lon="-3.08835">
        <ele>160.2</ele>
        <time>2021-10-28 14:12:26</time>
      </trkpt>
      <trkpt lat="43.31159" lon="-3.0883">
        <ele>160.4</ele>
        <time>2021-10-28 14:12:27</time>
      </trkpt>
      <trkpt lat="43.3116" lon="-3.08825">
        <ele>160.4</ele>
        <time>2021-10-28 14:12:28</time>
      </trkpt>
      <trkpt lat="43.31161" lon="-3.08819">
        <ele>160.4</ele>
        <time>2021-10-28 14:12:29</time>
      </trkpt>
      <trkpt lat="43.31161" lon="-3.08814">
        <ele>160.4</ele>
        <time>2021-10-28 14:12:30</time>
      </trkpt>
      <trkpt lat="43.31162" lon="-3.08808">
        <ele>160.4</ele>
        <time>2021-10-28 14:12:31</time>
      </trkpt>
      <trkpt lat="43.31162" lon="-3.08802">
        <ele>160.4</ele>
        <time>2021-10-28 14:12:32</time>
      </trkpt>
      <trkpt lat="43.31163" lon="-3.08796">
        <ele>160.6</ele>
        <time>2021-10-28 14:12:33</time>
      </trkpt>
      <trkpt lat="43.31163" lon="-3.08783">
        <ele>160.6</ele>
        <time>2021-10-28 14:12:34</time>
      </trkpt>
      <trkpt lat="43.31163" lon="-3.08783">
        <ele>160.8</ele>
        <time>2021-10-28 14:12:35</time>
      </trkpt>
      <trkpt lat="43.31162" lon="-3.08776">
        <ele>160.8</ele>
        <time>2021-10-28 14:12:36</time>
      </trkpt>
      <trkpt lat="43.31162" lon="-3.0877">
        <ele>160.8</ele>
        <time>2021-10-28 14:12:37</time>
      </trkpt>
      <trkpt lat="43.31161" lon="-3.08763">
        <ele>160.6</ele>
        <time>2021-10-28 14:12:38</time>
      </trkpt>
      <trkpt lat="43.3116" lon="-3.08756">
        <ele>160.4</ele>
        <time>2021-10-28 14:12:39</time>
      </trkpt>
      <trkpt lat="43.31159" lon="-3.0875">
        <ele>160.4</ele>
        <time>2021-10-28 14:12:40</time>
      </trkpt>
      <trkpt lat="43.31159" lon="-3.08743">
        <ele>160.2</ele>
        <time>2021-10-28 14:12:41</time>
      </trkpt>
      <trkpt lat="43.31161" lon="-3.0873">
        <ele>160.2</ele>
        <time>2021-10-28 14:12:42</time>
      </trkpt>
      <trkpt lat="43.31161" lon="-3.0873">
        <ele>160.2</ele>
        <time>2021-10-28 14:12:43</time>
      </trkpt>
      <trkpt lat="43.31164" lon="-3.08724">
        <ele>160</ele>
        <time>2021-10-28 14:12:44</time>
      </trkpt>
      <trkpt lat="43.31167" lon="-3.08719">
        <ele>160</ele>
        <time>2021-10-28 14:12:45</time>
      </trkpt>
      <trkpt lat="43.3117" lon="-3.08714">
        <ele>160</ele>
        <time>2021-10-28 14:12:46</time>
      </trkpt>
      <trkpt lat="43.31173" lon="-3.08708">
        <ele>160</ele>
        <time>2021-10-28 14:12:47</time>
      </trkpt>
      <trkpt lat="43.31178" lon="-3.08696">
        <ele>160</ele>
        <time>2021-10-28 14:12:48</time>
      </trkpt>
      <trkpt lat="43.31178" lon="-3.08696">
        <ele>159.8</ele>
        <time>2021-10-28 14:12:49</time>
      </trkpt>
      <trkpt lat="43.31181" lon="-3.08689">
        <ele>159.6</ele>
        <time>2021-10-28 14:12:50</time>
      </trkpt>
      <trkpt lat="43.31183" lon="-3.08681">
        <ele>159.4</ele>
        <time>2021-10-28 14:12:51</time>
      </trkpt>
      <trkpt lat="43.31185" lon="-3.08674">
        <ele>159.4</ele>
        <time>2021-10-28 14:12:52</time>
      </trkpt>
      <trkpt lat="43.31186" lon="-3.08666">
        <ele>159.2</ele>
        <time>2021-10-28 14:12:53</time>
      </trkpt>
      <trkpt lat="43.31187" lon="-3.08658">
        <ele>159.2</ele>
        <time>2021-10-28 14:12:54</time>
      </trkpt>
      <trkpt lat="43.31188" lon="-3.0865">
        <ele>159</ele>
        <time>2021-10-28 14:12:55</time>
      </trkpt>
      <trkpt lat="43.31188" lon="-3.08634">
        <ele>158.8</ele>
        <time>2021-10-28 14:12:56</time>
      </trkpt>
      <trkpt lat="43.31188" lon="-3.08634">
        <ele>158.4</ele>
        <time>2021-10-28 14:12:57</time>
      </trkpt>
      <trkpt lat="43.31188" lon="-3.08626">
        <ele>158</ele>
        <time>2021-10-28 14:12:58</time>
      </trkpt>
      <trkpt lat="43.31189" lon="-3.08618">
        <ele>157.8</ele>
        <time>2021-10-28 14:12:59</time>
      </trkpt>
      <trkpt lat="43.31189" lon="-3.0861">
        <ele>157.4</ele>
        <time>2021-10-28 14:13:00</time>
      </trkpt>
      <trkpt lat="43.31189" lon="-3.08602">
        <ele>157.4</ele>
        <time>2021-10-28 14:13:01</time>
      </trkpt>
      <trkpt lat="43.31189" lon="-3.08594">
        <ele>157.2</ele>
        <time>2021-10-28 14:13:02</time>
      </trkpt>
      <trkpt lat="43.31188" lon="-3.08586">
        <ele>157</ele>
        <time>2021-10-28 14:13:03</time>
      </trkpt>
      <trkpt lat="43.31187" lon="-3.08579">
        <ele>157</ele>
        <time>2021-10-28 14:13:04</time>
      </trkpt>
      <trkpt lat="43.31184" lon="-3.08572">
        <ele>157</ele>
        <time>2021-10-28 14:13:05</time>
      </trkpt>
      <trkpt lat="43.31182" lon="-3.08566">
        <ele>157</ele>
        <time>2021-10-28 14:13:06</time>
      </trkpt>
      <trkpt lat="43.3118" lon="-3.08559">
        <ele>157</ele>
        <time>2021-10-28 14:13:07</time>
      </trkpt>
      <trkpt lat="43.31178" lon="-3.08552">
        <ele>157</ele>
        <time>2021-10-28 14:13:08</time>
      </trkpt>
      <trkpt lat="43.31176" lon="-3.08545">
        <ele>157</ele>
        <time>2021-10-28 14:13:09</time>
      </trkpt>
      <trkpt lat="43.31174" lon="-3.08537">
        <ele>157</ele>
        <time>2021-10-28 14:13:10</time>
      </trkpt>
      <trkpt lat="43.31172" lon="-3.0853">
        <ele>157</ele>
        <time>2021-10-28 14:13:11</time>
      </trkpt>
      <trkpt lat="43.3117" lon="-3.08524">
        <ele>157</ele>
        <time>2021-10-28 14:13:12</time>
      </trkpt>
      <trkpt lat="43.31169" lon="-3.08517">
        <ele>157.2</ele>
        <time>2021-10-28 14:13:13</time>
      </trkpt>
      <trkpt lat="43.31167" lon="-3.0851">
        <ele>157.4</ele>
        <time>2021-10-28 14:13:14</time>
      </trkpt>
      <trkpt lat="43.31166" lon="-3.08503">
        <ele>157.6</ele>
        <time>2021-10-28 14:13:15</time>
      </trkpt>
      <trkpt lat="43.31165" lon="-3.08495">
        <ele>157.8</ele>
        <time>2021-10-28 14:13:16</time>
      </trkpt>
      <trkpt lat="43.31164" lon="-3.08488">
        <ele>158</ele>
        <time>2021-10-28 14:13:17</time>
      </trkpt>
      <trkpt lat="43.31163" lon="-3.08481">
        <ele>158.2</ele>
        <time>2021-10-28 14:13:18</time>
      </trkpt>
      <trkpt lat="43.31162" lon="-3.08474">
        <ele>158.2</ele>
        <time>2021-10-28 14:13:19</time>
      </trkpt>
      <trkpt lat="43.31161" lon="-3.08467">
        <ele>158</ele>
        <time>2021-10-28 14:13:20</time>
      </trkpt>
      <trkpt lat="43.3116" lon="-3.0846">
        <ele>157.8</ele>
        <time>2021-10-28 14:13:21</time>
      </trkpt>
      <trkpt lat="43.3116" lon="-3.08452">
        <ele>157.8</ele>
        <time>2021-10-28 14:13:22</time>
      </trkpt>
      <trkpt lat="43.31159" lon="-3.08445">
        <ele>157.8</ele>
        <time>2021-10-28 14:13:23</time>
      </trkpt>
      <trkpt lat="43.31158" lon="-3.08438">
        <ele>157.8</ele>
        <time>2021-10-28 14:13:24</time>
      </trkpt>
      <trkpt lat="43.31157" lon="-3.08431">
        <ele>157.8</ele>
        <time>2021-10-28 14:13:25</time>
      </trkpt>
      <trkpt lat="43.31155" lon="-3.08424">
        <ele>157.8</ele>
        <time>2021-10-28 14:13:26</time>
      </trkpt>
      <trkpt lat="43.31153" lon="-3.08417">
        <ele>157.8</ele>
        <time>2021-10-28 14:13:27</time>
      </trkpt>
      <trkpt lat="43.31152" lon="-3.0841">
        <ele>157.8</ele>
        <time>2021-10-28 14:13:28</time>
      </trkpt>
      <trkpt lat="43.31148" lon="-3.08395">
        <ele>158</ele>
        <time>2021-10-28 14:13:29</time>
      </trkpt>
      <trkpt lat="43.31148" lon="-3.08395">
        <ele>158.2</ele>
        <time>2021-10-28 14:13:30</time>
      </trkpt>
      <trkpt lat="43.31146" lon="-3.08389">
        <ele>158.2</ele>
        <time>2021-10-28 14:13:31</time>
      </trkpt>
      <trkpt lat="43.31144" lon="-3.08382">
        <ele>158.2</ele>
        <time>2021-10-28 14:13:32</time>
      </trkpt>
      <trkpt lat="43.31142" lon="-3.08375">
        <ele>158</ele>
        <time>2021-10-28 14:13:33</time>
      </trkpt>
      <trkpt lat="43.31139" lon="-3.08368">
        <ele>157.8</ele>
        <time>2021-10-28 14:13:34</time>
      </trkpt>
      <trkpt lat="43.31137" lon="-3.08362">
        <ele>157.6</ele>
        <time>2021-10-28 14:13:35</time>
      </trkpt>
      <trkpt lat="43.31132" lon="-3.08349">
        <ele>157.6</ele>
        <time>2021-10-28 14:13:36</time>
      </trkpt>
      <trkpt lat="43.31132" lon="-3.08349">
        <ele>157.6</ele>
        <time>2021-10-28 14:13:37</time>
      </trkpt>
      <trkpt lat="43.31129" lon="-3.08343">
        <ele>157.6</ele>
        <time>2021-10-28 14:13:38</time>
      </trkpt>
      <trkpt lat="43.31127" lon="-3.08337">
        <ele>157.6</ele>
        <time>2021-10-28 14:13:39</time>
      </trkpt>
      <trkpt lat="43.31124" lon="-3.08331">
        <ele>157.6</ele>
        <time>2021-10-28 14:13:40</time>
      </trkpt>
      <trkpt lat="43.31121" lon="-3.08324">
        <ele>157.8</ele>
        <time>2021-10-28 14:13:41</time>
      </trkpt>
      <trkpt lat="43.31118" lon="-3.08318">
        <ele>157.8</ele>
        <time>2021-10-28 14:13:42</time>
      </trkpt>
      <trkpt lat="43.31116" lon="-3.08311">
        <ele>157.8</ele>
        <time>2021-10-28 14:13:43</time>
      </trkpt>
      <trkpt lat="43.31113" lon="-3.08305">
        <ele>157.8</ele>
        <time>2021-10-28 14:13:44</time>
      </trkpt>
      <trkpt lat="43.3111" lon="-3.08298">
        <ele>158</ele>
        <time>2021-10-28 14:13:45</time>
      </trkpt>
      <trkpt lat="43.31107" lon="-3.08291">
        <ele>158.2</ele>
        <time>2021-10-28 14:13:46</time>
      </trkpt>
      <trkpt lat="43.31104" lon="-3.08284">
        <ele>158.4</ele>
        <time>2021-10-28 14:13:47</time>
      </trkpt>
      <trkpt lat="43.31101" lon="-3.08278">
        <ele>158.4</ele>
        <time>2021-10-28 14:13:48</time>
      </trkpt>
      <trkpt lat="43.31098" lon="-3.08271">
        <ele>158.6</ele>
        <time>2021-10-28 14:13:49</time>
      </trkpt>
      <trkpt lat="43.31096" lon="-3.08265">
        <ele>158.6</ele>
        <time>2021-10-28 14:13:50</time>
      </trkpt>
      <trkpt lat="43.3109" lon="-3.08252">
        <ele>158.6</ele>
        <time>2021-10-28 14:13:51</time>
      </trkpt>
      <trkpt lat="43.3109" lon="-3.08252">
        <ele>158.8</ele>
        <time>2021-10-28 14:13:52</time>
      </trkpt>
      <trkpt lat="43.31088" lon="-3.08245">
        <ele>159</ele>
        <time>2021-10-28 14:13:53</time>
      </trkpt>
      <trkpt lat="43.31085" lon="-3.08238">
        <ele>159</ele>
        <time>2021-10-28 14:13:54</time>
      </trkpt>
      <trkpt lat="43.31083" lon="-3.08231">
        <ele>159.2</ele>
        <time>2021-10-28 14:13:55</time>
      </trkpt>
      <trkpt lat="43.31081" lon="-3.08224">
        <ele>159.2</ele>
        <time>2021-10-28 14:13:56</time>
      </trkpt>
      <trkpt lat="43.31078" lon="-3.08217">
        <ele>159.2</ele>
        <time>2021-10-28 14:13:57</time>
      </trkpt>
      <trkpt lat="43.31075" lon="-3.08211">
        <ele>159.2</ele>
        <time>2021-10-28 14:13:58</time>
      </trkpt>
      <trkpt lat="43.31072" lon="-3.08204">
        <ele>159</ele>
        <time>2021-10-28 14:13:59</time>
      </trkpt>
      <trkpt lat="43.3107" lon="-3.08198">
        <ele>159</ele>
        <time>2021-10-28 14:14:00</time>
      </trkpt>
      <trkpt lat="43.31067" lon="-3.08192">
        <ele>159</ele>
        <time>2021-10-28 14:14:01</time>
      </trkpt>
      <trkpt lat="43.31064" lon="-3.08186">
        <ele>159</ele>
        <time>2021-10-28 14:14:02</time>
      </trkpt>
      <trkpt lat="43.31061" lon="-3.08179">
        <ele>159</ele>
        <time>2021-10-28 14:14:03</time>
      </trkpt>
      <trkpt lat="43.31058" lon="-3.08174">
        <ele>158.8</ele>
        <time>2021-10-28 14:14:04</time>
      </trkpt>
      <trkpt lat="43.31056" lon="-3.08167">
        <ele>158.8</ele>
        <time>2021-10-28 14:14:05</time>
      </trkpt>
      <trkpt lat="43.31053" lon="-3.08162">
        <ele>158.6</ele>
        <time>2021-10-28 14:14:06</time>
      </trkpt>
      <trkpt lat="43.31051" lon="-3.08156">
        <ele>158.6</ele>
        <time>2021-10-28 14:14:07</time>
      </trkpt>
      <trkpt lat="43.31048" lon="-3.0815">
        <ele>158.8</ele>
        <time>2021-10-28 14:14:08</time>
      </trkpt>
      <trkpt lat="43.31047" lon="-3.08144">
        <ele>158.8</ele>
        <time>2021-10-28 14:14:09</time>
      </trkpt>
      <trkpt lat="43.31045" lon="-3.08138">
        <ele>158.8</ele>
        <time>2021-10-28 14:14:10</time>
      </trkpt>
      <trkpt lat="43.31044" lon="-3.08132">
        <ele>158.8</ele>
        <time>2021-10-28 14:14:11</time>
      </trkpt>
      <trkpt lat="43.31043" lon="-3.08125">
        <ele>158.8</ele>
        <time>2021-10-28 14:14:12</time>
      </trkpt>
      <trkpt lat="43.31042" lon="-3.08118">
        <ele>158.8</ele>
        <time>2021-10-28 14:14:13</time>
      </trkpt>
      <trkpt lat="43.31042" lon="-3.08118">
        <ele>158.8</ele>
        <time>2021-10-28 14:14:14</time>
      </trkpt>
      <trkpt lat="43.31041" lon="-3.08105">
        <ele>158.8</ele>
        <time>2021-10-28 14:14:15</time>
      </trkpt>
      <trkpt lat="43.31041" lon="-3.08099">
        <ele>158.8</ele>
        <time>2021-10-28 14:14:16</time>
      </trkpt>
      <trkpt lat="43.31042" lon="-3.08091">
        <ele>158.8</ele>
        <time>2021-10-28 14:14:17</time>
      </trkpt>
      <trkpt lat="43.31043" lon="-3.08085">
        <ele>159</ele>
        <time>2021-10-28 14:14:18</time>
      </trkpt>
      <trkpt lat="43.31044" lon="-3.08078">
        <ele>159</ele>
        <time>2021-10-28 14:14:19</time>
      </trkpt>
      <trkpt lat="43.31046" lon="-3.08071">
        <ele>159</ele>
        <time>2021-10-28 14:14:20</time>
      </trkpt>
      <trkpt lat="43.31048" lon="-3.08065">
        <ele>159.2</ele>
        <time>2021-10-28 14:14:21</time>
      </trkpt>
      <trkpt lat="43.3105" lon="-3.08058">
        <ele>159.2</ele>
        <time>2021-10-28 14:14:22</time>
      </trkpt>
      <trkpt lat="43.31052" lon="-3.08052">
        <ele>159.2</ele>
        <time>2021-10-28 14:14:23</time>
      </trkpt>
      <trkpt lat="43.31055" lon="-3.08047">
        <ele>159.2</ele>
        <time>2021-10-28 14:14:24</time>
      </trkpt>
      <trkpt lat="43.31059" lon="-3.08042">
        <ele>159</ele>
        <time>2021-10-28 14:14:25</time>
      </trkpt>
      <trkpt lat="43.31062" lon="-3.08036">
        <ele>158.8</ele>
        <time>2021-10-28 14:14:26</time>
      </trkpt>
      <trkpt lat="43.31066" lon="-3.0803">
        <ele>158.8</ele>
        <time>2021-10-28 14:14:27</time>
      </trkpt>
      <trkpt lat="43.3107" lon="-3.08025">
        <ele>158.6</ele>
        <time>2021-10-28 14:14:28</time>
      </trkpt>
      <trkpt lat="43.31075" lon="-3.0802">
        <ele>158.4</ele>
        <time>2021-10-28 14:14:29</time>
      </trkpt>
      <trkpt lat="43.31079" lon="-3.08016">
        <ele>158.2</ele>
        <time>2021-10-28 14:14:30</time>
      </trkpt>
      <trkpt lat="43.31083" lon="-3.08012">
        <ele>158.2</ele>
        <time>2021-10-28 14:14:31</time>
      </trkpt>
      <trkpt lat="43.31083" lon="-3.08012">
        <ele>158.2</ele>
        <time>2021-10-28 14:14:32</time>
      </trkpt>
      <trkpt lat="43.31092" lon="-3.08006">
        <ele>158</ele>
        <time>2021-10-28 14:14:33</time>
      </trkpt>
      <trkpt lat="43.31096" lon="-3.08004">
        <ele>157.8</ele>
        <time>2021-10-28 14:14:34</time>
      </trkpt>
      <trkpt lat="43.311" lon="-3.08002">
        <ele>157.6</ele>
        <time>2021-10-28 14:14:35</time>
      </trkpt>
      <trkpt lat="43.31104" lon="-3.08">
        <ele>157.4</ele>
        <time>2021-10-28 14:14:36</time>
      </trkpt>
      <trkpt lat="43.31108" lon="-3.07999">
        <ele>157.2</ele>
        <time>2021-10-28 14:14:37</time>
      </trkpt>
      <trkpt lat="43.31116" lon="-3.07998">
        <ele>157</ele>
        <time>2021-10-28 14:14:38</time>
      </trkpt>
      <trkpt lat="43.31116" lon="-3.07998">
        <ele>157</ele>
        <time>2021-10-28 14:14:39</time>
      </trkpt>
      <trkpt lat="43.31126" lon="-3.08">
        <ele>157</ele>
        <time>2021-10-28 14:14:40</time>
      </trkpt>
      <trkpt lat="43.31126" lon="-3.08">
        <ele>156.8</ele>
        <time>2021-10-28 14:14:41</time>
      </trkpt>
      <trkpt lat="43.31132" lon="-3.08002">
        <ele>156.8</ele>
        <time>2021-10-28 14:14:42</time>
      </trkpt>
      <trkpt lat="43.31137" lon="-3.08005">
        <ele>156.8</ele>
        <time>2021-10-28 14:14:43</time>
      </trkpt>
      <trkpt lat="43.31141" lon="-3.08008">
        <ele>156.8</ele>
        <time>2021-10-28 14:14:44</time>
      </trkpt>
      <trkpt lat="43.31151" lon="-3.08015">
        <ele>157</ele>
        <time>2021-10-28 14:14:45</time>
      </trkpt>
      <trkpt lat="43.31151" lon="-3.08015">
        <ele>157</ele>
        <time>2021-10-28 14:14:46</time>
      </trkpt>
      <trkpt lat="43.31156" lon="-3.08018">
        <ele>157.4</ele>
        <time>2021-10-28 14:14:47</time>
      </trkpt>
      <trkpt lat="43.31161" lon="-3.08021">
        <ele>157.8</ele>
        <time>2021-10-28 14:14:48</time>
      </trkpt>
      <trkpt lat="43.31165" lon="-3.08024">
        <ele>158.2</ele>
        <time>2021-10-28 14:14:49</time>
      </trkpt>
      <trkpt lat="43.31169" lon="-3.08027">
        <ele>158.4</ele>
        <time>2021-10-28 14:14:50</time>
      </trkpt>
      <trkpt lat="43.31176" lon="-3.08036">
        <ele>158.4</ele>
        <time>2021-10-28 14:14:51</time>
      </trkpt>
      <trkpt lat="43.31176" lon="-3.08036">
        <ele>158.2</ele>
        <time>2021-10-28 14:14:52</time>
      </trkpt>
      <trkpt lat="43.31179" lon="-3.08041">
        <ele>158</ele>
        <time>2021-10-28 14:14:53</time>
      </trkpt>
      <trkpt lat="43.31183" lon="-3.08046">
        <ele>157.4</ele>
        <time>2021-10-28 14:14:54</time>
      </trkpt>
      <trkpt lat="43.31186" lon="-3.08052">
        <ele>157.2</ele>
        <time>2021-10-28 14:14:55</time>
      </trkpt>
      <trkpt lat="43.3119" lon="-3.08058">
        <ele>156.8</ele>
        <time>2021-10-28 14:14:56</time>
      </trkpt>
      <trkpt lat="43.31194" lon="-3.08063">
        <ele>156.8</ele>
        <time>2021-10-28 14:14:57</time>
      </trkpt>
      <trkpt lat="43.31199" lon="-3.08069">
        <ele>156.6</ele>
        <time>2021-10-28 14:14:58</time>
      </trkpt>
      <trkpt lat="43.31204" lon="-3.08075">
        <ele>156.8</ele>
        <time>2021-10-28 14:14:59</time>
      </trkpt>
      <trkpt lat="43.31209" lon="-3.0808">
        <ele>156.8</ele>
        <time>2021-10-28 14:15:00</time>
      </trkpt>
      <trkpt lat="43.31214" lon="-3.08086">
        <ele>156.6</ele>
        <time>2021-10-28 14:15:01</time>
      </trkpt>
      <trkpt lat="43.31218" lon="-3.08091">
        <ele>156.6</ele>
        <time>2021-10-28 14:15:02</time>
      </trkpt>
      <trkpt lat="43.31223" lon="-3.08097">
        <ele>156.6</ele>
        <time>2021-10-28 14:15:03</time>
      </trkpt>
      <trkpt lat="43.31228" lon="-3.08103">
        <ele>156.4</ele>
        <time>2021-10-28 14:15:04</time>
      </trkpt>
      <trkpt lat="43.31233" lon="-3.08108">
        <ele>156.2</ele>
        <time>2021-10-28 14:15:05</time>
      </trkpt>
      <trkpt lat="43.31237" lon="-3.08114">
        <ele>156.2</ele>
        <time>2021-10-28 14:15:06</time>
      </trkpt>
      <trkpt lat="43.31242" lon="-3.08119">
        <ele>156.2</ele>
        <time>2021-10-28 14:15:07</time>
      </trkpt>
      <trkpt lat="43.31247" lon="-3.08125">
        <ele>156.2</ele>
        <time>2021-10-28 14:15:08</time>
      </trkpt>
      <trkpt lat="43.31252" lon="-3.0813">
        <ele>156.2</ele>
        <time>2021-10-28 14:15:09</time>
      </trkpt>
      <trkpt lat="43.31256" lon="-3.08135">
        <ele>156.2</ele>
        <time>2021-10-28 14:15:10</time>
      </trkpt>
      <trkpt lat="43.31261" lon="-3.0814">
        <ele>156.2</ele>
        <time>2021-10-28 14:15:11</time>
      </trkpt>
      <trkpt lat="43.31265" lon="-3.08145">
        <ele>156.2</ele>
        <time>2021-10-28 14:15:12</time>
      </trkpt>
      <trkpt lat="43.3127" lon="-3.0815">
        <ele>156.2</ele>
        <time>2021-10-28 14:15:13</time>
      </trkpt>
      <trkpt lat="43.31274" lon="-3.08154">
        <ele>156.4</ele>
        <time>2021-10-28 14:15:14</time>
      </trkpt>
      <trkpt lat="43.31279" lon="-3.08158">
        <ele>156.4</ele>
        <time>2021-10-28 14:15:15</time>
      </trkpt>
      <trkpt lat="43.31284" lon="-3.08162">
        <ele>156.4</ele>
        <time>2021-10-28 14:15:16</time>
      </trkpt>
      <trkpt lat="43.31289" lon="-3.08166">
        <ele>156.4</ele>
        <time>2021-10-28 14:15:17</time>
      </trkpt>
      <trkpt lat="43.31294" lon="-3.08169">
        <ele>156.2</ele>
        <time>2021-10-28 14:15:18</time>
      </trkpt>
      <trkpt lat="43.31299" lon="-3.08172">
        <ele>156.2</ele>
        <time>2021-10-28 14:15:19</time>
      </trkpt>
      <trkpt lat="43.31305" lon="-3.08174">
        <ele>156.4</ele>
        <time>2021-10-28 14:15:20</time>
      </trkpt>
      <trkpt lat="43.3131" lon="-3.08176">
        <ele>156.4</ele>
        <time>2021-10-28 14:15:21</time>
      </trkpt>
      <trkpt lat="43.31315" lon="-3.08179">
        <ele>156.4</ele>
        <time>2021-10-28 14:15:22</time>
      </trkpt>
      <trkpt lat="43.31321" lon="-3.08181">
        <ele>156.6</ele>
        <time>2021-10-28 14:15:23</time>
      </trkpt>
      <trkpt lat="43.31327" lon="-3.08182">
        <ele>156.6</ele>
        <time>2021-10-28 14:15:24</time>
      </trkpt>
      <trkpt lat="43.31333" lon="-3.08182">
        <ele>157</ele>
        <time>2021-10-28 14:15:25</time>
      </trkpt>
      <trkpt lat="43.31339" lon="-3.08182">
        <ele>157.4</ele>
        <time>2021-10-28 14:15:26</time>
      </trkpt>
      <trkpt lat="43.31345" lon="-3.08181">
        <ele>157.8</ele>
        <time>2021-10-28 14:15:27</time>
      </trkpt>
      <trkpt lat="43.31351" lon="-3.0818">
        <ele>157.8</ele>
        <time>2021-10-28 14:15:28</time>
      </trkpt>
      <trkpt lat="43.31357" lon="-3.0818">
        <ele>157.8</ele>
        <time>2021-10-28 14:15:29</time>
      </trkpt>
      <trkpt lat="43.31363" lon="-3.08178">
        <ele>157.8</ele>
        <time>2021-10-28 14:15:30</time>
      </trkpt>
      <trkpt lat="43.31374" lon="-3.08173">
        <ele>157.6</ele>
        <time>2021-10-28 14:15:31</time>
      </trkpt>
      <trkpt lat="43.31374" lon="-3.08173">
        <ele>157.6</ele>
        <time>2021-10-28 14:15:32</time>
      </trkpt>
      <trkpt lat="43.3138" lon="-3.0817">
        <ele>157.6</ele>
        <time>2021-10-28 14:15:33</time>
      </trkpt>
      <trkpt lat="43.31385" lon="-3.08165">
        <ele>157.6</ele>
        <time>2021-10-28 14:15:34</time>
      </trkpt>
      <trkpt lat="43.31391" lon="-3.08161">
        <ele>157.6</ele>
        <time>2021-10-28 14:15:35</time>
      </trkpt>
      <trkpt lat="43.31396" lon="-3.08156">
        <ele>157.4</ele>
        <time>2021-10-28 14:15:36</time>
      </trkpt>
      <trkpt lat="43.31402" lon="-3.08151">
        <ele>157.2</ele>
        <time>2021-10-28 14:15:37</time>
      </trkpt>
      <trkpt lat="43.31407" lon="-3.08145">
        <ele>156.8</ele>
        <time>2021-10-28 14:15:38</time>
      </trkpt>
      <trkpt lat="43.31407" lon="-3.08145">
        <ele>156.6</ele>
        <time>2021-10-28 14:15:39</time>
      </trkpt>
      <trkpt lat="43.31418" lon="-3.08133">
        <ele>156</ele>
        <time>2021-10-28 14:15:40</time>
      </trkpt>
      <trkpt lat="43.31424" lon="-3.08127">
        <ele>155.6</ele>
        <time>2021-10-28 14:15:41</time>
      </trkpt>
      <trkpt lat="43.3143" lon="-3.0812">
        <ele>155.2</ele>
        <time>2021-10-28 14:15:42</time>
      </trkpt>
      <trkpt lat="43.31435" lon="-3.08114">
        <ele>155.2</ele>
        <time>2021-10-28 14:15:43</time>
      </trkpt>
      <trkpt lat="43.31441" lon="-3.08108">
        <ele>155.2</ele>
        <time>2021-10-28 14:15:44</time>
      </trkpt>
      <trkpt lat="43.31446" lon="-3.08102">
        <ele>155.2</ele>
        <time>2021-10-28 14:15:45</time>
      </trkpt>
      <trkpt lat="43.31451" lon="-3.08096">
        <ele>155.6</ele>
        <time>2021-10-28 14:15:46</time>
      </trkpt>
      <trkpt lat="43.31456" lon="-3.08089">
        <ele>156</ele>
        <time>2021-10-28 14:15:47</time>
      </trkpt>
      <trkpt lat="43.3146" lon="-3.08083">
        <ele>156.2</ele>
        <time>2021-10-28 14:15:48</time>
      </trkpt>
      <trkpt lat="43.31464" lon="-3.08076">
        <ele>156.4</ele>
        <time>2021-10-28 14:15:49</time>
      </trkpt>
      <trkpt lat="43.31473" lon="-3.08062">
        <ele>156.4</ele>
        <time>2021-10-28 14:15:50</time>
      </trkpt>
      <trkpt lat="43.31473" lon="-3.08062">
        <ele>156.4</ele>
        <time>2021-10-28 14:15:51</time>
      </trkpt>
      <trkpt lat="43.31478" lon="-3.08055">
        <ele>156.4</ele>
        <time>2021-10-28 14:15:52</time>
      </trkpt>
      <trkpt lat="43.31482" lon="-3.08048">
        <ele>156.4</ele>
        <time>2021-10-28 14:15:53</time>
      </trkpt>
      <trkpt lat="43.31491" lon="-3.08032">
        <ele>156.2</ele>
        <time>2021-10-28 14:15:54</time>
      </trkpt>
      <trkpt lat="43.31491" lon="-3.08032">
        <ele>156.2</ele>
        <time>2021-10-28 14:15:55</time>
      </trkpt>
      <trkpt lat="43.31496" lon="-3.08025">
        <ele>156.2</ele>
        <time>2021-10-28 14:15:56</time>
      </trkpt>
      <trkpt lat="43.315" lon="-3.08017">
        <ele>156</ele>
        <time>2021-10-28 14:15:57</time>
      </trkpt>
      <trkpt lat="43.31505" lon="-3.0801">
        <ele>156</ele>
        <time>2021-10-28 14:15:58</time>
      </trkpt>
      <trkpt lat="43.3151" lon="-3.08003">
        <ele>155.8</ele>
        <time>2021-10-28 14:15:59</time>
      </trkpt>
      <trkpt lat="43.31522" lon="-3.07991">
        <ele>155.8</ele>
        <time>2021-10-28 14:16:00</time>
      </trkpt>
      <trkpt lat="43.31522" lon="-3.07991">
        <ele>155.6</ele>
        <time>2021-10-28 14:16:01</time>
      </trkpt>
      <trkpt lat="43.31528" lon="-3.07986">
        <ele>155.6</ele>
        <time>2021-10-28 14:16:02</time>
      </trkpt>
      <trkpt lat="43.31534" lon="-3.07982">
        <ele>155.6</ele>
        <time>2021-10-28 14:16:03</time>
      </trkpt>
      <trkpt lat="43.3154" lon="-3.07978">
        <ele>155.6</ele>
        <time>2021-10-28 14:16:04</time>
      </trkpt>
      <trkpt lat="43.31554" lon="-3.07972">
        <ele>155.6</ele>
        <time>2021-10-28 14:16:05</time>
      </trkpt>
      <trkpt lat="43.31554" lon="-3.07972">
        <ele>155.8</ele>
        <time>2021-10-28 14:16:06</time>
      </trkpt>
      <trkpt lat="43.31568" lon="-3.07969">
        <ele>155.8</ele>
        <time>2021-10-28 14:16:07</time>
      </trkpt>
      <trkpt lat="43.31568" lon="-3.07969">
        <ele>156</ele>
        <time>2021-10-28 14:16:08</time>
      </trkpt>
      <trkpt lat="43.31575" lon="-3.07968">
        <ele>156</ele>
        <time>2021-10-28 14:16:09</time>
      </trkpt>
      <trkpt lat="43.31589" lon="-3.07969">
        <ele>156.2</ele>
        <time>2021-10-28 14:16:10</time>
      </trkpt>
      <trkpt lat="43.31589" lon="-3.07969">
        <ele>156.2</ele>
        <time>2021-10-28 14:16:11</time>
      </trkpt>
      <trkpt lat="43.31595" lon="-3.07971">
        <ele>156.2</ele>
        <time>2021-10-28 14:16:12</time>
      </trkpt>
      <trkpt lat="43.31602" lon="-3.07973">
        <ele>156.4</ele>
        <time>2021-10-28 14:16:13</time>
      </trkpt>
      <trkpt lat="43.31609" lon="-3.07975">
        <ele>156.4</ele>
        <time>2021-10-28 14:16:14</time>
      </trkpt>
      <trkpt lat="43.31615" lon="-3.07978">
        <ele>156.4</ele>
        <time>2021-10-28 14:16:15</time>
      </trkpt>
      <trkpt lat="43.31621" lon="-3.07982">
        <ele>156.6</ele>
        <time>2021-10-28 14:16:16</time>
      </trkpt>
      <trkpt lat="43.31627" lon="-3.07986">
        <ele>156.6</ele>
        <time>2021-10-28 14:16:17</time>
      </trkpt>
      <trkpt lat="43.31633" lon="-3.0799">
        <ele>156.6</ele>
        <time>2021-10-28 14:16:18</time>
      </trkpt>
      <trkpt lat="43.31639" lon="-3.07994">
        <ele>156.8</ele>
        <time>2021-10-28 14:16:19</time>
      </trkpt>
      <trkpt lat="43.3165" lon="-3.08003">
        <ele>156.8</ele>
        <time>2021-10-28 14:16:20</time>
      </trkpt>
      <trkpt lat="43.3165" lon="-3.08003">
        <ele>156.8</ele>
        <time>2021-10-28 14:16:21</time>
      </trkpt>
      <trkpt lat="43.31655" lon="-3.08007">
        <ele>156.8</ele>
        <time>2021-10-28 14:16:22</time>
      </trkpt>
      <trkpt lat="43.31661" lon="-3.08011">
        <ele>156.8</ele>
        <time>2021-10-28 14:16:23</time>
      </trkpt>
      <trkpt lat="43.31666" lon="-3.08015">
        <ele>157</ele>
        <time>2021-10-28 14:16:24</time>
      </trkpt>
      <trkpt lat="43.31671" lon="-3.08019">
        <ele>157</ele>
        <time>2021-10-28 14:16:25</time>
      </trkpt>
      <trkpt lat="43.31675" lon="-3.08023">
        <ele>157</ele>
        <time>2021-10-28 14:16:26</time>
      </trkpt>
      <trkpt lat="43.3168" lon="-3.08027">
        <ele>157</ele>
        <time>2021-10-28 14:16:27</time>
      </trkpt>
      <trkpt lat="43.31684" lon="-3.08031">
        <ele>157.2</ele>
        <time>2021-10-28 14:16:28</time>
      </trkpt>
      <trkpt lat="43.31689" lon="-3.08034">
        <ele>157.2</ele>
        <time>2021-10-28 14:16:29</time>
      </trkpt>
      <trkpt lat="43.31693" lon="-3.08037">
        <ele>157.4</ele>
        <time>2021-10-28 14:16:30</time>
      </trkpt>
      <trkpt lat="43.31697" lon="-3.08039">
        <ele>157.6</ele>
        <time>2021-10-28 14:16:31</time>
      </trkpt>
      <trkpt lat="43.31702" lon="-3.08041">
        <ele>157.6</ele>
        <time>2021-10-28 14:16:32</time>
      </trkpt>
      <trkpt lat="43.31702" lon="-3.08041">
        <ele>157.8</ele>
        <time>2021-10-28 14:16:33</time>
      </trkpt>
      <trkpt lat="43.3171" lon="-3.08046">
        <ele>157.8</ele>
        <time>2021-10-28 14:16:34</time>
      </trkpt>
      <trkpt lat="43.31714" lon="-3.08049">
        <ele>157.8</ele>
        <time>2021-10-28 14:16:35</time>
      </trkpt>
      <trkpt lat="43.31719" lon="-3.08053">
        <ele>158</ele>
        <time>2021-10-28 14:16:36</time>
      </trkpt>
      <trkpt lat="43.31719" lon="-3.08053">
        <ele>157.8</ele>
        <time>2021-10-28 14:16:37</time>
      </trkpt>
      <trkpt lat="43.3172" lon="-3.08057">
        <ele>157.8</ele>
        <time>2021-10-28 14:16:38</time>
      </trkpt>
      <trkpt lat="43.31718" lon="-3.08058">
        <ele>158</ele>
        <time>2021-10-28 14:16:39</time>
      </trkpt>
      <trkpt lat="43.31716" lon="-3.08057">
        <ele>158</ele>
        <time>2021-10-28 14:16:40</time>
      </trkpt>
      <trkpt lat="43.31715" lon="-3.08055">
        <ele>158</ele>
        <time>2021-10-28 14:16:41</time>
      </trkpt>
      <trkpt lat="43.31716" lon="-3.08053">
        <ele>158</ele>
        <time>2021-10-28 14:16:42</time>
      </trkpt>
      <trkpt lat="43.31717" lon="-3.08052">
        <ele>158.2</ele>
        <time>2021-10-28 14:16:43</time>
      </trkpt>
      <trkpt lat="43.31719" lon="-3.08052">
        <ele>158.2</ele>
        <time>2021-10-28 14:16:44</time>
      </trkpt>
      <trkpt lat="43.31721" lon="-3.08052">
        <ele>158.2</ele>
        <time>2021-10-28 14:16:45</time>
      </trkpt>
      <trkpt lat="43.31723" lon="-3.08052">
        <ele>158.2</ele>
        <time>2021-10-28 14:16:46</time>
      </trkpt>
      <trkpt lat="43.31725" lon="-3.08051">
        <ele>158.2</ele>
        <time>2021-10-28 14:16:47</time>
      </trkpt>
      <trkpt lat="43.31727" lon="-3.08051">
        <ele>158</ele>
        <time>2021-10-28 14:16:48</time>
      </trkpt>
      <trkpt lat="43.31731" lon="-3.0805">
        <ele>157.8</ele>
        <time>2021-10-28 14:16:49</time>
      </trkpt>
      <trkpt lat="43.31731" lon="-3.0805">
        <ele>157.8</ele>
        <time>2021-10-28 14:16:50</time>
      </trkpt>
      <trkpt lat="43.31733" lon="-3.0805">
        <ele>157.6</ele>
        <time>2021-10-28 14:16:51</time>
      </trkpt>
      <trkpt lat="43.31733" lon="-3.0805">
        <ele>157.4</ele>
        <time>2021-10-28 14:16:52</time>
      </trkpt>
      <trkpt lat="43.31738" lon="-3.0805">
        <ele>157.4</ele>
        <time>2021-10-28 14:16:53</time>
      </trkpt>
      <trkpt lat="43.31741" lon="-3.0805">
        <ele>157.4</ele>
        <time>2021-10-28 14:16:54</time>
      </trkpt>
      <trkpt lat="43.31744" lon="-3.08049">
        <ele>157.6</ele>
        <time>2021-10-28 14:16:55</time>
      </trkpt>
      <trkpt lat="43.31747" lon="-3.08046">
        <ele>157.6</ele>
        <time>2021-10-28 14:16:56</time>
      </trkpt>
      <trkpt lat="43.31751" lon="-3.08043">
        <ele>157.4</ele>
        <time>2021-10-28 14:16:57</time>
      </trkpt>
      <trkpt lat="43.31755" lon="-3.0804">
        <ele>157.2</ele>
        <time>2021-10-28 14:16:58</time>
      </trkpt>
      <trkpt lat="43.3176" lon="-3.08037">
        <ele>157</ele>
        <time>2021-10-28 14:16:59</time>
      </trkpt>
      <trkpt lat="43.31765" lon="-3.08034">
        <ele>157</ele>
        <time>2021-10-28 14:17:00</time>
      </trkpt>
      <trkpt lat="43.31775" lon="-3.08029">
        <ele>157.2</ele>
        <time>2021-10-28 14:17:01</time>
      </trkpt>
      <trkpt lat="43.31775" lon="-3.08029">
        <ele>157.2</ele>
        <time>2021-10-28 14:17:02</time>
      </trkpt>
      <trkpt lat="43.3178" lon="-3.08025">
        <ele>157.2</ele>
        <time>2021-10-28 14:17:03</time>
      </trkpt>
      <trkpt lat="43.31785" lon="-3.08021">
        <ele>157.2</ele>
        <time>2021-10-28 14:17:04</time>
      </trkpt>
      <trkpt lat="43.3179" lon="-3.08016">
        <ele>157.2</ele>
        <time>2021-10-28 14:17:05</time>
      </trkpt>
      <trkpt lat="43.31794" lon="-3.08011">
        <ele>157.2</ele>
        <time>2021-10-28 14:17:06</time>
      </trkpt>
      <trkpt lat="43.31799" lon="-3.08005">
        <ele>157.4</ele>
        <time>2021-10-28 14:17:07</time>
      </trkpt>
      <trkpt lat="43.31803" lon="-3.07999">
        <ele>157.4</ele>
        <time>2021-10-28 14:17:08</time>
      </trkpt>
      <trkpt lat="43.31807" lon="-3.07993">
        <ele>157.6</ele>
        <time>2021-10-28 14:17:09</time>
      </trkpt>
      <trkpt lat="43.3181" lon="-3.07986">
        <ele>157.6</ele>
        <time>2021-10-28 14:17:10</time>
      </trkpt>
      <trkpt lat="43.31816" lon="-3.07972">
        <ele>157.4</ele>
        <time>2021-10-28 14:17:11</time>
      </trkpt>
      <trkpt lat="43.31816" lon="-3.07972">
        <ele>157.4</ele>
        <time>2021-10-28 14:17:12</time>
      </trkpt>
      <trkpt lat="43.31819" lon="-3.07965">
        <ele>157.2</ele>
        <time>2021-10-28 14:17:13</time>
      </trkpt>
      <trkpt lat="43.31822" lon="-3.07957">
        <ele>157.2</ele>
        <time>2021-10-28 14:17:14</time>
      </trkpt>
      <trkpt lat="43.31825" lon="-3.07949">
        <ele>157.2</ele>
        <time>2021-10-28 14:17:15</time>
      </trkpt>
      <trkpt lat="43.31826" lon="-3.07941">
        <ele>157.2</ele>
        <time>2021-10-28 14:17:16</time>
      </trkpt>
      <trkpt lat="43.31828" lon="-3.07933">
        <ele>157.2</ele>
        <time>2021-10-28 14:17:17</time>
      </trkpt>
      <trkpt lat="43.3183" lon="-3.07925">
        <ele>157.2</ele>
        <time>2021-10-28 14:17:18</time>
      </trkpt>
      <trkpt lat="43.31832" lon="-3.07917">
        <ele>157.2</ele>
        <time>2021-10-28 14:17:19</time>
      </trkpt>
      <trkpt lat="43.31833" lon="-3.07909">
        <ele>157</ele>
        <time>2021-10-28 14:17:20</time>
      </trkpt>
      <trkpt lat="43.31834" lon="-3.07901">
        <ele>157</ele>
        <time>2021-10-28 14:17:21</time>
      </trkpt>
      <trkpt lat="43.31835" lon="-3.07893">
        <ele>157</ele>
        <time>2021-10-28 14:17:22</time>
      </trkpt>
      <trkpt lat="43.31835" lon="-3.07884">
        <ele>156.8</ele>
        <time>2021-10-28 14:17:23</time>
      </trkpt>
      <trkpt lat="43.31835" lon="-3.07876">
        <ele>156.6</ele>
        <time>2021-10-28 14:17:24</time>
      </trkpt>
      <trkpt lat="43.31833" lon="-3.07868">
        <ele>156.4</ele>
        <time>2021-10-28 14:17:25</time>
      </trkpt>
      <trkpt lat="43.31833" lon="-3.07868">
        <ele>156.2</ele>
        <time>2021-10-28 14:17:26</time>
      </trkpt>
      <trkpt lat="43.31827" lon="-3.07854">
        <ele>156.2</ele>
        <time>2021-10-28 14:17:27</time>
      </trkpt>
      <trkpt lat="43.31822" lon="-3.07839">
        <ele>156.2</ele>
        <time>2021-10-28 14:17:28</time>
      </trkpt>
      <trkpt lat="43.31822" lon="-3.07839">
        <ele>156.2</ele>
        <time>2021-10-28 14:17:29</time>
      </trkpt>
      <trkpt lat="43.3182" lon="-3.07831">
        <ele>156.2</ele>
        <time>2021-10-28 14:17:30</time>
      </trkpt>
      <trkpt lat="43.31818" lon="-3.07823">
        <ele>156.4</ele>
        <time>2021-10-28 14:17:31</time>
      </trkpt>
      <trkpt lat="43.31817" lon="-3.07815">
        <ele>156.4</ele>
        <time>2021-10-28 14:17:32</time>
      </trkpt>
      <trkpt lat="43.31817" lon="-3.07806">
        <ele>156.8</ele>
        <time>2021-10-28 14:17:33</time>
      </trkpt>
      <trkpt lat="43.31818" lon="-3.07789">
        <ele>157.2</ele>
        <time>2021-10-28 14:17:34</time>
      </trkpt>
      <trkpt lat="43.31818" lon="-3.07789">
        <ele>157.4</ele>
        <time>2021-10-28 14:17:35</time>
      </trkpt>
      <trkpt lat="43.31818" lon="-3.07781">
        <ele>157.4</ele>
        <time>2021-10-28 14:17:36</time>
      </trkpt>
      <trkpt lat="43.31817" lon="-3.07774">
        <ele>157.6</ele>
        <time>2021-10-28 14:17:37</time>
      </trkpt>
      <trkpt lat="43.31815" lon="-3.07766">
        <ele>157.6</ele>
        <time>2021-10-28 14:17:38</time>
      </trkpt>
      <trkpt lat="43.31814" lon="-3.07759">
        <ele>157.6</ele>
        <time>2021-10-28 14:17:39</time>
      </trkpt>
      <trkpt lat="43.31813" lon="-3.07752">
        <ele>157.6</ele>
        <time>2021-10-28 14:17:40</time>
      </trkpt>
      <trkpt lat="43.31812" lon="-3.07745">
        <ele>157.6</ele>
        <time>2021-10-28 14:17:41</time>
      </trkpt>
      <trkpt lat="43.31811" lon="-3.07739">
        <ele>157.8</ele>
        <time>2021-10-28 14:17:42</time>
      </trkpt>
      <trkpt lat="43.3181" lon="-3.07732">
        <ele>157.8</ele>
        <time>2021-10-28 14:17:43</time>
      </trkpt>
      <trkpt lat="43.31809" lon="-3.07726">
        <ele>158</ele>
        <time>2021-10-28 14:17:44</time>
      </trkpt>
      <trkpt lat="43.31807" lon="-3.07714">
        <ele>158.4</ele>
        <time>2021-10-28 14:17:45</time>
      </trkpt>
      <trkpt lat="43.31807" lon="-3.07714">
        <ele>158.4</ele>
        <time>2021-10-28 14:17:46</time>
      </trkpt>
      <trkpt lat="43.31806" lon="-3.07708">
        <ele>158.4</ele>
        <time>2021-10-28 14:17:47</time>
      </trkpt>
      <trkpt lat="43.31806" lon="-3.07702">
        <ele>158.2</ele>
        <time>2021-10-28 14:17:48</time>
      </trkpt>
      <trkpt lat="43.31805" lon="-3.07696">
        <ele>158.2</ele>
        <time>2021-10-28 14:17:49</time>
      </trkpt>
      <trkpt lat="43.31806" lon="-3.07689">
        <ele>158.2</ele>
        <time>2021-10-28 14:17:50</time>
      </trkpt>
      <trkpt lat="43.31808" lon="-3.07684">
        <ele>158.2</ele>
        <time>2021-10-28 14:17:51</time>
      </trkpt>
      <trkpt lat="43.31812" lon="-3.07679">
        <ele>158</ele>
        <time>2021-10-28 14:17:52</time>
      </trkpt>
      <trkpt lat="43.31816" lon="-3.07677">
        <ele>158</ele>
        <time>2021-10-28 14:17:53</time>
      </trkpt>
      <trkpt lat="43.31826" lon="-3.07676">
        <ele>157.8</ele>
        <time>2021-10-28 14:17:54</time>
      </trkpt>
      <trkpt lat="43.31826" lon="-3.07676">
        <ele>157.6</ele>
        <time>2021-10-28 14:17:55</time>
      </trkpt>
      <trkpt lat="43.31831" lon="-3.07675">
        <ele>157.4</ele>
        <time>2021-10-28 14:17:56</time>
      </trkpt>
      <trkpt lat="43.31837" lon="-3.07674">
        <ele>157</ele>
        <time>2021-10-28 14:17:57</time>
      </trkpt>
      <trkpt lat="43.31841" lon="-3.07673">
        <ele>156.6</ele>
        <time>2021-10-28 14:17:58</time>
      </trkpt>
      <trkpt lat="43.31847" lon="-3.07664">
        <ele>156</ele>
        <time>2021-10-28 14:17:59</time>
      </trkpt>
      <trkpt lat="43.31847" lon="-3.07664">
        <ele>155.4</ele>
        <time>2021-10-28 14:18:00</time>
      </trkpt>
      <trkpt lat="43.31847" lon="-3.07656">
        <ele>154.6</ele>
        <time>2021-10-28 14:18:01</time>
      </trkpt>
      <trkpt lat="43.31847" lon="-3.07647">
        <ele>154.2</ele>
        <time>2021-10-28 14:18:02</time>
      </trkpt>
      <trkpt lat="43.31848" lon="-3.07639">
        <ele>154.2</ele>
        <time>2021-10-28 14:18:03</time>
      </trkpt>
      <trkpt lat="43.31848" lon="-3.07631">
        <ele>154.2</ele>
        <time>2021-10-28 14:18:04</time>
      </trkpt>
      <trkpt lat="43.31848" lon="-3.07623">
        <ele>154.6</ele>
        <time>2021-10-28 14:18:05</time>
      </trkpt>
      <trkpt lat="43.31849" lon="-3.07616">
        <ele>155.2</ele>
        <time>2021-10-28 14:18:06</time>
      </trkpt>
      <trkpt lat="43.31852" lon="-3.07601">
        <ele>155.4</ele>
        <time>2021-10-28 14:18:07</time>
      </trkpt>
      <trkpt lat="43.31852" lon="-3.07601">
        <ele>155.6</ele>
        <time>2021-10-28 14:18:08</time>
      </trkpt>
      <trkpt lat="43.31852" lon="-3.07594">
        <ele>155.6</ele>
        <time>2021-10-28 14:18:09</time>
      </trkpt>
      <trkpt lat="43.31852" lon="-3.07587">
        <ele>155.6</ele>
        <time>2021-10-28 14:18:10</time>
      </trkpt>
      <trkpt lat="43.31851" lon="-3.0758">
        <ele>155.6</ele>
        <time>2021-10-28 14:18:11</time>
      </trkpt>
      <trkpt lat="43.31848" lon="-3.07573">
        <ele>155.6</ele>
        <time>2021-10-28 14:18:12</time>
      </trkpt>
      <trkpt lat="43.31845" lon="-3.07566">
        <ele>155.6</ele>
        <time>2021-10-28 14:18:13</time>
      </trkpt>
      <trkpt lat="43.3184" lon="-3.07552">
        <ele>155.6</ele>
        <time>2021-10-28 14:18:14</time>
      </trkpt>
      <trkpt lat="43.3184" lon="-3.07552">
        <ele>155.8</ele>
        <time>2021-10-28 14:18:15</time>
      </trkpt>
      <trkpt lat="43.31837" lon="-3.07545">
        <ele>155.8</ele>
        <time>2021-10-28 14:18:16</time>
      </trkpt>
      <trkpt lat="43.31834" lon="-3.07538">
        <ele>155.8</ele>
        <time>2021-10-28 14:18:17</time>
      </trkpt>
      <trkpt lat="43.31831" lon="-3.0753">
        <ele>156</ele>
        <time>2021-10-28 14:18:18</time>
      </trkpt>
      <trkpt lat="43.31829" lon="-3.07523">
        <ele>156.2</ele>
        <time>2021-10-28 14:18:19</time>
      </trkpt>
      <trkpt lat="43.31826" lon="-3.07515">
        <ele>156.6</ele>
        <time>2021-10-28 14:18:20</time>
      </trkpt>
      <trkpt lat="43.31824" lon="-3.07508">
        <ele>156.8</ele>
        <time>2021-10-28 14:18:21</time>
      </trkpt>
      <trkpt lat="43.3182" lon="-3.07494">
        <ele>157</ele>
        <time>2021-10-28 14:18:22</time>
      </trkpt>
      <trkpt lat="43.3182" lon="-3.07494">
        <ele>157.2</ele>
        <time>2021-10-28 14:18:23</time>
      </trkpt>
      <trkpt lat="43.31817" lon="-3.07488">
        <ele>157.2</ele>
        <time>2021-10-28 14:18:24</time>
      </trkpt>
      <trkpt lat="43.31813" lon="-3.07482">
        <ele>157.6</ele>
        <time>2021-10-28 14:18:25</time>
      </trkpt>
      <trkpt lat="43.31809" lon="-3.07478">
        <ele>157.6</ele>
        <time>2021-10-28 14:18:26</time>
      </trkpt>
      <trkpt lat="43.31804" lon="-3.07473">
        <ele>157.8</ele>
        <time>2021-10-28 14:18:27</time>
      </trkpt>
      <trkpt lat="43.31798" lon="-3.0747">
        <ele>157.8</ele>
        <time>2021-10-28 14:18:28</time>
      </trkpt>
      <trkpt lat="43.31792" lon="-3.0747">
        <ele>157.8</ele>
        <time>2021-10-28 14:18:29</time>
      </trkpt>
      <trkpt lat="43.31786" lon="-3.07469">
        <ele>157.8</ele>
        <time>2021-10-28 14:18:30</time>
      </trkpt>
      <trkpt lat="43.31775" lon="-3.07462">
        <ele>157.8</ele>
        <time>2021-10-28 14:18:31</time>
      </trkpt>
      <trkpt lat="43.31775" lon="-3.07462">
        <ele>157.8</ele>
        <time>2021-10-28 14:18:32</time>
      </trkpt>
      <trkpt lat="43.31772" lon="-3.07455">
        <ele>157.8</ele>
        <time>2021-10-28 14:18:33</time>
      </trkpt>
      <trkpt lat="43.3177" lon="-3.07447">
        <ele>157.6</ele>
        <time>2021-10-28 14:18:34</time>
      </trkpt>
      <trkpt lat="43.31769" lon="-3.0744">
        <ele>157.6</ele>
        <time>2021-10-28 14:18:35</time>
      </trkpt>
      <trkpt lat="43.31769" lon="-3.07431">
        <ele>157.6</ele>
        <time>2021-10-28 14:18:36</time>
      </trkpt>
      <trkpt lat="43.31766" lon="-3.07415">
        <ele>157.4</ele>
        <time>2021-10-28 14:18:37</time>
      </trkpt>
      <trkpt lat="43.31766" lon="-3.07415">
        <ele>157.2</ele>
        <time>2021-10-28 14:18:38</time>
      </trkpt>
      <trkpt lat="43.31765" lon="-3.07408">
        <ele>157</ele>
        <time>2021-10-28 14:18:39</time>
      </trkpt>
      <trkpt lat="43.31765" lon="-3.07394">
        <ele>157</ele>
        <time>2021-10-28 14:18:40</time>
      </trkpt>
      <trkpt lat="43.31765" lon="-3.07394">
        <ele>157</ele>
        <time>2021-10-28 14:18:41</time>
      </trkpt>
      <trkpt lat="43.31766" lon="-3.07387">
        <ele>157.2</ele>
        <time>2021-10-28 14:18:42</time>
      </trkpt>
      <trkpt lat="43.31766" lon="-3.0738">
        <ele>157.4</ele>
        <time>2021-10-28 14:18:43</time>
      </trkpt>
      <trkpt lat="43.31767" lon="-3.07373">
        <ele>157.6</ele>
        <time>2021-10-28 14:18:44</time>
      </trkpt>
      <trkpt lat="43.31767" lon="-3.07366">
        <ele>157.6</ele>
        <time>2021-10-28 14:18:45</time>
      </trkpt>
      <trkpt lat="43.31769" lon="-3.07351">
        <ele>157.6</ele>
        <time>2021-10-28 14:18:46</time>
      </trkpt>
      <trkpt lat="43.31769" lon="-3.07351">
        <ele>157.2</ele>
        <time>2021-10-28 14:18:47</time>
      </trkpt>
      <trkpt lat="43.3177" lon="-3.07343">
        <ele>156.8</ele>
        <time>2021-10-28 14:18:48</time>
      </trkpt>
      <trkpt lat="43.31771" lon="-3.07334">
        <ele>156.2</ele>
        <time>2021-10-28 14:18:49</time>
      </trkpt>
      <trkpt lat="43.31772" lon="-3.07325">
        <ele>156</ele>
        <time>2021-10-28 14:18:50</time>
      </trkpt>
      <trkpt lat="43.31773" lon="-3.07314">
        <ele>156</ele>
        <time>2021-10-28 14:18:51</time>
      </trkpt>
      <trkpt lat="43.31774" lon="-3.07304">
        <ele>156</ele>
        <time>2021-10-28 14:18:52</time>
      </trkpt>
      <trkpt lat="43.31774" lon="-3.07292">
        <ele>156</ele>
        <time>2021-10-28 14:18:53</time>
      </trkpt>
      <trkpt lat="43.31775" lon="-3.07281">
        <ele>155.4</ele>
        <time>2021-10-28 14:18:54</time>
      </trkpt>
      <trkpt lat="43.31777" lon="-3.0727">
        <ele>154.6</ele>
        <time>2021-10-28 14:18:55</time>
      </trkpt>
      <trkpt lat="43.31779" lon="-3.07259">
        <ele>153.4</ele>
        <time>2021-10-28 14:18:56</time>
      </trkpt>
      <trkpt lat="43.31782" lon="-3.07248">
        <ele>152.8</ele>
        <time>2021-10-28 14:18:57</time>
      </trkpt>
      <trkpt lat="43.31784" lon="-3.07236">
        <ele>152.4</ele>
        <time>2021-10-28 14:18:58</time>
      </trkpt>
      <trkpt lat="43.31786" lon="-3.07224">
        <ele>152</ele>
        <time>2021-10-28 14:18:59</time>
      </trkpt>
      <trkpt lat="43.31789" lon="-3.07213">
        <ele>151.8</ele>
        <time>2021-10-28 14:19:00</time>
      </trkpt>
      <trkpt lat="43.31792" lon="-3.07201">
        <ele>151.8</ele>
        <time>2021-10-28 14:19:01</time>
      </trkpt>
      <trkpt lat="43.31795" lon="-3.0719">
        <ele>151.6</ele>
        <time>2021-10-28 14:19:02</time>
      </trkpt>
      <trkpt lat="43.31798" lon="-3.0718">
        <ele>151.6</ele>
        <time>2021-10-28 14:19:03</time>
      </trkpt>
      <trkpt lat="43.31802" lon="-3.07169">
        <ele>151.4</ele>
        <time>2021-10-28 14:19:04</time>
      </trkpt>
      <trkpt lat="43.31813" lon="-3.07151">
        <ele>150.8</ele>
        <time>2021-10-28 14:19:05</time>
      </trkpt>
      <trkpt lat="43.31813" lon="-3.07151">
        <ele>150.2</ele>
        <time>2021-10-28 14:19:06</time>
      </trkpt>
      <trkpt lat="43.31819" lon="-3.07143">
        <ele>150</ele>
        <time>2021-10-28 14:19:07</time>
      </trkpt>
      <trkpt lat="43.31826" lon="-3.07136">
        <ele>150</ele>
        <time>2021-10-28 14:19:08</time>
      </trkpt>
      <trkpt lat="43.31833" lon="-3.07129">
        <ele>150</ele>
        <time>2021-10-28 14:19:09</time>
      </trkpt>
      <trkpt lat="43.3184" lon="-3.07124">
        <ele>150</ele>
        <time>2021-10-28 14:19:10</time>
      </trkpt>
      <trkpt lat="43.31848" lon="-3.0712">
        <ele>150</ele>
        <time>2021-10-28 14:19:11</time>
      </trkpt>
      <trkpt lat="43.31856" lon="-3.07117">
        <ele>150</ele>
        <time>2021-10-28 14:19:12</time>
      </trkpt>
      <trkpt lat="43.31856" lon="-3.07117">
        <ele>149.8</ele>
        <time>2021-10-28 14:19:13</time>
      </trkpt>
      <trkpt lat="43.31873" lon="-3.07115">
        <ele>149.6</ele>
        <time>2021-10-28 14:19:14</time>
      </trkpt>
      <trkpt lat="43.31881" lon="-3.07116">
        <ele>149.4</ele>
        <time>2021-10-28 14:19:15</time>
      </trkpt>
      <trkpt lat="43.3189" lon="-3.07118">
        <ele>149.4</ele>
        <time>2021-10-28 14:19:16</time>
      </trkpt>
      <trkpt lat="43.31897" lon="-3.07121">
        <ele>149.4</ele>
        <time>2021-10-28 14:19:17</time>
      </trkpt>
      <trkpt lat="43.31904" lon="-3.07125">
        <ele>149.2</ele>
        <time>2021-10-28 14:19:18</time>
      </trkpt>
      <trkpt lat="43.31918" lon="-3.07136">
        <ele>149.2</ele>
        <time>2021-10-28 14:19:19</time>
      </trkpt>
      <trkpt lat="43.31918" lon="-3.07136">
        <ele>149</ele>
        <time>2021-10-28 14:19:20</time>
      </trkpt>
      <trkpt lat="43.31925" lon="-3.07141">
        <ele>149</ele>
        <time>2021-10-28 14:19:21</time>
      </trkpt>
      <trkpt lat="43.31932" lon="-3.07145">
        <ele>149</ele>
        <time>2021-10-28 14:19:22</time>
      </trkpt>
      <trkpt lat="43.31938" lon="-3.07147">
        <ele>148.8</ele>
        <time>2021-10-28 14:19:23</time>
      </trkpt>
      <trkpt lat="43.31945" lon="-3.0715">
        <ele>148.6</ele>
        <time>2021-10-28 14:19:24</time>
      </trkpt>
      <trkpt lat="43.31953" lon="-3.07153">
        <ele>148</ele>
        <time>2021-10-28 14:19:25</time>
      </trkpt>
      <trkpt lat="43.3196" lon="-3.07156">
        <ele>147.8</ele>
        <time>2021-10-28 14:19:26</time>
      </trkpt>
      <trkpt lat="43.31968" lon="-3.0716">
        <ele>147.4</ele>
        <time>2021-10-28 14:19:27</time>
      </trkpt>
      <trkpt lat="43.31975" lon="-3.07162">
        <ele>147.2</ele>
        <time>2021-10-28 14:19:28</time>
      </trkpt>
      <trkpt lat="43.31983" lon="-3.07163">
        <ele>146.8</ele>
        <time>2021-10-28 14:19:29</time>
      </trkpt>
      <trkpt lat="43.31991" lon="-3.07163">
        <ele>146.8</ele>
        <time>2021-10-28 14:19:30</time>
      </trkpt>
      <trkpt lat="43.31999" lon="-3.07164">
        <ele>146.8</ele>
        <time>2021-10-28 14:19:31</time>
      </trkpt>
      <trkpt lat="43.32007" lon="-3.07164">
        <ele>146.6</ele>
        <time>2021-10-28 14:19:32</time>
      </trkpt>
      <trkpt lat="43.32022" lon="-3.07164">
        <ele>146.4</ele>
        <time>2021-10-28 14:19:33</time>
      </trkpt>
      <trkpt lat="43.32022" lon="-3.07164">
        <ele>146.2</ele>
        <time>2021-10-28 14:19:34</time>
      </trkpt>
      <trkpt lat="43.32029" lon="-3.07161">
        <ele>146.2</ele>
        <time>2021-10-28 14:19:35</time>
      </trkpt>
      <trkpt lat="43.32036" lon="-3.07158">
        <ele>146</ele>
        <time>2021-10-28 14:19:36</time>
      </trkpt>
      <trkpt lat="43.32042" lon="-3.07154">
        <ele>146</ele>
        <time>2021-10-28 14:19:37</time>
      </trkpt>
      <trkpt lat="43.32049" lon="-3.0715">
        <ele>145.6</ele>
        <time>2021-10-28 14:19:38</time>
      </trkpt>
      <trkpt lat="43.32056" lon="-3.07145">
        <ele>145.2</ele>
        <time>2021-10-28 14:19:39</time>
      </trkpt>
      <trkpt lat="43.32062" lon="-3.0714">
        <ele>144.8</ele>
        <time>2021-10-28 14:19:40</time>
      </trkpt>
      <trkpt lat="43.32069" lon="-3.07135">
        <ele>144.8</ele>
        <time>2021-10-28 14:19:41</time>
      </trkpt>
      <trkpt lat="43.32075" lon="-3.0713">
        <ele>144.6</ele>
        <time>2021-10-28 14:19:42</time>
      </trkpt>
      <trkpt lat="43.32081" lon="-3.07124">
        <ele>144.6</ele>
        <time>2021-10-28 14:19:43</time>
      </trkpt>
      <trkpt lat="43.32087" lon="-3.07118">
        <ele>144.6</ele>
        <time>2021-10-28 14:19:44</time>
      </trkpt>
      <trkpt lat="43.32092" lon="-3.0711">
        <ele>144.6</ele>
        <time>2021-10-28 14:19:45</time>
      </trkpt>
      <trkpt lat="43.32096" lon="-3.07102">
        <ele>144.4</ele>
        <time>2021-10-28 14:19:46</time>
      </trkpt>
      <trkpt lat="43.321" lon="-3.07094">
        <ele>144.2</ele>
        <time>2021-10-28 14:19:47</time>
      </trkpt>
      <trkpt lat="43.32104" lon="-3.07085">
        <ele>143.8</ele>
        <time>2021-10-28 14:19:48</time>
      </trkpt>
      <trkpt lat="43.32108" lon="-3.07076">
        <ele>143.6</ele>
        <time>2021-10-28 14:19:49</time>
      </trkpt>
      <trkpt lat="43.32111" lon="-3.07066">
        <ele>143.2</ele>
        <time>2021-10-28 14:19:50</time>
      </trkpt>
      <trkpt lat="43.32113" lon="-3.07057">
        <ele>143</ele>
        <time>2021-10-28 14:19:51</time>
      </trkpt>
      <trkpt lat="43.32116" lon="-3.07047">
        <ele>142.6</ele>
        <time>2021-10-28 14:19:52</time>
      </trkpt>
      <trkpt lat="43.32118" lon="-3.07037">
        <ele>142.4</ele>
        <time>2021-10-28 14:19:53</time>
      </trkpt>
      <trkpt lat="43.3212" lon="-3.07027">
        <ele>142.4</ele>
        <time>2021-10-28 14:19:54</time>
      </trkpt>
      <trkpt lat="43.32122" lon="-3.07017">
        <ele>142.2</ele>
        <time>2021-10-28 14:19:55</time>
      </trkpt>
      <trkpt lat="43.32124" lon="-3.07006">
        <ele>142</ele>
        <time>2021-10-28 14:19:56</time>
      </trkpt>
      <trkpt lat="43.32125" lon="-3.06995">
        <ele>141.6</ele>
        <time>2021-10-28 14:19:57</time>
      </trkpt>
      <trkpt lat="43.32126" lon="-3.06984">
        <ele>141.2</ele>
        <time>2021-10-28 14:19:58</time>
      </trkpt>
      <trkpt lat="43.32125" lon="-3.06973">
        <ele>141</ele>
        <time>2021-10-28 14:19:59</time>
      </trkpt>
      <trkpt lat="43.32125" lon="-3.06962">
        <ele>140.8</ele>
        <time>2021-10-28 14:20:00</time>
      </trkpt>
      <trkpt lat="43.32123" lon="-3.06952">
        <ele>140.8</ele>
        <time>2021-10-28 14:20:01</time>
      </trkpt>
      <trkpt lat="43.32121" lon="-3.06941">
        <ele>140.8</ele>
        <time>2021-10-28 14:20:02</time>
      </trkpt>
      <trkpt lat="43.32119" lon="-3.0693">
        <ele>140.6</ele>
        <time>2021-10-28 14:20:03</time>
      </trkpt>
      <trkpt lat="43.32116" lon="-3.0692">
        <ele>140.6</ele>
        <time>2021-10-28 14:20:04</time>
      </trkpt>
      <trkpt lat="43.32113" lon="-3.0691">
        <ele>140.4</ele>
        <time>2021-10-28 14:20:05</time>
      </trkpt>
      <trkpt lat="43.3211" lon="-3.06899">
        <ele>140.4</ele>
        <time>2021-10-28 14:20:06</time>
      </trkpt>
      <trkpt lat="43.32108" lon="-3.06888">
        <ele>140.4</ele>
        <time>2021-10-28 14:20:07</time>
      </trkpt>
      <trkpt lat="43.32105" lon="-3.06877">
        <ele>140.2</ele>
        <time>2021-10-28 14:20:08</time>
      </trkpt>
      <trkpt lat="43.32103" lon="-3.06865">
        <ele>140</ele>
        <time>2021-10-28 14:20:09</time>
      </trkpt>
      <trkpt lat="43.321" lon="-3.06854">
        <ele>139.6</ele>
        <time>2021-10-28 14:20:10</time>
      </trkpt>
      <trkpt lat="43.32098" lon="-3.06842">
        <ele>139.4</ele>
        <time>2021-10-28 14:20:11</time>
      </trkpt>
      <trkpt lat="43.32096" lon="-3.0683">
        <ele>139.2</ele>
        <time>2021-10-28 14:20:12</time>
      </trkpt>
      <trkpt lat="43.32093" lon="-3.06819">
        <ele>138.8</ele>
        <time>2021-10-28 14:20:13</time>
      </trkpt>
      <trkpt lat="43.32091" lon="-3.06808">
        <ele>138.6</ele>
        <time>2021-10-28 14:20:14</time>
      </trkpt>
      <trkpt lat="43.32087" lon="-3.06785">
        <ele>138.2</ele>
        <time>2021-10-28 14:20:15</time>
      </trkpt>
      <trkpt lat="43.32087" lon="-3.06785">
        <ele>138</ele>
        <time>2021-10-28 14:20:16</time>
      </trkpt>
      <trkpt lat="43.32083" lon="-3.06774">
        <ele>137.8</ele>
        <time>2021-10-28 14:20:17</time>
      </trkpt>
      <trkpt lat="43.32081" lon="-3.06763">
        <ele>137.8</ele>
        <time>2021-10-28 14:20:18</time>
      </trkpt>
      <trkpt lat="43.32078" lon="-3.06753">
        <ele>137.6</ele>
        <time>2021-10-28 14:20:19</time>
      </trkpt>
      <trkpt lat="43.32074" lon="-3.06743">
        <ele>137.4</ele>
        <time>2021-10-28 14:20:20</time>
      </trkpt>
      <trkpt lat="43.3207" lon="-3.06733">
        <ele>137</ele>
        <time>2021-10-28 14:20:21</time>
      </trkpt>
      <trkpt lat="43.32064" lon="-3.06724">
        <ele>136.8</ele>
        <time>2021-10-28 14:20:22</time>
      </trkpt>
      <trkpt lat="43.32051" lon="-3.06709">
        <ele>136.6</ele>
        <time>2021-10-28 14:20:23</time>
      </trkpt>
      <trkpt lat="43.32051" lon="-3.06709">
        <ele>136.4</ele>
        <time>2021-10-28 14:20:24</time>
      </trkpt>
      <trkpt lat="43.32036" lon="-3.06698">
        <ele>136.4</ele>
        <time>2021-10-28 14:20:25</time>
      </trkpt>
      <trkpt lat="43.32036" lon="-3.06698">
        <ele>136.2</ele>
        <time>2021-10-28 14:20:26</time>
      </trkpt>
      <trkpt lat="43.32028" lon="-3.06694">
        <ele>136.2</ele>
        <time>2021-10-28 14:20:27</time>
      </trkpt>
      <trkpt lat="43.3202" lon="-3.0669">
        <ele>136.2</ele>
        <time>2021-10-28 14:20:28</time>
      </trkpt>
      <trkpt lat="43.32013" lon="-3.06687">
        <ele>136</ele>
        <time>2021-10-28 14:20:29</time>
      </trkpt>
      <trkpt lat="43.32005" lon="-3.06684">
        <ele>135.8</ele>
        <time>2021-10-28 14:20:30</time>
      </trkpt>
      <trkpt lat="43.31997" lon="-3.0668">
        <ele>135.6</ele>
        <time>2021-10-28 14:20:31</time>
      </trkpt>
      <trkpt lat="43.31989" lon="-3.06677">
        <ele>135.2</ele>
        <time>2021-10-28 14:20:32</time>
      </trkpt>
      <trkpt lat="43.31981" lon="-3.06673">
        <ele>135</ele>
        <time>2021-10-28 14:20:33</time>
      </trkpt>
      <trkpt lat="43.31973" lon="-3.06668">
        <ele>134.8</ele>
        <time>2021-10-28 14:20:34</time>
      </trkpt>
      <trkpt lat="43.31966" lon="-3.06662">
        <ele>134.6</ele>
        <time>2021-10-28 14:20:35</time>
      </trkpt>
      <trkpt lat="43.31952" lon="-3.0665">
        <ele>134.4</ele>
        <time>2021-10-28 14:20:36</time>
      </trkpt>
      <trkpt lat="43.31952" lon="-3.0665">
        <ele>134.2</ele>
        <time>2021-10-28 14:20:37</time>
      </trkpt>
      <trkpt lat="43.31945" lon="-3.06642">
        <ele>134</ele>
        <time>2021-10-28 14:20:38</time>
      </trkpt>
      <trkpt lat="43.31939" lon="-3.06634">
        <ele>133.6</ele>
        <time>2021-10-28 14:20:39</time>
      </trkpt>
      <trkpt lat="43.31933" lon="-3.06625">
        <ele>133.4</ele>
        <time>2021-10-28 14:20:40</time>
      </trkpt>
      <trkpt lat="43.31928" lon="-3.06615">
        <ele>133.2</ele>
        <time>2021-10-28 14:20:41</time>
      </trkpt>
      <trkpt lat="43.31924" lon="-3.06605">
        <ele>133.2</ele>
        <time>2021-10-28 14:20:42</time>
      </trkpt>
      <trkpt lat="43.3192" lon="-3.06594">
        <ele>133</ele>
        <time>2021-10-28 14:20:43</time>
      </trkpt>
      <trkpt lat="43.31916" lon="-3.06583">
        <ele>132.8</ele>
        <time>2021-10-28 14:20:44</time>
      </trkpt>
      <trkpt lat="43.31913" lon="-3.06572">
        <ele>132.6</ele>
        <time>2021-10-28 14:20:45</time>
      </trkpt>
      <trkpt lat="43.31911" lon="-3.06561">
        <ele>132.2</ele>
        <time>2021-10-28 14:20:46</time>
      </trkpt>
      <trkpt lat="43.31908" lon="-3.06549">
        <ele>131.8</ele>
        <time>2021-10-28 14:20:47</time>
      </trkpt>
      <trkpt lat="43.31905" lon="-3.06538">
        <ele>131.6</ele>
        <time>2021-10-28 14:20:48</time>
      </trkpt>
      <trkpt lat="43.31902" lon="-3.06526">
        <ele>131.2</ele>
        <time>2021-10-28 14:20:49</time>
      </trkpt>
      <trkpt lat="43.31899" lon="-3.06515">
        <ele>131.2</ele>
        <time>2021-10-28 14:20:50</time>
      </trkpt>
      <trkpt lat="43.31896" lon="-3.06504">
        <ele>131.2</ele>
        <time>2021-10-28 14:20:51</time>
      </trkpt>
      <trkpt lat="43.31892" lon="-3.06494">
        <ele>131</ele>
        <time>2021-10-28 14:20:52</time>
      </trkpt>
      <trkpt lat="43.31887" lon="-3.06483">
        <ele>130.8</ele>
        <time>2021-10-28 14:20:53</time>
      </trkpt>
      <trkpt lat="43.31882" lon="-3.06474">
        <ele>130.6</ele>
        <time>2021-10-28 14:20:54</time>
      </trkpt>
      <trkpt lat="43.31876" lon="-3.06466">
        <ele>130.2</ele>
        <time>2021-10-28 14:20:55</time>
      </trkpt>
      <trkpt lat="43.3187" lon="-3.06459">
        <ele>130</ele>
        <time>2021-10-28 14:20:56</time>
      </trkpt>
      <trkpt lat="43.31864" lon="-3.06452">
        <ele>129.8</ele>
        <time>2021-10-28 14:20:57</time>
      </trkpt>
      <trkpt lat="43.31857" lon="-3.06444">
        <ele>129.6</ele>
        <time>2021-10-28 14:20:58</time>
      </trkpt>
      <trkpt lat="43.3185" lon="-3.06436">
        <ele>129.4</ele>
        <time>2021-10-28 14:20:59</time>
      </trkpt>
      <trkpt lat="43.31843" lon="-3.06429">
        <ele>129.4</ele>
        <time>2021-10-28 14:21:00</time>
      </trkpt>
      <trkpt lat="43.3183" lon="-3.06415">
        <ele>129.4</ele>
        <time>2021-10-28 14:21:01</time>
      </trkpt>
      <trkpt lat="43.3183" lon="-3.06415">
        <ele>129.2</ele>
        <time>2021-10-28 14:21:02</time>
      </trkpt>
      <trkpt lat="43.31823" lon="-3.06408">
        <ele>129.4</ele>
        <time>2021-10-28 14:21:03</time>
      </trkpt>
      <trkpt lat="43.31817" lon="-3.06401">
        <ele>129.2</ele>
        <time>2021-10-28 14:21:04</time>
      </trkpt>
      <trkpt lat="43.3181" lon="-3.06394">
        <ele>129</ele>
        <time>2021-10-28 14:21:05</time>
      </trkpt>
      <trkpt lat="43.31804" lon="-3.06388">
        <ele>128.4</ele>
        <time>2021-10-28 14:21:06</time>
      </trkpt>
      <trkpt lat="43.31798" lon="-3.06381">
        <ele>127.6</ele>
        <time>2021-10-28 14:21:07</time>
      </trkpt>
      <trkpt lat="43.31791" lon="-3.06374">
        <ele>126.8</ele>
        <time>2021-10-28 14:21:08</time>
      </trkpt>
      <trkpt lat="43.31785" lon="-3.06367">
        <ele>126.6</ele>
        <time>2021-10-28 14:21:09</time>
      </trkpt>
      <trkpt lat="43.31778" lon="-3.0636">
        <ele>126.6</ele>
        <time>2021-10-28 14:21:10</time>
      </trkpt>
      <trkpt lat="43.31765" lon="-3.06347">
        <ele>126.6</ele>
        <time>2021-10-28 14:21:11</time>
      </trkpt>
      <trkpt lat="43.31765" lon="-3.06347">
        <ele>127</ele>
        <time>2021-10-28 14:21:12</time>
      </trkpt>
      <trkpt lat="43.31759" lon="-3.0634">
        <ele>127</ele>
        <time>2021-10-28 14:21:13</time>
      </trkpt>
      <trkpt lat="43.31753" lon="-3.06333">
        <ele>127</ele>
        <time>2021-10-28 14:21:14</time>
      </trkpt>
      <trkpt lat="43.31747" lon="-3.06326">
        <ele>126.8</ele>
        <time>2021-10-28 14:21:15</time>
      </trkpt>
      <trkpt lat="43.31742" lon="-3.06317">
        <ele>126.4</ele>
        <time>2021-10-28 14:21:16</time>
      </trkpt>
      <trkpt lat="43.31738" lon="-3.06308">
        <ele>126.4</ele>
        <time>2021-10-28 14:21:17</time>
      </trkpt>
      <trkpt lat="43.31734" lon="-3.06298">
        <ele>126.4</ele>
        <time>2021-10-28 14:21:18</time>
      </trkpt>
      <trkpt lat="43.31732" lon="-3.06288">
        <ele>126.4</ele>
        <time>2021-10-28 14:21:19</time>
      </trkpt>
      <trkpt lat="43.3173" lon="-3.06277">
        <ele>126.6</ele>
        <time>2021-10-28 14:21:20</time>
      </trkpt>
      <trkpt lat="43.31728" lon="-3.06267">
        <ele>126.8</ele>
        <time>2021-10-28 14:21:21</time>
      </trkpt>
      <trkpt lat="43.31726" lon="-3.06256">
        <ele>126.8</ele>
        <time>2021-10-28 14:21:22</time>
      </trkpt>
      <trkpt lat="43.31726" lon="-3.06246">
        <ele>126.6</ele>
        <time>2021-10-28 14:21:23</time>
      </trkpt>
      <trkpt lat="43.31725" lon="-3.06235">
        <ele>126.2</ele>
        <time>2021-10-28 14:21:24</time>
      </trkpt>
      <trkpt lat="43.31725" lon="-3.06223">
        <ele>125.8</ele>
        <time>2021-10-28 14:21:25</time>
      </trkpt>
      <trkpt lat="43.31725" lon="-3.06211">
        <ele>125.4</ele>
        <time>2021-10-28 14:21:26</time>
      </trkpt>
      <trkpt lat="43.31725" lon="-3.06199">
        <ele>125.4</ele>
        <time>2021-10-28 14:21:27</time>
      </trkpt>
      <trkpt lat="43.31726" lon="-3.06187">
        <ele>125.2</ele>
        <time>2021-10-28 14:21:28</time>
      </trkpt>
      <trkpt lat="43.31727" lon="-3.06174">
        <ele>125</ele>
        <time>2021-10-28 14:21:29</time>
      </trkpt>
      <trkpt lat="43.31728" lon="-3.06162">
        <ele>124.8</ele>
        <time>2021-10-28 14:21:30</time>
      </trkpt>
      <trkpt lat="43.3173" lon="-3.06149">
        <ele>124.4</ele>
        <time>2021-10-28 14:21:31</time>
      </trkpt>
      <trkpt lat="43.31732" lon="-3.06136">
        <ele>124.2</ele>
        <time>2021-10-28 14:21:32</time>
      </trkpt>
      <trkpt lat="43.31734" lon="-3.06124">
        <ele>123.8</ele>
        <time>2021-10-28 14:21:33</time>
      </trkpt>
      <trkpt lat="43.31736" lon="-3.06111">
        <ele>123.6</ele>
        <time>2021-10-28 14:21:34</time>
      </trkpt>
      <trkpt lat="43.3174" lon="-3.06088">
        <ele>123.2</ele>
        <time>2021-10-28 14:21:35</time>
      </trkpt>
      <trkpt lat="43.3174" lon="-3.06088">
        <ele>123</ele>
        <time>2021-10-28 14:21:36</time>
      </trkpt>
      <trkpt lat="43.31742" lon="-3.06076">
        <ele>122.6</ele>
        <time>2021-10-28 14:21:37</time>
      </trkpt>
      <trkpt lat="43.31744" lon="-3.06065">
        <ele>122.6</ele>
        <time>2021-10-28 14:21:38</time>
      </trkpt>
      <trkpt lat="43.31747" lon="-3.06054">
        <ele>122.4</ele>
        <time>2021-10-28 14:21:39</time>
      </trkpt>
      <trkpt lat="43.3175" lon="-3.06044">
        <ele>122.6</ele>
        <time>2021-10-28 14:21:40</time>
      </trkpt>
      <trkpt lat="43.31753" lon="-3.06035">
        <ele>122.6</ele>
        <time>2021-10-28 14:21:41</time>
      </trkpt>
      <trkpt lat="43.31756" lon="-3.06026">
        <ele>123</ele>
        <time>2021-10-28 14:21:42</time>
      </trkpt>
      <trkpt lat="43.31759" lon="-3.06018">
        <ele>123.4</ele>
        <time>2021-10-28 14:21:43</time>
      </trkpt>
      <trkpt lat="43.31763" lon="-3.06011">
        <ele>124</ele>
        <time>2021-10-28 14:21:44</time>
      </trkpt>
      <trkpt lat="43.31765" lon="-3.06003">
        <ele>124.4</ele>
        <time>2021-10-28 14:21:45</time>
      </trkpt>
      <trkpt lat="43.31766" lon="-3.05996">
        <ele>125.2</ele>
        <time>2021-10-28 14:21:46</time>
      </trkpt>
      <trkpt lat="43.31764" lon="-3.05988">
        <ele>126</ele>
        <time>2021-10-28 14:21:47</time>
      </trkpt>
      <trkpt lat="43.31756" lon="-3.05977">
        <ele>126.6</ele>
        <time>2021-10-28 14:21:48</time>
      </trkpt>
      <trkpt lat="43.31756" lon="-3.05977">
        <ele>126.6</ele>
        <time>2021-10-28 14:21:49</time>
      </trkpt>
      <trkpt lat="43.31751" lon="-3.05973">
        <ele>126.8</ele>
        <time>2021-10-28 14:21:50</time>
      </trkpt>
      <trkpt lat="43.31746" lon="-3.05969">
        <ele>127.2</ele>
        <time>2021-10-28 14:21:51</time>
      </trkpt>
      <trkpt lat="43.31742" lon="-3.05964">
        <ele>127.4</ele>
        <time>2021-10-28 14:21:52</time>
      </trkpt>
      <trkpt lat="43.31737" lon="-3.0596">
        <ele>127.4</ele>
        <time>2021-10-28 14:21:53</time>
      </trkpt>
      <trkpt lat="43.31732" lon="-3.05956">
        <ele>127.4</ele>
        <time>2021-10-28 14:21:54</time>
      </trkpt>
      <trkpt lat="43.31727" lon="-3.05951">
        <ele>127.6</ele>
        <time>2021-10-28 14:21:55</time>
      </trkpt>
      <trkpt lat="43.31722" lon="-3.05947">
        <ele>127.6</ele>
        <time>2021-10-28 14:21:56</time>
      </trkpt>
      <trkpt lat="43.31713" lon="-3.0594">
        <ele>127.8</ele>
        <time>2021-10-28 14:21:57</time>
      </trkpt>
      <trkpt lat="43.31713" lon="-3.0594">
        <ele>128</ele>
        <time>2021-10-28 14:21:58</time>
      </trkpt>
      <trkpt lat="43.31709" lon="-3.05936">
        <ele>128</ele>
        <time>2021-10-28 14:21:59</time>
      </trkpt>
      <trkpt lat="43.31705" lon="-3.05932">
        <ele>127.6</ele>
        <time>2021-10-28 14:22:00</time>
      </trkpt>
      <trkpt lat="43.31703" lon="-3.05926">
        <ele>127.2</ele>
        <time>2021-10-28 14:22:01</time>
      </trkpt>
      <trkpt lat="43.31702" lon="-3.05921">
        <ele>126.8</ele>
        <time>2021-10-28 14:22:02</time>
      </trkpt>
      <trkpt lat="43.31702" lon="-3.05914">
        <ele>126.6</ele>
        <time>2021-10-28 14:22:03</time>
      </trkpt>
      <trkpt lat="43.31703" lon="-3.05907">
        <ele>126.2</ele>
        <time>2021-10-28 14:22:04</time>
      </trkpt>
      <trkpt lat="43.31704" lon="-3.059">
        <ele>126</ele>
        <time>2021-10-28 14:22:05</time>
      </trkpt>
      <trkpt lat="43.31704" lon="-3.05891">
        <ele>125.8</ele>
        <time>2021-10-28 14:22:06</time>
      </trkpt>
      <trkpt lat="43.31705" lon="-3.05882">
        <ele>125.4</ele>
        <time>2021-10-28 14:22:07</time>
      </trkpt>
      <trkpt lat="43.31706" lon="-3.05872">
        <ele>125.2</ele>
        <time>2021-10-28 14:22:08</time>
      </trkpt>
      <trkpt lat="43.31707" lon="-3.05862">
        <ele>124.8</ele>
        <time>2021-10-28 14:22:09</time>
      </trkpt>
      <trkpt lat="43.31707" lon="-3.05851">
        <ele>124.4</ele>
        <time>2021-10-28 14:22:10</time>
      </trkpt>
      <trkpt lat="43.31708" lon="-3.0584">
        <ele>124</ele>
        <time>2021-10-28 14:22:11</time>
      </trkpt>
      <trkpt lat="43.31709" lon="-3.05829">
        <ele>123.4</ele>
        <time>2021-10-28 14:22:12</time>
      </trkpt>
      <trkpt lat="43.3171" lon="-3.05817">
        <ele>122.8</ele>
        <time>2021-10-28 14:22:13</time>
      </trkpt>
      <trkpt lat="43.31711" lon="-3.05804">
        <ele>122.2</ele>
        <time>2021-10-28 14:22:14</time>
      </trkpt>
      <trkpt lat="43.31709" lon="-3.05791">
        <ele>121.8</ele>
        <time>2021-10-28 14:22:15</time>
      </trkpt>
      <trkpt lat="43.31707" lon="-3.05779">
        <ele>121.2</ele>
        <time>2021-10-28 14:22:16</time>
      </trkpt>
      <trkpt lat="43.31702" lon="-3.05767">
        <ele>120.8</ele>
        <time>2021-10-28 14:22:17</time>
      </trkpt>
      <trkpt lat="43.31698" lon="-3.05754">
        <ele>120</ele>
        <time>2021-10-28 14:22:18</time>
      </trkpt>
      <trkpt lat="43.31693" lon="-3.05742">
        <ele>119.2</ele>
        <time>2021-10-28 14:22:19</time>
      </trkpt>
      <trkpt lat="43.31688" lon="-3.05729">
        <ele>118.6</ele>
        <time>2021-10-28 14:22:20</time>
      </trkpt>
      <trkpt lat="43.31684" lon="-3.05716">
        <ele>117.8</ele>
        <time>2021-10-28 14:22:21</time>
      </trkpt>
      <trkpt lat="43.31674" lon="-3.05689">
        <ele>117.2</ele>
        <time>2021-10-28 14:22:22</time>
      </trkpt>
      <trkpt lat="43.31674" lon="-3.05689">
        <ele>116.4</ele>
        <time>2021-10-28 14:22:23</time>
      </trkpt>
      <trkpt lat="43.31665" lon="-3.05663">
        <ele>115.8</ele>
        <time>2021-10-28 14:22:24</time>
      </trkpt>
      <trkpt lat="43.31665" lon="-3.05663">
        <ele>115.2</ele>
        <time>2021-10-28 14:22:25</time>
      </trkpt>
      <trkpt lat="43.31661" lon="-3.0565">
        <ele>114.8</ele>
        <time>2021-10-28 14:22:26</time>
      </trkpt>
      <trkpt lat="43.31657" lon="-3.05637">
        <ele>114.6</ele>
        <time>2021-10-28 14:22:27</time>
      </trkpt>
      <trkpt lat="43.31652" lon="-3.05625">
        <ele>114.4</ele>
        <time>2021-10-28 14:22:28</time>
      </trkpt>
      <trkpt lat="43.31643" lon="-3.05602">
        <ele>114.2</ele>
        <time>2021-10-28 14:22:29</time>
      </trkpt>
      <trkpt lat="43.31643" lon="-3.05602">
        <ele>113.8</ele>
        <time>2021-10-28 14:22:30</time>
      </trkpt>
      <trkpt lat="43.31638" lon="-3.05591">
        <ele>113.6</ele>
        <time>2021-10-28 14:22:31</time>
      </trkpt>
      <trkpt lat="43.31632" lon="-3.05581">
        <ele>113.4</ele>
        <time>2021-10-28 14:22:32</time>
      </trkpt>
      <trkpt lat="43.31625" lon="-3.05572">
        <ele>113.4</ele>
        <time>2021-10-28 14:22:33</time>
      </trkpt>
      <trkpt lat="43.31618" lon="-3.05564">
        <ele>113.2</ele>
        <time>2021-10-28 14:22:34</time>
      </trkpt>
      <trkpt lat="43.31611" lon="-3.05557">
        <ele>113</ele>
        <time>2021-10-28 14:22:35</time>
      </trkpt>
      <trkpt lat="43.31603" lon="-3.0555">
        <ele>112.8</ele>
        <time>2021-10-28 14:22:36</time>
      </trkpt>
      <trkpt lat="43.31595" lon="-3.05543">
        <ele>112.6</ele>
        <time>2021-10-28 14:22:37</time>
      </trkpt>
      <trkpt lat="43.31587" lon="-3.05538">
        <ele>112.4</ele>
        <time>2021-10-28 14:22:38</time>
      </trkpt>
      <trkpt lat="43.31578" lon="-3.05534">
        <ele>112.2</ele>
        <time>2021-10-28 14:22:39</time>
      </trkpt>
      <trkpt lat="43.3156" lon="-3.05527">
        <ele>112</ele>
        <time>2021-10-28 14:22:40</time>
      </trkpt>
      <trkpt lat="43.3156" lon="-3.05527">
        <ele>111.8</ele>
        <time>2021-10-28 14:22:41</time>
      </trkpt>
      <trkpt lat="43.31551" lon="-3.05524">
        <ele>111.6</ele>
        <time>2021-10-28 14:22:42</time>
      </trkpt>
      <trkpt lat="43.31542" lon="-3.05521">
        <ele>111.4</ele>
        <time>2021-10-28 14:22:43</time>
      </trkpt>
      <trkpt lat="43.31534" lon="-3.05518">
        <ele>111.2</ele>
        <time>2021-10-28 14:22:44</time>
      </trkpt>
      <trkpt lat="43.31526" lon="-3.05514">
        <ele>111</ele>
        <time>2021-10-28 14:22:45</time>
      </trkpt>
      <trkpt lat="43.31517" lon="-3.0551">
        <ele>110.8</ele>
        <time>2021-10-28 14:22:46</time>
      </trkpt>
      <trkpt lat="43.3151" lon="-3.05504">
        <ele>110.6</ele>
        <time>2021-10-28 14:22:47</time>
      </trkpt>
      <trkpt lat="43.31502" lon="-3.05498">
        <ele>110.4</ele>
        <time>2021-10-28 14:22:48</time>
      </trkpt>
      <trkpt lat="43.31496" lon="-3.0549">
        <ele>110.2</ele>
        <time>2021-10-28 14:22:49</time>
      </trkpt>
      <trkpt lat="43.3149" lon="-3.05481">
        <ele>110</ele>
        <time>2021-10-28 14:22:50</time>
      </trkpt>
      <trkpt lat="43.31484" lon="-3.05471">
        <ele>109.6</ele>
        <time>2021-10-28 14:22:51</time>
      </trkpt>
      <trkpt lat="43.3148" lon="-3.05461">
        <ele>109.4</ele>
        <time>2021-10-28 14:22:52</time>
      </trkpt>
      <trkpt lat="43.31476" lon="-3.0545">
        <ele>109.2</ele>
        <time>2021-10-28 14:22:53</time>
      </trkpt>
      <trkpt lat="43.31473" lon="-3.05438">
        <ele>109</ele>
        <time>2021-10-28 14:22:54</time>
      </trkpt>
      <trkpt lat="43.3147" lon="-3.05427">
        <ele>108.8</ele>
        <time>2021-10-28 14:22:55</time>
      </trkpt>
      <trkpt lat="43.31469" lon="-3.05415">
        <ele>108.6</ele>
        <time>2021-10-28 14:22:56</time>
      </trkpt>
      <trkpt lat="43.31468" lon="-3.05403">
        <ele>108.4</ele>
        <time>2021-10-28 14:22:57</time>
      </trkpt>
      <trkpt lat="43.31469" lon="-3.05379">
        <ele>108</ele>
        <time>2021-10-28 14:22:58</time>
      </trkpt>
      <trkpt lat="43.31469" lon="-3.05379">
        <ele>107.8</ele>
        <time>2021-10-28 14:22:59</time>
      </trkpt>
      <trkpt lat="43.31471" lon="-3.05367">
        <ele>107.4</ele>
        <time>2021-10-28 14:23:00</time>
      </trkpt>
      <trkpt lat="43.31474" lon="-3.05355">
        <ele>107.2</ele>
        <time>2021-10-28 14:23:01</time>
      </trkpt>
      <trkpt lat="43.31482" lon="-3.05331">
        <ele>107</ele>
        <time>2021-10-28 14:23:02</time>
      </trkpt>
      <trkpt lat="43.31482" lon="-3.05331">
        <ele>106.8</ele>
        <time>2021-10-28 14:23:03</time>
      </trkpt>
      <trkpt lat="43.31487" lon="-3.0532">
        <ele>106.6</ele>
        <time>2021-10-28 14:23:04</time>
      </trkpt>
      <trkpt lat="43.31491" lon="-3.05309">
        <ele>106.4</ele>
        <time>2021-10-28 14:23:05</time>
      </trkpt>
      <trkpt lat="43.315" lon="-3.05286">
        <ele>106.4</ele>
        <time>2021-10-28 14:23:06</time>
      </trkpt>
      <trkpt lat="43.315" lon="-3.05286">
        <ele>106.2</ele>
        <time>2021-10-28 14:23:07</time>
      </trkpt>
      <trkpt lat="43.31504" lon="-3.05275">
        <ele>106.2</ele>
        <time>2021-10-28 14:23:08</time>
      </trkpt>
      <trkpt lat="43.31507" lon="-3.05264">
        <ele>106.2</ele>
        <time>2021-10-28 14:23:09</time>
      </trkpt>
      <trkpt lat="43.3151" lon="-3.05252">
        <ele>106</ele>
        <time>2021-10-28 14:23:10</time>
      </trkpt>
      <trkpt lat="43.31513" lon="-3.0524">
        <ele>106</ele>
        <time>2021-10-28 14:23:11</time>
      </trkpt>
      <trkpt lat="43.31514" lon="-3.05229">
        <ele>105.8</ele>
        <time>2021-10-28 14:23:12</time>
      </trkpt>
      <trkpt lat="43.31515" lon="-3.05217">
        <ele>105.8</ele>
        <time>2021-10-28 14:23:13</time>
      </trkpt>
      <trkpt lat="43.31515" lon="-3.05205">
        <ele>105.8</ele>
        <time>2021-10-28 14:23:14</time>
      </trkpt>
      <trkpt lat="43.31515" lon="-3.05181">
        <ele>105.6</ele>
        <time>2021-10-28 14:23:15</time>
      </trkpt>
      <trkpt lat="43.31515" lon="-3.05181">
        <ele>105.4</ele>
        <time>2021-10-28 14:23:16</time>
      </trkpt>
      <trkpt lat="43.31513" lon="-3.05169">
        <ele>105.2</ele>
        <time>2021-10-28 14:23:17</time>
      </trkpt>
      <trkpt lat="43.31511" lon="-3.05158">
        <ele>105</ele>
        <time>2021-10-28 14:23:18</time>
      </trkpt>
      <trkpt lat="43.31505" lon="-3.05136">
        <ele>105</ele>
        <time>2021-10-28 14:23:19</time>
      </trkpt>
      <trkpt lat="43.31505" lon="-3.05136">
        <ele>105</ele>
        <time>2021-10-28 14:23:20</time>
      </trkpt>
      <trkpt lat="43.31502" lon="-3.05125">
        <ele>104.8</ele>
        <time>2021-10-28 14:23:21</time>
      </trkpt>
      <trkpt lat="43.31498" lon="-3.05115">
        <ele>104.4</ele>
        <time>2021-10-28 14:23:22</time>
      </trkpt>
      <trkpt lat="43.31493" lon="-3.05105">
        <ele>104.2</ele>
        <time>2021-10-28 14:23:23</time>
      </trkpt>
      <trkpt lat="43.31482" lon="-3.05087">
        <ele>104.2</ele>
        <time>2021-10-28 14:23:24</time>
      </trkpt>
      <trkpt lat="43.31482" lon="-3.05087">
        <ele>104</ele>
        <time>2021-10-28 14:23:25</time>
      </trkpt>
      <trkpt lat="43.31476" lon="-3.05079">
        <ele>103.8</ele>
        <time>2021-10-28 14:23:26</time>
      </trkpt>
      <trkpt lat="43.3147" lon="-3.05071">
        <ele>103.6</ele>
        <time>2021-10-28 14:23:27</time>
      </trkpt>
      <trkpt lat="43.31464" lon="-3.05064">
        <ele>103.4</ele>
        <time>2021-10-28 14:23:28</time>
      </trkpt>
      <trkpt lat="43.31459" lon="-3.05057">
        <ele>103.2</ele>
        <time>2021-10-28 14:23:29</time>
      </trkpt>
      <trkpt lat="43.31453" lon="-3.05048">
        <ele>102.8</ele>
        <time>2021-10-28 14:23:30</time>
      </trkpt>
      <trkpt lat="43.31447" lon="-3.0504">
        <ele>102.6</ele>
        <time>2021-10-28 14:23:31</time>
      </trkpt>
      <trkpt lat="43.31442" lon="-3.05032">
        <ele>102.4</ele>
        <time>2021-10-28 14:23:32</time>
      </trkpt>
      <trkpt lat="43.31437" lon="-3.05023">
        <ele>102.2</ele>
        <time>2021-10-28 14:23:33</time>
      </trkpt>
      <trkpt lat="43.31433" lon="-3.05014">
        <ele>102</ele>
        <time>2021-10-28 14:23:34</time>
      </trkpt>
      <trkpt lat="43.31429" lon="-3.05005">
        <ele>101.8</ele>
        <time>2021-10-28 14:23:35</time>
      </trkpt>
      <trkpt lat="43.31425" lon="-3.04995">
        <ele>101.8</ele>
        <time>2021-10-28 14:23:36</time>
      </trkpt>
      <trkpt lat="43.31422" lon="-3.04985">
        <ele>101.8</ele>
        <time>2021-10-28 14:23:37</time>
      </trkpt>
      <trkpt lat="43.31419" lon="-3.04975">
        <ele>101.6</ele>
        <time>2021-10-28 14:23:38</time>
      </trkpt>
      <trkpt lat="43.31416" lon="-3.04965">
        <ele>101.6</ele>
        <time>2021-10-28 14:23:39</time>
      </trkpt>
      <trkpt lat="43.31414" lon="-3.04954">
        <ele>101.4</ele>
        <time>2021-10-28 14:23:40</time>
      </trkpt>
      <trkpt lat="43.31413" lon="-3.04943">
        <ele>101.2</ele>
        <time>2021-10-28 14:23:41</time>
      </trkpt>
      <trkpt lat="43.31412" lon="-3.04931">
        <ele>101</ele>
        <time>2021-10-28 14:23:42</time>
      </trkpt>
      <trkpt lat="43.31412" lon="-3.0492">
        <ele>100.6</ele>
        <time>2021-10-28 14:23:43</time>
      </trkpt>
      <trkpt lat="43.31412" lon="-3.04908">
        <ele>100.2</ele>
        <time>2021-10-28 14:23:44</time>
      </trkpt>
      <trkpt lat="43.31412" lon="-3.04897">
        <ele>100</ele>
        <time>2021-10-28 14:23:45</time>
      </trkpt>
      <trkpt lat="43.31413" lon="-3.04885">
        <ele>99.8</ele>
        <time>2021-10-28 14:23:46</time>
      </trkpt>
      <trkpt lat="43.31414" lon="-3.04874">
        <ele>99.6</ele>
        <time>2021-10-28 14:23:47</time>
      </trkpt>
      <trkpt lat="43.31416" lon="-3.04863">
        <ele>99.4</ele>
        <time>2021-10-28 14:23:48</time>
      </trkpt>
      <trkpt lat="43.31418" lon="-3.04851">
        <ele>99</ele>
        <time>2021-10-28 14:23:49</time>
      </trkpt>
      <trkpt lat="43.3142" lon="-3.0484">
        <ele>99</ele>
        <time>2021-10-28 14:23:50</time>
      </trkpt>
      <trkpt lat="43.31423" lon="-3.04817">
        <ele>98.8</ele>
        <time>2021-10-28 14:23:51</time>
      </trkpt>
      <trkpt lat="43.31423" lon="-3.04817">
        <ele>98.8</ele>
        <time>2021-10-28 14:23:52</time>
      </trkpt>
      <trkpt lat="43.31424" lon="-3.04805">
        <ele>98.6</ele>
        <time>2021-10-28 14:23:53</time>
      </trkpt>
      <trkpt lat="43.31425" lon="-3.04794">
        <ele>98.6</ele>
        <time>2021-10-28 14:23:54</time>
      </trkpt>
      <trkpt lat="43.31425" lon="-3.04782">
        <ele>98.6</ele>
        <time>2021-10-28 14:23:55</time>
      </trkpt>
      <trkpt lat="43.31425" lon="-3.04771">
        <ele>98.4</ele>
        <time>2021-10-28 14:23:56</time>
      </trkpt>
      <trkpt lat="43.31424" lon="-3.04759">
        <ele>98.2</ele>
        <time>2021-10-28 14:23:57</time>
      </trkpt>
      <trkpt lat="43.31423" lon="-3.04747">
        <ele>98</ele>
        <time>2021-10-28 14:23:58</time>
      </trkpt>
      <trkpt lat="43.31421" lon="-3.04735">
        <ele>97.8</ele>
        <time>2021-10-28 14:23:59</time>
      </trkpt>
      <trkpt lat="43.31418" lon="-3.04724">
        <ele>97.6</ele>
        <time>2021-10-28 14:24:00</time>
      </trkpt>
      <trkpt lat="43.31415" lon="-3.04712">
        <ele>97.6</ele>
        <time>2021-10-28 14:24:01</time>
      </trkpt>
      <trkpt lat="43.31412" lon="-3.04701">
        <ele>97.4</ele>
        <time>2021-10-28 14:24:02</time>
      </trkpt>
      <trkpt lat="43.31408" lon="-3.0469">
        <ele>97.4</ele>
        <time>2021-10-28 14:24:03</time>
      </trkpt>
      <trkpt lat="43.31405" lon="-3.0468">
        <ele>97.2</ele>
        <time>2021-10-28 14:24:04</time>
      </trkpt>
      <trkpt lat="43.314" lon="-3.04669">
        <ele>97</ele>
        <time>2021-10-28 14:24:05</time>
      </trkpt>
      <trkpt lat="43.31396" lon="-3.04659">
        <ele>96.8</ele>
        <time>2021-10-28 14:24:06</time>
      </trkpt>
      <trkpt lat="43.31391" lon="-3.0465">
        <ele>96.8</ele>
        <time>2021-10-28 14:24:07</time>
      </trkpt>
      <trkpt lat="43.31387" lon="-3.0464">
        <ele>96.4</ele>
        <time>2021-10-28 14:24:08</time>
      </trkpt>
      <trkpt lat="43.31382" lon="-3.04631">
        <ele>96.2</ele>
        <time>2021-10-28 14:24:09</time>
      </trkpt>
      <trkpt lat="43.31378" lon="-3.04621">
        <ele>96</ele>
        <time>2021-10-28 14:24:10</time>
      </trkpt>
      <trkpt lat="43.31373" lon="-3.04611">
        <ele>95.8</ele>
        <time>2021-10-28 14:24:11</time>
      </trkpt>
      <trkpt lat="43.3137" lon="-3.04601">
        <ele>95.6</ele>
        <time>2021-10-28 14:24:12</time>
      </trkpt>
      <trkpt lat="43.31366" lon="-3.0459">
        <ele>95.4</ele>
        <time>2021-10-28 14:24:13</time>
      </trkpt>
      <trkpt lat="43.31363" lon="-3.04579">
        <ele>95.4</ele>
        <time>2021-10-28 14:24:14</time>
      </trkpt>
      <trkpt lat="43.31359" lon="-3.04557">
        <ele>95.2</ele>
        <time>2021-10-28 14:24:15</time>
      </trkpt>
      <trkpt lat="43.31359" lon="-3.04557">
        <ele>95</ele>
        <time>2021-10-28 14:24:16</time>
      </trkpt>
      <trkpt lat="43.31358" lon="-3.04545">
        <ele>94.6</ele>
        <time>2021-10-28 14:24:17</time>
      </trkpt>
      <trkpt lat="43.31357" lon="-3.04534">
        <ele>94.4</ele>
        <time>2021-10-28 14:24:18</time>
      </trkpt>
      <trkpt lat="43.31357" lon="-3.04523">
        <ele>94.2</ele>
        <time>2021-10-28 14:24:19</time>
      </trkpt>
      <trkpt lat="43.31358" lon="-3.04512">
        <ele>94.2</ele>
        <time>2021-10-28 14:24:20</time>
      </trkpt>
      <trkpt lat="43.31359" lon="-3.04501">
        <ele>94</ele>
        <time>2021-10-28 14:24:21</time>
      </trkpt>
      <trkpt lat="43.3136" lon="-3.0449">
        <ele>94</ele>
        <time>2021-10-28 14:24:22</time>
      </trkpt>
      <trkpt lat="43.31361" lon="-3.04479">
        <ele>93.8</ele>
        <time>2021-10-28 14:24:23</time>
      </trkpt>
      <trkpt lat="43.31361" lon="-3.04469">
        <ele>93.8</ele>
        <time>2021-10-28 14:24:24</time>
      </trkpt>
      <trkpt lat="43.31362" lon="-3.04459">
        <ele>93.8</ele>
        <time>2021-10-28 14:24:25</time>
      </trkpt>
      <trkpt lat="43.31363" lon="-3.04449">
        <ele>93.8</ele>
        <time>2021-10-28 14:24:26</time>
      </trkpt>
      <trkpt lat="43.31365" lon="-3.0443">
        <ele>93.8</ele>
        <time>2021-10-28 14:24:27</time>
      </trkpt>
      <trkpt lat="43.31365" lon="-3.0443">
        <ele>93.8</ele>
        <time>2021-10-28 14:24:28</time>
      </trkpt>
      <trkpt lat="43.31365" lon="-3.0442">
        <ele>93.8</ele>
        <time>2021-10-28 14:24:29</time>
      </trkpt>
      <trkpt lat="43.31366" lon="-3.0441">
        <ele>93.8</ele>
        <time>2021-10-28 14:24:30</time>
      </trkpt>
      <trkpt lat="43.31366" lon="-3.04401">
        <ele>93.6</ele>
        <time>2021-10-28 14:24:31</time>
      </trkpt>
      <trkpt lat="43.31366" lon="-3.04391">
        <ele>93.6</ele>
        <time>2021-10-28 14:24:32</time>
      </trkpt>
      <trkpt lat="43.31365" lon="-3.04381">
        <ele>93.4</ele>
        <time>2021-10-28 14:24:33</time>
      </trkpt>
      <trkpt lat="43.31365" lon="-3.04372">
        <ele>93.4</ele>
        <time>2021-10-28 14:24:34</time>
      </trkpt>
      <trkpt lat="43.31364" lon="-3.04362">
        <ele>93.4</ele>
        <time>2021-10-28 14:24:35</time>
      </trkpt>
      <trkpt lat="43.31363" lon="-3.04353">
        <ele>93.2</ele>
        <time>2021-10-28 14:24:36</time>
      </trkpt>
      <trkpt lat="43.31362" lon="-3.04344">
        <ele>93</ele>
        <time>2021-10-28 14:24:37</time>
      </trkpt>
      <trkpt lat="43.31361" lon="-3.04335">
        <ele>92.8</ele>
        <time>2021-10-28 14:24:38</time>
      </trkpt>
      <trkpt lat="43.3136" lon="-3.04325">
        <ele>92.6</ele>
        <time>2021-10-28 14:24:39</time>
      </trkpt>
      <trkpt lat="43.31358" lon="-3.04316">
        <ele>92.4</ele>
        <time>2021-10-28 14:24:40</time>
      </trkpt>
      <trkpt lat="43.31356" lon="-3.04307">
        <ele>92.4</ele>
        <time>2021-10-28 14:24:41</time>
      </trkpt>
      <trkpt lat="43.31353" lon="-3.04298">
        <ele>92.4</ele>
        <time>2021-10-28 14:24:42</time>
      </trkpt>
      <trkpt lat="43.31351" lon="-3.04289">
        <ele>92.4</ele>
        <time>2021-10-28 14:24:43</time>
      </trkpt>
      <trkpt lat="43.31348" lon="-3.0428">
        <ele>92.4</ele>
        <time>2021-10-28 14:24:44</time>
      </trkpt>
      <trkpt lat="43.31345" lon="-3.04271">
        <ele>92.6</ele>
        <time>2021-10-28 14:24:45</time>
      </trkpt>
      <trkpt lat="43.31342" lon="-3.04261">
        <ele>92.8</ele>
        <time>2021-10-28 14:24:46</time>
      </trkpt>
      <trkpt lat="43.31336" lon="-3.04242">
        <ele>92.8</ele>
        <time>2021-10-28 14:24:47</time>
      </trkpt>
      <trkpt lat="43.31336" lon="-3.04242">
        <ele>92.8</ele>
        <time>2021-10-28 14:24:48</time>
      </trkpt>
      <trkpt lat="43.31333" lon="-3.04232">
        <ele>92.8</ele>
        <time>2021-10-28 14:24:49</time>
      </trkpt>
      <trkpt lat="43.31329" lon="-3.04222">
        <ele>92.6</ele>
        <time>2021-10-28 14:24:50</time>
      </trkpt>
      <trkpt lat="43.31326" lon="-3.04211">
        <ele>92.6</ele>
        <time>2021-10-28 14:24:51</time>
      </trkpt>
      <trkpt lat="43.31319" lon="-3.04189">
        <ele>92.6</ele>
        <time>2021-10-28 14:24:52</time>
      </trkpt>
      <trkpt lat="43.31319" lon="-3.04189">
        <ele>92.4</ele>
        <time>2021-10-28 14:24:53</time>
      </trkpt>
      <trkpt lat="43.31315" lon="-3.04177">
        <ele>92.2</ele>
        <time>2021-10-28 14:24:54</time>
      </trkpt>
      <trkpt lat="43.31311" lon="-3.04166">
        <ele>91.6</ele>
        <time>2021-10-28 14:24:55</time>
      </trkpt>
      <trkpt lat="43.31308" lon="-3.04155">
        <ele>90.8</ele>
        <time>2021-10-28 14:24:56</time>
      </trkpt>
      <trkpt lat="43.31304" lon="-3.04143">
        <ele>89.8</ele>
        <time>2021-10-28 14:24:57</time>
      </trkpt>
      <trkpt lat="43.31301" lon="-3.04132">
        <ele>88.8</ele>
        <time>2021-10-28 14:24:58</time>
      </trkpt>
      <trkpt lat="43.31297" lon="-3.0412">
        <ele>88.4</ele>
        <time>2021-10-28 14:24:59</time>
      </trkpt>
      <trkpt lat="43.31293" lon="-3.04107">
        <ele>88</ele>
        <time>2021-10-28 14:25:00</time>
      </trkpt>
      <trkpt lat="43.31289" lon="-3.04095">
        <ele>87.6</ele>
        <time>2021-10-28 14:25:01</time>
      </trkpt>
      <trkpt lat="43.31285" lon="-3.04083">
        <ele>87.2</ele>
        <time>2021-10-28 14:25:02</time>
      </trkpt>
      <trkpt lat="43.31281" lon="-3.0407">
        <ele>86.6</ele>
        <time>2021-10-28 14:25:03</time>
      </trkpt>
      <trkpt lat="43.31278" lon="-3.04058">
        <ele>86.2</ele>
        <time>2021-10-28 14:25:04</time>
      </trkpt>
      <trkpt lat="43.31274" lon="-3.04045">
        <ele>85.6</ele>
        <time>2021-10-28 14:25:05</time>
      </trkpt>
      <trkpt lat="43.3127" lon="-3.04032">
        <ele>85.2</ele>
        <time>2021-10-28 14:25:06</time>
      </trkpt>
      <trkpt lat="43.31265" lon="-3.0402">
        <ele>84.8</ele>
        <time>2021-10-28 14:25:07</time>
      </trkpt>
      <trkpt lat="43.31261" lon="-3.04007">
        <ele>84.6</ele>
        <time>2021-10-28 14:25:08</time>
      </trkpt>
      <trkpt lat="43.31254" lon="-3.03983">
        <ele>84.4</ele>
        <time>2021-10-28 14:25:09</time>
      </trkpt>
      <trkpt lat="43.31254" lon="-3.03983">
        <ele>84.2</ele>
        <time>2021-10-28 14:25:10</time>
      </trkpt>
      <trkpt lat="43.31251" lon="-3.03972">
        <ele>84</ele>
        <time>2021-10-28 14:25:11</time>
      </trkpt>
      <trkpt lat="43.31249" lon="-3.0396">
        <ele>83.8</ele>
        <time>2021-10-28 14:25:12</time>
      </trkpt>
      <trkpt lat="43.31246" lon="-3.03948">
        <ele>83.8</ele>
        <time>2021-10-28 14:25:13</time>
      </trkpt>
      <trkpt lat="43.31244" lon="-3.03937">
        <ele>83.8</ele>
        <time>2021-10-28 14:25:14</time>
      </trkpt>
      <trkpt lat="43.31242" lon="-3.03926">
        <ele>83.6</ele>
        <time>2021-10-28 14:25:15</time>
      </trkpt>
      <trkpt lat="43.3124" lon="-3.03914">
        <ele>83.4</ele>
        <time>2021-10-28 14:25:16</time>
      </trkpt>
      <trkpt lat="43.31236" lon="-3.03891">
        <ele>83.2</ele>
        <time>2021-10-28 14:25:17</time>
      </trkpt>
      <trkpt lat="43.31236" lon="-3.03891">
        <ele>83.2</ele>
        <time>2021-10-28 14:25:18</time>
      </trkpt>
      <trkpt lat="43.31234" lon="-3.0388">
        <ele>83.2</ele>
        <time>2021-10-28 14:25:19</time>
      </trkpt>
      <trkpt lat="43.31232" lon="-3.03869">
        <ele>83</ele>
        <time>2021-10-28 14:25:20</time>
      </trkpt>
      <trkpt lat="43.3123" lon="-3.03857">
        <ele>82.8</ele>
        <time>2021-10-28 14:25:21</time>
      </trkpt>
      <trkpt lat="43.31227" lon="-3.03846">
        <ele>82.4</ele>
        <time>2021-10-28 14:25:22</time>
      </trkpt>
      <trkpt lat="43.31225" lon="-3.03834">
        <ele>82</ele>
        <time>2021-10-28 14:25:23</time>
      </trkpt>
      <trkpt lat="43.31223" lon="-3.03823">
        <ele>81.8</ele>
        <time>2021-10-28 14:25:24</time>
      </trkpt>
      <trkpt lat="43.3122" lon="-3.03811">
        <ele>81.4</ele>
        <time>2021-10-28 14:25:25</time>
      </trkpt>
      <trkpt lat="43.31218" lon="-3.03799">
        <ele>81</ele>
        <time>2021-10-28 14:25:26</time>
      </trkpt>
      <trkpt lat="43.31215" lon="-3.03788">
        <ele>80.4</ele>
        <time>2021-10-28 14:25:27</time>
      </trkpt>
      <trkpt lat="43.31211" lon="-3.03764">
        <ele>80.2</ele>
        <time>2021-10-28 14:25:28</time>
      </trkpt>
      <trkpt lat="43.31211" lon="-3.03764">
        <ele>80</ele>
        <time>2021-10-28 14:25:29</time>
      </trkpt>
      <trkpt lat="43.31208" lon="-3.03753">
        <ele>79.8</ele>
        <time>2021-10-28 14:25:30</time>
      </trkpt>
      <trkpt lat="43.31206" lon="-3.03742">
        <ele>79.8</ele>
        <time>2021-10-28 14:25:31</time>
      </trkpt>
      <trkpt lat="43.31204" lon="-3.03732">
        <ele>79.8</ele>
        <time>2021-10-28 14:25:32</time>
      </trkpt>
      <trkpt lat="43.31204" lon="-3.03732">
        <ele>80</ele>
        <time>2021-10-28 14:25:33</time>
      </trkpt>
      <trkpt lat="43.312" lon="-3.03712">
        <ele>80.4</ele>
        <time>2021-10-28 14:25:34</time>
      </trkpt>
      <trkpt lat="43.31198" lon="-3.03703">
        <ele>80.8</ele>
        <time>2021-10-28 14:25:35</time>
      </trkpt>
      <trkpt lat="43.31198" lon="-3.03703">
        <ele>81</ele>
        <time>2021-10-28 14:25:36</time>
      </trkpt>
      <trkpt lat="43.31194" lon="-3.03686">
        <ele>81.2</ele>
        <time>2021-10-28 14:25:37</time>
      </trkpt>
      <trkpt lat="43.31193" lon="-3.03677">
        <ele>81.6</ele>
        <time>2021-10-28 14:25:38</time>
      </trkpt>
      <trkpt lat="43.31191" lon="-3.03669">
        <ele>82</ele>
        <time>2021-10-28 14:25:39</time>
      </trkpt>
      <trkpt lat="43.3119" lon="-3.0366">
        <ele>82.2</ele>
        <time>2021-10-28 14:25:40</time>
      </trkpt>
      <trkpt lat="43.3119" lon="-3.0366">
        <ele>82.4</ele>
        <time>2021-10-28 14:25:41</time>
      </trkpt>
      <trkpt lat="43.31187" lon="-3.03644">
        <ele>82.4</ele>
        <time>2021-10-28 14:25:42</time>
      </trkpt>
      <trkpt lat="43.31185" lon="-3.03635">
        <ele>82.4</ele>
        <time>2021-10-28 14:25:43</time>
      </trkpt>
      <trkpt lat="43.31184" lon="-3.03626">
        <ele>82.4</ele>
        <time>2021-10-28 14:25:44</time>
      </trkpt>
      <trkpt lat="43.31182" lon="-3.03617">
        <ele>82.6</ele>
        <time>2021-10-28 14:25:45</time>
      </trkpt>
      <trkpt lat="43.3118" lon="-3.03609">
        <ele>82.8</ele>
        <time>2021-10-28 14:25:46</time>
      </trkpt>
      <trkpt lat="43.31177" lon="-3.03601">
        <ele>83.2</ele>
        <time>2021-10-28 14:25:47</time>
      </trkpt>
      <trkpt lat="43.31173" lon="-3.03593">
        <ele>83.8</ele>
        <time>2021-10-28 14:25:48</time>
      </trkpt>
      <trkpt lat="43.3117" lon="-3.03586">
        <ele>84.2</ele>
        <time>2021-10-28 14:25:49</time>
      </trkpt>
      <trkpt lat="43.31167" lon="-3.03579">
        <ele>84.6</ele>
        <time>2021-10-28 14:25:50</time>
      </trkpt>
      <trkpt lat="43.31163" lon="-3.03573">
        <ele>84.8</ele>
        <time>2021-10-28 14:25:51</time>
      </trkpt>
      <trkpt lat="43.3116" lon="-3.03567">
        <ele>85</ele>
        <time>2021-10-28 14:25:52</time>
      </trkpt>
      <trkpt lat="43.31157" lon="-3.03561">
        <ele>85.2</ele>
        <time>2021-10-28 14:25:53</time>
      </trkpt>
      <trkpt lat="43.31157" lon="-3.03561">
        <ele>85.2</ele>
        <time>2021-10-28 14:25:54</time>
      </trkpt>
      <trkpt lat="43.31153" lon="-3.03549">
        <ele>85.2</ele>
        <time>2021-10-28 14:25:55</time>
      </trkpt>
      <trkpt lat="43.31151" lon="-3.03542">
        <ele>85.4</ele>
        <time>2021-10-28 14:25:56</time>
      </trkpt>
      <trkpt lat="43.3115" lon="-3.03536">
        <ele>85.6</ele>
        <time>2021-10-28 14:25:57</time>
      </trkpt>
      <trkpt lat="43.31149" lon="-3.0353">
        <ele>85.8</ele>
        <time>2021-10-28 14:25:58</time>
      </trkpt>
      <trkpt lat="43.31149" lon="-3.03524">
        <ele>85.8</ele>
        <time>2021-10-28 14:25:59</time>
      </trkpt>
      <trkpt lat="43.31149" lon="-3.03518">
        <ele>85.8</ele>
        <time>2021-10-28 14:26:00</time>
      </trkpt>
      <trkpt lat="43.31149" lon="-3.03512">
        <ele>85.8</ele>
        <time>2021-10-28 14:26:01</time>
      </trkpt>
      <trkpt lat="43.3115" lon="-3.03506">
        <ele>85.8</ele>
        <time>2021-10-28 14:26:02</time>
      </trkpt>
      <trkpt lat="43.3115" lon="-3.03501">
        <ele>85.8</ele>
        <time>2021-10-28 14:26:03</time>
      </trkpt>
      <trkpt lat="43.31151" lon="-3.03495">
        <ele>86</ele>
        <time>2021-10-28 14:26:04</time>
      </trkpt>
      <trkpt lat="43.31151" lon="-3.0349">
        <ele>86.2</ele>
        <time>2021-10-28 14:26:05</time>
      </trkpt>
      <trkpt lat="43.31152" lon="-3.03484">
        <ele>86.4</ele>
        <time>2021-10-28 14:26:06</time>
      </trkpt>
      <trkpt lat="43.31153" lon="-3.03479">
        <ele>86.4</ele>
        <time>2021-10-28 14:26:07</time>
      </trkpt>
      <trkpt lat="43.31153" lon="-3.03473">
        <ele>86.4</ele>
        <time>2021-10-28 14:26:08</time>
      </trkpt>
      <trkpt lat="43.31154" lon="-3.03468">
        <ele>86.4</ele>
        <time>2021-10-28 14:26:09</time>
      </trkpt>
      <trkpt lat="43.31155" lon="-3.03462">
        <ele>86.4</ele>
        <time>2021-10-28 14:26:10</time>
      </trkpt>
      <trkpt lat="43.31156" lon="-3.03456">
        <ele>86.6</ele>
        <time>2021-10-28 14:26:11</time>
      </trkpt>
      <trkpt lat="43.31157" lon="-3.03444">
        <ele>86.4</ele>
        <time>2021-10-28 14:26:12</time>
      </trkpt>
      <trkpt lat="43.31157" lon="-3.03444">
        <ele>86.4</ele>
        <time>2021-10-28 14:26:13</time>
      </trkpt>
      <trkpt lat="43.31157" lon="-3.03438">
        <ele>86.4</ele>
        <time>2021-10-28 14:26:14</time>
      </trkpt>
      <trkpt lat="43.31157" lon="-3.03431">
        <ele>86.4</ele>
        <time>2021-10-28 14:26:15</time>
      </trkpt>
      <trkpt lat="43.31156" lon="-3.03425">
        <ele>86.4</ele>
        <time>2021-10-28 14:26:16</time>
      </trkpt>
      <trkpt lat="43.31156" lon="-3.03419">
        <ele>86.4</ele>
        <time>2021-10-28 14:26:17</time>
      </trkpt>
      <trkpt lat="43.31154" lon="-3.03408">
        <ele>86.4</ele>
        <time>2021-10-28 14:26:18</time>
      </trkpt>
      <trkpt lat="43.31154" lon="-3.03408">
        <ele>86.4</ele>
        <time>2021-10-28 14:26:19</time>
      </trkpt>
      <trkpt lat="43.31152" lon="-3.03402">
        <ele>86.4</ele>
        <time>2021-10-28 14:26:20</time>
      </trkpt>
      <trkpt lat="43.3115" lon="-3.03396">
        <ele>86.4</ele>
        <time>2021-10-28 14:26:21</time>
      </trkpt>
      <trkpt lat="43.31148" lon="-3.0339">
        <ele>86.4</ele>
        <time>2021-10-28 14:26:22</time>
      </trkpt>
      <trkpt lat="43.31145" lon="-3.03384">
        <ele>86.2</ele>
        <time>2021-10-28 14:26:23</time>
      </trkpt>
      <trkpt lat="43.31142" lon="-3.03378">
        <ele>86</ele>
        <time>2021-10-28 14:26:24</time>
      </trkpt>
      <trkpt lat="43.31138" lon="-3.03372">
        <ele>85.6</ele>
        <time>2021-10-28 14:26:25</time>
      </trkpt>
      <trkpt lat="43.31129" lon="-3.03362">
        <ele>85.4</ele>
        <time>2021-10-28 14:26:26</time>
      </trkpt>
      <trkpt lat="43.31129" lon="-3.03362">
        <ele>85.2</ele>
        <time>2021-10-28 14:26:27</time>
      </trkpt>
      <trkpt lat="43.31124" lon="-3.03357">
        <ele>84.8</ele>
        <time>2021-10-28 14:26:28</time>
      </trkpt>
      <trkpt lat="43.31119" lon="-3.03352">
        <ele>84.4</ele>
        <time>2021-10-28 14:26:29</time>
      </trkpt>
      <trkpt lat="43.31113" lon="-3.03348">
        <ele>84.2</ele>
        <time>2021-10-28 14:26:30</time>
      </trkpt>
      <trkpt lat="43.31108" lon="-3.03343">
        <ele>83.8</ele>
        <time>2021-10-28 14:26:31</time>
      </trkpt>
      <trkpt lat="43.31102" lon="-3.03338">
        <ele>83.6</ele>
        <time>2021-10-28 14:26:32</time>
      </trkpt>
      <trkpt lat="43.31096" lon="-3.03333">
        <ele>83.6</ele>
        <time>2021-10-28 14:26:33</time>
      </trkpt>
      <trkpt lat="43.31091" lon="-3.03328">
        <ele>83.4</ele>
        <time>2021-10-28 14:26:34</time>
      </trkpt>
      <trkpt lat="43.31086" lon="-3.03322">
        <ele>83.2</ele>
        <time>2021-10-28 14:26:35</time>
      </trkpt>
      <trkpt lat="43.31081" lon="-3.03315">
        <ele>82.8</ele>
        <time>2021-10-28 14:26:36</time>
      </trkpt>
      <trkpt lat="43.31077" lon="-3.03307">
        <ele>82.4</ele>
        <time>2021-10-28 14:26:37</time>
      </trkpt>
      <trkpt lat="43.31074" lon="-3.03298">
        <ele>82</ele>
        <time>2021-10-28 14:26:38</time>
      </trkpt>
      <trkpt lat="43.31072" lon="-3.03287">
        <ele>81.4</ele>
        <time>2021-10-28 14:26:39</time>
      </trkpt>
      <trkpt lat="43.31072" lon="-3.03277">
        <ele>81</ele>
        <time>2021-10-28 14:26:40</time>
      </trkpt>
      <trkpt lat="43.31073" lon="-3.03267">
        <ele>80.8</ele>
        <time>2021-10-28 14:26:41</time>
      </trkpt>
      <trkpt lat="43.31076" lon="-3.03257">
        <ele>80.4</ele>
        <time>2021-10-28 14:26:42</time>
      </trkpt>
      <trkpt lat="43.3108" lon="-3.03248">
        <ele>80</ele>
        <time>2021-10-28 14:26:43</time>
      </trkpt>
      <trkpt lat="43.31085" lon="-3.0324">
        <ele>79.4</ele>
        <time>2021-10-28 14:26:44</time>
      </trkpt>
      <trkpt lat="43.31092" lon="-3.03233">
        <ele>79</ele>
        <time>2021-10-28 14:26:45</time>
      </trkpt>
      <trkpt lat="43.31099" lon="-3.03227">
        <ele>78.6</ele>
        <time>2021-10-28 14:26:46</time>
      </trkpt>
      <trkpt lat="43.31106" lon="-3.03221">
        <ele>78.2</ele>
        <time>2021-10-28 14:26:47</time>
      </trkpt>
      <trkpt lat="43.31113" lon="-3.03214">
        <ele>77.8</ele>
        <time>2021-10-28 14:26:48</time>
      </trkpt>
      <trkpt lat="43.3112" lon="-3.03208">
        <ele>77.6</ele>
        <time>2021-10-28 14:26:49</time>
      </trkpt>
      <trkpt lat="43.31127" lon="-3.03201">
        <ele>77.4</ele>
        <time>2021-10-28 14:26:50</time>
      </trkpt>
      <trkpt lat="43.31134" lon="-3.03194">
        <ele>77</ele>
        <time>2021-10-28 14:26:51</time>
      </trkpt>
      <trkpt lat="43.31141" lon="-3.03187">
        <ele>76.6</ele>
        <time>2021-10-28 14:26:52</time>
      </trkpt>
      <trkpt lat="43.31148" lon="-3.03179">
        <ele>76.4</ele>
        <time>2021-10-28 14:26:53</time>
      </trkpt>
      <trkpt lat="43.31154" lon="-3.03171">
        <ele>76</ele>
        <time>2021-10-28 14:26:54</time>
      </trkpt>
      <trkpt lat="43.3116" lon="-3.03163">
        <ele>75.6</ele>
        <time>2021-10-28 14:26:55</time>
      </trkpt>
      <trkpt lat="43.31167" lon="-3.03154">
        <ele>75.2</ele>
        <time>2021-10-28 14:26:56</time>
      </trkpt>
      <trkpt lat="43.31172" lon="-3.03145">
        <ele>74.6</ele>
        <time>2021-10-28 14:26:57</time>
      </trkpt>
      <trkpt lat="43.31178" lon="-3.03137">
        <ele>74.2</ele>
        <time>2021-10-28 14:26:58</time>
      </trkpt>
      <trkpt lat="43.31182" lon="-3.03128">
        <ele>74</ele>
        <time>2021-10-28 14:26:59</time>
      </trkpt>
      <trkpt lat="43.31187" lon="-3.0312">
        <ele>74</ele>
        <time>2021-10-28 14:27:00</time>
      </trkpt>
      <trkpt lat="43.3119" lon="-3.03111">
        <ele>74</ele>
        <time>2021-10-28 14:27:01</time>
      </trkpt>
      <trkpt lat="43.31194" lon="-3.03103">
        <ele>74.2</ele>
        <time>2021-10-28 14:27:02</time>
      </trkpt>
      <trkpt lat="43.31197" lon="-3.03095">
        <ele>74.2</ele>
        <time>2021-10-28 14:27:03</time>
      </trkpt>
      <trkpt lat="43.312" lon="-3.03088">
        <ele>74.4</ele>
        <time>2021-10-28 14:27:04</time>
      </trkpt>
      <trkpt lat="43.31203" lon="-3.03081">
        <ele>74.4</ele>
        <time>2021-10-28 14:27:05</time>
      </trkpt>
      <trkpt lat="43.31206" lon="-3.03074">
        <ele>74.4</ele>
        <time>2021-10-28 14:27:06</time>
      </trkpt>
      <trkpt lat="43.31209" lon="-3.03068">
        <ele>74.6</ele>
        <time>2021-10-28 14:27:07</time>
      </trkpt>
      <trkpt lat="43.31212" lon="-3.03061">
        <ele>74.6</ele>
        <time>2021-10-28 14:27:08</time>
      </trkpt>
      <trkpt lat="43.31215" lon="-3.03054">
        <ele>74.6</ele>
        <time>2021-10-28 14:27:09</time>
      </trkpt>
      <trkpt lat="43.31218" lon="-3.03048">
        <ele>74.6</ele>
        <time>2021-10-28 14:27:10</time>
      </trkpt>
      <trkpt lat="43.31221" lon="-3.03041">
        <ele>74.6</ele>
        <time>2021-10-28 14:27:11</time>
      </trkpt>
      <trkpt lat="43.31224" lon="-3.03034">
        <ele>74.4</ele>
        <time>2021-10-28 14:27:12</time>
      </trkpt>
      <trkpt lat="43.31227" lon="-3.03028">
        <ele>74.4</ele>
        <time>2021-10-28 14:27:13</time>
      </trkpt>
      <trkpt lat="43.3123" lon="-3.03021">
        <ele>74.2</ele>
        <time>2021-10-28 14:27:14</time>
      </trkpt>
      <trkpt lat="43.31233" lon="-3.03015">
        <ele>74.2</ele>
        <time>2021-10-28 14:27:15</time>
      </trkpt>
      <trkpt lat="43.31236" lon="-3.03008">
        <ele>74.2</ele>
        <time>2021-10-28 14:27:16</time>
      </trkpt>
      <trkpt lat="43.31239" lon="-3.03002">
        <ele>74</ele>
        <time>2021-10-28 14:27:17</time>
      </trkpt>
      <trkpt lat="43.31242" lon="-3.02995">
        <ele>74</ele>
        <time>2021-10-28 14:27:18</time>
      </trkpt>
      <trkpt lat="43.31245" lon="-3.02989">
        <ele>74</ele>
        <time>2021-10-28 14:27:19</time>
      </trkpt>
      <trkpt lat="43.31248" lon="-3.02983">
        <ele>74</ele>
        <time>2021-10-28 14:27:20</time>
      </trkpt>
      <trkpt lat="43.31252" lon="-3.02977">
        <ele>74</ele>
        <time>2021-10-28 14:27:21</time>
      </trkpt>
      <trkpt lat="43.31255" lon="-3.02971">
        <ele>74.2</ele>
        <time>2021-10-28 14:27:22</time>
      </trkpt>
      <trkpt lat="43.31259" lon="-3.02965">
        <ele>74.2</ele>
        <time>2021-10-28 14:27:23</time>
      </trkpt>
      <trkpt lat="43.31263" lon="-3.0296">
        <ele>74</ele>
        <time>2021-10-28 14:27:24</time>
      </trkpt>
      <trkpt lat="43.31267" lon="-3.02956">
        <ele>74</ele>
        <time>2021-10-28 14:27:25</time>
      </trkpt>
      <trkpt lat="43.31272" lon="-3.02951">
        <ele>74</ele>
        <time>2021-10-28 14:27:26</time>
      </trkpt>
      <trkpt lat="43.31276" lon="-3.02946">
        <ele>74</ele>
        <time>2021-10-28 14:27:27</time>
      </trkpt>
      <trkpt lat="43.3128" lon="-3.02942">
        <ele>74</ele>
        <time>2021-10-28 14:27:28</time>
      </trkpt>
      <trkpt lat="43.31284" lon="-3.02937">
        <ele>73.8</ele>
        <time>2021-10-28 14:27:29</time>
      </trkpt>
      <trkpt lat="43.31288" lon="-3.02932">
        <ele>73.4</ele>
        <time>2021-10-28 14:27:30</time>
      </trkpt>
      <trkpt lat="43.31296" lon="-3.02923">
        <ele>73.2</ele>
        <time>2021-10-28 14:27:31</time>
      </trkpt>
      <trkpt lat="43.31296" lon="-3.02923">
        <ele>73</ele>
        <time>2021-10-28 14:27:32</time>
      </trkpt>
      <trkpt lat="43.313" lon="-3.02918">
        <ele>73</ele>
        <time>2021-10-28 14:27:33</time>
      </trkpt>
      <trkpt lat="43.31308" lon="-3.02909">
        <ele>72.8</ele>
        <time>2021-10-28 14:27:34</time>
      </trkpt>
      <trkpt lat="43.31308" lon="-3.02909">
        <ele>72.8</ele>
        <time>2021-10-28 14:27:35</time>
      </trkpt>
      <trkpt lat="43.31312" lon="-3.02904">
        <ele>72.6</ele>
        <time>2021-10-28 14:27:36</time>
      </trkpt>
      <trkpt lat="43.31316" lon="-3.02899">
        <ele>72.4</ele>
        <time>2021-10-28 14:27:37</time>
      </trkpt>
      <trkpt lat="43.3132" lon="-3.02895">
        <ele>72.2</ele>
        <time>2021-10-28 14:27:38</time>
      </trkpt>
      <trkpt lat="43.31324" lon="-3.0289">
        <ele>72</ele>
        <time>2021-10-28 14:27:39</time>
      </trkpt>
      <trkpt lat="43.31329" lon="-3.02885">
        <ele>71.8</ele>
        <time>2021-10-28 14:27:40</time>
      </trkpt>
      <trkpt lat="43.31333" lon="-3.02881">
        <ele>71.8</ele>
        <time>2021-10-28 14:27:41</time>
      </trkpt>
      <trkpt lat="43.31337" lon="-3.02876">
        <ele>71.8</ele>
        <time>2021-10-28 14:27:42</time>
      </trkpt>
      <trkpt lat="43.31341" lon="-3.02871">
        <ele>71.6</ele>
        <time>2021-10-28 14:27:43</time>
      </trkpt>
      <trkpt lat="43.31345" lon="-3.02866">
        <ele>71.6</ele>
        <time>2021-10-28 14:27:44</time>
      </trkpt>
      <trkpt lat="43.31348" lon="-3.02861">
        <ele>71.6</ele>
        <time>2021-10-28 14:27:45</time>
      </trkpt>
      <trkpt lat="43.31353" lon="-3.02855">
        <ele>71.6</ele>
        <time>2021-10-28 14:27:46</time>
      </trkpt>
      <trkpt lat="43.31356" lon="-3.02849">
        <ele>71.6</ele>
        <time>2021-10-28 14:27:47</time>
      </trkpt>
      <trkpt lat="43.31363" lon="-3.02834">
        <ele>71.6</ele>
        <time>2021-10-28 14:27:48</time>
      </trkpt>
      <trkpt lat="43.31363" lon="-3.02834">
        <ele>71.6</ele>
        <time>2021-10-28 14:27:49</time>
      </trkpt>
      <trkpt lat="43.31366" lon="-3.02826">
        <ele>71.6</ele>
        <time>2021-10-28 14:27:50</time>
      </trkpt>
      <trkpt lat="43.3137" lon="-3.02819">
        <ele>71.4</ele>
        <time>2021-10-28 14:27:51</time>
      </trkpt>
      <trkpt lat="43.31374" lon="-3.02811">
        <ele>71.2</ele>
        <time>2021-10-28 14:27:52</time>
      </trkpt>
      <trkpt lat="43.31378" lon="-3.02803">
        <ele>71</ele>
        <time>2021-10-28 14:27:53</time>
      </trkpt>
      <trkpt lat="43.31383" lon="-3.02796">
        <ele>70.6</ele>
        <time>2021-10-28 14:27:54</time>
      </trkpt>
      <trkpt lat="43.31387" lon="-3.02787">
        <ele>70.2</ele>
        <time>2021-10-28 14:27:55</time>
      </trkpt>
      <trkpt lat="43.3139" lon="-3.02777">
        <ele>69.8</ele>
        <time>2021-10-28 14:27:56</time>
      </trkpt>
      <trkpt lat="43.31392" lon="-3.02767">
        <ele>69.6</ele>
        <time>2021-10-28 14:27:57</time>
      </trkpt>
      <trkpt lat="43.314" lon="-3.0275">
        <ele>69.6</ele>
        <time>2021-10-28 14:27:58</time>
      </trkpt>
      <trkpt lat="43.314" lon="-3.0275">
        <ele>69.6</ele>
        <time>2021-10-28 14:27:59</time>
      </trkpt>
      <trkpt lat="43.31404" lon="-3.02744">
        <ele>69.8</ele>
        <time>2021-10-28 14:28:00</time>
      </trkpt>
      <trkpt lat="43.31408" lon="-3.02739">
        <ele>70.2</ele>
        <time>2021-10-28 14:28:01</time>
      </trkpt>
      <trkpt lat="43.31412" lon="-3.02735">
        <ele>70.4</ele>
        <time>2021-10-28 14:28:02</time>
      </trkpt>
      <trkpt lat="43.31415" lon="-3.0273">
        <ele>70.8</ele>
        <time>2021-10-28 14:28:03</time>
      </trkpt>
      <trkpt lat="43.31419" lon="-3.02725">
        <ele>71</ele>
        <time>2021-10-28 14:28:04</time>
      </trkpt>
      <trkpt lat="43.31423" lon="-3.02721">
        <ele>71.4</ele>
        <time>2021-10-28 14:28:05</time>
      </trkpt>
      <trkpt lat="43.31426" lon="-3.02717">
        <ele>71.6</ele>
        <time>2021-10-28 14:28:06</time>
      </trkpt>
      <trkpt lat="43.31429" lon="-3.02712">
        <ele>71.8</ele>
        <time>2021-10-28 14:28:07</time>
      </trkpt>
      <trkpt lat="43.31433" lon="-3.02708">
        <ele>72</ele>
        <time>2021-10-28 14:28:08</time>
      </trkpt>
      <trkpt lat="43.31436" lon="-3.02704">
        <ele>72</ele>
        <time>2021-10-28 14:28:09</time>
      </trkpt>
      <trkpt lat="43.31439" lon="-3.027">
        <ele>72.2</ele>
        <time>2021-10-28 14:28:10</time>
      </trkpt>
      <trkpt lat="43.31443" lon="-3.02696">
        <ele>72.4</ele>
        <time>2021-10-28 14:28:11</time>
      </trkpt>
      <trkpt lat="43.31446" lon="-3.02692">
        <ele>72.6</ele>
        <time>2021-10-28 14:28:12</time>
      </trkpt>
      <trkpt lat="43.31449" lon="-3.02688">
        <ele>72.6</ele>
        <time>2021-10-28 14:28:13</time>
      </trkpt>
      <trkpt lat="43.31452" lon="-3.02684">
        <ele>72.8</ele>
        <time>2021-10-28 14:28:14</time>
      </trkpt>
      <trkpt lat="43.31455" lon="-3.0268">
        <ele>73</ele>
        <time>2021-10-28 14:28:15</time>
      </trkpt>
      <trkpt lat="43.31458" lon="-3.02677">
        <ele>73.2</ele>
        <time>2021-10-28 14:28:16</time>
      </trkpt>
      <trkpt lat="43.31461" lon="-3.02673">
        <ele>73.4</ele>
        <time>2021-10-28 14:28:17</time>
      </trkpt>
      <trkpt lat="43.31465" lon="-3.0267">
        <ele>73.6</ele>
        <time>2021-10-28 14:28:18</time>
      </trkpt>
      <trkpt lat="43.31468" lon="-3.02666">
        <ele>73.8</ele>
        <time>2021-10-28 14:28:19</time>
      </trkpt>
      <trkpt lat="43.31471" lon="-3.02662">
        <ele>74.2</ele>
        <time>2021-10-28 14:28:20</time>
      </trkpt>
      <trkpt lat="43.31474" lon="-3.02658">
        <ele>74.4</ele>
        <time>2021-10-28 14:28:21</time>
      </trkpt>
      <trkpt lat="43.31476" lon="-3.02654">
        <ele>74.6</ele>
        <time>2021-10-28 14:28:22</time>
      </trkpt>
      <trkpt lat="43.31479" lon="-3.0265">
        <ele>75</ele>
        <time>2021-10-28 14:28:23</time>
      </trkpt>
      <trkpt lat="43.31482" lon="-3.02647">
        <ele>75.2</ele>
        <time>2021-10-28 14:28:24</time>
      </trkpt>
      <trkpt lat="43.31485" lon="-3.02643">
        <ele>75.4</ele>
        <time>2021-10-28 14:28:25</time>
      </trkpt>
      <trkpt lat="43.31487" lon="-3.02639">
        <ele>75.4</ele>
        <time>2021-10-28 14:28:26</time>
      </trkpt>
      <trkpt lat="43.31489" lon="-3.02636">
        <ele>75.8</ele>
        <time>2021-10-28 14:28:27</time>
      </trkpt>
      <trkpt lat="43.31492" lon="-3.02632">
        <ele>76</ele>
        <time>2021-10-28 14:28:28</time>
      </trkpt>
      <trkpt lat="43.31494" lon="-3.02629">
        <ele>76.4</ele>
        <time>2021-10-28 14:28:29</time>
      </trkpt>
      <trkpt lat="43.315" lon="-3.02622">
        <ele>76.6</ele>
        <time>2021-10-28 14:28:30</time>
      </trkpt>
      <trkpt lat="43.315" lon="-3.02622">
        <ele>77</ele>
        <time>2021-10-28 14:28:31</time>
      </trkpt>
      <trkpt lat="43.31502" lon="-3.02619">
        <ele>77.4</ele>
        <time>2021-10-28 14:28:32</time>
      </trkpt>
      <trkpt lat="43.31505" lon="-3.02615">
        <ele>77.8</ele>
        <time>2021-10-28 14:28:33</time>
      </trkpt>
      <trkpt lat="43.31508" lon="-3.02612">
        <ele>78.2</ele>
        <time>2021-10-28 14:28:34</time>
      </trkpt>
      <trkpt lat="43.31511" lon="-3.02609">
        <ele>78.6</ele>
        <time>2021-10-28 14:28:35</time>
      </trkpt>
      <trkpt lat="43.31514" lon="-3.02606">
        <ele>79.2</ele>
        <time>2021-10-28 14:28:36</time>
      </trkpt>
      <trkpt lat="43.31516" lon="-3.02603">
        <ele>79.4</ele>
        <time>2021-10-28 14:28:37</time>
      </trkpt>
      <trkpt lat="43.31518" lon="-3.026">
        <ele>79.8</ele>
        <time>2021-10-28 14:28:38</time>
      </trkpt>
      <trkpt lat="43.31523" lon="-3.02594">
        <ele>80</ele>
        <time>2021-10-28 14:28:39</time>
      </trkpt>
      <trkpt lat="43.31523" lon="-3.02594">
        <ele>80</ele>
        <time>2021-10-28 14:28:40</time>
      </trkpt>
      <trkpt lat="43.31525" lon="-3.02591">
        <ele>80.2</ele>
        <time>2021-10-28 14:28:41</time>
      </trkpt>
      <trkpt lat="43.31528" lon="-3.02588">
        <ele>80.4</ele>
        <time>2021-10-28 14:28:42</time>
      </trkpt>
      <trkpt lat="43.3153" lon="-3.02586">
        <ele>80.8</ele>
        <time>2021-10-28 14:28:43</time>
      </trkpt>
      <trkpt lat="43.31532" lon="-3.02583">
        <ele>81</ele>
        <time>2021-10-28 14:28:44</time>
      </trkpt>
      <trkpt lat="43.31534" lon="-3.0258">
        <ele>81.2</ele>
        <time>2021-10-28 14:28:45</time>
      </trkpt>
      <trkpt lat="43.31539" lon="-3.02573">
        <ele>81.6</ele>
        <time>2021-10-28 14:28:46</time>
      </trkpt>
      <trkpt lat="43.31539" lon="-3.02573">
        <ele>81.8</ele>
        <time>2021-10-28 14:28:47</time>
      </trkpt>
      <trkpt lat="43.31542" lon="-3.0257">
        <ele>82</ele>
        <time>2021-10-28 14:28:48</time>
      </trkpt>
      <trkpt lat="43.31544" lon="-3.02567">
        <ele>82.4</ele>
        <time>2021-10-28 14:28:49</time>
      </trkpt>
      <trkpt lat="43.31546" lon="-3.02564">
        <ele>82.8</ele>
        <time>2021-10-28 14:28:50</time>
      </trkpt>
      <trkpt lat="43.31549" lon="-3.02562">
        <ele>83.2</ele>
        <time>2021-10-28 14:28:51</time>
      </trkpt>
      <trkpt lat="43.31551" lon="-3.02559">
        <ele>83.4</ele>
        <time>2021-10-28 14:28:52</time>
      </trkpt>
      <trkpt lat="43.31553" lon="-3.02556">
        <ele>83.8</ele>
        <time>2021-10-28 14:28:53</time>
      </trkpt>
      <trkpt lat="43.31556" lon="-3.02553">
        <ele>84</ele>
        <time>2021-10-28 14:28:54</time>
      </trkpt>
      <trkpt lat="43.31558" lon="-3.0255">
        <ele>84.4</ele>
        <time>2021-10-28 14:28:55</time>
      </trkpt>
      <trkpt lat="43.31561" lon="-3.02547">
        <ele>84.6</ele>
        <time>2021-10-28 14:28:56</time>
      </trkpt>
      <trkpt lat="43.31563" lon="-3.02544">
        <ele>85</ele>
        <time>2021-10-28 14:28:57</time>
      </trkpt>
      <trkpt lat="43.31566" lon="-3.02541">
        <ele>85.4</ele>
        <time>2021-10-28 14:28:58</time>
      </trkpt>
      <trkpt lat="43.31568" lon="-3.02538">
        <ele>85.8</ele>
        <time>2021-10-28 14:28:59</time>
      </trkpt>
      <trkpt lat="43.3157" lon="-3.02535">
        <ele>86</ele>
        <time>2021-10-28 14:29:00</time>
      </trkpt>
      <trkpt lat="43.31572" lon="-3.02532">
        <ele>86.2</ele>
        <time>2021-10-28 14:29:01</time>
      </trkpt>
      <trkpt lat="43.31574" lon="-3.02528">
        <ele>86.4</ele>
        <time>2021-10-28 14:29:02</time>
      </trkpt>
      <trkpt lat="43.31576" lon="-3.02525">
        <ele>86.6</ele>
        <time>2021-10-28 14:29:03</time>
      </trkpt>
      <trkpt lat="43.31577" lon="-3.02522">
        <ele>87</ele>
        <time>2021-10-28 14:29:04</time>
      </trkpt>
      <trkpt lat="43.31579" lon="-3.02519">
        <ele>87.2</ele>
        <time>2021-10-28 14:29:05</time>
      </trkpt>
      <trkpt lat="43.3158" lon="-3.02516">
        <ele>87.4</ele>
        <time>2021-10-28 14:29:06</time>
      </trkpt>
      <trkpt lat="43.31582" lon="-3.02514">
        <ele>87.6</ele>
        <time>2021-10-28 14:29:07</time>
      </trkpt>
      <trkpt lat="43.31583" lon="-3.02511">
        <ele>87.6</ele>
        <time>2021-10-28 14:29:08</time>
      </trkpt>
      <trkpt lat="43.31585" lon="-3.02509">
        <ele>87.6</ele>
        <time>2021-10-28 14:29:09</time>
      </trkpt>
      <trkpt lat="43.31588" lon="-3.02503">
        <ele>87.8</ele>
        <time>2021-10-28 14:29:10</time>
      </trkpt>
      <trkpt lat="43.31588" lon="-3.02503">
        <ele>87.8</ele>
        <time>2021-10-28 14:29:11</time>
      </trkpt>
      <trkpt lat="43.3159" lon="-3.02501">
        <ele>87.8</ele>
        <time>2021-10-28 14:29:12</time>
      </trkpt>
      <trkpt lat="43.31591" lon="-3.02498">
        <ele>88</ele>
        <time>2021-10-28 14:29:13</time>
      </trkpt>
      <trkpt lat="43.31593" lon="-3.02496">
        <ele>88</ele>
        <time>2021-10-28 14:29:14</time>
      </trkpt>
      <trkpt lat="43.31596" lon="-3.02493">
        <ele>88</ele>
        <time>2021-10-28 14:29:15</time>
      </trkpt>
      <trkpt lat="43.31598" lon="-3.02491">
        <ele>88</ele>
        <time>2021-10-28 14:29:16</time>
      </trkpt>
      <trkpt lat="43.316" lon="-3.02488">
        <ele>88</ele>
        <time>2021-10-28 14:29:17</time>
      </trkpt>
      <trkpt lat="43.31603" lon="-3.02487">
        <ele>88</ele>
        <time>2021-10-28 14:29:18</time>
      </trkpt>
      <trkpt lat="43.31605" lon="-3.02485">
        <ele>88</ele>
        <time>2021-10-28 14:29:19</time>
      </trkpt>
      <trkpt lat="43.31607" lon="-3.02485">
        <ele>88.2</ele>
        <time>2021-10-28 14:29:20</time>
      </trkpt>
      <trkpt lat="43.31609" lon="-3.02484">
        <ele>88.4</ele>
        <time>2021-10-28 14:29:21</time>
      </trkpt>
      <trkpt lat="43.31611" lon="-3.02484">
        <ele>88.6</ele>
        <time>2021-10-28 14:29:22</time>
      </trkpt>
      <trkpt lat="43.31614" lon="-3.02485">
        <ele>88.8</ele>
        <time>2021-10-28 14:29:23</time>
      </trkpt>
      <trkpt lat="43.31616" lon="-3.02485">
        <ele>88.8</ele>
        <time>2021-10-28 14:29:24</time>
      </trkpt>
      <trkpt lat="43.31618" lon="-3.02486">
        <ele>89</ele>
        <time>2021-10-28 14:29:25</time>
      </trkpt>
      <trkpt lat="43.3162" lon="-3.02487">
        <ele>89.2</ele>
        <time>2021-10-28 14:29:26</time>
      </trkpt>
      <trkpt lat="43.31622" lon="-3.02489">
        <ele>89.2</ele>
        <time>2021-10-28 14:29:27</time>
      </trkpt>
      <trkpt lat="43.31624" lon="-3.0249">
        <ele>89.4</ele>
        <time>2021-10-28 14:29:28</time>
      </trkpt>
      <trkpt lat="43.31625" lon="-3.02491">
        <ele>89.6</ele>
        <time>2021-10-28 14:29:29</time>
      </trkpt>
      <trkpt lat="43.31627" lon="-3.02492">
        <ele>89.8</ele>
        <time>2021-10-28 14:29:30</time>
      </trkpt>
      <trkpt lat="43.31629" lon="-3.02494">
        <ele>89.8</ele>
        <time>2021-10-28 14:29:31</time>
      </trkpt>
      <trkpt lat="43.31631" lon="-3.02496">
        <ele>90</ele>
        <time>2021-10-28 14:29:32</time>
      </trkpt>
      <trkpt lat="43.31633" lon="-3.02498">
        <ele>90.2</ele>
        <time>2021-10-28 14:29:33</time>
      </trkpt>
      <trkpt lat="43.31635" lon="-3.025">
        <ele>90.6</ele>
        <time>2021-10-28 14:29:34</time>
      </trkpt>
      <trkpt lat="43.31636" lon="-3.02502">
        <ele>90.8</ele>
        <time>2021-10-28 14:29:35</time>
      </trkpt>
      <trkpt lat="43.31638" lon="-3.02504">
        <ele>91</ele>
        <time>2021-10-28 14:29:36</time>
      </trkpt>
      <trkpt lat="43.31639" lon="-3.02505">
        <ele>91</ele>
        <time>2021-10-28 14:29:37</time>
      </trkpt>
      <trkpt lat="43.31639" lon="-3.02505">
        <ele>91.4</ele>
        <time>2021-10-28 14:29:38</time>
      </trkpt>
      <trkpt lat="43.31643" lon="-3.02508">
        <ele>91.6</ele>
        <time>2021-10-28 14:29:39</time>
      </trkpt>
      <trkpt lat="43.31644" lon="-3.02509">
        <ele>91.8</ele>
        <time>2021-10-28 14:29:40</time>
      </trkpt>
      <trkpt lat="43.31646" lon="-3.02511">
        <ele>92</ele>
        <time>2021-10-28 14:29:41</time>
      </trkpt>
      <trkpt lat="43.31647" lon="-3.02513">
        <ele>92.2</ele>
        <time>2021-10-28 14:29:42</time>
      </trkpt>
      <trkpt lat="43.31649" lon="-3.02515">
        <ele>92.4</ele>
        <time>2021-10-28 14:29:43</time>
      </trkpt>
      <trkpt lat="43.3165" lon="-3.02517">
        <ele>92.6</ele>
        <time>2021-10-28 14:29:44</time>
      </trkpt>
      <trkpt lat="43.31651" lon="-3.02519">
        <ele>93</ele>
        <time>2021-10-28 14:29:45</time>
      </trkpt>
      <trkpt lat="43.31653" lon="-3.02522">
        <ele>93.2</ele>
        <time>2021-10-28 14:29:46</time>
      </trkpt>
      <trkpt lat="43.31653" lon="-3.02522">
        <ele>93.4</ele>
        <time>2021-10-28 14:29:47</time>
      </trkpt>
      <trkpt lat="43.31655" lon="-3.02524">
        <ele>93.6</ele>
        <time>2021-10-28 14:29:48</time>
      </trkpt>
      <trkpt lat="43.31658" lon="-3.02526">
        <ele>93.8</ele>
        <time>2021-10-28 14:29:49</time>
      </trkpt>
      <trkpt lat="43.31658" lon="-3.02526">
        <ele>94</ele>
        <time>2021-10-28 14:29:50</time>
      </trkpt>
      <trkpt lat="43.31659" lon="-3.02527">
        <ele>94.2</ele>
        <time>2021-10-28 14:29:51</time>
      </trkpt>
      <trkpt lat="43.3166" lon="-3.02527">
        <ele>94.4</ele>
        <time>2021-10-28 14:29:52</time>
      </trkpt>
      <trkpt lat="43.31661" lon="-3.02528">
        <ele>94.6</ele>
        <time>2021-10-28 14:29:53</time>
      </trkpt>
      <trkpt lat="43.31662" lon="-3.02528">
        <ele>94.6</ele>
        <time>2021-10-28 14:29:54</time>
      </trkpt>
      <trkpt lat="43.31662" lon="-3.02528">
        <ele>94.6</ele>
        <time>2021-10-28 14:29:55</time>
      </trkpt>
      <trkpt lat="43.31662" lon="-3.02529">
        <ele>94.6</ele>
        <time>2021-10-28 14:29:56</time>
      </trkpt>
      <trkpt lat="43.31662" lon="-3.02529">
        <ele>94.8</ele>
        <time>2021-10-28 14:29:57</time>
      </trkpt>
      <trkpt lat="43.31662" lon="-3.02529">
        <ele>94.8</ele>
        <time>2021-10-28 14:29:58</time>
      </trkpt>
      <trkpt lat="43.31662" lon="-3.02529">
        <ele>94.8</ele>
        <time>2021-10-28 14:29:59</time>
      </trkpt>
      <trkpt lat="43.31663" lon="-3.02529">
        <ele>94.8</ele>
        <time>2021-10-28 14:30:00</time>
      </trkpt>
      <trkpt lat="43.31663" lon="-3.02529">
        <ele>94.8</ele>
        <time>2021-10-28 14:30:01</time>
      </trkpt>
      <trkpt lat="43.31663" lon="-3.02529">
        <ele>94.8</ele>
        <time>2021-10-28 14:30:02</time>
      </trkpt>
      <trkpt lat="43.31684" lon="-3.02533">
        <ele>96.4</ele>
        <time>2021-10-28 14:30:03</time>
      </trkpt>
      <trkpt lat="43.31686" lon="-3.02533">
        <ele>96.6</ele>
        <time>2021-10-28 14:30:04</time>
      </trkpt>
      <trkpt lat="43.31689" lon="-3.02535">
        <ele>96.8</ele>
        <time>2021-10-28 14:30:05</time>
      </trkpt>
      <trkpt lat="43.31691" lon="-3.02536">
        <ele>97.2</ele>
        <time>2021-10-28 14:30:06</time>
      </trkpt>
      <trkpt lat="43.31693" lon="-3.02538">
        <ele>97.4</ele>
        <time>2021-10-28 14:30:07</time>
      </trkpt>
      <trkpt lat="43.31698" lon="-3.0254">
        <ele>97.6</ele>
        <time>2021-10-28 14:30:08</time>
      </trkpt>
      <trkpt lat="43.31698" lon="-3.0254">
        <ele>97.8</ele>
        <time>2021-10-28 14:30:09</time>
      </trkpt>
      <trkpt lat="43.317" lon="-3.02542">
        <ele>98</ele>
        <time>2021-10-28 14:30:10</time>
      </trkpt>
      <trkpt lat="43.31702" lon="-3.02543">
        <ele>98</ele>
        <time>2021-10-28 14:30:11</time>
      </trkpt>
      <trkpt lat="43.31704" lon="-3.02544">
        <ele>98.2</ele>
        <time>2021-10-28 14:30:12</time>
      </trkpt>
      <trkpt lat="43.31707" lon="-3.02546">
        <ele>98.4</ele>
        <time>2021-10-28 14:30:13</time>
      </trkpt>
      <trkpt lat="43.31709" lon="-3.02547">
        <ele>98.8</ele>
        <time>2021-10-28 14:30:14</time>
      </trkpt>
      <trkpt lat="43.31711" lon="-3.02549">
        <ele>99</ele>
        <time>2021-10-28 14:30:15</time>
      </trkpt>
      <trkpt lat="43.31713" lon="-3.0255">
        <ele>99.2</ele>
        <time>2021-10-28 14:30:16</time>
      </trkpt>
      <trkpt lat="43.31715" lon="-3.02551">
        <ele>99.6</ele>
        <time>2021-10-28 14:30:17</time>
      </trkpt>
      <trkpt lat="43.31718" lon="-3.02552">
        <ele>99.8</ele>
        <time>2021-10-28 14:30:18</time>
      </trkpt>
      <trkpt lat="43.3172" lon="-3.02553">
        <ele>100</ele>
        <time>2021-10-28 14:30:19</time>
      </trkpt>
      <trkpt lat="43.31722" lon="-3.02554">
        <ele>100.2</ele>
        <time>2021-10-28 14:30:20</time>
      </trkpt>
      <trkpt lat="43.31724" lon="-3.02556">
        <ele>100.4</ele>
        <time>2021-10-28 14:30:21</time>
      </trkpt>
      <trkpt lat="43.31726" lon="-3.02557">
        <ele>100.6</ele>
        <time>2021-10-28 14:30:22</time>
      </trkpt>
      <trkpt lat="43.31729" lon="-3.02559">
        <ele>100.8</ele>
        <time>2021-10-28 14:30:23</time>
      </trkpt>
      <trkpt lat="43.31731" lon="-3.0256">
        <ele>101</ele>
        <time>2021-10-28 14:30:24</time>
      </trkpt>
      <trkpt lat="43.31733" lon="-3.02562">
        <ele>101.4</ele>
        <time>2021-10-28 14:30:25</time>
      </trkpt>
      <trkpt lat="43.31735" lon="-3.02563">
        <ele>101.6</ele>
        <time>2021-10-28 14:30:26</time>
      </trkpt>
      <trkpt lat="43.31738" lon="-3.02564">
        <ele>101.8</ele>
        <time>2021-10-28 14:30:27</time>
      </trkpt>
      <trkpt lat="43.31742" lon="-3.02567">
        <ele>102</ele>
        <time>2021-10-28 14:30:28</time>
      </trkpt>
      <trkpt lat="43.31742" lon="-3.02567">
        <ele>102.4</ele>
        <time>2021-10-28 14:30:42</time>
      </trkpt>
      <trkpt lat="43.31744" lon="-3.02568">
        <ele>102.6</ele>
        <time>2021-10-28 14:30:43</time>
      </trkpt>
      <trkpt lat="43.31746" lon="-3.0257">
        <ele>102.8</ele>
        <time>2021-10-28 14:30:44</time>
      </trkpt>
      <trkpt lat="43.31749" lon="-3.02571">
        <ele>103</ele>
        <time>2021-10-28 14:30:45</time>
      </trkpt>
      <trkpt lat="43.31751" lon="-3.02573">
        <ele>103.2</ele>
        <time>2021-10-28 14:30:46</time>
      </trkpt>
      <trkpt lat="43.31752" lon="-3.02575">
        <ele>103.4</ele>
        <time>2021-10-28 14:30:47</time>
      </trkpt>
      <trkpt lat="43.31754" lon="-3.02577">
        <ele>103.6</ele>
        <time>2021-10-28 14:30:48</time>
      </trkpt>
      <trkpt lat="43.31756" lon="-3.02579">
        <ele>104</ele>
        <time>2021-10-28 14:30:49</time>
      </trkpt>
      <trkpt lat="43.31758" lon="-3.02581">
        <ele>104.2</ele>
        <time>2021-10-28 14:30:50</time>
      </trkpt>
      <trkpt lat="43.3176" lon="-3.02583">
        <ele>104.4</ele>
        <time>2021-10-28 14:30:51</time>
      </trkpt>
      <trkpt lat="43.31762" lon="-3.02585">
        <ele>104.4</ele>
        <time>2021-10-28 14:30:52</time>
      </trkpt>
      <trkpt lat="43.31764" lon="-3.02587">
        <ele>104.6</ele>
        <time>2021-10-28 14:30:53</time>
      </trkpt>
      <trkpt lat="43.31765" lon="-3.02589">
        <ele>105</ele>
        <time>2021-10-28 14:30:54</time>
      </trkpt>
      <trkpt lat="43.31767" lon="-3.02591">
        <ele>105.2</ele>
        <time>2021-10-28 14:30:55</time>
      </trkpt>
      <trkpt lat="43.31769" lon="-3.02593">
        <ele>105.4</ele>
        <time>2021-10-28 14:30:56</time>
      </trkpt>
      <trkpt lat="43.31771" lon="-3.02595">
        <ele>105.4</ele>
        <time>2021-10-28 14:30:57</time>
      </trkpt>
      <trkpt lat="43.31772" lon="-3.02597">
        <ele>105.6</ele>
        <time>2021-10-28 14:30:58</time>
      </trkpt>
      <trkpt lat="43.31774" lon="-3.026">
        <ele>105.6</ele>
        <time>2021-10-28 14:30:59</time>
      </trkpt>
      <trkpt lat="43.31776" lon="-3.02601">
        <ele>105.8</ele>
        <time>2021-10-28 14:31:00</time>
      </trkpt>
      <trkpt lat="43.31778" lon="-3.02603">
        <ele>106</ele>
        <time>2021-10-28 14:31:01</time>
      </trkpt>
      <trkpt lat="43.3178" lon="-3.02605">
        <ele>106.2</ele>
        <time>2021-10-28 14:31:02</time>
      </trkpt>
      <trkpt lat="43.31781" lon="-3.02607">
        <ele>106.6</ele>
        <time>2021-10-28 14:31:03</time>
      </trkpt>
      <trkpt lat="43.31783" lon="-3.0261">
        <ele>106.8</ele>
        <time>2021-10-28 14:31:04</time>
      </trkpt>
      <trkpt lat="43.31784" lon="-3.02612">
        <ele>107.2</ele>
        <time>2021-10-28 14:31:05</time>
      </trkpt>
      <trkpt lat="43.31786" lon="-3.02615">
        <ele>107.4</ele>
        <time>2021-10-28 14:31:06</time>
      </trkpt>
      <trkpt lat="43.31788" lon="-3.02617">
        <ele>107.6</ele>
        <time>2021-10-28 14:31:07</time>
      </trkpt>
      <trkpt lat="43.31789" lon="-3.0262">
        <ele>107.6</ele>
        <time>2021-10-28 14:31:08</time>
      </trkpt>
      <trkpt lat="43.31791" lon="-3.02622">
        <ele>107.8</ele>
        <time>2021-10-28 14:31:09</time>
      </trkpt>
      <trkpt lat="43.31794" lon="-3.02626">
        <ele>107.8</ele>
        <time>2021-10-28 14:31:10</time>
      </trkpt>
      <trkpt lat="43.31794" lon="-3.02626">
        <ele>108</ele>
        <time>2021-10-28 14:31:11</time>
      </trkpt>
      <trkpt lat="43.31795" lon="-3.02629">
        <ele>108.2</ele>
        <time>2021-10-28 14:31:12</time>
      </trkpt>
      <trkpt lat="43.31797" lon="-3.02631">
        <ele>108.4</ele>
        <time>2021-10-28 14:31:13</time>
      </trkpt>
      <trkpt lat="43.318" lon="-3.02636">
        <ele>108.6</ele>
        <time>2021-10-28 14:31:14</time>
      </trkpt>
      <trkpt lat="43.318" lon="-3.02636">
        <ele>108.8</ele>
        <time>2021-10-28 14:31:15</time>
      </trkpt>
      <trkpt lat="43.31803" lon="-3.02642">
        <ele>109</ele>
        <time>2021-10-28 14:31:16</time>
      </trkpt>
      <trkpt lat="43.31803" lon="-3.02642">
        <ele>109.4</ele>
        <time>2021-10-28 14:31:17</time>
      </trkpt>
      <trkpt lat="43.31804" lon="-3.02645">
        <ele>109.6</ele>
        <time>2021-10-28 14:31:18</time>
      </trkpt>
      <trkpt lat="43.31806" lon="-3.02648">
        <ele>109.8</ele>
        <time>2021-10-28 14:31:19</time>
      </trkpt>
      <trkpt lat="43.31808" lon="-3.0265">
        <ele>109.8</ele>
        <time>2021-10-28 14:31:20</time>
      </trkpt>
      <trkpt lat="43.31809" lon="-3.02653">
        <ele>110</ele>
        <time>2021-10-28 14:31:21</time>
      </trkpt>
      <trkpt lat="43.31811" lon="-3.02655">
        <ele>110.2</ele>
        <time>2021-10-28 14:31:22</time>
      </trkpt>
      <trkpt lat="43.31812" lon="-3.02658">
        <ele>110.4</ele>
        <time>2021-10-28 14:31:23</time>
      </trkpt>
      <trkpt lat="43.31814" lon="-3.02661">
        <ele>110.8</ele>
        <time>2021-10-28 14:31:24</time>
      </trkpt>
      <trkpt lat="43.31815" lon="-3.02664">
        <ele>111</ele>
        <time>2021-10-28 14:31:25</time>
      </trkpt>
      <trkpt lat="43.31817" lon="-3.02666">
        <ele>111.2</ele>
        <time>2021-10-28 14:31:26</time>
      </trkpt>
      <trkpt lat="43.31818" lon="-3.02669">
        <ele>111.4</ele>
        <time>2021-10-28 14:31:27</time>
      </trkpt>
      <trkpt lat="43.31819" lon="-3.02672">
        <ele>111.6</ele>
        <time>2021-10-28 14:31:28</time>
      </trkpt>
      <trkpt lat="43.31821" lon="-3.02675">
        <ele>111.8</ele>
        <time>2021-10-28 14:31:29</time>
      </trkpt>
      <trkpt lat="43.31822" lon="-3.02678">
        <ele>112</ele>
        <time>2021-10-28 14:31:30</time>
      </trkpt>
      <trkpt lat="43.31823" lon="-3.02681">
        <ele>112.2</ele>
        <time>2021-10-28 14:31:31</time>
      </trkpt>
      <trkpt lat="43.31825" lon="-3.02684">
        <ele>112.4</ele>
        <time>2021-10-28 14:31:32</time>
      </trkpt>
      <trkpt lat="43.31826" lon="-3.02687">
        <ele>112.6</ele>
        <time>2021-10-28 14:31:33</time>
      </trkpt>
      <trkpt lat="43.31828" lon="-3.0269">
        <ele>112.8</ele>
        <time>2021-10-28 14:31:34</time>
      </trkpt>
      <trkpt lat="43.3183" lon="-3.02692">
        <ele>113.2</ele>
        <time>2021-10-28 14:31:35</time>
      </trkpt>
      <trkpt lat="43.31832" lon="-3.02692">
        <ele>113.2</ele>
        <time>2021-10-28 14:31:36</time>
      </trkpt>
      <trkpt lat="43.31834" lon="-3.02691">
        <ele>113.4</ele>
        <time>2021-10-28 14:31:37</time>
      </trkpt>
      <trkpt lat="43.31835" lon="-3.02687">
        <ele>113.4</ele>
        <time>2021-10-28 14:31:38</time>
      </trkpt>
      <trkpt lat="43.31835" lon="-3.02683">
        <ele>113.2</ele>
        <time>2021-10-28 14:31:39</time>
      </trkpt>
      <trkpt lat="43.31834" lon="-3.02674">
        <ele>113.2</ele>
        <time>2021-10-28 14:31:40</time>
      </trkpt>
      <trkpt lat="43.31834" lon="-3.02674">
        <ele>113.2</ele>
        <time>2021-10-28 14:31:41</time>
      </trkpt>
      <trkpt lat="43.31831" lon="-3.02664">
        <ele>113</ele>
        <time>2021-10-28 14:31:42</time>
      </trkpt>
      <trkpt lat="43.31831" lon="-3.02664">
        <ele>113</ele>
        <time>2021-10-28 14:31:43</time>
      </trkpt>
      <trkpt lat="43.31829" lon="-3.02659">
        <ele>113</ele>
        <time>2021-10-28 14:31:44</time>
      </trkpt>
      <trkpt lat="43.31827" lon="-3.02653">
        <ele>113</ele>
        <time>2021-10-28 14:31:45</time>
      </trkpt>
      <trkpt lat="43.31822" lon="-3.02642">
        <ele>112.8</ele>
        <time>2021-10-28 14:31:46</time>
      </trkpt>
      <trkpt lat="43.31822" lon="-3.02642">
        <ele>112.8</ele>
        <time>2021-10-28 14:31:47</time>
      </trkpt>
      <trkpt lat="43.31819" lon="-3.02637">
        <ele>112.6</ele>
        <time>2021-10-28 14:31:48</time>
      </trkpt>
      <trkpt lat="43.31817" lon="-3.02632">
        <ele>112.4</ele>
        <time>2021-10-28 14:31:49</time>
      </trkpt>
      <trkpt lat="43.31816" lon="-3.02627">
        <ele>112.2</ele>
        <time>2021-10-28 14:31:50</time>
      </trkpt>
      <trkpt lat="43.31817" lon="-3.02621">
        <ele>111.8</ele>
        <time>2021-10-28 14:31:51</time>
      </trkpt>
      <trkpt lat="43.3182" lon="-3.02616">
        <ele>111.8</ele>
        <time>2021-10-28 14:31:52</time>
      </trkpt>
      <trkpt lat="43.31823" lon="-3.02611">
        <ele>111.6</ele>
        <time>2021-10-28 14:31:53</time>
      </trkpt>
      <trkpt lat="43.31827" lon="-3.02607">
        <ele>111.6</ele>
        <time>2021-10-28 14:31:54</time>
      </trkpt>
      <trkpt lat="43.3183" lon="-3.02604">
        <ele>111.4</ele>
        <time>2021-10-28 14:31:55</time>
      </trkpt>
      <trkpt lat="43.31834" lon="-3.02601">
        <ele>111.4</ele>
        <time>2021-10-28 14:31:56</time>
      </trkpt>
      <trkpt lat="43.31837" lon="-3.02598">
        <ele>111.4</ele>
        <time>2021-10-28 14:31:57</time>
      </trkpt>
      <trkpt lat="43.31841" lon="-3.02595">
        <ele>111.4</ele>
        <time>2021-10-28 14:31:58</time>
      </trkpt>
      <trkpt lat="43.31844" lon="-3.02592">
        <ele>111.4</ele>
        <time>2021-10-28 14:31:59</time>
      </trkpt>
      <trkpt lat="43.31852" lon="-3.02585">
        <ele>111.4</ele>
        <time>2021-10-28 14:32:00</time>
      </trkpt>
      <trkpt lat="43.31852" lon="-3.02585">
        <ele>111.4</ele>
        <time>2021-10-28 14:32:01</time>
      </trkpt>
      <trkpt lat="43.31855" lon="-3.02583">
        <ele>111.4</ele>
        <time>2021-10-28 14:32:02</time>
      </trkpt>
      <trkpt lat="43.31858" lon="-3.02579">
        <ele>111.6</ele>
        <time>2021-10-28 14:32:03</time>
      </trkpt>
      <trkpt lat="43.3186" lon="-3.02576">
        <ele>111.8</ele>
        <time>2021-10-28 14:32:04</time>
      </trkpt>
      <trkpt lat="43.31863" lon="-3.02573">
        <ele>112</ele>
        <time>2021-10-28 14:32:05</time>
      </trkpt>
      <trkpt lat="43.31866" lon="-3.02571">
        <ele>112.2</ele>
        <time>2021-10-28 14:32:06</time>
      </trkpt>
      <trkpt lat="43.3187" lon="-3.02568">
        <ele>112.4</ele>
        <time>2021-10-28 14:32:07</time>
      </trkpt>
      <trkpt lat="43.31873" lon="-3.02565">
        <ele>112.6</ele>
        <time>2021-10-28 14:32:08</time>
      </trkpt>
      <trkpt lat="43.31876" lon="-3.02562">
        <ele>112.8</ele>
        <time>2021-10-28 14:32:09</time>
      </trkpt>
      <trkpt lat="43.31879" lon="-3.02559">
        <ele>113</ele>
        <time>2021-10-28 14:32:10</time>
      </trkpt>
      <trkpt lat="43.31882" lon="-3.02557">
        <ele>113.2</ele>
        <time>2021-10-28 14:32:11</time>
      </trkpt>
      <trkpt lat="43.31884" lon="-3.02554">
        <ele>113.2</ele>
        <time>2021-10-28 14:32:12</time>
      </trkpt>
      <trkpt lat="43.31887" lon="-3.0255">
        <ele>113.4</ele>
        <time>2021-10-28 14:32:13</time>
      </trkpt>
      <trkpt lat="43.31889" lon="-3.02547">
        <ele>113.6</ele>
        <time>2021-10-28 14:32:14</time>
      </trkpt>
      <trkpt lat="43.31892" lon="-3.02545">
        <ele>113.8</ele>
        <time>2021-10-28 14:32:15</time>
      </trkpt>
      <trkpt lat="43.31898" lon="-3.02539">
        <ele>113.8</ele>
        <time>2021-10-28 14:32:16</time>
      </trkpt>
      <trkpt lat="43.31898" lon="-3.02539">
        <ele>114</ele>
        <time>2021-10-28 14:32:17</time>
      </trkpt>
      <trkpt lat="43.31902" lon="-3.02536">
        <ele>114</ele>
        <time>2021-10-28 14:32:18</time>
      </trkpt>
      <trkpt lat="43.31905" lon="-3.02533">
        <ele>114</ele>
        <time>2021-10-28 14:32:19</time>
      </trkpt>
      <trkpt lat="43.31908" lon="-3.0253">
        <ele>114</ele>
        <time>2021-10-28 14:32:20</time>
      </trkpt>
      <trkpt lat="43.31914" lon="-3.02523">
        <ele>114.2</ele>
        <time>2021-10-28 14:32:21</time>
      </trkpt>
      <trkpt lat="43.31914" lon="-3.02523">
        <ele>114.2</ele>
        <time>2021-10-28 14:32:22</time>
      </trkpt>
      <trkpt lat="43.31917" lon="-3.02521">
        <ele>114.2</ele>
        <time>2021-10-28 14:32:23</time>
      </trkpt>
      <trkpt lat="43.3192" lon="-3.02518">
        <ele>114.2</ele>
        <time>2021-10-28 14:32:24</time>
      </trkpt>
      <trkpt lat="43.31924" lon="-3.02514">
        <ele>114.2</ele>
        <time>2021-10-28 14:32:25</time>
      </trkpt>
      <trkpt lat="43.31928" lon="-3.02511">
        <ele>114</ele>
        <time>2021-10-28 14:32:26</time>
      </trkpt>
      <trkpt lat="43.31932" lon="-3.02508">
        <ele>114</ele>
        <time>2021-10-28 14:32:27</time>
      </trkpt>
      <trkpt lat="43.31935" lon="-3.02506">
        <ele>113.8</ele>
        <time>2021-10-28 14:32:28</time>
      </trkpt>
      <trkpt lat="43.31939" lon="-3.02503">
        <ele>113.8</ele>
        <time>2021-10-28 14:32:29</time>
      </trkpt>
      <trkpt lat="43.31943" lon="-3.02502">
        <ele>113.8</ele>
        <time>2021-10-28 14:32:30</time>
      </trkpt>
      <trkpt lat="43.31948" lon="-3.025">
        <ele>113.8</ele>
        <time>2021-10-28 14:32:31</time>
      </trkpt>
      <trkpt lat="43.31952" lon="-3.02498">
        <ele>113.8</ele>
        <time>2021-10-28 14:32:32</time>
      </trkpt>
      <trkpt lat="43.31956" lon="-3.02497">
        <ele>113.8</ele>
        <time>2021-10-28 14:32:33</time>
      </trkpt>
      <trkpt lat="43.31961" lon="-3.02497">
        <ele>113.8</ele>
        <time>2021-10-28 14:32:34</time>
      </trkpt>
      <trkpt lat="43.31965" lon="-3.02497">
        <ele>113.8</ele>
        <time>2021-10-28 14:32:35</time>
      </trkpt>
      <trkpt lat="43.31969" lon="-3.02499">
        <ele>113.6</ele>
        <time>2021-10-28 14:32:36</time>
      </trkpt>
      <trkpt lat="43.31973" lon="-3.025">
        <ele>113.4</ele>
        <time>2021-10-28 14:32:37</time>
      </trkpt>
      <trkpt lat="43.31977" lon="-3.02501">
        <ele>113.2</ele>
        <time>2021-10-28 14:32:38</time>
      </trkpt>
      <trkpt lat="43.31982" lon="-3.02501">
        <ele>113.2</ele>
        <time>2021-10-28 14:32:39</time>
      </trkpt>
      <trkpt lat="43.31986" lon="-3.02502">
        <ele>113.2</ele>
        <time>2021-10-28 14:32:40</time>
      </trkpt>
      <trkpt lat="43.31994" lon="-3.02506">
        <ele>113</ele>
        <time>2021-10-28 14:32:41</time>
      </trkpt>
      <trkpt lat="43.31994" lon="-3.02506">
        <ele>112.8</ele>
        <time>2021-10-28 14:32:42</time>
      </trkpt>
      <trkpt lat="43.31998" lon="-3.02508">
        <ele>112.6</ele>
        <time>2021-10-28 14:32:43</time>
      </trkpt>
      <trkpt lat="43.32001" lon="-3.02511">
        <ele>112.6</ele>
        <time>2021-10-28 14:32:44</time>
      </trkpt>
      <trkpt lat="43.32001" lon="-3.02511">
        <ele>112.6</ele>
        <time>2021-10-28 14:32:45</time>
      </trkpt>
      <trkpt lat="43.32013" lon="-3.02521">
        <ele>112.6</ele>
        <time>2021-10-28 14:32:46</time>
      </trkpt>
      <trkpt lat="43.32013" lon="-3.02521">
        <ele>112.4</ele>
        <time>2021-10-28 14:32:47</time>
      </trkpt>
      <trkpt lat="43.32017" lon="-3.02525">
        <ele>112.4</ele>
        <time>2021-10-28 14:32:48</time>
      </trkpt>
      <trkpt lat="43.32025" lon="-3.02532">
        <ele>112.4</ele>
        <time>2021-10-28 14:32:49</time>
      </trkpt>
      <trkpt lat="43.32025" lon="-3.02532">
        <ele>112.4</ele>
        <time>2021-10-28 14:32:50</time>
      </trkpt>
      <trkpt lat="43.32029" lon="-3.02536">
        <ele>112.4</ele>
        <time>2021-10-28 14:32:51</time>
      </trkpt>
      <trkpt lat="43.32032" lon="-3.02541">
        <ele>112.4</ele>
        <time>2021-10-28 14:32:52</time>
      </trkpt>
      <trkpt lat="43.32036" lon="-3.02545">
        <ele>112.4</ele>
        <time>2021-10-28 14:32:53</time>
      </trkpt>
      <trkpt lat="43.3204" lon="-3.02549">
        <ele>112.4</ele>
        <time>2021-10-28 14:32:54</time>
      </trkpt>
      <trkpt lat="43.32044" lon="-3.02554">
        <ele>112.4</ele>
        <time>2021-10-28 14:32:55</time>
      </trkpt>
      <trkpt lat="43.32048" lon="-3.02558">
        <ele>112.4</ele>
        <time>2021-10-28 14:32:56</time>
      </trkpt>
      <trkpt lat="43.32051" lon="-3.02563">
        <ele>112.2</ele>
        <time>2021-10-28 14:32:57</time>
      </trkpt>
      <trkpt lat="43.32055" lon="-3.02567">
        <ele>112</ele>
        <time>2021-10-28 14:32:58</time>
      </trkpt>
      <trkpt lat="43.32059" lon="-3.02571">
        <ele>112</ele>
        <time>2021-10-28 14:32:59</time>
      </trkpt>
      <trkpt lat="43.32062" lon="-3.02576">
        <ele>111.8</ele>
        <time>2021-10-28 14:33:00</time>
      </trkpt>
      <trkpt lat="43.32066" lon="-3.0258">
        <ele>111.8</ele>
        <time>2021-10-28 14:33:01</time>
      </trkpt>
      <trkpt lat="43.3207" lon="-3.02585">
        <ele>111.8</ele>
        <time>2021-10-28 14:33:02</time>
      </trkpt>
      <trkpt lat="43.32073" lon="-3.0259">
        <ele>111.6</ele>
        <time>2021-10-28 14:33:03</time>
      </trkpt>
      <trkpt lat="43.32073" lon="-3.0259">
        <ele>111.6</ele>
        <time>2021-10-28 14:33:04</time>
      </trkpt>
      <trkpt lat="43.32079" lon="-3.02599">
        <ele>111.6</ele>
        <time>2021-10-28 14:33:05</time>
      </trkpt>
      <trkpt lat="43.32081" lon="-3.02602">
        <ele>111.6</ele>
        <time>2021-10-28 14:33:06</time>
      </trkpt>
      <trkpt lat="43.32083" lon="-3.02605">
        <ele>111.8</ele>
        <time>2021-10-28 14:33:07</time>
      </trkpt>
      <trkpt lat="43.32085" lon="-3.02607">
        <ele>111.8</ele>
        <time>2021-10-28 14:33:08</time>
      </trkpt>
      <trkpt lat="43.32088" lon="-3.02608">
        <ele>111.8</ele>
        <time>2021-10-28 14:33:09</time>
      </trkpt>
      <trkpt lat="43.32088" lon="-3.02608">
        <ele>111.8</ele>
        <time>2021-10-28 14:33:10</time>
      </trkpt>
      <trkpt lat="43.3209" lon="-3.02607">
        <ele>111.8</ele>
        <time>2021-10-28 14:33:11</time>
      </trkpt>
      <trkpt lat="43.32092" lon="-3.02605">
        <ele>111.8</ele>
        <time>2021-10-28 14:33:12</time>
      </trkpt>
      <trkpt lat="43.32094" lon="-3.02602">
        <ele>111.8</ele>
        <time>2021-10-28 14:33:13</time>
      </trkpt>
      <trkpt lat="43.32097" lon="-3.02598">
        <ele>111.6</ele>
        <time>2021-10-28 14:33:14</time>
      </trkpt>
      <trkpt lat="43.321" lon="-3.02594">
        <ele>111.4</ele>
        <time>2021-10-28 14:33:15</time>
      </trkpt>
      <trkpt lat="43.32103" lon="-3.02589">
        <ele>111.2</ele>
        <time>2021-10-28 14:33:16</time>
      </trkpt>
      <trkpt lat="43.32107" lon="-3.02585">
        <ele>111</ele>
        <time>2021-10-28 14:33:17</time>
      </trkpt>
      <trkpt lat="43.32107" lon="-3.02585">
        <ele>110.6</ele>
        <time>2021-10-28 14:33:18</time>
      </trkpt>
      <trkpt lat="43.32114" lon="-3.02575">
        <ele>110</ele>
        <time>2021-10-28 14:33:19</time>
      </trkpt>
      <trkpt lat="43.32117" lon="-3.02571">
        <ele>109.6</ele>
        <time>2021-10-28 14:33:20</time>
      </trkpt>
      <trkpt lat="43.32117" lon="-3.02571">
        <ele>109</ele>
        <time>2021-10-28 14:33:21</time>
      </trkpt>
      <trkpt lat="43.32125" lon="-3.02564">
        <ele>108.6</ele>
        <time>2021-10-28 14:33:22</time>
      </trkpt>
      <trkpt lat="43.32125" lon="-3.02564">
        <ele>108.4</ele>
        <time>2021-10-28 14:33:23</time>
      </trkpt>
      <trkpt lat="43.32126" lon="-3.02554">
        <ele>108</ele>
        <time>2021-10-28 14:33:24</time>
      </trkpt>
      <trkpt lat="43.32124" lon="-3.02549">
        <ele>108</ele>
        <time>2021-10-28 14:33:25</time>
      </trkpt>
      <trkpt lat="43.3212" lon="-3.02545">
        <ele>107.8</ele>
        <time>2021-10-28 14:33:26</time>
      </trkpt>
      <trkpt lat="43.32117" lon="-3.02541">
        <ele>107.8</ele>
        <time>2021-10-28 14:33:27</time>
      </trkpt>
      <trkpt lat="43.32112" lon="-3.02534">
        <ele>107.8</ele>
        <time>2021-10-28 14:33:28</time>
      </trkpt>
      <trkpt lat="43.32112" lon="-3.02534">
        <ele>107.8</ele>
        <time>2021-10-28 14:33:29</time>
      </trkpt>
      <trkpt lat="43.32109" lon="-3.02529">
        <ele>107.6</ele>
        <time>2021-10-28 14:33:30</time>
      </trkpt>
      <trkpt lat="43.32108" lon="-3.02525">
        <ele>107.6</ele>
        <time>2021-10-28 14:33:31</time>
      </trkpt>
      <trkpt lat="43.32104" lon="-3.02517">
        <ele>107.6</ele>
        <time>2021-10-28 14:33:32</time>
      </trkpt>
      <trkpt lat="43.32104" lon="-3.02517">
        <ele>107.6</ele>
        <time>2021-10-28 14:33:33</time>
      </trkpt>
      <trkpt lat="43.32101" lon="-3.02513">
        <ele>107.6</ele>
        <time>2021-10-28 14:33:34</time>
      </trkpt>
      <trkpt lat="43.32099" lon="-3.02509">
        <ele>107.6</ele>
        <time>2021-10-28 14:33:35</time>
      </trkpt>
      <trkpt lat="43.32096" lon="-3.02506">
        <ele>107.6</ele>
        <time>2021-10-28 14:33:36</time>
      </trkpt>
      <trkpt lat="43.32092" lon="-3.02502">
        <ele>107.6</ele>
        <time>2021-10-28 14:33:37</time>
      </trkpt>
      <trkpt lat="43.32089" lon="-3.02499">
        <ele>107.4</ele>
        <time>2021-10-28 14:33:38</time>
      </trkpt>
      <trkpt lat="43.32086" lon="-3.02495">
        <ele>107.4</ele>
        <time>2021-10-28 14:33:39</time>
      </trkpt>
      <trkpt lat="43.32083" lon="-3.02491">
        <ele>107.2</ele>
        <time>2021-10-28 14:33:40</time>
      </trkpt>
      <trkpt lat="43.3208" lon="-3.02487">
        <ele>107.2</ele>
        <time>2021-10-28 14:33:41</time>
      </trkpt>
      <trkpt lat="43.32077" lon="-3.02484">
        <ele>107</ele>
        <time>2021-10-28 14:33:42</time>
      </trkpt>
      <trkpt lat="43.32074" lon="-3.02481">
        <ele>107</ele>
        <time>2021-10-28 14:33:43</time>
      </trkpt>
      <trkpt lat="43.32071" lon="-3.02479">
        <ele>107</ele>
        <time>2021-10-28 14:33:44</time>
      </trkpt>
      <trkpt lat="43.32068" lon="-3.02476">
        <ele>107</ele>
        <time>2021-10-28 14:33:45</time>
      </trkpt>
      <trkpt lat="43.32065" lon="-3.02474">
        <ele>107</ele>
        <time>2021-10-28 14:33:46</time>
      </trkpt>
      <trkpt lat="43.32062" lon="-3.02472">
        <ele>106.8</ele>
        <time>2021-10-28 14:33:47</time>
      </trkpt>
      <trkpt lat="43.32059" lon="-3.02468">
        <ele>106.6</ele>
        <time>2021-10-28 14:33:48</time>
      </trkpt>
      <trkpt lat="43.32056" lon="-3.02466">
        <ele>106.6</ele>
        <time>2021-10-28 14:33:49</time>
      </trkpt>
      <trkpt lat="43.32053" lon="-3.02463">
        <ele>106.4</ele>
        <time>2021-10-28 14:33:50</time>
      </trkpt>
      <trkpt lat="43.3205" lon="-3.02459">
        <ele>106.4</ele>
        <time>2021-10-28 14:33:51</time>
      </trkpt>
      <trkpt lat="43.32046" lon="-3.02456">
        <ele>106.2</ele>
        <time>2021-10-28 14:33:52</time>
      </trkpt>
      <trkpt lat="43.32042" lon="-3.02452">
        <ele>106.2</ele>
        <time>2021-10-28 14:33:53</time>
      </trkpt>
      <trkpt lat="43.32035" lon="-3.02446">
        <ele>106</ele>
        <time>2021-10-28 14:33:54</time>
      </trkpt>
      <trkpt lat="43.32035" lon="-3.02446">
        <ele>105.8</ele>
        <time>2021-10-28 14:33:55</time>
      </trkpt>
      <trkpt lat="43.32031" lon="-3.02443">
        <ele>105.8</ele>
        <time>2021-10-28 14:33:56</time>
      </trkpt>
      <trkpt lat="43.32028" lon="-3.0244">
        <ele>105.8</ele>
        <time>2021-10-28 14:33:57</time>
      </trkpt>
      <trkpt lat="43.32021" lon="-3.02438">
        <ele>105.6</ele>
        <time>2021-10-28 14:33:58</time>
      </trkpt>
      <trkpt lat="43.32021" lon="-3.02438">
        <ele>105.6</ele>
        <time>2021-10-28 14:33:59</time>
      </trkpt>
      <trkpt lat="43.3202" lon="-3.02436">
        <ele>105.6</ele>
        <time>2021-10-28 14:34:00</time>
      </trkpt>
      <trkpt lat="43.32019" lon="-3.02434">
        <ele>105.6</ele>
        <time>2021-10-28 14:34:01</time>
      </trkpt>
      <trkpt lat="43.32019" lon="-3.02433">
        <ele>105.6</ele>
        <time>2021-10-28 14:34:02</time>
      </trkpt>
      <trkpt lat="43.3202" lon="-3.02431">
        <ele>105.4</ele>
        <time>2021-10-28 14:34:03</time>
      </trkpt>
      <trkpt lat="43.3202" lon="-3.02429">
        <ele>105.4</ele>
        <time>2021-10-28 14:34:04</time>
      </trkpt>
      <trkpt lat="43.3202" lon="-3.02428">
        <ele>105.2</ele>
        <time>2021-10-28 14:34:05</time>
      </trkpt>
      <trkpt lat="43.32019" lon="-3.02427">
        <ele>105.2</ele>
        <time>2021-10-28 14:34:06</time>
      </trkpt>
      <trkpt lat="43.32019" lon="-3.02425">
        <ele>105.2</ele>
        <time>2021-10-28 14:34:07</time>
      </trkpt>
      <trkpt lat="43.32018" lon="-3.02423">
        <ele>105.2</ele>
        <time>2021-10-28 14:34:08</time>
      </trkpt>
      <trkpt lat="43.32017" lon="-3.0242">
        <ele>105.2</ele>
        <time>2021-10-28 14:34:09</time>
      </trkpt>
      <trkpt lat="43.32016" lon="-3.02417">
        <ele>105</ele>
        <time>2021-10-28 14:34:10</time>
      </trkpt>
      <trkpt lat="43.32016" lon="-3.02416">
        <ele>105</ele>
        <time>2021-10-28 14:34:11</time>
      </trkpt>
      <trkpt lat="43.32016" lon="-3.02416">
        <ele>105</ele>
        <time>2021-10-28 14:34:12</time>
      </trkpt>
      <trkpt lat="43.32015" lon="-3.02414">
        <ele>105</ele>
        <time>2021-10-28 14:34:13</time>
      </trkpt>
      <trkpt lat="43.32015" lon="-3.02413">
        <ele>105.2</ele>
        <time>2021-10-28 14:34:14</time>
      </trkpt>
      <trkpt lat="43.32015" lon="-3.02413">
        <ele>105.2</ele>
        <time>2021-10-28 14:34:15</time>
      </trkpt>
      <trkpt lat="43.32015" lon="-3.02412">
        <ele>105.2</ele>
        <time>2021-10-28 14:34:16</time>
      </trkpt>
      <trkpt lat="43.32015" lon="-3.02411">
        <ele>105.2</ele>
        <time>2021-10-28 14:34:17</time>
      </trkpt>
      <trkpt lat="43.32015" lon="-3.02411">
        <ele>105.2</ele>
        <time>2021-10-28 14:34:18</time>
      </trkpt>
      <trkpt lat="43.32016" lon="-3.02411">
        <ele>105.2</ele>
        <time>2021-10-28 14:34:19</time>
      </trkpt>
      <trkpt lat="43.32047" lon="-3.024">
        <ele>107</ele>
        <time>2021-10-28 14:34:20</time>
      </trkpt>
      <trkpt lat="43.3205" lon="-3.02398">
        <ele>107</ele>
        <time>2021-10-28 14:34:21</time>
      </trkpt>
      <trkpt lat="43.3205" lon="-3.02398">
        <ele>107</ele>
        <time>2021-10-28 14:34:22</time>
      </trkpt>
      <trkpt lat="43.32051" lon="-3.02397">
        <ele>106.8</ele>
        <time>2021-10-28 14:34:23</time>
      </trkpt>
      <trkpt lat="43.32051" lon="-3.02397">
        <ele>106.6</ele>
        <time>2021-10-28 14:34:24</time>
      </trkpt>
      <trkpt lat="43.3208" lon="-3.02474">
        <time>2021-10-28 16:30:17</time>
      </trkpt>
      <trkpt lat="43.32085" lon="-3.02481">
        <time>2021-10-28 16:30:18</time>
      </trkpt>
      <trkpt lat="43.32085" lon="-3.02481">
        <time>2021-10-28 16:30:19</time>
      </trkpt>
      <trkpt lat="43.32087" lon="-3.02485">
        <time>2021-10-28 16:30:20</time>
      </trkpt>
      <trkpt lat="43.3209" lon="-3.02488">
        <time>2021-10-28 16:30:21</time>
      </trkpt>
      <trkpt lat="43.32093" lon="-3.02492">
        <time>2021-10-28 16:30:22</time>
      </trkpt>
      <trkpt lat="43.32095" lon="-3.02496">
        <time>2021-10-28 16:30:23</time>
      </trkpt>
      <trkpt lat="43.32101" lon="-3.02504">
        <time>2021-10-28 16:30:24</time>
      </trkpt>
      <trkpt lat="43.32101" lon="-3.02504">
        <time>2021-10-28 16:30:25</time>
      </trkpt>
      <trkpt lat="43.32106" lon="-3.02512">
        <time>2021-10-28 16:30:26</time>
      </trkpt>
      <trkpt lat="43.32106" lon="-3.02512">
        <ele>94</ele>
        <time>2021-10-28 16:30:27</time>
      </trkpt>
      <trkpt lat="43.32109" lon="-3.02515">
        <ele>94</ele>
        <time>2021-10-28 16:30:28</time>
      </trkpt>
      <trkpt lat="43.32111" lon="-3.02519">
        <ele>94</ele>
        <time>2021-10-28 16:30:29</time>
      </trkpt>
      <trkpt lat="43.32113" lon="-3.02523">
        <ele>94</ele>
        <time>2021-10-28 16:30:30</time>
      </trkpt>
      <trkpt lat="43.32115" lon="-3.02527">
        <ele>94</ele>
        <time>2021-10-28 16:30:31</time>
      </trkpt>
      <trkpt lat="43.32117" lon="-3.02534">
        <ele>94</ele>
        <time>2021-10-28 16:30:32</time>
      </trkpt>
      <trkpt lat="43.32119" lon="-3.02537">
        <ele>94</ele>
        <time>2021-10-28 16:30:33</time>
      </trkpt>
      <trkpt lat="43.32119" lon="-3.02537">
        <ele>94</ele>
        <time>2021-10-28 16:30:34</time>
      </trkpt>
      <trkpt lat="43.32122" lon="-3.0254">
        <ele>94</ele>
        <time>2021-10-28 16:30:35</time>
      </trkpt>
      <trkpt lat="43.32126" lon="-3.02547">
        <ele>94</ele>
        <time>2021-10-28 16:30:36</time>
      </trkpt>
      <trkpt lat="43.32126" lon="-3.02547">
        <ele>94</ele>
        <time>2021-10-28 16:30:37</time>
      </trkpt>
      <trkpt lat="43.32128" lon="-3.02552">
        <ele>94</ele>
        <time>2021-10-28 16:30:38</time>
      </trkpt>
      <trkpt lat="43.32131" lon="-3.02559">
        <ele>94</ele>
        <time>2021-10-28 16:30:39</time>
      </trkpt>
      <trkpt lat="43.32131" lon="-3.02559">
        <ele>94</ele>
        <time>2021-10-28 16:30:40</time>
      </trkpt>
      <trkpt lat="43.32131" lon="-3.02559">
        <ele>94</ele>
        <time>2021-10-28 16:30:41</time>
      </trkpt>
      <trkpt lat="43.32135" lon="-3.02564">
        <ele>94</ele>
        <time>2021-10-28 16:30:42</time>
      </trkpt>
      <trkpt lat="43.32134" lon="-3.02569">
        <ele>94</ele>
        <time>2021-10-28 16:30:43</time>
      </trkpt>
      <trkpt lat="43.32134" lon="-3.02569">
        <ele>94.2</ele>
        <time>2021-10-28 16:30:44</time>
      </trkpt>
      <trkpt lat="43.32133" lon="-3.02574">
        <ele>94.2</ele>
        <time>2021-10-28 16:30:45</time>
      </trkpt>
      <trkpt lat="43.3213" lon="-3.02576">
        <ele>94.4</ele>
        <time>2021-10-28 16:30:46</time>
      </trkpt>
      <trkpt lat="43.32123" lon="-3.02584">
        <ele>94.4</ele>
        <time>2021-10-28 16:30:47</time>
      </trkpt>
      <trkpt lat="43.32118" lon="-3.02586">
        <ele>94.6</ele>
        <time>2021-10-28 16:30:48</time>
      </trkpt>
      <trkpt lat="43.32118" lon="-3.02586">
        <ele>94.8</ele>
        <time>2021-10-28 16:30:49</time>
      </trkpt>
      <trkpt lat="43.32114" lon="-3.02589">
        <ele>95.2</ele>
        <time>2021-10-28 16:30:50</time>
      </trkpt>
      <trkpt lat="43.32108" lon="-3.02593">
        <ele>95.6</ele>
        <time>2021-10-28 16:30:51</time>
      </trkpt>
      <trkpt lat="43.32108" lon="-3.02593">
        <ele>96</ele>
        <time>2021-10-28 16:30:52</time>
      </trkpt>
      <trkpt lat="43.32105" lon="-3.02598">
        <ele>96.4</ele>
        <time>2021-10-28 16:30:53</time>
      </trkpt>
      <trkpt lat="43.32099" lon="-3.02604">
        <ele>96.8</ele>
        <time>2021-10-28 16:30:54</time>
      </trkpt>
      <trkpt lat="43.32099" lon="-3.02604">
        <ele>97.4</ele>
        <time>2021-10-28 16:30:55</time>
      </trkpt>
      <trkpt lat="43.32093" lon="-3.02612">
        <ele>97.8</ele>
        <time>2021-10-28 16:30:56</time>
      </trkpt>
      <trkpt lat="43.32093" lon="-3.02612">
        <ele>98.2</ele>
        <time>2021-10-28 16:30:57</time>
      </trkpt>
      <trkpt lat="43.32089" lon="-3.02614">
        <ele>98.8</ele>
        <time>2021-10-28 16:30:58</time>
      </trkpt>
      <trkpt lat="43.32086" lon="-3.02613">
        <ele>99</ele>
        <time>2021-10-28 16:30:59</time>
      </trkpt>
      <trkpt lat="43.32086" lon="-3.02614">
        <ele>99.2</ele>
        <time>2021-10-28 16:31:00</time>
      </trkpt>
      <trkpt lat="43.32083" lon="-3.0261">
        <ele>99.2</ele>
        <time>2021-10-28 16:31:01</time>
      </trkpt>
      <trkpt lat="43.32076" lon="-3.02602">
        <ele>99</ele>
        <time>2021-10-28 16:31:02</time>
      </trkpt>
      <trkpt lat="43.32076" lon="-3.02602">
        <ele>99</ele>
        <time>2021-10-28 16:31:03</time>
      </trkpt>
      <trkpt lat="43.32071" lon="-3.02591">
        <ele>98.6</ele>
        <time>2021-10-28 16:31:04</time>
      </trkpt>
      <trkpt lat="43.32071" lon="-3.02591">
        <ele>98.4</ele>
        <time>2021-10-28 16:31:05</time>
      </trkpt>
      <trkpt lat="43.32067" lon="-3.02586">
        <ele>98.4</ele>
        <time>2021-10-28 16:31:06</time>
      </trkpt>
      <trkpt lat="43.32065" lon="-3.02582">
        <ele>98.4</ele>
        <time>2021-10-28 16:31:07</time>
      </trkpt>
      <trkpt lat="43.3206" lon="-3.02579">
        <ele>98.4</ele>
        <time>2021-10-28 16:31:08</time>
      </trkpt>
      <trkpt lat="43.32057" lon="-3.02574">
        <ele>98.4</ele>
        <time>2021-10-28 16:31:09</time>
      </trkpt>
      <trkpt lat="43.32053" lon="-3.02571">
        <ele>98.4</ele>
        <time>2021-10-28 16:31:10</time>
      </trkpt>
      <trkpt lat="43.32049" lon="-3.02567">
        <ele>98.4</ele>
        <time>2021-10-28 16:31:11</time>
      </trkpt>
      <trkpt lat="43.32049" lon="-3.02567">
        <ele>98.4</ele>
        <time>2021-10-28 16:31:12</time>
      </trkpt>
      <trkpt lat="43.32044" lon="-3.02562">
        <ele>98.4</ele>
        <time>2021-10-28 16:31:13</time>
      </trkpt>
      <trkpt lat="43.3204" lon="-3.02557">
        <ele>98.4</ele>
        <time>2021-10-28 16:31:14</time>
      </trkpt>
      <trkpt lat="43.32038" lon="-3.02554">
        <ele>98.4</ele>
        <time>2021-10-28 16:31:15</time>
      </trkpt>
      <trkpt lat="43.32034" lon="-3.02547">
        <ele>98.4</ele>
        <time>2021-10-28 16:31:16</time>
      </trkpt>
      <trkpt lat="43.32034" lon="-3.02547">
        <ele>98.4</ele>
        <time>2021-10-28 16:31:17</time>
      </trkpt>
      <trkpt lat="43.32034" lon="-3.02547">
        <ele>98.4</ele>
        <time>2021-10-28 16:31:18</time>
      </trkpt>
      <trkpt lat="43.32024" lon="-3.02537">
        <ele>98.4</ele>
        <time>2021-10-28 16:31:19</time>
      </trkpt>
      <trkpt lat="43.32019" lon="-3.02531">
        <ele>98.4</ele>
        <time>2021-10-28 16:31:20</time>
      </trkpt>
      <trkpt lat="43.32019" lon="-3.02531">
        <ele>98.4</ele>
        <time>2021-10-28 16:31:21</time>
      </trkpt>
      <trkpt lat="43.32019" lon="-3.02531">
        <ele>98.6</ele>
        <time>2021-10-28 16:31:22</time>
      </trkpt>
      <trkpt lat="43.32016" lon="-3.02526">
        <ele>98.6</ele>
        <time>2021-10-28 16:31:23</time>
      </trkpt>
      <trkpt lat="43.32012" lon="-3.02517">
        <ele>98.6</ele>
        <time>2021-10-28 16:31:24</time>
      </trkpt>
      <trkpt lat="43.32009" lon="-3.02513">
        <ele>98.8</ele>
        <time>2021-10-28 16:31:25</time>
      </trkpt>
      <trkpt lat="43.32009" lon="-3.02513">
        <ele>98.8</ele>
        <time>2021-10-28 16:31:26</time>
      </trkpt>
      <trkpt lat="43.32003" lon="-3.02506">
        <ele>99</ele>
        <time>2021-10-28 16:31:27</time>
      </trkpt>
      <trkpt lat="43.32" lon="-3.02505">
        <ele>99</ele>
        <time>2021-10-28 16:31:28</time>
      </trkpt>
      <trkpt lat="43.32" lon="-3.02505">
        <ele>99.2</ele>
        <time>2021-10-28 16:31:29</time>
      </trkpt>
      <trkpt lat="43.31997" lon="-3.02503">
        <ele>99.2</ele>
        <time>2021-10-28 16:31:30</time>
      </trkpt>
      <trkpt lat="43.31989" lon="-3.02501">
        <ele>99.2</ele>
        <time>2021-10-28 16:31:31</time>
      </trkpt>
      <trkpt lat="43.31986" lon="-3.02499">
        <ele>99.4</ele>
        <time>2021-10-28 16:31:32</time>
      </trkpt>
      <trkpt lat="43.31986" lon="-3.02499">
        <ele>99.4</ele>
        <time>2021-10-28 16:31:33</time>
      </trkpt>
      <trkpt lat="43.31983" lon="-3.02497">
        <ele>99.4</ele>
        <time>2021-10-28 16:31:34</time>
      </trkpt>
      <trkpt lat="43.31978" lon="-3.02494">
        <ele>99.4</ele>
        <time>2021-10-28 16:31:35</time>
      </trkpt>
      <trkpt lat="43.31978" lon="-3.02494">
        <ele>99.4</ele>
        <time>2021-10-28 16:31:36</time>
      </trkpt>
      <trkpt lat="43.31976" lon="-3.02495">
        <ele>99.4</ele>
        <time>2021-10-28 16:31:37</time>
      </trkpt>
      <trkpt lat="43.3197" lon="-3.02494">
        <ele>99.4</ele>
        <time>2021-10-28 16:31:38</time>
      </trkpt>
      <trkpt lat="43.31968" lon="-3.02495">
        <ele>99.4</ele>
        <time>2021-10-28 16:31:39</time>
      </trkpt>
      <trkpt lat="43.31968" lon="-3.02495">
        <ele>99.6</ele>
        <time>2021-10-28 16:31:40</time>
      </trkpt>
      <trkpt lat="43.31966" lon="-3.02499">
        <ele>99.8</ele>
        <time>2021-10-28 16:31:41</time>
      </trkpt>
      <trkpt lat="43.31959" lon="-3.02497">
        <ele>100</ele>
        <time>2021-10-28 16:31:42</time>
      </trkpt>
      <trkpt lat="43.31957" lon="-3.02498">
        <ele>100.2</ele>
        <time>2021-10-28 16:31:43</time>
      </trkpt>
      <trkpt lat="43.31951" lon="-3.02499">
        <ele>100.2</ele>
        <time>2021-10-28 16:31:44</time>
      </trkpt>
      <trkpt lat="43.31947" lon="-3.02505">
        <ele>100.4</ele>
        <time>2021-10-28 16:31:45</time>
      </trkpt>
      <trkpt lat="43.31945" lon="-3.02509">
        <ele>100.4</ele>
        <time>2021-10-28 16:31:46</time>
      </trkpt>
      <trkpt lat="43.31945" lon="-3.02509">
        <ele>100.4</ele>
        <time>2021-10-28 16:31:47</time>
      </trkpt>
      <trkpt lat="43.3194" lon="-3.02512">
        <ele>100.4</ele>
        <time>2021-10-28 16:31:48</time>
      </trkpt>
      <trkpt lat="43.31932" lon="-3.02517">
        <ele>100.4</ele>
        <time>2021-10-28 16:31:49</time>
      </trkpt>
      <trkpt lat="43.31932" lon="-3.02517">
        <ele>100.4</ele>
        <time>2021-10-28 16:31:50</time>
      </trkpt>
      <trkpt lat="43.31929" lon="-3.02523">
        <ele>100.4</ele>
        <time>2021-10-28 16:31:51</time>
      </trkpt>
      <trkpt lat="43.31921" lon="-3.0253">
        <ele>100.2</ele>
        <time>2021-10-28 16:31:52</time>
      </trkpt>
      <trkpt lat="43.31921" lon="-3.0253">
        <ele>100.2</ele>
        <time>2021-10-28 16:31:53</time>
      </trkpt>
      <trkpt lat="43.31914" lon="-3.02536">
        <ele>100.2</ele>
        <time>2021-10-28 16:31:54</time>
      </trkpt>
      <trkpt lat="43.31914" lon="-3.02536">
        <ele>100.4</ele>
        <time>2021-10-28 16:31:55</time>
      </trkpt>
      <trkpt lat="43.31912" lon="-3.02539">
        <ele>100.4</ele>
        <time>2021-10-28 16:31:56</time>
      </trkpt>
      <trkpt lat="43.31906" lon="-3.02543">
        <ele>100.6</ele>
        <time>2021-10-28 16:31:57</time>
      </trkpt>
      <trkpt lat="43.31902" lon="-3.02546">
        <ele>100.8</ele>
        <time>2021-10-28 16:31:58</time>
      </trkpt>
      <trkpt lat="43.31897" lon="-3.02553">
        <ele>100.8</ele>
        <time>2021-10-28 16:31:59</time>
      </trkpt>
      <trkpt lat="43.31897" lon="-3.02553">
        <ele>100.8</ele>
        <time>2021-10-28 16:32:00</time>
      </trkpt>
      <trkpt lat="43.3189" lon="-3.02557">
        <ele>101</ele>
        <time>2021-10-28 16:32:01</time>
      </trkpt>
      <trkpt lat="43.31887" lon="-3.0256">
        <ele>101</ele>
        <time>2021-10-28 16:32:02</time>
      </trkpt>
      <trkpt lat="43.31887" lon="-3.0256">
        <ele>101</ele>
        <time>2021-10-28 16:32:03</time>
      </trkpt>
      <trkpt lat="43.31879" lon="-3.02566">
        <ele>101</ele>
        <time>2021-10-28 16:32:04</time>
      </trkpt>
      <trkpt lat="43.31874" lon="-3.02572">
        <ele>101</ele>
        <time>2021-10-28 16:32:05</time>
      </trkpt>
      <trkpt lat="43.31874" lon="-3.02572">
        <ele>100.6</ele>
        <time>2021-10-28 16:32:06</time>
      </trkpt>
      <trkpt lat="43.31869" lon="-3.02574">
        <ele>100.4</ele>
        <time>2021-10-28 16:32:07</time>
      </trkpt>
      <trkpt lat="43.31858" lon="-3.02584">
        <ele>100</ele>
        <time>2021-10-28 16:32:08</time>
      </trkpt>
      <trkpt lat="43.31858" lon="-3.02584">
        <ele>99.8</ele>
        <time>2021-10-28 16:32:09</time>
      </trkpt>
      <trkpt lat="43.31853" lon="-3.02589">
        <ele>99.6</ele>
        <time>2021-10-28 16:32:10</time>
      </trkpt>
      <trkpt lat="43.31841" lon="-3.02593">
        <ele>99.6</ele>
        <time>2021-10-28 16:32:11</time>
      </trkpt>
      <trkpt lat="43.31841" lon="-3.02593">
        <ele>99.4</ele>
        <time>2021-10-28 16:32:12</time>
      </trkpt>
      <trkpt lat="43.31836" lon="-3.02599">
        <ele>99.2</ele>
        <time>2021-10-28 16:32:13</time>
      </trkpt>
      <trkpt lat="43.3183" lon="-3.026">
        <ele>99.2</ele>
        <time>2021-10-28 16:32:14</time>
      </trkpt>
      <trkpt lat="43.31823" lon="-3.02603">
        <ele>99.2</ele>
        <time>2021-10-28 16:32:15</time>
      </trkpt>
      <trkpt lat="43.31822" lon="-3.02606">
        <ele>99.2</ele>
        <time>2021-10-28 16:32:16</time>
      </trkpt>
      <trkpt lat="43.31822" lon="-3.02606">
        <ele>99.2</ele>
        <time>2021-10-28 16:32:17</time>
      </trkpt>
      <trkpt lat="43.31817" lon="-3.02608">
        <ele>99</ele>
        <time>2021-10-28 16:32:18</time>
      </trkpt>
      <trkpt lat="43.31816" lon="-3.02615">
        <ele>99</ele>
        <time>2021-10-28 16:32:19</time>
      </trkpt>
      <trkpt lat="43.31816" lon="-3.02615">
        <ele>98.8</ele>
        <time>2021-10-28 16:32:20</time>
      </trkpt>
      <trkpt lat="43.31815" lon="-3.02615">
        <ele>98.6</ele>
        <time>2021-10-28 16:32:21</time>
      </trkpt>
      <trkpt lat="43.31817" lon="-3.02619">
        <ele>98.6</ele>
        <time>2021-10-28 16:32:22</time>
      </trkpt>
      <trkpt lat="43.31817" lon="-3.02619">
        <ele>98.4</ele>
        <time>2021-10-28 16:32:23</time>
      </trkpt>
      <trkpt lat="43.31817" lon="-3.02621">
        <ele>98.4</ele>
        <time>2021-10-28 16:32:24</time>
      </trkpt>
      <trkpt lat="43.31817" lon="-3.02621">
        <ele>98.4</ele>
        <time>2021-10-28 16:32:25</time>
      </trkpt>
      <trkpt lat="43.3182" lon="-3.02628">
        <ele>98.6</ele>
        <time>2021-10-28 16:32:26</time>
      </trkpt>
      <trkpt lat="43.3182" lon="-3.02628">
        <ele>98.6</ele>
        <time>2021-10-28 16:32:27</time>
      </trkpt>
      <trkpt lat="43.31821" lon="-3.02632">
        <ele>98.6</ele>
        <time>2021-10-28 16:32:28</time>
      </trkpt>
      <trkpt lat="43.31824" lon="-3.02636">
        <ele>98.6</ele>
        <time>2021-10-28 16:32:29</time>
      </trkpt>
      <trkpt lat="43.31829" lon="-3.02645">
        <ele>98.8</ele>
        <time>2021-10-28 16:32:30</time>
      </trkpt>
      <trkpt lat="43.31829" lon="-3.02645">
        <ele>99</ele>
        <time>2021-10-28 16:32:31</time>
      </trkpt>
      <trkpt lat="43.3183" lon="-3.02649">
        <ele>99.2</ele>
        <time>2021-10-28 16:32:32</time>
      </trkpt>
      <trkpt lat="43.31833" lon="-3.02663">
        <ele>99.6</ele>
        <time>2021-10-28 16:32:33</time>
      </trkpt>
      <trkpt lat="43.31833" lon="-3.02663">
        <ele>99.8</ele>
        <time>2021-10-28 16:32:34</time>
      </trkpt>
      <trkpt lat="43.31837" lon="-3.02668">
        <ele>100</ele>
        <time>2021-10-28 16:32:35</time>
      </trkpt>
      <trkpt lat="43.31838" lon="-3.02679">
        <ele>100</ele>
        <time>2021-10-28 16:32:36</time>
      </trkpt>
      <trkpt lat="43.31838" lon="-3.02679">
        <ele>100.2</ele>
        <time>2021-10-28 16:32:37</time>
      </trkpt>
      <trkpt lat="43.31838" lon="-3.02679">
        <ele>100.4</ele>
        <time>2021-10-28 16:32:38</time>
      </trkpt>
      <trkpt lat="43.31842" lon="-3.02694">
        <ele>100.6</ele>
        <time>2021-10-28 16:32:39</time>
      </trkpt>
      <trkpt lat="43.31844" lon="-3.02703">
        <ele>100.8</ele>
        <time>2021-10-28 16:32:40</time>
      </trkpt>
      <trkpt lat="43.31844" lon="-3.02703">
        <ele>100.8</ele>
        <time>2021-10-28 16:32:41</time>
      </trkpt>
      <trkpt lat="43.31849" lon="-3.02711">
        <ele>101</ele>
        <time>2021-10-28 16:32:42</time>
      </trkpt>
      <trkpt lat="43.31849" lon="-3.02718">
        <ele>101.2</ele>
        <time>2021-10-28 16:32:43</time>
      </trkpt>
      <trkpt lat="43.31848" lon="-3.02722">
        <ele>101.4</ele>
        <time>2021-10-28 16:32:44</time>
      </trkpt>
      <trkpt lat="43.31845" lon="-3.02725">
        <ele>101.6</ele>
        <time>2021-10-28 16:32:45</time>
      </trkpt>
      <trkpt lat="43.31845" lon="-3.02725">
        <ele>101.8</ele>
        <time>2021-10-28 16:32:46</time>
      </trkpt>
      <trkpt lat="43.31842" lon="-3.02727">
        <ele>101.8</ele>
        <time>2021-10-28 16:32:47</time>
      </trkpt>
      <trkpt lat="43.31835" lon="-3.02722">
        <ele>101.8</ele>
        <time>2021-10-28 16:32:48</time>
      </trkpt>
      <trkpt lat="43.31833" lon="-3.02716">
        <ele>101.8</ele>
        <time>2021-10-28 16:32:49</time>
      </trkpt>
      <trkpt lat="43.31833" lon="-3.02716">
        <ele>101.6</ele>
        <time>2021-10-28 16:32:50</time>
      </trkpt>
      <trkpt lat="43.31828" lon="-3.027">
        <ele>101.6</ele>
        <time>2021-10-28 16:32:51</time>
      </trkpt>
      <trkpt lat="43.31828" lon="-3.027">
        <ele>101.6</ele>
        <time>2021-10-28 16:32:52</time>
      </trkpt>
      <trkpt lat="43.31825" lon="-3.02694">
        <ele>101.6</ele>
        <time>2021-10-28 16:32:53</time>
      </trkpt>
      <trkpt lat="43.31821" lon="-3.02687">
        <ele>101.2</ele>
        <time>2021-10-28 16:32:54</time>
      </trkpt>
      <trkpt lat="43.31814" lon="-3.02672">
        <ele>100.8</ele>
        <time>2021-10-28 16:32:55</time>
      </trkpt>
      <trkpt lat="43.31814" lon="-3.02672">
        <ele>100.4</ele>
        <time>2021-10-28 16:32:56</time>
      </trkpt>
      <trkpt lat="43.31812" lon="-3.02666">
        <ele>100</ele>
        <time>2021-10-28 16:32:57</time>
      </trkpt>
      <trkpt lat="43.31802" lon="-3.02647">
        <ele>99.4</ele>
        <time>2021-10-28 16:32:58</time>
      </trkpt>
      <trkpt lat="43.31802" lon="-3.02647">
        <ele>98.6</ele>
        <time>2021-10-28 16:32:59</time>
      </trkpt>
      <trkpt lat="43.31791" lon="-3.02632">
        <ele>97.8</ele>
        <time>2021-10-28 16:33:00</time>
      </trkpt>
      <trkpt lat="43.31791" lon="-3.02632">
        <ele>97.2</ele>
        <time>2021-10-28 16:33:01</time>
      </trkpt>
      <trkpt lat="43.31786" lon="-3.02626">
        <ele>96.4</ele>
        <time>2021-10-28 16:33:02</time>
      </trkpt>
      <trkpt lat="43.31781" lon="-3.0262">
        <ele>95.6</ele>
        <time>2021-10-28 16:33:03</time>
      </trkpt>
      <trkpt lat="43.3177" lon="-3.02604">
        <ele>95</ele>
        <time>2021-10-28 16:33:04</time>
      </trkpt>
      <trkpt lat="43.3177" lon="-3.02604">
        <ele>94.2</ele>
        <time>2021-10-28 16:33:05</time>
      </trkpt>
      <trkpt lat="43.31763" lon="-3.02596">
        <ele>93.6</ele>
        <time>2021-10-28 16:33:06</time>
      </trkpt>
      <trkpt lat="43.31757" lon="-3.02589">
        <ele>93</ele>
        <time>2021-10-28 16:33:07</time>
      </trkpt>
      <trkpt lat="43.31753" lon="-3.02585">
        <ele>92.4</ele>
        <time>2021-10-28 16:33:08</time>
      </trkpt>
      <trkpt lat="43.3174" lon="-3.02574">
        <ele>92</ele>
        <time>2021-10-28 16:33:09</time>
      </trkpt>
      <trkpt lat="43.3174" lon="-3.02574">
        <ele>91.6</ele>
        <time>2021-10-28 16:33:10</time>
      </trkpt>
      <trkpt lat="43.31733" lon="-3.02572">
        <ele>91</ele>
        <time>2021-10-28 16:33:11</time>
      </trkpt>
      <trkpt lat="43.3172" lon="-3.02567">
        <ele>90.2</ele>
        <time>2021-10-28 16:33:12</time>
      </trkpt>
      <trkpt lat="43.31714" lon="-3.02566">
        <ele>89.6</ele>
        <time>2021-10-28 16:33:13</time>
      </trkpt>
      <trkpt lat="43.31714" lon="-3.02566">
        <ele>89</ele>
        <time>2021-10-28 16:33:14</time>
      </trkpt>
      <trkpt lat="43.31708" lon="-3.02563">
        <ele>88.4</ele>
        <time>2021-10-28 16:33:15</time>
      </trkpt>
      <trkpt lat="43.31695" lon="-3.02554">
        <ele>87.6</ele>
        <time>2021-10-28 16:33:16</time>
      </trkpt>
      <trkpt lat="43.31689" lon="-3.0255">
        <ele>87</ele>
        <time>2021-10-28 16:33:17</time>
      </trkpt>
      <trkpt lat="43.31689" lon="-3.0255">
        <ele>86.6</ele>
        <time>2021-10-28 16:33:18</time>
      </trkpt>
      <trkpt lat="43.31682" lon="-3.02541">
        <ele>86</ele>
        <time>2021-10-28 16:33:19</time>
      </trkpt>
      <trkpt lat="43.31679" lon="-3.02539">
        <ele>85.6</ele>
        <time>2021-10-28 16:33:20</time>
      </trkpt>
      <trkpt lat="43.31679" lon="-3.02539">
        <ele>85</ele>
        <time>2021-10-28 16:33:21</time>
      </trkpt>
      <trkpt lat="43.31674" lon="-3.02535">
        <ele>84.4</ele>
        <time>2021-10-28 16:33:22</time>
      </trkpt>
      <trkpt lat="43.31671" lon="-3.02532">
        <ele>84.2</ele>
        <time>2021-10-28 16:33:23</time>
      </trkpt>
      <trkpt lat="43.31664" lon="-3.02529">
        <ele>83.8</ele>
        <time>2021-10-28 16:33:24</time>
      </trkpt>
      <trkpt lat="43.31664" lon="-3.02529">
        <ele>83.6</ele>
        <time>2021-10-28 16:33:25</time>
      </trkpt>
      <trkpt lat="43.31657" lon="-3.02522">
        <ele>83.4</ele>
        <time>2021-10-28 16:33:26</time>
      </trkpt>
      <trkpt lat="43.31652" lon="-3.02519">
        <ele>83.2</ele>
        <time>2021-10-28 16:33:27</time>
      </trkpt>
      <trkpt lat="43.31645" lon="-3.02512">
        <ele>82.8</ele>
        <time>2021-10-28 16:33:28</time>
      </trkpt>
      <trkpt lat="43.31645" lon="-3.02512">
        <ele>82.4</ele>
        <time>2021-10-28 16:33:29</time>
      </trkpt>
      <trkpt lat="43.3164" lon="-3.02508">
        <ele>81.8</ele>
        <time>2021-10-28 16:33:30</time>
      </trkpt>
      <trkpt lat="43.31636" lon="-3.02503">
        <ele>81.2</ele>
        <time>2021-10-28 16:33:31</time>
      </trkpt>
      <trkpt lat="43.31631" lon="-3.02497">
        <ele>80.6</ele>
        <time>2021-10-28 16:33:32</time>
      </trkpt>
      <trkpt lat="43.31626" lon="-3.02492">
        <ele>80</ele>
        <time>2021-10-28 16:33:33</time>
      </trkpt>
      <trkpt lat="43.31622" lon="-3.02489">
        <ele>79.4</ele>
        <time>2021-10-28 16:33:34</time>
      </trkpt>
      <trkpt lat="43.31615" lon="-3.02486">
        <ele>78.8</ele>
        <time>2021-10-28 16:33:35</time>
      </trkpt>
      <trkpt lat="43.31615" lon="-3.02486">
        <ele>78.2</ele>
        <time>2021-10-28 16:33:36</time>
      </trkpt>
      <trkpt lat="43.31608" lon="-3.02485">
        <ele>77.8</ele>
        <time>2021-10-28 16:33:37</time>
      </trkpt>
      <trkpt lat="43.31604" lon="-3.0249">
        <ele>77.6</ele>
        <time>2021-10-28 16:33:38</time>
      </trkpt>
      <trkpt lat="43.31593" lon="-3.02498">
        <ele>77.4</ele>
        <time>2021-10-28 16:33:39</time>
      </trkpt>
      <trkpt lat="43.31593" lon="-3.02498">
        <ele>77.2</ele>
        <time>2021-10-28 16:33:40</time>
      </trkpt>
      <trkpt lat="43.31593" lon="-3.02498">
        <ele>77</ele>
        <time>2021-10-28 16:33:41</time>
      </trkpt>
      <trkpt lat="43.31583" lon="-3.02515">
        <ele>76.8</ele>
        <time>2021-10-28 16:33:42</time>
      </trkpt>
      <trkpt lat="43.31583" lon="-3.02515">
        <ele>76.4</ele>
        <time>2021-10-28 16:33:43</time>
      </trkpt>
      <trkpt lat="43.31583" lon="-3.02515">
        <ele>76.2</ele>
        <time>2021-10-28 16:33:44</time>
      </trkpt>
      <trkpt lat="43.31577" lon="-3.0253">
        <ele>76</ele>
        <time>2021-10-28 16:33:45</time>
      </trkpt>
      <trkpt lat="43.31565" lon="-3.02535">
        <ele>75.6</ele>
        <time>2021-10-28 16:33:46</time>
      </trkpt>
      <trkpt lat="43.31565" lon="-3.02535">
        <ele>75.4</ele>
        <time>2021-10-28 16:33:47</time>
      </trkpt>
      <trkpt lat="43.31558" lon="-3.02539">
        <ele>75.2</ele>
        <time>2021-10-28 16:33:48</time>
      </trkpt>
      <trkpt lat="43.31552" lon="-3.02553">
        <ele>74.8</ele>
        <time>2021-10-28 16:33:49</time>
      </trkpt>
      <trkpt lat="43.3154" lon="-3.02576">
        <ele>74.4</ele>
        <time>2021-10-28 16:33:50</time>
      </trkpt>
      <trkpt lat="43.3154" lon="-3.02576">
        <ele>73.4</ele>
        <time>2021-10-28 16:33:51</time>
      </trkpt>
      <trkpt lat="43.31532" lon="-3.02587">
        <ele>72.6</ele>
        <time>2021-10-28 16:33:52</time>
      </trkpt>
      <trkpt lat="43.31515" lon="-3.02606">
        <ele>71.2</ele>
        <time>2021-10-28 16:33:53</time>
      </trkpt>
      <trkpt lat="43.31507" lon="-3.02617">
        <ele>70.2</ele>
        <time>2021-10-28 16:33:54</time>
      </trkpt>
      <trkpt lat="43.31507" lon="-3.02617">
        <ele>69</ele>
        <time>2021-10-28 16:33:55</time>
      </trkpt>
      <trkpt lat="43.31498" lon="-3.02629">
        <ele>68.2</ele>
        <time>2021-10-28 16:33:56</time>
      </trkpt>
      <trkpt lat="43.31491" lon="-3.0264">
        <ele>67.2</ele>
        <time>2021-10-28 16:33:57</time>
      </trkpt>
      <trkpt lat="43.31481" lon="-3.02649">
        <ele>66.2</ele>
        <time>2021-10-28 16:33:58</time>
      </trkpt>
      <trkpt lat="43.31473" lon="-3.0266">
        <ele>65.2</ele>
        <time>2021-10-28 16:33:59</time>
      </trkpt>
      <trkpt lat="43.31459" lon="-3.0268">
        <ele>64.4</ele>
        <time>2021-10-28 16:34:00</time>
      </trkpt>
      <trkpt lat="43.31459" lon="-3.0268">
        <ele>63.6</ele>
        <time>2021-10-28 16:34:01</time>
      </trkpt>
      <trkpt lat="43.31459" lon="-3.0268">
        <ele>62.8</ele>
        <time>2021-10-28 16:34:02</time>
      </trkpt>
      <trkpt lat="43.31443" lon="-3.02694">
        <ele>62</ele>
        <time>2021-10-28 16:34:03</time>
      </trkpt>
      <trkpt lat="43.31438" lon="-3.02702">
        <ele>61.4</ele>
        <time>2021-10-28 16:34:04</time>
      </trkpt>
      <trkpt lat="43.31431" lon="-3.02709">
        <ele>60.8</ele>
        <time>2021-10-28 16:34:05</time>
      </trkpt>
      <trkpt lat="43.31424" lon="-3.02719">
        <ele>60.6</ele>
        <time>2021-10-28 16:34:06</time>
      </trkpt>
      <trkpt lat="43.31412" lon="-3.0273">
        <ele>60.2</ele>
        <time>2021-10-28 16:34:07</time>
      </trkpt>
      <trkpt lat="43.31412" lon="-3.0273">
        <ele>60</ele>
        <time>2021-10-28 16:34:08</time>
      </trkpt>
      <trkpt lat="43.31403" lon="-3.0274">
        <ele>59.6</ele>
        <time>2021-10-28 16:34:09</time>
      </trkpt>
      <trkpt lat="43.31403" lon="-3.0274">
        <ele>59.2</ele>
        <time>2021-10-28 16:34:10</time>
      </trkpt>
      <trkpt lat="43.314" lon="-3.02744">
        <ele>58.8</ele>
        <time>2021-10-28 16:34:11</time>
      </trkpt>
      <trkpt lat="43.314" lon="-3.02746">
        <ele>58.4</ele>
        <time>2021-10-28 16:34:12</time>
      </trkpt>
      <trkpt lat="43.31397" lon="-3.02749">
        <ele>58</ele>
        <time>2021-10-28 16:34:13</time>
      </trkpt>
      <trkpt lat="43.31397" lon="-3.02749">
        <ele>57.6</ele>
        <time>2021-10-28 16:34:14</time>
      </trkpt>
      <trkpt lat="43.31397" lon="-3.02758">
        <ele>57.4</ele>
        <time>2021-10-28 16:34:15</time>
      </trkpt>
      <trkpt lat="43.31397" lon="-3.02758">
        <ele>57.2</ele>
        <time>2021-10-28 16:34:16</time>
      </trkpt>
      <trkpt lat="43.314" lon="-3.0276">
        <ele>57.2</ele>
        <time>2021-10-28 16:34:17</time>
      </trkpt>
      <trkpt lat="43.314" lon="-3.0276">
        <ele>57.2</ele>
        <time>2021-10-28 16:34:18</time>
      </trkpt>
      <trkpt lat="43.31397" lon="-3.02759">
        <ele>57.2</ele>
        <time>2021-10-28 16:34:19</time>
      </trkpt>
      <trkpt lat="43.31397" lon="-3.02759">
        <ele>57.2</ele>
        <time>2021-10-28 16:34:20</time>
      </trkpt>
      <trkpt lat="43.31396" lon="-3.02758">
        <ele>57.2</ele>
        <time>2021-10-28 16:34:21</time>
      </trkpt>
      <trkpt lat="43.31398" lon="-3.02757">
        <ele>57.2</ele>
        <time>2021-10-28 16:34:22</time>
      </trkpt>
      <trkpt lat="43.31395" lon="-3.02753">
        <ele>57.2</ele>
        <time>2021-10-28 16:34:23</time>
      </trkpt>
      <trkpt lat="43.31395" lon="-3.02753">
        <ele>57.2</ele>
        <time>2021-10-28 16:34:24</time>
      </trkpt>
      <trkpt lat="43.3138" lon="-3.0273">
        <ele>57.6</ele>
        <time>2021-10-28 16:34:42</time>
      </trkpt>
      <trkpt lat="43.3138" lon="-3.0273">
        <ele>57.6</ele>
        <time>2021-10-28 16:34:43</time>
      </trkpt>
      <trkpt lat="43.31381" lon="-3.0273">
        <ele>57.6</ele>
        <time>2021-10-28 16:34:44</time>
      </trkpt>
      <trkpt lat="43.31375" lon="-3.02723">
        <ele>57.6</ele>
        <time>2021-10-28 16:34:45</time>
      </trkpt>
      <trkpt lat="43.31375" lon="-3.02723">
        <ele>57.6</ele>
        <time>2021-10-28 16:34:46</time>
      </trkpt>
      <trkpt lat="43.3137" lon="-3.02719">
        <ele>57.6</ele>
        <time>2021-10-28 16:34:47</time>
      </trkpt>
      <trkpt lat="43.31365" lon="-3.02706">
        <ele>57.6</ele>
        <time>2021-10-28 16:34:55</time>
      </trkpt>
      <trkpt lat="43.31368" lon="-3.02707">
        <ele>57.6</ele>
        <time>2021-10-28 16:34:56</time>
      </trkpt>
      <trkpt lat="43.31368" lon="-3.02707">
        <ele>57.6</ele>
        <time>2021-10-28 16:34:57</time>
      </trkpt>
      <trkpt lat="43.31364" lon="-3.02705">
        <ele>57.6</ele>
        <time>2021-10-28 16:34:58</time>
      </trkpt>
      <trkpt lat="43.31364" lon="-3.02705">
        <ele>57.6</ele>
        <time>2021-10-28 16:34:59</time>
      </trkpt>
      <trkpt lat="43.31364" lon="-3.02705">
        <ele>57.6</ele>
        <time>2021-10-28 16:35:00</time>
      </trkpt>
      <trkpt lat="43.31365" lon="-3.02706">
        <ele>57.6</ele>
        <time>2021-10-28 16:35:01</time>
      </trkpt>
      <trkpt lat="43.31367" lon="-3.02707">
        <ele>57.6</ele>
        <time>2021-10-28 16:35:02</time>
      </trkpt>
      <trkpt lat="43.31383" lon="-3.02737">
        <ele>59.2</ele>
        <time>2021-10-28 16:38:42</time>
      </trkpt>
      <trkpt lat="43.31383" lon="-3.02737">
        <ele>59.2</ele>
        <time>2021-10-28 16:38:43</time>
      </trkpt>
      <trkpt lat="43.31388" lon="-3.02743">
        <ele>59.2</ele>
        <time>2021-10-28 16:38:44</time>
      </trkpt>
      <trkpt lat="43.31388" lon="-3.02743">
        <ele>59.2</ele>
        <time>2021-10-28 16:38:45</time>
      </trkpt>
      <trkpt lat="43.3139" lon="-3.02746">
        <ele>59</ele>
        <time>2021-10-28 16:38:46</time>
      </trkpt>
      <trkpt lat="43.3139" lon="-3.02746">
        <ele>59</ele>
        <time>2021-10-28 16:38:47</time>
      </trkpt>
      <trkpt lat="43.31389" lon="-3.02749">
        <ele>59</ele>
        <time>2021-10-28 16:38:48</time>
      </trkpt>
      <trkpt lat="43.31391" lon="-3.02752">
        <ele>58.8</ele>
        <time>2021-10-28 16:38:49</time>
      </trkpt>
      <trkpt lat="43.31391" lon="-3.02752">
        <ele>58.8</ele>
        <time>2021-10-28 16:38:50</time>
      </trkpt>
      <trkpt lat="43.31391" lon="-3.02752">
        <ele>58.8</ele>
        <time>2021-10-28 16:38:51</time>
      </trkpt>
      <trkpt lat="43.31391" lon="-3.02753">
        <ele>58.8</ele>
        <time>2021-10-28 16:38:52</time>
      </trkpt>
      <trkpt lat="43.31391" lon="-3.02752">
        <ele>58.8</ele>
        <time>2021-10-28 16:38:53</time>
      </trkpt>
      <trkpt lat="43.31388" lon="-3.02748">
        <ele>58.8</ele>
        <time>2021-10-28 16:38:54</time>
      </trkpt>
      <trkpt lat="43.31388" lon="-3.02748">
        <ele>58.8</ele>
        <time>2021-10-28 16:38:55</time>
      </trkpt>
      <trkpt lat="43.31389" lon="-3.02749">
        <ele>58.8</ele>
        <time>2021-10-28 16:38:56</time>
      </trkpt>
      <trkpt lat="43.31389" lon="-3.02751">
        <ele>58.8</ele>
        <time>2021-10-28 16:38:57</time>
      </trkpt>
      <trkpt lat="43.3138" lon="-3.028">
        <ele>59</ele>
        <time>2021-10-28 16:39:18</time>
      </trkpt>
      <trkpt lat="43.31378" lon="-3.02802">
        <ele>59</ele>
        <time>2021-10-28 16:39:19</time>
      </trkpt>
      <trkpt lat="43.31374" lon="-3.02809">
        <ele>59.2</ele>
        <time>2021-10-28 16:39:20</time>
      </trkpt>
      <trkpt lat="43.31374" lon="-3.02809">
        <ele>59.4</ele>
        <time>2021-10-28 16:39:21</time>
      </trkpt>
      <trkpt lat="43.31371" lon="-3.02812">
        <ele>59.4</ele>
        <time>2021-10-28 16:39:22</time>
      </trkpt>
      <trkpt lat="43.3137" lon="-3.02816">
        <ele>59.6</ele>
        <time>2021-10-28 16:39:23</time>
      </trkpt>
      <trkpt lat="43.31368" lon="-3.02824">
        <ele>59.8</ele>
        <time>2021-10-28 16:39:24</time>
      </trkpt>
      <trkpt lat="43.31368" lon="-3.02824">
        <ele>59.8</ele>
        <time>2021-10-28 16:39:25</time>
      </trkpt>
      <trkpt lat="43.31366" lon="-3.02831">
        <ele>60.8</ele>
        <time>2021-10-28 16:39:26</time>
      </trkpt>
      <trkpt lat="43.31366" lon="-3.02831">
        <ele>61.2</ele>
        <time>2021-10-28 16:39:27</time>
      </trkpt>
      <trkpt lat="43.31364" lon="-3.02838">
        <ele>61.4</ele>
        <time>2021-10-28 16:39:28</time>
      </trkpt>
      <trkpt lat="43.31364" lon="-3.02838">
        <ele>60.8</ele>
        <time>2021-10-28 16:39:29</time>
      </trkpt>
      <trkpt lat="43.31362" lon="-3.02846">
        <ele>60.8</ele>
        <time>2021-10-28 16:39:30</time>
      </trkpt>
      <trkpt lat="43.31362" lon="-3.02846">
        <ele>60.8</ele>
        <time>2021-10-28 16:39:31</time>
      </trkpt>
      <trkpt lat="43.31358" lon="-3.02854">
        <ele>60.8</ele>
        <time>2021-10-28 16:39:32</time>
      </trkpt>
      <trkpt lat="43.31357" lon="-3.02855">
        <ele>61</ele>
        <time>2021-10-28 16:39:33</time>
      </trkpt>
      <trkpt lat="43.31357" lon="-3.02855">
        <ele>61</ele>
        <time>2021-10-28 16:39:34</time>
      </trkpt>
      <trkpt lat="43.31351" lon="-3.02856">
        <ele>61.2</ele>
        <time>2021-10-28 16:39:35</time>
      </trkpt>
      <trkpt lat="43.31351" lon="-3.02856">
        <ele>61.4</ele>
        <time>2021-10-28 16:39:36</time>
      </trkpt>
      <trkpt lat="43.31346" lon="-3.0285">
        <ele>61.6</ele>
        <time>2021-10-28 16:39:37</time>
      </trkpt>
      <trkpt lat="43.31346" lon="-3.0285">
        <ele>61.6</ele>
        <time>2021-10-28 16:39:38</time>
      </trkpt>
      <trkpt lat="43.31341" lon="-3.02839">
        <ele>61.8</ele>
        <time>2021-10-28 16:39:39</time>
      </trkpt>
      <trkpt lat="43.31339" lon="-3.02835">
        <ele>61.8</ele>
        <time>2021-10-28 16:39:40</time>
      </trkpt>
      <trkpt lat="43.31339" lon="-3.02835">
        <ele>62</ele>
        <time>2021-10-28 16:39:41</time>
      </trkpt>
      <trkpt lat="43.31335" lon="-3.02831">
        <ele>62</ele>
        <time>2021-10-28 16:39:42</time>
      </trkpt>
      <trkpt lat="43.31333" lon="-3.02825">
        <ele>62</ele>
        <time>2021-10-28 16:39:43</time>
      </trkpt>
      <trkpt lat="43.31333" lon="-3.02825">
        <ele>62</ele>
        <time>2021-10-28 16:39:44</time>
      </trkpt>
      <trkpt lat="43.31326" lon="-3.02817">
        <ele>61.8</ele>
        <time>2021-10-28 16:39:45</time>
      </trkpt>
      <trkpt lat="43.31326" lon="-3.02817">
        <ele>61.8</ele>
        <time>2021-10-28 16:39:46</time>
      </trkpt>
      <trkpt lat="43.31319" lon="-3.02807">
        <ele>61.8</ele>
        <time>2021-10-28 16:39:47</time>
      </trkpt>
      <trkpt lat="43.31319" lon="-3.02807">
        <ele>62</ele>
        <time>2021-10-28 16:39:48</time>
      </trkpt>
      <trkpt lat="43.31317" lon="-3.02804">
        <ele>62</ele>
        <time>2021-10-28 16:39:49</time>
      </trkpt>
      <trkpt lat="43.31313" lon="-3.028">
        <ele>62.2</ele>
        <time>2021-10-28 16:39:50</time>
      </trkpt>
      <trkpt lat="43.31307" lon="-3.02792">
        <ele>62.2</ele>
        <time>2021-10-28 16:39:51</time>
      </trkpt>
      <trkpt lat="43.31302" lon="-3.02787">
        <ele>62.2</ele>
        <time>2021-10-28 16:39:52</time>
      </trkpt>
      <trkpt lat="43.31302" lon="-3.02787">
        <ele>62.4</ele>
        <time>2021-10-28 16:39:53</time>
      </trkpt>
      <trkpt lat="43.31296" lon="-3.02777">
        <ele>62.4</ele>
        <time>2021-10-28 16:39:54</time>
      </trkpt>
      <trkpt lat="43.31296" lon="-3.02777">
        <ele>62.4</ele>
        <time>2021-10-28 16:39:55</time>
      </trkpt>
      <trkpt lat="43.31291" lon="-3.0277">
        <ele>62.6</ele>
        <time>2021-10-28 16:39:56</time>
      </trkpt>
      <trkpt lat="43.31291" lon="-3.0277">
        <ele>62.8</ele>
        <time>2021-10-28 16:39:57</time>
      </trkpt>
      <trkpt lat="43.31285" lon="-3.02762">
        <ele>62.8</ele>
        <time>2021-10-28 16:39:58</time>
      </trkpt>
      <trkpt lat="43.31283" lon="-3.0276">
        <ele>62.8</ele>
        <time>2021-10-28 16:39:59</time>
      </trkpt>
      <trkpt lat="43.31283" lon="-3.0276">
        <ele>62.8</ele>
        <time>2021-10-28 16:40:00</time>
      </trkpt>
      <trkpt lat="43.31278" lon="-3.02751">
        <ele>62.8</ele>
        <time>2021-10-28 16:40:01</time>
      </trkpt>
      <trkpt lat="43.31278" lon="-3.02751">
        <ele>62.8</ele>
        <time>2021-10-28 16:40:02</time>
      </trkpt>
      <trkpt lat="43.31273" lon="-3.02744">
        <ele>63</ele>
        <time>2021-10-28 16:40:03</time>
      </trkpt>
      <trkpt lat="43.31273" lon="-3.02744">
        <ele>63.2</ele>
        <time>2021-10-28 16:40:04</time>
      </trkpt>
      <trkpt lat="43.31269" lon="-3.02739">
        <ele>63.2</ele>
        <time>2021-10-28 16:40:05</time>
      </trkpt>
      <trkpt lat="43.31269" lon="-3.02739">
        <ele>63.4</ele>
        <time>2021-10-28 16:40:06</time>
      </trkpt>
      <trkpt lat="43.31267" lon="-3.02735">
        <ele>63.6</ele>
        <time>2021-10-28 16:40:07</time>
      </trkpt>
      <trkpt lat="43.31265" lon="-3.02733">
        <ele>63.8</ele>
        <time>2021-10-28 16:40:08</time>
      </trkpt>
      <trkpt lat="43.31263" lon="-3.0273">
        <ele>64</ele>
        <time>2021-10-28 16:40:09</time>
      </trkpt>
      <trkpt lat="43.31261" lon="-3.02727">
        <ele>64.2</ele>
        <time>2021-10-28 16:40:10</time>
      </trkpt>
      <trkpt lat="43.31256" lon="-3.02721">
        <ele>64.4</ele>
        <time>2021-10-28 16:40:11</time>
      </trkpt>
      <trkpt lat="43.31256" lon="-3.02721">
        <ele>64.6</ele>
        <time>2021-10-28 16:40:12</time>
      </trkpt>
      <trkpt lat="43.31254" lon="-3.02718">
        <ele>64.6</ele>
        <time>2021-10-28 16:40:13</time>
      </trkpt>
      <trkpt lat="43.31251" lon="-3.02714">
        <ele>64.8</ele>
        <time>2021-10-28 16:40:14</time>
      </trkpt>
      <trkpt lat="43.31248" lon="-3.0271">
        <ele>64.8</ele>
        <time>2021-10-28 16:40:15</time>
      </trkpt>
      <trkpt lat="43.31246" lon="-3.02707">
        <ele>65</ele>
        <time>2021-10-28 16:40:16</time>
      </trkpt>
      <trkpt lat="43.31243" lon="-3.02704">
        <ele>65.2</ele>
        <time>2021-10-28 16:40:17</time>
      </trkpt>
      <trkpt lat="43.3124" lon="-3.027">
        <ele>65.4</ele>
        <time>2021-10-28 16:40:18</time>
      </trkpt>
      <trkpt lat="43.31237" lon="-3.02697">
        <ele>65.4</ele>
        <time>2021-10-28 16:40:19</time>
      </trkpt>
      <trkpt lat="43.31234" lon="-3.02693">
        <ele>65.6</ele>
        <time>2021-10-28 16:40:20</time>
      </trkpt>
      <trkpt lat="43.31231" lon="-3.0269">
        <ele>65.8</ele>
        <time>2021-10-28 16:40:21</time>
      </trkpt>
      <trkpt lat="43.31225" lon="-3.02683">
        <ele>66</ele>
        <time>2021-10-28 16:40:22</time>
      </trkpt>
      <trkpt lat="43.31225" lon="-3.02683">
        <ele>66.2</ele>
        <time>2021-10-28 16:40:23</time>
      </trkpt>
      <trkpt lat="43.31223" lon="-3.0268">
        <ele>66.2</ele>
        <time>2021-10-28 16:40:24</time>
      </trkpt>
      <trkpt lat="43.3122" lon="-3.02676">
        <ele>66.4</ele>
        <time>2021-10-28 16:40:25</time>
      </trkpt>
      <trkpt lat="43.31217" lon="-3.02672">
        <ele>66.6</ele>
        <time>2021-10-28 16:40:26</time>
      </trkpt>
      <trkpt lat="43.31212" lon="-3.02666">
        <ele>66.6</ele>
        <time>2021-10-28 16:40:27</time>
      </trkpt>
      <trkpt lat="43.31212" lon="-3.02666">
        <ele>66.6</ele>
        <time>2021-10-28 16:40:28</time>
      </trkpt>
      <trkpt lat="43.3121" lon="-3.02662">
        <ele>66.6</ele>
        <time>2021-10-28 16:40:29</time>
      </trkpt>
      <trkpt lat="43.31207" lon="-3.02659">
        <ele>66.8</ele>
        <time>2021-10-28 16:40:30</time>
      </trkpt>
      <trkpt lat="43.31204" lon="-3.02655">
        <ele>66.6</ele>
        <time>2021-10-28 16:40:31</time>
      </trkpt>
      <trkpt lat="43.31201" lon="-3.02651">
        <ele>66.6</ele>
        <time>2021-10-28 16:40:32</time>
      </trkpt>
      <trkpt lat="43.31198" lon="-3.02647">
        <ele>66.6</ele>
        <time>2021-10-28 16:40:33</time>
      </trkpt>
      <trkpt lat="43.31196" lon="-3.02643">
        <ele>66.4</ele>
        <time>2021-10-28 16:40:34</time>
      </trkpt>
      <trkpt lat="43.3119" lon="-3.02632">
        <ele>66.2</ele>
        <time>2021-10-28 16:40:35</time>
      </trkpt>
      <trkpt lat="43.3119" lon="-3.02632">
        <ele>66.2</ele>
        <time>2021-10-28 16:40:36</time>
      </trkpt>
      <trkpt lat="43.31188" lon="-3.02628">
        <ele>66</ele>
        <time>2021-10-28 16:40:37</time>
      </trkpt>
      <trkpt lat="43.31185" lon="-3.02622">
        <ele>65.8</ele>
        <time>2021-10-28 16:40:38</time>
      </trkpt>
      <trkpt lat="43.31181" lon="-3.02615">
        <ele>65.4</ele>
        <time>2021-10-28 16:40:39</time>
      </trkpt>
      <trkpt lat="43.31173" lon="-3.02606">
        <ele>65.2</ele>
        <time>2021-10-28 16:40:40</time>
      </trkpt>
      <trkpt lat="43.31168" lon="-3.02601">
        <ele>65</ele>
        <time>2021-10-28 16:40:41</time>
      </trkpt>
      <trkpt lat="43.31168" lon="-3.02601">
        <ele>64.8</ele>
        <time>2021-10-28 16:40:42</time>
      </trkpt>
      <trkpt lat="43.31163" lon="-3.02596">
        <ele>64.6</ele>
        <time>2021-10-28 16:40:43</time>
      </trkpt>
      <trkpt lat="43.31158" lon="-3.02591">
        <ele>64.2</ele>
        <time>2021-10-28 16:40:44</time>
      </trkpt>
      <trkpt lat="43.31152" lon="-3.02586">
        <ele>64</ele>
        <time>2021-10-28 16:40:45</time>
      </trkpt>
      <trkpt lat="43.31141" lon="-3.02578">
        <ele>63.6</ele>
        <time>2021-10-28 16:40:46</time>
      </trkpt>
      <trkpt lat="43.31141" lon="-3.02578">
        <ele>63.4</ele>
        <time>2021-10-28 16:40:47</time>
      </trkpt>
      <trkpt lat="43.31135" lon="-3.02575">
        <ele>63.2</ele>
        <time>2021-10-28 16:40:48</time>
      </trkpt>
      <trkpt lat="43.31129" lon="-3.02571">
        <ele>63</ele>
        <time>2021-10-28 16:40:49</time>
      </trkpt>
      <trkpt lat="43.31116" lon="-3.02564">
        <ele>62.8</ele>
        <time>2021-10-28 16:40:50</time>
      </trkpt>
      <trkpt lat="43.31116" lon="-3.02564">
        <ele>62.6</ele>
        <time>2021-10-28 16:40:51</time>
      </trkpt>
      <trkpt lat="43.3111" lon="-3.0256">
        <ele>62.4</ele>
        <time>2021-10-28 16:40:52</time>
      </trkpt>
      <trkpt lat="43.31097" lon="-3.02552">
        <ele>62</ele>
        <time>2021-10-28 16:40:53</time>
      </trkpt>
      <trkpt lat="43.31097" lon="-3.02552">
        <ele>61.8</ele>
        <time>2021-10-28 16:40:54</time>
      </trkpt>
      <trkpt lat="43.31083" lon="-3.02544">
        <ele>61.4</ele>
        <time>2021-10-28 16:40:55</time>
      </trkpt>
      <trkpt lat="43.31083" lon="-3.02544">
        <ele>61.2</ele>
        <time>2021-10-28 16:40:56</time>
      </trkpt>
      <trkpt lat="43.31076" lon="-3.02541">
        <ele>61</ele>
        <time>2021-10-28 16:40:57</time>
      </trkpt>
      <trkpt lat="43.3107" lon="-3.02537">
        <ele>60.6</ele>
        <time>2021-10-28 16:40:58</time>
      </trkpt>
      <trkpt lat="43.31058" lon="-3.02526">
        <ele>60.4</ele>
        <time>2021-10-28 16:40:59</time>
      </trkpt>
      <trkpt lat="43.31058" lon="-3.02526">
        <ele>60.2</ele>
        <time>2021-10-28 16:41:00</time>
      </trkpt>
      <trkpt lat="43.31051" lon="-3.02519">
        <ele>60</ele>
        <time>2021-10-28 16:41:01</time>
      </trkpt>
      <trkpt lat="43.31046" lon="-3.02512">
        <ele>59.8</ele>
        <time>2021-10-28 16:41:02</time>
      </trkpt>
      <trkpt lat="43.31039" lon="-3.02505">
        <ele>59.6</ele>
        <time>2021-10-28 16:41:03</time>
      </trkpt>
      <trkpt lat="43.31033" lon="-3.025">
        <ele>59.4</ele>
        <time>2021-10-28 16:41:04</time>
      </trkpt>
      <trkpt lat="43.31029" lon="-3.02494">
        <ele>59.2</ele>
        <time>2021-10-28 16:41:05</time>
      </trkpt>
      <trkpt lat="43.31025" lon="-3.02489">
        <ele>59.2</ele>
        <time>2021-10-28 16:41:06</time>
      </trkpt>
      <trkpt lat="43.31017" lon="-3.02477">
        <ele>59</ele>
        <time>2021-10-28 16:41:07</time>
      </trkpt>
      <trkpt lat="43.31017" lon="-3.02477">
        <ele>59</ele>
        <time>2021-10-28 16:41:08</time>
      </trkpt>
      <trkpt lat="43.31011" lon="-3.02472">
        <ele>58.8</ele>
        <time>2021-10-28 16:41:09</time>
      </trkpt>
      <trkpt lat="43.31007" lon="-3.02467">
        <ele>58.8</ele>
        <time>2021-10-28 16:41:10</time>
      </trkpt>
      <trkpt lat="43.31003" lon="-3.02461">
        <ele>58.6</ele>
        <time>2021-10-28 16:41:11</time>
      </trkpt>
      <trkpt lat="43.30998" lon="-3.02454">
        <ele>58.6</ele>
        <time>2021-10-28 16:41:12</time>
      </trkpt>
      <trkpt lat="43.30994" lon="-3.02448">
        <ele>58.4</ele>
        <time>2021-10-28 16:41:13</time>
      </trkpt>
      <trkpt lat="43.30986" lon="-3.02434">
        <ele>58.2</ele>
        <time>2021-10-28 16:41:14</time>
      </trkpt>
      <trkpt lat="43.30982" lon="-3.02426">
        <ele>58.2</ele>
        <time>2021-10-28 16:41:15</time>
      </trkpt>
      <trkpt lat="43.30982" lon="-3.02426">
        <ele>58.2</ele>
        <time>2021-10-28 16:41:16</time>
      </trkpt>
      <trkpt lat="43.30978" lon="-3.02419">
        <ele>58</ele>
        <time>2021-10-28 16:41:17</time>
      </trkpt>
      <trkpt lat="43.30973" lon="-3.02412">
        <ele>58</ele>
        <time>2021-10-28 16:41:18</time>
      </trkpt>
      <trkpt lat="43.30969" lon="-3.02405">
        <ele>57.8</ele>
        <time>2021-10-28 16:41:19</time>
      </trkpt>
      <trkpt lat="43.30965" lon="-3.024">
        <ele>57.8</ele>
        <time>2021-10-28 16:41:20</time>
      </trkpt>
      <trkpt lat="43.30956" lon="-3.02386">
        <ele>57.6</ele>
        <time>2021-10-28 16:41:21</time>
      </trkpt>
      <trkpt lat="43.30956" lon="-3.02386">
        <ele>57.6</ele>
        <time>2021-10-28 16:41:22</time>
      </trkpt>
      <trkpt lat="43.30956" lon="-3.02386">
        <ele>57.6</ele>
        <time>2021-10-28 16:41:23</time>
      </trkpt>
      <trkpt lat="43.30948" lon="-3.02372">
        <ele>57.4</ele>
        <time>2021-10-28 16:41:24</time>
      </trkpt>
      <trkpt lat="43.30939" lon="-3.02359">
        <ele>57.4</ele>
        <time>2021-10-28 16:41:25</time>
      </trkpt>
      <trkpt lat="43.30939" lon="-3.02359">
        <ele>57.4</ele>
        <time>2021-10-28 16:41:26</time>
      </trkpt>
      <trkpt lat="43.30935" lon="-3.02351">
        <ele>57.2</ele>
        <time>2021-10-28 16:41:27</time>
      </trkpt>
      <trkpt lat="43.30926" lon="-3.02338">
        <ele>57.2</ele>
        <time>2021-10-28 16:41:28</time>
      </trkpt>
      <trkpt lat="43.30926" lon="-3.02338">
        <ele>57.2</ele>
        <time>2021-10-28 16:41:29</time>
      </trkpt>
      <trkpt lat="43.30923" lon="-3.0233">
        <ele>57.2</ele>
        <time>2021-10-28 16:41:30</time>
      </trkpt>
      <trkpt lat="43.30918" lon="-3.02323">
        <ele>57</ele>
        <time>2021-10-28 16:41:31</time>
      </trkpt>
      <trkpt lat="43.30913" lon="-3.02314">
        <ele>57</ele>
        <time>2021-10-28 16:41:32</time>
      </trkpt>
      <trkpt lat="43.30904" lon="-3.02299">
        <ele>57</ele>
        <time>2021-10-28 16:41:33</time>
      </trkpt>
      <trkpt lat="43.30904" lon="-3.02299">
        <ele>56.8</ele>
        <time>2021-10-28 16:41:34</time>
      </trkpt>
      <trkpt lat="43.30898" lon="-3.02283">
        <ele>56.8</ele>
        <time>2021-10-28 16:41:35</time>
      </trkpt>
      <trkpt lat="43.30898" lon="-3.02283">
        <ele>56.8</ele>
        <time>2021-10-28 16:41:36</time>
      </trkpt>
      <trkpt lat="43.30895" lon="-3.02276">
        <ele>56.8</ele>
        <time>2021-10-28 16:41:37</time>
      </trkpt>
      <trkpt lat="43.30892" lon="-3.02268">
        <ele>56.8</ele>
        <time>2021-10-28 16:41:38</time>
      </trkpt>
      <trkpt lat="43.3089" lon="-3.0226">
        <ele>56.8</ele>
        <time>2021-10-28 16:41:39</time>
      </trkpt>
      <trkpt lat="43.30882" lon="-3.02244">
        <ele>56.8</ele>
        <time>2021-10-28 16:41:40</time>
      </trkpt>
      <trkpt lat="43.30882" lon="-3.02244">
        <ele>56.6</ele>
        <time>2021-10-28 16:41:41</time>
      </trkpt>
      <trkpt lat="43.30879" lon="-3.02236">
        <ele>56.4</ele>
        <time>2021-10-28 16:41:42</time>
      </trkpt>
      <trkpt lat="43.30876" lon="-3.02229">
        <ele>56.2</ele>
        <time>2021-10-28 16:41:43</time>
      </trkpt>
      <trkpt lat="43.30873" lon="-3.02221">
        <ele>55.8</ele>
        <time>2021-10-28 16:41:44</time>
      </trkpt>
      <trkpt lat="43.3087" lon="-3.02213">
        <ele>55.6</ele>
        <time>2021-10-28 16:41:45</time>
      </trkpt>
      <trkpt lat="43.30864" lon="-3.02198">
        <ele>55.6</ele>
        <time>2021-10-28 16:41:46</time>
      </trkpt>
      <trkpt lat="43.30864" lon="-3.02198">
        <ele>55.4</ele>
        <time>2021-10-28 16:41:47</time>
      </trkpt>
      <trkpt lat="43.30864" lon="-3.02198">
        <ele>55.2</ele>
        <time>2021-10-28 16:41:48</time>
      </trkpt>
      <trkpt lat="43.3086" lon="-3.02181">
        <ele>55.2</ele>
        <time>2021-10-28 16:41:49</time>
      </trkpt>
      <trkpt lat="43.30855" lon="-3.02164">
        <ele>55</ele>
        <time>2021-10-28 16:41:50</time>
      </trkpt>
      <trkpt lat="43.30855" lon="-3.02164">
        <ele>55</ele>
        <time>2021-10-28 16:41:51</time>
      </trkpt>
      <trkpt lat="43.30852" lon="-3.02156">
        <ele>55</ele>
        <time>2021-10-28 16:41:52</time>
      </trkpt>
      <trkpt lat="43.30848" lon="-3.02149">
        <ele>55</ele>
        <time>2021-10-28 16:41:53</time>
      </trkpt>
      <trkpt lat="43.30845" lon="-3.0214">
        <ele>55</ele>
        <time>2021-10-28 16:41:54</time>
      </trkpt>
      <trkpt lat="43.30843" lon="-3.02133">
        <ele>55</ele>
        <time>2021-10-28 16:41:55</time>
      </trkpt>
      <trkpt lat="43.3084" lon="-3.02124">
        <ele>54.8</ele>
        <time>2021-10-28 16:41:56</time>
      </trkpt>
      <trkpt lat="43.30836" lon="-3.02106">
        <ele>54.8</ele>
        <time>2021-10-28 16:41:57</time>
      </trkpt>
      <trkpt lat="43.30836" lon="-3.02106">
        <ele>54.6</ele>
        <time>2021-10-28 16:41:58</time>
      </trkpt>
      <trkpt lat="43.30836" lon="-3.02106">
        <ele>54.6</ele>
        <time>2021-10-28 16:41:59</time>
      </trkpt>
      <trkpt lat="43.30832" lon="-3.0209">
        <ele>54.6</ele>
        <time>2021-10-28 16:42:00</time>
      </trkpt>
      <trkpt lat="43.30831" lon="-3.02082">
        <ele>54.4</ele>
        <time>2021-10-28 16:42:01</time>
      </trkpt>
      <trkpt lat="43.30829" lon="-3.02073">
        <ele>54.4</ele>
        <time>2021-10-28 16:42:02</time>
      </trkpt>
      <trkpt lat="43.30825" lon="-3.02055">
        <ele>54.4</ele>
        <time>2021-10-28 16:42:03</time>
      </trkpt>
      <trkpt lat="43.30823" lon="-3.02046">
        <ele>54.2</ele>
        <time>2021-10-28 16:42:04</time>
      </trkpt>
      <trkpt lat="43.30823" lon="-3.02046">
        <ele>54.2</ele>
        <time>2021-10-28 16:42:05</time>
      </trkpt>
      <trkpt lat="43.30821" lon="-3.02037">
        <ele>54.2</ele>
        <time>2021-10-28 16:42:06</time>
      </trkpt>
      <trkpt lat="43.3082" lon="-3.02029">
        <ele>54.2</ele>
        <time>2021-10-28 16:42:07</time>
      </trkpt>
      <trkpt lat="43.30816" lon="-3.0201">
        <ele>54.2</ele>
        <time>2021-10-28 16:42:08</time>
      </trkpt>
      <trkpt lat="43.30816" lon="-3.0201">
        <ele>54.2</ele>
        <time>2021-10-28 16:42:09</time>
      </trkpt>
      <trkpt lat="43.30814" lon="-3.02">
        <ele>54</ele>
        <time>2021-10-28 16:42:10</time>
      </trkpt>
      <trkpt lat="43.30812" lon="-3.01992">
        <ele>53.8</ele>
        <time>2021-10-28 16:42:11</time>
      </trkpt>
      <trkpt lat="43.30812" lon="-3.01984">
        <ele>53.8</ele>
        <time>2021-10-28 16:42:12</time>
      </trkpt>
      <trkpt lat="43.3081" lon="-3.01975">
        <ele>53.6</ele>
        <time>2021-10-28 16:42:13</time>
      </trkpt>
      <trkpt lat="43.30806" lon="-3.01958">
        <ele>53.6</ele>
        <time>2021-10-28 16:42:14</time>
      </trkpt>
      <trkpt lat="43.30806" lon="-3.01958">
        <ele>53.4</ele>
        <time>2021-10-28 16:42:15</time>
      </trkpt>
      <trkpt lat="43.30801" lon="-3.01938">
        <ele>53.4</ele>
        <time>2021-10-28 16:42:16</time>
      </trkpt>
      <trkpt lat="43.30799" lon="-3.01929">
        <ele>53.2</ele>
        <time>2021-10-28 16:42:17</time>
      </trkpt>
      <trkpt lat="43.30799" lon="-3.01929">
        <ele>53.2</ele>
        <time>2021-10-28 16:42:18</time>
      </trkpt>
      <trkpt lat="43.30797" lon="-3.01921">
        <ele>53.2</ele>
        <time>2021-10-28 16:42:19</time>
      </trkpt>
      <trkpt lat="43.30795" lon="-3.01905">
        <ele>53</ele>
        <time>2021-10-28 16:42:20</time>
      </trkpt>
      <trkpt lat="43.30795" lon="-3.01905">
        <ele>53</ele>
        <time>2021-10-28 16:42:21</time>
      </trkpt>
      <trkpt lat="43.30794" lon="-3.01895">
        <ele>52.8</ele>
        <time>2021-10-28 16:42:22</time>
      </trkpt>
      <trkpt lat="43.30792" lon="-3.01876">
        <ele>52.8</ele>
        <time>2021-10-28 16:42:23</time>
      </trkpt>
      <trkpt lat="43.30792" lon="-3.01876">
        <ele>52.6</ele>
        <time>2021-10-28 16:42:24</time>
      </trkpt>
      <trkpt lat="43.3079" lon="-3.01859">
        <ele>52.4</ele>
        <time>2021-10-28 16:42:25</time>
      </trkpt>
      <trkpt lat="43.3079" lon="-3.01859">
        <ele>52.2</ele>
        <time>2021-10-28 16:42:26</time>
      </trkpt>
      <trkpt lat="43.3079" lon="-3.01859">
        <ele>52.2</ele>
        <time>2021-10-28 16:42:27</time>
      </trkpt>
      <trkpt lat="43.30785" lon="-3.01839">
        <ele>52</ele>
        <time>2021-10-28 16:42:28</time>
      </trkpt>
      <trkpt lat="43.30781" lon="-3.01829">
        <ele>51.8</ele>
        <time>2021-10-28 16:42:29</time>
      </trkpt>
      <trkpt lat="43.30778" lon="-3.01818">
        <ele>51.4</ele>
        <time>2021-10-28 16:42:30</time>
      </trkpt>
      <trkpt lat="43.30774" lon="-3.01798">
        <ele>51.2</ele>
        <time>2021-10-28 16:42:31</time>
      </trkpt>
      <trkpt lat="43.30774" lon="-3.01798">
        <ele>50.8</ele>
        <time>2021-10-28 16:42:32</time>
      </trkpt>
      <trkpt lat="43.30772" lon="-3.01787">
        <ele>50.4</ele>
        <time>2021-10-28 16:42:33</time>
      </trkpt>
      <trkpt lat="43.3077" lon="-3.01776">
        <ele>50</ele>
        <time>2021-10-28 16:42:34</time>
      </trkpt>
      <trkpt lat="43.30767" lon="-3.01765">
        <ele>49.6</ele>
        <time>2021-10-28 16:42:35</time>
      </trkpt>
      <trkpt lat="43.30763" lon="-3.01754">
        <ele>49.2</ele>
        <time>2021-10-28 16:42:36</time>
      </trkpt>
      <trkpt lat="43.30757" lon="-3.0173">
        <ele>48.8</ele>
        <time>2021-10-28 16:42:37</time>
      </trkpt>
      <trkpt lat="43.30757" lon="-3.0173">
        <ele>48.4</ele>
        <time>2021-10-28 16:42:38</time>
      </trkpt>
      <trkpt lat="43.30754" lon="-3.01718">
        <ele>48.2</ele>
        <time>2021-10-28 16:42:39</time>
      </trkpt>
      <trkpt lat="43.3075" lon="-3.01708">
        <ele>47.8</ele>
        <time>2021-10-28 16:42:40</time>
      </trkpt>
      <trkpt lat="43.30742" lon="-3.01687">
        <ele>47.4</ele>
        <time>2021-10-28 16:42:41</time>
      </trkpt>
      <trkpt lat="43.30742" lon="-3.01687">
        <ele>47.2</ele>
        <time>2021-10-28 16:42:42</time>
      </trkpt>
      <trkpt lat="43.30734" lon="-3.01668">
        <ele>46.8</ele>
        <time>2021-10-28 16:42:43</time>
      </trkpt>
      <trkpt lat="43.30734" lon="-3.01668">
        <ele>46.6</ele>
        <time>2021-10-28 16:42:44</time>
      </trkpt>
      <trkpt lat="43.30734" lon="-3.01668">
        <ele>46.4</ele>
        <time>2021-10-28 16:42:45</time>
      </trkpt>
      <trkpt lat="43.30725" lon="-3.01651">
        <ele>46.2</ele>
        <time>2021-10-28 16:42:46</time>
      </trkpt>
      <trkpt lat="43.30719" lon="-3.01642">
        <ele>46.2</ele>
        <time>2021-10-28 16:42:47</time>
      </trkpt>
      <trkpt lat="43.30714" lon="-3.01634">
        <ele>46</ele>
        <time>2021-10-28 16:42:48</time>
      </trkpt>
      <trkpt lat="43.30703" lon="-3.01619">
        <ele>46</ele>
        <time>2021-10-28 16:42:49</time>
      </trkpt>
      <trkpt lat="43.30703" lon="-3.01619">
        <ele>45.8</ele>
        <time>2021-10-28 16:42:50</time>
      </trkpt>
      <trkpt lat="43.30703" lon="-3.01619">
        <ele>45.6</ele>
        <time>2021-10-28 16:42:51</time>
      </trkpt>
      <trkpt lat="43.30693" lon="-3.01604">
        <ele>45.2</ele>
        <time>2021-10-28 16:42:52</time>
      </trkpt>
      <trkpt lat="43.30689" lon="-3.01597">
        <ele>44.8</ele>
        <time>2021-10-28 16:42:53</time>
      </trkpt>
      <trkpt lat="43.30687" lon="-3.01589">
        <ele>44.4</ele>
        <time>2021-10-28 16:42:54</time>
      </trkpt>
      <trkpt lat="43.30686" lon="-3.0158">
        <ele>44.2</ele>
        <time>2021-10-28 16:42:55</time>
      </trkpt>
      <trkpt lat="43.30692" lon="-3.01562">
        <ele>43.8</ele>
        <time>2021-10-28 16:42:56</time>
      </trkpt>
      <trkpt lat="43.30692" lon="-3.01562">
        <ele>43.2</ele>
        <time>2021-10-28 16:42:57</time>
      </trkpt>
      <trkpt lat="43.30698" lon="-3.01556">
        <ele>42.6</ele>
        <time>2021-10-28 16:42:58</time>
      </trkpt>
      <trkpt lat="43.30705" lon="-3.01551">
        <ele>42</ele>
        <time>2021-10-28 16:42:59</time>
      </trkpt>
      <trkpt lat="43.30721" lon="-3.01547">
        <ele>41.6</ele>
        <time>2021-10-28 16:43:00</time>
      </trkpt>
      <trkpt lat="43.30721" lon="-3.01547">
        <ele>41</ele>
        <time>2021-10-28 16:43:01</time>
      </trkpt>
      <trkpt lat="43.30728" lon="-3.01542">
        <ele>40.6</ele>
        <time>2021-10-28 16:43:02</time>
      </trkpt>
      <trkpt lat="43.30734" lon="-3.01535">
        <ele>40.4</ele>
        <time>2021-10-28 16:43:03</time>
      </trkpt>
      <trkpt lat="43.30741" lon="-3.01516">
        <ele>40.2</ele>
        <time>2021-10-28 16:43:04</time>
      </trkpt>
      <trkpt lat="43.30741" lon="-3.01516">
        <ele>40</ele>
        <time>2021-10-28 16:43:05</time>
      </trkpt>
      <trkpt lat="43.30742" lon="-3.01505">
        <ele>39.8</ele>
        <time>2021-10-28 16:43:06</time>
      </trkpt>
      <trkpt lat="43.30736" lon="-3.0149">
        <ele>39.8</ele>
        <time>2021-10-28 16:43:07</time>
      </trkpt>
      <trkpt lat="43.30736" lon="-3.0149">
        <ele>39.6</ele>
        <time>2021-10-28 16:43:08</time>
      </trkpt>
      <trkpt lat="43.30732" lon="-3.01485">
        <ele>39.4</ele>
        <time>2021-10-28 16:43:09</time>
      </trkpt>
      <trkpt lat="43.30727" lon="-3.01479">
        <ele>39.4</ele>
        <time>2021-10-28 16:43:10</time>
      </trkpt>
      <trkpt lat="43.30715" lon="-3.01468">
        <ele>39.2</ele>
        <time>2021-10-28 16:43:11</time>
      </trkpt>
      <trkpt lat="43.30715" lon="-3.01468">
        <ele>39</ele>
        <time>2021-10-28 16:43:12</time>
      </trkpt>
      <trkpt lat="43.30703" lon="-3.01453">
        <ele>38.8</ele>
        <time>2021-10-28 16:43:13</time>
      </trkpt>
      <trkpt lat="43.30703" lon="-3.01453">
        <ele>38.4</ele>
        <time>2021-10-28 16:43:14</time>
      </trkpt>
      <trkpt lat="43.30703" lon="-3.01453">
        <ele>38.2</ele>
        <time>2021-10-28 16:43:15</time>
      </trkpt>
      <trkpt lat="43.30694" lon="-3.01437">
        <ele>38</ele>
        <time>2021-10-28 16:43:16</time>
      </trkpt>
      <trkpt lat="43.3069" lon="-3.01428">
        <ele>37.8</ele>
        <time>2021-10-28 16:43:17</time>
      </trkpt>
      <trkpt lat="43.30683" lon="-3.01408">
        <ele>37.6</ele>
        <time>2021-10-28 16:43:18</time>
      </trkpt>
      <trkpt lat="43.30683" lon="-3.01408">
        <ele>37.4</ele>
        <time>2021-10-28 16:43:19</time>
      </trkpt>
      <trkpt lat="43.3068" lon="-3.01399">
        <ele>37</ele>
        <time>2021-10-28 16:43:20</time>
      </trkpt>
      <trkpt lat="43.30673" lon="-3.01379">
        <ele>36.8</ele>
        <time>2021-10-28 16:43:21</time>
      </trkpt>
      <trkpt lat="43.30673" lon="-3.01379">
        <ele>36.6</ele>
        <time>2021-10-28 16:43:22</time>
      </trkpt>
      <trkpt lat="43.3067" lon="-3.01372">
        <ele>36.4</ele>
        <time>2021-10-28 16:43:23</time>
      </trkpt>
      <trkpt lat="43.30667" lon="-3.01362">
        <ele>36</ele>
        <time>2021-10-28 16:43:24</time>
      </trkpt>
      <trkpt lat="43.3066" lon="-3.01343">
        <ele>35.8</ele>
        <time>2021-10-28 16:43:25</time>
      </trkpt>
      <trkpt lat="43.30657" lon="-3.01332">
        <ele>35.6</ele>
        <time>2021-10-28 16:43:26</time>
      </trkpt>
      <trkpt lat="43.30657" lon="-3.01332">
        <ele>35.6</ele>
        <time>2021-10-28 16:43:27</time>
      </trkpt>
      <trkpt lat="43.30654" lon="-3.01323">
        <ele>35.6</ele>
        <time>2021-10-28 16:43:28</time>
      </trkpt>
      <trkpt lat="43.30651" lon="-3.01314">
        <ele>35.6</ele>
        <time>2021-10-28 16:43:29</time>
      </trkpt>
      <trkpt lat="43.3065" lon="-3.01304">
        <ele>35.6</ele>
        <time>2021-10-28 16:43:30</time>
      </trkpt>
      <trkpt lat="43.30643" lon="-3.01284">
        <ele>35.6</ele>
        <time>2021-10-28 16:43:31</time>
      </trkpt>
      <trkpt lat="43.30643" lon="-3.01284">
        <ele>35.6</ele>
        <time>2021-10-28 16:43:32</time>
      </trkpt>
      <trkpt lat="43.30643" lon="-3.01284">
        <ele>35.6</ele>
        <time>2021-10-28 16:43:33</time>
      </trkpt>
      <trkpt lat="43.30635" lon="-3.01256">
        <ele>35.6</ele>
        <time>2021-10-28 16:43:34</time>
      </trkpt>
      <trkpt lat="43.30635" lon="-3.01256">
        <ele>35.6</ele>
        <time>2021-10-28 16:43:35</time>
      </trkpt>
      <trkpt lat="43.30628" lon="-3.01239">
        <ele>35.8</ele>
        <time>2021-10-28 16:43:36</time>
      </trkpt>
      <trkpt lat="43.30624" lon="-3.01229">
        <ele>35.8</ele>
        <time>2021-10-28 16:43:37</time>
      </trkpt>
      <trkpt lat="43.30624" lon="-3.01229">
        <ele>35.8</ele>
        <time>2021-10-28 16:43:38</time>
      </trkpt>
      <trkpt lat="43.30619" lon="-3.01208">
        <ele>35.6</ele>
        <time>2021-10-28 16:43:39</time>
      </trkpt>
      <trkpt lat="43.30619" lon="-3.01208">
        <ele>35.6</ele>
        <time>2021-10-28 16:43:40</time>
      </trkpt>
      <trkpt lat="43.30619" lon="-3.01208">
        <ele>35.6</ele>
        <time>2021-10-28 16:43:41</time>
      </trkpt>
      <trkpt lat="43.30609" lon="-3.01181">
        <ele>35.6</ele>
        <time>2021-10-28 16:43:42</time>
      </trkpt>
      <trkpt lat="43.30609" lon="-3.01181">
        <ele>35.6</ele>
        <time>2021-10-28 16:43:43</time>
      </trkpt>
      <trkpt lat="43.30604" lon="-3.01163">
        <ele>35.6</ele>
        <time>2021-10-28 16:43:44</time>
      </trkpt>
      <trkpt lat="43.30604" lon="-3.01163">
        <ele>35.6</ele>
        <time>2021-10-28 16:43:45</time>
      </trkpt>
      <trkpt lat="43.306" lon="-3.01153">
        <ele>35.6</ele>
        <time>2021-10-28 16:43:46</time>
      </trkpt>
      <trkpt lat="43.30598" lon="-3.01144">
        <ele>35.6</ele>
        <time>2021-10-28 16:43:47</time>
      </trkpt>
      <trkpt lat="43.30593" lon="-3.01126">
        <ele>35.6</ele>
        <time>2021-10-28 16:43:48</time>
      </trkpt>
      <trkpt lat="43.30593" lon="-3.01126">
        <ele>35.6</ele>
        <time>2021-10-28 16:43:49</time>
      </trkpt>
      <trkpt lat="43.30588" lon="-3.01118">
        <ele>35.4</ele>
        <time>2021-10-28 16:43:50</time>
      </trkpt>
      <trkpt lat="43.30579" lon="-3.01102">
        <ele>35.4</ele>
        <time>2021-10-28 16:43:51</time>
      </trkpt>
      <trkpt lat="43.30579" lon="-3.01102">
        <ele>35.4</ele>
        <time>2021-10-28 16:43:52</time>
      </trkpt>
      <trkpt lat="43.30575" lon="-3.01095">
        <ele>35.4</ele>
        <time>2021-10-28 16:43:53</time>
      </trkpt>
      <trkpt lat="43.30566" lon="-3.01079">
        <ele>35.4</ele>
        <time>2021-10-28 16:43:54</time>
      </trkpt>
      <trkpt lat="43.30566" lon="-3.01079">
        <ele>35.4</ele>
        <time>2021-10-28 16:43:55</time>
      </trkpt>
      <trkpt lat="43.30561" lon="-3.01072">
        <ele>35.4</ele>
        <time>2021-10-28 16:43:56</time>
      </trkpt>
      <trkpt lat="43.30549" lon="-3.0106">
        <ele>35.2</ele>
        <time>2021-10-28 16:43:57</time>
      </trkpt>
      <trkpt lat="43.30549" lon="-3.0106">
        <ele>35.2</ele>
        <time>2021-10-28 16:43:58</time>
      </trkpt>
      <trkpt lat="43.30549" lon="-3.0106">
        <ele>35.2</ele>
        <time>2021-10-28 16:43:59</time>
      </trkpt>
      <trkpt lat="43.30537" lon="-3.01048">
        <ele>35.2</ele>
        <time>2021-10-28 16:44:00</time>
      </trkpt>
      <trkpt lat="43.30532" lon="-3.0104">
        <ele>35</ele>
        <time>2021-10-28 16:44:01</time>
      </trkpt>
      <trkpt lat="43.30523" lon="-3.01023">
        <ele>35</ele>
        <time>2021-10-28 16:44:02</time>
      </trkpt>
      <trkpt lat="43.30523" lon="-3.01023">
        <ele>35</ele>
        <time>2021-10-28 16:44:03</time>
      </trkpt>
      <trkpt lat="43.30512" lon="-3.01011">
        <ele>35.2</ele>
        <time>2021-10-28 16:44:04</time>
      </trkpt>
      <trkpt lat="43.30507" lon="-3.01007">
        <ele>35.2</ele>
        <time>2021-10-28 16:44:05</time>
      </trkpt>
      <trkpt lat="43.30507" lon="-3.01007">
        <ele>35.6</ele>
        <time>2021-10-28 16:44:06</time>
      </trkpt>
      <trkpt lat="43.30502" lon="-3.01002">
        <ele>36.2</ele>
        <time>2021-10-28 16:44:07</time>
      </trkpt>
      <trkpt lat="43.30498" lon="-3.00997">
        <ele>36.8</ele>
        <time>2021-10-28 16:44:08</time>
      </trkpt>
      <trkpt lat="43.30498" lon="-3.00991">
        <ele>37</ele>
        <time>2021-10-28 16:44:09</time>
      </trkpt>
      <trkpt lat="43.30502" lon="-3.00979">
        <ele>37.2</ele>
        <time>2021-10-28 16:44:10</time>
      </trkpt>
      <trkpt lat="43.30502" lon="-3.00979">
        <ele>37.4</ele>
        <time>2021-10-28 16:44:11</time>
      </trkpt>
      <trkpt lat="43.30502" lon="-3.00979">
        <ele>37.8</ele>
        <time>2021-10-28 16:44:12</time>
      </trkpt>
      <trkpt lat="43.30507" lon="-3.00969">
        <ele>38.2</ele>
        <time>2021-10-28 16:44:13</time>
      </trkpt>
      <trkpt lat="43.30511" lon="-3.00966">
        <ele>38.6</ele>
        <time>2021-10-28 16:44:14</time>
      </trkpt>
      <trkpt lat="43.30519" lon="-3.00957">
        <ele>39.2</ele>
        <time>2021-10-28 16:44:15</time>
      </trkpt>
      <trkpt lat="43.30519" lon="-3.00957">
        <ele>39.8</ele>
        <time>2021-10-28 16:44:16</time>
      </trkpt>
      <trkpt lat="43.30528" lon="-3.00948">
        <ele>40.4</ele>
        <time>2021-10-28 16:44:17</time>
      </trkpt>
      <trkpt lat="43.30531" lon="-3.00943">
        <ele>40.8</ele>
        <time>2021-10-28 16:44:18</time>
      </trkpt>
      <trkpt lat="43.30531" lon="-3.00943">
        <ele>41.2</ele>
        <time>2021-10-28 16:44:19</time>
      </trkpt>
      <trkpt lat="43.30538" lon="-3.00933">
        <ele>41.8</ele>
        <time>2021-10-28 16:44:20</time>
      </trkpt>
      <trkpt lat="43.30538" lon="-3.00933">
        <ele>42.2</ele>
        <time>2021-10-28 16:44:21</time>
      </trkpt>
      <trkpt lat="43.30541" lon="-3.00931">
        <ele>42.6</ele>
        <time>2021-10-28 16:44:22</time>
      </trkpt>
      <trkpt lat="43.30545" lon="-3.00926">
        <ele>43</ele>
        <time>2021-10-28 16:44:23</time>
      </trkpt>
      <trkpt lat="43.30545" lon="-3.00926">
        <ele>43.4</ele>
        <time>2021-10-28 16:44:24</time>
      </trkpt>
      <trkpt lat="43.30545" lon="-3.00926">
        <ele>43.8</ele>
        <time>2021-10-28 16:44:25</time>
      </trkpt>
      <trkpt lat="43.30547" lon="-3.00921">
        <ele>44</ele>
        <time>2021-10-28 16:44:26</time>
      </trkpt>
      <trkpt lat="43.30547" lon="-3.00914">
        <ele>44.2</ele>
        <time>2021-10-28 16:44:27</time>
      </trkpt>
      <trkpt lat="43.30547" lon="-3.00914">
        <ele>44.6</ele>
        <time>2021-10-28 16:44:28</time>
      </trkpt>
      <trkpt lat="43.30546" lon="-3.00908">
        <ele>44.6</ele>
        <time>2021-10-28 16:44:29</time>
      </trkpt>
      <trkpt lat="43.30545" lon="-3.00903">
        <ele>44.6</ele>
        <time>2021-10-28 16:44:30</time>
      </trkpt>
      <trkpt lat="43.30539" lon="-3.00893">
        <ele>44.6</ele>
        <time>2021-10-28 16:44:31</time>
      </trkpt>
      <trkpt lat="43.30539" lon="-3.00893">
        <ele>44.4</ele>
        <time>2021-10-28 16:44:32</time>
      </trkpt>
      <trkpt lat="43.30535" lon="-3.0089">
        <ele>44.2</ele>
        <time>2021-10-28 16:44:33</time>
      </trkpt>
      <trkpt lat="43.30524" lon="-3.00886">
        <ele>44.2</ele>
        <time>2021-10-28 16:44:34</time>
      </trkpt>
      <trkpt lat="43.30517" lon="-3.00884">
        <ele>44</ele>
        <time>2021-10-28 16:44:35</time>
      </trkpt>
      <trkpt lat="43.30517" lon="-3.00884">
        <ele>43.8</ele>
        <time>2021-10-28 16:44:36</time>
      </trkpt>
      <trkpt lat="43.30512" lon="-3.00881">
        <ele>43.4</ele>
        <time>2021-10-28 16:44:37</time>
      </trkpt>
      <trkpt lat="43.30502" lon="-3.00869">
        <ele>43.2</ele>
        <time>2021-10-28 16:44:38</time>
      </trkpt>
      <trkpt lat="43.30502" lon="-3.00869">
        <ele>43</ele>
        <time>2021-10-28 16:44:39</time>
      </trkpt>
      <trkpt lat="43.30498" lon="-3.00862">
        <ele>42.6</ele>
        <time>2021-10-28 16:44:40</time>
      </trkpt>
      <trkpt lat="43.30493" lon="-3.00855">
        <ele>42.4</ele>
        <time>2021-10-28 16:44:41</time>
      </trkpt>
      <trkpt lat="43.30485" lon="-3.0084">
        <ele>42.4</ele>
        <time>2021-10-28 16:44:42</time>
      </trkpt>
      <trkpt lat="43.30481" lon="-3.00833">
        <ele>42.4</ele>
        <time>2021-10-28 16:44:43</time>
      </trkpt>
      <trkpt lat="43.30481" lon="-3.00833">
        <ele>42.4</ele>
        <time>2021-10-28 16:44:44</time>
      </trkpt>
      <trkpt lat="43.30478" lon="-3.00826">
        <ele>42.4</ele>
        <time>2021-10-28 16:44:45</time>
      </trkpt>
      <trkpt lat="43.30475" lon="-3.00819">
        <ele>42.6</ele>
        <time>2021-10-28 16:44:46</time>
      </trkpt>
      <trkpt lat="43.3047" lon="-3.00804">
        <ele>42.6</ele>
        <time>2021-10-28 16:44:47</time>
      </trkpt>
      <trkpt lat="43.3047" lon="-3.00804">
        <ele>42.6</ele>
        <time>2021-10-28 16:44:48</time>
      </trkpt>
      <trkpt lat="43.30469" lon="-3.00796">
        <ele>42.6</ele>
        <time>2021-10-28 16:44:49</time>
      </trkpt>
      <trkpt lat="43.30465" lon="-3.00787">
        <ele>42.6</ele>
        <time>2021-10-28 16:44:50</time>
      </trkpt>
      <trkpt lat="43.30463" lon="-3.0078">
        <ele>42.6</ele>
        <time>2021-10-28 16:44:51</time>
      </trkpt>
      <trkpt lat="43.3046" lon="-3.00761">
        <ele>42.6</ele>
        <time>2021-10-28 16:44:52</time>
      </trkpt>
      <trkpt lat="43.30459" lon="-3.00752">
        <ele>42.4</ele>
        <time>2021-10-28 16:44:53</time>
      </trkpt>
      <trkpt lat="43.30459" lon="-3.00752">
        <ele>42.4</ele>
        <time>2021-10-28 16:44:54</time>
      </trkpt>
      <trkpt lat="43.30459" lon="-3.00742">
        <ele>42.2</ele>
        <time>2021-10-28 16:44:55</time>
      </trkpt>
      <trkpt lat="43.30459" lon="-3.00725">
        <ele>42</ele>
        <time>2021-10-28 16:44:56</time>
      </trkpt>
      <trkpt lat="43.30459" lon="-3.00725">
        <ele>42</ele>
        <time>2021-10-28 16:44:57</time>
      </trkpt>
      <trkpt lat="43.30459" lon="-3.00714">
        <ele>41.8</ele>
        <time>2021-10-28 16:44:58</time>
      </trkpt>
      <trkpt lat="43.30461" lon="-3.00705">
        <ele>41.8</ele>
        <time>2021-10-28 16:44:59</time>
      </trkpt>
      <trkpt lat="43.30465" lon="-3.00688">
        <ele>41.6</ele>
        <time>2021-10-28 16:45:00</time>
      </trkpt>
      <trkpt lat="43.30465" lon="-3.00688">
        <ele>41.4</ele>
        <time>2021-10-28 16:45:01</time>
      </trkpt>
      <trkpt lat="43.30465" lon="-3.00688">
        <ele>41.4</ele>
        <time>2021-10-28 16:45:02</time>
      </trkpt>
      <trkpt lat="43.30469" lon="-3.00669">
        <ele>41.2</ele>
        <time>2021-10-28 16:45:03</time>
      </trkpt>
      <trkpt lat="43.30474" lon="-3.0065">
        <ele>41.2</ele>
        <time>2021-10-28 16:45:04</time>
      </trkpt>
      <trkpt lat="43.30474" lon="-3.0065">
        <ele>41</ele>
        <time>2021-10-28 16:45:05</time>
      </trkpt>
      <trkpt lat="43.30476" lon="-3.00641">
        <ele>40.8</ele>
        <time>2021-10-28 16:45:06</time>
      </trkpt>
      <trkpt lat="43.30477" lon="-3.0063">
        <ele>40.6</ele>
        <time>2021-10-28 16:45:07</time>
      </trkpt>
      <trkpt lat="43.30482" lon="-3.00613">
        <ele>40.6</ele>
        <time>2021-10-28 16:45:08</time>
      </trkpt>
      <trkpt lat="43.30482" lon="-3.00613">
        <ele>40.6</ele>
        <time>2021-10-28 16:45:09</time>
      </trkpt>
      <trkpt lat="43.30484" lon="-3.00605">
        <ele>40.4</ele>
        <time>2021-10-28 16:45:10</time>
      </trkpt>
      <trkpt lat="43.30487" lon="-3.00597">
        <ele>40.4</ele>
        <time>2021-10-28 16:45:11</time>
      </trkpt>
      <trkpt lat="43.3049" lon="-3.00578">
        <ele>40.6</ele>
        <time>2021-10-28 16:45:12</time>
      </trkpt>
      <trkpt lat="43.3049" lon="-3.00578">
        <ele>40.6</ele>
        <time>2021-10-28 16:45:13</time>
      </trkpt>
      <trkpt lat="43.30493" lon="-3.00568">
        <ele>40.8</ele>
        <time>2021-10-28 16:45:14</time>
      </trkpt>
      <trkpt lat="43.30497" lon="-3.00553">
        <ele>41</ele>
        <time>2021-10-28 16:45:15</time>
      </trkpt>
      <trkpt lat="43.30497" lon="-3.00553">
        <ele>41.2</ele>
        <time>2021-10-28 16:45:16</time>
      </trkpt>
      <trkpt lat="43.30499" lon="-3.00544">
        <ele>41.4</ele>
        <time>2021-10-28 16:45:17</time>
      </trkpt>
      <trkpt lat="43.30501" lon="-3.00536">
        <ele>41.8</ele>
        <time>2021-10-28 16:45:18</time>
      </trkpt>
      <trkpt lat="43.30505" lon="-3.0052">
        <ele>42.2</ele>
        <time>2021-10-28 16:45:19</time>
      </trkpt>
      <trkpt lat="43.30505" lon="-3.0052">
        <ele>42.4</ele>
        <time>2021-10-28 16:45:20</time>
      </trkpt>
      <trkpt lat="43.30506" lon="-3.00511">
        <ele>42.8</ele>
        <time>2021-10-28 16:45:21</time>
      </trkpt>
      <trkpt lat="43.30509" lon="-3.00507">
        <ele>43</ele>
        <time>2021-10-28 16:45:22</time>
      </trkpt>
      <trkpt lat="43.3051" lon="-3.00499">
        <ele>43.4</ele>
        <time>2021-10-28 16:45:23</time>
      </trkpt>
      <trkpt lat="43.30512" lon="-3.00492">
        <ele>43.8</ele>
        <time>2021-10-28 16:45:24</time>
      </trkpt>
      <trkpt lat="43.30513" lon="-3.00485">
        <ele>44</ele>
        <time>2021-10-28 16:45:25</time>
      </trkpt>
      <trkpt lat="43.30516" lon="-3.00472">
        <ele>44.4</ele>
        <time>2021-10-28 16:45:26</time>
      </trkpt>
      <trkpt lat="43.30516" lon="-3.00472">
        <ele>44.6</ele>
        <time>2021-10-28 16:45:27</time>
      </trkpt>
      <trkpt lat="43.30514" lon="-3.00458">
        <ele>44.8</ele>
        <time>2021-10-28 16:45:28</time>
      </trkpt>
      <trkpt lat="43.30514" lon="-3.00458">
        <ele>45</ele>
        <time>2021-10-28 16:45:29</time>
      </trkpt>
      <trkpt lat="43.30512" lon="-3.00451">
        <ele>45.4</ele>
        <time>2021-10-28 16:45:30</time>
      </trkpt>
      <trkpt lat="43.30509" lon="-3.00446">
        <ele>45.6</ele>
        <time>2021-10-28 16:45:31</time>
      </trkpt>
      <trkpt lat="43.30507" lon="-3.00441">
        <ele>45.6</ele>
        <time>2021-10-28 16:45:32</time>
      </trkpt>
      <trkpt lat="43.30502" lon="-3.00432">
        <ele>45.8</ele>
        <time>2021-10-28 16:45:33</time>
      </trkpt>
      <trkpt lat="43.30502" lon="-3.00432">
        <ele>46</ele>
        <time>2021-10-28 16:45:34</time>
      </trkpt>
      <trkpt lat="43.30495" lon="-3.00419">
        <ele>46.2</ele>
        <time>2021-10-28 16:45:35</time>
      </trkpt>
      <trkpt lat="43.30495" lon="-3.00419">
        <ele>46.4</ele>
        <time>2021-10-28 16:45:36</time>
      </trkpt>
      <trkpt lat="43.30495" lon="-3.00414">
        <ele>46.4</ele>
        <time>2021-10-28 16:45:37</time>
      </trkpt>
      <trkpt lat="43.30494" lon="-3.00406">
        <ele>46.6</ele>
        <time>2021-10-28 16:45:38</time>
      </trkpt>
      <trkpt lat="43.30495" lon="-3.00401">
        <ele>46.6</ele>
        <time>2021-10-28 16:45:39</time>
      </trkpt>
      <trkpt lat="43.30499" lon="-3.00389">
        <ele>46.6</ele>
        <time>2021-10-28 16:45:40</time>
      </trkpt>
      <trkpt lat="43.30499" lon="-3.00389">
        <ele>46.6</ele>
        <time>2021-10-28 16:45:41</time>
      </trkpt>
      <trkpt lat="43.30504" lon="-3.00374">
        <ele>46.4</ele>
        <time>2021-10-28 16:45:42</time>
      </trkpt>
      <trkpt lat="43.30504" lon="-3.00374">
        <ele>46.2</ele>
        <time>2021-10-28 16:45:43</time>
      </trkpt>
      <trkpt lat="43.30507" lon="-3.00366">
        <ele>46</ele>
        <time>2021-10-28 16:45:44</time>
      </trkpt>
      <trkpt lat="43.30509" lon="-3.00357">
        <ele>45.6</ele>
        <time>2021-10-28 16:45:45</time>
      </trkpt>
      <trkpt lat="43.30515" lon="-3.00336">
        <ele>45.2</ele>
        <time>2021-10-28 16:45:46</time>
      </trkpt>
      <trkpt lat="43.30515" lon="-3.00336">
        <ele>45</ele>
        <time>2021-10-28 16:45:47</time>
      </trkpt>
      <trkpt lat="43.30518" lon="-3.00326">
        <ele>44.6</ele>
        <time>2021-10-28 16:45:48</time>
      </trkpt>
      <trkpt lat="43.30522" lon="-3.00316">
        <ele>44.2</ele>
        <time>2021-10-28 16:45:49</time>
      </trkpt>
      <trkpt lat="43.30529" lon="-3.00291">
        <ele>43.6</ele>
        <time>2021-10-28 16:45:50</time>
      </trkpt>
      <trkpt lat="43.30529" lon="-3.00291">
        <ele>43.2</ele>
        <time>2021-10-28 16:45:51</time>
      </trkpt>
      <trkpt lat="43.30538" lon="-3.00267">
        <ele>42.4</ele>
        <time>2021-10-28 16:45:52</time>
      </trkpt>
      <trkpt lat="43.30543" lon="-3.00256">
        <ele>41.8</ele>
        <time>2021-10-28 16:45:53</time>
      </trkpt>
      <trkpt lat="43.30543" lon="-3.00256">
        <ele>41</ele>
        <time>2021-10-28 16:45:54</time>
      </trkpt>
      <trkpt lat="43.30551" lon="-3.0023">
        <ele>40.4</ele>
        <time>2021-10-28 16:45:55</time>
      </trkpt>
      <trkpt lat="43.30554" lon="-3.00217">
        <ele>39.6</ele>
        <time>2021-10-28 16:45:56</time>
      </trkpt>
      <trkpt lat="43.30554" lon="-3.00217">
        <ele>39</ele>
        <time>2021-10-28 16:45:57</time>
      </trkpt>
      <trkpt lat="43.30563" lon="-3.00193">
        <ele>38.4</ele>
        <time>2021-10-28 16:45:58</time>
      </trkpt>
      <trkpt lat="43.30568" lon="-3.00181">
        <ele>38.2</ele>
        <time>2021-10-28 16:45:59</time>
      </trkpt>
      <trkpt lat="43.30568" lon="-3.00181">
        <ele>38</ele>
        <time>2021-10-28 16:46:00</time>
      </trkpt>
      <trkpt lat="43.30572" lon="-3.0017">
        <ele>37.8</ele>
        <time>2021-10-28 16:46:01</time>
      </trkpt>
      <trkpt lat="43.30576" lon="-3.00159">
        <ele>37.8</ele>
        <time>2021-10-28 16:46:02</time>
      </trkpt>
      <trkpt lat="43.3058" lon="-3.00149">
        <ele>37.6</ele>
        <time>2021-10-28 16:46:03</time>
      </trkpt>
      <trkpt lat="43.30583" lon="-3.00139">
        <ele>37.4</ele>
        <time>2021-10-28 16:46:04</time>
      </trkpt>
      <trkpt lat="43.30587" lon="-3.00128">
        <ele>37.2</ele>
        <time>2021-10-28 16:46:05</time>
      </trkpt>
      <trkpt lat="43.30594" lon="-3.00107">
        <ele>37</ele>
        <time>2021-10-28 16:46:06</time>
      </trkpt>
      <trkpt lat="43.30594" lon="-3.00107">
        <ele>36.8</ele>
        <time>2021-10-28 16:46:07</time>
      </trkpt>
      <trkpt lat="43.30599" lon="-3.00082">
        <ele>36.6</ele>
        <time>2021-10-28 16:46:08</time>
      </trkpt>
      <trkpt lat="43.30599" lon="-3.00082">
        <ele>36.6</ele>
        <time>2021-10-28 16:46:09</time>
      </trkpt>
      <trkpt lat="43.30599" lon="-3.00082">
        <ele>36.4</ele>
        <time>2021-10-28 16:46:10</time>
      </trkpt>
      <trkpt lat="43.306" lon="-3.00052">
        <ele>36.4</ele>
        <time>2021-10-28 16:46:11</time>
      </trkpt>
      <trkpt lat="43.30614" lon="-3.00039">
        <ele>36.4</ele>
        <time>2021-10-28 16:46:12</time>
      </trkpt>
      <trkpt lat="43.30618" lon="-3.00026">
        <ele>36.6</ele>
        <time>2021-10-28 16:46:13</time>
      </trkpt>
      <trkpt lat="43.30618" lon="-3.00026">
        <ele>36.8</ele>
        <time>2021-10-28 16:46:14</time>
      </trkpt>
      <trkpt lat="43.30628" lon="-3.00009">
        <ele>37.2</ele>
        <time>2021-10-28 16:46:15</time>
      </trkpt>
      <trkpt lat="43.30628" lon="-3.00009">
        <ele>37.8</ele>
        <time>2021-10-28 16:46:16</time>
      </trkpt>
      <trkpt lat="43.30628" lon="-3.00009">
        <ele>38.2</ele>
        <time>2021-10-28 16:46:17</time>
      </trkpt>
      <trkpt lat="43.30637" lon="-2.99995">
        <ele>38.8</ele>
        <time>2021-10-28 16:46:18</time>
      </trkpt>
      <trkpt lat="43.30642" lon="-2.99993">
        <ele>39.2</ele>
        <time>2021-10-28 16:46:19</time>
      </trkpt>
      <trkpt lat="43.30655" lon="-2.99999">
        <ele>39.6</ele>
        <time>2021-10-28 16:46:20</time>
      </trkpt>
      <trkpt lat="43.30655" lon="-2.99999">
        <ele>40</ele>
        <time>2021-10-28 16:46:21</time>
      </trkpt>
      <trkpt lat="43.30661" lon="-3.00009">
        <ele>40.2</ele>
        <time>2021-10-28 16:46:22</time>
      </trkpt>
      <trkpt lat="43.30661" lon="-3.00009">
        <ele>40.4</ele>
        <time>2021-10-28 16:46:23</time>
      </trkpt>
      <trkpt lat="43.30662" lon="-3.00017">
        <ele>40.6</ele>
        <time>2021-10-28 16:46:24</time>
      </trkpt>
      <trkpt lat="43.30661" lon="-3.00027">
        <ele>40.6</ele>
        <time>2021-10-28 16:46:25</time>
      </trkpt>
      <trkpt lat="43.3066" lon="-3.00033">
        <ele>40.6</ele>
        <time>2021-10-28 16:46:26</time>
      </trkpt>
      <trkpt lat="43.30654" lon="-3.0005">
        <ele>40.6</ele>
        <time>2021-10-28 16:46:27</time>
      </trkpt>
      <trkpt lat="43.30654" lon="-3.0005">
        <ele>40.6</ele>
        <time>2021-10-28 16:46:28</time>
      </trkpt>
      <trkpt lat="43.30643" lon="-3.00058">
        <ele>40.6</ele>
        <time>2021-10-28 16:46:29</time>
      </trkpt>
      <trkpt lat="43.30634" lon="-3.00059">
        <ele>40.6</ele>
        <time>2021-10-28 16:46:30</time>
      </trkpt>
      <trkpt lat="43.30634" lon="-3.00059">
        <ele>40.6</ele>
        <time>2021-10-28 16:46:31</time>
      </trkpt>
      <trkpt lat="43.30629" lon="-3.00058">
        <ele>40.6</ele>
        <time>2021-10-28 16:46:32</time>
      </trkpt>
      <trkpt lat="43.30623" lon="-3.00054">
        <ele>40.6</ele>
        <time>2021-10-28 16:46:33</time>
      </trkpt>
      <trkpt lat="43.30616" lon="-3.00051">
        <ele>40.8</ele>
        <time>2021-10-28 16:46:34</time>
      </trkpt>
      <trkpt lat="43.30603" lon="-3.00044">
        <ele>41</ele>
        <time>2021-10-28 16:46:35</time>
      </trkpt>
      <trkpt lat="43.30598" lon="-3.0004">
        <ele>41</ele>
        <time>2021-10-28 16:46:36</time>
      </trkpt>
      <trkpt lat="43.30598" lon="-3.0004">
        <ele>40.8</ele>
        <time>2021-10-28 16:46:37</time>
      </trkpt>
      <trkpt lat="43.30591" lon="-3.00035">
        <ele>40.8</ele>
        <time>2021-10-28 16:46:38</time>
      </trkpt>
      <trkpt lat="43.30579" lon="-3.00029">
        <ele>40.6</ele>
        <time>2021-10-28 16:46:39</time>
      </trkpt>
      <trkpt lat="43.30579" lon="-3.00029">
        <ele>40.4</ele>
        <time>2021-10-28 16:46:40</time>
      </trkpt>
      <trkpt lat="43.30579" lon="-3.00029">
        <ele>40</ele>
        <time>2021-10-28 16:46:41</time>
      </trkpt>
      <trkpt lat="43.30557" lon="-3.00017">
        <ele>39.8</ele>
        <time>2021-10-28 16:46:42</time>
      </trkpt>
      <trkpt lat="43.30557" lon="-3.00017">
        <ele>39.6</ele>
        <time>2021-10-28 16:46:43</time>
      </trkpt>
      <trkpt lat="43.30557" lon="-3.00017">
        <ele>39.2</ele>
        <time>2021-10-28 16:46:44</time>
      </trkpt>
      <trkpt lat="43.30542" lon="-3.00005">
        <ele>39</ele>
        <time>2021-10-28 16:46:45</time>
      </trkpt>
      <trkpt lat="43.30526" lon="-2.99997">
        <ele>38.8</ele>
        <time>2021-10-28 16:46:46</time>
      </trkpt>
      <trkpt lat="43.30526" lon="-2.99997">
        <ele>38.6</ele>
        <time>2021-10-28 16:46:47</time>
      </trkpt>
      <trkpt lat="43.30518" lon="-2.99994">
        <ele>38.4</ele>
        <time>2021-10-28 16:46:48</time>
      </trkpt>
      <trkpt lat="43.30501" lon="-2.99988">
        <ele>38</ele>
        <time>2021-10-28 16:46:49</time>
      </trkpt>
      <trkpt lat="43.30493" lon="-2.99985">
        <ele>37.6</ele>
        <time>2021-10-28 16:46:50</time>
      </trkpt>
      <trkpt lat="43.30493" lon="-2.99985">
        <ele>37.4</ele>
        <time>2021-10-28 16:46:51</time>
      </trkpt>
      <trkpt lat="43.30485" lon="-2.99984">
        <ele>37.2</ele>
        <time>2021-10-28 16:46:52</time>
      </trkpt>
      <trkpt lat="43.30476" lon="-2.99981">
        <ele>36.8</ele>
        <time>2021-10-28 16:46:53</time>
      </trkpt>
      <trkpt lat="43.30458" lon="-2.99975">
        <ele>36.6</ele>
        <time>2021-10-28 16:46:54</time>
      </trkpt>
      <trkpt lat="43.30458" lon="-2.99975">
        <ele>36.4</ele>
        <time>2021-10-28 16:46:55</time>
      </trkpt>
      <trkpt lat="43.30441" lon="-2.99971">
        <ele>36.2</ele>
        <time>2021-10-28 16:46:56</time>
      </trkpt>
      <trkpt lat="43.30441" lon="-2.99971">
        <ele>36.2</ele>
        <time>2021-10-28 16:46:57</time>
      </trkpt>
      <trkpt lat="43.30441" lon="-2.99971">
        <ele>36</ele>
        <time>2021-10-28 16:46:58</time>
      </trkpt>
      <trkpt lat="43.30425" lon="-2.99971">
        <ele>36</ele>
        <time>2021-10-28 16:46:59</time>
      </trkpt>
      <trkpt lat="43.30409" lon="-2.99972">
        <ele>35.8</ele>
        <time>2021-10-28 16:47:00</time>
      </trkpt>
      <trkpt lat="43.30409" lon="-2.99972">
        <ele>35.6</ele>
        <time>2021-10-28 16:47:01</time>
      </trkpt>
      <trkpt lat="43.30393" lon="-2.99971">
        <ele>35.6</ele>
        <time>2021-10-28 16:47:02</time>
      </trkpt>
      <trkpt lat="43.30393" lon="-2.99971">
        <ele>35.4</ele>
        <time>2021-10-28 16:47:03</time>
      </trkpt>
      <trkpt lat="43.30377" lon="-2.99972">
        <ele>35.4</ele>
        <time>2021-10-28 16:47:04</time>
      </trkpt>
      <trkpt lat="43.30377" lon="-2.99972">
        <ele>35.2</ele>
        <time>2021-10-28 16:47:05</time>
      </trkpt>
      <trkpt lat="43.3037" lon="-2.99972">
        <ele>35.2</ele>
        <time>2021-10-28 16:47:06</time>
      </trkpt>
      <trkpt lat="43.30363" lon="-2.99974">
        <ele>35.2</ele>
        <time>2021-10-28 16:47:07</time>
      </trkpt>
      <trkpt lat="43.30355" lon="-2.99976">
        <ele>35.2</ele>
        <time>2021-10-28 16:47:08</time>
      </trkpt>
      <trkpt lat="43.30339" lon="-2.99977">
        <ele>35.2</ele>
        <time>2021-10-28 16:47:09</time>
      </trkpt>
      <trkpt lat="43.30339" lon="-2.99977">
        <ele>35.2</ele>
        <time>2021-10-28 16:47:10</time>
      </trkpt>
      <trkpt lat="43.30325" lon="-2.99974">
        <ele>35.4</ele>
        <time>2021-10-28 16:47:11</time>
      </trkpt>
      <trkpt lat="43.30325" lon="-2.99974">
        <ele>35.6</ele>
        <time>2021-10-28 16:47:12</time>
      </trkpt>
      <trkpt lat="43.30317" lon="-2.9997">
        <ele>35.8</ele>
        <time>2021-10-28 16:47:13</time>
      </trkpt>
      <trkpt lat="43.30307" lon="-2.99959">
        <ele>36</ele>
        <time>2021-10-28 16:47:14</time>
      </trkpt>
      <trkpt lat="43.30303" lon="-2.99954">
        <ele>36.2</ele>
        <time>2021-10-28 16:47:15</time>
      </trkpt>
      <trkpt lat="43.30299" lon="-2.9995">
        <ele>36.6</ele>
        <time>2021-10-28 16:47:16</time>
      </trkpt>
      <trkpt lat="43.30299" lon="-2.9995">
        <ele>36.8</ele>
        <time>2021-10-28 16:47:17</time>
      </trkpt>
      <trkpt lat="43.30295" lon="-2.99945">
        <ele>37.2</ele>
        <time>2021-10-28 16:47:18</time>
      </trkpt>
      <trkpt lat="43.30287" lon="-2.99936">
        <ele>37.4</ele>
        <time>2021-10-28 16:47:19</time>
      </trkpt>
      <trkpt lat="43.30287" lon="-2.99936">
        <ele>37.4</ele>
        <time>2021-10-28 16:47:20</time>
      </trkpt>
      <trkpt lat="43.30284" lon="-2.99933">
        <ele>37.6</ele>
        <time>2021-10-28 16:47:21</time>
      </trkpt>
      <trkpt lat="43.3028" lon="-2.99929">
        <ele>37.8</ele>
        <time>2021-10-28 16:47:22</time>
      </trkpt>
      <trkpt lat="43.30276" lon="-2.99926">
        <ele>37.8</ele>
        <time>2021-10-28 16:47:23</time>
      </trkpt>
      <trkpt lat="43.30273" lon="-2.99922">
        <ele>37.8</ele>
        <time>2021-10-28 16:47:24</time>
      </trkpt>
      <trkpt lat="43.30264" lon="-2.99913">
        <ele>37.6</ele>
        <time>2021-10-28 16:47:25</time>
      </trkpt>
      <trkpt lat="43.30264" lon="-2.99913">
        <ele>37.4</ele>
        <time>2021-10-28 16:47:26</time>
      </trkpt>
      <trkpt lat="43.30259" lon="-2.999">
        <ele>37.2</ele>
        <time>2021-10-28 16:47:27</time>
      </trkpt>
      <trkpt lat="43.30259" lon="-2.999">
        <ele>37</ele>
        <time>2021-10-28 16:47:28</time>
      </trkpt>
      <trkpt lat="43.30261" lon="-2.99893">
        <ele>36.8</ele>
        <time>2021-10-28 16:47:29</time>
      </trkpt>
      <trkpt lat="43.30264" lon="-2.99884">
        <ele>36.6</ele>
        <time>2021-10-28 16:47:30</time>
      </trkpt>
      <trkpt lat="43.30267" lon="-2.99875">
        <ele>36.4</ele>
        <time>2021-10-28 16:47:31</time>
      </trkpt>
      <trkpt lat="43.30268" lon="-2.99865">
        <ele>36.2</ele>
        <time>2021-10-28 16:47:32</time>
      </trkpt>
      <trkpt lat="43.30268" lon="-2.99849">
        <ele>36</ele>
        <time>2021-10-28 16:47:33</time>
      </trkpt>
      <trkpt lat="43.30268" lon="-2.99849">
        <ele>36</ele>
        <time>2021-10-28 16:47:34</time>
      </trkpt>
      <trkpt lat="43.30268" lon="-2.99849">
        <ele>35.8</ele>
        <time>2021-10-28 16:47:35</time>
      </trkpt>
      <trkpt lat="43.3027" lon="-2.99831">
        <ele>35.8</ele>
        <time>2021-10-28 16:47:36</time>
      </trkpt>
      <trkpt lat="43.30273" lon="-2.99812">
        <ele>35.8</ele>
        <time>2021-10-28 16:47:37</time>
      </trkpt>
      <trkpt lat="43.30273" lon="-2.99812">
        <ele>35.6</ele>
        <time>2021-10-28 16:47:38</time>
      </trkpt>
      <trkpt lat="43.30274" lon="-2.99803">
        <ele>35.4</ele>
        <time>2021-10-28 16:47:39</time>
      </trkpt>
      <trkpt lat="43.30274" lon="-2.99793">
        <ele>35.2</ele>
        <time>2021-10-28 16:47:40</time>
      </trkpt>
      <trkpt lat="43.30273" lon="-2.99784">
        <ele>34.8</ele>
        <time>2021-10-28 16:47:41</time>
      </trkpt>
      <trkpt lat="43.30273" lon="-2.99775">
        <ele>34.6</ele>
        <time>2021-10-28 16:47:42</time>
      </trkpt>
      <trkpt lat="43.30273" lon="-2.99766">
        <ele>34.2</ele>
        <time>2021-10-28 16:47:43</time>
      </trkpt>
      <trkpt lat="43.30273" lon="-2.99749">
        <ele>34.2</ele>
        <time>2021-10-28 16:47:44</time>
      </trkpt>
      <trkpt lat="43.30274" lon="-2.9974">
        <ele>34</ele>
        <time>2021-10-28 16:47:45</time>
      </trkpt>
      <trkpt lat="43.30274" lon="-2.9974">
        <ele>34</ele>
        <time>2021-10-28 16:47:46</time>
      </trkpt>
      <trkpt lat="43.30275" lon="-2.9973">
        <ele>33.6</ele>
        <time>2021-10-28 16:47:47</time>
      </trkpt>
      <trkpt lat="43.30276" lon="-2.9972">
        <ele>32.6</ele>
        <time>2021-10-28 16:47:48</time>
      </trkpt>
      <trkpt lat="43.30276" lon="-2.99701">
        <ele>31.2</ele>
        <time>2021-10-28 16:47:50</time>
      </trkpt>
      <trkpt lat="43.30277" lon="-2.99692">
        <ele>30.4</ele>
        <time>2021-10-28 16:47:51</time>
      </trkpt>
      <trkpt lat="43.30278" lon="-2.99683">
        <ele>30.8</ele>
        <time>2021-10-28 16:47:52</time>
      </trkpt>
      <trkpt lat="43.30279" lon="-2.99666">
        <ele>32</ele>
        <time>2021-10-28 16:47:53</time>
      </trkpt>
      <trkpt lat="43.30279" lon="-2.99666">
        <ele>32.8</ele>
        <time>2021-10-28 16:47:54</time>
      </trkpt>
      <trkpt lat="43.30282" lon="-2.99648">
        <ele>33</ele>
        <time>2021-10-28 16:47:55</time>
      </trkpt>
      <trkpt lat="43.30282" lon="-2.99648">
        <ele>33</ele>
        <time>2021-10-28 16:47:56</time>
      </trkpt>
      <trkpt lat="43.30281" lon="-2.99629">
        <ele>33</ele>
        <time>2021-10-28 16:47:57</time>
      </trkpt>
      <trkpt lat="43.30281" lon="-2.99629">
        <ele>32.8</ele>
        <time>2021-10-28 16:47:58</time>
      </trkpt>
      <trkpt lat="43.30282" lon="-2.9961">
        <ele>32.8</ele>
        <time>2021-10-28 16:47:59</time>
      </trkpt>
      <trkpt lat="43.30282" lon="-2.9961">
        <ele>32.8</ele>
        <time>2021-10-28 16:48:00</time>
      </trkpt>
      <trkpt lat="43.30282" lon="-2.99602">
        <ele>32.6</ele>
        <time>2021-10-28 16:48:01</time>
      </trkpt>
      <trkpt lat="43.30282" lon="-2.99594">
        <ele>32.6</ele>
        <time>2021-10-28 16:48:02</time>
      </trkpt>
      <trkpt lat="43.30281" lon="-2.99579">
        <ele>32.4</ele>
        <time>2021-10-28 16:48:03</time>
      </trkpt>
      <trkpt lat="43.30281" lon="-2.99579">
        <ele>32.4</ele>
        <time>2021-10-28 16:48:04</time>
      </trkpt>
      <trkpt lat="43.30279" lon="-2.99571">
        <ele>32.6</ele>
        <time>2021-10-28 16:48:05</time>
      </trkpt>
      <trkpt lat="43.30276" lon="-2.99556">
        <ele>32.6</ele>
        <time>2021-10-28 16:48:06</time>
      </trkpt>
      <trkpt lat="43.30276" lon="-2.99556">
        <ele>32.8</ele>
        <time>2021-10-28 16:48:07</time>
      </trkpt>
      <trkpt lat="43.30275" lon="-2.99547">
        <ele>33</ele>
        <time>2021-10-28 16:48:08</time>
      </trkpt>
      <trkpt lat="43.30275" lon="-2.9954">
        <ele>33.4</ele>
        <time>2021-10-28 16:48:09</time>
      </trkpt>
      <trkpt lat="43.30273" lon="-2.99526">
        <ele>33.8</ele>
        <time>2021-10-28 16:48:10</time>
      </trkpt>
      <trkpt lat="43.30273" lon="-2.99526">
        <ele>34</ele>
        <time>2021-10-28 16:48:11</time>
      </trkpt>
      <trkpt lat="43.30273" lon="-2.99518">
        <ele>34.4</ele>
        <time>2021-10-28 16:48:12</time>
      </trkpt>
      <trkpt lat="43.30271" lon="-2.99503">
        <ele>34.6</ele>
        <time>2021-10-28 16:48:13</time>
      </trkpt>
      <trkpt lat="43.30271" lon="-2.99503">
        <ele>34.8</ele>
        <time>2021-10-28 16:48:14</time>
      </trkpt>
      <trkpt lat="43.30271" lon="-2.99503">
        <ele>34.8</ele>
        <time>2021-10-28 16:48:15</time>
      </trkpt>
      <trkpt lat="43.30271" lon="-2.99492">
        <ele>34.8</ele>
        <time>2021-10-28 16:48:16</time>
      </trkpt>
      <trkpt lat="43.3027" lon="-2.99487">
        <ele>34.8</ele>
        <time>2021-10-28 16:48:17</time>
      </trkpt>
      <trkpt lat="43.3027" lon="-2.99478">
        <ele>34.8</ele>
        <time>2021-10-28 16:48:18</time>
      </trkpt>
      <trkpt lat="43.3027" lon="-2.99478">
        <ele>34.8</ele>
        <time>2021-10-28 16:48:19</time>
      </trkpt>
      <trkpt lat="43.30268" lon="-2.99474">
        <ele>34.8</ele>
        <time>2021-10-28 16:48:20</time>
      </trkpt>
      <trkpt lat="43.30265" lon="-2.99472">
        <ele>34.8</ele>
        <time>2021-10-28 16:48:21</time>
      </trkpt>
      <trkpt lat="43.30259" lon="-2.99474">
        <ele>34.8</ele>
        <time>2021-10-28 16:48:22</time>
      </trkpt>
      <trkpt lat="43.30259" lon="-2.99474">
        <ele>34.6</ele>
        <time>2021-10-28 16:48:23</time>
      </trkpt>
      <trkpt lat="43.30254" lon="-2.99475">
        <ele>34.6</ele>
        <time>2021-10-28 16:48:24</time>
      </trkpt>
      <trkpt lat="43.30249" lon="-2.99473">
        <ele>34.8</ele>
        <time>2021-10-28 16:48:25</time>
      </trkpt>
      <trkpt lat="43.30243" lon="-2.9947">
        <ele>34.8</ele>
        <time>2021-10-28 16:48:26</time>
      </trkpt>
      <trkpt lat="43.30232" lon="-2.99463">
        <ele>35</ele>
        <time>2021-10-28 16:48:27</time>
      </trkpt>
      <trkpt lat="43.30232" lon="-2.99463">
        <ele>35.6</ele>
        <time>2021-10-28 16:48:28</time>
      </trkpt>
      <trkpt lat="43.30228" lon="-2.99458">
        <ele>36</ele>
        <time>2021-10-28 16:48:29</time>
      </trkpt>
      <trkpt lat="43.30223" lon="-2.99455">
        <ele>36.2</ele>
        <time>2021-10-28 16:48:30</time>
      </trkpt>
      <trkpt lat="43.3022" lon="-2.99451">
        <ele>36.4</ele>
        <time>2021-10-28 16:48:31</time>
      </trkpt>
      <trkpt lat="43.30217" lon="-2.99447">
        <ele>36.6</ele>
        <time>2021-10-28 16:48:32</time>
      </trkpt>
      <trkpt lat="43.30213" lon="-2.99446">
        <ele>36.8</ele>
        <time>2021-10-28 16:48:33</time>
      </trkpt>
      <trkpt lat="43.30208" lon="-2.99446">
        <ele>37</ele>
        <time>2021-10-28 16:48:34</time>
      </trkpt>
      <trkpt lat="43.30208" lon="-2.99446">
        <ele>37.2</ele>
        <time>2021-10-28 16:48:35</time>
      </trkpt>
      <trkpt lat="43.30208" lon="-2.99446">
        <ele>37.4</ele>
        <time>2021-10-28 16:48:36</time>
      </trkpt>
      <trkpt lat="43.30203" lon="-2.99455">
        <ele>37.6</ele>
        <time>2021-10-28 16:48:37</time>
      </trkpt>
      <trkpt lat="43.30202" lon="-2.99462">
        <ele>37.6</ele>
        <time>2021-10-28 16:48:38</time>
      </trkpt>
      <trkpt lat="43.30202" lon="-2.99474">
        <ele>37.6</ele>
        <time>2021-10-28 16:48:39</time>
      </trkpt>
      <trkpt lat="43.30202" lon="-2.99474">
        <ele>37.6</ele>
        <time>2021-10-28 16:48:40</time>
      </trkpt>
      <trkpt lat="43.302" lon="-2.99479">
        <ele>37.6</ele>
        <time>2021-10-28 16:48:41</time>
      </trkpt>
      <trkpt lat="43.30198" lon="-2.99485">
        <ele>37.6</ele>
        <time>2021-10-28 16:48:42</time>
      </trkpt>
      <trkpt lat="43.30191" lon="-2.99497">
        <ele>37.4</ele>
        <time>2021-10-28 16:48:43</time>
      </trkpt>
      <trkpt lat="43.30191" lon="-2.99497">
        <ele>37.2</ele>
        <time>2021-10-28 16:48:44</time>
      </trkpt>
      <trkpt lat="43.30187" lon="-2.99513">
        <ele>37.2</ele>
        <time>2021-10-28 16:48:45</time>
      </trkpt>
      <trkpt lat="43.30187" lon="-2.99513">
        <ele>37</ele>
        <time>2021-10-28 16:48:46</time>
      </trkpt>
      <trkpt lat="43.30185" lon="-2.9952">
        <ele>37</ele>
        <time>2021-10-28 16:48:47</time>
      </trkpt>
      <trkpt lat="43.3018" lon="-2.99529">
        <ele>37</ele>
        <time>2021-10-28 16:48:48</time>
      </trkpt>
      <trkpt lat="43.30177" lon="-2.99536">
        <ele>37</ele>
        <time>2021-10-28 16:48:49</time>
      </trkpt>
      <trkpt lat="43.30174" lon="-2.99542">
        <ele>36.8</ele>
        <time>2021-10-28 16:48:50</time>
      </trkpt>
      <trkpt lat="43.30171" lon="-2.99549">
        <ele>36.8</ele>
        <time>2021-10-28 16:48:51</time>
      </trkpt>
      <trkpt lat="43.30163" lon="-2.99561">
        <ele>36.8</ele>
        <time>2021-10-28 16:48:52</time>
      </trkpt>
      <trkpt lat="43.30163" lon="-2.99561">
        <ele>36.6</ele>
        <time>2021-10-28 16:48:53</time>
      </trkpt>
      <trkpt lat="43.30158" lon="-2.99576">
        <ele>36.6</ele>
        <time>2021-10-28 16:48:54</time>
      </trkpt>
      <trkpt lat="43.30158" lon="-2.99576">
        <ele>36.6</ele>
        <time>2021-10-28 16:48:55</time>
      </trkpt>
      <trkpt lat="43.30156" lon="-2.99581">
        <ele>36.6</ele>
        <time>2021-10-28 16:48:56</time>
      </trkpt>
      <trkpt lat="43.30149" lon="-2.99595">
        <ele>36.6</ele>
        <time>2021-10-28 16:48:57</time>
      </trkpt>
      <trkpt lat="43.30149" lon="-2.99595">
        <ele>36.6</ele>
        <time>2021-10-28 16:48:58</time>
      </trkpt>
      <trkpt lat="43.30146" lon="-2.99602">
        <ele>36.4</ele>
        <time>2021-10-28 16:48:59</time>
      </trkpt>
      <trkpt lat="43.30145" lon="-2.99605">
        <ele>36.4</ele>
        <time>2021-10-28 16:49:00</time>
      </trkpt>
      <trkpt lat="43.30138" lon="-2.99618">
        <ele>36.2</ele>
        <time>2021-10-28 16:49:01</time>
      </trkpt>
      <trkpt lat="43.30138" lon="-2.99618">
        <ele>36.2</ele>
        <time>2021-10-28 16:49:02</time>
      </trkpt>
      <trkpt lat="43.30135" lon="-2.99626">
        <ele>36.2</ele>
        <time>2021-10-28 16:49:03</time>
      </trkpt>
      <trkpt lat="43.30131" lon="-2.9963">
        <ele>36.2</ele>
        <time>2021-10-28 16:49:04</time>
      </trkpt>
      <trkpt lat="43.30125" lon="-2.99643">
        <ele>36.2</ele>
        <time>2021-10-28 16:49:05</time>
      </trkpt>
      <trkpt lat="43.30125" lon="-2.99643">
        <ele>36</ele>
        <time>2021-10-28 16:49:06</time>
      </trkpt>
      <trkpt lat="43.30122" lon="-2.99649">
        <ele>36</ele>
        <time>2021-10-28 16:49:07</time>
      </trkpt>
      <trkpt lat="43.30119" lon="-2.99657">
        <ele>35.8</ele>
        <time>2021-10-28 16:49:08</time>
      </trkpt>
      <trkpt lat="43.30113" lon="-2.99671">
        <ele>35.8</ele>
        <time>2021-10-28 16:49:09</time>
      </trkpt>
      <trkpt lat="43.30113" lon="-2.99671">
        <ele>35.6</ele>
        <time>2021-10-28 16:49:10</time>
      </trkpt>
      <trkpt lat="43.30107" lon="-2.99685">
        <ele>35.6</ele>
        <time>2021-10-28 16:49:11</time>
      </trkpt>
      <trkpt lat="43.30107" lon="-2.99685">
        <ele>35.4</ele>
        <time>2021-10-28 16:49:12</time>
      </trkpt>
      <trkpt lat="43.30104" lon="-2.99692">
        <ele>35.4</ele>
        <time>2021-10-28 16:49:13</time>
      </trkpt>
      <trkpt lat="43.301" lon="-2.99699">
        <ele>35.6</ele>
        <time>2021-10-28 16:49:14</time>
      </trkpt>
      <trkpt lat="43.30093" lon="-2.99713">
        <ele>35.8</ele>
        <time>2021-10-28 16:49:15</time>
      </trkpt>
      <trkpt lat="43.30093" lon="-2.99713">
        <ele>36.2</ele>
        <time>2021-10-28 16:49:16</time>
      </trkpt>
      <trkpt lat="43.30091" lon="-2.99719">
        <ele>36.8</ele>
        <time>2021-10-28 16:49:17</time>
      </trkpt>
      <trkpt lat="43.30087" lon="-2.99731">
        <ele>37.4</ele>
        <time>2021-10-28 16:49:18</time>
      </trkpt>
      <trkpt lat="43.30087" lon="-2.99731">
        <ele>38</ele>
        <time>2021-10-28 16:49:19</time>
      </trkpt>
      <trkpt lat="43.30083" lon="-2.99738">
        <ele>38.6</ele>
        <time>2021-10-28 16:49:20</time>
      </trkpt>
      <trkpt lat="43.3008" lon="-2.99745">
        <ele>39</ele>
        <time>2021-10-28 16:49:21</time>
      </trkpt>
      <trkpt lat="43.30076" lon="-2.99753">
        <ele>39.6</ele>
        <time>2021-10-28 16:49:22</time>
      </trkpt>
      <trkpt lat="43.30068" lon="-2.99764">
        <ele>40</ele>
        <time>2021-10-28 16:49:23</time>
      </trkpt>
      <trkpt lat="43.30068" lon="-2.99764">
        <ele>40.2</ele>
        <time>2021-10-28 16:49:24</time>
      </trkpt>
      <trkpt lat="43.30068" lon="-2.99764">
        <ele>40.6</ele>
        <time>2021-10-28 16:49:25</time>
      </trkpt>
      <trkpt lat="43.3006" lon="-2.99782">
        <ele>41</ele>
        <time>2021-10-28 16:49:26</time>
      </trkpt>
      <trkpt lat="43.3006" lon="-2.99782">
        <ele>41.2</ele>
        <time>2021-10-28 16:49:27</time>
      </trkpt>
      <trkpt lat="43.30058" lon="-2.99788">
        <ele>41.6</ele>
        <time>2021-10-28 16:49:28</time>
      </trkpt>
      <trkpt lat="43.30056" lon="-2.99791">
        <ele>42</ele>
        <time>2021-10-28 16:49:29</time>
      </trkpt>
      <trkpt lat="43.30054" lon="-2.99797">
        <ele>42.2</ele>
        <time>2021-10-28 16:49:30</time>
      </trkpt>
      <trkpt lat="43.30052" lon="-2.99801">
        <ele>42.6</ele>
        <time>2021-10-28 16:49:31</time>
      </trkpt>
      <trkpt lat="43.30047" lon="-2.9981">
        <ele>42.8</ele>
        <time>2021-10-28 16:49:32</time>
      </trkpt>
      <trkpt lat="43.30047" lon="-2.9981">
        <ele>43</ele>
        <time>2021-10-28 16:49:33</time>
      </trkpt>
      <trkpt lat="43.30044" lon="-2.99819">
        <ele>43</ele>
        <time>2021-10-28 16:49:34</time>
      </trkpt>
      <trkpt lat="43.30044" lon="-2.99819">
        <ele>43.2</ele>
        <time>2021-10-28 16:49:35</time>
      </trkpt>
      <trkpt lat="43.30042" lon="-2.99824">
        <ele>43.4</ele>
        <time>2021-10-28 16:49:36</time>
      </trkpt>
      <trkpt lat="43.30038" lon="-2.99829">
        <ele>43.6</ele>
        <time>2021-10-28 16:49:37</time>
      </trkpt>
      <trkpt lat="43.30035" lon="-2.99834">
        <ele>43.8</ele>
        <time>2021-10-28 16:49:38</time>
      </trkpt>
      <trkpt lat="43.30034" lon="-2.99841">
        <ele>44</ele>
        <time>2021-10-28 16:49:39</time>
      </trkpt>
      <trkpt lat="43.3003" lon="-2.99847">
        <ele>44</ele>
        <time>2021-10-28 16:49:40</time>
      </trkpt>
      <trkpt lat="43.30024" lon="-2.99859">
        <ele>44.2</ele>
        <time>2021-10-28 16:49:41</time>
      </trkpt>
      <trkpt lat="43.30024" lon="-2.99859">
        <ele>44.4</ele>
        <time>2021-10-28 16:49:42</time>
      </trkpt>
      <trkpt lat="43.30017" lon="-2.9987">
        <ele>44.4</ele>
        <time>2021-10-28 16:49:43</time>
      </trkpt>
      <trkpt lat="43.30017" lon="-2.9987">
        <ele>44.6</ele>
        <time>2021-10-28 16:49:44</time>
      </trkpt>
      <trkpt lat="43.30013" lon="-2.99877">
        <ele>44.8</ele>
        <time>2021-10-28 16:49:45</time>
      </trkpt>
      <trkpt lat="43.3001" lon="-2.99883">
        <ele>44.8</ele>
        <time>2021-10-28 16:49:46</time>
      </trkpt>
      <trkpt lat="43.30006" lon="-2.99893">
        <ele>45</ele>
        <time>2021-10-28 16:49:47</time>
      </trkpt>
      <trkpt lat="43.30006" lon="-2.99893">
        <ele>45.2</ele>
        <time>2021-10-28 16:49:48</time>
      </trkpt>
      <trkpt lat="43.29996" lon="-2.99905">
        <ele>45.2</ele>
        <time>2021-10-28 16:49:49</time>
      </trkpt>
      <trkpt lat="43.29996" lon="-2.99905">
        <ele>45.4</ele>
        <time>2021-10-28 16:49:50</time>
      </trkpt>
      <trkpt lat="43.29993" lon="-2.99908">
        <ele>45.6</ele>
        <time>2021-10-28 16:49:51</time>
      </trkpt>
      <trkpt lat="43.29984" lon="-2.99912">
        <ele>45.8</ele>
        <time>2021-10-28 16:49:52</time>
      </trkpt>
      <trkpt lat="43.29984" lon="-2.99912">
        <ele>46</ele>
        <time>2021-10-28 16:49:53</time>
      </trkpt>
      <trkpt lat="43.29981" lon="-2.99913">
        <ele>46</ele>
        <time>2021-10-28 16:49:54</time>
      </trkpt>
      <trkpt lat="43.29977" lon="-2.99915">
        <ele>46.2</ele>
        <time>2021-10-28 16:49:55</time>
      </trkpt>
      <trkpt lat="43.29967" lon="-2.99917">
        <ele>46.2</ele>
        <time>2021-10-28 16:49:56</time>
      </trkpt>
      <trkpt lat="43.29967" lon="-2.99917">
        <ele>46.2</ele>
        <time>2021-10-28 16:49:57</time>
      </trkpt>
      <trkpt lat="43.29955" lon="-2.99922">
        <ele>46.2</ele>
        <time>2021-10-28 16:49:58</time>
      </trkpt>
      <trkpt lat="43.29955" lon="-2.99922">
        <ele>46.4</ele>
        <time>2021-10-28 16:49:59</time>
      </trkpt>
      <trkpt lat="43.2995" lon="-2.99924">
        <ele>46.4</ele>
        <time>2021-10-28 16:50:00</time>
      </trkpt>
      <trkpt lat="43.29945" lon="-2.99926">
        <ele>46.4</ele>
        <time>2021-10-28 16:50:01</time>
      </trkpt>
      <trkpt lat="43.29941" lon="-2.99928">
        <ele>46.4</ele>
        <time>2021-10-28 16:50:02</time>
      </trkpt>
      <trkpt lat="43.29931" lon="-2.99935">
        <ele>46.4</ele>
        <time>2021-10-28 16:50:03</time>
      </trkpt>
      <trkpt lat="43.29931" lon="-2.99935">
        <ele>46.4</ele>
        <time>2021-10-28 16:50:04</time>
      </trkpt>
      <trkpt lat="43.29926" lon="-2.99936">
        <ele>46.4</ele>
        <time>2021-10-28 16:50:05</time>
      </trkpt>
      <trkpt lat="43.29915" lon="-2.99939">
        <ele>46.4</ele>
        <time>2021-10-28 16:50:06</time>
      </trkpt>
      <trkpt lat="43.29915" lon="-2.99939">
        <ele>46.4</ele>
        <time>2021-10-28 16:50:07</time>
      </trkpt>
      <trkpt lat="43.2991" lon="-2.99941">
        <ele>46.2</ele>
        <time>2021-10-28 16:50:08</time>
      </trkpt>
      <trkpt lat="43.29904" lon="-2.99942">
        <ele>46.2</ele>
        <time>2021-10-28 16:50:09</time>
      </trkpt>
      <trkpt lat="43.29895" lon="-2.99945">
        <ele>46.2</ele>
        <time>2021-10-28 16:50:10</time>
      </trkpt>
      <trkpt lat="43.29895" lon="-2.99945">
        <ele>46</ele>
        <time>2021-10-28 16:50:11</time>
      </trkpt>
      <trkpt lat="43.2989" lon="-2.99947">
        <ele>46</ele>
        <time>2021-10-28 16:50:12</time>
      </trkpt>
      <trkpt lat="43.29885" lon="-2.9995">
        <ele>46</ele>
        <time>2021-10-28 16:50:13</time>
      </trkpt>
      <trkpt lat="43.29875" lon="-2.99956">
        <ele>46</ele>
        <time>2021-10-28 16:50:14</time>
      </trkpt>
      <trkpt lat="43.29875" lon="-2.99956">
        <ele>46</ele>
        <time>2021-10-28 16:50:15</time>
      </trkpt>
      <trkpt lat="43.2987" lon="-2.99959">
        <ele>46.2</ele>
        <time>2021-10-28 16:50:16</time>
      </trkpt>
      <trkpt lat="43.29866" lon="-2.99962">
        <ele>46.2</ele>
        <time>2021-10-28 16:50:17</time>
      </trkpt>
      <trkpt lat="43.29861" lon="-2.99965">
        <ele>46.4</ele>
        <time>2021-10-28 16:50:18</time>
      </trkpt>
      <trkpt lat="43.29857" lon="-2.99967">
        <ele>46.4</ele>
        <time>2021-10-28 16:50:19</time>
      </trkpt>
      <trkpt lat="43.29852" lon="-2.9997">
        <ele>46.4</ele>
        <time>2021-10-28 16:50:20</time>
      </trkpt>
      <trkpt lat="43.29847" lon="-2.99973">
        <ele>46.2</ele>
        <time>2021-10-28 16:50:21</time>
      </trkpt>
      <trkpt lat="43.29837" lon="-2.99979">
        <ele>46.2</ele>
        <time>2021-10-28 16:50:22</time>
      </trkpt>
      <trkpt lat="43.29837" lon="-2.99979">
        <ele>46.2</ele>
        <time>2021-10-28 16:50:23</time>
      </trkpt>
      <trkpt lat="43.29832" lon="-2.99982">
        <ele>46</ele>
        <time>2021-10-28 16:50:24</time>
      </trkpt>
      <trkpt lat="43.29827" lon="-2.99986">
        <ele>46</ele>
        <time>2021-10-28 16:50:25</time>
      </trkpt>
      <trkpt lat="43.29822" lon="-2.9999">
        <ele>46</ele>
        <time>2021-10-28 16:50:26</time>
      </trkpt>
      <trkpt lat="43.29817" lon="-2.99994">
        <ele>46</ele>
        <time>2021-10-28 16:50:27</time>
      </trkpt>
      <trkpt lat="43.29812" lon="-2.99998">
        <ele>46</ele>
        <time>2021-10-28 16:50:28</time>
      </trkpt>
      <trkpt lat="43.29807" lon="-3.00002">
        <ele>46</ele>
        <time>2021-10-28 16:50:29</time>
      </trkpt>
      <trkpt lat="43.29802" lon="-3.00007">
        <ele>46</ele>
        <time>2021-10-28 16:50:30</time>
      </trkpt>
      <trkpt lat="43.29793" lon="-3.00015">
        <ele>46</ele>
        <time>2021-10-28 16:50:31</time>
      </trkpt>
      <trkpt lat="43.29793" lon="-3.00015">
        <ele>46</ele>
        <time>2021-10-28 16:50:32</time>
      </trkpt>
      <trkpt lat="43.29793" lon="-3.00015">
        <ele>46</ele>
        <time>2021-10-28 16:50:33</time>
      </trkpt>
      <trkpt lat="43.29783" lon="-3.00024">
        <ele>46</ele>
        <time>2021-10-28 16:50:34</time>
      </trkpt>
      <trkpt lat="43.29778" lon="-3.00027">
        <ele>46</ele>
        <time>2021-10-28 16:50:35</time>
      </trkpt>
      <trkpt lat="43.29772" lon="-3.00031">
        <ele>46</ele>
        <time>2021-10-28 16:50:36</time>
      </trkpt>
      <trkpt lat="43.29767" lon="-3.00035">
        <ele>46</ele>
        <time>2021-10-28 16:50:37</time>
      </trkpt>
      <trkpt lat="43.29762" lon="-3.00039">
        <ele>45.8</ele>
        <time>2021-10-28 16:50:38</time>
      </trkpt>
      <trkpt lat="43.29751" lon="-3.00046">
        <ele>45.8</ele>
        <time>2021-10-28 16:50:39</time>
      </trkpt>
      <trkpt lat="43.29751" lon="-3.00046">
        <ele>45.6</ele>
        <time>2021-10-28 16:50:40</time>
      </trkpt>
      <trkpt lat="43.29751" lon="-3.00046">
        <ele>45.4</ele>
        <time>2021-10-28 16:50:41</time>
      </trkpt>
      <trkpt lat="43.29739" lon="-3.00055">
        <ele>45.4</ele>
        <time>2021-10-28 16:50:42</time>
      </trkpt>
      <trkpt lat="43.29727" lon="-3.00066">
        <ele>45</ele>
        <time>2021-10-28 16:50:43</time>
      </trkpt>
      <trkpt lat="43.29727" lon="-3.00066">
        <ele>45</ele>
        <time>2021-10-28 16:50:44</time>
      </trkpt>
      <trkpt lat="43.29722" lon="-3.0007">
        <ele>44.8</ele>
        <time>2021-10-28 16:50:45</time>
      </trkpt>
      <trkpt lat="43.29717" lon="-3.00075">
        <ele>44.8</ele>
        <time>2021-10-28 16:50:46</time>
      </trkpt>
      <trkpt lat="43.29711" lon="-3.0008">
        <ele>44.8</ele>
        <time>2021-10-28 16:50:47</time>
      </trkpt>
      <trkpt lat="43.29706" lon="-3.00084">
        <ele>44.8</ele>
        <time>2021-10-28 16:50:48</time>
      </trkpt>
      <trkpt lat="43.297" lon="-3.00087">
        <ele>44.8</ele>
        <time>2021-10-28 16:50:49</time>
      </trkpt>
      <trkpt lat="43.2969" lon="-3.00098">
        <ele>44.6</ele>
        <time>2021-10-28 16:50:50</time>
      </trkpt>
      <trkpt lat="43.2969" lon="-3.00098">
        <ele>44.6</ele>
        <time>2021-10-28 16:50:51</time>
      </trkpt>
      <trkpt lat="43.29683" lon="-3.00103">
        <ele>44.4</ele>
        <time>2021-10-28 16:50:52</time>
      </trkpt>
      <trkpt lat="43.29672" lon="-3.00111">
        <ele>44.4</ele>
        <time>2021-10-28 16:50:53</time>
      </trkpt>
      <trkpt lat="43.29672" lon="-3.00111">
        <ele>44.2</ele>
        <time>2021-10-28 16:50:54</time>
      </trkpt>
      <trkpt lat="43.29672" lon="-3.00111">
        <ele>44</ele>
        <time>2021-10-28 16:50:55</time>
      </trkpt>
      <trkpt lat="43.29661" lon="-3.00117">
        <ele>44</ele>
        <time>2021-10-28 16:50:56</time>
      </trkpt>
      <trkpt lat="43.29651" lon="-3.00123">
        <ele>43.8</ele>
        <time>2021-10-28 16:50:57</time>
      </trkpt>
      <trkpt lat="43.29651" lon="-3.00123">
        <ele>43.8</ele>
        <time>2021-10-28 16:50:58</time>
      </trkpt>
      <trkpt lat="43.29642" lon="-3.0013">
        <ele>43.8</ele>
        <time>2021-10-28 16:50:59</time>
      </trkpt>
      <trkpt lat="43.29636" lon="-3.00134">
        <ele>43.8</ele>
        <time>2021-10-28 16:51:00</time>
      </trkpt>
      <trkpt lat="43.29623" lon="-3.00142">
        <ele>43.8</ele>
        <time>2021-10-28 16:51:01</time>
      </trkpt>
      <trkpt lat="43.29623" lon="-3.00142">
        <ele>43.8</ele>
        <time>2021-10-28 16:51:02</time>
      </trkpt>
      <trkpt lat="43.29615" lon="-3.00147">
        <ele>43.8</ele>
        <time>2021-10-28 16:51:03</time>
      </trkpt>
      <trkpt lat="43.29603" lon="-3.00155">
        <ele>43.8</ele>
        <time>2021-10-28 16:51:04</time>
      </trkpt>
      <trkpt lat="43.29603" lon="-3.00155">
        <ele>43.8</ele>
        <time>2021-10-28 16:51:05</time>
      </trkpt>
      <trkpt lat="43.29598" lon="-3.0016">
        <ele>44</ele>
        <time>2021-10-28 16:51:06</time>
      </trkpt>
      <trkpt lat="43.29593" lon="-3.00161">
        <ele>44.2</ele>
        <time>2021-10-28 16:51:07</time>
      </trkpt>
      <trkpt lat="43.29582" lon="-3.00169">
        <ele>44.4</ele>
        <time>2021-10-28 16:51:08</time>
      </trkpt>
      <trkpt lat="43.29582" lon="-3.00169">
        <ele>44.4</ele>
        <time>2021-10-28 16:51:09</time>
      </trkpt>
      <trkpt lat="43.29572" lon="-3.00175">
        <ele>44.6</ele>
        <time>2021-10-28 16:51:10</time>
      </trkpt>
      <trkpt lat="43.29572" lon="-3.00175">
        <ele>44.8</ele>
        <time>2021-10-28 16:51:11</time>
      </trkpt>
      <trkpt lat="43.29566" lon="-3.00177">
        <ele>44.8</ele>
        <time>2021-10-28 16:51:12</time>
      </trkpt>
      <trkpt lat="43.29554" lon="-3.00183">
        <ele>45</ele>
        <time>2021-10-28 16:51:13</time>
      </trkpt>
      <trkpt lat="43.29548" lon="-3.00185">
        <ele>45</ele>
        <time>2021-10-28 16:51:14</time>
      </trkpt>
      <trkpt lat="43.29548" lon="-3.00185">
        <ele>45.2</ele>
        <time>2021-10-28 16:51:15</time>
      </trkpt>
      <trkpt lat="43.29543" lon="-3.00188">
        <ele>45.2</ele>
        <time>2021-10-28 16:51:16</time>
      </trkpt>
      <trkpt lat="43.29538" lon="-3.00191">
        <ele>45.2</ele>
        <time>2021-10-28 16:51:17</time>
      </trkpt>
      <trkpt lat="43.29527" lon="-3.00198">
        <ele>45.2</ele>
        <time>2021-10-28 16:51:18</time>
      </trkpt>
      <trkpt lat="43.29527" lon="-3.00198">
        <ele>45.4</ele>
        <time>2021-10-28 16:51:19</time>
      </trkpt>
      <trkpt lat="43.29522" lon="-3.00201">
        <ele>45.4</ele>
        <time>2021-10-28 16:51:20</time>
      </trkpt>
      <trkpt lat="43.29515" lon="-3.00206">
        <ele>45.4</ele>
        <time>2021-10-28 16:51:21</time>
      </trkpt>
      <trkpt lat="43.29515" lon="-3.00206">
        <ele>45.4</ele>
        <time>2021-10-28 16:51:22</time>
      </trkpt>
      <trkpt lat="43.2951" lon="-3.00212">
        <ele>45.4</ele>
        <time>2021-10-28 16:51:23</time>
      </trkpt>
      <trkpt lat="43.2951" lon="-3.00212">
        <ele>45.6</ele>
        <time>2021-10-28 16:51:24</time>
      </trkpt>
      <trkpt lat="43.29506" lon="-3.00219">
        <ele>45.6</ele>
        <time>2021-10-28 16:51:25</time>
      </trkpt>
      <trkpt lat="43.29501" lon="-3.00229">
        <ele>45.6</ele>
        <time>2021-10-28 16:51:26</time>
      </trkpt>
      <trkpt lat="43.29501" lon="-3.00229">
        <ele>45.6</ele>
        <time>2021-10-28 16:51:27</time>
      </trkpt>
      <trkpt lat="43.295" lon="-3.00235">
        <ele>45.6</ele>
        <time>2021-10-28 16:51:28</time>
      </trkpt>
      <trkpt lat="43.29497" lon="-3.00248">
        <ele>45.2</ele>
        <time>2021-10-28 16:51:29</time>
      </trkpt>
      <trkpt lat="43.29497" lon="-3.00248">
        <ele>45</ele>
        <time>2021-10-28 16:51:30</time>
      </trkpt>
      <trkpt lat="43.29494" lon="-3.0026">
        <ele>44.6</ele>
        <time>2021-10-28 16:51:31</time>
      </trkpt>
      <trkpt lat="43.29494" lon="-3.0026">
        <ele>44.4</ele>
        <time>2021-10-28 16:51:32</time>
      </trkpt>
      <trkpt lat="43.2949" lon="-3.0027">
        <ele>44</ele>
        <time>2021-10-28 16:51:33</time>
      </trkpt>
      <trkpt lat="43.2949" lon="-3.0027">
        <ele>43.8</ele>
        <time>2021-10-28 16:51:34</time>
      </trkpt>
      <trkpt lat="43.29488" lon="-3.00275">
        <ele>43.4</ele>
        <time>2021-10-28 16:51:35</time>
      </trkpt>
      <trkpt lat="43.29486" lon="-3.0028">
        <ele>43.2</ele>
        <time>2021-10-28 16:51:36</time>
      </trkpt>
      <trkpt lat="43.29484" lon="-3.00285">
        <ele>43</ele>
        <time>2021-10-28 16:51:37</time>
      </trkpt>
      <trkpt lat="43.29481" lon="-3.0029">
        <ele>42.8</ele>
        <time>2021-10-28 16:51:38</time>
      </trkpt>
      <trkpt lat="43.29478" lon="-3.00297">
        <ele>42.6</ele>
        <time>2021-10-28 16:51:39</time>
      </trkpt>
      <trkpt lat="43.29478" lon="-3.00297">
        <ele>42.2</ele>
        <time>2021-10-28 16:51:40</time>
      </trkpt>
      <trkpt lat="43.29477" lon="-3.003">
        <ele>42</ele>
        <time>2021-10-28 16:51:41</time>
      </trkpt>
      <trkpt lat="43.29476" lon="-3.00302">
        <ele>41.8</ele>
        <time>2021-10-28 16:51:42</time>
      </trkpt>
      <trkpt lat="43.29477" lon="-3.00309">
        <ele>41.6</ele>
        <time>2021-10-28 16:51:43</time>
      </trkpt>
      <trkpt lat="43.29476" lon="-3.00312">
        <ele>41.4</ele>
        <time>2021-10-28 16:51:44</time>
      </trkpt>
      <trkpt lat="43.29476" lon="-3.00312">
        <ele>41.2</ele>
        <time>2021-10-28 16:51:45</time>
      </trkpt>
      <trkpt lat="43.29474" lon="-3.00314">
        <ele>41</ele>
        <time>2021-10-28 16:51:46</time>
      </trkpt>
      <trkpt lat="43.29471" lon="-3.00316">
        <ele>41</ele>
        <time>2021-10-28 16:51:47</time>
      </trkpt>
      <trkpt lat="43.29464" lon="-3.00327">
        <ele>40.8</ele>
        <time>2021-10-28 16:51:48</time>
      </trkpt>
      <trkpt lat="43.29464" lon="-3.00327">
        <ele>40.6</ele>
        <time>2021-10-28 16:51:49</time>
      </trkpt>
      <trkpt lat="43.29461" lon="-3.00334">
        <ele>40.4</ele>
        <time>2021-10-28 16:51:50</time>
      </trkpt>
      <trkpt lat="43.29452" lon="-3.00346">
        <ele>40.4</ele>
        <time>2021-10-28 16:51:51</time>
      </trkpt>
      <trkpt lat="43.29452" lon="-3.00346">
        <ele>40.2</ele>
        <time>2021-10-28 16:51:52</time>
      </trkpt>
      <trkpt lat="43.29452" lon="-3.00346">
        <ele>40</ele>
        <time>2021-10-28 16:51:53</time>
      </trkpt>
      <trkpt lat="43.29443" lon="-3.00359">
        <ele>39.8</ele>
        <time>2021-10-28 16:51:54</time>
      </trkpt>
      <trkpt lat="43.29438" lon="-3.00365">
        <ele>39.4</ele>
        <time>2021-10-28 16:51:55</time>
      </trkpt>
      <trkpt lat="43.29427" lon="-3.00376">
        <ele>39</ele>
        <time>2021-10-28 16:51:56</time>
      </trkpt>
      <trkpt lat="43.29421" lon="-3.00382">
        <ele>38.6</ele>
        <time>2021-10-28 16:51:57</time>
      </trkpt>
      <trkpt lat="43.29421" lon="-3.00382">
        <ele>38.2</ele>
        <time>2021-10-28 16:51:58</time>
      </trkpt>
      <trkpt lat="43.29416" lon="-3.0039">
        <ele>38</ele>
        <time>2021-10-28 16:51:59</time>
      </trkpt>
      <trkpt lat="43.29405" lon="-3.004">
        <ele>37.8</ele>
        <time>2021-10-28 16:52:00</time>
      </trkpt>
      <trkpt lat="43.29401" lon="-3.00405">
        <ele>37.6</ele>
        <time>2021-10-28 16:52:01</time>
      </trkpt>
      <trkpt lat="43.29396" lon="-3.00408">
        <ele>37.6</ele>
        <time>2021-10-28 16:52:02</time>
      </trkpt>
      <trkpt lat="43.29396" lon="-3.00408">
        <ele>37.6</ele>
        <time>2021-10-28 16:52:03</time>
      </trkpt>
      <trkpt lat="43.29384" lon="-3.00419">
        <ele>37.6</ele>
        <time>2021-10-28 16:52:04</time>
      </trkpt>
      <trkpt lat="43.29384" lon="-3.00419">
        <ele>37.6</ele>
        <time>2021-10-28 16:52:05</time>
      </trkpt>
      <trkpt lat="43.29384" lon="-3.00419">
        <ele>37.4</ele>
        <time>2021-10-28 16:52:06</time>
      </trkpt>
      <trkpt lat="43.29374" lon="-3.00423">
        <ele>37.4</ele>
        <time>2021-10-28 16:52:07</time>
      </trkpt>
      <trkpt lat="43.29364" lon="-3.00432">
        <ele>37.2</ele>
        <time>2021-10-28 16:52:08</time>
      </trkpt>
      <trkpt lat="43.29359" lon="-3.00433">
        <ele>37</ele>
        <time>2021-10-28 16:52:09</time>
      </trkpt>
      <trkpt lat="43.29356" lon="-3.00437">
        <ele>37</ele>
        <time>2021-10-28 16:52:10</time>
      </trkpt>
      <trkpt lat="43.29356" lon="-3.00437">
        <ele>36.8</ele>
        <time>2021-10-28 16:52:11</time>
      </trkpt>
      <trkpt lat="43.29353" lon="-3.00442">
        <ele>36.6</ele>
        <time>2021-10-28 16:52:12</time>
      </trkpt>
      <trkpt lat="43.29349" lon="-3.00447">
        <ele>36.6</ele>
        <time>2021-10-28 16:52:13</time>
      </trkpt>
      <trkpt lat="43.29349" lon="-3.00447">
        <ele>36.4</ele>
        <time>2021-10-28 16:52:14</time>
      </trkpt>
      <trkpt lat="43.29346" lon="-3.00449">
        <ele>36.4</ele>
        <time>2021-10-28 16:52:15</time>
      </trkpt>
      <trkpt lat="43.29342" lon="-3.00452">
        <ele>36.4</ele>
        <time>2021-10-28 16:52:16</time>
      </trkpt>
      <trkpt lat="43.29331" lon="-3.00451">
        <ele>36.2</ele>
        <time>2021-10-28 16:52:17</time>
      </trkpt>
      <trkpt lat="43.29326" lon="-3.0045">
        <ele>36.2</ele>
        <time>2021-10-28 16:52:18</time>
      </trkpt>
      <trkpt lat="43.29326" lon="-3.0045">
        <ele>36.2</ele>
        <time>2021-10-28 16:52:19</time>
      </trkpt>
      <trkpt lat="43.29316" lon="-3.00452">
        <ele>36.4</ele>
        <time>2021-10-28 16:52:20</time>
      </trkpt>
      <trkpt lat="43.29316" lon="-3.00452">
        <ele>36.6</ele>
        <time>2021-10-28 16:52:21</time>
      </trkpt>
      <trkpt lat="43.29309" lon="-3.00453">
        <ele>36.8</ele>
        <time>2021-10-28 16:52:22</time>
      </trkpt>
      <trkpt lat="43.29302" lon="-3.00453">
        <ele>37</ele>
        <time>2021-10-28 16:52:23</time>
      </trkpt>
      <trkpt lat="43.29288" lon="-3.00455">
        <ele>37</ele>
        <time>2021-10-28 16:52:24</time>
      </trkpt>
      <trkpt lat="43.29288" lon="-3.00455">
        <ele>37</ele>
        <time>2021-10-28 16:52:25</time>
      </trkpt>
      <trkpt lat="43.29288" lon="-3.00455">
        <ele>37</ele>
        <time>2021-10-28 16:52:26</time>
      </trkpt>
      <trkpt lat="43.29276" lon="-3.00455">
        <ele>37</ele>
        <time>2021-10-28 16:52:27</time>
      </trkpt>
      <trkpt lat="43.29265" lon="-3.00457">
        <ele>37</ele>
        <time>2021-10-28 16:52:28</time>
      </trkpt>
      <trkpt lat="43.29265" lon="-3.00457">
        <ele>37</ele>
        <time>2021-10-28 16:52:29</time>
      </trkpt>
      <trkpt lat="43.29259" lon="-3.00459">
        <ele>37</ele>
        <time>2021-10-28 16:52:30</time>
      </trkpt>
      <trkpt lat="43.29254" lon="-3.00458">
        <ele>37</ele>
        <time>2021-10-28 16:52:31</time>
      </trkpt>
      <trkpt lat="43.29246" lon="-3.00457">
        <ele>37</ele>
        <time>2021-10-28 16:52:32</time>
      </trkpt>
      <trkpt lat="43.29233" lon="-3.00456">
        <ele>36.8</ele>
        <time>2021-10-28 16:52:33</time>
      </trkpt>
      <trkpt lat="43.29233" lon="-3.00456">
        <ele>36.8</ele>
        <time>2021-10-28 16:52:34</time>
      </trkpt>
      <trkpt lat="43.29233" lon="-3.00456">
        <ele>36.6</ele>
        <time>2021-10-28 16:52:35</time>
      </trkpt>
      <trkpt lat="43.29211" lon="-3.00455">
        <ele>36.4</ele>
        <time>2021-10-28 16:52:36</time>
      </trkpt>
      <trkpt lat="43.29211" lon="-3.00455">
        <ele>36.4</ele>
        <time>2021-10-28 16:52:37</time>
      </trkpt>
      <trkpt lat="43.29204" lon="-3.00455">
        <ele>36.2</ele>
        <time>2021-10-28 16:52:38</time>
      </trkpt>
      <trkpt lat="43.29198" lon="-3.00452">
        <ele>36.2</ele>
        <time>2021-10-28 16:52:39</time>
      </trkpt>
      <trkpt lat="43.29189" lon="-3.00451">
        <ele>36.2</ele>
        <time>2021-10-28 16:52:40</time>
      </trkpt>
      <trkpt lat="43.29189" lon="-3.00451">
        <ele>36.2</ele>
        <time>2021-10-28 16:52:41</time>
      </trkpt>
      <trkpt lat="43.29183" lon="-3.00451">
        <ele>36.2</ele>
        <time>2021-10-28 16:52:42</time>
      </trkpt>
      <trkpt lat="43.29171" lon="-3.00445">
        <ele>36.2</ele>
        <time>2021-10-28 16:52:43</time>
      </trkpt>
      <trkpt lat="43.29171" lon="-3.00445">
        <ele>36.2</ele>
        <time>2021-10-28 16:52:44</time>
      </trkpt>
      <trkpt lat="43.29166" lon="-3.00442">
        <ele>36.2</ele>
        <time>2021-10-28 16:52:45</time>
      </trkpt>
      <trkpt lat="43.2916" lon="-3.00438">
        <ele>36.2</ele>
        <time>2021-10-28 16:52:46</time>
      </trkpt>
      <trkpt lat="43.29147" lon="-3.00426">
        <ele>36.4</ele>
        <time>2021-10-28 16:52:47</time>
      </trkpt>
      <trkpt lat="43.29147" lon="-3.00426">
        <ele>36.4</ele>
        <time>2021-10-28 16:52:48</time>
      </trkpt>
      <trkpt lat="43.2914" lon="-3.00421">
        <ele>36.2</ele>
        <time>2021-10-28 16:52:49</time>
      </trkpt>
      <trkpt lat="43.29129" lon="-3.00409">
        <ele>36</ele>
        <time>2021-10-28 16:52:50</time>
      </trkpt>
      <trkpt lat="43.29129" lon="-3.00409">
        <ele>36</ele>
        <time>2021-10-28 16:52:51</time>
      </trkpt>
      <trkpt lat="43.29123" lon="-3.004">
        <ele>35.8</ele>
        <time>2021-10-28 16:52:52</time>
      </trkpt>
      <trkpt lat="43.2912" lon="-3.00395">
        <ele>35.8</ele>
        <time>2021-10-28 16:52:53</time>
      </trkpt>
      <trkpt lat="43.2912" lon="-3.00395">
        <ele>35.6</ele>
        <time>2021-10-28 16:52:54</time>
      </trkpt>
      <trkpt lat="43.29114" lon="-3.00391">
        <ele>35.6</ele>
        <time>2021-10-28 16:52:55</time>
      </trkpt>
      <trkpt lat="43.29104" lon="-3.00381">
        <ele>35.6</ele>
        <time>2021-10-28 16:52:56</time>
      </trkpt>
      <trkpt lat="43.29104" lon="-3.00381">
        <ele>35.6</ele>
        <time>2021-10-28 16:52:57</time>
      </trkpt>
      <trkpt lat="43.29104" lon="-3.00381">
        <ele>35.6</ele>
        <time>2021-10-28 16:52:58</time>
      </trkpt>
      <trkpt lat="43.29095" lon="-3.0037">
        <ele>35.8</ele>
        <time>2021-10-28 16:52:59</time>
      </trkpt>
      <trkpt lat="43.29091" lon="-3.00364">
        <ele>35.8</ele>
        <time>2021-10-28 16:53:00</time>
      </trkpt>
      <trkpt lat="43.29083" lon="-3.00356">
        <ele>35.8</ele>
        <time>2021-10-28 16:53:01</time>
      </trkpt>
      <trkpt lat="43.29083" lon="-3.00356">
        <ele>35.8</ele>
        <time>2021-10-28 16:53:02</time>
      </trkpt>
      <trkpt lat="43.29079" lon="-3.00349">
        <ele>35.6</ele>
        <time>2021-10-28 16:53:03</time>
      </trkpt>
      <trkpt lat="43.29071" lon="-3.00335">
        <ele>35.6</ele>
        <time>2021-10-28 16:53:04</time>
      </trkpt>
      <trkpt lat="43.29065" lon="-3.00328">
        <ele>35.4</ele>
        <time>2021-10-28 16:53:05</time>
      </trkpt>
      <trkpt lat="43.29065" lon="-3.00328">
        <ele>35.2</ele>
        <time>2021-10-28 16:53:06</time>
      </trkpt>
      <trkpt lat="43.29057" lon="-3.00313">
        <ele>35</ele>
        <time>2021-10-28 16:53:07</time>
      </trkpt>
      <trkpt lat="43.29057" lon="-3.00313">
        <ele>35</ele>
        <time>2021-10-28 16:53:08</time>
      </trkpt>
      <trkpt lat="43.29057" lon="-3.00313">
        <ele>35</ele>
        <time>2021-10-28 16:53:09</time>
      </trkpt>
      <trkpt lat="43.29049" lon="-3.00298">
        <ele>35</ele>
        <time>2021-10-28 16:53:10</time>
      </trkpt>
      <trkpt lat="43.29047" lon="-3.00292">
        <ele>35</ele>
        <time>2021-10-28 16:53:11</time>
      </trkpt>
      <trkpt lat="43.29042" lon="-3.00285">
        <ele>35</ele>
        <time>2021-10-28 16:53:12</time>
      </trkpt>
      <trkpt lat="43.29035" lon="-3.00281">
        <ele>35</ele>
        <time>2021-10-28 16:53:13</time>
      </trkpt>
      <trkpt lat="43.29032" lon="-3.00274">
        <ele>35</ele>
        <time>2021-10-28 16:53:14</time>
      </trkpt>
      <trkpt lat="43.29029" lon="-3.00259">
        <ele>35</ele>
        <time>2021-10-28 16:53:15</time>
      </trkpt>
      <trkpt lat="43.29025" lon="-3.0025">
        <ele>34.8</ele>
        <time>2021-10-28 16:53:16</time>
      </trkpt>
      <trkpt lat="43.29025" lon="-3.0025">
        <ele>34.8</ele>
        <time>2021-10-28 16:53:17</time>
      </trkpt>
      <trkpt lat="43.29021" lon="-3.00241">
        <ele>34.6</ele>
        <time>2021-10-28 16:53:18</time>
      </trkpt>
      <trkpt lat="43.29019" lon="-3.00232">
        <ele>34.6</ele>
        <time>2021-10-28 16:53:19</time>
      </trkpt>
      <trkpt lat="43.29016" lon="-3.00224">
        <ele>34.6</ele>
        <time>2021-10-28 16:53:20</time>
      </trkpt>
      <trkpt lat="43.29012" lon="-3.00216">
        <ele>34.6</ele>
        <time>2021-10-28 16:53:21</time>
      </trkpt>
      <trkpt lat="43.29007" lon="-3.00201">
        <ele>34.6</ele>
        <time>2021-10-28 16:53:22</time>
      </trkpt>
      <trkpt lat="43.29007" lon="-3.00201">
        <ele>34.8</ele>
        <time>2021-10-28 16:53:23</time>
      </trkpt>
      <trkpt lat="43.29005" lon="-3.00194">
        <ele>34.8</ele>
        <time>2021-10-28 16:53:24</time>
      </trkpt>
      <trkpt lat="43.29003" lon="-3.00185">
        <ele>34.8</ele>
        <time>2021-10-28 16:53:25</time>
      </trkpt>
      <trkpt lat="43.29001" lon="-3.00178">
        <ele>34.8</ele>
        <time>2021-10-28 16:53:26</time>
      </trkpt>
      <trkpt lat="43.29001" lon="-3.00171">
        <ele>34.8</ele>
        <time>2021-10-28 16:53:27</time>
      </trkpt>
      <trkpt lat="43.28999" lon="-3.00164">
        <ele>34.8</ele>
        <time>2021-10-28 16:53:28</time>
      </trkpt>
      <trkpt lat="43.28994" lon="-3.00144">
        <ele>35</ele>
        <time>2021-10-28 16:53:29</time>
      </trkpt>
      <trkpt lat="43.28994" lon="-3.00144">
        <ele>35</ele>
        <time>2021-10-28 16:53:30</time>
      </trkpt>
      <trkpt lat="43.28994" lon="-3.00144">
        <ele>35</ele>
        <time>2021-10-28 16:53:31</time>
      </trkpt>
      <trkpt lat="43.28985" lon="-3.00118">
        <ele>35</ele>
        <time>2021-10-28 16:53:32</time>
      </trkpt>
      <trkpt lat="43.28985" lon="-3.00118">
        <ele>35.2</ele>
        <time>2021-10-28 16:53:33</time>
      </trkpt>
      <trkpt lat="43.2898" lon="-3.00099">
        <ele>35.2</ele>
        <time>2021-10-28 16:53:34</time>
      </trkpt>
      <trkpt lat="43.2898" lon="-3.00099">
        <ele>35.2</ele>
        <time>2021-10-28 16:53:35</time>
      </trkpt>
      <trkpt lat="43.28977" lon="-3.00088">
        <ele>35.4</ele>
        <time>2021-10-28 16:53:36</time>
      </trkpt>
      <trkpt lat="43.28973" lon="-3.00069">
        <ele>35.4</ele>
        <time>2021-10-28 16:53:37</time>
      </trkpt>
      <trkpt lat="43.28973" lon="-3.00069">
        <ele>35.4</ele>
        <time>2021-10-28 16:53:38</time>
      </trkpt>
      <trkpt lat="43.28969" lon="-3.00051">
        <ele>35.6</ele>
        <time>2021-10-28 16:53:39</time>
      </trkpt>
      <trkpt lat="43.28966" lon="-3.00042">
        <ele>35.6</ele>
        <time>2021-10-28 16:53:40</time>
      </trkpt>
      <trkpt lat="43.28963" lon="-3.00036">
        <ele>35.6</ele>
        <time>2021-10-28 16:53:41</time>
      </trkpt>
      <trkpt lat="43.28963" lon="-3.00036">
        <ele>35.4</ele>
        <time>2021-10-28 16:53:42</time>
      </trkpt>
      <trkpt lat="43.28958" lon="-3.00027">
        <ele>35.4</ele>
        <time>2021-10-28 16:53:43</time>
      </trkpt>
      <trkpt lat="43.28956" lon="-3.0002">
        <ele>35.4</ele>
        <time>2021-10-28 16:53:44</time>
      </trkpt>
      <trkpt lat="43.28952" lon="-3.00005">
        <ele>35.4</ele>
        <time>2021-10-28 16:53:45</time>
      </trkpt>
      <trkpt lat="43.28952" lon="-3.00005">
        <ele>35.4</ele>
        <time>2021-10-28 16:53:46</time>
      </trkpt>
      <trkpt lat="43.28949" lon="-2.99998">
        <ele>35.4</ele>
        <time>2021-10-28 16:53:47</time>
      </trkpt>
      <trkpt lat="43.28945" lon="-2.99991">
        <ele>35.4</ele>
        <time>2021-10-28 16:53:48</time>
      </trkpt>
      <trkpt lat="43.2894" lon="-2.99978">
        <ele>35.6</ele>
        <time>2021-10-28 16:53:49</time>
      </trkpt>
      <trkpt lat="43.2894" lon="-2.99978">
        <ele>35.6</ele>
        <time>2021-10-28 16:53:50</time>
      </trkpt>
      <trkpt lat="43.28936" lon="-2.99972">
        <ele>35.6</ele>
        <time>2021-10-28 16:53:51</time>
      </trkpt>
      <trkpt lat="43.28929" lon="-2.99957">
        <ele>35.6</ele>
        <time>2021-10-28 16:53:52</time>
      </trkpt>
      <trkpt lat="43.28929" lon="-2.99957">
        <ele>35.6</ele>
        <time>2021-10-28 16:53:53</time>
      </trkpt>
      <trkpt lat="43.28925" lon="-2.9995">
        <ele>35.6</ele>
        <time>2021-10-28 16:53:54</time>
      </trkpt>
      <trkpt lat="43.28919" lon="-2.99937">
        <ele>35.6</ele>
        <time>2021-10-28 16:53:55</time>
      </trkpt>
      <trkpt lat="43.28919" lon="-2.99937">
        <ele>35.6</ele>
        <time>2021-10-28 16:53:56</time>
      </trkpt>
      <trkpt lat="43.28915" lon="-2.9993">
        <ele>35.6</ele>
        <time>2021-10-28 16:53:57</time>
      </trkpt>
      <trkpt lat="43.28912" lon="-2.99924">
        <ele>35.6</ele>
        <time>2021-10-28 16:53:58</time>
      </trkpt>
      <trkpt lat="43.28904" lon="-2.99914">
        <ele>35.4</ele>
        <time>2021-10-28 16:53:59</time>
      </trkpt>
      <trkpt lat="43.28904" lon="-2.99914">
        <ele>35.4</ele>
        <time>2021-10-28 16:54:00</time>
      </trkpt>
      <trkpt lat="43.28896" lon="-2.999">
        <ele>35.4</ele>
        <time>2021-10-28 16:54:01</time>
      </trkpt>
      <trkpt lat="43.28896" lon="-2.999">
        <ele>35.4</ele>
        <time>2021-10-28 16:54:02</time>
      </trkpt>
      <trkpt lat="43.28893" lon="-2.99894">
        <ele>35.2</ele>
        <time>2021-10-28 16:54:03</time>
      </trkpt>
      <trkpt lat="43.28888" lon="-2.99885">
        <ele>35</ele>
        <time>2021-10-28 16:54:04</time>
      </trkpt>
      <trkpt lat="43.28884" lon="-2.99878">
        <ele>35</ele>
        <time>2021-10-28 16:54:05</time>
      </trkpt>
      <trkpt lat="43.28875" lon="-2.99865">
        <ele>34.8</ele>
        <time>2021-10-28 16:54:06</time>
      </trkpt>
      <trkpt lat="43.28871" lon="-2.99859">
        <ele>34.8</ele>
        <time>2021-10-28 16:54:07</time>
      </trkpt>
      <trkpt lat="43.28871" lon="-2.99859">
        <ele>34.8</ele>
        <time>2021-10-28 16:54:08</time>
      </trkpt>
      <trkpt lat="43.28868" lon="-2.99846">
        <ele>34.8</ele>
        <time>2021-10-28 16:54:09</time>
      </trkpt>
      <trkpt lat="43.28868" lon="-2.99846">
        <ele>34.8</ele>
        <time>2021-10-28 16:54:10</time>
      </trkpt>
      <trkpt lat="43.28869" lon="-2.99838">
        <ele>34.8</ele>
        <time>2021-10-28 16:54:11</time>
      </trkpt>
      <trkpt lat="43.2887" lon="-2.9983">
        <ele>34.8</ele>
        <time>2021-10-28 16:54:12</time>
      </trkpt>
      <trkpt lat="43.28876" lon="-2.99819">
        <ele>34.8</ele>
        <time>2021-10-28 16:54:13</time>
      </trkpt>
      <trkpt lat="43.28876" lon="-2.99819">
        <ele>34.8</ele>
        <time>2021-10-28 16:54:14</time>
      </trkpt>
      <trkpt lat="43.28881" lon="-2.99813">
        <ele>34.8</ele>
        <time>2021-10-28 16:54:15</time>
      </trkpt>
      <trkpt lat="43.28888" lon="-2.99801">
        <ele>34.8</ele>
        <time>2021-10-28 16:54:16</time>
      </trkpt>
      <trkpt lat="43.28888" lon="-2.99801">
        <ele>34.8</ele>
        <time>2021-10-28 16:54:17</time>
      </trkpt>
      <trkpt lat="43.28893" lon="-2.99786">
        <ele>34.8</ele>
        <time>2021-10-28 16:54:18</time>
      </trkpt>
      <trkpt lat="43.28893" lon="-2.99786">
        <ele>34.6</ele>
        <time>2021-10-28 16:54:19</time>
      </trkpt>
      <trkpt lat="43.28902" lon="-2.99773">
        <ele>34.6</ele>
        <time>2021-10-28 16:54:20</time>
      </trkpt>
      <trkpt lat="43.28902" lon="-2.99773">
        <ele>34.6</ele>
        <time>2021-10-28 16:54:21</time>
      </trkpt>
      <trkpt lat="43.28904" lon="-2.99765">
        <ele>34.6</ele>
        <time>2021-10-28 16:54:22</time>
      </trkpt>
      <trkpt lat="43.28908" lon="-2.99758">
        <ele>34.8</ele>
        <time>2021-10-28 16:54:23</time>
      </trkpt>
      <trkpt lat="43.28914" lon="-2.99744">
        <ele>34.8</ele>
        <time>2021-10-28 16:54:24</time>
      </trkpt>
      <trkpt lat="43.28914" lon="-2.99735">
        <ele>34.8</ele>
        <time>2021-10-28 16:54:25</time>
      </trkpt>
      <trkpt lat="43.28914" lon="-2.99735">
        <ele>35</ele>
        <time>2021-10-28 16:54:26</time>
      </trkpt>
      <trkpt lat="43.28917" lon="-2.99719">
        <ele>35</ele>
        <time>2021-10-28 16:54:27</time>
      </trkpt>
      <trkpt lat="43.28917" lon="-2.99719">
        <ele>35</ele>
        <time>2021-10-28 16:54:28</time>
      </trkpt>
      <trkpt lat="43.2892" lon="-2.99712">
        <ele>35</ele>
        <time>2021-10-28 16:54:29</time>
      </trkpt>
      <trkpt lat="43.28923" lon="-2.99705">
        <ele>35</ele>
        <time>2021-10-28 16:54:30</time>
      </trkpt>
      <trkpt lat="43.28923" lon="-2.99697">
        <ele>35</ele>
        <time>2021-10-28 16:54:31</time>
      </trkpt>
      <trkpt lat="43.28922" lon="-2.99692">
        <ele>35</ele>
        <time>2021-10-28 16:54:32</time>
      </trkpt>
      <trkpt lat="43.28923" lon="-2.99676">
        <ele>35</ele>
        <time>2021-10-28 16:54:33</time>
      </trkpt>
      <trkpt lat="43.28923" lon="-2.99676">
        <ele>35.2</ele>
        <time>2021-10-28 16:54:34</time>
      </trkpt>
      <trkpt lat="43.28929" lon="-2.9966">
        <ele>35.2</ele>
        <time>2021-10-28 16:54:35</time>
      </trkpt>
      <trkpt lat="43.28929" lon="-2.9966">
        <ele>35.2</ele>
        <time>2021-10-28 16:54:36</time>
      </trkpt>
      <trkpt lat="43.2893" lon="-2.99652">
        <ele>35.2</ele>
        <time>2021-10-28 16:54:37</time>
      </trkpt>
      <trkpt lat="43.28933" lon="-2.99645">
        <ele>35.4</ele>
        <time>2021-10-28 16:54:38</time>
      </trkpt>
      <trkpt lat="43.28935" lon="-2.99639">
        <ele>35.4</ele>
        <time>2021-10-28 16:54:39</time>
      </trkpt>
      <trkpt lat="43.28937" lon="-2.9963">
        <ele>35.4</ele>
        <time>2021-10-28 16:54:40</time>
      </trkpt>
      <trkpt lat="43.28938" lon="-2.99617">
        <ele>35.2</ele>
        <time>2021-10-28 16:54:41</time>
      </trkpt>
      <trkpt lat="43.28938" lon="-2.99617">
        <ele>35.2</ele>
        <time>2021-10-28 16:54:42</time>
      </trkpt>
      <trkpt lat="43.2894" lon="-2.99609">
        <ele>35</ele>
        <time>2021-10-28 16:54:43</time>
      </trkpt>
      <trkpt lat="43.28945" lon="-2.99595">
        <ele>35</ele>
        <time>2021-10-28 16:54:44</time>
      </trkpt>
      <trkpt lat="43.28945" lon="-2.99595">
        <ele>34.8</ele>
        <time>2021-10-28 16:54:45</time>
      </trkpt>
      <trkpt lat="43.28948" lon="-2.99583">
        <ele>34.6</ele>
        <time>2021-10-28 16:54:46</time>
      </trkpt>
      <trkpt lat="43.28948" lon="-2.99583">
        <ele>34.6</ele>
        <time>2021-10-28 16:54:47</time>
      </trkpt>
      <trkpt lat="43.28952" lon="-2.9957">
        <ele>34.6</ele>
        <time>2021-10-28 16:54:48</time>
      </trkpt>
      <trkpt lat="43.28952" lon="-2.9957">
        <ele>34.8</ele>
        <time>2021-10-28 16:54:49</time>
      </trkpt>
      <trkpt lat="43.28956" lon="-2.99564">
        <ele>34.8</ele>
        <time>2021-10-28 16:54:50</time>
      </trkpt>
      <trkpt lat="43.28959" lon="-2.99556">
        <ele>34.8</ele>
        <time>2021-10-28 16:54:51</time>
      </trkpt>
      <trkpt lat="43.28965" lon="-2.9954">
        <ele>34.8</ele>
        <time>2021-10-28 16:54:52</time>
      </trkpt>
      <trkpt lat="43.28968" lon="-2.99533">
        <ele>34.6</ele>
        <time>2021-10-28 16:54:53</time>
      </trkpt>
      <trkpt lat="43.28968" lon="-2.99533">
        <ele>34.6</ele>
        <time>2021-10-28 16:54:54</time>
      </trkpt>
      <trkpt lat="43.28971" lon="-2.99526">
        <ele>34.6</ele>
        <time>2021-10-28 16:54:55</time>
      </trkpt>
      <trkpt lat="43.28971" lon="-2.9952">
        <ele>34.6</ele>
        <time>2021-10-28 16:54:56</time>
      </trkpt>
      <trkpt lat="43.28976" lon="-2.99505">
        <ele>34.6</ele>
        <time>2021-10-28 16:54:57</time>
      </trkpt>
      <trkpt lat="43.28976" lon="-2.99505">
        <ele>34.8</ele>
        <time>2021-10-28 16:54:58</time>
      </trkpt>
      <trkpt lat="43.28978" lon="-2.995">
        <ele>35</ele>
        <time>2021-10-28 16:54:59</time>
      </trkpt>
      <trkpt lat="43.28979" lon="-2.99492">
        <ele>35.2</ele>
        <time>2021-10-28 16:55:00</time>
      </trkpt>
      <trkpt lat="43.28982" lon="-2.99475">
        <ele>35.6</ele>
        <time>2021-10-28 16:55:01</time>
      </trkpt>
      <trkpt lat="43.28984" lon="-2.99471">
        <ele>35.6</ele>
        <time>2021-10-28 16:55:02</time>
      </trkpt>
      <trkpt lat="43.28984" lon="-2.99471">
        <ele>35.6</ele>
        <time>2021-10-28 16:55:03</time>
      </trkpt>
      <trkpt lat="43.28988" lon="-2.99467">
        <ele>35.6</ele>
        <time>2021-10-28 16:55:04</time>
      </trkpt>
      <trkpt lat="43.28992" lon="-2.99453">
        <ele>35.6</ele>
        <time>2021-10-28 16:55:05</time>
      </trkpt>
      <trkpt lat="43.28992" lon="-2.99453">
        <ele>35.6</ele>
        <time>2021-10-28 16:55:06</time>
      </trkpt>
      <trkpt lat="43.28994" lon="-2.99447">
        <ele>35.6</ele>
        <time>2021-10-28 16:55:07</time>
      </trkpt>
      <trkpt lat="43.28996" lon="-2.99444">
        <ele>35.8</ele>
        <time>2021-10-28 16:55:08</time>
      </trkpt>
      <trkpt lat="43.28998" lon="-2.9944">
        <ele>35.8</ele>
        <time>2021-10-28 16:55:09</time>
      </trkpt>
      <trkpt lat="43.28998" lon="-2.9944">
        <ele>35.8</ele>
        <time>2021-10-28 16:55:10</time>
      </trkpt>
      <trkpt lat="43.29" lon="-2.99433">
        <ele>35.8</ele>
        <time>2021-10-28 16:55:11</time>
      </trkpt>
      <trkpt lat="43.29" lon="-2.99433">
        <ele>35.8</ele>
        <time>2021-10-28 16:55:12</time>
      </trkpt>
      <trkpt lat="43.29001" lon="-2.99431">
        <ele>35.8</ele>
        <time>2021-10-28 16:55:13</time>
      </trkpt>
      <trkpt lat="43.29003" lon="-2.99429">
        <ele>35.8</ele>
        <time>2021-10-28 16:55:14</time>
      </trkpt>
      <trkpt lat="43.29003" lon="-2.99426">
        <ele>35.8</ele>
        <time>2021-10-28 16:55:15</time>
      </trkpt>
      <trkpt lat="43.29004" lon="-2.99425">
        <ele>35.8</ele>
        <time>2021-10-28 16:55:16</time>
      </trkpt>
      <trkpt lat="43.29005" lon="-2.99425">
        <ele>35.8</ele>
        <time>2021-10-28 16:55:17</time>
      </trkpt>
      <trkpt lat="43.29005" lon="-2.99428">
        <ele>35.8</ele>
        <time>2021-10-28 16:55:18</time>
      </trkpt>
      <trkpt lat="43.29005" lon="-2.99428">
        <ele>35.8</ele>
        <time>2021-10-28 16:55:19</time>
      </trkpt>
      <trkpt lat="43.29007" lon="-2.99428">
        <ele>35.6</ele>
        <time>2021-10-28 16:55:20</time>
      </trkpt>
      <trkpt lat="43.29007" lon="-2.99428">
        <ele>35.6</ele>
        <time>2021-10-28 16:55:21</time>
      </trkpt>
      <trkpt lat="43.29009" lon="-2.99429">
        <ele>35.6</ele>
        <time>2021-10-28 16:55:22</time>
      </trkpt>
      <trkpt lat="43.29012" lon="-2.99429">
        <ele>35.6</ele>
        <time>2021-10-28 16:55:23</time>
      </trkpt>
      <trkpt lat="43.29015" lon="-2.99429">
        <ele>35.6</ele>
        <time>2021-10-28 16:55:24</time>
      </trkpt>
      <trkpt lat="43.29016" lon="-2.99431">
        <ele>35.6</ele>
        <time>2021-10-28 16:55:25</time>
      </trkpt>
      <trkpt lat="43.29019" lon="-2.99433">
        <ele>35.6</ele>
        <time>2021-10-28 16:55:26</time>
      </trkpt>
      <trkpt lat="43.29019" lon="-2.99433">
        <ele>35.4</ele>
        <time>2021-10-28 16:55:27</time>
      </trkpt>
      <trkpt lat="43.29022" lon="-2.99432">
        <ele>35.4</ele>
        <time>2021-10-28 16:55:28</time>
      </trkpt>
      <trkpt lat="43.29023" lon="-2.99431">
        <ele>35.2</ele>
        <time>2021-10-28 16:55:29</time>
      </trkpt>
      <trkpt lat="43.29024" lon="-2.99433">
        <ele>35.2</ele>
        <time>2021-10-28 16:55:30</time>
      </trkpt>
      <trkpt lat="43.29028" lon="-2.99435">
        <ele>35.2</ele>
        <time>2021-10-28 16:55:31</time>
      </trkpt>
      <trkpt lat="43.29028" lon="-2.99435">
        <ele>35.2</ele>
        <time>2021-10-28 16:55:32</time>
      </trkpt>
      <trkpt lat="43.29031" lon="-2.99438">
        <ele>35.2</ele>
        <time>2021-10-28 16:55:33</time>
      </trkpt>
      <trkpt lat="43.29037" lon="-2.9944">
        <ele>35.2</ele>
        <time>2021-10-28 16:55:34</time>
      </trkpt>
      <trkpt lat="43.29037" lon="-2.9944">
        <ele>35.2</ele>
        <time>2021-10-28 16:55:35</time>
      </trkpt>
      <trkpt lat="43.29038" lon="-2.99437">
        <ele>35.2</ele>
        <time>2021-10-28 16:55:36</time>
      </trkpt>
      <trkpt lat="43.2904" lon="-2.99435">
        <ele>35.2</ele>
        <time>2021-10-28 16:55:37</time>
      </trkpt>
      <trkpt lat="43.2904" lon="-2.99435">
        <ele>35.2</ele>
        <time>2021-10-28 16:55:38</time>
      </trkpt>
      <trkpt lat="43.29044" lon="-2.99432">
        <ele>35.4</ele>
        <time>2021-10-28 16:55:39</time>
      </trkpt>
      <trkpt lat="43.29044" lon="-2.99432">
        <ele>35.4</ele>
        <time>2021-10-28 16:55:40</time>
      </trkpt>
      <trkpt lat="43.29044" lon="-2.99429">
        <ele>35.6</ele>
        <time>2021-10-28 16:55:41</time>
      </trkpt>
      <trkpt lat="43.29046" lon="-2.99429">
        <ele>35.6</ele>
        <time>2021-10-28 16:55:42</time>
      </trkpt>
      <trkpt lat="43.29046" lon="-2.99429">
        <ele>35.6</ele>
        <time>2021-10-28 16:55:43</time>
      </trkpt>
      <trkpt lat="43.29047" lon="-2.99429">
        <ele>35.8</ele>
        <time>2021-10-28 16:55:44</time>
      </trkpt>
      <trkpt lat="43.29047" lon="-2.99428">
        <ele>35.8</ele>
        <time>2021-10-28 16:55:45</time>
      </trkpt>
      <trkpt lat="43.2905" lon="-2.99425">
        <ele>35.8</ele>
        <time>2021-10-28 16:55:46</time>
      </trkpt>
      <trkpt lat="43.2905" lon="-2.99425">
        <ele>35.8</ele>
        <time>2021-10-28 16:55:47</time>
      </trkpt>
      <trkpt lat="43.29049" lon="-2.99423">
        <ele>35.8</ele>
        <time>2021-10-28 16:55:48</time>
      </trkpt>
      <trkpt lat="43.29049" lon="-2.99423">
        <ele>35.8</ele>
        <time>2021-10-28 16:55:49</time>
      </trkpt>
      <trkpt lat="43.29049" lon="-2.99423">
        <ele>35.8</ele>
        <time>2021-10-28 16:55:50</time>
      </trkpt>
      <trkpt lat="43.29051" lon="-2.99421">
        <ele>35.8</ele>
        <time>2021-10-28 16:55:51</time>
      </trkpt>
      <trkpt lat="43.29048" lon="-2.99414">
        <ele>35.8</ele>
        <time>2021-10-28 16:55:52</time>
      </trkpt>
      <trkpt lat="43.29048" lon="-2.99414">
        <ele>35.6</ele>
        <time>2021-10-28 16:55:53</time>
      </trkpt>
      <trkpt lat="43.29106" lon="-2.99412">
        <ele>34.8</ele>
        <time>2021-10-28 16:56:57</time>
      </trkpt>
      <trkpt lat="43.29108" lon="-2.99411">
        <ele>34.6</ele>
        <time>2021-10-28 16:56:58</time>
      </trkpt>
      <trkpt lat="43.2911" lon="-2.9941">
        <ele>34.6</ele>
        <time>2021-10-28 16:56:59</time>
      </trkpt>
      <trkpt lat="43.2911" lon="-2.9941">
        <ele>34.6</ele>
        <time>2021-10-28 16:57:00</time>
      </trkpt>
      <trkpt lat="43.29115" lon="-2.9941">
        <ele>34.6</ele>
        <time>2021-10-28 16:57:01</time>
      </trkpt>
      <trkpt lat="43.29115" lon="-2.9941">
        <ele>34.6</ele>
        <time>2021-10-28 16:57:02</time>
      </trkpt>
      <trkpt lat="43.29115" lon="-2.9941">
        <ele>34.6</ele>
        <time>2021-10-28 16:57:03</time>
      </trkpt>
      <trkpt lat="43.29117" lon="-2.99409">
        <ele>34.6</ele>
        <time>2021-10-28 16:57:04</time>
      </trkpt>
      <trkpt lat="43.29117" lon="-2.99409">
        <ele>34.6</ele>
        <time>2021-10-28 16:57:05</time>
      </trkpt>
      <trkpt lat="43.29121" lon="-2.99408">
        <ele>34.6</ele>
        <time>2021-10-28 16:57:06</time>
      </trkpt>
      <trkpt lat="43.29121" lon="-2.99408">
        <ele>34.8</ele>
        <time>2021-10-28 16:57:07</time>
      </trkpt>
      <trkpt lat="43.29124" lon="-2.99407">
        <ele>34.6</ele>
        <time>2021-10-28 16:57:08</time>
      </trkpt>
      <trkpt lat="43.29127" lon="-2.99406">
        <ele>34.6</ele>
        <time>2021-10-28 16:57:09</time>
      </trkpt>
      <trkpt lat="43.29132" lon="-2.99407">
        <ele>34.6</ele>
        <time>2021-10-28 16:57:10</time>
      </trkpt>
      <trkpt lat="43.29132" lon="-2.99407">
        <ele>34.6</ele>
        <time>2021-10-28 16:57:11</time>
      </trkpt>
      <trkpt lat="43.29134" lon="-2.99407">
        <ele>34.4</ele>
        <time>2021-10-28 16:57:12</time>
      </trkpt>
      <trkpt lat="43.29134" lon="-2.99408">
        <ele>34.4</ele>
        <time>2021-10-28 16:57:13</time>
      </trkpt>
      <trkpt lat="43.29136" lon="-2.99409">
        <ele>34.4</ele>
        <time>2021-10-28 16:57:14</time>
      </trkpt>
      <trkpt lat="43.29138" lon="-2.9941">
        <ele>34.2</ele>
        <time>2021-10-28 16:57:15</time>
      </trkpt>
      <trkpt lat="43.29142" lon="-2.99411">
        <ele>34.2</ele>
        <time>2021-10-28 16:57:16</time>
      </trkpt>
      <trkpt lat="43.29142" lon="-2.99411">
        <ele>34.2</ele>
        <time>2021-10-28 16:57:17</time>
      </trkpt>
      <trkpt lat="43.29145" lon="-2.99424">
        <ele>34.2</ele>
        <time>2021-10-28 16:57:18</time>
      </trkpt>
      <trkpt lat="43.29145" lon="-2.99424">
        <ele>34.2</ele>
        <time>2021-10-28 16:57:19</time>
      </trkpt>
      <trkpt lat="43.29145" lon="-2.99427">
        <ele>34.2</ele>
        <time>2021-10-28 16:57:20</time>
      </trkpt>
      <trkpt lat="43.29146" lon="-2.99429">
        <ele>34.2</ele>
        <time>2021-10-28 16:57:21</time>
      </trkpt>
      <trkpt lat="43.29145" lon="-2.9943">
        <ele>34.2</ele>
        <time>2021-10-28 16:57:22</time>
      </trkpt>
      <trkpt lat="43.2915" lon="-2.99432">
        <ele>34.2</ele>
        <time>2021-10-28 16:57:23</time>
      </trkpt>
    </trkseg>
  </trk>
</gpx>
